<?xml version='1.0' encoding='UTF-8'?><gpx version="1.1" creator="JPX - https://github.com/jenetics/jpx" xmlns="http://www.topografix.com/GPX/1/1"><trk><trkseg><trkpt lat="44.0139116" lon="7.9647649"><ele>558.0</ele><time>2026-05-03T08:02:51.123Z</time></trkpt><trkpt lat="44.0139257" lon="7.9646379"><ele>558.0</ele><time>2026-05-03T08:02:52.122Z</time></trkpt><trkpt lat="44.0139529" lon="7.9645168"><ele>558.0</ele><time>2026-05-03T08:02:53.122Z</time></trkpt><trkpt lat="44.0139629" lon="7.9643433"><ele>558.0</ele><time>2026-05-03T08:02:54.122Z</time></trkpt><trkpt lat="44.0139721" lon="7.9641678"><ele>558.0</ele><time>2026-05-03T08:02:55.122Z</time></trkpt><trkpt lat="44.0139521" lon="7.9640129"><ele>559.25</ele><time>2026-05-03T08:02:56.122Z</time></trkpt><trkpt lat="44.013948" lon="7.9638369"><ele>560.5</ele><time>2026-05-03T08:02:57.123Z</time></trkpt><trkpt lat="44.0139252" lon="7.9636637"><ele>561.75</ele><time>2026-05-03T08:02:58.122Z</time></trkpt><trkpt lat="44.0138985" lon="7.9634692"><ele>563.0</ele><time>2026-05-03T08:02:59.122Z</time></trkpt><trkpt lat="44.0138625" lon="7.9632802"><ele>569.5</ele><time>2026-05-03T08:03:00.122Z</time></trkpt><trkpt lat="44.013788" lon="7.963099"><ele>576.0</ele><time>2026-05-03T08:03:01.122Z</time></trkpt><trkpt lat="44.0135809" lon="7.962664"><ele>572.3333333333334</ele><time>2026-05-03T08:03:04.061Z</time></trkpt><trkpt lat="44.0134265" lon="7.9624432"><ele>568.6666666666667</ele><time>2026-05-03T08:03:05.123Z</time></trkpt><trkpt lat="44.0133378" lon="7.9623187"><ele>565.0</ele><time>2026-05-03T08:03:06.122Z</time></trkpt><trkpt lat="44.0132473" lon="7.9622071"><ele>565.0</ele><time>2026-05-03T08:03:07.122Z</time></trkpt><trkpt lat="44.0131799" lon="7.9620713"><ele>565.0</ele><time>2026-05-03T08:03:08.124Z</time></trkpt><trkpt lat="44.0131435" lon="7.9619172"><ele>565.0</ele><time>2026-05-03T08:03:09.123Z</time></trkpt><trkpt lat="44.0131304" lon="7.9617617"><ele>565.0</ele><time>2026-05-03T08:03:10.122Z</time></trkpt><trkpt lat="44.0131216" lon="7.9615876"><ele>566.75</ele><time>2026-05-03T08:03:11.122Z</time></trkpt><trkpt lat="44.013124" lon="7.961394"><ele>568.5</ele><time>2026-05-03T08:03:12.122Z</time></trkpt><trkpt lat="44.0131153" lon="7.9612006"><ele>570.25</ele><time>2026-05-03T08:03:13.123Z</time></trkpt><trkpt lat="44.0131057" lon="7.9609992"><ele>572.0</ele><time>2026-05-03T08:03:14.122Z</time></trkpt><trkpt lat="44.0130954" lon="7.960804"><ele>574.5</ele><time>2026-05-03T08:03:15.122Z</time></trkpt><trkpt lat="44.0130719" lon="7.9606099"><ele>577.0</ele><time>2026-05-03T08:03:16.123Z</time></trkpt><trkpt lat="44.0130168" lon="7.9604279"><ele>579.5</ele><time>2026-05-03T08:03:17.123Z</time></trkpt><trkpt lat="44.0129385" lon="7.9602606"><ele>582.0</ele><time>2026-05-03T08:03:18.122Z</time></trkpt><trkpt lat="44.0128355" lon="7.9601158"><ele>582.25</ele><time>2026-05-03T08:03:19.122Z</time></trkpt><trkpt lat="44.0127261" lon="7.9599822"><ele>582.5</ele><time>2026-05-03T08:03:20.123Z</time></trkpt><trkpt lat="44.0126165" lon="7.9598514"><ele>582.75</ele><time>2026-05-03T08:03:21.122Z</time></trkpt><trkpt lat="44.0125117" lon="7.9597187"><ele>583.0</ele><time>2026-05-03T08:03:22.122Z</time></trkpt><trkpt lat="44.0124201" lon="7.9595793"><ele>583.0</ele><time>2026-05-03T08:03:23.122Z</time></trkpt><trkpt lat="44.0123338" lon="7.9594231"><ele>583.0</ele><time>2026-05-03T08:03:24.122Z</time></trkpt><trkpt lat="44.0122255" lon="7.9593122"><ele>583.0</ele><time>2026-05-03T08:03:25.123Z</time></trkpt><trkpt lat="44.012107" lon="7.9592223"><ele>583.0</ele><time>2026-05-03T08:03:26.122Z</time></trkpt><trkpt lat="44.011972" lon="7.959172"><ele>593.3333333333334</ele><time>2026-05-03T08:03:27.122Z</time></trkpt><trkpt lat="44.0118241" lon="7.9591666"><ele>603.6666666666666</ele><time>2026-05-03T08:03:28.122Z</time></trkpt><trkpt lat="44.0116726" lon="7.9591623"><ele>614.0</ele><time>2026-05-03T08:03:29.122Z</time></trkpt><trkpt lat="44.0115216" lon="7.9591537"><ele>614.0</ele><time>2026-05-03T08:03:30.122Z</time></trkpt><trkpt lat="44.011374" lon="7.9591365"><ele>614.0</ele><time>2026-05-03T08:03:31.123Z</time></trkpt><trkpt lat="44.0112289" lon="7.9591224"><ele>614.0</ele><time>2026-05-03T08:03:32.122Z</time></trkpt><trkpt lat="44.0110913" lon="7.9591031"><ele>614.0</ele><time>2026-05-03T08:03:33.123Z</time></trkpt><trkpt lat="44.0109575" lon="7.9591104"><ele>614.0</ele><time>2026-05-03T08:03:34.122Z</time></trkpt><trkpt lat="44.0108303" lon="7.9591509"><ele>614.0</ele><time>2026-05-03T08:03:35.122Z</time></trkpt><trkpt lat="44.0107138" lon="7.959211"><ele>614.0</ele><time>2026-05-03T08:03:36.122Z</time></trkpt><trkpt lat="44.0105972" lon="7.9592522"><ele>614.0</ele><time>2026-05-03T08:03:37.122Z</time></trkpt><trkpt lat="44.0104882" lon="7.9592315"><ele>608.4</ele><time>2026-05-03T08:03:38.122Z</time></trkpt><trkpt lat="44.0104" lon="7.9591533"><ele>602.8</ele><time>2026-05-03T08:03:39.122Z</time></trkpt><trkpt lat="44.0103408" lon="7.9590236"><ele>597.2</ele><time>2026-05-03T08:03:40.122Z</time></trkpt><trkpt lat="44.0103048" lon="7.958875"><ele>591.6</ele><time>2026-05-03T08:03:41.122Z</time></trkpt><trkpt lat="44.0103053" lon="7.9587128"><ele>586.0</ele><time>2026-05-03T08:03:42.123Z</time></trkpt><trkpt lat="44.010332" lon="7.9585468"><ele>586.0</ele><time>2026-05-03T08:03:43.123Z</time></trkpt><trkpt lat="44.0103622" lon="7.9583763"><ele>586.0</ele><time>2026-05-03T08:03:44.123Z</time></trkpt><trkpt lat="44.0103817" lon="7.9581972"><ele>586.0</ele><time>2026-05-03T08:03:45.122Z</time></trkpt><trkpt lat="44.0103897" lon="7.9580171"><ele>586.0</ele><time>2026-05-03T08:03:46.122Z</time></trkpt><trkpt lat="44.0104034" lon="7.957843"><ele>586.75</ele><time>2026-05-03T08:03:47.122Z</time></trkpt><trkpt lat="44.010432" lon="7.9576801"><ele>587.5</ele><time>2026-05-03T08:03:48.122Z</time></trkpt><trkpt lat="44.0104655" lon="7.9575189"><ele>588.25</ele><time>2026-05-03T08:03:49.123Z</time></trkpt><trkpt lat="44.0104691" lon="7.9573404"><ele>589.0</ele><time>2026-05-03T08:03:50.122Z</time></trkpt><trkpt lat="44.0104437" lon="7.9571554"><ele>590.5</ele><time>2026-05-03T08:03:51.123Z</time></trkpt><trkpt lat="44.0103798" lon="7.9569789"><ele>592.0</ele><time>2026-05-03T08:03:52.122Z</time></trkpt><trkpt lat="44.0102913" lon="7.9568061"><ele>593.5</ele><time>2026-05-03T08:03:53.122Z</time></trkpt><trkpt lat="44.0101933" lon="7.9566643"><ele>595.0</ele><time>2026-05-03T08:03:54.122Z</time></trkpt><trkpt lat="44.0100991" lon="7.9565377"><ele>598.0</ele><time>2026-05-03T08:03:55.123Z</time></trkpt><trkpt lat="44.0100567" lon="7.9563984"><ele>601.0</ele><time>2026-05-03T08:03:56.123Z</time></trkpt><trkpt lat="44.0100622" lon="7.9562399"><ele>604.0</ele><time>2026-05-03T08:03:57.122Z</time></trkpt><trkpt lat="44.0100934" lon="7.9560736"><ele>607.0</ele><time>2026-05-03T08:03:58.123Z</time></trkpt><trkpt lat="44.010128" lon="7.9559194"><ele>605.5</ele><time>2026-05-03T08:03:59.123Z</time></trkpt><trkpt lat="44.01019" lon="7.9557951"><ele>604.0</ele><time>2026-05-03T08:04:00.123Z</time></trkpt><trkpt lat="44.0102876" lon="7.9557176"><ele>602.5</ele><time>2026-05-03T08:04:01.122Z</time></trkpt><trkpt lat="44.0103953" lon="7.9556446"><ele>601.0</ele><time>2026-05-03T08:04:02.122Z</time></trkpt><trkpt lat="44.0105047" lon="7.9555558"><ele>601.0</ele><time>2026-05-03T08:04:03.122Z</time></trkpt><trkpt lat="44.0106006" lon="7.9554428"><ele>601.0</ele><time>2026-05-03T08:04:04.122Z</time></trkpt><trkpt lat="44.010675" lon="7.9553056"><ele>601.0</ele><time>2026-05-03T08:04:05.122Z</time></trkpt><trkpt lat="44.0107317" lon="7.9551388"><ele>601.0</ele><time>2026-05-03T08:04:06.122Z</time></trkpt><trkpt lat="44.0107651" lon="7.9549601"><ele>599.25</ele><time>2026-05-03T08:04:07.123Z</time></trkpt><trkpt lat="44.0107742" lon="7.9547742"><ele>597.5</ele><time>2026-05-03T08:04:08.122Z</time></trkpt><trkpt lat="44.0107435" lon="7.9545793"><ele>595.75</ele><time>2026-05-03T08:04:09.122Z</time></trkpt><trkpt lat="44.0106836" lon="7.954396"><ele>594.0</ele><time>2026-05-03T08:04:10.122Z</time></trkpt><trkpt lat="44.0106227" lon="7.9542173"><ele>594.0</ele><time>2026-05-03T08:04:11.122Z</time></trkpt><trkpt lat="44.0105621" lon="7.9540294"><ele>594.0</ele><time>2026-05-03T08:04:12.123Z</time></trkpt><trkpt lat="44.0104995" lon="7.9538444"><ele>594.0</ele><time>2026-05-03T08:04:13.122Z</time></trkpt><trkpt lat="44.0104397" lon="7.9536557"><ele>594.0</ele><time>2026-05-03T08:04:14.123Z</time></trkpt><trkpt lat="44.010379" lon="7.9534663"><ele>597.75</ele><time>2026-05-03T08:04:15.122Z</time></trkpt><trkpt lat="44.0103186" lon="7.9532758"><ele>601.5</ele><time>2026-05-03T08:04:16.122Z</time></trkpt><trkpt lat="44.010276" lon="7.9530777"><ele>605.25</ele><time>2026-05-03T08:04:17.122Z</time></trkpt><trkpt lat="44.0102406" lon="7.95289"><ele>609.0</ele><time>2026-05-03T08:04:18.122Z</time></trkpt><trkpt lat="44.0102252" lon="7.9527025"><ele>611.5</ele><time>2026-05-03T08:04:19.122Z</time></trkpt><trkpt lat="44.0102096" lon="7.9525098"><ele>614.0</ele><time>2026-05-03T08:04:20.122Z</time></trkpt><trkpt lat="44.0102057" lon="7.9523285"><ele>616.5</ele><time>2026-05-03T08:04:21.122Z</time></trkpt><trkpt lat="44.0102109" lon="7.9521569"><ele>619.0</ele><time>2026-05-03T08:04:22.122Z</time></trkpt><trkpt lat="44.0102278" lon="7.9519887"><ele>619.0</ele><time>2026-05-03T08:04:23.122Z</time></trkpt><trkpt lat="44.0102582" lon="7.951826"><ele>619.0</ele><time>2026-05-03T08:04:24.123Z</time></trkpt><trkpt lat="44.010291" lon="7.951649"><ele>619.0</ele><time>2026-05-03T08:04:25.122Z</time></trkpt><trkpt lat="44.0103022" lon="7.9514734"><ele>619.0</ele><time>2026-05-03T08:04:26.123Z</time></trkpt><trkpt lat="44.0103094" lon="7.9513097"><ele>620.5</ele><time>2026-05-03T08:04:27.123Z</time></trkpt><trkpt lat="44.0101979" lon="7.9511492"><ele>622.0</ele><time>2026-05-03T08:04:28.122Z</time></trkpt><trkpt lat="44.010114" lon="7.9510046"><ele>623.5</ele><time>2026-05-03T08:04:29.123Z</time></trkpt><trkpt lat="44.0100023" lon="7.9508942"><ele>625.0</ele><time>2026-05-03T08:04:30.122Z</time></trkpt><trkpt lat="44.0098661" lon="7.9508475"><ele>625.0</ele><time>2026-05-03T08:04:31.122Z</time></trkpt><trkpt lat="44.0097238" lon="7.9508081"><ele>625.0</ele><time>2026-05-03T08:04:32.122Z</time></trkpt><trkpt lat="44.0095843" lon="7.9507366"><ele>625.0</ele><time>2026-05-03T08:04:33.122Z</time></trkpt><trkpt lat="44.009465" lon="7.9506086"><ele>625.0</ele><time>2026-05-03T08:04:34.123Z</time></trkpt><trkpt lat="44.0093669" lon="7.9504484"><ele>625.0</ele><time>2026-05-03T08:04:35.122Z</time></trkpt><trkpt lat="44.0092991" lon="7.9502613"><ele>625.0</ele><time>2026-05-03T08:04:36.122Z</time></trkpt><trkpt lat="44.0092644" lon="7.9500652"><ele>625.0</ele><time>2026-05-03T08:04:37.122Z</time></trkpt><trkpt lat="44.0092633" lon="7.9498676"><ele>625.0</ele><time>2026-05-03T08:04:38.122Z</time></trkpt><trkpt lat="44.0093033" lon="7.9496751"><ele>625.0</ele><time>2026-05-03T08:04:39.122Z</time></trkpt><trkpt lat="44.0093646" lon="7.9494904"><ele>625.0</ele><time>2026-05-03T08:04:40.122Z</time></trkpt><trkpt lat="44.0094164" lon="7.949316"><ele>625.0</ele><time>2026-05-03T08:04:41.122Z</time></trkpt><trkpt lat="44.0094655" lon="7.9491482"><ele>625.0</ele><time>2026-05-03T08:04:42.122Z</time></trkpt><trkpt lat="44.0095235" lon="7.9489907"><ele>623.6</ele><time>2026-05-03T08:04:43.123Z</time></trkpt><trkpt lat="44.009582" lon="7.9488429"><ele>622.2</ele><time>2026-05-03T08:04:44.122Z</time></trkpt><trkpt lat="44.0096156" lon="7.9486993"><ele>620.8</ele><time>2026-05-03T08:04:45.122Z</time></trkpt><trkpt lat="44.0095856" lon="7.948569"><ele>619.4</ele><time>2026-05-03T08:04:46.122Z</time></trkpt><trkpt lat="44.0094792" lon="7.9484996"><ele>618.0</ele><time>2026-05-03T08:04:47.123Z</time></trkpt><trkpt lat="44.0093537" lon="7.9484933"><ele>618.0</ele><time>2026-05-03T08:04:48.122Z</time></trkpt><trkpt lat="44.0092264" lon="7.9485091"><ele>618.0</ele><time>2026-05-03T08:04:49.122Z</time></trkpt><trkpt lat="44.0090703" lon="7.9485453"><ele>618.0</ele><time>2026-05-03T08:04:50.122Z</time></trkpt><trkpt lat="44.0089142" lon="7.9485506"><ele>618.0</ele><time>2026-05-03T08:04:51.123Z</time></trkpt><trkpt lat="44.008756" lon="7.9485363"><ele>623.0</ele><time>2026-05-03T08:04:52.123Z</time></trkpt><trkpt lat="44.0086063" lon="7.9485185"><ele>628.0</ele><time>2026-05-03T08:04:53.123Z</time></trkpt><trkpt lat="44.0084677" lon="7.9485073"><ele>633.0</ele><time>2026-05-03T08:04:54.122Z</time></trkpt><trkpt lat="44.0082414" lon="7.9483209"><ele>633.0</ele><time>2026-05-03T08:04:57.024Z</time></trkpt><trkpt lat="44.0082229" lon="7.9481108"><ele>633.0</ele><time>2026-05-03T08:04:58.123Z</time></trkpt><trkpt lat="44.0082278" lon="7.9479365"><ele>633.0</ele><time>2026-05-03T08:04:59.122Z</time></trkpt><trkpt lat="44.008229" lon="7.9477486"><ele>633.0</ele><time>2026-05-03T08:05:00.123Z</time></trkpt><trkpt lat="44.0082159" lon="7.9475604"><ele>628.0</ele><time>2026-05-03T08:05:01.122Z</time></trkpt><trkpt lat="44.0081842" lon="7.947398"><ele>623.0</ele><time>2026-05-03T08:05:02.122Z</time></trkpt><trkpt lat="44.0081519" lon="7.9472637"><ele>618.0</ele><time>2026-05-03T08:05:03.122Z</time></trkpt><trkpt lat="44.0081146" lon="7.9471492"><ele>613.0</ele><time>2026-05-03T08:05:04.122Z</time></trkpt><trkpt lat="44.008055" lon="7.9470689"><ele>608.0</ele><time>2026-05-03T08:05:05.123Z</time></trkpt><trkpt lat="44.0079752" lon="7.9470269"><ele>608.0</ele><time>2026-05-03T08:05:06.122Z</time></trkpt><trkpt lat="44.0078893" lon="7.9470125"><ele>608.0</ele><time>2026-05-03T08:05:07.122Z</time></trkpt><trkpt lat="44.0078042" lon="7.9470322"><ele>608.0</ele><time>2026-05-03T08:05:08.122Z</time></trkpt><trkpt lat="44.0077215" lon="7.947055"><ele>608.0</ele><time>2026-05-03T08:05:09.122Z</time></trkpt><trkpt lat="44.0076421" lon="7.9470697"><ele>608.0</ele><time>2026-05-03T08:05:10.122Z</time></trkpt><trkpt lat="44.0075616" lon="7.9470904"><ele>608.0</ele><time>2026-05-03T08:05:11.123Z</time></trkpt><trkpt lat="44.0074853" lon="7.9471081"><ele>609.7142857142857</ele><time>2026-05-03T08:05:12.123Z</time></trkpt><trkpt lat="44.007412" lon="7.9471"><ele>611.4285714285714</ele><time>2026-05-03T08:05:13.122Z</time></trkpt><trkpt lat="44.0073447" lon="7.9470578"><ele>613.1428571428571</ele><time>2026-05-03T08:05:14.122Z</time></trkpt><trkpt lat="44.0072962" lon="7.9469854"><ele>614.8571428571429</ele><time>2026-05-03T08:05:15.122Z</time></trkpt><trkpt lat="44.0072725" lon="7.9468885"><ele>616.5714285714286</ele><time>2026-05-03T08:05:16.124Z</time></trkpt><trkpt lat="44.0072757" lon="7.9467827"><ele>618.2857142857143</ele><time>2026-05-03T08:05:17.122Z</time></trkpt><trkpt lat="44.0072916" lon="7.94668"><ele>620.0</ele><time>2026-05-03T08:05:18.122Z</time></trkpt><trkpt lat="44.0073274" lon="7.9465734"><ele>620.0</ele><time>2026-05-03T08:05:19.122Z</time></trkpt><trkpt lat="44.0073673" lon="7.9464594"><ele>620.0</ele><time>2026-05-03T08:05:20.122Z</time></trkpt><trkpt lat="44.0074082" lon="7.946338"><ele>620.0</ele><time>2026-05-03T08:05:21.122Z</time></trkpt><trkpt lat="44.0074526" lon="7.946226"><ele>620.0</ele><time>2026-05-03T08:05:22.122Z</time></trkpt><trkpt lat="44.0074848" lon="7.9460978"><ele>620.0</ele><time>2026-05-03T08:05:23.122Z</time></trkpt><trkpt lat="44.0075161" lon="7.9459776"><ele>619.5</ele><time>2026-05-03T08:05:24.122Z</time></trkpt><trkpt lat="44.0075318" lon="7.9458524"><ele>619.0</ele><time>2026-05-03T08:05:25.122Z</time></trkpt><trkpt lat="44.0075005" lon="7.945702"><ele>618.5</ele><time>2026-05-03T08:05:26.122Z</time></trkpt><trkpt lat="44.0074561" lon="7.9455349"><ele>618.0</ele><time>2026-05-03T08:05:27.122Z</time></trkpt><trkpt lat="44.007426" lon="7.9453582"><ele>618.0</ele><time>2026-05-03T08:05:28.123Z</time></trkpt><trkpt lat="44.0074024" lon="7.9451502"><ele>618.0</ele><time>2026-05-03T08:05:29.122Z</time></trkpt><trkpt lat="44.0073761" lon="7.9449302"><ele>618.0</ele><time>2026-05-03T08:05:30.223Z</time></trkpt><trkpt lat="44.007329" lon="7.944396"><ele>613.0</ele><time>2026-05-03T08:05:33.036Z</time></trkpt><trkpt lat="44.0072801" lon="7.9440751"><ele>608.0</ele><time>2026-05-03T08:05:34.123Z</time></trkpt><trkpt lat="44.0072396" lon="7.9438672"><ele>603.0</ele><time>2026-05-03T08:05:35.122Z</time></trkpt><trkpt lat="44.0071614" lon="7.9436981"><ele>603.0</ele><time>2026-05-03T08:05:36.123Z</time></trkpt><trkpt lat="44.0070675" lon="7.9435472"><ele>603.0</ele><time>2026-05-03T08:05:37.122Z</time></trkpt><trkpt lat="44.0069662" lon="7.9433916"><ele>603.0</ele><time>2026-05-03T08:05:38.122Z</time></trkpt><trkpt lat="44.0068378" lon="7.9433048"><ele>603.0</ele><time>2026-05-03T08:05:39.122Z</time></trkpt><trkpt lat="44.0065466" lon="7.9430957"><ele>605.75</ele><time>2026-05-03T08:05:42.038Z</time></trkpt><trkpt lat="44.0065429" lon="7.9429127"><ele>608.5</ele><time>2026-05-03T08:05:43.122Z</time></trkpt><trkpt lat="44.0065715" lon="7.9427862"><ele>611.25</ele><time>2026-05-03T08:05:44.122Z</time></trkpt><trkpt lat="44.0066672" lon="7.9426954"><ele>614.0</ele><time>2026-05-03T08:05:45.122Z</time></trkpt><trkpt lat="44.0067744" lon="7.9426395"><ele>602.0</ele><time>2026-05-03T08:05:46.122Z</time></trkpt><trkpt lat="44.0069263" lon="7.9426435"><ele>590.0</ele><time>2026-05-03T08:05:47.122Z</time></trkpt><trkpt lat="44.0071025" lon="7.9426603"><ele>578.0</ele><time>2026-05-03T08:05:48.122Z</time></trkpt><trkpt lat="44.0072722" lon="7.9426467"><ele>578.0</ele><time>2026-05-03T08:05:49.122Z</time></trkpt><trkpt lat="44.0074402" lon="7.9426238"><ele>578.0</ele><time>2026-05-03T08:05:50.122Z</time></trkpt><trkpt lat="44.0076112" lon="7.9425934"><ele>578.0</ele><time>2026-05-03T08:05:51.122Z</time></trkpt><trkpt lat="44.0077791" lon="7.9425638"><ele>574.0</ele><time>2026-05-03T08:05:52.123Z</time></trkpt><trkpt lat="44.0079481" lon="7.9425341"><ele>570.0</ele><time>2026-05-03T08:05:53.122Z</time></trkpt><trkpt lat="44.0084907" lon="7.9424551"><ele>566.6666666666666</ele><time>2026-05-03T08:05:57.032Z</time></trkpt><trkpt lat="44.0087035" lon="7.9424561"><ele>563.3333333333333</ele><time>2026-05-03T08:05:58.122Z</time></trkpt><trkpt lat="44.008853" lon="7.9424615"><ele>560.0</ele><time>2026-05-03T08:05:59.123Z</time></trkpt><trkpt lat="44.009327" lon="7.9423398"><ele>556.6666666666666</ele><time>2026-05-03T08:06:03.04Z</time></trkpt><trkpt lat="44.0092979" lon="7.942006"><ele>553.3333333333334</ele><time>2026-05-03T08:06:04.122Z</time></trkpt><trkpt lat="44.0092535" lon="7.941734"><ele>550.0</ele><time>2026-05-03T08:06:05.122Z</time></trkpt><trkpt lat="44.0092242" lon="7.9414857"><ele>550.0</ele><time>2026-05-03T08:06:06.122Z</time></trkpt><trkpt lat="44.0092031" lon="7.9412614"><ele>550.0</ele><time>2026-05-03T08:06:07.122Z</time></trkpt><trkpt lat="44.0091737" lon="7.9410552"><ele>550.0</ele><time>2026-05-03T08:06:08.123Z</time></trkpt><trkpt lat="44.0091546" lon="7.9408561"><ele>549.6666666666667</ele><time>2026-05-03T08:06:09.123Z</time></trkpt><trkpt lat="44.0091652" lon="7.9406372"><ele>549.3333333333334</ele><time>2026-05-03T08:06:10.122Z</time></trkpt><trkpt lat="44.0091941" lon="7.9404226"><ele>549.0</ele><time>2026-05-03T08:06:11.122Z</time></trkpt><trkpt lat="44.0092283" lon="7.9402398"><ele>549.0</ele><time>2026-05-03T08:06:12.123Z</time></trkpt><trkpt lat="44.009275" lon="7.9400769"><ele>549.0</ele><time>2026-05-03T08:06:13.122Z</time></trkpt><trkpt lat="44.0093725" lon="7.9398258"><ele>549.0</ele><time>2026-05-03T08:06:15.123Z</time></trkpt><trkpt lat="44.0094791" lon="7.9397944"><ele>549.0</ele><time>2026-05-03T08:06:16.122Z</time></trkpt><trkpt lat="44.0096526" lon="7.9399181"><ele>549.0</ele><time>2026-05-03T08:06:17.122Z</time></trkpt><trkpt lat="44.0097598" lon="7.940204"><ele>549.0</ele><time>2026-05-03T08:06:18.123Z</time></trkpt><trkpt lat="44.009888" lon="7.9403817"><ele>549.0</ele><time>2026-05-03T08:06:19.123Z</time></trkpt><trkpt lat="44.0100268" lon="7.9405119"><ele>540.0</ele><time>2026-05-03T08:06:20.122Z</time></trkpt><trkpt lat="44.0101783" lon="7.9406185"><ele>531.0</ele><time>2026-05-03T08:06:21.122Z</time></trkpt><trkpt lat="44.0105393" lon="7.940935"><ele>525.6666666666666</ele><time>2026-05-03T08:06:24.036Z</time></trkpt><trkpt lat="44.0107146" lon="7.941126"><ele>520.3333333333333</ele><time>2026-05-03T08:06:25.122Z</time></trkpt><trkpt lat="44.0108456" lon="7.9412514"><ele>515.0</ele><time>2026-05-03T08:06:26.122Z</time></trkpt><trkpt lat="44.0109807" lon="7.9413461"><ele>514.5</ele><time>2026-05-03T08:06:27.122Z</time></trkpt><trkpt lat="44.0111145" lon="7.9414108"><ele>514.0</ele><time>2026-05-03T08:06:28.122Z</time></trkpt><trkpt lat="44.0112504" lon="7.9414519"><ele>513.5</ele><time>2026-05-03T08:06:29.123Z</time></trkpt><trkpt lat="44.011389" lon="7.9414591"><ele>513.0</ele><time>2026-05-03T08:06:30.123Z</time></trkpt><trkpt lat="44.0115268" lon="7.9414464"><ele>513.0</ele><time>2026-05-03T08:06:31.122Z</time></trkpt><trkpt lat="44.0116394" lon="7.9413044"><ele>513.0</ele><time>2026-05-03T08:06:32.122Z</time></trkpt><trkpt lat="44.0117531" lon="7.9411088"><ele>513.0</ele><time>2026-05-03T08:06:33.122Z</time></trkpt><trkpt lat="44.0118785" lon="7.9409717"><ele>516.3333333333334</ele><time>2026-05-03T08:06:34.123Z</time></trkpt><trkpt lat="44.0120231" lon="7.9408683"><ele>519.6666666666667</ele><time>2026-05-03T08:06:35.122Z</time></trkpt><trkpt lat="44.0121741" lon="7.9407791"><ele>523.0</ele><time>2026-05-03T08:06:36.122Z</time></trkpt><trkpt lat="44.0123193" lon="7.9407055"><ele>523.0</ele><time>2026-05-03T08:06:37.122Z</time></trkpt><trkpt lat="44.0124647" lon="7.940675"><ele>523.0</ele><time>2026-05-03T08:06:38.122Z</time></trkpt><trkpt lat="44.0126032" lon="7.940696"><ele>523.0</ele><time>2026-05-03T08:06:39.122Z</time></trkpt><trkpt lat="44.0127371" lon="7.9407048"><ele>523.0</ele><time>2026-05-03T08:06:40.123Z</time></trkpt><trkpt lat="44.0128565" lon="7.9406593"><ele>519.5</ele><time>2026-05-03T08:06:41.122Z</time></trkpt><trkpt lat="44.0129402" lon="7.9405379"><ele>516.0</ele><time>2026-05-03T08:06:42.122Z</time></trkpt><trkpt lat="44.0130151" lon="7.9403911"><ele>512.5</ele><time>2026-05-03T08:06:43.122Z</time></trkpt><trkpt lat="44.0130323" lon="7.9402094"><ele>509.0</ele><time>2026-05-03T08:06:44.122Z</time></trkpt><trkpt lat="44.0129785" lon="7.9399759"><ele>509.0</ele><time>2026-05-03T08:06:45.122Z</time></trkpt><trkpt lat="44.0129878" lon="7.9397997"><ele>509.0</ele><time>2026-05-03T08:06:46.122Z</time></trkpt><trkpt lat="44.0130035" lon="7.9396523"><ele>509.0</ele><time>2026-05-03T08:06:47.123Z</time></trkpt><trkpt lat="44.0130781" lon="7.9395301"><ele>509.0</ele><time>2026-05-03T08:06:48.122Z</time></trkpt><trkpt lat="44.0131789" lon="7.9394233"><ele>509.0</ele><time>2026-05-03T08:06:49.122Z</time></trkpt><trkpt lat="44.0132866" lon="7.939339"><ele>509.0</ele><time>2026-05-03T08:06:50.122Z</time></trkpt><trkpt lat="44.0134052" lon="7.9393193"><ele>509.0</ele><time>2026-05-03T08:06:51.124Z</time></trkpt><trkpt lat="44.0135218" lon="7.9393609"><ele>509.0</ele><time>2026-05-03T08:06:52.122Z</time></trkpt><trkpt lat="44.0136331" lon="7.9394678"><ele>505.3333333333333</ele><time>2026-05-03T08:06:53.122Z</time></trkpt><trkpt lat="44.0137646" lon="7.9395791"><ele>501.66666666666663</ele><time>2026-05-03T08:06:54.122Z</time></trkpt><trkpt lat="44.0138941" lon="7.9396801"><ele>498.0</ele><time>2026-05-03T08:06:55.122Z</time></trkpt><trkpt lat="44.0140261" lon="7.9398146"><ele>498.0</ele><time>2026-05-03T08:06:56.122Z</time></trkpt><trkpt lat="44.0141522" lon="7.9399439"><ele>498.0</ele><time>2026-05-03T08:06:57.122Z</time></trkpt><trkpt lat="44.0142931" lon="7.9400474"><ele>498.0</ele><time>2026-05-03T08:06:58.122Z</time></trkpt><trkpt lat="44.0144278" lon="7.940143"><ele>498.0</ele><time>2026-05-03T08:06:59.122Z</time></trkpt><trkpt lat="44.0145563" lon="7.9402198"><ele>498.0</ele><time>2026-05-03T08:07:00.123Z</time></trkpt><trkpt lat="44.0146991" lon="7.9401965"><ele>498.0</ele><time>2026-05-03T08:07:01.122Z</time></trkpt><trkpt lat="44.0148388" lon="7.9401171"><ele>498.0</ele><time>2026-05-03T08:07:02.122Z</time></trkpt><trkpt lat="44.0149822" lon="7.9400312"><ele>497.0</ele><time>2026-05-03T08:07:03.122Z</time></trkpt><trkpt lat="44.0151344" lon="7.9399541"><ele>496.0</ele><time>2026-05-03T08:07:04.122Z</time></trkpt><trkpt lat="44.0153085" lon="7.9399199"><ele>495.0</ele><time>2026-05-03T08:07:05.123Z</time></trkpt><trkpt lat="44.0154802" lon="7.9398892"><ele>495.0</ele><time>2026-05-03T08:07:06.122Z</time></trkpt><trkpt lat="44.0156485" lon="7.9398393"><ele>495.0</ele><time>2026-05-03T08:07:07.122Z</time></trkpt><trkpt lat="44.0158191" lon="7.9397362"><ele>495.0</ele><time>2026-05-03T08:07:08.123Z</time></trkpt><trkpt lat="44.0159836" lon="7.9396308"><ele>489.66666666666663</ele><time>2026-05-03T08:07:09.122Z</time></trkpt><trkpt lat="44.016129" lon="7.9395303"><ele>484.3333333333333</ele><time>2026-05-03T08:07:10.123Z</time></trkpt><trkpt lat="44.0162665" lon="7.9394069"><ele>479.0</ele><time>2026-05-03T08:07:11.122Z</time></trkpt><trkpt lat="44.0163958" lon="7.9392757"><ele>475.3333333333333</ele><time>2026-05-03T08:07:12.122Z</time></trkpt><trkpt lat="44.0164981" lon="7.9391082"><ele>471.66666666666663</ele><time>2026-05-03T08:07:13.122Z</time></trkpt><trkpt lat="44.0165878" lon="7.9389134"><ele>468.0</ele><time>2026-05-03T08:07:14.122Z</time></trkpt><trkpt lat="44.0166717" lon="7.9387073"><ele>468.0</ele><time>2026-05-03T08:07:15.122Z</time></trkpt><trkpt lat="44.0167466" lon="7.9385064"><ele>468.0</ele><time>2026-05-03T08:07:16.123Z</time></trkpt><trkpt lat="44.0168212" lon="7.9383077"><ele>468.0</ele><time>2026-05-03T08:07:17.122Z</time></trkpt><trkpt lat="44.0168924" lon="7.9381233"><ele>471.5</ele><time>2026-05-03T08:07:18.123Z</time></trkpt><trkpt lat="44.0169753" lon="7.9379562"><ele>475.0</ele><time>2026-05-03T08:07:19.122Z</time></trkpt><trkpt lat="44.0170755" lon="7.9378208"><ele>478.5</ele><time>2026-05-03T08:07:20.122Z</time></trkpt><trkpt lat="44.017236" lon="7.9378062"><ele>482.0</ele><time>2026-05-03T08:07:21.123Z</time></trkpt><trkpt lat="44.0173672" lon="7.9377331"><ele>482.0</ele><time>2026-05-03T08:07:22.123Z</time></trkpt><trkpt lat="44.0174799" lon="7.9376428"><ele>482.0</ele><time>2026-05-03T08:07:23.122Z</time></trkpt><trkpt lat="44.0175882" lon="7.9375351"><ele>482.0</ele><time>2026-05-03T08:07:24.122Z</time></trkpt><trkpt lat="44.0176572" lon="7.9373976"><ele>482.0</ele><time>2026-05-03T08:07:25.123Z</time></trkpt><trkpt lat="44.017703" lon="7.9372547"><ele>477.66666666666663</ele><time>2026-05-03T08:07:26.123Z</time></trkpt><trkpt lat="44.017768" lon="7.9371491"><ele>473.33333333333337</ele><time>2026-05-03T08:07:27.122Z</time></trkpt><trkpt lat="44.0178822" lon="7.937386"><ele>469.0</ele><time>2026-05-03T08:07:30.043Z</time></trkpt><trkpt lat="44.0179516" lon="7.937609"><ele>465.0</ele><time>2026-05-03T08:07:31.122Z</time></trkpt><trkpt lat="44.0180472" lon="7.9376902"><ele>461.0</ele><time>2026-05-03T08:07:32.123Z</time></trkpt><trkpt lat="44.0181626" lon="7.937701"><ele>457.0</ele><time>2026-05-03T08:07:33.123Z</time></trkpt><trkpt lat="44.0182889" lon="7.9376465"><ele>453.0</ele><time>2026-05-03T08:07:34.122Z</time></trkpt><trkpt lat="44.0184466" lon="7.9375688"><ele>456.66666666666663</ele><time>2026-05-03T08:07:35.122Z</time></trkpt><trkpt lat="44.018588" lon="7.9374801"><ele>460.3333333333333</ele><time>2026-05-03T08:07:36.122Z</time></trkpt><trkpt lat="44.0187325" lon="7.9374213"><ele>464.0</ele><time>2026-05-03T08:07:37.123Z</time></trkpt><trkpt lat="44.0188836" lon="7.9373453"><ele>464.0</ele><time>2026-05-03T08:07:38.123Z</time></trkpt><trkpt lat="44.0190297" lon="7.9372794"><ele>464.0</ele><time>2026-05-03T08:07:39.122Z</time></trkpt><trkpt lat="44.0191661" lon="7.9371944"><ele>464.0</ele><time>2026-05-03T08:07:40.122Z</time></trkpt><trkpt lat="44.0192928" lon="7.9371034"><ele>464.0</ele><time>2026-05-03T08:07:41.122Z</time></trkpt><trkpt lat="44.0194069" lon="7.9369502"><ele>467.3333333333333</ele><time>2026-05-03T08:07:42.122Z</time></trkpt><trkpt lat="44.0195063" lon="7.9367906"><ele>470.66666666666663</ele><time>2026-05-03T08:07:43.123Z</time></trkpt><trkpt lat="44.0196135" lon="7.9366502"><ele>474.0</ele><time>2026-05-03T08:07:44.123Z</time></trkpt><trkpt lat="44.0197253" lon="7.9365092"><ele>474.0</ele><time>2026-05-03T08:07:45.122Z</time></trkpt><trkpt lat="44.0198161" lon="7.93638"><ele>474.0</ele><time>2026-05-03T08:07:46.123Z</time></trkpt><trkpt lat="44.019941" lon="7.93628"><ele>474.0</ele><time>2026-05-03T08:07:47.122Z</time></trkpt><trkpt lat="44.0200747" lon="7.936244"><ele>474.0</ele><time>2026-05-03T08:07:48.123Z</time></trkpt><trkpt lat="44.0202506" lon="7.9363957"><ele>458.0</ele><time>2026-05-03T08:07:49.122Z</time></trkpt><trkpt lat="44.0202029" lon="7.9367542"><ele>442.0</ele><time>2026-05-03T08:07:50.122Z</time></trkpt><trkpt lat="44.0202647" lon="7.936959"><ele>426.0</ele><time>2026-05-03T08:07:51.122Z</time></trkpt><trkpt lat="44.0203258" lon="7.937145"><ele>414.5</ele><time>2026-05-03T08:07:52.122Z</time></trkpt><trkpt lat="44.0204626" lon="7.9377311"><ele>403.0</ele><time>2026-05-03T08:07:56.044Z</time></trkpt><trkpt lat="44.0205332" lon="7.9379303"><ele>403.0</ele><time>2026-05-03T08:07:57.122Z</time></trkpt><trkpt lat="44.0206121" lon="7.9380328"><ele>403.0</ele><time>2026-05-03T08:07:58.122Z</time></trkpt><trkpt lat="44.0207074" lon="7.9380924"><ele>403.0</ele><time>2026-05-03T08:07:59.122Z</time></trkpt><trkpt lat="44.0208288" lon="7.9381638"><ele>403.0</ele><time>2026-05-03T08:08:00.122Z</time></trkpt><trkpt lat="44.0209412" lon="7.9382395"><ele>408.75</ele><time>2026-05-03T08:08:01.122Z</time></trkpt><trkpt lat="44.0210384" lon="7.9383153"><ele>414.5</ele><time>2026-05-03T08:08:02.122Z</time></trkpt><trkpt lat="44.0211451" lon="7.9383706"><ele>420.25</ele><time>2026-05-03T08:08:03.122Z</time></trkpt><trkpt lat="44.0212605" lon="7.9383817"><ele>426.0</ele><time>2026-05-03T08:08:04.122Z</time></trkpt><trkpt lat="44.0213741" lon="7.9383835"><ele>426.0</ele><time>2026-05-03T08:08:05.122Z</time></trkpt><trkpt lat="44.0215167" lon="7.9383679"><ele>426.0</ele><time>2026-05-03T08:08:06.123Z</time></trkpt><trkpt lat="44.0216492" lon="7.9384195"><ele>426.0</ele><time>2026-05-03T08:08:07.122Z</time></trkpt><trkpt lat="44.0217948" lon="7.9384777"><ele>426.0</ele><time>2026-05-03T08:08:08.122Z</time></trkpt><trkpt lat="44.0220672" lon="7.9386264"><ele>393.0</ele><time>2026-05-03T08:08:10.122Z</time></trkpt><trkpt lat="44.0224161" lon="7.9390405"><ele>390.0</ele><time>2026-05-03T08:08:14.039Z</time></trkpt><trkpt lat="44.0225553" lon="7.9392706"><ele>387.0</ele><time>2026-05-03T08:08:15.122Z</time></trkpt><trkpt lat="44.0226344" lon="7.9394061"><ele>384.0</ele><time>2026-05-03T08:08:16.122Z</time></trkpt><trkpt lat="44.0227116" lon="7.9395095"><ele>381.0</ele><time>2026-05-03T08:08:17.122Z</time></trkpt><trkpt lat="44.0228707" lon="7.9395745"><ele>381.0</ele><time>2026-05-03T08:08:18.122Z</time></trkpt><trkpt lat="44.0230549" lon="7.9394953"><ele>381.0</ele><time>2026-05-03T08:08:19.122Z</time></trkpt><trkpt lat="44.0232072" lon="7.9394919"><ele>381.0</ele><time>2026-05-03T08:08:20.122Z</time></trkpt><trkpt lat="44.0233461" lon="7.9394345"><ele>384.0</ele><time>2026-05-03T08:08:21.122Z</time></trkpt><trkpt lat="44.0234829" lon="7.9393668"><ele>387.0</ele><time>2026-05-03T08:08:22.122Z</time></trkpt><trkpt lat="44.0236226" lon="7.9392982"><ele>390.0</ele><time>2026-05-03T08:08:23.123Z</time></trkpt><trkpt lat="44.0237491" lon="7.9392226"><ele>393.0</ele><time>2026-05-03T08:08:24.122Z</time></trkpt><trkpt lat="44.0238717" lon="7.939123"><ele>394.0</ele><time>2026-05-03T08:08:25.123Z</time></trkpt><trkpt lat="44.0239904" lon="7.9390173"><ele>395.0</ele><time>2026-05-03T08:08:26.122Z</time></trkpt><trkpt lat="44.0240663" lon="7.9388345"><ele>396.0</ele><time>2026-05-03T08:08:27.122Z</time></trkpt><trkpt lat="44.0241367" lon="7.9386526"><ele>397.0</ele><time>2026-05-03T08:08:28.123Z</time></trkpt><trkpt lat="44.024235" lon="7.9385267"><ele>397.0</ele><time>2026-05-03T08:08:29.122Z</time></trkpt><trkpt lat="44.0243455" lon="7.9384095"><ele>397.0</ele><time>2026-05-03T08:08:30.122Z</time></trkpt><trkpt lat="44.0244606" lon="7.9383078"><ele>397.0</ele><time>2026-05-03T08:08:31.123Z</time></trkpt><trkpt lat="44.0245782" lon="7.938204"><ele>397.0</ele><time>2026-05-03T08:08:32.124Z</time></trkpt><trkpt lat="44.0246881" lon="7.9380673"><ele>404.0</ele><time>2026-05-03T08:08:33.123Z</time></trkpt><trkpt lat="44.0248009" lon="7.9379354"><ele>411.0</ele><time>2026-05-03T08:08:34.122Z</time></trkpt><trkpt lat="44.025192" lon="7.9374462"><ele>411.0</ele><time>2026-05-03T08:08:38.038Z</time></trkpt><trkpt lat="44.0253592" lon="7.9372692"><ele>411.0</ele><time>2026-05-03T08:08:39.122Z</time></trkpt><trkpt lat="44.0254853" lon="7.9372054"><ele>411.0</ele><time>2026-05-03T08:08:40.123Z</time></trkpt><trkpt lat="44.0255841" lon="7.9372139"><ele>411.0</ele><time>2026-05-03T08:08:41.122Z</time></trkpt><trkpt lat="44.0257023" lon="7.937218"><ele>411.0</ele><time>2026-05-03T08:08:42.122Z</time></trkpt><trkpt lat="44.0257262" lon="7.9374216"><ele>411.0</ele><time>2026-05-03T08:08:43.123Z</time></trkpt><trkpt lat="44.0257654" lon="7.9375929"><ele>411.0</ele><time>2026-05-03T08:08:44.122Z</time></trkpt><trkpt lat="44.0258247" lon="7.9377747"><ele>411.0</ele><time>2026-05-03T08:08:45.122Z</time></trkpt><trkpt lat="44.0259077" lon="7.937937"><ele>400.0</ele><time>2026-05-03T08:08:46.122Z</time></trkpt><trkpt lat="44.0260106" lon="7.938111"><ele>389.0</ele><time>2026-05-03T08:08:47.123Z</time></trkpt><trkpt lat="44.0260833" lon="7.9383134"><ele>378.0</ele><time>2026-05-03T08:08:48.122Z</time></trkpt><trkpt lat="44.026143" lon="7.9385143"><ele>369.3333333333333</ele><time>2026-05-03T08:08:49.123Z</time></trkpt><trkpt lat="44.0262077" lon="7.9387153"><ele>360.66666666666663</ele><time>2026-05-03T08:08:50.122Z</time></trkpt><trkpt lat="44.0262778" lon="7.9389023"><ele>352.0</ele><time>2026-05-03T08:08:51.122Z</time></trkpt><trkpt lat="44.026358" lon="7.9390661"><ele>352.0</ele><time>2026-05-03T08:08:52.122Z</time></trkpt><trkpt lat="44.026443" lon="7.9392082"><ele>352.0</ele><time>2026-05-03T08:08:53.122Z</time></trkpt><trkpt lat="44.0265212" lon="7.9393344"><ele>352.0</ele><time>2026-05-03T08:08:54.122Z</time></trkpt><trkpt lat="44.0266497" lon="7.9392915"><ele>352.0</ele><time>2026-05-03T08:08:55.122Z</time></trkpt><trkpt lat="44.0267521" lon="7.9392455"><ele>349.75</ele><time>2026-05-03T08:08:56.122Z</time></trkpt><trkpt lat="44.0268702" lon="7.9392045"><ele>347.5</ele><time>2026-05-03T08:08:57.123Z</time></trkpt><trkpt lat="44.0269897" lon="7.9392389"><ele>345.25</ele><time>2026-05-03T08:08:58.122Z</time></trkpt><trkpt lat="44.0271036" lon="7.939308"><ele>343.0</ele><time>2026-05-03T08:08:59.123Z</time></trkpt><trkpt lat="44.0272261" lon="7.9393653"><ele>343.0</ele><time>2026-05-03T08:09:00.122Z</time></trkpt><trkpt lat="44.0273646" lon="7.939359"><ele>343.0</ele><time>2026-05-03T08:09:01.122Z</time></trkpt><trkpt lat="44.0274966" lon="7.9393989"><ele>343.0</ele><time>2026-05-03T08:09:02.122Z</time></trkpt><trkpt lat="44.0276159" lon="7.9394765"><ele>343.0</ele><time>2026-05-03T08:09:03.122Z</time></trkpt><trkpt lat="44.0277355" lon="7.9395531"><ele>344.5</ele><time>2026-05-03T08:09:04.123Z</time></trkpt><trkpt lat="44.0278572" lon="7.9396285"><ele>346.0</ele><time>2026-05-03T08:09:05.122Z</time></trkpt><trkpt lat="44.0279898" lon="7.9396498"><ele>347.5</ele><time>2026-05-03T08:09:06.122Z</time></trkpt><trkpt lat="44.0281114" lon="7.9396582"><ele>349.0</ele><time>2026-05-03T08:09:07.123Z</time></trkpt><trkpt lat="44.0282219" lon="7.9396169"><ele>347.0</ele><time>2026-05-03T08:09:08.122Z</time></trkpt><trkpt lat="44.028462" lon="7.9393577"><ele>345.0</ele><time>2026-05-03T08:09:11.035Z</time></trkpt><trkpt lat="44.0285915" lon="7.9390792"><ele>355.6666666666667</ele><time>2026-05-03T08:09:12.123Z</time></trkpt><trkpt lat="44.0286994" lon="7.9389055"><ele>366.33333333333337</ele><time>2026-05-03T08:09:13.122Z</time></trkpt><trkpt lat="44.0288034" lon="7.9387452"><ele>377.0</ele><time>2026-05-03T08:09:14.122Z</time></trkpt><trkpt lat="44.0288896" lon="7.9385883"><ele>377.0</ele><time>2026-05-03T08:09:15.123Z</time></trkpt><trkpt lat="44.0289574" lon="7.9384115"><ele>377.0</ele><time>2026-05-03T08:09:16.122Z</time></trkpt><trkpt lat="44.0290269" lon="7.9382494"><ele>377.0</ele><time>2026-05-03T08:09:17.122Z</time></trkpt><trkpt lat="44.0291228" lon="7.938176"><ele>377.0</ele><time>2026-05-03T08:09:18.122Z</time></trkpt><trkpt lat="44.0292297" lon="7.9381084"><ele>374.40000000000003</ele><time>2026-05-03T08:09:19.122Z</time></trkpt><trkpt lat="44.0293285" lon="7.9380991"><ele>371.8</ele><time>2026-05-03T08:09:20.122Z</time></trkpt><trkpt lat="44.0294103" lon="7.938172"><ele>369.2</ele><time>2026-05-03T08:09:21.122Z</time></trkpt><trkpt lat="44.0294863" lon="7.9382794"><ele>366.6</ele><time>2026-05-03T08:09:22.123Z</time></trkpt><trkpt lat="44.0295604" lon="7.9384029"><ele>364.0</ele><time>2026-05-03T08:09:23.122Z</time></trkpt><trkpt lat="44.0296432" lon="7.9384889"><ele>358.75</ele><time>2026-05-03T08:09:24.122Z</time></trkpt><trkpt lat="44.0297977" lon="7.9385354"><ele>353.5</ele><time>2026-05-03T08:09:25.122Z</time></trkpt><trkpt lat="44.0299205" lon="7.9386056"><ele>348.25</ele><time>2026-05-03T08:09:26.123Z</time></trkpt><trkpt lat="44.0300296" lon="7.9386995"><ele>343.0</ele><time>2026-05-03T08:09:27.123Z</time></trkpt><trkpt lat="44.0301139" lon="7.9388183"><ele>343.0</ele><time>2026-05-03T08:09:28.122Z</time></trkpt><trkpt lat="44.0301681" lon="7.9389594"><ele>343.0</ele><time>2026-05-03T08:09:29.123Z</time></trkpt><trkpt lat="44.0302039" lon="7.9391148"><ele>343.0</ele><time>2026-05-03T08:09:30.122Z</time></trkpt><trkpt lat="44.0302384" lon="7.9392504"><ele>343.0</ele><time>2026-05-03T08:09:31.122Z</time></trkpt><trkpt lat="44.0302517" lon="7.9393631"><ele>343.0</ele><time>2026-05-03T08:09:32.122Z</time></trkpt><trkpt lat="44.0302635" lon="7.9394725"><ele>338.0</ele><time>2026-05-03T08:09:34.122Z</time></trkpt><trkpt lat="44.030295" lon="7.9395714"><ele>333.0</ele><time>2026-05-03T08:10:25.123Z</time></trkpt><trkpt lat="44.030392" lon="7.9395983"><ele>328.0</ele><time>2026-05-03T08:10:30.123Z</time></trkpt><trkpt lat="44.030468" lon="7.939605"><ele>323.0</ele><time>2026-05-03T08:10:31.123Z</time></trkpt><trkpt lat="44.0305644" lon="7.9396049"><ele>318.0</ele><time>2026-05-03T08:10:32.123Z</time></trkpt><trkpt lat="44.0306761" lon="7.9396104"><ele>320.25</ele><time>2026-05-03T08:10:33.124Z</time></trkpt><trkpt lat="44.0308136" lon="7.939618"><ele>322.5</ele><time>2026-05-03T08:10:34.123Z</time></trkpt><trkpt lat="44.0309543" lon="7.9396248"><ele>324.75</ele><time>2026-05-03T08:10:35.123Z</time></trkpt><trkpt lat="44.0311172" lon="7.9396257"><ele>327.0</ele><time>2026-05-03T08:10:36.123Z</time></trkpt><trkpt lat="44.0312918" lon="7.9396256"><ele>327.0</ele><time>2026-05-03T08:10:37.123Z</time></trkpt><trkpt lat="44.0314691" lon="7.9396214"><ele>327.0</ele><time>2026-05-03T08:10:38.123Z</time></trkpt><trkpt lat="44.0316649" lon="7.9396195"><ele>327.0</ele><time>2026-05-03T08:10:39.123Z</time></trkpt><trkpt lat="44.0318669" lon="7.9396198"><ele>325.0</ele><time>2026-05-03T08:10:40.125Z</time></trkpt><trkpt lat="44.0320694" lon="7.9396174"><ele>323.0</ele><time>2026-05-03T08:10:41.123Z</time></trkpt><trkpt lat="44.0322824" lon="7.9396148"><ele>321.0</ele><time>2026-05-03T08:10:42.123Z</time></trkpt><trkpt lat="44.0324958" lon="7.9396127"><ele>316.0</ele><time>2026-05-03T08:10:43.124Z</time></trkpt><trkpt lat="44.0327196" lon="7.9396151"><ele>311.0</ele><time>2026-05-03T08:10:44.123Z</time></trkpt><trkpt lat="44.032946" lon="7.9396099"><ele>311.0</ele><time>2026-05-03T08:10:45.123Z</time></trkpt><trkpt lat="44.0331815" lon="7.9396066"><ele>311.0</ele><time>2026-05-03T08:10:46.123Z</time></trkpt><trkpt lat="44.0334203" lon="7.9396052"><ele>312.5</ele><time>2026-05-03T08:10:47.123Z</time></trkpt><trkpt lat="44.0336573" lon="7.9396074"><ele>314.0</ele><time>2026-05-03T08:10:48.123Z</time></trkpt><trkpt lat="44.0338952" lon="7.9396092"><ele>333.0</ele><time>2026-05-03T08:10:49.123Z</time></trkpt><trkpt lat="44.0357317" lon="7.9386508"><ele>320.5</ele><time>2026-05-03T08:10:57.123Z</time></trkpt><trkpt lat="44.0358546" lon="7.9383717"><ele>308.0</ele><time>2026-05-03T08:10:58.123Z</time></trkpt><trkpt lat="44.0361917" lon="7.9375072"><ele>308.0</ele><time>2026-05-03T08:11:01.123Z</time></trkpt><trkpt lat="44.0362248" lon="7.9371282"><ele>308.0</ele><time>2026-05-03T08:11:02.123Z</time></trkpt><trkpt lat="44.0362965" lon="7.9367881"><ele>308.5</ele><time>2026-05-03T08:11:03.123Z</time></trkpt><trkpt lat="44.0363871" lon="7.9364534"><ele>309.0</ele><time>2026-05-03T08:11:04.123Z</time></trkpt><trkpt lat="44.0364806" lon="7.9361261"><ele>316.0</ele><time>2026-05-03T08:11:05.124Z</time></trkpt><trkpt lat="44.0365783" lon="7.9358062"><ele>323.0</ele><time>2026-05-03T08:11:06.123Z</time></trkpt><trkpt lat="44.036689" lon="7.9355011"><ele>309.5</ele><time>2026-05-03T08:11:07.123Z</time></trkpt><trkpt lat="44.036801" lon="7.9352009"><ele>296.0</ele><time>2026-05-03T08:11:08.123Z</time></trkpt><trkpt lat="44.0369431" lon="7.9349169"><ele>318.0</ele><time>2026-05-03T08:11:09.123Z</time></trkpt><trkpt lat="44.0373334" lon="7.9339481"><ele>298.0</ele><time>2026-05-03T08:11:13.043Z</time></trkpt><trkpt lat="44.037489" lon="7.9335233"><ele>278.0</ele><time>2026-05-03T08:11:14.122Z</time></trkpt><trkpt lat="44.037574" lon="7.9332625"><ele>278.0</ele><time>2026-05-03T08:11:15.122Z</time></trkpt><trkpt lat="44.0376566" lon="7.9330129"><ele>278.0</ele><time>2026-05-03T08:11:16.123Z</time></trkpt><trkpt lat="44.0377362" lon="7.9327452"><ele>278.0</ele><time>2026-05-03T08:11:17.122Z</time></trkpt><trkpt lat="44.037763" lon="7.9324556"><ele>278.33333333333337</ele><time>2026-05-03T08:11:18.122Z</time></trkpt><trkpt lat="44.0376674" lon="7.9321753"><ele>278.6666666666667</ele><time>2026-05-03T08:11:19.123Z</time></trkpt><trkpt lat="44.0376174" lon="7.9318912"><ele>279.0</ele><time>2026-05-03T08:11:20.122Z</time></trkpt><trkpt lat="44.0375383" lon="7.9316164"><ele>281.0</ele><time>2026-05-03T08:11:21.122Z</time></trkpt><trkpt lat="44.0374429" lon="7.9313391"><ele>283.0</ele><time>2026-05-03T08:11:22.122Z</time></trkpt><trkpt lat="44.0373416" lon="7.9310808"><ele>285.0</ele><time>2026-05-03T08:11:23.122Z</time></trkpt><trkpt lat="44.0372298" lon="7.9308455"><ele>285.0</ele><time>2026-05-03T08:11:24.122Z</time></trkpt><trkpt lat="44.0371101" lon="7.930618"><ele>285.0</ele><time>2026-05-03T08:11:25.122Z</time></trkpt><trkpt lat="44.0369979" lon="7.9304088"><ele>285.0</ele><time>2026-05-03T08:11:26.122Z</time></trkpt><trkpt lat="44.0368851" lon="7.9301977"><ele>290.3333333333333</ele><time>2026-05-03T08:11:27.123Z</time></trkpt><trkpt lat="44.0367782" lon="7.9299941"><ele>295.66666666666663</ele><time>2026-05-03T08:11:28.122Z</time></trkpt><trkpt lat="44.0366891" lon="7.9297697"><ele>301.0</ele><time>2026-05-03T08:11:29.123Z</time></trkpt><trkpt lat="44.0366297" lon="7.9295262"><ele>301.0</ele><time>2026-05-03T08:11:30.123Z</time></trkpt><trkpt lat="44.0365947" lon="7.9292646"><ele>301.0</ele><time>2026-05-03T08:11:31.123Z</time></trkpt><trkpt lat="44.0365932" lon="7.9290002"><ele>301.0</ele><time>2026-05-03T08:11:32.122Z</time></trkpt><trkpt lat="44.0366301" lon="7.9287371"><ele>280.3333333333333</ele><time>2026-05-03T08:11:33.122Z</time></trkpt><trkpt lat="44.0366965" lon="7.9284776"><ele>259.6666666666667</ele><time>2026-05-03T08:11:34.122Z</time></trkpt><trkpt lat="44.0367886" lon="7.9282196"><ele>239.0</ele><time>2026-05-03T08:11:35.122Z</time></trkpt><trkpt lat="44.0368836" lon="7.9279593"><ele>234.66666666666669</ele><time>2026-05-03T08:11:36.122Z</time></trkpt><trkpt lat="44.0369621" lon="7.9276892"><ele>230.33333333333331</ele><time>2026-05-03T08:11:37.122Z</time></trkpt><trkpt lat="44.0370422" lon="7.9274144"><ele>226.0</ele><time>2026-05-03T08:11:38.122Z</time></trkpt><trkpt lat="44.0371368" lon="7.9271404"><ele>226.0</ele><time>2026-05-03T08:11:39.122Z</time></trkpt><trkpt lat="44.037237" lon="7.9268747"><ele>226.0</ele><time>2026-05-03T08:11:40.123Z</time></trkpt><trkpt lat="44.0373412" lon="7.9266074"><ele>226.0</ele><time>2026-05-03T08:11:41.122Z</time></trkpt><trkpt lat="44.0374481" lon="7.9263494"><ele>228.66666666666666</ele><time>2026-05-03T08:11:42.122Z</time></trkpt><trkpt lat="44.0375525" lon="7.9260916"><ele>231.33333333333331</ele><time>2026-05-03T08:11:43.122Z</time></trkpt><trkpt lat="44.037653" lon="7.9258414"><ele>234.0</ele><time>2026-05-03T08:11:44.122Z</time></trkpt><trkpt lat="44.0377545" lon="7.925602"><ele>236.0</ele><time>2026-05-03T08:11:45.122Z</time></trkpt><trkpt lat="44.0378489" lon="7.9253738"><ele>238.0</ele><time>2026-05-03T08:11:46.122Z</time></trkpt><trkpt lat="44.0379431" lon="7.9251572"><ele>240.0</ele><time>2026-05-03T08:11:47.123Z</time></trkpt><trkpt lat="44.0380353" lon="7.9249549"><ele>237.5</ele><time>2026-05-03T08:11:48.122Z</time></trkpt><trkpt lat="44.0381287" lon="7.9247769"><ele>235.0</ele><time>2026-05-03T08:11:49.123Z</time></trkpt><trkpt lat="44.038219" lon="7.924639"><ele>232.5</ele><time>2026-05-03T08:11:50.122Z</time></trkpt><trkpt lat="44.0383119" lon="7.924566"><ele>230.0</ele><time>2026-05-03T08:11:51.122Z</time></trkpt><trkpt lat="44.0384133" lon="7.9245447"><ele>230.0</ele><time>2026-05-03T08:11:52.122Z</time></trkpt><trkpt lat="44.0385127" lon="7.9245364"><ele>230.0</ele><time>2026-05-03T08:11:53.123Z</time></trkpt><trkpt lat="44.038603" lon="7.9244764"><ele>230.0</ele><time>2026-05-03T08:11:54.122Z</time></trkpt><trkpt lat="44.0386618" lon="7.9243652"><ele>230.0</ele><time>2026-05-03T08:11:55.122Z</time></trkpt><trkpt lat="44.0387021" lon="7.9242219"><ele>230.0</ele><time>2026-05-03T08:11:56.122Z</time></trkpt><trkpt lat="44.0387367" lon="7.9240506"><ele>235.33333333333334</ele><time>2026-05-03T08:11:57.123Z</time></trkpt><trkpt lat="44.0388033" lon="7.9238652"><ele>240.66666666666669</ele><time>2026-05-03T08:11:58.123Z</time></trkpt><trkpt lat="44.038897" lon="7.9236801"><ele>246.0</ele><time>2026-05-03T08:11:59.123Z</time></trkpt><trkpt lat="44.0390046" lon="7.9234773"><ele>241.33333333333331</ele><time>2026-05-03T08:12:00.122Z</time></trkpt><trkpt lat="44.0391069" lon="7.923271"><ele>236.66666666666666</ele><time>2026-05-03T08:12:01.122Z</time></trkpt><trkpt lat="44.0392221" lon="7.9230715"><ele>232.0</ele><time>2026-05-03T08:12:02.122Z</time></trkpt><trkpt lat="44.0393584" lon="7.9228829"><ele>232.0</ele><time>2026-05-03T08:12:03.123Z</time></trkpt><trkpt lat="44.0395175" lon="7.9227097"><ele>232.0</ele><time>2026-05-03T08:12:04.122Z</time></trkpt><trkpt lat="44.0396908" lon="7.9225413"><ele>232.0</ele><time>2026-05-03T08:12:05.122Z</time></trkpt><trkpt lat="44.0398564" lon="7.9223641"><ele>232.33333333333331</ele><time>2026-05-03T08:12:06.122Z</time></trkpt><trkpt lat="44.0400172" lon="7.9221766"><ele>232.66666666666669</ele><time>2026-05-03T08:12:07.122Z</time></trkpt><trkpt lat="44.0401779" lon="7.9219702"><ele>233.0</ele><time>2026-05-03T08:12:08.122Z</time></trkpt><trkpt lat="44.040329" lon="7.9217545"><ele>236.66666666666669</ele><time>2026-05-03T08:12:09.122Z</time></trkpt><trkpt lat="44.0404728" lon="7.9215378"><ele>240.33333333333331</ele><time>2026-05-03T08:12:10.122Z</time></trkpt><trkpt lat="44.0406078" lon="7.9213306"><ele>244.0</ele><time>2026-05-03T08:12:11.123Z</time></trkpt><trkpt lat="44.0407343" lon="7.9211391"><ele>241.33333333333331</ele><time>2026-05-03T08:12:12.123Z</time></trkpt><trkpt lat="44.0408535" lon="7.9209537"><ele>238.66666666666669</ele><time>2026-05-03T08:12:13.122Z</time></trkpt><trkpt lat="44.0409658" lon="7.9207767"><ele>236.0</ele><time>2026-05-03T08:12:14.122Z</time></trkpt><trkpt lat="44.0410765" lon="7.9206374"><ele>236.0</ele><time>2026-05-03T08:12:15.122Z</time></trkpt><trkpt lat="44.0412056" lon="7.9205617"><ele>236.0</ele><time>2026-05-03T08:12:16.122Z</time></trkpt><trkpt lat="44.0413444" lon="7.9205466"><ele>236.0</ele><time>2026-05-03T08:12:17.122Z</time></trkpt><trkpt lat="44.0414852" lon="7.9205493"><ele>236.0</ele><time>2026-05-03T08:12:18.122Z</time></trkpt><trkpt lat="44.0416372" lon="7.9205537"><ele>234.75</ele><time>2026-05-03T08:12:19.122Z</time></trkpt><trkpt lat="44.0417879" lon="7.9205636"><ele>233.5</ele><time>2026-05-03T08:12:20.122Z</time></trkpt><trkpt lat="44.0419292" lon="7.9205625"><ele>232.25</ele><time>2026-05-03T08:12:21.122Z</time></trkpt><trkpt lat="44.0420684" lon="7.9205446"><ele>231.0</ele><time>2026-05-03T08:12:22.122Z</time></trkpt><trkpt lat="44.0422036" lon="7.9205038"><ele>231.0</ele><time>2026-05-03T08:12:23.122Z</time></trkpt><trkpt lat="44.0423363" lon="7.9204257"><ele>231.0</ele><time>2026-05-03T08:12:24.122Z</time></trkpt><trkpt lat="44.0424696" lon="7.9203464"><ele>231.0</ele><time>2026-05-03T08:12:25.123Z</time></trkpt><trkpt lat="44.0426027" lon="7.9202562"><ele>231.0</ele><time>2026-05-03T08:12:26.122Z</time></trkpt><trkpt lat="44.0427358" lon="7.9201564"><ele>232.0</ele><time>2026-05-03T08:12:27.122Z</time></trkpt><trkpt lat="44.0428722" lon="7.9200614"><ele>233.0</ele><time>2026-05-03T08:12:28.123Z</time></trkpt><trkpt lat="44.0430126" lon="7.9199611"><ele>234.0</ele><time>2026-05-03T08:12:29.123Z</time></trkpt><trkpt lat="44.0431559" lon="7.9198679"><ele>237.66666666666669</ele><time>2026-05-03T08:12:30.123Z</time></trkpt><trkpt lat="44.0432993" lon="7.9197685"><ele>241.33333333333334</ele><time>2026-05-03T08:12:31.122Z</time></trkpt><trkpt lat="44.043433" lon="7.9196556"><ele>245.0</ele><time>2026-05-03T08:12:32.122Z</time></trkpt><trkpt lat="44.043551" lon="7.9195125"><ele>245.0</ele><time>2026-05-03T08:12:33.122Z</time></trkpt><trkpt lat="44.0436576" lon="7.9193473"><ele>245.0</ele><time>2026-05-03T08:12:34.122Z</time></trkpt><trkpt lat="44.0437511" lon="7.9191692"><ele>245.0</ele><time>2026-05-03T08:12:35.122Z</time></trkpt><trkpt lat="44.0438361" lon="7.9189804"><ele>241.0</ele><time>2026-05-03T08:12:36.122Z</time></trkpt><trkpt lat="44.0439175" lon="7.9187922"><ele>237.0</ele><time>2026-05-03T08:12:37.122Z</time></trkpt><trkpt lat="44.0440164" lon="7.9186312"><ele>233.0</ele><time>2026-05-03T08:12:38.122Z</time></trkpt><trkpt lat="44.0441232" lon="7.9184787"><ele>235.75</ele><time>2026-05-03T08:12:39.122Z</time></trkpt><trkpt lat="44.0442177" lon="7.9183214"><ele>238.5</ele><time>2026-05-03T08:12:40.122Z</time></trkpt><trkpt lat="44.044305" lon="7.918168"><ele>241.25</ele><time>2026-05-03T08:12:41.122Z</time></trkpt><trkpt lat="44.0443889" lon="7.9180312"><ele>244.0</ele><time>2026-05-03T08:12:42.123Z</time></trkpt><trkpt lat="44.0444761" lon="7.9179056"><ele>244.0</ele><time>2026-05-03T08:12:43.123Z</time></trkpt><trkpt lat="44.0445656" lon="7.917793"><ele>243.99999999999997</ele><time>2026-05-03T08:12:44.122Z</time></trkpt><trkpt lat="44.0446573" lon="7.9176843"><ele>243.99999999999997</ele><time>2026-05-03T08:12:45.122Z</time></trkpt><trkpt lat="44.0447454" lon="7.9175951"><ele>244.0</ele><time>2026-05-03T08:12:46.122Z</time></trkpt><trkpt lat="44.0448312" lon="7.9175262"><ele>244.0</ele><time>2026-05-03T08:12:47.122Z</time></trkpt><trkpt lat="44.0449179" lon="7.9174879"><ele>244.79999999999998</ele><time>2026-05-03T08:12:48.122Z</time></trkpt><trkpt lat="44.0450092" lon="7.9174726"><ele>245.59999999999997</ele><time>2026-05-03T08:12:49.122Z</time></trkpt><trkpt lat="44.0450959" lon="7.9174591"><ele>246.4</ele><time>2026-05-03T08:12:50.123Z</time></trkpt><trkpt lat="44.0451675" lon="7.9174479"><ele>247.2</ele><time>2026-05-03T08:12:51.123Z</time></trkpt><trkpt lat="44.0452691" lon="7.9174748"><ele>248.0</ele><time>2026-05-03T08:12:53.122Z</time></trkpt><trkpt lat="44.0453605" lon="7.9176067"><ele>249.2</ele><time>2026-05-03T08:12:55.122Z</time></trkpt><trkpt lat="44.0454239" lon="7.9176612"><ele>250.4</ele><time>2026-05-03T08:12:56.122Z</time></trkpt><trkpt lat="44.0454878" lon="7.9177038"><ele>251.59999999999997</ele><time>2026-05-03T08:12:57.122Z</time></trkpt><trkpt lat="44.0455727" lon="7.9176818"><ele>252.79999999999998</ele><time>2026-05-03T08:12:58.122Z</time></trkpt><trkpt lat="44.0456812" lon="7.9176051"><ele>254.0</ele><time>2026-05-03T08:12:59.122Z</time></trkpt><trkpt lat="44.0457978" lon="7.9175435"><ele>254.79999999999998</ele><time>2026-05-03T08:13:00.122Z</time></trkpt><trkpt lat="44.0459134" lon="7.9175154"><ele>255.59999999999997</ele><time>2026-05-03T08:13:01.122Z</time></trkpt><trkpt lat="44.0460236" lon="7.9175113"><ele>256.4</ele><time>2026-05-03T08:13:02.123Z</time></trkpt><trkpt lat="44.0461271" lon="7.9175224"><ele>257.2</ele><time>2026-05-03T08:13:03.122Z</time></trkpt><trkpt lat="44.0462129" lon="7.917567"><ele>258.0</ele><time>2026-05-03T08:13:04.122Z</time></trkpt><trkpt lat="44.0462862" lon="7.9176393"><ele>258.4</ele><time>2026-05-03T08:13:05.123Z</time></trkpt><trkpt lat="44.0463651" lon="7.9176962"><ele>258.8</ele><time>2026-05-03T08:13:06.122Z</time></trkpt><trkpt lat="44.0464543" lon="7.9177159"><ele>259.2</ele><time>2026-05-03T08:13:07.123Z</time></trkpt><trkpt lat="44.046548" lon="7.9176851"><ele>259.6</ele><time>2026-05-03T08:13:08.122Z</time></trkpt><trkpt lat="44.0466357" lon="7.9176082"><ele>260.0</ele><time>2026-05-03T08:13:09.122Z</time></trkpt><trkpt lat="44.0467147" lon="7.9175037"><ele>260.4</ele><time>2026-05-03T08:13:10.123Z</time></trkpt><trkpt lat="44.0467948" lon="7.9174042"><ele>260.8</ele><time>2026-05-03T08:13:11.122Z</time></trkpt><trkpt lat="44.046885" lon="7.9173094"><ele>261.2</ele><time>2026-05-03T08:13:12.123Z</time></trkpt><trkpt lat="44.0469762" lon="7.9172164"><ele>261.6</ele><time>2026-05-03T08:13:13.123Z</time></trkpt><trkpt lat="44.0470623" lon="7.9171227"><ele>262.0</ele><time>2026-05-03T08:13:14.123Z</time></trkpt><trkpt lat="44.0471365" lon="7.9170302"><ele>262.0</ele><time>2026-05-03T08:13:15.124Z</time></trkpt><trkpt lat="44.0471976" lon="7.9169459"><ele>262.0</ele><time>2026-05-03T08:13:16.124Z</time></trkpt><trkpt lat="44.0472448" lon="7.9168648"><ele>262.0</ele><time>2026-05-03T08:13:17.123Z</time></trkpt><trkpt lat="44.0472777" lon="7.9167731"><ele>262.0</ele><time>2026-05-03T08:13:18.123Z</time></trkpt><trkpt lat="44.0472609" lon="7.9166734"><ele>262.0</ele><time>2026-05-03T08:13:19.123Z</time></trkpt><trkpt lat="44.047239" lon="7.9165798"><ele>262.0</ele><time>2026-05-03T08:13:20.123Z</time></trkpt><trkpt lat="44.047242" lon="7.9164831"><ele>262.0</ele><time>2026-05-03T08:13:21.123Z</time></trkpt><trkpt lat="44.0472803" lon="7.91638"><ele>262.25</ele><time>2026-05-03T08:13:22.124Z</time></trkpt><trkpt lat="44.0473515" lon="7.916276"><ele>262.5</ele><time>2026-05-03T08:13:23.123Z</time></trkpt><trkpt lat="44.0474427" lon="7.9161765"><ele>262.75</ele><time>2026-05-03T08:13:24.123Z</time></trkpt><trkpt lat="44.0475411" lon="7.9160699"><ele>263.0</ele><time>2026-05-03T08:13:25.123Z</time></trkpt><trkpt lat="44.0476439" lon="7.915963"><ele>263.2</ele><time>2026-05-03T08:13:26.123Z</time></trkpt><trkpt lat="44.0477485" lon="7.915862"><ele>263.4</ele><time>2026-05-03T08:13:27.124Z</time></trkpt><trkpt lat="44.04785" lon="7.9157725"><ele>263.59999999999997</ele><time>2026-05-03T08:13:28.124Z</time></trkpt><trkpt lat="44.0479443" lon="7.9157069"><ele>263.8</ele><time>2026-05-03T08:13:29.123Z</time></trkpt><trkpt lat="44.0480349" lon="7.9156871"><ele>264.0</ele><time>2026-05-03T08:13:30.123Z</time></trkpt><trkpt lat="44.0481226" lon="7.9157166"><ele>264.0</ele><time>2026-05-03T08:13:31.123Z</time></trkpt><trkpt lat="44.048181" lon="7.9158055"><ele>264.0</ele><time>2026-05-03T08:13:32.124Z</time></trkpt><trkpt lat="44.0481998" lon="7.9159511"><ele>264.0</ele><time>2026-05-03T08:13:33.123Z</time></trkpt><trkpt lat="44.0482249" lon="7.9160781"><ele>264.0</ele><time>2026-05-03T08:13:34.123Z</time></trkpt><trkpt lat="44.0482728" lon="7.9161629"><ele>264.0</ele><time>2026-05-03T08:13:35.123Z</time></trkpt><trkpt lat="44.0483244" lon="7.9162185"><ele>264.0</ele><time>2026-05-03T08:13:36.123Z</time></trkpt><trkpt lat="44.0484011" lon="7.9161967"><ele>264.0</ele><time>2026-05-03T08:13:37.123Z</time></trkpt><trkpt lat="44.0485208" lon="7.9161015"><ele>264.0</ele><time>2026-05-03T08:13:38.123Z</time></trkpt><trkpt lat="44.0486436" lon="7.9159981"><ele>264.0</ele><time>2026-05-03T08:13:39.123Z</time></trkpt><trkpt lat="44.0487621" lon="7.9159081"><ele>264.0</ele><time>2026-05-03T08:13:40.124Z</time></trkpt><trkpt lat="44.0488826" lon="7.9158304"><ele>264.0</ele><time>2026-05-03T08:13:41.124Z</time></trkpt><trkpt lat="44.0490025" lon="7.9157644"><ele>264.0</ele><time>2026-05-03T08:13:42.123Z</time></trkpt><trkpt lat="44.0491163" lon="7.9156953"><ele>264.0</ele><time>2026-05-03T08:13:43.123Z</time></trkpt><trkpt lat="44.0492314" lon="7.9156251"><ele>264.0</ele><time>2026-05-03T08:13:44.123Z</time></trkpt><trkpt lat="44.0493302" lon="7.9155758"><ele>266.75</ele><time>2026-05-03T08:13:45.123Z</time></trkpt><trkpt lat="44.0494277" lon="7.9155665"><ele>269.5</ele><time>2026-05-03T08:13:46.124Z</time></trkpt><trkpt lat="44.0495353" lon="7.9155998"><ele>272.25</ele><time>2026-05-03T08:13:47.123Z</time></trkpt><trkpt lat="44.049656" lon="7.9156492"><ele>275.0</ele><time>2026-05-03T08:13:48.123Z</time></trkpt><trkpt lat="44.0497894" lon="7.9156852"><ele>275.0</ele><time>2026-05-03T08:13:49.123Z</time></trkpt><trkpt lat="44.049931" lon="7.9156996"><ele>275.0</ele><time>2026-05-03T08:13:50.123Z</time></trkpt><trkpt lat="44.0500738" lon="7.9156994"><ele>275.0</ele><time>2026-05-03T08:13:51.123Z</time></trkpt><trkpt lat="44.0502155" lon="7.9156941"><ele>275.0</ele><time>2026-05-03T08:13:52.123Z</time></trkpt><trkpt lat="44.0503597" lon="7.9156804"><ele>276.33333333333337</ele><time>2026-05-03T08:13:53.123Z</time></trkpt><trkpt lat="44.0505069" lon="7.915649"><ele>277.6666666666667</ele><time>2026-05-03T08:13:54.123Z</time></trkpt><trkpt lat="44.0506635" lon="7.9155971"><ele>279.0</ele><time>2026-05-03T08:13:55.123Z</time></trkpt><trkpt lat="44.0508224" lon="7.9155347"><ele>282.0</ele><time>2026-05-03T08:13:56.123Z</time></trkpt><trkpt lat="44.0509832" lon="7.9154721"><ele>285.0</ele><time>2026-05-03T08:13:57.123Z</time></trkpt><trkpt lat="44.0511455" lon="7.9154059"><ele>288.0</ele><time>2026-05-03T08:13:58.123Z</time></trkpt><trkpt lat="44.0513143" lon="7.9153292"><ele>288.0</ele><time>2026-05-03T08:13:59.123Z</time></trkpt><trkpt lat="44.051477" lon="7.9152586"><ele>288.0</ele><time>2026-05-03T08:14:00.123Z</time></trkpt><trkpt lat="44.0516114" lon="7.915204"><ele>288.0</ele><time>2026-05-03T08:14:01.123Z</time></trkpt><trkpt lat="44.0517224" lon="7.9151578"><ele>288.0</ele><time>2026-05-03T08:14:02.124Z</time></trkpt><trkpt lat="44.0518329" lon="7.9151154"><ele>290.4</ele><time>2026-05-03T08:14:03.123Z</time></trkpt><trkpt lat="44.0519371" lon="7.9150812"><ele>292.8</ele><time>2026-05-03T08:14:04.123Z</time></trkpt><trkpt lat="44.0520332" lon="7.9150451"><ele>295.2</ele><time>2026-05-03T08:14:05.123Z</time></trkpt><trkpt lat="44.0521289" lon="7.9150063"><ele>297.6</ele><time>2026-05-03T08:14:06.123Z</time></trkpt><trkpt lat="44.0522371" lon="7.9149604"><ele>300.0</ele><time>2026-05-03T08:14:07.123Z</time></trkpt><trkpt lat="44.0523586" lon="7.9149179"><ele>295.25</ele><time>2026-05-03T08:14:08.123Z</time></trkpt><trkpt lat="44.0524846" lon="7.9148764"><ele>290.5</ele><time>2026-05-03T08:14:09.123Z</time></trkpt><trkpt lat="44.0526114" lon="7.9148224"><ele>285.75</ele><time>2026-05-03T08:14:10.123Z</time></trkpt><trkpt lat="44.0527386" lon="7.914752"><ele>281.0</ele><time>2026-05-03T08:14:11.124Z</time></trkpt><trkpt lat="44.0528618" lon="7.9146699"><ele>281.0</ele><time>2026-05-03T08:14:12.123Z</time></trkpt><trkpt lat="44.0529836" lon="7.9145977"><ele>281.0</ele><time>2026-05-03T08:14:13.123Z</time></trkpt><trkpt lat="44.0531112" lon="7.9145497"><ele>281.0</ele><time>2026-05-03T08:14:14.124Z</time></trkpt><trkpt lat="44.0532497" lon="7.9145174"><ele>281.0</ele><time>2026-05-03T08:14:15.123Z</time></trkpt><trkpt lat="44.0533945" lon="7.9144928"><ele>284.5</ele><time>2026-05-03T08:14:16.124Z</time></trkpt><trkpt lat="44.0535314" lon="7.9144938"><ele>288.0</ele><time>2026-05-03T08:14:17.123Z</time></trkpt><trkpt lat="44.0536499" lon="7.9145325"><ele>291.5</ele><time>2026-05-03T08:14:18.123Z</time></trkpt><trkpt lat="44.0537535" lon="7.9146068"><ele>295.0</ele><time>2026-05-03T08:14:19.123Z</time></trkpt><trkpt lat="44.0538548" lon="7.9147204"><ele>295.0</ele><time>2026-05-03T08:14:20.123Z</time></trkpt><trkpt lat="44.0539614" lon="7.9148486"><ele>295.0</ele><time>2026-05-03T08:14:21.123Z</time></trkpt><trkpt lat="44.054075" lon="7.9149704"><ele>295.0</ele><time>2026-05-03T08:14:22.124Z</time></trkpt><trkpt lat="44.0541964" lon="7.9150774"><ele>295.0</ele><time>2026-05-03T08:14:23.123Z</time></trkpt><trkpt lat="44.0543296" lon="7.915167"><ele>303.25</ele><time>2026-05-03T08:14:24.124Z</time></trkpt><trkpt lat="44.0544738" lon="7.9152459"><ele>311.5</ele><time>2026-05-03T08:14:25.123Z</time></trkpt><trkpt lat="44.0546135" lon="7.9153146"><ele>319.75</ele><time>2026-05-03T08:14:26.123Z</time></trkpt><trkpt lat="44.0547513" lon="7.9153687"><ele>328.0</ele><time>2026-05-03T08:14:27.124Z</time></trkpt><trkpt lat="44.0548912" lon="7.9153784"><ele>325.5</ele><time>2026-05-03T08:14:28.123Z</time></trkpt><trkpt lat="44.0550309" lon="7.9153851"><ele>323.0</ele><time>2026-05-03T08:14:29.123Z</time></trkpt><trkpt lat="44.0551708" lon="7.9153491"><ele>320.5</ele><time>2026-05-03T08:14:30.124Z</time></trkpt><trkpt lat="44.0552956" lon="7.9152839"><ele>318.0</ele><time>2026-05-03T08:14:31.124Z</time></trkpt><trkpt lat="44.0554134" lon="7.9151851"><ele>311.25</ele><time>2026-05-03T08:14:32.123Z</time></trkpt><trkpt lat="44.0555288" lon="7.9150613"><ele>304.5</ele><time>2026-05-03T08:14:33.123Z</time></trkpt><trkpt lat="44.0556386" lon="7.9149255"><ele>297.75</ele><time>2026-05-03T08:14:34.123Z</time></trkpt><trkpt lat="44.0557383" lon="7.9147945"><ele>291.0</ele><time>2026-05-03T08:14:35.123Z</time></trkpt><trkpt lat="44.0558267" lon="7.9146709"><ele>291.0</ele><time>2026-05-03T08:14:36.123Z</time></trkpt><trkpt lat="44.0559127" lon="7.9145617"><ele>291.0</ele><time>2026-05-03T08:14:37.123Z</time></trkpt><trkpt lat="44.0560093" lon="7.91446"><ele>291.0</ele><time>2026-05-03T08:14:38.123Z</time></trkpt><trkpt lat="44.056121" lon="7.9143449"><ele>291.0</ele><time>2026-05-03T08:14:39.123Z</time></trkpt><trkpt lat="44.0562307" lon="7.914228"><ele>289.75</ele><time>2026-05-03T08:14:40.123Z</time></trkpt><trkpt lat="44.0563362" lon="7.9141178"><ele>288.5</ele><time>2026-05-03T08:14:41.123Z</time></trkpt><trkpt lat="44.0564346" lon="7.9140235"><ele>287.25</ele><time>2026-05-03T08:14:42.123Z</time></trkpt><trkpt lat="44.0565379" lon="7.9139716"><ele>286.0</ele><time>2026-05-03T08:14:43.124Z</time></trkpt><trkpt lat="44.0566459" lon="7.9139694"><ele>286.0</ele><time>2026-05-03T08:14:44.123Z</time></trkpt><trkpt lat="44.0567439" lon="7.9140084"><ele>286.0</ele><time>2026-05-03T08:14:45.123Z</time></trkpt><trkpt lat="44.056834" lon="7.9140856"><ele>286.0</ele><time>2026-05-03T08:14:46.123Z</time></trkpt><trkpt lat="44.0569304" lon="7.9141928"><ele>286.0</ele><time>2026-05-03T08:14:47.123Z</time></trkpt><trkpt lat="44.0570308" lon="7.9142898"><ele>286.0</ele><time>2026-05-03T08:14:48.123Z</time></trkpt><trkpt lat="44.0571261" lon="7.914332"><ele>286.0</ele><time>2026-05-03T08:14:49.123Z</time></trkpt><trkpt lat="44.0572121" lon="7.9143309"><ele>286.0</ele><time>2026-05-03T08:14:50.123Z</time></trkpt><trkpt lat="44.0573049" lon="7.9142934"><ele>286.0</ele><time>2026-05-03T08:14:51.123Z</time></trkpt><trkpt lat="44.057407" lon="7.9141743"><ele>286.0</ele><time>2026-05-03T08:14:52.123Z</time></trkpt><trkpt lat="44.057522" lon="7.9140497"><ele>287.0</ele><time>2026-05-03T08:14:53.124Z</time></trkpt><trkpt lat="44.0576499" lon="7.9139338"><ele>288.0</ele><time>2026-05-03T08:14:54.123Z</time></trkpt><trkpt lat="44.0577928" lon="7.9138205"><ele>289.0</ele><time>2026-05-03T08:14:55.123Z</time></trkpt><trkpt lat="44.0579473" lon="7.9137071"><ele>289.0</ele><time>2026-05-03T08:14:56.124Z</time></trkpt><trkpt lat="44.0581024" lon="7.9135942"><ele>289.0</ele><time>2026-05-03T08:14:57.123Z</time></trkpt><trkpt lat="44.0582509" lon="7.9134858"><ele>289.0</ele><time>2026-05-03T08:14:58.124Z</time></trkpt><trkpt lat="44.058407" lon="7.9133745"><ele>291.3333333333333</ele><time>2026-05-03T08:14:59.123Z</time></trkpt><trkpt lat="44.05856" lon="7.9132663"><ele>293.6666666666667</ele><time>2026-05-03T08:15:00.123Z</time></trkpt><trkpt lat="44.0587072" lon="7.9131608"><ele>296.0</ele><time>2026-05-03T08:15:01.124Z</time></trkpt><trkpt lat="44.0588437" lon="7.9130594"><ele>296.0</ele><time>2026-05-03T08:15:02.122Z</time></trkpt><trkpt lat="44.0589828" lon="7.9129659"><ele>296.0</ele><time>2026-05-03T08:15:03.123Z</time></trkpt><trkpt lat="44.0591175" lon="7.9128714"><ele>296.0</ele><time>2026-05-03T08:15:04.123Z</time></trkpt><trkpt lat="44.0592635" lon="7.9128026"><ele>297.0</ele><time>2026-05-03T08:15:05.123Z</time></trkpt><trkpt lat="44.0594142" lon="7.9127451"><ele>298.0</ele><time>2026-05-03T08:15:06.123Z</time></trkpt><trkpt lat="44.0595749" lon="7.9126916"><ele>299.0</ele><time>2026-05-03T08:15:07.123Z</time></trkpt><trkpt lat="44.0597419" lon="7.9126332"><ele>299.0</ele><time>2026-05-03T08:15:08.124Z</time></trkpt><trkpt lat="44.0599111" lon="7.9125734"><ele>299.0</ele><time>2026-05-03T08:15:09.123Z</time></trkpt><trkpt lat="44.0600814" lon="7.9125061"><ele>299.0</ele><time>2026-05-03T08:15:10.123Z</time></trkpt><trkpt lat="44.0602601" lon="7.9124443"><ele>302.0</ele><time>2026-05-03T08:15:11.123Z</time></trkpt><trkpt lat="44.0604392" lon="7.9123791"><ele>305.0</ele><time>2026-05-03T08:15:12.124Z</time></trkpt><trkpt lat="44.0606172" lon="7.9123114"><ele>308.0</ele><time>2026-05-03T08:15:13.123Z</time></trkpt><trkpt lat="44.0607945" lon="7.9122547"><ele>308.0</ele><time>2026-05-03T08:15:14.123Z</time></trkpt><trkpt lat="44.0609679" lon="7.912194"><ele>308.0</ele><time>2026-05-03T08:15:15.123Z</time></trkpt><trkpt lat="44.0611365" lon="7.9121369"><ele>308.0</ele><time>2026-05-03T08:15:16.123Z</time></trkpt><trkpt lat="44.0613058" lon="7.9120861"><ele>308.0</ele><time>2026-05-03T08:15:17.123Z</time></trkpt><trkpt lat="44.0614593" lon="7.9120442"><ele>308.0</ele><time>2026-05-03T08:15:18.123Z</time></trkpt><trkpt lat="44.06161" lon="7.9120104"><ele>308.0</ele><time>2026-05-03T08:15:19.123Z</time></trkpt><trkpt lat="44.0617606" lon="7.9119604"><ele>309.33333333333337</ele><time>2026-05-03T08:15:20.123Z</time></trkpt><trkpt lat="44.0619045" lon="7.9118733"><ele>310.6666666666667</ele><time>2026-05-03T08:15:21.123Z</time></trkpt><trkpt lat="44.0620476" lon="7.911777"><ele>312.0</ele><time>2026-05-03T08:15:22.125Z</time></trkpt><trkpt lat="44.0621875" lon="7.9117255"><ele>317.0</ele><time>2026-05-03T08:15:23.123Z</time></trkpt><trkpt lat="44.0623305" lon="7.9116965"><ele>322.0</ele><time>2026-05-03T08:15:24.123Z</time></trkpt><trkpt lat="44.06246" lon="7.9116578"><ele>327.0</ele><time>2026-05-03T08:15:25.123Z</time></trkpt><trkpt lat="44.0625895" lon="7.9116201"><ele>332.0</ele><time>2026-05-03T08:15:26.123Z</time></trkpt><trkpt lat="44.0626721" lon="7.9115133"><ele>332.0</ele><time>2026-05-03T08:15:27.123Z</time></trkpt><trkpt lat="44.0627784" lon="7.9114724"><ele>332.0</ele><time>2026-05-03T08:15:28.123Z</time></trkpt><trkpt lat="44.0628731" lon="7.911461"><ele>332.0</ele><time>2026-05-03T08:15:29.124Z</time></trkpt><trkpt lat="44.0629473" lon="7.9115048"><ele>332.0</ele><time>2026-05-03T08:15:30.123Z</time></trkpt><trkpt lat="44.063014" lon="7.9116003"><ele>332.0</ele><time>2026-05-03T08:15:31.123Z</time></trkpt><trkpt lat="44.0630892" lon="7.911694"><ele>331.25</ele><time>2026-05-03T08:15:32.124Z</time></trkpt><trkpt lat="44.0631733" lon="7.9117979"><ele>330.5</ele><time>2026-05-03T08:15:33.123Z</time></trkpt><trkpt lat="44.063282" lon="7.9118998"><ele>329.75</ele><time>2026-05-03T08:15:34.123Z</time></trkpt><trkpt lat="44.0633861" lon="7.9119972"><ele>329.0</ele><time>2026-05-03T08:15:35.123Z</time></trkpt><trkpt lat="44.0634964" lon="7.9121211"><ele>329.0</ele><time>2026-05-03T08:15:36.123Z</time></trkpt><trkpt lat="44.0635987" lon="7.912235"><ele>329.0</ele><time>2026-05-03T08:15:37.123Z</time></trkpt><trkpt lat="44.0636848" lon="7.9123866"><ele>329.0</ele><time>2026-05-03T08:15:38.123Z</time></trkpt><trkpt lat="44.0637753" lon="7.9124747"><ele>329.0</ele><time>2026-05-03T08:15:39.123Z</time></trkpt><trkpt lat="44.0638899" lon="7.9125384"><ele>332.75</ele><time>2026-05-03T08:15:40.124Z</time></trkpt><trkpt lat="44.0639981" lon="7.912596"><ele>336.5</ele><time>2026-05-03T08:15:41.123Z</time></trkpt><trkpt lat="44.064137" lon="7.9125634"><ele>340.25</ele><time>2026-05-03T08:15:42.123Z</time></trkpt><trkpt lat="44.0642774" lon="7.9125332"><ele>344.0</ele><time>2026-05-03T08:15:43.123Z</time></trkpt><trkpt lat="44.0644278" lon="7.9124911"><ele>344.0</ele><time>2026-05-03T08:15:44.123Z</time></trkpt><trkpt lat="44.0645686" lon="7.9124803"><ele>344.0</ele><time>2026-05-03T08:15:45.123Z</time></trkpt><trkpt lat="44.0647218" lon="7.9124414"><ele>344.0</ele><time>2026-05-03T08:15:46.123Z</time></trkpt><trkpt lat="44.0648781" lon="7.9123723"><ele>348.0</ele><time>2026-05-03T08:15:47.123Z</time></trkpt><trkpt lat="44.0650375" lon="7.9123276"><ele>352.0</ele><time>2026-05-03T08:15:48.123Z</time></trkpt><trkpt lat="44.0651889" lon="7.9122942"><ele>356.0</ele><time>2026-05-03T08:15:49.123Z</time></trkpt><trkpt lat="44.0653385" lon="7.9122574"><ele>356.0</ele><time>2026-05-03T08:15:50.124Z</time></trkpt><trkpt lat="44.0654874" lon="7.9122223"><ele>356.0</ele><time>2026-05-03T08:15:51.123Z</time></trkpt><trkpt lat="44.0656113" lon="7.9122052"><ele>356.0</ele><time>2026-05-03T08:15:52.123Z</time></trkpt><trkpt lat="44.0657456" lon="7.9122169"><ele>356.0</ele><time>2026-05-03T08:15:53.124Z</time></trkpt><trkpt lat="44.0658789" lon="7.9123255"><ele>356.0</ele><time>2026-05-03T08:15:54.123Z</time></trkpt><trkpt lat="44.0660197" lon="7.9123864"><ele>356.0</ele><time>2026-05-03T08:15:55.124Z</time></trkpt><trkpt lat="44.0661484" lon="7.9124552"><ele>356.0</ele><time>2026-05-03T08:15:56.123Z</time></trkpt><trkpt lat="44.0663063" lon="7.9124353"><ele>356.0</ele><time>2026-05-03T08:15:57.123Z</time></trkpt><trkpt lat="44.0664412" lon="7.9124168"><ele>356.0</ele><time>2026-05-03T08:15:58.123Z</time></trkpt><trkpt lat="44.0665838" lon="7.912373"><ele>356.0</ele><time>2026-05-03T08:15:59.124Z</time></trkpt><trkpt lat="44.06673" lon="7.912336"><ele>356.0</ele><time>2026-05-03T08:16:00.123Z</time></trkpt><trkpt lat="44.066872" lon="7.9122946"><ele>356.0</ele><time>2026-05-03T08:16:01.123Z</time></trkpt><trkpt lat="44.066972" lon="7.9123669"><ele>357.5</ele><time>2026-05-03T08:16:02.123Z</time></trkpt><trkpt lat="44.067079" lon="7.9124325"><ele>359.0</ele><time>2026-05-03T08:16:03.123Z</time></trkpt><trkpt lat="44.0671686" lon="7.9125196"><ele>360.5</ele><time>2026-05-03T08:16:04.124Z</time></trkpt><trkpt lat="44.067246" lon="7.9126482"><ele>362.0</ele><time>2026-05-03T08:16:05.123Z</time></trkpt><trkpt lat="44.0673234" lon="7.9127626"><ele>362.0</ele><time>2026-05-03T08:16:06.123Z</time></trkpt><trkpt lat="44.0674121" lon="7.912816"><ele>362.0</ele><time>2026-05-03T08:16:07.123Z</time></trkpt><trkpt lat="44.06751" lon="7.9128357"><ele>362.0</ele><time>2026-05-03T08:16:08.123Z</time></trkpt><trkpt lat="44.0676038" lon="7.9128623"><ele>362.0</ele><time>2026-05-03T08:16:09.123Z</time></trkpt><trkpt lat="44.067737" lon="7.9127985"><ele>362.0</ele><time>2026-05-03T08:16:10.124Z</time></trkpt><trkpt lat="44.0678786" lon="7.9127414"><ele>362.25</ele><time>2026-05-03T08:16:11.123Z</time></trkpt><trkpt lat="44.0680276" lon="7.9127255"><ele>362.5</ele><time>2026-05-03T08:16:12.123Z</time></trkpt><trkpt lat="44.0681736" lon="7.9127048"><ele>362.75</ele><time>2026-05-03T08:16:13.123Z</time></trkpt><trkpt lat="44.0683113" lon="7.9127399"><ele>363.0</ele><time>2026-05-03T08:16:14.123Z</time></trkpt><trkpt lat="44.0684469" lon="7.9127357"><ele>364.25</ele><time>2026-05-03T08:16:15.123Z</time></trkpt><trkpt lat="44.068586" lon="7.9127331"><ele>365.5</ele><time>2026-05-03T08:16:16.123Z</time></trkpt><trkpt lat="44.0687275" lon="7.9127185"><ele>366.75</ele><time>2026-05-03T08:16:17.124Z</time></trkpt><trkpt lat="44.0688733" lon="7.9126548"><ele>368.0</ele><time>2026-05-03T08:16:18.123Z</time></trkpt><trkpt lat="44.0690097" lon="7.9126146"><ele>368.5</ele><time>2026-05-03T08:16:19.124Z</time></trkpt><trkpt lat="44.0691427" lon="7.9126146"><ele>369.0</ele><time>2026-05-03T08:16:20.123Z</time></trkpt><trkpt lat="44.0692687" lon="7.9126185"><ele>369.5</ele><time>2026-05-03T08:16:21.123Z</time></trkpt><trkpt lat="44.0693914" lon="7.9126421"><ele>370.0</ele><time>2026-05-03T08:16:22.124Z</time></trkpt><trkpt lat="44.0695141" lon="7.9126684"><ele>370.0</ele><time>2026-05-03T08:16:23.124Z</time></trkpt><trkpt lat="44.069629" lon="7.9127572"><ele>370.0</ele><time>2026-05-03T08:16:24.123Z</time></trkpt><trkpt lat="44.0697494" lon="7.9128464"><ele>370.0</ele><time>2026-05-03T08:16:25.124Z</time></trkpt><trkpt lat="44.0698629" lon="7.9129536"><ele>370.0</ele><time>2026-05-03T08:16:26.123Z</time></trkpt><trkpt lat="44.0699466" lon="7.913109"><ele>371.75</ele><time>2026-05-03T08:16:27.123Z</time></trkpt><trkpt lat="44.0700275" lon="7.9132204"><ele>373.5</ele><time>2026-05-03T08:16:28.123Z</time></trkpt><trkpt lat="44.0701051" lon="7.9133396"><ele>375.25</ele><time>2026-05-03T08:16:29.123Z</time></trkpt><trkpt lat="44.0701901" lon="7.9134552"><ele>377.0</ele><time>2026-05-03T08:16:30.123Z</time></trkpt><trkpt lat="44.0703156" lon="7.9135016"><ele>377.0</ele><time>2026-05-03T08:16:31.123Z</time></trkpt><trkpt lat="44.0704111" lon="7.9135758"><ele>377.0</ele><time>2026-05-03T08:16:32.123Z</time></trkpt><trkpt lat="44.0705187" lon="7.9136257"><ele>377.0</ele><time>2026-05-03T08:16:33.123Z</time></trkpt><trkpt lat="44.0706635" lon="7.9136198"><ele>377.0</ele><time>2026-05-03T08:16:34.124Z</time></trkpt><trkpt lat="44.0708026" lon="7.9136754"><ele>381.6666666666667</ele><time>2026-05-03T08:16:35.123Z</time></trkpt><trkpt lat="44.0709596" lon="7.9137318"><ele>386.33333333333337</ele><time>2026-05-03T08:16:36.123Z</time></trkpt><trkpt lat="44.0711189" lon="7.9137704"><ele>391.0</ele><time>2026-05-03T08:16:37.123Z</time></trkpt><trkpt lat="44.0712791" lon="7.913809"><ele>391.0</ele><time>2026-05-03T08:16:38.124Z</time></trkpt><trkpt lat="44.0714363" lon="7.9138489"><ele>391.0</ele><time>2026-05-03T08:16:39.123Z</time></trkpt><trkpt lat="44.0715872" lon="7.9139032"><ele>391.0</ele><time>2026-05-03T08:16:40.123Z</time></trkpt><trkpt lat="44.0717164" lon="7.9139636"><ele>393.25</ele><time>2026-05-03T08:16:41.123Z</time></trkpt><trkpt lat="44.0718522" lon="7.9139911"><ele>395.5</ele><time>2026-05-03T08:16:42.124Z</time></trkpt><trkpt lat="44.0719901" lon="7.9139679"><ele>397.75</ele><time>2026-05-03T08:16:43.123Z</time></trkpt><trkpt lat="44.072141" lon="7.9139499"><ele>400.0</ele><time>2026-05-03T08:16:44.124Z</time></trkpt><trkpt lat="44.0722897" lon="7.9139123"><ele>403.6666666666667</ele><time>2026-05-03T08:16:45.123Z</time></trkpt><trkpt lat="44.0724469" lon="7.9138843"><ele>407.33333333333337</ele><time>2026-05-03T08:16:46.123Z</time></trkpt><trkpt lat="44.0726029" lon="7.9138615"><ele>411.0</ele><time>2026-05-03T08:16:47.123Z</time></trkpt><trkpt lat="44.072765" lon="7.9139088"><ele>411.0</ele><time>2026-05-03T08:16:48.124Z</time></trkpt><trkpt lat="44.0729333" lon="7.9139335"><ele>411.0</ele><time>2026-05-03T08:16:49.123Z</time></trkpt><trkpt lat="44.0730886" lon="7.913985"><ele>411.0</ele><time>2026-05-03T08:16:50.124Z</time></trkpt><trkpt lat="44.0732381" lon="7.914054"><ele>410.5</ele><time>2026-05-03T08:16:51.124Z</time></trkpt><trkpt lat="44.0733543" lon="7.9141729"><ele>410.0</ele><time>2026-05-03T08:16:52.123Z</time></trkpt><trkpt lat="44.0734345" lon="7.9143211"><ele>409.5</ele><time>2026-05-03T08:16:53.125Z</time></trkpt><trkpt lat="44.0734892" lon="7.9144873"><ele>409.0</ele><time>2026-05-03T08:16:54.123Z</time></trkpt><trkpt lat="44.0735157" lon="7.9146625"><ele>409.0</ele><time>2026-05-03T08:16:55.123Z</time></trkpt><trkpt lat="44.0735506" lon="7.9148257"><ele>409.0</ele><time>2026-05-03T08:16:56.123Z</time></trkpt><trkpt lat="44.0736705" lon="7.914897"><ele>409.0</ele><time>2026-05-03T08:16:57.124Z</time></trkpt><trkpt lat="44.0737569" lon="7.9150046"><ele>409.0</ele><time>2026-05-03T08:16:58.123Z</time></trkpt><trkpt lat="44.073923" lon="7.9150171"><ele>407.25</ele><time>2026-05-03T08:16:59.123Z</time></trkpt><trkpt lat="44.0740534" lon="7.9150917"><ele>405.5</ele><time>2026-05-03T08:17:00.123Z</time></trkpt><trkpt lat="44.0741747" lon="7.9151538"><ele>403.75</ele><time>2026-05-03T08:17:01.124Z</time></trkpt><trkpt lat="44.0742907" lon="7.9151858"><ele>402.0</ele><time>2026-05-03T08:17:02.123Z</time></trkpt><trkpt lat="44.0744136" lon="7.9152063"><ele>401.5</ele><time>2026-05-03T08:17:03.123Z</time></trkpt><trkpt lat="44.0745492" lon="7.9151117"><ele>401.0</ele><time>2026-05-03T08:17:04.123Z</time></trkpt><trkpt lat="44.0746365" lon="7.9149213"><ele>400.5</ele><time>2026-05-03T08:17:05.123Z</time></trkpt><trkpt lat="44.0747316" lon="7.914803"><ele>400.0</ele><time>2026-05-03T08:17:06.123Z</time></trkpt><trkpt lat="44.074832" lon="7.9146688"><ele>405.75</ele><time>2026-05-03T08:17:07.123Z</time></trkpt><trkpt lat="44.074937" lon="7.9145614"><ele>411.5</ele><time>2026-05-03T08:17:08.124Z</time></trkpt><trkpt lat="44.075058" lon="7.9144914"><ele>417.25</ele><time>2026-05-03T08:17:09.123Z</time></trkpt><trkpt lat="44.0751931" lon="7.9144652"><ele>423.0</ele><time>2026-05-03T08:17:10.123Z</time></trkpt><trkpt lat="44.075328" lon="7.9143863"><ele>423.0</ele><time>2026-05-03T08:17:11.124Z</time></trkpt><trkpt lat="44.0754477" lon="7.9142778"><ele>423.0</ele><time>2026-05-03T08:17:12.123Z</time></trkpt><trkpt lat="44.0755638" lon="7.9141507"><ele>423.0</ele><time>2026-05-03T08:17:13.123Z</time></trkpt><trkpt lat="44.0757097" lon="7.9140764"><ele>423.0</ele><time>2026-05-03T08:17:14.123Z</time></trkpt><trkpt lat="44.0758483" lon="7.9140309"><ele>429.66666666666663</ele><time>2026-05-03T08:17:15.124Z</time></trkpt><trkpt lat="44.0759998" lon="7.9140102"><ele>436.3333333333333</ele><time>2026-05-03T08:17:16.123Z</time></trkpt><trkpt lat="44.0761645" lon="7.9139873"><ele>443.0</ele><time>2026-05-03T08:17:17.123Z</time></trkpt><trkpt lat="44.0763227" lon="7.9139553"><ele>443.0</ele><time>2026-05-03T08:17:18.123Z</time></trkpt><trkpt lat="44.0764866" lon="7.9139141"><ele>443.0</ele><time>2026-05-03T08:17:19.123Z</time></trkpt><trkpt lat="44.0766454" lon="7.9138848"><ele>443.0</ele><time>2026-05-03T08:17:20.123Z</time></trkpt><trkpt lat="44.0767847" lon="7.9138661"><ele>442.75</ele><time>2026-05-03T08:17:21.124Z</time></trkpt><trkpt lat="44.0769207" lon="7.9138434"><ele>442.5</ele><time>2026-05-03T08:17:22.123Z</time></trkpt><trkpt lat="44.077027" lon="7.9137834"><ele>442.25</ele><time>2026-05-03T08:17:23.123Z</time></trkpt><trkpt lat="44.0771124" lon="7.9136459"><ele>442.0</ele><time>2026-05-03T08:17:24.124Z</time></trkpt><trkpt lat="44.0771999" lon="7.9134985"><ele>445.75</ele><time>2026-05-03T08:17:25.123Z</time></trkpt><trkpt lat="44.0772767" lon="7.9133337"><ele>449.5</ele><time>2026-05-03T08:17:26.123Z</time></trkpt><trkpt lat="44.0773543" lon="7.9131619"><ele>453.25</ele><time>2026-05-03T08:17:27.123Z</time></trkpt><trkpt lat="44.0774514" lon="7.9129961"><ele>457.0</ele><time>2026-05-03T08:17:28.123Z</time></trkpt><trkpt lat="44.0775507" lon="7.9128678"><ele>457.0</ele><time>2026-05-03T08:17:29.123Z</time></trkpt><trkpt lat="44.0776519" lon="7.9127865"><ele>457.0</ele><time>2026-05-03T08:17:30.124Z</time></trkpt><trkpt lat="44.0777653" lon="7.9127463"><ele>457.0</ele><time>2026-05-03T08:17:31.123Z</time></trkpt><trkpt lat="44.0778823" lon="7.9127021"><ele>457.0</ele><time>2026-05-03T08:17:32.123Z</time></trkpt><trkpt lat="44.0780097" lon="7.9127304"><ele>457.0</ele><time>2026-05-03T08:17:33.123Z</time></trkpt><trkpt lat="44.078119" lon="7.9127508"><ele>457.00000000000006</ele><time>2026-05-03T08:17:34.123Z</time></trkpt><trkpt lat="44.0782081" lon="7.912766"><ele>457.00000000000006</ele><time>2026-05-03T08:17:35.123Z</time></trkpt><trkpt lat="44.0782764" lon="7.912832"><ele>457.0</ele><time>2026-05-03T08:17:36.124Z</time></trkpt><trkpt lat="44.0783067" lon="7.9129148"><ele>457.0</ele><time>2026-05-03T08:17:37.123Z</time></trkpt><trkpt lat="44.0781808" lon="7.9132"><ele>457.0</ele><time>2026-05-03T08:17:38.123Z</time></trkpt><trkpt lat="44.0781524" lon="7.9133551"><ele>457.0</ele><time>2026-05-03T08:17:39.123Z</time></trkpt><trkpt lat="44.078129" lon="7.9135186"><ele>457.0</ele><time>2026-05-03T08:17:40.124Z</time></trkpt><trkpt lat="44.0781467" lon="7.9136856"><ele>457.0</ele><time>2026-05-03T08:17:41.123Z</time></trkpt><trkpt lat="44.0781939" lon="7.9138169"><ele>458.5</ele><time>2026-05-03T08:17:42.124Z</time></trkpt><trkpt lat="44.0782776" lon="7.9139294"><ele>460.0</ele><time>2026-05-03T08:17:43.123Z</time></trkpt><trkpt lat="44.0783778" lon="7.9140171"><ele>461.5</ele><time>2026-05-03T08:17:44.124Z</time></trkpt><trkpt lat="44.0784973" lon="7.9140734"><ele>463.0</ele><time>2026-05-03T08:17:45.123Z</time></trkpt><trkpt lat="44.0786295" lon="7.9141236"><ele>463.0</ele><time>2026-05-03T08:17:46.123Z</time></trkpt><trkpt lat="44.0787586" lon="7.9141552"><ele>463.0</ele><time>2026-05-03T08:17:47.123Z</time></trkpt><trkpt lat="44.0788883" lon="7.9141805"><ele>463.0</ele><time>2026-05-03T08:17:48.124Z</time></trkpt><trkpt lat="44.0790488" lon="7.9141142"><ele>463.0</ele><time>2026-05-03T08:17:49.124Z</time></trkpt><trkpt lat="44.0792031" lon="7.9140833"><ele>467.6666666666667</ele><time>2026-05-03T08:17:50.123Z</time></trkpt><trkpt lat="44.0793606" lon="7.9140513"><ele>472.33333333333337</ele><time>2026-05-03T08:17:51.124Z</time></trkpt><trkpt lat="44.0795308" lon="7.9140101"><ele>477.0</ele><time>2026-05-03T08:17:52.123Z</time></trkpt><trkpt lat="44.0796814" lon="7.9139836"><ele>477.0</ele><time>2026-05-03T08:17:53.123Z</time></trkpt><trkpt lat="44.0798221" lon="7.9139505"><ele>477.0</ele><time>2026-05-03T08:17:54.123Z</time></trkpt><trkpt lat="44.0799279" lon="7.913864"><ele>477.0</ele><time>2026-05-03T08:17:55.123Z</time></trkpt><trkpt lat="44.080038" lon="7.9137984"><ele>477.0</ele><time>2026-05-03T08:17:56.124Z</time></trkpt><trkpt lat="44.0800891" lon="7.9137088"><ele>477.0</ele><time>2026-05-03T08:17:57.124Z</time></trkpt><trkpt lat="44.0801535" lon="7.9136528"><ele>477.00000000000006</ele><time>2026-05-03T08:17:58.123Z</time></trkpt><trkpt lat="44.0802152" lon="7.9135906"><ele>477.00000000000006</ele><time>2026-05-03T08:17:59.123Z</time></trkpt><trkpt lat="44.0801402" lon="7.9135161"><ele>477.0</ele><time>2026-05-03T08:18:02.123Z</time></trkpt><trkpt lat="44.0800167" lon="7.9136237"><ele>477.0</ele><time>2026-05-03T08:18:03.123Z</time></trkpt><trkpt lat="44.0799163" lon="7.9136922"><ele>477.0</ele><time>2026-05-03T08:18:04.124Z</time></trkpt><trkpt lat="44.079796" lon="7.9137248"><ele>477.0</ele><time>2026-05-03T08:18:05.123Z</time></trkpt><trkpt lat="44.0796822" lon="7.9137562"><ele>477.0</ele><time>2026-05-03T08:18:06.123Z</time></trkpt><trkpt lat="44.0795093" lon="7.9137075"><ele>477.0</ele><time>2026-05-03T08:18:07.123Z</time></trkpt><trkpt lat="44.0793723" lon="7.9137371"><ele>477.0</ele><time>2026-05-03T08:18:08.124Z</time></trkpt><trkpt lat="44.0792642" lon="7.9137212"><ele>477.00000000000006</ele><time>2026-05-03T08:18:09.123Z</time></trkpt><trkpt lat="44.0791516" lon="7.9137439"><ele>477.00000000000006</ele><time>2026-05-03T08:18:10.124Z</time></trkpt><trkpt lat="44.0790486" lon="7.9137366"><ele>477.0</ele><time>2026-05-03T08:18:11.123Z</time></trkpt><trkpt lat="44.0790024" lon="7.9136509"><ele>477.0</ele><time>2026-05-03T08:18:12.123Z</time></trkpt><trkpt lat="44.0789474" lon="7.9135801"><ele>477.0</ele><time>2026-05-03T08:18:13.123Z</time></trkpt><trkpt lat="44.0790119" lon="7.9134914"><ele>477.00000000000006</ele><time>2026-05-03T08:18:14.123Z</time></trkpt><trkpt lat="44.0791445" lon="7.9134612"><ele>477.00000000000006</ele><time>2026-05-03T08:18:16.123Z</time></trkpt><trkpt lat="44.0792435" lon="7.9134317"><ele>477.0</ele><time>2026-05-03T08:18:17.123Z</time></trkpt><trkpt lat="44.0793495" lon="7.9133483"><ele>477.0</ele><time>2026-05-03T08:18:18.123Z</time></trkpt><trkpt lat="44.0794532" lon="7.9132872"><ele>481.20000000000005</ele><time>2026-05-03T08:18:19.123Z</time></trkpt><trkpt lat="44.0795461" lon="7.9132203"><ele>485.40000000000003</ele><time>2026-05-03T08:18:20.123Z</time></trkpt><trkpt lat="44.0796027" lon="7.9131567"><ele>489.59999999999997</ele><time>2026-05-03T08:18:21.123Z</time></trkpt><trkpt lat="44.0795921" lon="7.9130145"><ele>493.79999999999995</ele><time>2026-05-03T08:18:23.124Z</time></trkpt><trkpt lat="44.0795215" lon="7.9129669"><ele>498.0</ele><time>2026-05-03T08:18:25.123Z</time></trkpt><trkpt lat="44.0794327" lon="7.9130414"><ele>498.0</ele><time>2026-05-03T08:18:26.123Z</time></trkpt><trkpt lat="44.0793352" lon="7.9131149"><ele>497.99999999999994</ele><time>2026-05-03T08:18:27.123Z</time></trkpt><trkpt lat="44.079233" lon="7.9131682"><ele>497.99999999999994</ele><time>2026-05-03T08:18:28.123Z</time></trkpt><trkpt lat="44.0791315" lon="7.9131448"><ele>498.0</ele><time>2026-05-03T08:18:29.123Z</time></trkpt><trkpt lat="44.079041" lon="7.9130436"><ele>498.0</ele><time>2026-05-03T08:18:30.124Z</time></trkpt><trkpt lat="44.0789881" lon="7.9129034"><ele>494.25</ele><time>2026-05-03T08:18:31.124Z</time></trkpt><trkpt lat="44.0789651" lon="7.9127348"><ele>490.5</ele><time>2026-05-03T08:18:32.123Z</time></trkpt><trkpt lat="44.0789318" lon="7.9125584"><ele>486.75</ele><time>2026-05-03T08:18:33.123Z</time></trkpt><trkpt lat="44.0788934" lon="7.9123733"><ele>483.0</ele><time>2026-05-03T08:18:34.124Z</time></trkpt><trkpt lat="44.0788535" lon="7.9121916"><ele>483.0</ele><time>2026-05-03T08:18:35.123Z</time></trkpt><trkpt lat="44.0788129" lon="7.9120108"><ele>483.0</ele><time>2026-05-03T08:18:36.123Z</time></trkpt><trkpt lat="44.0787865" lon="7.9118397"><ele>483.0</ele><time>2026-05-03T08:18:37.124Z</time></trkpt><trkpt lat="44.0787836" lon="7.9116775"><ele>483.0</ele><time>2026-05-03T08:18:38.123Z</time></trkpt><trkpt lat="44.0788068" lon="7.9115285"><ele>486.59999999999997</ele><time>2026-05-03T08:18:39.123Z</time></trkpt><trkpt lat="44.0788469" lon="7.911403"><ele>490.19999999999993</ele><time>2026-05-03T08:18:40.123Z</time></trkpt><trkpt lat="44.0788756" lon="7.9112803"><ele>493.8</ele><time>2026-05-03T08:18:41.123Z</time></trkpt><trkpt lat="44.0788331" lon="7.9111721"><ele>497.4</ele><time>2026-05-03T08:18:42.123Z</time></trkpt><trkpt lat="44.0787286" lon="7.9111124"><ele>501.0</ele><time>2026-05-03T08:18:43.123Z</time></trkpt><trkpt lat="44.0786106" lon="7.9110914"><ele>501.0</ele><time>2026-05-03T08:18:44.123Z</time></trkpt><trkpt lat="44.0784745" lon="7.9110986"><ele>501.0</ele><time>2026-05-03T08:18:45.123Z</time></trkpt><trkpt lat="44.0783325" lon="7.9111317"><ele>501.0</ele><time>2026-05-03T08:18:46.124Z</time></trkpt><trkpt lat="44.0781927" lon="7.9111875"><ele>501.0</ele><time>2026-05-03T08:18:47.123Z</time></trkpt><trkpt lat="44.0780557" lon="7.9112488"><ele>501.25</ele><time>2026-05-03T08:18:48.123Z</time></trkpt><trkpt lat="44.0779141" lon="7.91129"><ele>501.5</ele><time>2026-05-03T08:18:49.123Z</time></trkpt><trkpt lat="44.0777706" lon="7.9113079"><ele>501.75</ele><time>2026-05-03T08:18:50.123Z</time></trkpt><trkpt lat="44.0776189" lon="7.9113091"><ele>502.0</ele><time>2026-05-03T08:18:51.123Z</time></trkpt><trkpt lat="44.0774616" lon="7.9112922"><ele>504.5</ele><time>2026-05-03T08:18:52.123Z</time></trkpt><trkpt lat="44.0773047" lon="7.9112723"><ele>507.0</ele><time>2026-05-03T08:18:53.124Z</time></trkpt><trkpt lat="44.0771565" lon="7.9112398"><ele>509.5</ele><time>2026-05-03T08:18:54.124Z</time></trkpt><trkpt lat="44.0770294" lon="7.9111845"><ele>512.0</ele><time>2026-05-03T08:18:55.123Z</time></trkpt><trkpt lat="44.0769244" lon="7.9111248"><ele>512.0</ele><time>2026-05-03T08:18:56.124Z</time></trkpt><trkpt lat="44.076827" lon="7.9110928"><ele>512.0</ele><time>2026-05-03T08:18:57.123Z</time></trkpt><trkpt lat="44.0767373" lon="7.9111282"><ele>512.0</ele><time>2026-05-03T08:18:58.124Z</time></trkpt><trkpt lat="44.0766557" lon="7.9112268"><ele>512.0</ele><time>2026-05-03T08:18:59.123Z</time></trkpt><trkpt lat="44.0765664" lon="7.9113218"><ele>512.0</ele><time>2026-05-03T08:19:00.124Z</time></trkpt><trkpt lat="44.0764574" lon="7.9113799"><ele>515.1666666666666</ele><time>2026-05-03T08:19:01.123Z</time></trkpt><trkpt lat="44.0763526" lon="7.9114233"><ele>518.3333333333333</ele><time>2026-05-03T08:19:02.123Z</time></trkpt><trkpt lat="44.0762665" lon="7.9114481"><ele>521.5</ele><time>2026-05-03T08:19:03.123Z</time></trkpt><trkpt lat="44.0761974" lon="7.9114242"><ele>524.6666666666666</ele><time>2026-05-03T08:19:04.123Z</time></trkpt><trkpt lat="44.0761527" lon="7.9113454"><ele>527.8333333333334</ele><time>2026-05-03T08:19:05.123Z</time></trkpt><trkpt lat="44.0761382" lon="7.9112334"><ele>531.0</ele><time>2026-05-03T08:19:06.123Z</time></trkpt><trkpt lat="44.0761688" lon="7.9111236"><ele>531.0</ele><time>2026-05-03T08:19:07.123Z</time></trkpt><trkpt lat="44.076234" lon="7.9110416"><ele>531.0</ele><time>2026-05-03T08:19:08.123Z</time></trkpt><trkpt lat="44.0763231" lon="7.9109833"><ele>531.0</ele><time>2026-05-03T08:19:09.123Z</time></trkpt><trkpt lat="44.0764343" lon="7.9109221"><ele>531.0</ele><time>2026-05-03T08:19:10.124Z</time></trkpt><trkpt lat="44.0765437" lon="7.9108375"><ele>531.0</ele><time>2026-05-03T08:19:11.123Z</time></trkpt><trkpt lat="44.0766308" lon="7.9107002"><ele>532.25</ele><time>2026-05-03T08:19:12.124Z</time></trkpt><trkpt lat="44.0767142" lon="7.9105467"><ele>533.5</ele><time>2026-05-03T08:19:13.123Z</time></trkpt><trkpt lat="44.0768068" lon="7.9104391"><ele>534.75</ele><time>2026-05-03T08:19:14.123Z</time></trkpt><trkpt lat="44.0769204" lon="7.9104303"><ele>536.0</ele><time>2026-05-03T08:19:15.123Z</time></trkpt><trkpt lat="44.0770552" lon="7.9104672"><ele>536.0</ele><time>2026-05-03T08:19:16.123Z</time></trkpt><trkpt lat="44.0772031" lon="7.9104822"><ele>536.0</ele><time>2026-05-03T08:19:17.124Z</time></trkpt><trkpt lat="44.0773538" lon="7.9104899"><ele>536.0</ele><time>2026-05-03T08:19:18.124Z</time></trkpt><trkpt lat="44.0774971" lon="7.9104963"><ele>536.0</ele><time>2026-05-03T08:19:19.123Z</time></trkpt><trkpt lat="44.0776422" lon="7.9105131"><ele>535.25</ele><time>2026-05-03T08:19:20.123Z</time></trkpt><trkpt lat="44.0777791" lon="7.9105285"><ele>534.5</ele><time>2026-05-03T08:19:21.124Z</time></trkpt><trkpt lat="44.0779114" lon="7.9105227"><ele>533.75</ele><time>2026-05-03T08:19:22.123Z</time></trkpt><trkpt lat="44.0780447" lon="7.9104892"><ele>533.0</ele><time>2026-05-03T08:19:23.123Z</time></trkpt><trkpt lat="44.0781683" lon="7.9104319"><ele>532.8</ele><time>2026-05-03T08:19:24.123Z</time></trkpt><trkpt lat="44.0782714" lon="7.9103812"><ele>532.5999999999999</ele><time>2026-05-03T08:19:25.123Z</time></trkpt><trkpt lat="44.0783623" lon="7.9103452"><ele>532.4000000000001</ele><time>2026-05-03T08:19:26.123Z</time></trkpt><trkpt lat="44.0784508" lon="7.9103118"><ele>532.2</ele><time>2026-05-03T08:19:27.123Z</time></trkpt><trkpt lat="44.0785329" lon="7.9102747"><ele>532.0</ele><time>2026-05-03T08:19:28.124Z</time></trkpt><trkpt lat="44.0785972" lon="7.9102063"><ele>532.0</ele><time>2026-05-03T08:19:29.123Z</time></trkpt><trkpt lat="44.0786468" lon="7.9101159"><ele>532.0</ele><time>2026-05-03T08:19:30.123Z</time></trkpt><trkpt lat="44.0786931" lon="7.9100053"><ele>532.0</ele><time>2026-05-03T08:19:31.124Z</time></trkpt><trkpt lat="44.078702" lon="7.9098257"><ele>532.0</ele><time>2026-05-03T08:19:32.123Z</time></trkpt><trkpt lat="44.0787496" lon="7.9096726"><ele>532.0</ele><time>2026-05-03T08:19:33.123Z</time></trkpt><trkpt lat="44.0788183" lon="7.9095317"><ele>540.0</ele><time>2026-05-03T08:19:34.123Z</time></trkpt><trkpt lat="44.0789115" lon="7.9093985"><ele>548.0</ele><time>2026-05-03T08:19:35.123Z</time></trkpt><trkpt lat="44.0790026" lon="7.9092694"><ele>556.0</ele><time>2026-05-03T08:19:36.123Z</time></trkpt><trkpt lat="44.079083" lon="7.9091394"><ele>564.0</ele><time>2026-05-03T08:19:37.123Z</time></trkpt><trkpt lat="44.0791566" lon="7.9090267"><ele>564.2</ele><time>2026-05-03T08:19:38.123Z</time></trkpt><trkpt lat="44.0792368" lon="7.9089357"><ele>564.4</ele><time>2026-05-03T08:19:39.123Z</time></trkpt><trkpt lat="44.0793228" lon="7.9088505"><ele>564.6</ele><time>2026-05-03T08:19:40.123Z</time></trkpt><trkpt lat="44.0793657" lon="7.9089479"><ele>564.8</ele><time>2026-05-03T08:19:41.124Z</time></trkpt><trkpt lat="44.0794092" lon="7.909061"><ele>565.0</ele><time>2026-05-03T08:19:42.123Z</time></trkpt><trkpt lat="44.079396" lon="7.9092207"><ele>562.2</ele><time>2026-05-03T08:19:43.124Z</time></trkpt><trkpt lat="44.0793823" lon="7.9093694"><ele>559.4</ele><time>2026-05-03T08:19:44.124Z</time></trkpt><trkpt lat="44.0793965" lon="7.909493"><ele>556.6</ele><time>2026-05-03T08:19:45.125Z</time></trkpt><trkpt lat="44.0794365" lon="7.9095901"><ele>553.8</ele><time>2026-05-03T08:19:46.124Z</time></trkpt><trkpt lat="44.0795345" lon="7.9096486"><ele>551.0</ele><time>2026-05-03T08:19:47.124Z</time></trkpt><trkpt lat="44.0796467" lon="7.9096985"><ele>551.0</ele><time>2026-05-03T08:19:48.124Z</time></trkpt><trkpt lat="44.0797528" lon="7.9097474"><ele>551.0</ele><time>2026-05-03T08:19:49.125Z</time></trkpt><trkpt lat="44.0798547" lon="7.909761"><ele>551.0</ele><time>2026-05-03T08:19:50.124Z</time></trkpt><trkpt lat="44.0799557" lon="7.9097126"><ele>551.0</ele><time>2026-05-03T08:19:51.124Z</time></trkpt><trkpt lat="44.0800483" lon="7.9096212"><ele>551.0</ele><time>2026-05-03T08:19:52.124Z</time></trkpt><trkpt lat="44.0801414" lon="7.9095164"><ele>552.5</ele><time>2026-05-03T08:19:53.125Z</time></trkpt><trkpt lat="44.0802391" lon="7.9094134"><ele>554.0</ele><time>2026-05-03T08:19:54.124Z</time></trkpt><trkpt lat="44.0803439" lon="7.9093122"><ele>555.5</ele><time>2026-05-03T08:19:55.124Z</time></trkpt><trkpt lat="44.0804458" lon="7.9092128"><ele>557.0</ele><time>2026-05-03T08:19:56.124Z</time></trkpt><trkpt lat="44.080543" lon="7.9091215"><ele>559.4</ele><time>2026-05-03T08:19:57.124Z</time></trkpt><trkpt lat="44.0806415" lon="7.909052"><ele>561.8000000000001</ele><time>2026-05-03T08:19:58.125Z</time></trkpt><trkpt lat="44.0807354" lon="7.9090274"><ele>564.2</ele><time>2026-05-03T08:19:59.124Z</time></trkpt><trkpt lat="44.0808243" lon="7.9090392"><ele>566.6</ele><time>2026-05-03T08:20:00.124Z</time></trkpt><trkpt lat="44.0808976" lon="7.9090672"><ele>569.0</ele><time>2026-05-03T08:20:01.124Z</time></trkpt><trkpt lat="44.0810074" lon="7.9089853"><ele>569.0</ele><time>2026-05-03T08:20:03.124Z</time></trkpt><trkpt lat="44.081014" lon="7.9088917"><ele>569.0</ele><time>2026-05-03T08:20:04.124Z</time></trkpt><trkpt lat="44.0809991" lon="7.9088041"><ele>569.0</ele><time>2026-05-03T08:20:05.124Z</time></trkpt><trkpt lat="44.0809314" lon="7.9087471"><ele>569.0</ele><time>2026-05-03T08:20:06.124Z</time></trkpt><trkpt lat="44.0808219" lon="7.9087151"><ele>569.0</ele><time>2026-05-03T08:20:07.124Z</time></trkpt><trkpt lat="44.0807046" lon="7.9086917"><ele>569.0</ele><time>2026-05-03T08:20:08.124Z</time></trkpt><trkpt lat="44.0805825" lon="7.9086602"><ele>569.0</ele><time>2026-05-03T08:20:09.124Z</time></trkpt><trkpt lat="44.0804487" lon="7.9086269"><ele>569.0</ele><time>2026-05-03T08:20:10.125Z</time></trkpt><trkpt lat="44.0803111" lon="7.9085903"><ele>569.0</ele><time>2026-05-03T08:20:11.124Z</time></trkpt><trkpt lat="44.0801751" lon="7.9085462"><ele>569.0</ele><time>2026-05-03T08:20:12.124Z</time></trkpt><trkpt lat="44.0800439" lon="7.9085078"><ele>568.3333333333333</ele><time>2026-05-03T08:20:13.124Z</time></trkpt><trkpt lat="44.0799314" lon="7.908495"><ele>567.6666666666666</ele><time>2026-05-03T08:20:14.124Z</time></trkpt><trkpt lat="44.0798378" lon="7.908476"><ele>567.0</ele><time>2026-05-03T08:20:15.124Z</time></trkpt><trkpt lat="44.0797889" lon="7.9084005"><ele>566.3333333333334</ele><time>2026-05-03T08:20:16.125Z</time></trkpt><trkpt lat="44.079796" lon="7.9082879"><ele>565.6666666666667</ele><time>2026-05-03T08:20:17.124Z</time></trkpt><trkpt lat="44.0798377" lon="7.9081926"><ele>565.0</ele><time>2026-05-03T08:20:18.124Z</time></trkpt><trkpt lat="44.0799132" lon="7.9081499"><ele>571.5</ele><time>2026-05-03T08:20:19.124Z</time></trkpt><trkpt lat="44.0800143" lon="7.9081446"><ele>578.0</ele><time>2026-05-03T08:20:20.124Z</time></trkpt><trkpt lat="44.0801274" lon="7.9081595"><ele>584.5</ele><time>2026-05-03T08:20:21.124Z</time></trkpt><trkpt lat="44.0802464" lon="7.9081684"><ele>591.0</ele><time>2026-05-03T08:20:22.124Z</time></trkpt><trkpt lat="44.0803675" lon="7.9081631"><ele>591.0</ele><time>2026-05-03T08:20:23.124Z</time></trkpt><trkpt lat="44.0804911" lon="7.9081258"><ele>591.0</ele><time>2026-05-03T08:20:24.125Z</time></trkpt><trkpt lat="44.0806103" lon="7.9080697"><ele>591.0</ele><time>2026-05-03T08:20:25.124Z</time></trkpt><trkpt lat="44.0807193" lon="7.9080005"><ele>591.0</ele><time>2026-05-03T08:20:26.124Z</time></trkpt><trkpt lat="44.0808283" lon="7.9079238"><ele>592.5</ele><time>2026-05-03T08:20:27.124Z</time></trkpt><trkpt lat="44.0809535" lon="7.9078824"><ele>594.0</ele><time>2026-05-03T08:20:28.124Z</time></trkpt><trkpt lat="44.0810865" lon="7.9078927"><ele>595.5</ele><time>2026-05-03T08:20:29.125Z</time></trkpt><trkpt lat="44.0812246" lon="7.9079308"><ele>597.0</ele><time>2026-05-03T08:20:30.124Z</time></trkpt><trkpt lat="44.0813594" lon="7.9079705"><ele>597.0</ele><time>2026-05-03T08:20:31.124Z</time></trkpt><trkpt lat="44.0814805" lon="7.9080065"><ele>597.0</ele><time>2026-05-03T08:20:32.124Z</time></trkpt><trkpt lat="44.0815788" lon="7.9080561"><ele>597.0</ele><time>2026-05-03T08:20:33.125Z</time></trkpt><trkpt lat="44.0816528" lon="7.9081416"><ele>597.0</ele><time>2026-05-03T08:20:34.124Z</time></trkpt><trkpt lat="44.0816966" lon="7.9082583"><ele>597.0</ele><time>2026-05-03T08:20:35.125Z</time></trkpt><trkpt lat="44.0817126" lon="7.9083937"><ele>597.3333333333334</ele><time>2026-05-03T08:20:36.124Z</time></trkpt><trkpt lat="44.0817126" lon="7.9085199"><ele>597.6666666666666</ele><time>2026-05-03T08:20:37.124Z</time></trkpt><trkpt lat="44.0817273" lon="7.9086258"><ele>598.0</ele><time>2026-05-03T08:20:38.124Z</time></trkpt><trkpt lat="44.0817664" lon="7.9087137"><ele>598.3333333333333</ele><time>2026-05-03T08:20:39.124Z</time></trkpt><trkpt lat="44.0818271" lon="7.9087952"><ele>598.6666666666666</ele><time>2026-05-03T08:20:40.124Z</time></trkpt><trkpt lat="44.0818994" lon="7.9088765"><ele>599.0</ele><time>2026-05-03T08:20:41.124Z</time></trkpt><trkpt lat="44.081974" lon="7.908952"><ele>599.0</ele><time>2026-05-03T08:20:42.124Z</time></trkpt><trkpt lat="44.0820379" lon="7.9090191"><ele>599.0</ele><time>2026-05-03T08:20:43.124Z</time></trkpt><trkpt lat="44.0821303" lon="7.909072"><ele>599.0</ele><time>2026-05-03T08:20:45.124Z</time></trkpt><trkpt lat="44.0820499" lon="7.9089783"><ele>599.0</ele><time>2026-05-03T08:20:57.124Z</time></trkpt><trkpt lat="44.081968" lon="7.908916"><ele>599.0</ele><time>2026-05-03T08:20:58.124Z</time></trkpt><trkpt lat="44.0818984" lon="7.9088486"><ele>599.0</ele><time>2026-05-03T08:20:59.124Z</time></trkpt><trkpt lat="44.0818308" lon="7.9087751"><ele>599.0</ele><time>2026-05-03T08:21:00.124Z</time></trkpt><trkpt lat="44.081777" lon="7.9086944"><ele>599.0</ele><time>2026-05-03T08:21:01.124Z</time></trkpt><trkpt lat="44.0817346" lon="7.9086084"><ele>599.0</ele><time>2026-05-03T08:21:02.125Z</time></trkpt><trkpt lat="44.0817017" lon="7.9085216"><ele>599.0</ele><time>2026-05-03T08:21:03.124Z</time></trkpt><trkpt lat="44.0816864" lon="7.908428"><ele>599.0</ele><time>2026-05-03T08:21:04.125Z</time></trkpt><trkpt lat="44.0816922" lon="7.908335"><ele>599.0</ele><time>2026-05-03T08:21:05.124Z</time></trkpt><trkpt lat="44.0817035" lon="7.9082453"><ele>598.6</ele><time>2026-05-03T08:21:06.124Z</time></trkpt><trkpt lat="44.0816942" lon="7.9080898"><ele>598.2</ele><time>2026-05-03T08:21:08.124Z</time></trkpt><trkpt lat="44.0816179" lon="7.9080154"><ele>597.8000000000001</ele><time>2026-05-03T08:21:10.124Z</time></trkpt><trkpt lat="44.0815623" lon="7.9079742"><ele>597.4</ele><time>2026-05-03T08:21:11.124Z</time></trkpt><trkpt lat="44.0814863" lon="7.9079181"><ele>597.0</ele><time>2026-05-03T08:21:12.124Z</time></trkpt><trkpt lat="44.0813999" lon="7.9078482"><ele>597.0</ele><time>2026-05-03T08:21:13.124Z</time></trkpt><trkpt lat="44.0813218" lon="7.9077777"><ele>597.0</ele><time>2026-05-03T08:21:14.124Z</time></trkpt><trkpt lat="44.0812439" lon="7.9076996"><ele>597.0</ele><time>2026-05-03T08:21:15.124Z</time></trkpt><trkpt lat="44.0811696" lon="7.9076311"><ele>597.0</ele><time>2026-05-03T08:21:16.124Z</time></trkpt><trkpt lat="44.081084" lon="7.9075858"><ele>597.0</ele><time>2026-05-03T08:21:17.124Z</time></trkpt><trkpt lat="44.0809838" lon="7.9075646"><ele>596.0</ele><time>2026-05-03T08:21:18.124Z</time></trkpt><trkpt lat="44.0808843" lon="7.9075603"><ele>595.0</ele><time>2026-05-03T08:21:19.124Z</time></trkpt><trkpt lat="44.0807946" lon="7.907572"><ele>594.0</ele><time>2026-05-03T08:21:20.124Z</time></trkpt><trkpt lat="44.0807068" lon="7.9075731"><ele>593.0</ele><time>2026-05-03T08:21:21.124Z</time></trkpt><trkpt lat="44.080619" lon="7.9075867"><ele>592.0</ele><time>2026-05-03T08:21:22.124Z</time></trkpt><trkpt lat="44.0805427" lon="7.907608"><ele>591.0</ele><time>2026-05-03T08:21:23.124Z</time></trkpt><trkpt lat="44.0804799" lon="7.9076209"><ele>596.0</ele><time>2026-05-03T08:21:24.125Z</time></trkpt><trkpt lat="44.080393" lon="7.9075614"><ele>601.0</ele><time>2026-05-03T08:21:26.124Z</time></trkpt><trkpt lat="44.0804146" lon="7.9074433"><ele>606.0</ele><time>2026-05-03T08:21:28.124Z</time></trkpt><trkpt lat="44.0805226" lon="7.9074065"><ele>611.0</ele><time>2026-05-03T08:21:30.124Z</time></trkpt><trkpt lat="44.0806" lon="7.9073864"><ele>616.0</ele><time>2026-05-03T08:21:31.124Z</time></trkpt><trkpt lat="44.080691" lon="7.9073383"><ele>616.75</ele><time>2026-05-03T08:21:32.124Z</time></trkpt><trkpt lat="44.0808124" lon="7.9072569"><ele>617.5</ele><time>2026-05-03T08:21:33.124Z</time></trkpt><trkpt lat="44.0809369" lon="7.9071866"><ele>618.25</ele><time>2026-05-03T08:21:34.125Z</time></trkpt><trkpt lat="44.0810827" lon="7.9071147"><ele>619.0</ele><time>2026-05-03T08:21:35.124Z</time></trkpt><trkpt lat="44.0812343" lon="7.907054"><ele>619.0</ele><time>2026-05-03T08:21:36.124Z</time></trkpt><trkpt lat="44.0813701" lon="7.9070129"><ele>619.0</ele><time>2026-05-03T08:21:37.124Z</time></trkpt><trkpt lat="44.0814825" lon="7.9069889"><ele>619.0</ele><time>2026-05-03T08:21:38.124Z</time></trkpt><trkpt lat="44.0815808" lon="7.9069878"><ele>619.0</ele><time>2026-05-03T08:21:39.124Z</time></trkpt><trkpt lat="44.0816709" lon="7.9070092"><ele>619.0</ele><time>2026-05-03T08:21:40.124Z</time></trkpt><trkpt lat="44.0817679" lon="7.9070455"><ele>621.0</ele><time>2026-05-03T08:21:41.124Z</time></trkpt><trkpt lat="44.0818718" lon="7.9070992"><ele>623.0</ele><time>2026-05-03T08:21:42.124Z</time></trkpt><trkpt lat="44.081973" lon="7.9071518"><ele>625.0</ele><time>2026-05-03T08:21:43.124Z</time></trkpt><trkpt lat="44.0820798" lon="7.9071913"><ele>627.0</ele><time>2026-05-03T08:21:44.124Z</time></trkpt><trkpt lat="44.0821997" lon="7.9072044"><ele>627.0</ele><time>2026-05-03T08:21:45.124Z</time></trkpt><trkpt lat="44.0823104" lon="7.9072092"><ele>627.0</ele><time>2026-05-03T08:21:46.124Z</time></trkpt><trkpt lat="44.082407" lon="7.9072123"><ele>627.0</ele><time>2026-05-03T08:21:47.124Z</time></trkpt><trkpt lat="44.0824748" lon="7.9072257"><ele>627.0</ele><time>2026-05-03T08:21:48.125Z</time></trkpt><trkpt lat="44.0825353" lon="7.907262"><ele>627.0</ele><time>2026-05-03T08:21:49.124Z</time></trkpt><trkpt lat="44.0825884" lon="7.9073094"><ele>627.0</ele><time>2026-05-03T08:21:50.124Z</time></trkpt><trkpt lat="44.0826344" lon="7.9074927"><ele>627.6666666666666</ele><time>2026-05-03T08:21:52.124Z</time></trkpt><trkpt lat="44.0826402" lon="7.9076308"><ele>628.3333333333334</ele><time>2026-05-03T08:21:53.125Z</time></trkpt><trkpt lat="44.0826679" lon="7.9077558"><ele>629.0</ele><time>2026-05-03T08:21:54.125Z</time></trkpt><trkpt lat="44.0827104" lon="7.907873"><ele>629.6666666666667</ele><time>2026-05-03T08:21:55.124Z</time></trkpt><trkpt lat="44.082762" lon="7.9079597"><ele>630.3333333333334</ele><time>2026-05-03T08:21:56.124Z</time></trkpt><trkpt lat="44.0828275" lon="7.9080153"><ele>631.0</ele><time>2026-05-03T08:21:57.124Z</time></trkpt><trkpt lat="44.0829153" lon="7.9080482"><ele>631.0</ele><time>2026-05-03T08:21:58.124Z</time></trkpt><trkpt lat="44.0830181" lon="7.9080775"><ele>631.0</ele><time>2026-05-03T08:21:59.125Z</time></trkpt><trkpt lat="44.0831113" lon="7.9081108"><ele>631.0</ele><time>2026-05-03T08:22:00.125Z</time></trkpt><trkpt lat="44.0831848" lon="7.9081631"><ele>631.0</ele><time>2026-05-03T08:22:01.124Z</time></trkpt><trkpt lat="44.0832554" lon="7.9082205"><ele>631.0</ele><time>2026-05-03T08:22:02.125Z</time></trkpt><trkpt lat="44.0833103" lon="7.908284"><ele>631.0</ele><time>2026-05-03T08:22:03.124Z</time></trkpt><trkpt lat="44.0833567" lon="7.9083639"><ele>631.4</ele><time>2026-05-03T08:22:04.124Z</time></trkpt><trkpt lat="44.0834042" lon="7.9084375"><ele>631.8</ele><time>2026-05-03T08:22:05.124Z</time></trkpt><trkpt lat="44.0835282" lon="7.9084602"><ele>632.1999999999999</ele><time>2026-05-03T08:22:07.124Z</time></trkpt><trkpt lat="44.0836073" lon="7.9084069"><ele>632.6</ele><time>2026-05-03T08:22:08.124Z</time></trkpt><trkpt lat="44.0836832" lon="7.908309"><ele>633.0</ele><time>2026-05-03T08:22:09.124Z</time></trkpt><trkpt lat="44.0837416" lon="7.9082055"><ele>637.1666666666666</ele><time>2026-05-03T08:22:10.125Z</time></trkpt><trkpt lat="44.0837854" lon="7.9081104"><ele>641.3333333333334</ele><time>2026-05-03T08:22:11.124Z</time></trkpt><trkpt lat="44.0838412" lon="7.9080275"><ele>645.5</ele><time>2026-05-03T08:22:12.124Z</time></trkpt><trkpt lat="44.0839071" lon="7.9079681"><ele>649.6666666666667</ele><time>2026-05-03T08:22:13.124Z</time></trkpt><trkpt lat="44.0839834" lon="7.9079095"><ele>653.8333333333334</ele><time>2026-05-03T08:22:14.125Z</time></trkpt><trkpt lat="44.0840634" lon="7.907824"><ele>658.0</ele><time>2026-05-03T08:22:15.124Z</time></trkpt><trkpt lat="44.0841303" lon="7.9077254"><ele>659.6666666666667</ele><time>2026-05-03T08:22:16.124Z</time></trkpt><trkpt lat="44.0841913" lon="7.907629"><ele>661.3333333333334</ele><time>2026-05-03T08:22:17.124Z</time></trkpt><trkpt lat="44.0842424" lon="7.9075435"><ele>663.0</ele><time>2026-05-03T08:22:18.125Z</time></trkpt><trkpt lat="44.0842957" lon="7.9074694"><ele>664.6666666666666</ele><time>2026-05-03T08:22:19.124Z</time></trkpt><trkpt lat="44.0843637" lon="7.9074341"><ele>666.3333333333333</ele><time>2026-05-03T08:22:20.125Z</time></trkpt><trkpt lat="44.0844319" lon="7.907403"><ele>668.0</ele><time>2026-05-03T08:22:21.124Z</time></trkpt><trkpt lat="44.0844244" lon="7.9072624"><ele>668.8</ele><time>2026-05-03T08:22:23.124Z</time></trkpt><trkpt lat="44.0843595" lon="7.9072308"><ele>669.5999999999999</ele><time>2026-05-03T08:22:24.124Z</time></trkpt><trkpt lat="44.0842965" lon="7.9072277"><ele>670.4000000000001</ele><time>2026-05-03T08:22:25.125Z</time></trkpt><trkpt lat="44.0841666" lon="7.9073029"><ele>671.2</ele><time>2026-05-03T08:22:27.124Z</time></trkpt><trkpt lat="44.0840886" lon="7.9073743"><ele>672.0</ele><time>2026-05-03T08:22:28.124Z</time></trkpt><trkpt lat="44.0840111" lon="7.9074269"><ele>672.0</ele><time>2026-05-03T08:22:29.124Z</time></trkpt><trkpt lat="44.0839293" lon="7.9074737"><ele>672.0</ele><time>2026-05-03T08:22:30.124Z</time></trkpt><trkpt lat="44.0838455" lon="7.9075036"><ele>672.0</ele><time>2026-05-03T08:22:31.124Z</time></trkpt><trkpt lat="44.0837696" lon="7.9075143"><ele>672.0</ele><time>2026-05-03T08:22:32.124Z</time></trkpt><trkpt lat="44.0836585" lon="7.9074949"><ele>672.0</ele><time>2026-05-03T08:22:34.124Z</time></trkpt><trkpt lat="44.0836418" lon="7.9074094"><ele>672.0</ele><time>2026-05-03T08:22:36.125Z</time></trkpt><trkpt lat="44.0837265" lon="7.9073499"><ele>672.0</ele><time>2026-05-03T08:22:38.124Z</time></trkpt><trkpt lat="44.0838062" lon="7.9073081"><ele>672.0</ele><time>2026-05-03T08:22:39.124Z</time></trkpt><trkpt lat="44.0838955" lon="7.9072331"><ele>672.0</ele><time>2026-05-03T08:22:40.124Z</time></trkpt><trkpt lat="44.0839774" lon="7.9071494"><ele>672.0</ele><time>2026-05-03T08:22:41.124Z</time></trkpt><trkpt lat="44.0840246" lon="7.9070397"><ele>672.0</ele><time>2026-05-03T08:22:42.124Z</time></trkpt><trkpt lat="44.0840621" lon="7.9068992"><ele>672.0</ele><time>2026-05-03T08:22:43.124Z</time></trkpt><trkpt lat="44.0840761" lon="7.906749"><ele>672.0</ele><time>2026-05-03T08:22:44.124Z</time></trkpt><trkpt lat="44.0840743" lon="7.9066386"><ele>672.0</ele><time>2026-05-03T08:22:45.124Z</time></trkpt><trkpt lat="44.0840862" lon="7.9065184"><ele>672.0</ele><time>2026-05-03T08:22:46.124Z</time></trkpt><trkpt lat="44.0841048" lon="7.9064187"><ele>672.0</ele><time>2026-05-03T08:22:47.124Z</time></trkpt><trkpt lat="44.084147" lon="7.9063181"><ele>672.0</ele><time>2026-05-03T08:22:48.125Z</time></trkpt><trkpt lat="44.0841963" lon="7.9062269"><ele>675.3333333333334</ele><time>2026-05-03T08:22:49.124Z</time></trkpt><trkpt lat="44.0842449" lon="7.9061237"><ele>678.6666666666666</ele><time>2026-05-03T08:22:50.124Z</time></trkpt><trkpt lat="44.0842959" lon="7.9060342"><ele>682.0</ele><time>2026-05-03T08:22:51.125Z</time></trkpt><trkpt lat="44.0843571" lon="7.9059501"><ele>685.3333333333333</ele><time>2026-05-03T08:22:52.124Z</time></trkpt><trkpt lat="44.084405" lon="7.9058505"><ele>688.6666666666666</ele><time>2026-05-03T08:22:53.124Z</time></trkpt><trkpt lat="44.0844202" lon="7.905712"><ele>692.0</ele><time>2026-05-03T08:22:54.124Z</time></trkpt><trkpt lat="44.0844421" lon="7.9055909"><ele>694.0</ele><time>2026-05-03T08:22:55.125Z</time></trkpt><trkpt lat="44.0844799" lon="7.9054983"><ele>696.0</ele><time>2026-05-03T08:22:56.124Z</time></trkpt><trkpt lat="44.0845094" lon="7.905419"><ele>698.0</ele><time>2026-05-03T08:22:57.124Z</time></trkpt><trkpt lat="44.0845849" lon="7.9054255"><ele>700.0</ele><time>2026-05-03T08:22:59.124Z</time></trkpt><trkpt lat="44.0846415" lon="7.9054827"><ele>702.0</ele><time>2026-05-03T08:23:00.124Z</time></trkpt><trkpt lat="44.0847181" lon="7.905572"><ele>704.0</ele><time>2026-05-03T08:23:01.124Z</time></trkpt><trkpt lat="44.0848052" lon="7.905671"><ele>704.0</ele><time>2026-05-03T08:23:02.125Z</time></trkpt><trkpt lat="44.0848785" lon="7.9057688"><ele>704.0</ele><time>2026-05-03T08:23:03.124Z</time></trkpt><trkpt lat="44.0849386" lon="7.9058489"><ele>704.0</ele><time>2026-05-03T08:23:04.124Z</time></trkpt><trkpt lat="44.0849933" lon="7.905898"><ele>704.0</ele><time>2026-05-03T08:23:05.124Z</time></trkpt><trkpt lat="44.0851231" lon="7.9058784"><ele>704.0</ele><time>2026-05-03T08:23:07.124Z</time></trkpt><trkpt lat="44.0851861" lon="7.9058184"><ele>705.25</ele><time>2026-05-03T08:23:08.125Z</time></trkpt><trkpt lat="44.0852202" lon="7.9057184"><ele>706.5</ele><time>2026-05-03T08:23:09.124Z</time></trkpt><trkpt lat="44.0852407" lon="7.9055601"><ele>707.75</ele><time>2026-05-03T08:23:10.124Z</time></trkpt><trkpt lat="44.0852671" lon="7.9053831"><ele>709.0</ele><time>2026-05-03T08:23:11.125Z</time></trkpt><trkpt lat="44.085304" lon="7.9052057"><ele>713.0</ele><time>2026-05-03T08:23:12.125Z</time></trkpt><trkpt lat="44.085338" lon="7.9050137"><ele>717.0</ele><time>2026-05-03T08:23:13.124Z</time></trkpt><trkpt lat="44.085352" lon="7.9048239"><ele>721.0</ele><time>2026-05-03T08:23:14.124Z</time></trkpt><trkpt lat="44.0853609" lon="7.9046437"><ele>725.0</ele><time>2026-05-03T08:23:15.124Z</time></trkpt><trkpt lat="44.0853849" lon="7.9044842"><ele>725.0</ele><time>2026-05-03T08:23:16.124Z</time></trkpt><trkpt lat="44.0854185" lon="7.9043295"><ele>725.0</ele><time>2026-05-03T08:23:17.124Z</time></trkpt><trkpt lat="44.08545" lon="7.9041763"><ele>725.0</ele><time>2026-05-03T08:23:18.124Z</time></trkpt><trkpt lat="44.0854822" lon="7.9040103"><ele>725.0</ele><time>2026-05-03T08:23:19.124Z</time></trkpt><trkpt lat="44.0855347" lon="7.9038512"><ele>728.4</ele><time>2026-05-03T08:23:20.124Z</time></trkpt><trkpt lat="44.0855964" lon="7.9037222"><ele>731.8</ele><time>2026-05-03T08:23:21.125Z</time></trkpt><trkpt lat="44.0856605" lon="7.9036184"><ele>735.2</ele><time>2026-05-03T08:23:22.124Z</time></trkpt><trkpt lat="44.0857368" lon="7.9035118"><ele>738.6</ele><time>2026-05-03T08:23:23.124Z</time></trkpt><trkpt lat="44.0858222" lon="7.9034044"><ele>742.0</ele><time>2026-05-03T08:23:24.124Z</time></trkpt><trkpt lat="44.0859046" lon="7.9033023"><ele>743.2</ele><time>2026-05-03T08:23:25.124Z</time></trkpt><trkpt lat="44.0859888" lon="7.9032172"><ele>744.4000000000001</ele><time>2026-05-03T08:23:26.125Z</time></trkpt><trkpt lat="44.0860885" lon="7.9031683"><ele>745.5999999999999</ele><time>2026-05-03T08:23:27.125Z</time></trkpt><trkpt lat="44.0861874" lon="7.9031411"><ele>746.8</ele><time>2026-05-03T08:23:28.124Z</time></trkpt><trkpt lat="44.0862672" lon="7.9031078"><ele>748.0</ele><time>2026-05-03T08:23:29.124Z</time></trkpt><trkpt lat="44.0863342" lon="7.9030363"><ele>748.0</ele><time>2026-05-03T08:23:30.124Z</time></trkpt><trkpt lat="44.0863984" lon="7.9029361"><ele>748.0</ele><time>2026-05-03T08:23:31.124Z</time></trkpt><trkpt lat="44.0864675" lon="7.9028208"><ele>748.0</ele><time>2026-05-03T08:23:32.124Z</time></trkpt><trkpt lat="44.0865363" lon="7.9026951"><ele>748.0</ele><time>2026-05-03T08:23:33.125Z</time></trkpt><trkpt lat="44.0865971" lon="7.902566"><ele>748.0</ele><time>2026-05-03T08:23:34.125Z</time></trkpt><trkpt lat="44.0866606" lon="7.9024472"><ele>748.2</ele><time>2026-05-03T08:23:35.124Z</time></trkpt><trkpt lat="44.0867216" lon="7.9023404"><ele>748.4</ele><time>2026-05-03T08:23:36.124Z</time></trkpt><trkpt lat="44.0867671" lon="7.90223"><ele>748.6</ele><time>2026-05-03T08:23:37.124Z</time></trkpt><trkpt lat="44.0868089" lon="7.9021215"><ele>748.8000000000001</ele><time>2026-05-03T08:23:38.124Z</time></trkpt><trkpt lat="44.0868201" lon="7.9019935"><ele>749.0</ele><time>2026-05-03T08:23:39.124Z</time></trkpt><trkpt lat="44.0868061" lon="7.90185"><ele>752.8000000000001</ele><time>2026-05-03T08:23:40.125Z</time></trkpt><trkpt lat="44.0867901" lon="7.901715"><ele>756.6</ele><time>2026-05-03T08:23:41.124Z</time></trkpt><trkpt lat="44.0867739" lon="7.9015754"><ele>760.4</ele><time>2026-05-03T08:23:42.124Z</time></trkpt><trkpt lat="44.0867658" lon="7.9014255"><ele>764.2</ele><time>2026-05-03T08:23:43.124Z</time></trkpt><trkpt lat="44.0867683" lon="7.9012961"><ele>768.0</ele><time>2026-05-03T08:23:44.125Z</time></trkpt><trkpt lat="44.0867851" lon="7.9011859"><ele>768.0</ele><time>2026-05-03T08:23:45.124Z</time></trkpt><trkpt lat="44.0868038" lon="7.9010934"><ele>768.0</ele><time>2026-05-03T08:23:46.124Z</time></trkpt><trkpt lat="44.0869055" lon="7.9010235"><ele>768.0</ele><time>2026-05-03T08:23:48.125Z</time></trkpt><trkpt lat="44.0869675" lon="7.9009759"><ele>768.0</ele><time>2026-05-03T08:23:49.124Z</time></trkpt><trkpt lat="44.0870181" lon="7.9009045"><ele>768.0</ele><time>2026-05-03T08:23:50.124Z</time></trkpt><trkpt lat="44.0870367" lon="7.9008194"><ele>768.0</ele><time>2026-05-03T08:23:51.124Z</time></trkpt><trkpt lat="44.0870097" lon="7.9007351"><ele>770.6666666666666</ele><time>2026-05-03T08:23:52.124Z</time></trkpt><trkpt lat="44.0869561" lon="7.9006491"><ele>773.3333333333333</ele><time>2026-05-03T08:23:53.124Z</time></trkpt><trkpt lat="44.086903" lon="7.9005463"><ele>776.0</ele><time>2026-05-03T08:23:54.124Z</time></trkpt><trkpt lat="44.0868626" lon="7.9004351"><ele>778.6666666666666</ele><time>2026-05-03T08:23:55.124Z</time></trkpt><trkpt lat="44.0868287" lon="7.9003248"><ele>781.3333333333333</ele><time>2026-05-03T08:23:56.124Z</time></trkpt><trkpt lat="44.0867923" lon="7.9002337"><ele>784.0</ele><time>2026-05-03T08:23:57.124Z</time></trkpt><trkpt lat="44.0867685" lon="7.9000703"><ele>785.4999999999999</ele><time>2026-05-03T08:23:59.124Z</time></trkpt><trkpt lat="44.0867848" lon="7.8999762"><ele>787.0</ele><time>2026-05-03T08:24:00.124Z</time></trkpt><trkpt lat="44.0868066" lon="7.899874"><ele>788.5</ele><time>2026-05-03T08:24:01.125Z</time></trkpt><trkpt lat="44.0868755" lon="7.8997957"><ele>790.0</ele><time>2026-05-03T08:24:02.125Z</time></trkpt><trkpt lat="44.0869769" lon="7.8997456"><ele>791.4999999999999</ele><time>2026-05-03T08:24:03.125Z</time></trkpt><trkpt lat="44.0870717" lon="7.8996978"><ele>793.0</ele><time>2026-05-03T08:24:04.125Z</time></trkpt><trkpt lat="44.0871551" lon="7.8996237"><ele>793.0</ele><time>2026-05-03T08:24:05.124Z</time></trkpt><trkpt lat="44.087227" lon="7.8995465"><ele>793.0</ele><time>2026-05-03T08:24:06.124Z</time></trkpt><trkpt lat="44.0872695" lon="7.8994282"><ele>793.0</ele><time>2026-05-03T08:24:07.124Z</time></trkpt><trkpt lat="44.0873018" lon="7.8992948"><ele>793.0</ele><time>2026-05-03T08:24:08.124Z</time></trkpt><trkpt lat="44.0873412" lon="7.8991846"><ele>793.0</ele><time>2026-05-03T08:24:09.124Z</time></trkpt><trkpt lat="44.0873912" lon="7.8991033"><ele>789.4999999999999</ele><time>2026-05-03T08:24:10.124Z</time></trkpt><trkpt lat="44.087443" lon="7.8990404"><ele>786.0</ele><time>2026-05-03T08:24:11.124Z</time></trkpt><trkpt lat="44.087496" lon="7.8989824"><ele>782.5</ele><time>2026-05-03T08:24:12.124Z</time></trkpt><trkpt lat="44.0875311" lon="7.8989075"><ele>779.0</ele><time>2026-05-03T08:24:13.125Z</time></trkpt><trkpt lat="44.0875407" lon="7.8988095"><ele>775.4999999999999</ele><time>2026-05-03T08:24:14.125Z</time></trkpt><trkpt lat="44.0875313" lon="7.8986941"><ele>772.0</ele><time>2026-05-03T08:24:15.124Z</time></trkpt><trkpt lat="44.0875181" lon="7.898563"><ele>771.9999999999999</ele><time>2026-05-03T08:24:16.124Z</time></trkpt><trkpt lat="44.0875053" lon="7.8984336"><ele>772.0</ele><time>2026-05-03T08:24:17.124Z</time></trkpt><trkpt lat="44.0875195" lon="7.8983295"><ele>772.0</ele><time>2026-05-03T08:24:18.124Z</time></trkpt><trkpt lat="44.0875395" lon="7.8982313"><ele>772.0</ele><time>2026-05-03T08:24:19.124Z</time></trkpt><trkpt lat="44.0875901" lon="7.8981507"><ele>771.9999999999999</ele><time>2026-05-03T08:24:20.124Z</time></trkpt><trkpt lat="44.0876576" lon="7.898097"><ele>772.0</ele><time>2026-05-03T08:24:21.124Z</time></trkpt><trkpt lat="44.0877294" lon="7.8980458"><ele>776.0</ele><time>2026-05-03T08:24:22.124Z</time></trkpt><trkpt lat="44.0877875" lon="7.8979939"><ele>780.0</ele><time>2026-05-03T08:24:23.125Z</time></trkpt><trkpt lat="44.08785" lon="7.8978409"><ele>784.0</ele><time>2026-05-03T08:24:25.124Z</time></trkpt><trkpt lat="44.0878547" lon="7.8977132"><ele>788.0</ele><time>2026-05-03T08:24:26.124Z</time></trkpt><trkpt lat="44.0878437" lon="7.8975746"><ele>792.0</ele><time>2026-05-03T08:24:27.124Z</time></trkpt><trkpt lat="44.0878146" lon="7.8974485"><ele>796.2</ele><time>2026-05-03T08:24:28.124Z</time></trkpt><trkpt lat="44.08778" lon="7.8973359"><ele>800.4000000000001</ele><time>2026-05-03T08:24:29.124Z</time></trkpt><trkpt lat="44.0877591" lon="7.8972493"><ele>804.5999999999999</ele><time>2026-05-03T08:24:30.125Z</time></trkpt><trkpt lat="44.0877518" lon="7.8971085"><ele>808.8</ele><time>2026-05-03T08:24:32.124Z</time></trkpt><trkpt lat="44.0878092" lon="7.8969353"><ele>813.0</ele><time>2026-05-03T08:24:34.125Z</time></trkpt><trkpt lat="44.0878449" lon="7.8968291"><ele>817.1666666666666</ele><time>2026-05-03T08:24:35.125Z</time></trkpt><trkpt lat="44.0878877" lon="7.8967436"><ele>821.3333333333333</ele><time>2026-05-03T08:24:36.124Z</time></trkpt><trkpt lat="44.0879497" lon="7.8967026"><ele>825.5</ele><time>2026-05-03T08:24:37.125Z</time></trkpt><trkpt lat="44.0880106" lon="7.8966785"><ele>829.6666666666666</ele><time>2026-05-03T08:24:38.125Z</time></trkpt><trkpt lat="44.0880875" lon="7.8966733"><ele>833.8333333333333</ele><time>2026-05-03T08:24:39.125Z</time></trkpt><trkpt lat="44.0881685" lon="7.8966571"><ele>838.0</ele><time>2026-05-03T08:24:40.124Z</time></trkpt><trkpt lat="44.088248" lon="7.8966041"><ele>827.8</ele><time>2026-05-03T08:24:41.124Z</time></trkpt><trkpt lat="44.088315" lon="7.896519"><ele>817.5999999999999</ele><time>2026-05-03T08:24:42.124Z</time></trkpt><trkpt lat="44.0883851" lon="7.8964251"><ele>807.4000000000001</ele><time>2026-05-03T08:24:43.124Z</time></trkpt><trkpt lat="44.0884654" lon="7.8963164"><ele>797.2</ele><time>2026-05-03T08:24:44.124Z</time></trkpt><trkpt lat="44.0885335" lon="7.8962038"><ele>787.0</ele><time>2026-05-03T08:24:45.124Z</time></trkpt><trkpt lat="44.088578" lon="7.8960947"><ele>786.9999999999999</ele><time>2026-05-03T08:24:46.125Z</time></trkpt><trkpt lat="44.0886037" lon="7.8959827"><ele>787.0</ele><time>2026-05-03T08:24:47.125Z</time></trkpt><trkpt lat="44.0886106" lon="7.8958648"><ele>787.0</ele><time>2026-05-03T08:24:48.124Z</time></trkpt><trkpt lat="44.088589" lon="7.8957486"><ele>787.0</ele><time>2026-05-03T08:24:49.125Z</time></trkpt><trkpt lat="44.0885699" lon="7.8956405"><ele>786.9999999999999</ele><time>2026-05-03T08:24:50.124Z</time></trkpt><trkpt lat="44.0885531" lon="7.895547"><ele>787.0</ele><time>2026-05-03T08:24:51.124Z</time></trkpt><trkpt lat="44.088555" lon="7.8954512"><ele>791.9999999999999</ele><time>2026-05-03T08:24:52.124Z</time></trkpt><trkpt lat="44.0885817" lon="7.8953513"><ele>797.0</ele><time>2026-05-03T08:24:53.125Z</time></trkpt><trkpt lat="44.0886405" lon="7.8952638"><ele>802.0</ele><time>2026-05-03T08:24:54.124Z</time></trkpt><trkpt lat="44.0887202" lon="7.8952005"><ele>807.0</ele><time>2026-05-03T08:24:55.125Z</time></trkpt><trkpt lat="44.0888046" lon="7.8951566"><ele>811.9999999999999</ele><time>2026-05-03T08:24:56.124Z</time></trkpt><trkpt lat="44.0888899" lon="7.8951068"><ele>817.0</ele><time>2026-05-03T08:24:57.125Z</time></trkpt><trkpt lat="44.0889732" lon="7.8950378"><ele>813.0</ele><time>2026-05-03T08:24:58.125Z</time></trkpt><trkpt lat="44.0890522" lon="7.8949416"><ele>809.0</ele><time>2026-05-03T08:24:59.125Z</time></trkpt><trkpt lat="44.08912" lon="7.8948377"><ele>805.0</ele><time>2026-05-03T08:25:00.124Z</time></trkpt><trkpt lat="44.0891712" lon="7.8947221"><ele>801.0</ele><time>2026-05-03T08:25:01.124Z</time></trkpt><trkpt lat="44.0892116" lon="7.894596"><ele>797.0</ele><time>2026-05-03T08:25:02.125Z</time></trkpt><trkpt lat="44.0892287" lon="7.894459"><ele>797.0000000000001</ele><time>2026-05-03T08:25:03.124Z</time></trkpt><trkpt lat="44.0892513" lon="7.8943347"><ele>797.0</ele><time>2026-05-03T08:25:04.124Z</time></trkpt><trkpt lat="44.089289" lon="7.8942251"><ele>797.0</ele><time>2026-05-03T08:25:05.124Z</time></trkpt><trkpt lat="44.0893382" lon="7.894129"><ele>797.0</ele><time>2026-05-03T08:25:06.124Z</time></trkpt><trkpt lat="44.0893997" lon="7.8940396"><ele>797.0000000000001</ele><time>2026-05-03T08:25:07.124Z</time></trkpt><trkpt lat="44.0894604" lon="7.8939432"><ele>797.0</ele><time>2026-05-03T08:25:08.124Z</time></trkpt><trkpt lat="44.0895127" lon="7.8938267"><ele>804.8</ele><time>2026-05-03T08:25:09.124Z</time></trkpt><trkpt lat="44.0895659" lon="7.8937048"><ele>812.6</ele><time>2026-05-03T08:25:10.125Z</time></trkpt><trkpt lat="44.0896093" lon="7.8935803"><ele>820.4</ele><time>2026-05-03T08:25:11.125Z</time></trkpt><trkpt lat="44.0896461" lon="7.8934595"><ele>828.1999999999999</ele><time>2026-05-03T08:25:12.125Z</time></trkpt><trkpt lat="44.0896601" lon="7.893348"><ele>836.0</ele><time>2026-05-03T08:25:13.125Z</time></trkpt><trkpt lat="44.0896475" lon="7.8932444"><ele>842.0</ele><time>2026-05-03T08:25:14.124Z</time></trkpt><trkpt lat="44.0896115" lon="7.8931392"><ele>848.0</ele><time>2026-05-03T08:25:15.124Z</time></trkpt><trkpt lat="44.0895683" lon="7.8930377"><ele>853.9999999999999</ele><time>2026-05-03T08:25:16.124Z</time></trkpt><trkpt lat="44.089533" lon="7.8929607"><ele>860.0</ele><time>2026-05-03T08:25:17.124Z</time></trkpt><trkpt lat="44.0895618" lon="7.8928184"><ele>866.0</ele><time>2026-05-03T08:25:19.124Z</time></trkpt><trkpt lat="44.0896715" lon="7.8927192"><ele>866.0</ele><time>2026-05-03T08:25:21.125Z</time></trkpt><trkpt lat="44.0897552" lon="7.892709"><ele>865.9999999999999</ele><time>2026-05-03T08:25:22.124Z</time></trkpt><trkpt lat="44.0898492" lon="7.8926981"><ele>865.9999999999999</ele><time>2026-05-03T08:25:23.124Z</time></trkpt><trkpt lat="44.0899524" lon="7.8926583"><ele>866.0</ele><time>2026-05-03T08:25:24.124Z</time></trkpt><trkpt lat="44.0900468" lon="7.8925968"><ele>866.0</ele><time>2026-05-03T08:25:25.125Z</time></trkpt><trkpt lat="44.0901257" lon="7.8925267"><ele>861.1999999999999</ele><time>2026-05-03T08:25:26.124Z</time></trkpt><trkpt lat="44.0901909" lon="7.892467"><ele>856.3999999999999</ele><time>2026-05-03T08:25:27.125Z</time></trkpt><trkpt lat="44.0903224" lon="7.8924618"><ele>851.6</ele><time>2026-05-03T08:25:29.124Z</time></trkpt><trkpt lat="44.0903928" lon="7.8925324"><ele>846.8</ele><time>2026-05-03T08:25:30.124Z</time></trkpt><trkpt lat="44.0904386" lon="7.8926317"><ele>842.0</ele><time>2026-05-03T08:25:31.124Z</time></trkpt><trkpt lat="44.0904817" lon="7.8927332"><ele>836.0</ele><time>2026-05-03T08:25:32.125Z</time></trkpt><trkpt lat="44.0905161" lon="7.8928532"><ele>830.0</ele><time>2026-05-03T08:25:33.124Z</time></trkpt><trkpt lat="44.0905413" lon="7.8929906"><ele>824.0</ele><time>2026-05-03T08:25:34.124Z</time></trkpt><trkpt lat="44.0905784" lon="7.8931177"><ele>818.0</ele><time>2026-05-03T08:25:35.124Z</time></trkpt><trkpt lat="44.0906227" lon="7.8932347"><ele>812.0</ele><time>2026-05-03T08:25:36.124Z</time></trkpt><trkpt lat="44.0906999" lon="7.8933458"><ele>812.0</ele><time>2026-05-03T08:25:37.125Z</time></trkpt><trkpt lat="44.0907758" lon="7.8934434"><ele>812.0</ele><time>2026-05-03T08:25:38.125Z</time></trkpt><trkpt lat="44.0908324" lon="7.8935524"><ele>812.0</ele><time>2026-05-03T08:25:39.124Z</time></trkpt><trkpt lat="44.0908723" lon="7.8936794"><ele>812.0</ele><time>2026-05-03T08:25:40.124Z</time></trkpt><trkpt lat="44.0909003" lon="7.8938144"><ele>812.0</ele><time>2026-05-03T08:25:41.124Z</time></trkpt><trkpt lat="44.0909275" lon="7.8939341"><ele>812.0</ele><time>2026-05-03T08:25:42.124Z</time></trkpt><trkpt lat="44.0909741" lon="7.894041"><ele>812.0</ele><time>2026-05-03T08:25:43.124Z</time></trkpt><trkpt lat="44.0910283" lon="7.8941407"><ele>812.0</ele><time>2026-05-03T08:25:44.124Z</time></trkpt><trkpt lat="44.0911122" lon="7.8941836"><ele>812.0</ele><time>2026-05-03T08:25:45.125Z</time></trkpt><trkpt lat="44.0912102" lon="7.8941834"><ele>812.0</ele><time>2026-05-03T08:25:46.124Z</time></trkpt><trkpt lat="44.0912961" lon="7.8941722"><ele>812.0</ele><time>2026-05-03T08:25:47.124Z</time></trkpt><trkpt lat="44.0914014" lon="7.8940875"><ele>812.0</ele><time>2026-05-03T08:25:48.124Z</time></trkpt><trkpt lat="44.0914965" lon="7.8940073"><ele>812.0</ele><time>2026-05-03T08:25:49.124Z</time></trkpt><trkpt lat="44.0915671" lon="7.8939779"><ele>812.0</ele><time>2026-05-03T08:25:50.124Z</time></trkpt><trkpt lat="44.0916655" lon="7.8940355"><ele>812.0</ele><time>2026-05-03T08:25:52.125Z</time></trkpt><trkpt lat="44.0917117" lon="7.8941161"><ele>814.2</ele><time>2026-05-03T08:25:53.124Z</time></trkpt><trkpt lat="44.0917527" lon="7.8942178"><ele>816.4000000000001</ele><time>2026-05-03T08:25:54.124Z</time></trkpt><trkpt lat="44.0917961" lon="7.8943346"><ele>818.5999999999999</ele><time>2026-05-03T08:25:55.125Z</time></trkpt><trkpt lat="44.0918465" lon="7.8944563"><ele>820.8</ele><time>2026-05-03T08:25:56.124Z</time></trkpt><trkpt lat="44.0919055" lon="7.8945579"><ele>823.0</ele><time>2026-05-03T08:25:57.124Z</time></trkpt><trkpt lat="44.0919623" lon="7.8946495"><ele>823.0</ele><time>2026-05-03T08:25:58.124Z</time></trkpt><trkpt lat="44.0920324" lon="7.8947397"><ele>823.0</ele><time>2026-05-03T08:25:59.124Z</time></trkpt><trkpt lat="44.0921304" lon="7.8948085"><ele>823.0</ele><time>2026-05-03T08:26:00.124Z</time></trkpt><trkpt lat="44.0922309" lon="7.8948669"><ele>823.0</ele><time>2026-05-03T08:26:01.124Z</time></trkpt><trkpt lat="44.0923103" lon="7.8949053"><ele>823.0</ele><time>2026-05-03T08:26:02.124Z</time></trkpt><trkpt lat="44.092359" lon="7.8949992"><ele>823.4</ele><time>2026-05-03T08:26:03.124Z</time></trkpt><trkpt lat="44.0924057" lon="7.8951136"><ele>823.8</ele><time>2026-05-03T08:26:04.124Z</time></trkpt><trkpt lat="44.0924522" lon="7.8952227"><ele>824.2</ele><time>2026-05-03T08:26:05.124Z</time></trkpt><trkpt lat="44.0925019" lon="7.895336"><ele>824.6</ele><time>2026-05-03T08:26:06.124Z</time></trkpt><trkpt lat="44.0925742" lon="7.8954405"><ele>825.0</ele><time>2026-05-03T08:26:07.124Z</time></trkpt><trkpt lat="44.0926678" lon="7.8955357"><ele>825.0</ele><time>2026-05-03T08:26:08.124Z</time></trkpt><trkpt lat="44.0927757" lon="7.8956095"><ele>825.0</ele><time>2026-05-03T08:26:09.124Z</time></trkpt><trkpt lat="44.0928831" lon="7.8956549"><ele>825.0</ele><time>2026-05-03T08:26:10.124Z</time></trkpt><trkpt lat="44.0929854" lon="7.8956699"><ele>825.0</ele><time>2026-05-03T08:26:11.124Z</time></trkpt><trkpt lat="44.0930905" lon="7.8956407"><ele>825.0</ele><time>2026-05-03T08:26:12.124Z</time></trkpt><trkpt lat="44.0931837" lon="7.8956195"><ele>828.6</ele><time>2026-05-03T08:26:13.125Z</time></trkpt><trkpt lat="44.0932736" lon="7.895589"><ele>832.2</ele><time>2026-05-03T08:26:14.124Z</time></trkpt><trkpt lat="44.0933626" lon="7.895522"><ele>835.8</ele><time>2026-05-03T08:26:15.124Z</time></trkpt><trkpt lat="44.0934492" lon="7.8954297"><ele>839.4</ele><time>2026-05-03T08:26:16.125Z</time></trkpt><trkpt lat="44.0935024" lon="7.8953344"><ele>843.0</ele><time>2026-05-03T08:26:17.124Z</time></trkpt><trkpt lat="44.0935091" lon="7.8952411"><ele>843.0</ele><time>2026-05-03T08:26:18.124Z</time></trkpt><trkpt lat="44.0934704" lon="7.895145"><ele>843.0</ele><time>2026-05-03T08:26:19.124Z</time></trkpt><trkpt lat="44.0934025" lon="7.8950604"><ele>843.0</ele><time>2026-05-03T08:26:20.124Z</time></trkpt><trkpt lat="44.0933151" lon="7.8950062"><ele>843.0</ele><time>2026-05-03T08:26:21.125Z</time></trkpt><trkpt lat="44.0932284" lon="7.8949597"><ele>843.0</ele><time>2026-05-03T08:26:22.125Z</time></trkpt><trkpt lat="44.0931583" lon="7.8948893"><ele>843.0</ele><time>2026-05-03T08:26:23.124Z</time></trkpt><trkpt lat="44.0931144" lon="7.894779"><ele>843.5999999999999</ele><time>2026-05-03T08:26:24.124Z</time></trkpt><trkpt lat="44.0930885" lon="7.8946585"><ele>844.1999999999999</ele><time>2026-05-03T08:26:25.124Z</time></trkpt><trkpt lat="44.0931006" lon="7.8945119"><ele>844.8</ele><time>2026-05-03T08:26:26.125Z</time></trkpt><trkpt lat="44.0931243" lon="7.894362"><ele>845.4</ele><time>2026-05-03T08:26:27.124Z</time></trkpt><trkpt lat="44.09315" lon="7.8941956"><ele>846.0</ele><time>2026-05-03T08:26:28.124Z</time></trkpt><trkpt lat="44.0931615" lon="7.8940229"><ele>849.5</ele><time>2026-05-03T08:26:29.124Z</time></trkpt><trkpt lat="44.0931657" lon="7.8938517"><ele>853.0</ele><time>2026-05-03T08:26:30.124Z</time></trkpt><trkpt lat="44.0931678" lon="7.8936867"><ele>856.5</ele><time>2026-05-03T08:26:31.125Z</time></trkpt><trkpt lat="44.0931996" lon="7.8935375"><ele>860.0</ele><time>2026-05-03T08:26:32.124Z</time></trkpt><trkpt lat="44.0932194" lon="7.89339"><ele>862.0</ele><time>2026-05-03T08:26:33.125Z</time></trkpt><trkpt lat="44.0932128" lon="7.8932521"><ele>864.0</ele><time>2026-05-03T08:26:34.124Z</time></trkpt><trkpt lat="44.0931701" lon="7.8931346"><ele>866.0</ele><time>2026-05-03T08:26:35.124Z</time></trkpt><trkpt lat="44.0931055" lon="7.8930334"><ele>868.0</ele><time>2026-05-03T08:26:36.124Z</time></trkpt><trkpt lat="44.0930476" lon="7.89293"><ele>870.0</ele><time>2026-05-03T08:26:37.124Z</time></trkpt><trkpt lat="44.0930304" lon="7.8928061"><ele>870.0</ele><time>2026-05-03T08:26:38.124Z</time></trkpt><trkpt lat="44.0930441" lon="7.8926634"><ele>870.0</ele><time>2026-05-03T08:26:39.124Z</time></trkpt><trkpt lat="44.0930762" lon="7.8925218"><ele>870.0</ele><time>2026-05-03T08:26:40.124Z</time></trkpt><trkpt lat="44.093113" lon="7.8923944"><ele>870.0</ele><time>2026-05-03T08:26:41.124Z</time></trkpt><trkpt lat="44.0931871" lon="7.8922926"><ele>870.0</ele><time>2026-05-03T08:26:42.124Z</time></trkpt><trkpt lat="44.0932828" lon="7.8922187"><ele>873.2</ele><time>2026-05-03T08:26:43.124Z</time></trkpt><trkpt lat="44.0933639" lon="7.8921514"><ele>876.4</ele><time>2026-05-03T08:26:44.124Z</time></trkpt><trkpt lat="44.0934216" lon="7.8920623"><ele>879.5999999999999</ele><time>2026-05-03T08:26:45.124Z</time></trkpt><trkpt lat="44.0934648" lon="7.8919506"><ele>882.8</ele><time>2026-05-03T08:26:46.125Z</time></trkpt><trkpt lat="44.0934995" lon="7.8918277"><ele>886.0</ele><time>2026-05-03T08:26:47.124Z</time></trkpt><trkpt lat="44.0935399" lon="7.89167"><ele>887.4</ele><time>2026-05-03T08:26:48.124Z</time></trkpt><trkpt lat="44.0935884" lon="7.8915138"><ele>888.8</ele><time>2026-05-03T08:26:49.124Z</time></trkpt><trkpt lat="44.0936376" lon="7.8913945"><ele>890.1999999999999</ele><time>2026-05-03T08:26:50.124Z</time></trkpt><trkpt lat="44.0936855" lon="7.8913106"><ele>891.5999999999999</ele><time>2026-05-03T08:26:51.124Z</time></trkpt><trkpt lat="44.0937202" lon="7.8912371"><ele>893.0</ele><time>2026-05-03T08:26:52.124Z</time></trkpt><trkpt lat="44.0937296" lon="7.8911119"><ele>893.0</ele><time>2026-05-03T08:26:54.124Z</time></trkpt><trkpt lat="44.0936611" lon="7.8910269"><ele>893.0</ele><time>2026-05-03T08:26:56.124Z</time></trkpt><trkpt lat="44.0935704" lon="7.8910434"><ele>893.0</ele><time>2026-05-03T08:26:57.124Z</time></trkpt><trkpt lat="44.0934728" lon="7.8910826"><ele>893.0</ele><time>2026-05-03T08:26:58.124Z</time></trkpt><trkpt lat="44.0933715" lon="7.8911225"><ele>893.0</ele><time>2026-05-03T08:26:59.125Z</time></trkpt><trkpt lat="44.0932514" lon="7.8911937"><ele>892.0</ele><time>2026-05-03T08:27:00.125Z</time></trkpt><trkpt lat="44.0931388" lon="7.8912659"><ele>891.0</ele><time>2026-05-03T08:27:01.124Z</time></trkpt><trkpt lat="44.0930276" lon="7.891323"><ele>890.0</ele><time>2026-05-03T08:27:02.124Z</time></trkpt><trkpt lat="44.0929215" lon="7.8913735"><ele>889.0</ele><time>2026-05-03T08:27:03.124Z</time></trkpt><trkpt lat="44.0928487" lon="7.8913427"><ele>888.0</ele><time>2026-05-03T08:27:04.124Z</time></trkpt><trkpt lat="44.0927874" lon="7.8912959"><ele>888.0</ele><time>2026-05-03T08:27:05.124Z</time></trkpt><trkpt lat="44.0927589" lon="7.8912016"><ele>888.0</ele><time>2026-05-03T08:27:06.124Z</time></trkpt><trkpt lat="44.0927419" lon="7.891096"><ele>888.0</ele><time>2026-05-03T08:27:07.124Z</time></trkpt><trkpt lat="44.0927486" lon="7.8909566"><ele>888.0</ele><time>2026-05-03T08:27:08.124Z</time></trkpt><trkpt lat="44.0928173" lon="7.8907832"><ele>888.0</ele><time>2026-05-03T08:27:09.124Z</time></trkpt><trkpt lat="44.0928847" lon="7.8906169"><ele>890.6666666666667</ele><time>2026-05-03T08:27:10.125Z</time></trkpt><trkpt lat="44.092982" lon="7.8903992"><ele>893.3333333333334</ele><time>2026-05-03T08:27:11.124Z</time></trkpt><trkpt lat="44.093054" lon="7.8902076"><ele>896.0</ele><time>2026-05-03T08:27:12.124Z</time></trkpt><trkpt lat="44.0931151" lon="7.890044"><ele>898.3333333333334</ele><time>2026-05-03T08:27:13.125Z</time></trkpt><trkpt lat="44.0931802" lon="7.8899059"><ele>900.6666666666667</ele><time>2026-05-03T08:27:14.124Z</time></trkpt><trkpt lat="44.0932197" lon="7.889803"><ele>903.0</ele><time>2026-05-03T08:27:15.124Z</time></trkpt><trkpt lat="44.0932289" lon="7.8897046"><ele>905.3333333333333</ele><time>2026-05-03T08:27:16.124Z</time></trkpt><trkpt lat="44.0932339" lon="7.8896022"><ele>907.6666666666666</ele><time>2026-05-03T08:27:17.125Z</time></trkpt><trkpt lat="44.0932336" lon="7.8894959"><ele>910.0</ele><time>2026-05-03T08:27:18.124Z</time></trkpt><trkpt lat="44.0932136" lon="7.8894009"><ele>910.0</ele><time>2026-05-03T08:27:19.124Z</time></trkpt><trkpt lat="44.0930941" lon="7.8894043"><ele>910.0</ele><time>2026-05-03T08:27:20.124Z</time></trkpt><trkpt lat="44.0929766" lon="7.889429"><ele>910.0</ele><time>2026-05-03T08:27:21.124Z</time></trkpt><trkpt lat="44.0928455" lon="7.8894848"><ele>910.0</ele><time>2026-05-03T08:27:22.124Z</time></trkpt><trkpt lat="44.0927231" lon="7.8895428"><ele>910.0</ele><time>2026-05-03T08:27:23.124Z</time></trkpt><trkpt lat="44.0926011" lon="7.8896443"><ele>910.0</ele><time>2026-05-03T08:27:24.124Z</time></trkpt><trkpt lat="44.0924855" lon="7.8897499"><ele>910.0</ele><time>2026-05-03T08:27:25.124Z</time></trkpt><trkpt lat="44.0923691" lon="7.8898696"><ele>910.0</ele><time>2026-05-03T08:27:26.124Z</time></trkpt><trkpt lat="44.0922667" lon="7.8899794"><ele>910.3333333333333</ele><time>2026-05-03T08:27:27.125Z</time></trkpt><trkpt lat="44.0921741" lon="7.8900527"><ele>910.6666666666666</ele><time>2026-05-03T08:27:28.124Z</time></trkpt><trkpt lat="44.0920944" lon="7.8900847"><ele>911.0</ele><time>2026-05-03T08:27:29.124Z</time></trkpt><trkpt lat="44.0920123" lon="7.8900908"><ele>911.3333333333333</ele><time>2026-05-03T08:27:30.124Z</time></trkpt><trkpt lat="44.0919532" lon="7.890049"><ele>911.6666666666666</ele><time>2026-05-03T08:27:31.124Z</time></trkpt><trkpt lat="44.0919391" lon="7.8898985"><ele>912.0</ele><time>2026-05-03T08:27:33.124Z</time></trkpt><trkpt lat="44.0920618" lon="7.8897904"><ele>912.0</ele><time>2026-05-03T08:27:35.124Z</time></trkpt><trkpt lat="44.0921358" lon="7.8897201"><ele>912.0</ele><time>2026-05-03T08:27:36.124Z</time></trkpt><trkpt lat="44.0922046" lon="7.8896284"><ele>912.0</ele><time>2026-05-03T08:27:37.125Z</time></trkpt><trkpt lat="44.0922678" lon="7.8895103"><ele>912.0</ele><time>2026-05-03T08:27:38.124Z</time></trkpt><trkpt lat="44.0923179" lon="7.8893816"><ele>912.0</ele><time>2026-05-03T08:27:39.124Z</time></trkpt><trkpt lat="44.0923713" lon="7.8892566"><ele>916.8</ele><time>2026-05-03T08:27:40.124Z</time></trkpt><trkpt lat="44.0924242" lon="7.8891327"><ele>921.6</ele><time>2026-05-03T08:27:41.124Z</time></trkpt><trkpt lat="44.0924895" lon="7.8890383"><ele>926.3999999999999</ele><time>2026-05-03T08:27:42.125Z</time></trkpt><trkpt lat="44.0925676" lon="7.888957"><ele>931.1999999999999</ele><time>2026-05-03T08:27:43.124Z</time></trkpt><trkpt lat="44.0926413" lon="7.8888743"><ele>936.0</ele><time>2026-05-03T08:27:44.124Z</time></trkpt><trkpt lat="44.0927177" lon="7.888784"><ele>936.0</ele><time>2026-05-03T08:27:45.124Z</time></trkpt><trkpt lat="44.0927987" lon="7.8886864"><ele>935.9999999999999</ele><time>2026-05-03T08:27:46.124Z</time></trkpt><trkpt lat="44.0928723" lon="7.8885795"><ele>935.9999999999999</ele><time>2026-05-03T08:27:47.124Z</time></trkpt><trkpt lat="44.0929493" lon="7.8884925"><ele>936.0</ele><time>2026-05-03T08:27:48.124Z</time></trkpt><trkpt lat="44.093031" lon="7.8884105"><ele>936.0</ele><time>2026-05-03T08:27:49.124Z</time></trkpt><trkpt lat="44.093127" lon="7.8883303"><ele>939.0</ele><time>2026-05-03T08:27:50.124Z</time></trkpt><trkpt lat="44.0932285" lon="7.8882567"><ele>941.9999999999999</ele><time>2026-05-03T08:27:51.125Z</time></trkpt><trkpt lat="44.0933373" lon="7.888192"><ele>944.9999999999999</ele><time>2026-05-03T08:27:52.124Z</time></trkpt><trkpt lat="44.0934447" lon="7.8881254"><ele>948.0</ele><time>2026-05-03T08:27:53.124Z</time></trkpt><trkpt lat="44.0935306" lon="7.8880933"><ele>951.0</ele><time>2026-05-03T08:27:54.124Z</time></trkpt><trkpt lat="44.0936177" lon="7.8880947"><ele>951.0</ele><time>2026-05-03T08:27:55.124Z</time></trkpt><trkpt lat="44.0937065" lon="7.8881345"><ele>950.9999999999999</ele><time>2026-05-03T08:27:56.124Z</time></trkpt><trkpt lat="44.0937934" lon="7.888202"><ele>950.9999999999999</ele><time>2026-05-03T08:27:57.124Z</time></trkpt><trkpt lat="44.0938827" lon="7.8883021"><ele>951.0</ele><time>2026-05-03T08:27:58.124Z</time></trkpt><trkpt lat="44.0939646" lon="7.8884168"><ele>951.0</ele><time>2026-05-03T08:27:59.124Z</time></trkpt><trkpt lat="44.094045" lon="7.8885391"><ele>949.8</ele><time>2026-05-03T08:28:00.124Z</time></trkpt><trkpt lat="44.094118" lon="7.8886756"><ele>948.5999999999999</ele><time>2026-05-03T08:28:01.124Z</time></trkpt><trkpt lat="44.0941876" lon="7.8887941"><ele>947.4</ele><time>2026-05-03T08:28:02.124Z</time></trkpt><trkpt lat="44.0942525" lon="7.8888669"><ele>946.2</ele><time>2026-05-03T08:28:03.124Z</time></trkpt><trkpt lat="44.0943414" lon="7.8888756"><ele>945.0</ele><time>2026-05-03T08:28:04.125Z</time></trkpt><trkpt lat="44.0944387" lon="7.888873"><ele>945.0</ele><time>2026-05-03T08:28:05.124Z</time></trkpt><trkpt lat="44.0945253" lon="7.8888336"><ele>945.0</ele><time>2026-05-03T08:28:06.125Z</time></trkpt><trkpt lat="44.0946096" lon="7.8887754"><ele>945.0</ele><time>2026-05-03T08:28:07.124Z</time></trkpt><trkpt lat="44.0946747" lon="7.8886464"><ele>945.0</ele><time>2026-05-03T08:28:08.124Z</time></trkpt><trkpt lat="44.0947092" lon="7.8884797"><ele>945.0</ele><time>2026-05-03T08:28:09.124Z</time></trkpt><trkpt lat="44.0947283" lon="7.8883037"><ele>948.2</ele><time>2026-05-03T08:28:10.124Z</time></trkpt><trkpt lat="44.0947622" lon="7.8881453"><ele>951.4</ele><time>2026-05-03T08:28:11.125Z</time></trkpt><trkpt lat="44.0948197" lon="7.8879994"><ele>954.5999999999999</ele><time>2026-05-03T08:28:12.124Z</time></trkpt><trkpt lat="44.0948686" lon="7.8878628"><ele>957.8</ele><time>2026-05-03T08:28:13.124Z</time></trkpt><trkpt lat="44.094907" lon="7.8877365"><ele>961.0</ele><time>2026-05-03T08:28:14.124Z</time></trkpt><trkpt lat="44.0949532" lon="7.8876371"><ele>965.1666666666666</ele><time>2026-05-03T08:28:15.124Z</time></trkpt><trkpt lat="44.0950165" lon="7.887568"><ele>969.3333333333333</ele><time>2026-05-03T08:28:16.124Z</time></trkpt><trkpt lat="44.0950934" lon="7.8875218"><ele>973.5</ele><time>2026-05-03T08:28:17.125Z</time></trkpt><trkpt lat="44.0951704" lon="7.8874843"><ele>977.6666666666667</ele><time>2026-05-03T08:28:18.125Z</time></trkpt><trkpt lat="44.0952675" lon="7.8874891"><ele>981.8333333333334</ele><time>2026-05-03T08:28:19.124Z</time></trkpt><trkpt lat="44.0953685" lon="7.8875139"><ele>986.0</ele><time>2026-05-03T08:28:20.124Z</time></trkpt><trkpt lat="44.0954762" lon="7.8875399"><ele>986.0</ele><time>2026-05-03T08:28:21.124Z</time></trkpt><trkpt lat="44.0955809" lon="7.8875385"><ele>985.9999999999999</ele><time>2026-05-03T08:28:22.124Z</time></trkpt><trkpt lat="44.0956787" lon="7.8875128"><ele>985.9999999999999</ele><time>2026-05-03T08:28:23.125Z</time></trkpt><trkpt lat="44.0957703" lon="7.8874507"><ele>986.0</ele><time>2026-05-03T08:28:24.124Z</time></trkpt><trkpt lat="44.0958556" lon="7.8873555"><ele>986.0</ele><time>2026-05-03T08:28:25.124Z</time></trkpt><trkpt lat="44.0959354" lon="7.8872363"><ele>985.8</ele><time>2026-05-03T08:28:26.124Z</time></trkpt><trkpt lat="44.0960132" lon="7.8871105"><ele>985.5999999999999</ele><time>2026-05-03T08:28:27.124Z</time></trkpt><trkpt lat="44.0960881" lon="7.8869853"><ele>985.4</ele><time>2026-05-03T08:28:28.124Z</time></trkpt><trkpt lat="44.0961604" lon="7.8868663"><ele>985.2</ele><time>2026-05-03T08:28:29.124Z</time></trkpt><trkpt lat="44.0962238" lon="7.8867637"><ele>985.0</ele><time>2026-05-03T08:28:30.124Z</time></trkpt><trkpt lat="44.0962884" lon="7.8866705"><ele>986.3333333333333</ele><time>2026-05-03T08:28:31.124Z</time></trkpt><trkpt lat="44.0963609" lon="7.8866001"><ele>987.6666666666666</ele><time>2026-05-03T08:28:32.124Z</time></trkpt><trkpt lat="44.0964383" lon="7.886595"><ele>989.0</ele><time>2026-05-03T08:28:33.124Z</time></trkpt><trkpt lat="44.0965085" lon="7.8866439"><ele>990.3333333333333</ele><time>2026-05-03T08:28:34.124Z</time></trkpt><trkpt lat="44.0965693" lon="7.8867292"><ele>991.6666666666666</ele><time>2026-05-03T08:28:35.124Z</time></trkpt><trkpt lat="44.0966167" lon="7.8868165"><ele>993.0</ele><time>2026-05-03T08:28:36.124Z</time></trkpt><trkpt lat="44.0966494" lon="7.8869062"><ele>993.0</ele><time>2026-05-03T08:28:37.124Z</time></trkpt><trkpt lat="44.096663" lon="7.8869993"><ele>993.0</ele><time>2026-05-03T08:28:38.124Z</time></trkpt><trkpt lat="44.096687" lon="7.8870912"><ele>993.0</ele><time>2026-05-03T08:28:39.124Z</time></trkpt><trkpt lat="44.0967389" lon="7.8871857"><ele>993.0</ele><time>2026-05-03T08:28:40.124Z</time></trkpt><trkpt lat="44.0967989" lon="7.8872432"><ele>993.0</ele><time>2026-05-03T08:28:41.124Z</time></trkpt><trkpt lat="44.0968839" lon="7.8872708"><ele>993.0</ele><time>2026-05-03T08:28:42.124Z</time></trkpt><trkpt lat="44.0969859" lon="7.8872753"><ele>993.0</ele><time>2026-05-03T08:28:43.124Z</time></trkpt><trkpt lat="44.0970986" lon="7.8872411"><ele>993.0</ele><time>2026-05-03T08:28:44.124Z</time></trkpt><trkpt lat="44.0971986" lon="7.8871571"><ele>993.0</ele><time>2026-05-03T08:28:45.124Z</time></trkpt><trkpt lat="44.0972764" lon="7.8870452"><ele>993.0</ele><time>2026-05-03T08:28:46.124Z</time></trkpt><trkpt lat="44.097339" lon="7.8869121"><ele>993.0</ele><time>2026-05-03T08:28:47.124Z</time></trkpt><trkpt lat="44.09739" lon="7.8867901"><ele>993.0</ele><time>2026-05-03T08:28:48.124Z</time></trkpt><trkpt lat="44.0974516" lon="7.8867141"><ele>993.0</ele><time>2026-05-03T08:28:49.124Z</time></trkpt><trkpt lat="44.0975211" lon="7.8866936"><ele>993.0</ele><time>2026-05-03T08:28:50.124Z</time></trkpt><trkpt lat="44.0975932" lon="7.8867129"><ele>993.0</ele><time>2026-05-03T08:28:51.124Z</time></trkpt><trkpt lat="44.0976719" lon="7.8867756"><ele>993.0</ele><time>2026-05-03T08:28:52.124Z</time></trkpt><trkpt lat="44.0977506" lon="7.8868777"><ele>995.25</ele><time>2026-05-03T08:28:53.124Z</time></trkpt><trkpt lat="44.0978194" lon="7.8869985"><ele>997.5</ele><time>2026-05-03T08:28:54.124Z</time></trkpt><trkpt lat="44.0978945" lon="7.887117"><ele>999.75</ele><time>2026-05-03T08:28:55.124Z</time></trkpt><trkpt lat="44.0979869" lon="7.8872063"><ele>1002.0</ele><time>2026-05-03T08:28:56.124Z</time></trkpt><trkpt lat="44.098098" lon="7.8872868"><ele>1002.0</ele><time>2026-05-03T08:28:57.124Z</time></trkpt><trkpt lat="44.098216" lon="7.8873576"><ele>1002.0</ele><time>2026-05-03T08:28:58.124Z</time></trkpt><trkpt lat="44.0983317" lon="7.887437"><ele>1002.0</ele><time>2026-05-03T08:28:59.124Z</time></trkpt><trkpt lat="44.0984422" lon="7.8875254"><ele>1002.0</ele><time>2026-05-03T08:29:00.125Z</time></trkpt><trkpt lat="44.0985332" lon="7.8876344"><ele>1003.2</ele><time>2026-05-03T08:29:01.124Z</time></trkpt><trkpt lat="44.0986091" lon="7.8877515"><ele>1004.4000000000001</ele><time>2026-05-03T08:29:02.124Z</time></trkpt><trkpt lat="44.0986782" lon="7.8878485"><ele>1005.5999999999999</ele><time>2026-05-03T08:29:03.124Z</time></trkpt><trkpt lat="44.0987569" lon="7.8879099"><ele>1006.8</ele><time>2026-05-03T08:29:04.124Z</time></trkpt><trkpt lat="44.0988402" lon="7.88795"><ele>1008.0</ele><time>2026-05-03T08:29:05.124Z</time></trkpt><trkpt lat="44.0989277" lon="7.887968"><ele>1008.0</ele><time>2026-05-03T08:29:06.125Z</time></trkpt><trkpt lat="44.0990579" lon="7.8879548"><ele>1008.0</ele><time>2026-05-03T08:29:07.125Z</time></trkpt><trkpt lat="44.0991951" lon="7.8879155"><ele>1008.0</ele><time>2026-05-03T08:29:08.124Z</time></trkpt><trkpt lat="44.099336" lon="7.8878644"><ele>1008.0</ele><time>2026-05-03T08:29:09.124Z</time></trkpt><trkpt lat="44.0994671" lon="7.8877838"><ele>1010.0</ele><time>2026-05-03T08:29:10.124Z</time></trkpt><trkpt lat="44.0995815" lon="7.8877001"><ele>1012.0</ele><time>2026-05-03T08:29:11.125Z</time></trkpt><trkpt lat="44.0996957" lon="7.8876248"><ele>1014.0</ele><time>2026-05-03T08:29:12.125Z</time></trkpt><trkpt lat="44.0997983" lon="7.8875739"><ele>1016.0</ele><time>2026-05-03T08:29:13.125Z</time></trkpt><trkpt lat="44.0998932" lon="7.8875616"><ele>1018.8</ele><time>2026-05-03T08:29:14.124Z</time></trkpt><trkpt lat="44.0999856" lon="7.8875955"><ele>1021.5999999999999</ele><time>2026-05-03T08:29:15.124Z</time></trkpt><trkpt lat="44.1000668" lon="7.8876441"><ele>1024.4</ele><time>2026-05-03T08:29:16.124Z</time></trkpt><trkpt lat="44.1001389" lon="7.8877171"><ele>1027.2</ele><time>2026-05-03T08:29:17.124Z</time></trkpt><trkpt lat="44.1002022" lon="7.8878021"><ele>1030.0</ele><time>2026-05-03T08:29:18.124Z</time></trkpt><trkpt lat="44.1002314" lon="7.8879302"><ele>1030.0</ele><time>2026-05-03T08:29:19.124Z</time></trkpt><trkpt lat="44.1002321" lon="7.8880646"><ele>1030.0</ele><time>2026-05-03T08:29:20.124Z</time></trkpt><trkpt lat="44.1002374" lon="7.8881865"><ele>1030.0</ele><time>2026-05-03T08:29:21.124Z</time></trkpt><trkpt lat="44.1002374" lon="7.8883254"><ele>1030.0</ele><time>2026-05-03T08:29:22.125Z</time></trkpt><trkpt lat="44.1002408" lon="7.8884592"><ele>1030.0</ele><time>2026-05-03T08:29:23.125Z</time></trkpt><trkpt lat="44.1002525" lon="7.8885913"><ele>1029.1666666666665</ele><time>2026-05-03T08:29:24.125Z</time></trkpt><trkpt lat="44.100268" lon="7.8887065"><ele>1028.3333333333333</ele><time>2026-05-03T08:29:25.125Z</time></trkpt><trkpt lat="44.1003028" lon="7.888797"><ele>1027.5</ele><time>2026-05-03T08:29:26.124Z</time></trkpt><trkpt lat="44.1003392" lon="7.8888771"><ele>1026.6666666666667</ele><time>2026-05-03T08:29:27.126Z</time></trkpt><trkpt lat="44.1004311" lon="7.8889138"><ele>1025.8333333333335</ele><time>2026-05-03T08:29:29.124Z</time></trkpt><trkpt lat="44.100498" lon="7.8888808"><ele>1025.0</ele><time>2026-05-03T08:29:30.124Z</time></trkpt><trkpt lat="44.1005451" lon="7.8888189"><ele>1025.0</ele><time>2026-05-03T08:29:31.124Z</time></trkpt><trkpt lat="44.100591" lon="7.8886939"><ele>1025.0</ele><time>2026-05-03T08:29:33.124Z</time></trkpt><trkpt lat="44.100611" lon="7.8886096"><ele>1025.0</ele><time>2026-05-03T08:29:39.124Z</time></trkpt><trkpt lat="44.1006425" lon="7.8886885"><ele>1025.0</ele><time>2026-05-03T08:30:21.124Z</time></trkpt><trkpt lat="44.1007243" lon="7.8887643"><ele>1025.0</ele><time>2026-05-03T08:30:22.124Z</time></trkpt><trkpt lat="44.10087" lon="7.8887521"><ele>1029.8</ele><time>2026-05-03T08:30:24.124Z</time></trkpt><trkpt lat="44.100946" lon="7.8887359"><ele>1034.6</ele><time>2026-05-03T08:30:25.125Z</time></trkpt><trkpt lat="44.1010331" lon="7.8888049"><ele>1039.4</ele><time>2026-05-03T08:30:27.124Z</time></trkpt><trkpt lat="44.1010441" lon="7.8889618"><ele>1044.2</ele><time>2026-05-03T08:30:29.124Z</time></trkpt><trkpt lat="44.1010026" lon="7.8890735"><ele>1049.0</ele><time>2026-05-03T08:30:30.124Z</time></trkpt><trkpt lat="44.1009305" lon="7.8892056"><ele>1049.2</ele><time>2026-05-03T08:30:31.124Z</time></trkpt><trkpt lat="44.1008607" lon="7.8893347"><ele>1049.4</ele><time>2026-05-03T08:30:32.124Z</time></trkpt><trkpt lat="44.1007919" lon="7.8894487"><ele>1049.6</ele><time>2026-05-03T08:30:33.124Z</time></trkpt><trkpt lat="44.1007309" lon="7.8895575"><ele>1049.8</ele><time>2026-05-03T08:30:34.124Z</time></trkpt><trkpt lat="44.1006688" lon="7.8896507"><ele>1050.0</ele><time>2026-05-03T08:30:35.124Z</time></trkpt><trkpt lat="44.1006061" lon="7.8897437"><ele>1046.6666666666667</ele><time>2026-05-03T08:30:36.124Z</time></trkpt><trkpt lat="44.1005925" lon="7.8898485"><ele>1043.3333333333333</ele><time>2026-05-03T08:30:37.125Z</time></trkpt><trkpt lat="44.1005775" lon="7.8899414"><ele>1040.0</ele><time>2026-05-03T08:30:38.124Z</time></trkpt><trkpt lat="44.1005694" lon="7.8900445"><ele>1036.6666666666665</ele><time>2026-05-03T08:30:39.124Z</time></trkpt><trkpt lat="44.1006097" lon="7.8901544"><ele>1033.3333333333333</ele><time>2026-05-03T08:30:40.124Z</time></trkpt><trkpt lat="44.1006659" lon="7.8902961"><ele>1030.0</ele><time>2026-05-03T08:30:41.125Z</time></trkpt><trkpt lat="44.100733" lon="7.8904177"><ele>1033.75</ele><time>2026-05-03T08:30:42.124Z</time></trkpt><trkpt lat="44.1008197" lon="7.8905254"><ele>1037.5</ele><time>2026-05-03T08:30:43.125Z</time></trkpt><trkpt lat="44.1009192" lon="7.8906193"><ele>1041.25</ele><time>2026-05-03T08:30:44.124Z</time></trkpt><trkpt lat="44.1010102" lon="7.8907172"><ele>1045.0</ele><time>2026-05-03T08:30:45.124Z</time></trkpt><trkpt lat="44.1010826" lon="7.8908295"><ele>1044.0</ele><time>2026-05-03T08:30:46.125Z</time></trkpt><trkpt lat="44.1011466" lon="7.8909603"><ele>1043.0</ele><time>2026-05-03T08:30:47.124Z</time></trkpt><trkpt lat="44.1012111" lon="7.8910808"><ele>1042.0</ele><time>2026-05-03T08:30:48.125Z</time></trkpt><trkpt lat="44.1012491" lon="7.8912044"><ele>1041.0</ele><time>2026-05-03T08:30:49.124Z</time></trkpt><trkpt lat="44.1013207" lon="7.8912854"><ele>1040.0</ele><time>2026-05-03T08:30:50.124Z</time></trkpt><trkpt lat="44.1013905" lon="7.8913575"><ele>1040.0</ele><time>2026-05-03T08:30:51.124Z</time></trkpt><trkpt lat="44.1014597" lon="7.8914233"><ele>1040.0</ele><time>2026-05-03T08:30:52.125Z</time></trkpt><trkpt lat="44.1015789" lon="7.8914328"><ele>1040.0</ele><time>2026-05-03T08:30:53.124Z</time></trkpt><trkpt lat="44.101689" lon="7.8914606"><ele>1040.0</ele><time>2026-05-03T08:30:54.124Z</time></trkpt><trkpt lat="44.1017852" lon="7.8914944"><ele>1040.0</ele><time>2026-05-03T08:30:55.124Z</time></trkpt><trkpt lat="44.1018842" lon="7.8915162"><ele>1040.6</ele><time>2026-05-03T08:30:56.124Z</time></trkpt><trkpt lat="44.1019604" lon="7.8915577"><ele>1041.2</ele><time>2026-05-03T08:30:57.124Z</time></trkpt><trkpt lat="44.1020095" lon="7.891697"><ele>1041.8</ele><time>2026-05-03T08:30:58.124Z</time></trkpt><trkpt lat="44.1020731" lon="7.891803"><ele>1042.4</ele><time>2026-05-03T08:30:59.124Z</time></trkpt><trkpt lat="44.1021212" lon="7.8919091"><ele>1043.0</ele><time>2026-05-03T08:31:00.125Z</time></trkpt><trkpt lat="44.1021576" lon="7.8919998"><ele>1043.0</ele><time>2026-05-03T08:31:01.124Z</time></trkpt><trkpt lat="44.1021414" lon="7.8921742"><ele>1043.0</ele><time>2026-05-03T08:31:03.125Z</time></trkpt><trkpt lat="44.1020952" lon="7.892265"><ele>1043.0</ele><time>2026-05-03T08:31:04.125Z</time></trkpt><trkpt lat="44.1020416" lon="7.8923424"><ele>1043.0</ele><time>2026-05-03T08:31:05.124Z</time></trkpt><trkpt lat="44.1020026" lon="7.8924181"><ele>1043.0</ele><time>2026-05-03T08:31:06.126Z</time></trkpt><trkpt lat="44.101985" lon="7.8925075"><ele>1043.0</ele><time>2026-05-03T08:31:07.124Z</time></trkpt><trkpt lat="44.1019779" lon="7.8926058"><ele>1042.6</ele><time>2026-05-03T08:31:08.124Z</time></trkpt><trkpt lat="44.1019888" lon="7.8927027"><ele>1042.1999999999998</ele><time>2026-05-03T08:31:09.125Z</time></trkpt><trkpt lat="44.1021076" lon="7.8927582"><ele>1041.8</ele><time>2026-05-03T08:31:10.124Z</time></trkpt><trkpt lat="44.102236" lon="7.8928061"><ele>1041.3999999999999</ele><time>2026-05-03T08:31:11.124Z</time></trkpt><trkpt lat="44.1023544" lon="7.892826"><ele>1041.0</ele><time>2026-05-03T08:31:12.124Z</time></trkpt><trkpt lat="44.1024723" lon="7.8928062"><ele>1041.0</ele><time>2026-05-03T08:31:13.124Z</time></trkpt><trkpt lat="44.1025719" lon="7.8927711"><ele>1041.0</ele><time>2026-05-03T08:31:14.124Z</time></trkpt><trkpt lat="44.1026529" lon="7.8927409"><ele>1041.0</ele><time>2026-05-03T08:31:15.124Z</time></trkpt><trkpt lat="44.102765" lon="7.8928034"><ele>1041.0</ele><time>2026-05-03T08:31:17.124Z</time></trkpt><trkpt lat="44.102813" lon="7.8929087"><ele>1041.0</ele><time>2026-05-03T08:31:18.124Z</time></trkpt><trkpt lat="44.1028455" lon="7.8930468"><ele>1041.0</ele><time>2026-05-03T08:31:19.125Z</time></trkpt><trkpt lat="44.1028716" lon="7.8931906"><ele>1041.0</ele><time>2026-05-03T08:31:20.125Z</time></trkpt><trkpt lat="44.102895" lon="7.8933381"><ele>1041.0</ele><time>2026-05-03T08:31:21.125Z</time></trkpt><trkpt lat="44.1028994" lon="7.8934839"><ele>1041.0</ele><time>2026-05-03T08:31:22.125Z</time></trkpt><trkpt lat="44.1028866" lon="7.893623"><ele>1041.0</ele><time>2026-05-03T08:31:23.124Z</time></trkpt><trkpt lat="44.1028555" lon="7.8937457"><ele>1040.2857142857142</ele><time>2026-05-03T08:31:24.124Z</time></trkpt><trkpt lat="44.1028192" lon="7.893844"><ele>1039.5714285714287</ele><time>2026-05-03T08:31:25.124Z</time></trkpt><trkpt lat="44.1027836" lon="7.8939335"><ele>1038.857142857143</ele><time>2026-05-03T08:31:26.124Z</time></trkpt><trkpt lat="44.1027461" lon="7.8940055"><ele>1038.142857142857</ele><time>2026-05-03T08:31:27.124Z</time></trkpt><trkpt lat="44.1027054" lon="7.8940724"><ele>1037.4285714285716</ele><time>2026-05-03T08:31:28.124Z</time></trkpt><trkpt lat="44.1026516" lon="7.8941417"><ele>1036.7142857142858</ele><time>2026-05-03T08:31:29.125Z</time></trkpt><trkpt lat="44.1025691" lon="7.8941992"><ele>1036.0</ele><time>2026-05-03T08:31:30.124Z</time></trkpt><trkpt lat="44.1024828" lon="7.8942633"><ele>1032.2</ele><time>2026-05-03T08:31:31.124Z</time></trkpt><trkpt lat="44.1024083" lon="7.894337"><ele>1028.3999999999999</ele><time>2026-05-03T08:31:32.124Z</time></trkpt><trkpt lat="44.1023392" lon="7.8944088"><ele>1024.6</ele><time>2026-05-03T08:31:33.124Z</time></trkpt><trkpt lat="44.1022949" lon="7.8945206"><ele>1020.8</ele><time>2026-05-03T08:31:34.124Z</time></trkpt><trkpt lat="44.102272" lon="7.8946488"><ele>1017.0</ele><time>2026-05-03T08:31:35.125Z</time></trkpt><trkpt lat="44.1022891" lon="7.8947702"><ele>1017.0</ele><time>2026-05-03T08:31:36.124Z</time></trkpt><trkpt lat="44.1023537" lon="7.894882"><ele>1017.0</ele><time>2026-05-03T08:31:37.124Z</time></trkpt><trkpt lat="44.1024263" lon="7.8949888"><ele>1017.0</ele><time>2026-05-03T08:31:38.124Z</time></trkpt><trkpt lat="44.1025011" lon="7.8950706"><ele>1017.0</ele><time>2026-05-03T08:31:39.124Z</time></trkpt><trkpt lat="44.1025668" lon="7.8951283"><ele>1017.0</ele><time>2026-05-03T08:31:40.124Z</time></trkpt><trkpt lat="44.1026007" lon="7.8952158"><ele>1019.6</ele><time>2026-05-03T08:31:41.125Z</time></trkpt><trkpt lat="44.1026054" lon="7.8953419"><ele>1022.2</ele><time>2026-05-03T08:31:42.125Z</time></trkpt><trkpt lat="44.1025858" lon="7.8954657"><ele>1024.8</ele><time>2026-05-03T08:31:43.124Z</time></trkpt><trkpt lat="44.1025595" lon="7.8955876"><ele>1027.4</ele><time>2026-05-03T08:31:44.124Z</time></trkpt><trkpt lat="44.1025377" lon="7.8957251"><ele>1030.0</ele><time>2026-05-03T08:31:45.125Z</time></trkpt><trkpt lat="44.1025331" lon="7.8958656"><ele>1028.5</ele><time>2026-05-03T08:31:46.125Z</time></trkpt><trkpt lat="44.1025395" lon="7.8959998"><ele>1027.0</ele><time>2026-05-03T08:31:47.125Z</time></trkpt><trkpt lat="44.1025936" lon="7.8961511"><ele>1025.5</ele><time>2026-05-03T08:31:48.124Z</time></trkpt><trkpt lat="44.1026662" lon="7.8963264"><ele>1024.0</ele><time>2026-05-03T08:31:49.124Z</time></trkpt><trkpt lat="44.1027251" lon="7.8965133"><ele>1024.0</ele><time>2026-05-03T08:31:50.124Z</time></trkpt><trkpt lat="44.1027651" lon="7.8967123"><ele>1024.0</ele><time>2026-05-03T08:31:51.124Z</time></trkpt><trkpt lat="44.1027941" lon="7.8969062"><ele>1024.0</ele><time>2026-05-03T08:31:52.124Z</time></trkpt><trkpt lat="44.10283" lon="7.8970856"><ele>1024.0</ele><time>2026-05-03T08:31:53.124Z</time></trkpt><trkpt lat="44.1028755" lon="7.8972395"><ele>1021.2</ele><time>2026-05-03T08:31:54.125Z</time></trkpt><trkpt lat="44.1029194" lon="7.8973829"><ele>1018.4000000000001</ele><time>2026-05-03T08:31:55.125Z</time></trkpt><trkpt lat="44.1029543" lon="7.8975203"><ele>1015.6</ele><time>2026-05-03T08:31:56.124Z</time></trkpt><trkpt lat="44.1029763" lon="7.8976529"><ele>1012.8</ele><time>2026-05-03T08:31:57.124Z</time></trkpt><trkpt lat="44.1029731" lon="7.897788"><ele>1010.0</ele><time>2026-05-03T08:31:58.124Z</time></trkpt><trkpt lat="44.1029518" lon="7.8979168"><ele>1007.6</ele><time>2026-05-03T08:31:59.125Z</time></trkpt><trkpt lat="44.10293" lon="7.8980534"><ele>1005.2</ele><time>2026-05-03T08:32:00.124Z</time></trkpt><trkpt lat="44.1029287" lon="7.8981972"><ele>1002.8</ele><time>2026-05-03T08:32:01.125Z</time></trkpt><trkpt lat="44.1029557" lon="7.8983375"><ele>1000.4</ele><time>2026-05-03T08:32:02.125Z</time></trkpt><trkpt lat="44.1030092" lon="7.8984655"><ele>998.0</ele><time>2026-05-03T08:32:03.124Z</time></trkpt><trkpt lat="44.1030871" lon="7.8986014"><ele>1002.25</ele><time>2026-05-03T08:32:04.125Z</time></trkpt><trkpt lat="44.1031587" lon="7.8987384"><ele>1006.5</ele><time>2026-05-03T08:32:05.124Z</time></trkpt><trkpt lat="44.1032271" lon="7.8988662"><ele>1010.75</ele><time>2026-05-03T08:32:06.125Z</time></trkpt><trkpt lat="44.103306" lon="7.8989835"><ele>1015.0</ele><time>2026-05-03T08:32:07.124Z</time></trkpt><trkpt lat="44.1033943" lon="7.899091"><ele>1015.0</ele><time>2026-05-03T08:32:08.124Z</time></trkpt><trkpt lat="44.1034865" lon="7.8991942"><ele>1015.0</ele><time>2026-05-03T08:32:09.124Z</time></trkpt><trkpt lat="44.1035844" lon="7.8992875"><ele>1015.0</ele><time>2026-05-03T08:32:10.125Z</time></trkpt><trkpt lat="44.1036803" lon="7.8993592"><ele>1015.0</ele><time>2026-05-03T08:32:11.125Z</time></trkpt><trkpt lat="44.1037655" lon="7.8994349"><ele>1015.0</ele><time>2026-05-03T08:32:12.125Z</time></trkpt><trkpt lat="44.1038411" lon="7.8995139"><ele>1013.6666666666666</ele><time>2026-05-03T08:32:13.124Z</time></trkpt><trkpt lat="44.1038938" lon="7.8995916"><ele>1012.3333333333333</ele><time>2026-05-03T08:32:14.124Z</time></trkpt><trkpt lat="44.1039215" lon="7.8996722"><ele>1011.0</ele><time>2026-05-03T08:32:15.125Z</time></trkpt><trkpt lat="44.1039218" lon="7.899767"><ele>1009.6666666666667</ele><time>2026-05-03T08:32:16.124Z</time></trkpt><trkpt lat="44.1039044" lon="7.8998784"><ele>1008.3333333333334</ele><time>2026-05-03T08:32:17.124Z</time></trkpt><trkpt lat="44.1038817" lon="7.9000026"><ele>1007.0</ele><time>2026-05-03T08:32:18.125Z</time></trkpt><trkpt lat="44.1038751" lon="7.9001383"><ele>1007.0</ele><time>2026-05-03T08:32:19.124Z</time></trkpt><trkpt lat="44.1038783" lon="7.9002744"><ele>1007.0</ele><time>2026-05-03T08:32:20.124Z</time></trkpt><trkpt lat="44.1038964" lon="7.9004082"><ele>1007.0</ele><time>2026-05-03T08:32:21.125Z</time></trkpt><trkpt lat="44.1038968" lon="7.9005349"><ele>1007.0</ele><time>2026-05-03T08:32:22.124Z</time></trkpt><trkpt lat="44.1038829" lon="7.9006324"><ele>1007.0</ele><time>2026-05-03T08:32:23.124Z</time></trkpt><trkpt lat="44.1037983" lon="7.9007715"><ele>1007.0</ele><time>2026-05-03T08:32:25.124Z</time></trkpt><trkpt lat="44.1037319" lon="7.9008322"><ele>1007.0</ele><time>2026-05-03T08:32:26.124Z</time></trkpt><trkpt lat="44.103645" lon="7.9008804"><ele>1007.0</ele><time>2026-05-03T08:32:27.124Z</time></trkpt><trkpt lat="44.1035451" lon="7.900902"><ele>1007.0</ele><time>2026-05-03T08:32:28.124Z</time></trkpt><trkpt lat="44.103422" lon="7.9009055"><ele>1007.0</ele><time>2026-05-03T08:32:29.125Z</time></trkpt><trkpt lat="44.1033086" lon="7.9009025"><ele>1004.4000000000001</ele><time>2026-05-03T08:32:30.125Z</time></trkpt><trkpt lat="44.1032073" lon="7.9009127"><ele>1001.8000000000001</ele><time>2026-05-03T08:32:31.124Z</time></trkpt><trkpt lat="44.1031236" lon="7.9009427"><ele>999.2</ele><time>2026-05-03T08:32:32.124Z</time></trkpt><trkpt lat="44.1030571" lon="7.9010157"><ele>996.6</ele><time>2026-05-03T08:32:33.124Z</time></trkpt><trkpt lat="44.1029891" lon="7.9011085"><ele>994.0</ele><time>2026-05-03T08:32:34.124Z</time></trkpt><trkpt lat="44.1029284" lon="7.9012119"><ele>994.0</ele><time>2026-05-03T08:32:35.124Z</time></trkpt><trkpt lat="44.1028719" lon="7.9013302"><ele>994.0000000000001</ele><time>2026-05-03T08:32:36.124Z</time></trkpt><trkpt lat="44.102818" lon="7.9014495"><ele>994.0000000000001</ele><time>2026-05-03T08:32:37.124Z</time></trkpt><trkpt lat="44.1027775" lon="7.9015982"><ele>994.0</ele><time>2026-05-03T08:32:38.124Z</time></trkpt><trkpt lat="44.1027715" lon="7.9017595"><ele>994.0</ele><time>2026-05-03T08:32:39.124Z</time></trkpt><trkpt lat="44.102755" lon="7.9018945"><ele>992.8000000000001</ele><time>2026-05-03T08:32:40.125Z</time></trkpt><trkpt lat="44.1027608" lon="7.9020088"><ele>991.6000000000001</ele><time>2026-05-03T08:32:41.124Z</time></trkpt><trkpt lat="44.102796" lon="7.902107"><ele>990.4</ele><time>2026-05-03T08:32:42.124Z</time></trkpt><trkpt lat="44.1028443" lon="7.9021985"><ele>989.2</ele><time>2026-05-03T08:32:43.124Z</time></trkpt><trkpt lat="44.1029363" lon="7.9022648"><ele>988.0</ele><time>2026-05-03T08:32:44.125Z</time></trkpt><trkpt lat="44.103035" lon="7.902327"><ele>988.0</ele><time>2026-05-03T08:32:45.124Z</time></trkpt><trkpt lat="44.1031249" lon="7.9023982"><ele>988.0</ele><time>2026-05-03T08:32:46.124Z</time></trkpt><trkpt lat="44.103225" lon="7.9024676"><ele>988.0</ele><time>2026-05-03T08:32:47.124Z</time></trkpt><trkpt lat="44.1033251" lon="7.902521"><ele>988.0</ele><time>2026-05-03T08:32:48.125Z</time></trkpt><trkpt lat="44.1034298" lon="7.9025583"><ele>988.0</ele><time>2026-05-03T08:32:49.124Z</time></trkpt><trkpt lat="44.1035429" lon="7.9025874"><ele>990.2</ele><time>2026-05-03T08:32:50.125Z</time></trkpt><trkpt lat="44.1036559" lon="7.9026207"><ele>992.4</ele><time>2026-05-03T08:32:51.124Z</time></trkpt><trkpt lat="44.1037653" lon="7.9026619"><ele>994.6000000000001</ele><time>2026-05-03T08:32:52.125Z</time></trkpt><trkpt lat="44.1038715" lon="7.9027054"><ele>996.8000000000001</ele><time>2026-05-03T08:32:53.124Z</time></trkpt><trkpt lat="44.1039553" lon="7.9027425"><ele>999.0</ele><time>2026-05-03T08:32:54.124Z</time></trkpt><trkpt lat="44.1040273" lon="7.902768"><ele>999.0</ele><time>2026-05-03T08:32:55.124Z</time></trkpt><trkpt lat="44.1040814" lon="7.9028154"><ele>999.0000000000001</ele><time>2026-05-03T08:32:56.124Z</time></trkpt><trkpt lat="44.1040738" lon="7.9029086"><ele>999.0000000000001</ele><time>2026-05-03T08:32:57.124Z</time></trkpt><trkpt lat="44.1040577" lon="7.903079"><ele>999.0</ele><time>2026-05-03T08:32:59.124Z</time></trkpt><trkpt lat="44.1039182" lon="7.9031935"><ele>999.0</ele><time>2026-05-03T08:33:01.125Z</time></trkpt><trkpt lat="44.1037969" lon="7.9032726"><ele>999.0</ele><time>2026-05-03T08:33:02.124Z</time></trkpt><trkpt lat="44.1036834" lon="7.9033579"><ele>999.0</ele><time>2026-05-03T08:33:03.125Z</time></trkpt><trkpt lat="44.1035808" lon="7.9034587"><ele>999.0</ele><time>2026-05-03T08:33:04.124Z</time></trkpt><trkpt lat="44.1034857" lon="7.9035506"><ele>999.0</ele><time>2026-05-03T08:33:05.124Z</time></trkpt><trkpt lat="44.103391" lon="7.9036182"><ele>1001.2</ele><time>2026-05-03T08:33:06.124Z</time></trkpt><trkpt lat="44.1032996" lon="7.9036696"><ele>1003.4000000000001</ele><time>2026-05-03T08:33:07.125Z</time></trkpt><trkpt lat="44.1032156" lon="7.9037088"><ele>1005.6</ele><time>2026-05-03T08:33:08.124Z</time></trkpt><trkpt lat="44.1031424" lon="7.9037499"><ele>1007.8</ele><time>2026-05-03T08:33:09.124Z</time></trkpt><trkpt lat="44.1030797" lon="7.9037862"><ele>1010.0</ele><time>2026-05-03T08:33:10.124Z</time></trkpt><trkpt lat="44.1029687" lon="7.9038491"><ele>1006.5714285714286</ele><time>2026-05-03T08:33:12.125Z</time></trkpt><trkpt lat="44.1029058" lon="7.9038843"><ele>1003.1428571428571</ele><time>2026-05-03T08:33:13.124Z</time></trkpt><trkpt lat="44.1028403" lon="7.903925"><ele>999.7142857142857</ele><time>2026-05-03T08:33:14.124Z</time></trkpt><trkpt lat="44.1027739" lon="7.9039633"><ele>996.2857142857142</ele><time>2026-05-03T08:33:15.124Z</time></trkpt><trkpt lat="44.1026897" lon="7.904001"><ele>992.8571428571429</ele><time>2026-05-03T08:33:17.124Z</time></trkpt><trkpt lat="44.1026262" lon="7.9040188"><ele>989.4285714285713</ele><time>2026-05-03T08:33:20.124Z</time></trkpt><trkpt lat="44.1027095" lon="7.9040173"><ele>986.0</ele><time>2026-05-03T08:33:28.124Z</time></trkpt><trkpt lat="44.1027743" lon="7.9039502"><ele>986.0000000000001</ele><time>2026-05-03T08:33:30.124Z</time></trkpt><trkpt lat="44.1026908" lon="7.9039921"><ele>986.0</ele><time>2026-05-03T08:34:14.126Z</time></trkpt><trkpt lat="44.1025708" lon="7.9040499"><ele>986.0</ele><time>2026-05-03T08:34:16.125Z</time></trkpt><trkpt lat="44.102511" lon="7.9040918"><ele>986.0</ele><time>2026-05-03T08:34:17.125Z</time></trkpt><trkpt lat="44.1024354" lon="7.9041242"><ele>986.0000000000001</ele><time>2026-05-03T08:34:18.126Z</time></trkpt><trkpt lat="44.1023618" lon="7.9041437"><ele>986.0</ele><time>2026-05-03T08:34:19.125Z</time></trkpt><trkpt lat="44.1022945" lon="7.9041625"><ele>981.1999999999999</ele><time>2026-05-03T08:34:20.125Z</time></trkpt><trkpt lat="44.1021795" lon="7.904179"><ele>976.3999999999999</ele><time>2026-05-03T08:34:22.125Z</time></trkpt><trkpt lat="44.1020984" lon="7.9042374"><ele>971.6</ele><time>2026-05-03T08:34:24.125Z</time></trkpt><trkpt lat="44.1020775" lon="7.904336"><ele>966.8</ele><time>2026-05-03T08:34:26.125Z</time></trkpt><trkpt lat="44.1021534" lon="7.904485"><ele>962.0</ele><time>2026-05-03T08:34:28.126Z</time></trkpt><trkpt lat="44.1022194" lon="7.9045773"><ele>964.2</ele><time>2026-05-03T08:34:29.125Z</time></trkpt><trkpt lat="44.1022818" lon="7.9046729"><ele>966.4000000000001</ele><time>2026-05-03T08:34:30.125Z</time></trkpt><trkpt lat="44.1023678" lon="7.9047649"><ele>968.5999999999999</ele><time>2026-05-03T08:34:31.126Z</time></trkpt><trkpt lat="44.1024423" lon="7.9048705"><ele>970.8</ele><time>2026-05-03T08:34:32.126Z</time></trkpt><trkpt lat="44.1025151" lon="7.9049824"><ele>973.0</ele><time>2026-05-03T08:34:33.125Z</time></trkpt><trkpt lat="44.1025872" lon="7.9050886"><ele>966.8</ele><time>2026-05-03T08:34:34.125Z</time></trkpt><trkpt lat="44.1026608" lon="7.9051844"><ele>960.5999999999999</ele><time>2026-05-03T08:34:35.125Z</time></trkpt><trkpt lat="44.1027382" lon="7.9052753"><ele>954.4000000000001</ele><time>2026-05-03T08:34:36.125Z</time></trkpt><trkpt lat="44.1028164" lon="7.9053647"><ele>948.2</ele><time>2026-05-03T08:34:37.125Z</time></trkpt><trkpt lat="44.1028891" lon="7.9054617"><ele>942.0</ele><time>2026-05-03T08:34:38.125Z</time></trkpt><trkpt lat="44.1029575" lon="7.9055555"><ele>942.0</ele><time>2026-05-03T08:34:39.125Z</time></trkpt><trkpt lat="44.1030212" lon="7.9056558"><ele>942.0</ele><time>2026-05-03T08:34:40.126Z</time></trkpt><trkpt lat="44.1030801" lon="7.9057538"><ele>942.0</ele><time>2026-05-03T08:34:41.125Z</time></trkpt><trkpt lat="44.103136" lon="7.9058441"><ele>942.0</ele><time>2026-05-03T08:34:42.125Z</time></trkpt><trkpt lat="44.1031958" lon="7.9059223"><ele>942.0</ele><time>2026-05-03T08:34:43.126Z</time></trkpt><trkpt lat="44.1032747" lon="7.9059679"><ele>942.0</ele><time>2026-05-03T08:34:44.126Z</time></trkpt><trkpt lat="44.1033609" lon="7.9059961"><ele>938.8</ele><time>2026-05-03T08:34:45.125Z</time></trkpt><trkpt lat="44.1034321" lon="7.9060186"><ele>935.6</ele><time>2026-05-03T08:34:46.125Z</time></trkpt><trkpt lat="44.1034834" lon="7.9061206"><ele>932.3999999999999</ele><time>2026-05-03T08:34:48.126Z</time></trkpt><trkpt lat="44.1034545" lon="7.9062387"><ele>929.1999999999999</ele><time>2026-05-03T08:34:50.125Z</time></trkpt><trkpt lat="44.1033321" lon="7.9063268"><ele>926.0</ele><time>2026-05-03T08:34:52.125Z</time></trkpt><trkpt lat="44.1032397" lon="7.9063944"><ele>926.0</ele><time>2026-05-03T08:34:53.126Z</time></trkpt><trkpt lat="44.1031432" lon="7.9064722"><ele>925.9999999999999</ele><time>2026-05-03T08:34:54.125Z</time></trkpt><trkpt lat="44.1030505" lon="7.9065421"><ele>925.9999999999999</ele><time>2026-05-03T08:34:55.125Z</time></trkpt><trkpt lat="44.1029532" lon="7.9066175"><ele>926.0</ele><time>2026-05-03T08:34:56.126Z</time></trkpt><trkpt lat="44.1028616" lon="7.9067003"><ele>926.0</ele><time>2026-05-03T08:34:57.126Z</time></trkpt><trkpt lat="44.1027766" lon="7.9067655"><ele>930.0</ele><time>2026-05-03T08:34:58.125Z</time></trkpt><trkpt lat="44.1027023" lon="7.9068478"><ele>933.9999999999999</ele><time>2026-05-03T08:34:59.125Z</time></trkpt><trkpt lat="44.1026252" lon="7.9069358"><ele>937.9999999999999</ele><time>2026-05-03T08:35:00.125Z</time></trkpt><trkpt lat="44.1025688" lon="7.9070324"><ele>942.0</ele><time>2026-05-03T08:35:01.125Z</time></trkpt><trkpt lat="44.102539" lon="7.9071686"><ele>946.0</ele><time>2026-05-03T08:35:02.125Z</time></trkpt><trkpt lat="44.1025039" lon="7.9073051"><ele>946.0</ele><time>2026-05-03T08:35:03.125Z</time></trkpt><trkpt lat="44.1024614" lon="7.9074105"><ele>945.9999999999999</ele><time>2026-05-03T08:35:04.126Z</time></trkpt><trkpt lat="44.1023959" lon="7.9075226"><ele>945.9999999999999</ele><time>2026-05-03T08:35:05.125Z</time></trkpt><trkpt lat="44.1023275" lon="7.9076392"><ele>946.0</ele><time>2026-05-03T08:35:06.125Z</time></trkpt><trkpt lat="44.1022523" lon="7.9077531"><ele>946.0</ele><time>2026-05-03T08:35:07.126Z</time></trkpt><trkpt lat="44.1021852" lon="7.9078743"><ele>945.5999999999999</ele><time>2026-05-03T08:35:08.127Z</time></trkpt><trkpt lat="44.1021152" lon="7.9079894"><ele>945.1999999999999</ele><time>2026-05-03T08:35:09.125Z</time></trkpt><trkpt lat="44.1020516" lon="7.9081031"><ele>944.8000000000001</ele><time>2026-05-03T08:35:10.126Z</time></trkpt><trkpt lat="44.1020218" lon="7.9082466"><ele>944.4000000000001</ele><time>2026-05-03T08:35:11.125Z</time></trkpt><trkpt lat="44.1019969" lon="7.9083803"><ele>944.0</ele><time>2026-05-03T08:35:12.125Z</time></trkpt><trkpt lat="44.102004" lon="7.9085106"><ele>944.0000000000001</ele><time>2026-05-03T08:35:13.125Z</time></trkpt><trkpt lat="44.1020028" lon="7.9086305"><ele>944.0</ele><time>2026-05-03T08:35:14.125Z</time></trkpt><trkpt lat="44.1019769" lon="7.9087464"><ele>944.0</ele><time>2026-05-03T08:35:15.125Z</time></trkpt><trkpt lat="44.1019357" lon="7.9088398"><ele>944.0</ele><time>2026-05-03T08:35:16.126Z</time></trkpt><trkpt lat="44.1018691" lon="7.9089154"><ele>944.0000000000001</ele><time>2026-05-03T08:35:17.125Z</time></trkpt><trkpt lat="44.1017934" lon="7.9089608"><ele>944.0</ele><time>2026-05-03T08:35:18.125Z</time></trkpt><trkpt lat="44.1017027" lon="7.909009"><ele>944.0</ele><time>2026-05-03T08:35:19.125Z</time></trkpt><trkpt lat="44.1016067" lon="7.9090548"><ele>944.0</ele><time>2026-05-03T08:35:20.125Z</time></trkpt><trkpt lat="44.1014995" lon="7.9090987"><ele>944.0</ele><time>2026-05-03T08:35:21.125Z</time></trkpt><trkpt lat="44.1013585" lon="7.9091536"><ele>944.0</ele><time>2026-05-03T08:35:22.125Z</time></trkpt><trkpt lat="44.1012442" lon="7.9091864"><ele>939.8000000000001</ele><time>2026-05-03T08:35:23.126Z</time></trkpt><trkpt lat="44.1011328" lon="7.9092032"><ele>935.6000000000001</ele><time>2026-05-03T08:35:24.125Z</time></trkpt><trkpt lat="44.1010234" lon="7.9092396"><ele>931.4</ele><time>2026-05-03T08:35:25.125Z</time></trkpt><trkpt lat="44.1009518" lon="7.9093152"><ele>927.2</ele><time>2026-05-03T08:35:26.125Z</time></trkpt><trkpt lat="44.1008537" lon="7.9093729"><ele>923.0</ele><time>2026-05-03T08:35:27.125Z</time></trkpt><trkpt lat="44.1007724" lon="7.909407"><ele>914.4</ele><time>2026-05-03T08:35:28.125Z</time></trkpt><trkpt lat="44.1006947" lon="7.9094292"><ele>905.8</ele><time>2026-05-03T08:35:29.125Z</time></trkpt><trkpt lat="44.1006327" lon="7.9094755"><ele>897.2</ele><time>2026-05-03T08:35:30.125Z</time></trkpt><trkpt lat="44.1005916" lon="7.9095421"><ele>888.6</ele><time>2026-05-03T08:35:31.125Z</time></trkpt><trkpt lat="44.1005809" lon="7.9097013"><ele>880.0</ele><time>2026-05-03T08:35:33.125Z</time></trkpt><trkpt lat="44.1006271" lon="7.909873"><ele>879.9999999999999</ele><time>2026-05-03T08:35:35.125Z</time></trkpt><trkpt lat="44.1006644" lon="7.9099861"><ele>880.0</ele><time>2026-05-03T08:35:36.125Z</time></trkpt><trkpt lat="44.1006867" lon="7.9100916"><ele>880.0</ele><time>2026-05-03T08:35:37.126Z</time></trkpt><trkpt lat="44.1006994" lon="7.9102109"><ele>880.0</ele><time>2026-05-03T08:35:38.125Z</time></trkpt><trkpt lat="44.1007123" lon="7.9103532"><ele>879.9999999999999</ele><time>2026-05-03T08:35:39.125Z</time></trkpt><trkpt lat="44.1007208" lon="7.9104771"><ele>880.0</ele><time>2026-05-03T08:35:40.125Z</time></trkpt><trkpt lat="44.1007467" lon="7.9105981"><ele>883.2</ele><time>2026-05-03T08:35:41.125Z</time></trkpt><trkpt lat="44.1007588" lon="7.9107151"><ele>886.4</ele><time>2026-05-03T08:35:42.125Z</time></trkpt><trkpt lat="44.1007742" lon="7.9108129"><ele>889.5999999999999</ele><time>2026-05-03T08:35:43.125Z</time></trkpt><trkpt lat="44.1007878" lon="7.9109766"><ele>892.8</ele><time>2026-05-03T08:35:45.126Z</time></trkpt><trkpt lat="44.1008304" lon="7.9111442"><ele>896.0</ele><time>2026-05-03T08:35:47.125Z</time></trkpt><trkpt lat="44.1008462" lon="7.9112355"><ele>896.0000000000001</ele><time>2026-05-03T08:35:48.126Z</time></trkpt><trkpt lat="44.10092" lon="7.9113075"><ele>896.0</ele><time>2026-05-03T08:35:49.126Z</time></trkpt><trkpt lat="44.1009622" lon="7.9114029"><ele>896.0</ele><time>2026-05-03T08:35:50.125Z</time></trkpt><trkpt lat="44.1010235" lon="7.9114687"><ele>896.0</ele><time>2026-05-03T08:35:51.125Z</time></trkpt><trkpt lat="44.1010561" lon="7.9115643"><ele>896.0000000000001</ele><time>2026-05-03T08:35:52.125Z</time></trkpt><trkpt lat="44.1011002" lon="7.9116682"><ele>896.0</ele><time>2026-05-03T08:35:53.125Z</time></trkpt><trkpt lat="44.1011248" lon="7.911807"><ele>894.3333333333334</ele><time>2026-05-03T08:35:54.125Z</time></trkpt><trkpt lat="44.101159" lon="7.9119279"><ele>892.6666666666667</ele><time>2026-05-03T08:35:55.125Z</time></trkpt><trkpt lat="44.1011873" lon="7.9120354"><ele>891.0</ele><time>2026-05-03T08:35:56.125Z</time></trkpt><trkpt lat="44.1012462" lon="7.9121398"><ele>889.3333333333333</ele><time>2026-05-03T08:35:57.125Z</time></trkpt><trkpt lat="44.1012754" lon="7.9122301"><ele>887.6666666666666</ele><time>2026-05-03T08:35:58.126Z</time></trkpt><trkpt lat="44.1013296" lon="7.9123161"><ele>886.0</ele><time>2026-05-03T08:35:59.125Z</time></trkpt><trkpt lat="44.1013675" lon="7.9124167"><ele>886.0</ele><time>2026-05-03T08:36:00.125Z</time></trkpt><trkpt lat="44.1014095" lon="7.9125218"><ele>885.9999999999999</ele><time>2026-05-03T08:36:01.125Z</time></trkpt><trkpt lat="44.1014343" lon="7.9126981"><ele>885.9999999999999</ele><time>2026-05-03T08:36:03.125Z</time></trkpt><trkpt lat="44.1013829" lon="7.9128396"><ele>886.0</ele><time>2026-05-03T08:36:05.125Z</time></trkpt><trkpt lat="44.1012907" lon="7.9129104"><ele>886.0</ele><time>2026-05-03T08:36:07.126Z</time></trkpt><trkpt lat="44.1012097" lon="7.9129514"><ele>888.0</ele><time>2026-05-03T08:36:08.125Z</time></trkpt><trkpt lat="44.1011219" lon="7.9130001"><ele>889.9999999999999</ele><time>2026-05-03T08:36:09.125Z</time></trkpt><trkpt lat="44.1010154" lon="7.9130679"><ele>891.9999999999999</ele><time>2026-05-03T08:36:10.125Z</time></trkpt><trkpt lat="44.100936" lon="7.9131403"><ele>894.0</ele><time>2026-05-03T08:36:11.126Z</time></trkpt><trkpt lat="44.1008456" lon="7.9132155"><ele>896.0</ele><time>2026-05-03T08:36:12.125Z</time></trkpt><trkpt lat="44.1007562" lon="7.913294"><ele>892.1999999999999</ele><time>2026-05-03T08:36:13.125Z</time></trkpt><trkpt lat="44.100691" lon="7.9133848"><ele>888.3999999999999</ele><time>2026-05-03T08:36:14.125Z</time></trkpt><trkpt lat="44.1006232" lon="7.9134911"><ele>884.6</ele><time>2026-05-03T08:36:15.126Z</time></trkpt><trkpt lat="44.1005638" lon="7.9135783"><ele>880.8</ele><time>2026-05-03T08:36:16.125Z</time></trkpt><trkpt lat="44.1005506" lon="7.9137196"><ele>877.0</ele><time>2026-05-03T08:36:17.125Z</time></trkpt><trkpt lat="44.1005182" lon="7.9138747"><ele>877.0</ele><time>2026-05-03T08:36:18.125Z</time></trkpt><trkpt lat="44.1004839" lon="7.9140105"><ele>877.0</ele><time>2026-05-03T08:36:19.125Z</time></trkpt><trkpt lat="44.1004588" lon="7.914145"><ele>877.0</ele><time>2026-05-03T08:36:20.125Z</time></trkpt><trkpt lat="44.1004518" lon="7.914289"><ele>877.0</ele><time>2026-05-03T08:36:21.126Z</time></trkpt><trkpt lat="44.1004542" lon="7.9144373"><ele>877.0</ele><time>2026-05-03T08:36:22.125Z</time></trkpt><trkpt lat="44.1004498" lon="7.914582"><ele>879.6666666666666</ele><time>2026-05-03T08:36:23.125Z</time></trkpt><trkpt lat="44.1004621" lon="7.9147326"><ele>882.3333333333333</ele><time>2026-05-03T08:36:24.125Z</time></trkpt><trkpt lat="44.1004962" lon="7.9148502"><ele>885.0</ele><time>2026-05-03T08:36:25.125Z</time></trkpt><trkpt lat="44.1005342" lon="7.9149315"><ele>887.6666666666667</ele><time>2026-05-03T08:36:26.125Z</time></trkpt><trkpt lat="44.1005623" lon="7.9150197"><ele>890.3333333333334</ele><time>2026-05-03T08:36:27.126Z</time></trkpt><trkpt lat="44.1005496" lon="7.9151526"><ele>893.0</ele><time>2026-05-03T08:36:29.126Z</time></trkpt><trkpt lat="44.1004541" lon="7.9152135"><ele>893.0000000000001</ele><time>2026-05-03T08:36:31.125Z</time></trkpt><trkpt lat="44.1003848" lon="7.915218"><ele>893.0</ele><time>2026-05-03T08:36:32.125Z</time></trkpt><trkpt lat="44.1002974" lon="7.9151984"><ele>893.0</ele><time>2026-05-03T08:36:33.125Z</time></trkpt><trkpt lat="44.1002114" lon="7.915156"><ele>893.0</ele><time>2026-05-03T08:36:34.125Z</time></trkpt><trkpt lat="44.1001369" lon="7.9150916"><ele>893.0000000000001</ele><time>2026-05-03T08:36:35.125Z</time></trkpt><trkpt lat="44.1000625" lon="7.9150261"><ele>893.0</ele><time>2026-05-03T08:36:36.126Z</time></trkpt><trkpt lat="44.0999797" lon="7.9149911"><ele>890.2</ele><time>2026-05-03T08:36:37.126Z</time></trkpt><trkpt lat="44.0998859" lon="7.9149857"><ele>887.4</ele><time>2026-05-03T08:36:38.126Z</time></trkpt><trkpt lat="44.099796" lon="7.9149882"><ele>884.6000000000001</ele><time>2026-05-03T08:36:39.125Z</time></trkpt><trkpt lat="44.0997086" lon="7.9149766"><ele>881.8000000000001</ele><time>2026-05-03T08:36:40.126Z</time></trkpt><trkpt lat="44.0996113" lon="7.9149883"><ele>879.0</ele><time>2026-05-03T08:36:41.125Z</time></trkpt><trkpt lat="44.0995142" lon="7.915035"><ele>880.4000000000001</ele><time>2026-05-03T08:36:42.125Z</time></trkpt><trkpt lat="44.0994177" lon="7.9150911"><ele>881.8000000000001</ele><time>2026-05-03T08:36:43.125Z</time></trkpt><trkpt lat="44.0993089" lon="7.9151256"><ele>883.1999999999999</ele><time>2026-05-03T08:36:44.125Z</time></trkpt><trkpt lat="44.0991997" lon="7.9151325"><ele>884.5999999999999</ele><time>2026-05-03T08:36:45.125Z</time></trkpt><trkpt lat="44.0990876" lon="7.9151203"><ele>886.0</ele><time>2026-05-03T08:36:46.125Z</time></trkpt><trkpt lat="44.0989741" lon="7.9151049"><ele>886.0</ele><time>2026-05-03T08:36:47.125Z</time></trkpt><trkpt lat="44.0988647" lon="7.9150916"><ele>885.9999999999999</ele><time>2026-05-03T08:36:48.125Z</time></trkpt><trkpt lat="44.0987687" lon="7.9150707"><ele>885.9999999999999</ele><time>2026-05-03T08:36:49.125Z</time></trkpt><trkpt lat="44.0986753" lon="7.9150377"><ele>886.0</ele><time>2026-05-03T08:36:50.125Z</time></trkpt><trkpt lat="44.0985856" lon="7.9149729"><ele>886.0</ele><time>2026-05-03T08:36:51.126Z</time></trkpt><trkpt lat="44.0984958" lon="7.9148858"><ele>884.0</ele><time>2026-05-03T08:36:52.125Z</time></trkpt><trkpt lat="44.0984027" lon="7.9148054"><ele>881.9999999999999</ele><time>2026-05-03T08:36:53.126Z</time></trkpt><trkpt lat="44.0983191" lon="7.9147458"><ele>879.9999999999999</ele><time>2026-05-03T08:36:54.125Z</time></trkpt><trkpt lat="44.0982505" lon="7.9147028"><ele>878.0</ele><time>2026-05-03T08:36:55.125Z</time></trkpt><trkpt lat="44.098191" lon="7.91466"><ele>876.0</ele><time>2026-05-03T08:36:56.126Z</time></trkpt><trkpt lat="44.0980575" lon="7.9146109"><ele>873.8</ele><time>2026-05-03T08:36:58.125Z</time></trkpt><trkpt lat="44.0979538" lon="7.9146226"><ele>871.5999999999999</ele><time>2026-05-03T08:36:59.125Z</time></trkpt><trkpt lat="44.0978328" lon="7.9146513"><ele>869.4</ele><time>2026-05-03T08:37:00.125Z</time></trkpt><trkpt lat="44.0977242" lon="7.9146754"><ele>867.2</ele><time>2026-05-03T08:37:01.126Z</time></trkpt><trkpt lat="44.0976275" lon="7.9146812"><ele>865.0</ele><time>2026-05-03T08:37:02.125Z</time></trkpt><trkpt lat="44.0975304" lon="7.9147037"><ele>865.0</ele><time>2026-05-03T08:37:03.125Z</time></trkpt><trkpt lat="44.097438" lon="7.914722"><ele>865.0</ele><time>2026-05-03T08:37:04.125Z</time></trkpt><trkpt lat="44.0973475" lon="7.9147509"><ele>865.0</ele><time>2026-05-03T08:37:05.125Z</time></trkpt><trkpt lat="44.0972672" lon="7.9148156"><ele>865.0</ele><time>2026-05-03T08:37:06.125Z</time></trkpt><trkpt lat="44.0971945" lon="7.9149042"><ele>865.0</ele><time>2026-05-03T08:37:07.125Z</time></trkpt><trkpt lat="44.0971345" lon="7.9150344"><ele>863.25</ele><time>2026-05-03T08:37:08.125Z</time></trkpt><trkpt lat="44.0970757" lon="7.9151874"><ele>861.5</ele><time>2026-05-03T08:37:09.125Z</time></trkpt><trkpt lat="44.0970103" lon="7.9153275"><ele>859.75</ele><time>2026-05-03T08:37:10.125Z</time></trkpt><trkpt lat="44.0969444" lon="7.9154526"><ele>858.0</ele><time>2026-05-03T08:37:11.125Z</time></trkpt><trkpt lat="44.0968717" lon="7.9155719"><ele>858.0</ele><time>2026-05-03T08:37:12.125Z</time></trkpt><trkpt lat="44.0967955" lon="7.9156896"><ele>858.0</ele><time>2026-05-03T08:37:13.126Z</time></trkpt><trkpt lat="44.0967123" lon="7.9157897"><ele>858.0</ele><time>2026-05-03T08:37:14.125Z</time></trkpt><trkpt lat="44.0966239" lon="7.915875"><ele>858.0</ele><time>2026-05-03T08:37:15.125Z</time></trkpt><trkpt lat="44.0965308" lon="7.9159395"><ele>858.0</ele><time>2026-05-03T08:37:16.125Z</time></trkpt><trkpt lat="44.0964312" lon="7.915984"><ele>856.2</ele><time>2026-05-03T08:37:17.125Z</time></trkpt><trkpt lat="44.0963333" lon="7.9160186"><ele>854.4</ele><time>2026-05-03T08:37:18.125Z</time></trkpt><trkpt lat="44.0962369" lon="7.916054"><ele>852.6</ele><time>2026-05-03T08:37:19.125Z</time></trkpt><trkpt lat="44.0961538" lon="7.9161061"><ele>850.8000000000001</ele><time>2026-05-03T08:37:20.125Z</time></trkpt><trkpt lat="44.096098" lon="7.9161829"><ele>849.0</ele><time>2026-05-03T08:37:21.125Z</time></trkpt><trkpt lat="44.0960556" lon="7.9162768"><ele>849.0</ele><time>2026-05-03T08:37:22.125Z</time></trkpt><trkpt lat="44.0960381" lon="7.9164134"><ele>849.0</ele><time>2026-05-03T08:37:23.126Z</time></trkpt><trkpt lat="44.0960272" lon="7.9165651"><ele>849.0</ele><time>2026-05-03T08:37:24.125Z</time></trkpt><trkpt lat="44.096008" lon="7.9167025"><ele>849.0</ele><time>2026-05-03T08:37:25.125Z</time></trkpt><trkpt lat="44.0959683" lon="7.9168191"><ele>849.0</ele><time>2026-05-03T08:37:26.125Z</time></trkpt><trkpt lat="44.095911" lon="7.9169043"><ele>849.8333333333334</ele><time>2026-05-03T08:37:27.126Z</time></trkpt><trkpt lat="44.0958396" lon="7.9169443"><ele>850.6666666666667</ele><time>2026-05-03T08:37:28.125Z</time></trkpt><trkpt lat="44.0957643" lon="7.9169394"><ele>851.5</ele><time>2026-05-03T08:37:29.126Z</time></trkpt><trkpt lat="44.095682" lon="7.9169089"><ele>852.3333333333334</ele><time>2026-05-03T08:37:30.126Z</time></trkpt><trkpt lat="44.0955978" lon="7.9168517"><ele>853.1666666666667</ele><time>2026-05-03T08:37:31.126Z</time></trkpt><trkpt lat="44.0955188" lon="7.9167848"><ele>854.0</ele><time>2026-05-03T08:37:32.125Z</time></trkpt><trkpt lat="44.0954418" lon="7.9167228"><ele>854.0000000000001</ele><time>2026-05-03T08:37:33.125Z</time></trkpt><trkpt lat="44.095357" lon="7.9166967"><ele>854.0</ele><time>2026-05-03T08:37:34.126Z</time></trkpt><trkpt lat="44.0952724" lon="7.9167028"><ele>854.0</ele><time>2026-05-03T08:37:35.125Z</time></trkpt><trkpt lat="44.0951902" lon="7.9167362"><ele>854.0</ele><time>2026-05-03T08:37:36.125Z</time></trkpt><trkpt lat="44.095112" lon="7.9168097"><ele>854.0000000000001</ele><time>2026-05-03T08:37:37.126Z</time></trkpt><trkpt lat="44.0950377" lon="7.916894"><ele>854.0</ele><time>2026-05-03T08:37:38.126Z</time></trkpt><trkpt lat="44.0949451" lon="7.9169385"><ele>852.3333333333334</ele><time>2026-05-03T08:37:39.125Z</time></trkpt><trkpt lat="44.094847" lon="7.9169659"><ele>850.6666666666667</ele><time>2026-05-03T08:37:40.125Z</time></trkpt><trkpt lat="44.0947568" lon="7.9169881"><ele>849.0</ele><time>2026-05-03T08:37:41.125Z</time></trkpt><trkpt lat="44.0946723" lon="7.9170038"><ele>847.3333333333333</ele><time>2026-05-03T08:37:42.125Z</time></trkpt><trkpt lat="44.0945865" lon="7.9170087"><ele>845.6666666666666</ele><time>2026-05-03T08:37:43.126Z</time></trkpt><trkpt lat="44.0945116" lon="7.9170017"><ele>844.0</ele><time>2026-05-03T08:37:44.125Z</time></trkpt><trkpt lat="44.0944499" lon="7.9169741"><ele>844.0</ele><time>2026-05-03T08:37:45.125Z</time></trkpt><trkpt lat="44.0943712" lon="7.916862"><ele>844.0</ele><time>2026-05-03T08:37:47.126Z</time></trkpt><trkpt lat="44.0943821" lon="7.916694"><ele>844.0</ele><time>2026-05-03T08:37:49.125Z</time></trkpt><trkpt lat="44.0944551" lon="7.9166473"><ele>844.0</ele><time>2026-05-03T08:37:50.125Z</time></trkpt><trkpt lat="44.0945295" lon="7.9165989"><ele>844.0</ele><time>2026-05-03T08:37:51.125Z</time></trkpt><trkpt lat="44.0946235" lon="7.9165837"><ele>842.8333333333333</ele><time>2026-05-03T08:37:52.125Z</time></trkpt><trkpt lat="44.0947083" lon="7.9165474"><ele>841.6666666666666</ele><time>2026-05-03T08:37:53.125Z</time></trkpt><trkpt lat="44.0947843" lon="7.916489"><ele>840.5</ele><time>2026-05-03T08:37:54.125Z</time></trkpt><trkpt lat="44.094848" lon="7.9164033"><ele>839.3333333333333</ele><time>2026-05-03T08:37:55.126Z</time></trkpt><trkpt lat="44.0949" lon="7.9163076"><ele>838.1666666666666</ele><time>2026-05-03T08:37:56.125Z</time></trkpt><trkpt lat="44.0949472" lon="7.9162326"><ele>837.0</ele><time>2026-05-03T08:37:57.125Z</time></trkpt><trkpt lat="44.094994" lon="7.9161647"><ele>837.0</ele><time>2026-05-03T08:37:58.125Z</time></trkpt><trkpt lat="44.0949897" lon="7.9160524"><ele>837.0</ele><time>2026-05-03T08:38:00.125Z</time></trkpt><trkpt lat="44.0949348" lon="7.9159769"><ele>837.0</ele><time>2026-05-03T08:38:02.125Z</time></trkpt><trkpt lat="44.0948237" lon="7.9159197"><ele>837.0</ele><time>2026-05-03T08:38:04.125Z</time></trkpt><trkpt lat="44.0946959" lon="7.9158633"><ele>837.0</ele><time>2026-05-03T08:38:05.125Z</time></trkpt><trkpt lat="44.0945596" lon="7.9158022"><ele>831.25</ele><time>2026-05-03T08:38:06.125Z</time></trkpt><trkpt lat="44.0944323" lon="7.9157185"><ele>825.5</ele><time>2026-05-03T08:38:07.125Z</time></trkpt><trkpt lat="44.0943246" lon="7.9156306"><ele>819.75</ele><time>2026-05-03T08:38:08.125Z</time></trkpt><trkpt lat="44.0942253" lon="7.9155481"><ele>814.0</ele><time>2026-05-03T08:38:09.125Z</time></trkpt><trkpt lat="44.0941658" lon="7.9154773"><ele>812.9999999999999</ele><time>2026-05-03T08:38:10.125Z</time></trkpt><trkpt lat="44.0940792" lon="7.9154228"><ele>812.0</ele><time>2026-05-03T08:38:11.125Z</time></trkpt><trkpt lat="44.0940678" lon="7.9153315"><ele>811.0</ele><time>2026-05-03T08:38:12.126Z</time></trkpt><trkpt lat="44.0940572" lon="7.9152406"><ele>810.0</ele><time>2026-05-03T08:38:13.125Z</time></trkpt><trkpt lat="44.0940763" lon="7.9151495"><ele>808.9999999999999</ele><time>2026-05-03T08:38:14.126Z</time></trkpt><trkpt lat="44.0940937" lon="7.9150599"><ele>808.0</ele><time>2026-05-03T08:38:15.125Z</time></trkpt><trkpt lat="44.0941468" lon="7.9149029"><ele>808.0</ele><time>2026-05-03T08:38:16.125Z</time></trkpt><trkpt lat="44.0942035" lon="7.9147756"><ele>808.0</ele><time>2026-05-03T08:38:17.125Z</time></trkpt><trkpt lat="44.0942613" lon="7.9146625"><ele>808.0</ele><time>2026-05-03T08:38:18.125Z</time></trkpt><trkpt lat="44.0943352" lon="7.9145443"><ele>808.0</ele><time>2026-05-03T08:38:19.126Z</time></trkpt><trkpt lat="44.0944134" lon="7.9144633"><ele>808.0</ele><time>2026-05-03T08:38:20.125Z</time></trkpt><trkpt lat="44.0944951" lon="7.9143792"><ele>808.0</ele><time>2026-05-03T08:38:21.125Z</time></trkpt><trkpt lat="44.0946094" lon="7.9144033"><ele>808.0</ele><time>2026-05-03T08:38:22.125Z</time></trkpt><trkpt lat="44.0946996" lon="7.9143675"><ele>808.0</ele><time>2026-05-03T08:38:23.126Z</time></trkpt><trkpt lat="44.094806" lon="7.9143558"><ele>808.0</ele><time>2026-05-03T08:38:24.125Z</time></trkpt><trkpt lat="44.094914" lon="7.9143448"><ele>808.0</ele><time>2026-05-03T08:38:25.125Z</time></trkpt><trkpt lat="44.0950215" lon="7.914333"><ele>810.6666666666666</ele><time>2026-05-03T08:38:26.125Z</time></trkpt><trkpt lat="44.0951262" lon="7.9143335"><ele>813.3333333333333</ele><time>2026-05-03T08:38:27.125Z</time></trkpt><trkpt lat="44.0952199" lon="7.9143419"><ele>816.0</ele><time>2026-05-03T08:38:28.125Z</time></trkpt><trkpt lat="44.0952886" lon="7.9143358"><ele>818.6666666666667</ele><time>2026-05-03T08:38:29.125Z</time></trkpt><trkpt lat="44.0953463" lon="7.9142938"><ele>821.3333333333334</ele><time>2026-05-03T08:38:30.126Z</time></trkpt><trkpt lat="44.0954028" lon="7.9141838"><ele>824.0</ele><time>2026-05-03T08:38:32.125Z</time></trkpt><trkpt lat="44.0952923" lon="7.9141497"><ele>817.4000000000001</ele><time>2026-05-03T08:38:34.126Z</time></trkpt><trkpt lat="44.0952137" lon="7.91414"><ele>810.8</ele><time>2026-05-03T08:38:35.125Z</time></trkpt><trkpt lat="44.0951105" lon="7.9141418"><ele>804.2</ele><time>2026-05-03T08:38:36.125Z</time></trkpt><trkpt lat="44.0950035" lon="7.9141121"><ele>797.5999999999999</ele><time>2026-05-03T08:38:37.126Z</time></trkpt><trkpt lat="44.0948994" lon="7.914079"><ele>791.0</ele><time>2026-05-03T08:38:38.125Z</time></trkpt><trkpt lat="44.0947913" lon="7.9140252"><ele>790.5999999999999</ele><time>2026-05-03T08:38:39.125Z</time></trkpt><trkpt lat="44.0946806" lon="7.9139643"><ele>790.2</ele><time>2026-05-03T08:38:40.125Z</time></trkpt><trkpt lat="44.0945786" lon="7.913924"><ele>789.8</ele><time>2026-05-03T08:38:41.125Z</time></trkpt><trkpt lat="44.0944732" lon="7.9138946"><ele>789.4000000000001</ele><time>2026-05-03T08:38:42.126Z</time></trkpt><trkpt lat="44.0943815" lon="7.9138642"><ele>789.0</ele><time>2026-05-03T08:38:43.125Z</time></trkpt><trkpt lat="44.0942904" lon="7.9138335"><ele>789.0</ele><time>2026-05-03T08:38:44.125Z</time></trkpt><trkpt lat="44.0941944" lon="7.9137949"><ele>789.0</ele><time>2026-05-03T08:38:45.125Z</time></trkpt><trkpt lat="44.0941" lon="7.9137549"><ele>789.0</ele><time>2026-05-03T08:38:46.125Z</time></trkpt><trkpt lat="44.0940034" lon="7.9137118"><ele>789.0</ele><time>2026-05-03T08:38:47.125Z</time></trkpt><trkpt lat="44.0939159" lon="7.9136888"><ele>789.0</ele><time>2026-05-03T08:38:48.125Z</time></trkpt><trkpt lat="44.0938357" lon="7.9136756"><ele>786.6</ele><time>2026-05-03T08:38:49.125Z</time></trkpt><trkpt lat="44.0937382" lon="7.9136603"><ele>784.2</ele><time>2026-05-03T08:38:50.126Z</time></trkpt><trkpt lat="44.0936317" lon="7.9136407"><ele>781.8000000000001</ele><time>2026-05-03T08:38:51.125Z</time></trkpt><trkpt lat="44.0935266" lon="7.9136727"><ele>779.4000000000001</ele><time>2026-05-03T08:38:52.125Z</time></trkpt><trkpt lat="44.0934215" lon="7.9136857"><ele>777.0</ele><time>2026-05-03T08:38:53.125Z</time></trkpt><trkpt lat="44.0933012" lon="7.9136981"><ele>773.2</ele><time>2026-05-03T08:38:54.126Z</time></trkpt><trkpt lat="44.0932014" lon="7.9137072"><ele>769.4000000000001</ele><time>2026-05-03T08:38:55.125Z</time></trkpt><trkpt lat="44.093112" lon="7.9137176"><ele>765.5999999999999</ele><time>2026-05-03T08:38:56.125Z</time></trkpt><trkpt lat="44.0930332" lon="7.9137409"><ele>761.8</ele><time>2026-05-03T08:38:57.125Z</time></trkpt><trkpt lat="44.092943" lon="7.9137644"><ele>758.0</ele><time>2026-05-03T08:38:58.125Z</time></trkpt><trkpt lat="44.0928606" lon="7.9138053"><ele>758.0</ele><time>2026-05-03T08:38:59.126Z</time></trkpt><trkpt lat="44.0927759" lon="7.9138813"><ele>758.0</ele><time>2026-05-03T08:39:00.125Z</time></trkpt><trkpt lat="44.0926931" lon="7.9140182"><ele>758.0</ele><time>2026-05-03T08:39:01.125Z</time></trkpt><trkpt lat="44.0925973" lon="7.9141299"><ele>758.0</ele><time>2026-05-03T08:39:02.125Z</time></trkpt><trkpt lat="44.092487" lon="7.9142395"><ele>755.5</ele><time>2026-05-03T08:39:03.125Z</time></trkpt><trkpt lat="44.092387" lon="7.914328"><ele>753.0</ele><time>2026-05-03T08:39:04.125Z</time></trkpt><trkpt lat="44.0922738" lon="7.914433"><ele>750.5</ele><time>2026-05-03T08:39:05.125Z</time></trkpt><trkpt lat="44.0921747" lon="7.9145334"><ele>748.0</ele><time>2026-05-03T08:39:06.125Z</time></trkpt><trkpt lat="44.0920862" lon="7.9146309"><ele>748.0</ele><time>2026-05-03T08:39:07.125Z</time></trkpt><trkpt lat="44.0919786" lon="7.9147141"><ele>748.0</ele><time>2026-05-03T08:39:08.125Z</time></trkpt><trkpt lat="44.0918847" lon="7.9147785"><ele>748.0</ele><time>2026-05-03T08:39:09.125Z</time></trkpt><trkpt lat="44.0918027" lon="7.9148302"><ele>748.0</ele><time>2026-05-03T08:39:10.125Z</time></trkpt><trkpt lat="44.091739" lon="7.9148728"><ele>748.0</ele><time>2026-05-03T08:39:11.126Z</time></trkpt><trkpt lat="44.0916855" lon="7.9149529"><ele>748.0</ele><time>2026-05-03T08:39:12.126Z</time></trkpt><trkpt lat="44.0916468" lon="7.9150562"><ele>748.0</ele><time>2026-05-03T08:39:13.125Z</time></trkpt><trkpt lat="44.0916206" lon="7.9151731"><ele>748.0</ele><time>2026-05-03T08:39:14.126Z</time></trkpt><trkpt lat="44.0916132" lon="7.9153243"><ele>748.0</ele><time>2026-05-03T08:39:15.125Z</time></trkpt><trkpt lat="44.0916061" lon="7.9154732"><ele>748.0</ele><time>2026-05-03T08:39:16.126Z</time></trkpt><trkpt lat="44.0915837" lon="7.9156019"><ele>747.8333333333334</ele><time>2026-05-03T08:39:17.125Z</time></trkpt><trkpt lat="44.0915518" lon="7.9157075"><ele>747.6666666666667</ele><time>2026-05-03T08:39:18.126Z</time></trkpt><trkpt lat="44.0915089" lon="7.9157885"><ele>747.5</ele><time>2026-05-03T08:39:19.125Z</time></trkpt><trkpt lat="44.091449" lon="7.9158614"><ele>747.3333333333334</ele><time>2026-05-03T08:39:20.126Z</time></trkpt><trkpt lat="44.0913755" lon="7.9159033"><ele>747.1666666666666</ele><time>2026-05-03T08:39:21.125Z</time></trkpt><trkpt lat="44.0912905" lon="7.9159418"><ele>747.0</ele><time>2026-05-03T08:39:22.125Z</time></trkpt><trkpt lat="44.0911997" lon="7.9159638"><ele>747.0</ele><time>2026-05-03T08:39:23.125Z</time></trkpt><trkpt lat="44.0911129" lon="7.9159499"><ele>747.0</ele><time>2026-05-03T08:39:24.126Z</time></trkpt><trkpt lat="44.0910368" lon="7.9159254"><ele>747.0</ele><time>2026-05-03T08:39:25.125Z</time></trkpt><trkpt lat="44.0909776" lon="7.9158854"><ele>747.0</ele><time>2026-05-03T08:39:26.125Z</time></trkpt><trkpt lat="44.090935" lon="7.9157845"><ele>747.0</ele><time>2026-05-03T08:39:27.126Z</time></trkpt><trkpt lat="44.0908842" lon="7.915676"><ele>747.0</ele><time>2026-05-03T08:39:28.125Z</time></trkpt><trkpt lat="44.090864" lon="7.91553"><ele>745.2</ele><time>2026-05-03T08:39:29.125Z</time></trkpt><trkpt lat="44.0908422" lon="7.9153904"><ele>743.4000000000001</ele><time>2026-05-03T08:39:30.125Z</time></trkpt><trkpt lat="44.0908532" lon="7.9152508"><ele>741.5999999999999</ele><time>2026-05-03T08:39:31.125Z</time></trkpt><trkpt lat="44.0908705" lon="7.9151173"><ele>739.8</ele><time>2026-05-03T08:39:32.125Z</time></trkpt><trkpt lat="44.0909165" lon="7.9149906"><ele>738.0</ele><time>2026-05-03T08:39:33.126Z</time></trkpt><trkpt lat="44.0909572" lon="7.9148651"><ele>736.0</ele><time>2026-05-03T08:39:34.125Z</time></trkpt><trkpt lat="44.0910067" lon="7.9147617"><ele>734.0</ele><time>2026-05-03T08:39:35.126Z</time></trkpt><trkpt lat="44.0911413" lon="7.9147118"><ele>732.0</ele><time>2026-05-03T08:39:36.125Z</time></trkpt><trkpt lat="44.0912149" lon="7.9146067"><ele>730.0</ele><time>2026-05-03T08:39:37.126Z</time></trkpt><trkpt lat="44.0912895" lon="7.9145136"><ele>728.0</ele><time>2026-05-03T08:39:38.125Z</time></trkpt><trkpt lat="44.09134" lon="7.9144055"><ele>728.0</ele><time>2026-05-03T08:39:39.126Z</time></trkpt><trkpt lat="44.0913266" lon="7.914282"><ele>728.0</ele><time>2026-05-03T08:39:40.125Z</time></trkpt><trkpt lat="44.091293" lon="7.9141577"><ele>728.0</ele><time>2026-05-03T08:39:41.125Z</time></trkpt><trkpt lat="44.0912276" lon="7.9140506"><ele>728.0</ele><time>2026-05-03T08:39:42.125Z</time></trkpt><trkpt lat="44.0911586" lon="7.9139723"><ele>728.0</ele><time>2026-05-03T08:39:43.126Z</time></trkpt><trkpt lat="44.0910754" lon="7.9138868"><ele>725.2</ele><time>2026-05-03T08:39:44.125Z</time></trkpt><trkpt lat="44.0909995" lon="7.9137791"><ele>722.4</ele><time>2026-05-03T08:39:45.125Z</time></trkpt><trkpt lat="44.0909536" lon="7.9136468"><ele>719.6</ele><time>2026-05-03T08:39:46.125Z</time></trkpt><trkpt lat="44.0909141" lon="7.9135078"><ele>716.8000000000001</ele><time>2026-05-03T08:39:47.125Z</time></trkpt><trkpt lat="44.0909126" lon="7.9133697"><ele>714.0</ele><time>2026-05-03T08:39:48.125Z</time></trkpt><trkpt lat="44.0909425" lon="7.9132368"><ele>712.8000000000001</ele><time>2026-05-03T08:39:49.126Z</time></trkpt><trkpt lat="44.0910031" lon="7.9131126"><ele>711.6</ele><time>2026-05-03T08:39:50.125Z</time></trkpt><trkpt lat="44.0910901" lon="7.9130164"><ele>710.4</ele><time>2026-05-03T08:39:51.125Z</time></trkpt><trkpt lat="44.0911757" lon="7.9129398"><ele>709.2</ele><time>2026-05-03T08:39:52.125Z</time></trkpt><trkpt lat="44.0912417" lon="7.9128935"><ele>708.0</ele><time>2026-05-03T08:39:53.125Z</time></trkpt><trkpt lat="44.0912977" lon="7.9128273"><ele>708.0</ele><time>2026-05-03T08:39:54.125Z</time></trkpt><trkpt lat="44.0913381" lon="7.9127456"><ele>708.0</ele><time>2026-05-03T08:39:55.126Z</time></trkpt><trkpt lat="44.0912937" lon="7.9126056"><ele>708.0</ele><time>2026-05-03T08:39:57.125Z</time></trkpt><trkpt lat="44.0911615" lon="7.9126671"><ele>708.0</ele><time>2026-05-03T08:39:58.125Z</time></trkpt><trkpt lat="44.0910799" lon="7.912696"><ele>708.0</ele><time>2026-05-03T08:39:59.125Z</time></trkpt><trkpt lat="44.0909908" lon="7.9127502"><ele>708.0</ele><time>2026-05-03T08:40:00.126Z</time></trkpt><trkpt lat="44.090905" lon="7.9128316"><ele>708.0</ele><time>2026-05-03T08:40:01.126Z</time></trkpt><trkpt lat="44.0908094" lon="7.9129222"><ele>708.0</ele><time>2026-05-03T08:40:02.125Z</time></trkpt><trkpt lat="44.0907226" lon="7.9130047"><ele>708.0</ele><time>2026-05-03T08:40:03.125Z</time></trkpt><trkpt lat="44.0906184" lon="7.9130888"><ele>708.0</ele><time>2026-05-03T08:40:04.126Z</time></trkpt><trkpt lat="44.0905206" lon="7.91317"><ele>702.5</ele><time>2026-05-03T08:40:05.125Z</time></trkpt><trkpt lat="44.0904203" lon="7.913243"><ele>697.0</ele><time>2026-05-03T08:40:06.125Z</time></trkpt><trkpt lat="44.0903312" lon="7.9133468"><ele>691.5</ele><time>2026-05-03T08:40:07.126Z</time></trkpt><trkpt lat="44.0902737" lon="7.9134883"><ele>686.0</ele><time>2026-05-03T08:40:08.125Z</time></trkpt><trkpt lat="44.0902399" lon="7.913635"><ele>686.0</ele><time>2026-05-03T08:40:09.125Z</time></trkpt><trkpt lat="44.090222" lon="7.9137848"><ele>686.0</ele><time>2026-05-03T08:40:10.125Z</time></trkpt><trkpt lat="44.0902269" lon="7.9139336"><ele>686.0</ele><time>2026-05-03T08:40:11.125Z</time></trkpt><trkpt lat="44.0902546" lon="7.9140632"><ele>686.0</ele><time>2026-05-03T08:40:12.125Z</time></trkpt><trkpt lat="44.0902646" lon="7.9141694"><ele>686.0</ele><time>2026-05-03T08:40:13.126Z</time></trkpt><trkpt lat="44.0902366" lon="7.9142615"><ele>688.5</ele><time>2026-05-03T08:40:14.125Z</time></trkpt><trkpt lat="44.0901702" lon="7.9143257"><ele>691.0</ele><time>2026-05-03T08:40:15.126Z</time></trkpt><trkpt lat="44.0900748" lon="7.9143516"><ele>693.5</ele><time>2026-05-03T08:40:16.125Z</time></trkpt><trkpt lat="44.0899841" lon="7.9143789"><ele>696.0</ele><time>2026-05-03T08:40:17.125Z</time></trkpt><trkpt lat="44.0898977" lon="7.9143982"><ele>698.5</ele><time>2026-05-03T08:40:18.125Z</time></trkpt><trkpt lat="44.0898217" lon="7.9143959"><ele>701.0</ele><time>2026-05-03T08:40:19.126Z</time></trkpt><trkpt lat="44.0897528" lon="7.9143857"><ele>698.0</ele><time>2026-05-03T08:40:20.125Z</time></trkpt><trkpt lat="44.0897684" lon="7.9142463"><ele>695.0</ele><time>2026-05-03T08:40:22.125Z</time></trkpt><trkpt lat="44.0898871" lon="7.914189"><ele>692.0</ele><time>2026-05-03T08:40:24.125Z</time></trkpt><trkpt lat="44.089962" lon="7.9141766"><ele>689.0</ele><time>2026-05-03T08:40:25.125Z</time></trkpt><trkpt lat="44.0900374" lon="7.9141439"><ele>686.0</ele><time>2026-05-03T08:40:26.125Z</time></trkpt><trkpt lat="44.0900342" lon="7.9140247"><ele>686.0</ele><time>2026-05-03T08:40:27.125Z</time></trkpt><trkpt lat="44.0900151" lon="7.9139156"><ele>686.0</ele><time>2026-05-03T08:40:28.126Z</time></trkpt><trkpt lat="44.0899857" lon="7.9138142"><ele>686.0</ele><time>2026-05-03T08:40:29.125Z</time></trkpt><trkpt lat="44.089958" lon="7.913723"><ele>686.0</ele><time>2026-05-03T08:40:30.126Z</time></trkpt><trkpt lat="44.0899255" lon="7.9136295"><ele>686.0</ele><time>2026-05-03T08:40:31.125Z</time></trkpt><trkpt lat="44.0898862" lon="7.913549"><ele>686.0</ele><time>2026-05-03T08:40:32.125Z</time></trkpt><trkpt lat="44.0898496" lon="7.9134562"><ele>678.8</ele><time>2026-05-03T08:40:33.125Z</time></trkpt><trkpt lat="44.089822" lon="7.9133432"><ele>671.5999999999999</ele><time>2026-05-03T08:40:34.126Z</time></trkpt><trkpt lat="44.0898219" lon="7.9132162"><ele>664.4</ele><time>2026-05-03T08:40:35.125Z</time></trkpt><trkpt lat="44.0898374" lon="7.913089"><ele>657.2</ele><time>2026-05-03T08:40:36.126Z</time></trkpt><trkpt lat="44.0898671" lon="7.9129703"><ele>650.0</ele><time>2026-05-03T08:40:37.125Z</time></trkpt><trkpt lat="44.0899137" lon="7.9128513"><ele>653.5</ele><time>2026-05-03T08:40:38.125Z</time></trkpt><trkpt lat="44.0899825" lon="7.9127308"><ele>657.0</ele><time>2026-05-03T08:40:39.125Z</time></trkpt><trkpt lat="44.0900679" lon="7.9126146"><ele>660.5</ele><time>2026-05-03T08:40:40.125Z</time></trkpt><trkpt lat="44.0901624" lon="7.912496"><ele>664.0</ele><time>2026-05-03T08:40:41.126Z</time></trkpt><trkpt lat="44.0902617" lon="7.9123743"><ele>664.0</ele><time>2026-05-03T08:40:42.125Z</time></trkpt><trkpt lat="44.0903651" lon="7.912248"><ele>664.0</ele><time>2026-05-03T08:40:43.125Z</time></trkpt><trkpt lat="44.0904738" lon="7.9121195"><ele>664.0</ele><time>2026-05-03T08:40:44.125Z</time></trkpt><trkpt lat="44.0905803" lon="7.9119906"><ele>664.0</ele><time>2026-05-03T08:40:45.126Z</time></trkpt><trkpt lat="44.0906884" lon="7.9118715"><ele>662.0</ele><time>2026-05-03T08:40:46.125Z</time></trkpt><trkpt lat="44.0907971" lon="7.9117635"><ele>660.0</ele><time>2026-05-03T08:40:47.126Z</time></trkpt><trkpt lat="44.0909151" lon="7.9116785"><ele>658.0</ele><time>2026-05-03T08:40:48.126Z</time></trkpt><trkpt lat="44.091045" lon="7.9116023"><ele>656.0</ele><time>2026-05-03T08:40:49.125Z</time></trkpt><trkpt lat="44.0911806" lon="7.9115312"><ele>656.0</ele><time>2026-05-03T08:40:50.126Z</time></trkpt><trkpt lat="44.0913197" lon="7.9114579"><ele>656.0</ele><time>2026-05-03T08:40:51.125Z</time></trkpt><trkpt lat="44.0914576" lon="7.9113847"><ele>656.0</ele><time>2026-05-03T08:40:52.125Z</time></trkpt><trkpt lat="44.0915993" lon="7.9113233"><ele>656.0</ele><time>2026-05-03T08:40:53.126Z</time></trkpt><trkpt lat="44.0917427" lon="7.9112824"><ele>658.0</ele><time>2026-05-03T08:40:54.125Z</time></trkpt><trkpt lat="44.0918839" lon="7.9112555"><ele>660.0</ele><time>2026-05-03T08:40:55.126Z</time></trkpt><trkpt lat="44.0920037" lon="7.9112553"><ele>662.0</ele><time>2026-05-03T08:40:56.125Z</time></trkpt><trkpt lat="44.0920956" lon="7.9112346"><ele>664.0</ele><time>2026-05-03T08:40:57.126Z</time></trkpt><trkpt lat="44.0921758" lon="7.9111762"><ele>666.0</ele><time>2026-05-03T08:40:58.126Z</time></trkpt><trkpt lat="44.0922142" lon="7.9110963"><ele>666.0</ele><time>2026-05-03T08:40:59.125Z</time></trkpt><trkpt lat="44.0922357" lon="7.9110092"><ele>666.0</ele><time>2026-05-03T08:41:00.125Z</time></trkpt><trkpt lat="44.0921874" lon="7.9109483"><ele>666.0</ele><time>2026-05-03T08:41:01.125Z</time></trkpt><trkpt lat="44.0921094" lon="7.9108881"><ele>666.0</ele><time>2026-05-03T08:41:02.127Z</time></trkpt><trkpt lat="44.0920075" lon="7.9108643"><ele>666.0</ele><time>2026-05-03T08:41:03.125Z</time></trkpt><trkpt lat="44.0919016" lon="7.9108449"><ele>666.0</ele><time>2026-05-03T08:41:04.125Z</time></trkpt><trkpt lat="44.0917794" lon="7.9108513"><ele>661.1666666666666</ele><time>2026-05-03T08:41:05.125Z</time></trkpt><trkpt lat="44.0916672" lon="7.9108686"><ele>656.3333333333334</ele><time>2026-05-03T08:41:06.125Z</time></trkpt><trkpt lat="44.0915806" lon="7.9108839"><ele>651.5</ele><time>2026-05-03T08:41:07.125Z</time></trkpt><trkpt lat="44.0915122" lon="7.9108977"><ele>646.6666666666667</ele><time>2026-05-03T08:41:08.125Z</time></trkpt><trkpt lat="44.0914406" lon="7.9108809"><ele>641.8333333333334</ele><time>2026-05-03T08:41:10.125Z</time></trkpt><trkpt lat="44.0914003" lon="7.9108085"><ele>637.0</ele><time>2026-05-03T08:43:19.125Z</time></trkpt><trkpt lat="44.091319" lon="7.9107244"><ele>635.1666666666667</ele><time>2026-05-03T08:43:21.125Z</time></trkpt><trkpt lat="44.0912432" lon="7.9107212"><ele>633.3333333333334</ele><time>2026-05-03T08:43:22.125Z</time></trkpt><trkpt lat="44.0911509" lon="7.9107539"><ele>631.5</ele><time>2026-05-03T08:43:23.126Z</time></trkpt><trkpt lat="44.0910568" lon="7.910774"><ele>629.6666666666666</ele><time>2026-05-03T08:43:24.125Z</time></trkpt><trkpt lat="44.0909683" lon="7.9107728"><ele>627.8333333333333</ele><time>2026-05-03T08:43:25.125Z</time></trkpt><trkpt lat="44.090879" lon="7.9107564"><ele>626.0</ele><time>2026-05-03T08:43:26.125Z</time></trkpt><trkpt lat="44.0907842" lon="7.9107689"><ele>628.2</ele><time>2026-05-03T08:43:27.125Z</time></trkpt><trkpt lat="44.0906981" lon="7.9108188"><ele>630.4000000000001</ele><time>2026-05-03T08:43:28.125Z</time></trkpt><trkpt lat="44.090613" lon="7.9108846"><ele>632.6</ele><time>2026-05-03T08:43:29.125Z</time></trkpt><trkpt lat="44.0905255" lon="7.9109511"><ele>634.8000000000001</ele><time>2026-05-03T08:43:30.125Z</time></trkpt><trkpt lat="44.0904284" lon="7.9110115"><ele>637.0</ele><time>2026-05-03T08:43:31.125Z</time></trkpt><trkpt lat="44.0903157" lon="7.9110569"><ele>637.0</ele><time>2026-05-03T08:43:32.125Z</time></trkpt><trkpt lat="44.0901937" lon="7.9110906"><ele>637.0</ele><time>2026-05-03T08:43:33.125Z</time></trkpt><trkpt lat="44.0900734" lon="7.9111199"><ele>637.0</ele><time>2026-05-03T08:43:34.125Z</time></trkpt><trkpt lat="44.089953" lon="7.9111505"><ele>637.0</ele><time>2026-05-03T08:43:35.125Z</time></trkpt><trkpt lat="44.0898337" lon="7.911164"><ele>632.75</ele><time>2026-05-03T08:43:36.125Z</time></trkpt><trkpt lat="44.0897162" lon="7.9111601"><ele>628.5</ele><time>2026-05-03T08:43:37.125Z</time></trkpt><trkpt lat="44.0895984" lon="7.9111509"><ele>624.25</ele><time>2026-05-03T08:43:38.125Z</time></trkpt><trkpt lat="44.0894821" lon="7.9111462"><ele>620.0</ele><time>2026-05-03T08:43:39.125Z</time></trkpt><trkpt lat="44.0893573" lon="7.9111455"><ele>620.0</ele><time>2026-05-03T08:43:40.125Z</time></trkpt><trkpt lat="44.0892333" lon="7.9111789"><ele>620.0</ele><time>2026-05-03T08:43:41.125Z</time></trkpt><trkpt lat="44.0891209" lon="7.9112264"><ele>620.0</ele><time>2026-05-03T08:43:42.125Z</time></trkpt><trkpt lat="44.089026" lon="7.9112961"><ele>620.0</ele><time>2026-05-03T08:43:43.125Z</time></trkpt><trkpt lat="44.0889527" lon="7.9113885"><ele>616.25</ele><time>2026-05-03T08:43:44.125Z</time></trkpt><trkpt lat="44.0888894" lon="7.9114881"><ele>612.5</ele><time>2026-05-03T08:43:45.125Z</time></trkpt><trkpt lat="44.0888417" lon="7.9116342"><ele>608.75</ele><time>2026-05-03T08:43:46.125Z</time></trkpt><trkpt lat="44.0887902" lon="7.9117999"><ele>605.0</ele><time>2026-05-03T08:43:47.125Z</time></trkpt><trkpt lat="44.088741" lon="7.9119512"><ele>605.0</ele><time>2026-05-03T08:43:48.126Z</time></trkpt><trkpt lat="44.0886841" lon="7.9121029"><ele>605.0</ele><time>2026-05-03T08:43:49.125Z</time></trkpt><trkpt lat="44.088611" lon="7.912243"><ele>605.0</ele><time>2026-05-03T08:43:50.125Z</time></trkpt><trkpt lat="44.0885265" lon="7.9123797"><ele>605.0</ele><time>2026-05-03T08:43:51.126Z</time></trkpt><trkpt lat="44.0884413" lon="7.9125151"><ele>607.0</ele><time>2026-05-03T08:43:52.125Z</time></trkpt><trkpt lat="44.0883555" lon="7.9126374"><ele>609.0</ele><time>2026-05-03T08:43:53.125Z</time></trkpt><trkpt lat="44.0882766" lon="7.9127524"><ele>611.0</ele><time>2026-05-03T08:43:54.126Z</time></trkpt><trkpt lat="44.0881912" lon="7.9128498"><ele>613.0</ele><time>2026-05-03T08:43:55.125Z</time></trkpt><trkpt lat="44.0881077" lon="7.9129241"><ele>615.0</ele><time>2026-05-03T08:43:56.126Z</time></trkpt><trkpt lat="44.0880248" lon="7.9129816"><ele>612.2857142857142</ele><time>2026-05-03T08:43:57.125Z</time></trkpt><trkpt lat="44.0879648" lon="7.9130547"><ele>609.5714285714287</ele><time>2026-05-03T08:43:58.125Z</time></trkpt><trkpt lat="44.0879503" lon="7.9131493"><ele>606.8571428571429</ele><time>2026-05-03T08:43:59.125Z</time></trkpt><trkpt lat="44.0879302" lon="7.9132451"><ele>604.1428571428571</ele><time>2026-05-03T08:44:00.125Z</time></trkpt><trkpt lat="44.0879789" lon="7.9133234"><ele>601.4285714285713</ele><time>2026-05-03T08:44:01.125Z</time></trkpt><trkpt lat="44.0879858" lon="7.9134246"><ele>598.7142857142857</ele><time>2026-05-03T08:44:02.126Z</time></trkpt><trkpt lat="44.087969" lon="7.9135223"><ele>596.0</ele><time>2026-05-03T08:44:03.125Z</time></trkpt><trkpt lat="44.0879273" lon="7.913619"><ele>596.0</ele><time>2026-05-03T08:44:04.125Z</time></trkpt><trkpt lat="44.0878764" lon="7.9137218"><ele>596.0</ele><time>2026-05-03T08:44:05.126Z</time></trkpt><trkpt lat="44.0878249" lon="7.9138333"><ele>596.0</ele><time>2026-05-03T08:44:06.125Z</time></trkpt><trkpt lat="44.0877742" lon="7.913961"><ele>596.0</ele><time>2026-05-03T08:44:07.125Z</time></trkpt><trkpt lat="44.0877306" lon="7.9140888"><ele>596.0</ele><time>2026-05-03T08:44:08.126Z</time></trkpt><trkpt lat="44.087702" lon="7.9142202"><ele>596.6</ele><time>2026-05-03T08:44:09.125Z</time></trkpt><trkpt lat="44.0876765" lon="7.9143593"><ele>597.2</ele><time>2026-05-03T08:44:10.126Z</time></trkpt><trkpt lat="44.0876501" lon="7.9144893"><ele>597.8</ele><time>2026-05-03T08:44:11.125Z</time></trkpt><trkpt lat="44.0876184" lon="7.9146142"><ele>598.4</ele><time>2026-05-03T08:44:12.125Z</time></trkpt><trkpt lat="44.0875681" lon="7.9147223"><ele>599.0</ele><time>2026-05-03T08:44:13.125Z</time></trkpt><trkpt lat="44.0875031" lon="7.9148089"><ele>599.0</ele><time>2026-05-03T08:44:14.125Z</time></trkpt><trkpt lat="44.0874288" lon="7.914887"><ele>599.0</ele><time>2026-05-03T08:44:15.125Z</time></trkpt><trkpt lat="44.0873597" lon="7.9149714"><ele>599.0</ele><time>2026-05-03T08:44:16.126Z</time></trkpt><trkpt lat="44.0873207" lon="7.91508"><ele>599.0</ele><time>2026-05-03T08:44:17.125Z</time></trkpt><trkpt lat="44.0872863" lon="7.9151857"><ele>599.0</ele><time>2026-05-03T08:44:18.125Z</time></trkpt><trkpt lat="44.0873058" lon="7.9152949"><ele>599.0</ele><time>2026-05-03T08:44:19.126Z</time></trkpt><trkpt lat="44.0872949" lon="7.9154092"><ele>596.4</ele><time>2026-05-03T08:44:20.125Z</time></trkpt><trkpt lat="44.0872908" lon="7.9155452"><ele>593.8</ele><time>2026-05-03T08:44:21.126Z</time></trkpt><trkpt lat="44.08729" lon="7.9156892"><ele>591.2</ele><time>2026-05-03T08:44:22.125Z</time></trkpt><trkpt lat="44.0873175" lon="7.9158398"><ele>588.6</ele><time>2026-05-03T08:44:23.125Z</time></trkpt><trkpt lat="44.0873588" lon="7.9159971"><ele>586.0</ele><time>2026-05-03T08:44:24.125Z</time></trkpt><trkpt lat="44.0874081" lon="7.9161546"><ele>589.0</ele><time>2026-05-03T08:44:25.126Z</time></trkpt><trkpt lat="44.0874529" lon="7.9163236"><ele>592.0</ele><time>2026-05-03T08:44:26.125Z</time></trkpt><trkpt lat="44.0874697" lon="7.916497"><ele>595.0</ele><time>2026-05-03T08:44:27.125Z</time></trkpt><trkpt lat="44.0874592" lon="7.9166871"><ele>598.0</ele><time>2026-05-03T08:44:28.125Z</time></trkpt><trkpt lat="44.0874451" lon="7.9168655"><ele>602.6</ele><time>2026-05-03T08:44:29.127Z</time></trkpt><trkpt lat="44.0874206" lon="7.9170405"><ele>607.1999999999999</ele><time>2026-05-03T08:44:30.125Z</time></trkpt><trkpt lat="44.0873721" lon="7.9171797"><ele>611.8</ele><time>2026-05-03T08:44:31.126Z</time></trkpt><trkpt lat="44.0873135" lon="7.9172754"><ele>616.4</ele><time>2026-05-03T08:44:32.125Z</time></trkpt><trkpt lat="44.087233" lon="7.917322"><ele>621.0</ele><time>2026-05-03T08:44:33.126Z</time></trkpt><trkpt lat="44.0871501" lon="7.9173104"><ele>621.0</ele><time>2026-05-03T08:44:34.125Z</time></trkpt><trkpt lat="44.087089" lon="7.9172403"><ele>621.0</ele><time>2026-05-03T08:44:35.126Z</time></trkpt><trkpt lat="44.0870488" lon="7.9171455"><ele>621.0</ele><time>2026-05-03T08:44:36.125Z</time></trkpt><trkpt lat="44.0869837" lon="7.9170397"><ele>621.0</ele><time>2026-05-03T08:44:37.125Z</time></trkpt><trkpt lat="44.0869246" lon="7.9169194"><ele>621.0</ele><time>2026-05-03T08:44:38.125Z</time></trkpt><trkpt lat="44.0868109" lon="7.9168089"><ele>619.75</ele><time>2026-05-03T08:44:39.125Z</time></trkpt><trkpt lat="44.0867182" lon="7.9167009"><ele>618.5</ele><time>2026-05-03T08:44:40.125Z</time></trkpt><trkpt lat="44.0866014" lon="7.9165945"><ele>617.25</ele><time>2026-05-03T08:44:41.125Z</time></trkpt><trkpt lat="44.0864766" lon="7.9165088"><ele>616.0</ele><time>2026-05-03T08:44:42.126Z</time></trkpt><trkpt lat="44.0863433" lon="7.9164287"><ele>616.0</ele><time>2026-05-03T08:44:43.125Z</time></trkpt><trkpt lat="44.0862152" lon="7.9163571"><ele>616.0</ele><time>2026-05-03T08:44:44.125Z</time></trkpt><trkpt lat="44.0860778" lon="7.9162835"><ele>616.0</ele><time>2026-05-03T08:44:45.125Z</time></trkpt><trkpt lat="44.085943" lon="7.9161987"><ele>616.0</ele><time>2026-05-03T08:44:46.125Z</time></trkpt><trkpt lat="44.0858137" lon="7.9160978"><ele>617.6666666666667</ele><time>2026-05-03T08:44:47.125Z</time></trkpt><trkpt lat="44.0856825" lon="7.9159915"><ele>619.3333333333334</ele><time>2026-05-03T08:44:48.126Z</time></trkpt><trkpt lat="44.0855819" lon="7.9158411"><ele>621.0</ele><time>2026-05-03T08:44:49.125Z</time></trkpt><trkpt lat="44.0854559" lon="7.9157262"><ele>613.5</ele><time>2026-05-03T08:44:50.126Z</time></trkpt><trkpt lat="44.0853322" lon="7.9156152"><ele>606.0</ele><time>2026-05-03T08:44:51.125Z</time></trkpt><trkpt lat="44.0852257" lon="7.9155412"><ele>598.5</ele><time>2026-05-03T08:44:52.125Z</time></trkpt><trkpt lat="44.0851234" lon="7.9154531"><ele>591.0</ele><time>2026-05-03T08:44:53.125Z</time></trkpt><trkpt lat="44.0850149" lon="7.9153981"><ele>591.0</ele><time>2026-05-03T08:44:54.125Z</time></trkpt><trkpt lat="44.0849324" lon="7.9154009"><ele>591.0</ele><time>2026-05-03T08:44:55.125Z</time></trkpt><trkpt lat="44.0848442" lon="7.9153675"><ele>591.0</ele><time>2026-05-03T08:44:56.125Z</time></trkpt><trkpt lat="44.0847655" lon="7.9154202"><ele>591.0</ele><time>2026-05-03T08:44:57.125Z</time></trkpt><trkpt lat="44.0846808" lon="7.9156444"><ele>591.0</ele><time>2026-05-03T08:44:58.125Z</time></trkpt><trkpt lat="44.0845997" lon="7.915732"><ele>589.8333333333334</ele><time>2026-05-03T08:44:59.126Z</time></trkpt><trkpt lat="44.0845066" lon="7.9158175"><ele>588.6666666666666</ele><time>2026-05-03T08:45:00.125Z</time></trkpt><trkpt lat="44.0844246" lon="7.9158409"><ele>587.5</ele><time>2026-05-03T08:45:01.125Z</time></trkpt><trkpt lat="44.0843553" lon="7.9157963"><ele>586.3333333333333</ele><time>2026-05-03T08:45:02.125Z</time></trkpt><trkpt lat="44.0843007" lon="7.9157296"><ele>585.1666666666666</ele><time>2026-05-03T08:45:03.125Z</time></trkpt><trkpt lat="44.0842204" lon="7.9156624"><ele>584.0</ele><time>2026-05-03T08:45:04.125Z</time></trkpt><trkpt lat="44.0841331" lon="7.915639"><ele>583.4</ele><time>2026-05-03T08:45:05.125Z</time></trkpt><trkpt lat="44.0840435" lon="7.915682"><ele>582.8</ele><time>2026-05-03T08:45:06.125Z</time></trkpt><trkpt lat="44.0839496" lon="7.9157241"><ele>582.2</ele><time>2026-05-03T08:45:07.125Z</time></trkpt><trkpt lat="44.0838614" lon="7.9158052"><ele>581.6</ele><time>2026-05-03T08:45:08.126Z</time></trkpt><trkpt lat="44.0837904" lon="7.9158663"><ele>581.0</ele><time>2026-05-03T08:45:09.125Z</time></trkpt><trkpt lat="44.0837025" lon="7.9157206"><ele>581.0</ele><time>2026-05-03T08:45:10.126Z</time></trkpt><trkpt lat="44.0836452" lon="7.9156414"><ele>581.0</ele><time>2026-05-03T08:45:11.126Z</time></trkpt><trkpt lat="44.0835672" lon="7.9155431"><ele>581.0</ele><time>2026-05-03T08:45:12.125Z</time></trkpt><trkpt lat="44.0834604" lon="7.9155002"><ele>581.0</ele><time>2026-05-03T08:45:13.126Z</time></trkpt><trkpt lat="44.0833602" lon="7.9154917"><ele>581.0</ele><time>2026-05-03T08:45:14.125Z</time></trkpt><trkpt lat="44.0832394" lon="7.9155268"><ele>575.5</ele><time>2026-05-03T08:45:15.125Z</time></trkpt><trkpt lat="44.0831169" lon="7.9155444"><ele>570.0</ele><time>2026-05-03T08:45:16.126Z</time></trkpt><trkpt lat="44.0830066" lon="7.9155645"><ele>564.5</ele><time>2026-05-03T08:45:17.125Z</time></trkpt><trkpt lat="44.0828971" lon="7.9156149"><ele>559.0</ele><time>2026-05-03T08:45:18.125Z</time></trkpt><trkpt lat="44.0827936" lon="7.9156959"><ele>559.0</ele><time>2026-05-03T08:45:19.126Z</time></trkpt><trkpt lat="44.0826961" lon="7.9157994"><ele>559.0</ele><time>2026-05-03T08:45:20.125Z</time></trkpt><trkpt lat="44.0826128" lon="7.9159206"><ele>559.0</ele><time>2026-05-03T08:45:21.125Z</time></trkpt><trkpt lat="44.0825257" lon="7.9160522"><ele>559.0</ele><time>2026-05-03T08:45:22.125Z</time></trkpt><trkpt lat="44.0824425" lon="7.9161868"><ele>556.5</ele><time>2026-05-03T08:45:23.125Z</time></trkpt><trkpt lat="44.0823638" lon="7.9163232"><ele>554.0</ele><time>2026-05-03T08:45:24.125Z</time></trkpt><trkpt lat="44.0822854" lon="7.916458"><ele>551.5</ele><time>2026-05-03T08:45:25.125Z</time></trkpt><trkpt lat="44.0822057" lon="7.9165924"><ele>549.0</ele><time>2026-05-03T08:45:26.125Z</time></trkpt><trkpt lat="44.0821167" lon="7.9167173"><ele>556.25</ele><time>2026-05-03T08:45:27.126Z</time></trkpt><trkpt lat="44.0820211" lon="7.916834"><ele>563.5</ele><time>2026-05-03T08:45:28.126Z</time></trkpt><trkpt lat="44.0819242" lon="7.9169535"><ele>570.75</ele><time>2026-05-03T08:45:29.126Z</time></trkpt><trkpt lat="44.081824" lon="7.9170788"><ele>578.0</ele><time>2026-05-03T08:45:30.125Z</time></trkpt><trkpt lat="44.0817165" lon="7.9171799"><ele>578.0</ele><time>2026-05-03T08:45:31.125Z</time></trkpt><trkpt lat="44.0815989" lon="7.917257"><ele>578.0</ele><time>2026-05-03T08:45:32.126Z</time></trkpt><trkpt lat="44.0814791" lon="7.9173234"><ele>578.0</ele><time>2026-05-03T08:45:33.125Z</time></trkpt><trkpt lat="44.0813491" lon="7.9173744"><ele>578.0</ele><time>2026-05-03T08:45:34.125Z</time></trkpt><trkpt lat="44.0812136" lon="7.9174094"><ele>574.0</ele><time>2026-05-03T08:45:35.125Z</time></trkpt><trkpt lat="44.0810765" lon="7.9174152"><ele>570.0</ele><time>2026-05-03T08:45:36.125Z</time></trkpt><trkpt lat="44.0809415" lon="7.9174259"><ele>566.0</ele><time>2026-05-03T08:45:37.126Z</time></trkpt><trkpt lat="44.080806" lon="7.9174309"><ele>562.0</ele><time>2026-05-03T08:45:38.125Z</time></trkpt><trkpt lat="44.0806814" lon="7.917433"><ele>561.75</ele><time>2026-05-03T08:45:39.125Z</time></trkpt><trkpt lat="44.080557" lon="7.9174453"><ele>561.5</ele><time>2026-05-03T08:45:40.125Z</time></trkpt><trkpt lat="44.0804419" lon="7.9174609"><ele>561.25</ele><time>2026-05-03T08:45:41.125Z</time></trkpt><trkpt lat="44.0803218" lon="7.9175728"><ele>561.0</ele><time>2026-05-03T08:45:42.125Z</time></trkpt><trkpt lat="44.0802091" lon="7.9176437"><ele>561.0</ele><time>2026-05-03T08:45:43.125Z</time></trkpt><trkpt lat="44.0801086" lon="7.9177393"><ele>561.0</ele><time>2026-05-03T08:45:44.126Z</time></trkpt><trkpt lat="44.0800191" lon="7.9178469"><ele>561.0</ele><time>2026-05-03T08:45:45.125Z</time></trkpt><trkpt lat="44.0799227" lon="7.9179653"><ele>561.0</ele><time>2026-05-03T08:45:46.125Z</time></trkpt><trkpt lat="44.0798563" lon="7.91811"><ele>559.4</ele><time>2026-05-03T08:45:47.125Z</time></trkpt><trkpt lat="44.0797872" lon="7.9182488"><ele>557.8</ele><time>2026-05-03T08:45:48.125Z</time></trkpt><trkpt lat="44.079736" lon="7.9183725"><ele>556.1999999999999</ele><time>2026-05-03T08:45:49.125Z</time></trkpt><trkpt lat="44.079665" lon="7.9184421"><ele>554.6</ele><time>2026-05-03T08:45:50.125Z</time></trkpt><trkpt lat="44.0795908" lon="7.9184491"><ele>553.0</ele><time>2026-05-03T08:45:51.125Z</time></trkpt><trkpt lat="44.0795172" lon="7.9184493"><ele>553.0</ele><time>2026-05-03T08:45:52.125Z</time></trkpt><trkpt lat="44.0794383" lon="7.9183906"><ele>553.0</ele><time>2026-05-03T08:45:53.125Z</time></trkpt><trkpt lat="44.0793411" lon="7.9183617"><ele>553.0</ele><time>2026-05-03T08:45:54.125Z</time></trkpt><trkpt lat="44.0792401" lon="7.9183984"><ele>553.0</ele><time>2026-05-03T08:45:55.126Z</time></trkpt><trkpt lat="44.0791497" lon="7.9184388"><ele>553.0</ele><time>2026-05-03T08:45:56.125Z</time></trkpt><trkpt lat="44.0790619" lon="7.9184903"><ele>550.0</ele><time>2026-05-03T08:45:57.126Z</time></trkpt><trkpt lat="44.0789821" lon="7.9185535"><ele>547.0</ele><time>2026-05-03T08:45:58.125Z</time></trkpt><trkpt lat="44.0789154" lon="7.9186133"><ele>544.0</ele><time>2026-05-03T08:45:59.125Z</time></trkpt><trkpt lat="44.0788614" lon="7.9186675"><ele>541.0</ele><time>2026-05-03T08:46:00.125Z</time></trkpt><trkpt lat="44.0787711" lon="7.9186652"><ele>538.0</ele><time>2026-05-03T08:46:02.125Z</time></trkpt><trkpt lat="44.0787744" lon="7.9185283"><ele>535.0</ele><time>2026-05-03T08:46:04.125Z</time></trkpt><trkpt lat="44.0788127" lon="7.9184268"><ele>534.2</ele><time>2026-05-03T08:46:05.125Z</time></trkpt><trkpt lat="44.0788767" lon="7.9183091"><ele>533.4</ele><time>2026-05-03T08:46:06.125Z</time></trkpt><trkpt lat="44.0789412" lon="7.9181937"><ele>532.6</ele><time>2026-05-03T08:46:07.126Z</time></trkpt><trkpt lat="44.0790058" lon="7.9180833"><ele>531.8</ele><time>2026-05-03T08:46:08.126Z</time></trkpt><trkpt lat="44.0790923" lon="7.9180016"><ele>531.0</ele><time>2026-05-03T08:46:09.126Z</time></trkpt><trkpt lat="44.0791928" lon="7.9179581"><ele>534.0</ele><time>2026-05-03T08:46:10.125Z</time></trkpt><trkpt lat="44.0792892" lon="7.9179164"><ele>537.0</ele><time>2026-05-03T08:46:11.126Z</time></trkpt><trkpt lat="44.0793804" lon="7.9179339"><ele>540.0</ele><time>2026-05-03T08:46:12.125Z</time></trkpt><trkpt lat="44.0794689" lon="7.9179232"><ele>543.0</ele><time>2026-05-03T08:46:13.126Z</time></trkpt><trkpt lat="44.0795344" lon="7.9178214"><ele>546.0</ele><time>2026-05-03T08:46:14.125Z</time></trkpt><trkpt lat="44.0796153" lon="7.9178106"><ele>546.0</ele><time>2026-05-03T08:46:15.125Z</time></trkpt><trkpt lat="44.079679" lon="7.9177009"><ele>546.0</ele><time>2026-05-03T08:46:16.125Z</time></trkpt><trkpt lat="44.0797482" lon="7.9176098"><ele>546.0</ele><time>2026-05-03T08:46:17.125Z</time></trkpt><trkpt lat="44.0798296" lon="7.9175137"><ele>546.0</ele><time>2026-05-03T08:46:18.125Z</time></trkpt><trkpt lat="44.07991" lon="7.9174464"><ele>546.0</ele><time>2026-05-03T08:46:19.125Z</time></trkpt><trkpt lat="44.0799977" lon="7.9173382"><ele>545.5</ele><time>2026-05-03T08:46:20.125Z</time></trkpt><trkpt lat="44.0800916" lon="7.9172595"><ele>545.0</ele><time>2026-05-03T08:46:21.125Z</time></trkpt><trkpt lat="44.0801905" lon="7.9171798"><ele>544.5</ele><time>2026-05-03T08:46:22.125Z</time></trkpt><trkpt lat="44.0802969" lon="7.9171234"><ele>544.0</ele><time>2026-05-03T08:46:23.125Z</time></trkpt><trkpt lat="44.0804079" lon="7.9170782"><ele>544.0</ele><time>2026-05-03T08:46:24.126Z</time></trkpt><trkpt lat="44.0805336" lon="7.9170545"><ele>544.0</ele><time>2026-05-03T08:46:25.125Z</time></trkpt><trkpt lat="44.0806575" lon="7.9170418"><ele>544.0</ele><time>2026-05-03T08:46:26.125Z</time></trkpt><trkpt lat="44.0807816" lon="7.9170138"><ele>544.0</ele><time>2026-05-03T08:46:27.125Z</time></trkpt><trkpt lat="44.0808935" lon="7.9169477"><ele>548.5</ele><time>2026-05-03T08:46:28.125Z</time></trkpt><trkpt lat="44.0809825" lon="7.9168366"><ele>553.0</ele><time>2026-05-03T08:46:29.125Z</time></trkpt><trkpt lat="44.0810627" lon="7.9167245"><ele>557.5</ele><time>2026-05-03T08:46:30.125Z</time></trkpt><trkpt lat="44.0811536" lon="7.9166225"><ele>562.0</ele><time>2026-05-03T08:46:31.125Z</time></trkpt><trkpt lat="44.0812226" lon="7.9165048"><ele>552.75</ele><time>2026-05-03T08:46:32.125Z</time></trkpt><trkpt lat="44.0812792" lon="7.9163635"><ele>543.5</ele><time>2026-05-03T08:46:33.125Z</time></trkpt><trkpt lat="44.0813319" lon="7.9162208"><ele>534.25</ele><time>2026-05-03T08:46:34.125Z</time></trkpt><trkpt lat="44.0812613" lon="7.9160447"><ele>525.0</ele><time>2026-05-03T08:46:35.125Z</time></trkpt><trkpt lat="44.0812174" lon="7.9158844"><ele>519.5</ele><time>2026-05-03T08:46:36.125Z</time></trkpt><trkpt lat="44.0811606" lon="7.9157312"><ele>514.0</ele><time>2026-05-03T08:46:37.126Z</time></trkpt><trkpt lat="44.0811261" lon="7.9155906"><ele>508.5</ele><time>2026-05-03T08:46:38.125Z</time></trkpt><trkpt lat="44.0811034" lon="7.9154339"><ele>503.0</ele><time>2026-05-03T08:46:39.125Z</time></trkpt><trkpt lat="44.0810781" lon="7.915289"><ele>503.0</ele><time>2026-05-03T08:46:40.125Z</time></trkpt><trkpt lat="44.0810764" lon="7.9151597"><ele>502.99999999999994</ele><time>2026-05-03T08:46:41.125Z</time></trkpt><trkpt lat="44.081112" lon="7.915042"><ele>502.99999999999994</ele><time>2026-05-03T08:46:42.126Z</time></trkpt><trkpt lat="44.0811793" lon="7.9149711"><ele>503.0</ele><time>2026-05-03T08:46:43.125Z</time></trkpt><trkpt lat="44.0812621" lon="7.9149175"><ele>503.0</ele><time>2026-05-03T08:46:44.125Z</time></trkpt><trkpt lat="44.0813663" lon="7.914872"><ele>499.75</ele><time>2026-05-03T08:46:45.125Z</time></trkpt><trkpt lat="44.0814801" lon="7.9148301"><ele>496.5</ele><time>2026-05-03T08:46:46.125Z</time></trkpt><trkpt lat="44.081593" lon="7.9148157"><ele>493.25</ele><time>2026-05-03T08:46:47.125Z</time></trkpt><trkpt lat="44.0817092" lon="7.914809"><ele>490.0</ele><time>2026-05-03T08:46:48.125Z</time></trkpt><trkpt lat="44.0818312" lon="7.914785"><ele>496.75</ele><time>2026-05-03T08:46:49.125Z</time></trkpt><trkpt lat="44.0819541" lon="7.914739"><ele>503.5</ele><time>2026-05-03T08:46:50.125Z</time></trkpt><trkpt lat="44.0820776" lon="7.914672"><ele>510.25</ele><time>2026-05-03T08:46:51.125Z</time></trkpt><trkpt lat="44.0822019" lon="7.9145989"><ele>517.0</ele><time>2026-05-03T08:46:52.125Z</time></trkpt><trkpt lat="44.0823272" lon="7.9145183"><ele>520.75</ele><time>2026-05-03T08:46:53.126Z</time></trkpt><trkpt lat="44.0824643" lon="7.9144199"><ele>524.5</ele><time>2026-05-03T08:46:54.126Z</time></trkpt><trkpt lat="44.0825996" lon="7.9143364"><ele>528.25</ele><time>2026-05-03T08:46:55.125Z</time></trkpt><trkpt lat="44.0827285" lon="7.9142593"><ele>532.0</ele><time>2026-05-03T08:46:56.125Z</time></trkpt><trkpt lat="44.0828495" lon="7.9141414"><ele>527.0</ele><time>2026-05-03T08:46:57.125Z</time></trkpt><trkpt lat="44.0829627" lon="7.9140174"><ele>522.0</ele><time>2026-05-03T08:46:58.125Z</time></trkpt><trkpt lat="44.0830658" lon="7.913922"><ele>517.0</ele><time>2026-05-03T08:46:59.125Z</time></trkpt><trkpt lat="44.083166" lon="7.9139118"><ele>512.0</ele><time>2026-05-03T08:47:00.125Z</time></trkpt><trkpt lat="44.0832724" lon="7.9138945"><ele>512.0</ele><time>2026-05-03T08:47:01.125Z</time></trkpt><trkpt lat="44.0833853" lon="7.9138715"><ele>512.0</ele><time>2026-05-03T08:47:02.125Z</time></trkpt><trkpt lat="44.0834762" lon="7.9138038"><ele>512.0</ele><time>2026-05-03T08:47:03.125Z</time></trkpt><trkpt lat="44.0835325" lon="7.9136814"><ele>512.0</ele><time>2026-05-03T08:47:04.125Z</time></trkpt><trkpt lat="44.0836025" lon="7.9135902"><ele>512.0</ele><time>2026-05-03T08:47:05.125Z</time></trkpt><trkpt lat="44.0836865" lon="7.9135158"><ele>511.99999999999994</ele><time>2026-05-03T08:47:06.125Z</time></trkpt><trkpt lat="44.0837469" lon="7.9134258"><ele>512.0</ele><time>2026-05-03T08:47:07.125Z</time></trkpt><trkpt lat="44.0838035" lon="7.9133116"><ele>512.0</ele><time>2026-05-03T08:47:08.125Z</time></trkpt><trkpt lat="44.08382" lon="7.9131842"><ele>512.0</ele><time>2026-05-03T08:47:09.126Z</time></trkpt><trkpt lat="44.0838067" lon="7.9130864"><ele>511.99999999999994</ele><time>2026-05-03T08:47:10.126Z</time></trkpt><trkpt lat="44.0837691" lon="7.9129835"><ele>512.0</ele><time>2026-05-03T08:47:11.125Z</time></trkpt><trkpt lat="44.0837182" lon="7.9129093"><ele>508.75</ele><time>2026-05-03T08:47:12.125Z</time></trkpt><trkpt lat="44.0835533" lon="7.9129897"><ele>505.5</ele><time>2026-05-03T08:47:13.125Z</time></trkpt><trkpt lat="44.0834543" lon="7.9129793"><ele>502.25</ele><time>2026-05-03T08:47:14.125Z</time></trkpt><trkpt lat="44.0833432" lon="7.9129805"><ele>499.0</ele><time>2026-05-03T08:47:15.125Z</time></trkpt><trkpt lat="44.0832127" lon="7.9129663"><ele>498.5</ele><time>2026-05-03T08:47:16.126Z</time></trkpt><trkpt lat="44.0831043" lon="7.9129369"><ele>498.0</ele><time>2026-05-03T08:47:17.125Z</time></trkpt><trkpt lat="44.0829876" lon="7.9129227"><ele>497.5</ele><time>2026-05-03T08:47:18.125Z</time></trkpt><trkpt lat="44.0828762" lon="7.912964"><ele>497.0</ele><time>2026-05-03T08:47:19.126Z</time></trkpt><trkpt lat="44.0827646" lon="7.9130433"><ele>497.0</ele><time>2026-05-03T08:47:20.126Z</time></trkpt><trkpt lat="44.0826613" lon="7.9131349"><ele>497.00000000000006</ele><time>2026-05-03T08:47:21.125Z</time></trkpt><trkpt lat="44.0825587" lon="7.9132316"><ele>497.00000000000006</ele><time>2026-05-03T08:47:22.125Z</time></trkpt><trkpt lat="44.0824663" lon="7.9132919"><ele>497.0</ele><time>2026-05-03T08:47:23.126Z</time></trkpt><trkpt lat="44.0823747" lon="7.9133408"><ele>497.0</ele><time>2026-05-03T08:47:24.125Z</time></trkpt><trkpt lat="44.0822837" lon="7.9133875"><ele>495.66666666666663</ele><time>2026-05-03T08:47:25.125Z</time></trkpt><trkpt lat="44.0821902" lon="7.9134226"><ele>494.3333333333333</ele><time>2026-05-03T08:47:26.126Z</time></trkpt><trkpt lat="44.0820985" lon="7.9134486"><ele>493.0</ele><time>2026-05-03T08:47:27.126Z</time></trkpt><trkpt lat="44.082009" lon="7.9134801"><ele>491.66666666666663</ele><time>2026-05-03T08:47:28.126Z</time></trkpt><trkpt lat="44.0819224" lon="7.9135061"><ele>490.3333333333333</ele><time>2026-05-03T08:47:29.126Z</time></trkpt><trkpt lat="44.0818448" lon="7.9135154"><ele>489.0</ele><time>2026-05-03T08:47:30.126Z</time></trkpt><trkpt lat="44.0817712" lon="7.9135126"><ele>489.0</ele><time>2026-05-03T08:47:31.125Z</time></trkpt><trkpt lat="44.0816958" lon="7.9134668"><ele>489.0</ele><time>2026-05-03T08:47:32.125Z</time></trkpt><trkpt lat="44.0816185" lon="7.9133819"><ele>489.0</ele><time>2026-05-03T08:47:33.125Z</time></trkpt><trkpt lat="44.0815388" lon="7.9133467"><ele>489.0</ele><time>2026-05-03T08:47:34.125Z</time></trkpt><trkpt lat="44.0814677" lon="7.913237"><ele>489.0</ele><time>2026-05-03T08:47:35.125Z</time></trkpt><trkpt lat="44.081392" lon="7.9131419"><ele>489.6</ele><time>2026-05-03T08:47:36.125Z</time></trkpt><trkpt lat="44.0813092" lon="7.913063"><ele>490.2</ele><time>2026-05-03T08:47:37.126Z</time></trkpt><trkpt lat="44.0812156" lon="7.9130173"><ele>490.80000000000007</ele><time>2026-05-03T08:47:38.125Z</time></trkpt><trkpt lat="44.0811172" lon="7.9129905"><ele>491.40000000000003</ele><time>2026-05-03T08:47:39.125Z</time></trkpt><trkpt lat="44.0810118" lon="7.9129747"><ele>492.0</ele><time>2026-05-03T08:47:40.126Z</time></trkpt><trkpt lat="44.0809142" lon="7.9129569"><ele>492.0</ele><time>2026-05-03T08:47:41.125Z</time></trkpt><trkpt lat="44.0808178" lon="7.9129725"><ele>492.00000000000006</ele><time>2026-05-03T08:47:42.125Z</time></trkpt><trkpt lat="44.0807269" lon="7.9129889"><ele>492.00000000000006</ele><time>2026-05-03T08:47:43.126Z</time></trkpt><trkpt lat="44.0806537" lon="7.9130696"><ele>492.0</ele><time>2026-05-03T08:47:44.126Z</time></trkpt><trkpt lat="44.0805699" lon="7.9131457"><ele>492.0</ele><time>2026-05-03T08:47:45.125Z</time></trkpt><trkpt lat="44.0804884" lon="7.9132958"><ele>493.0</ele><time>2026-05-03T08:47:46.126Z</time></trkpt><trkpt lat="44.0804438" lon="7.913374"><ele>494.0</ele><time>2026-05-03T08:47:47.125Z</time></trkpt><trkpt lat="44.0803818" lon="7.9134488"><ele>495.0</ele><time>2026-05-03T08:47:48.125Z</time></trkpt><trkpt lat="44.0803014" lon="7.9134573"><ele>496.0</ele><time>2026-05-03T08:47:49.126Z</time></trkpt><trkpt lat="44.0802376" lon="7.9134795"><ele>497.0</ele><time>2026-05-03T08:47:50.126Z</time></trkpt><trkpt lat="44.0801624" lon="7.9134746"><ele>498.0</ele><time>2026-05-03T08:47:51.125Z</time></trkpt><trkpt lat="44.0800689" lon="7.9135091"><ele>493.79999999999995</ele><time>2026-05-03T08:47:52.125Z</time></trkpt><trkpt lat="44.0799738" lon="7.9135795"><ele>489.59999999999997</ele><time>2026-05-03T08:47:53.126Z</time></trkpt><trkpt lat="44.0798799" lon="7.9136272"><ele>485.40000000000003</ele><time>2026-05-03T08:47:54.125Z</time></trkpt><trkpt lat="44.0797802" lon="7.9136357"><ele>481.20000000000005</ele><time>2026-05-03T08:47:55.125Z</time></trkpt><trkpt lat="44.0796647" lon="7.9136065"><ele>477.0</ele><time>2026-05-03T08:47:56.125Z</time></trkpt><trkpt lat="44.0795535" lon="7.9136004"><ele>477.0</ele><time>2026-05-03T08:47:57.125Z</time></trkpt><trkpt lat="44.0794268" lon="7.913601"><ele>477.0</ele><time>2026-05-03T08:47:58.125Z</time></trkpt><trkpt lat="44.0792973" lon="7.9135992"><ele>477.0</ele><time>2026-05-03T08:47:59.125Z</time></trkpt><trkpt lat="44.0791698" lon="7.913643"><ele>477.0</ele><time>2026-05-03T08:48:00.126Z</time></trkpt><trkpt lat="44.0790732" lon="7.9136492"><ele>474.20000000000005</ele><time>2026-05-03T08:48:01.126Z</time></trkpt><trkpt lat="44.0789998" lon="7.9136168"><ele>471.40000000000003</ele><time>2026-05-03T08:48:02.125Z</time></trkpt><trkpt lat="44.0789173" lon="7.9136131"><ele>468.59999999999997</ele><time>2026-05-03T08:48:03.126Z</time></trkpt><trkpt lat="44.0788585" lon="7.913572"><ele>465.79999999999995</ele><time>2026-05-03T08:48:04.125Z</time></trkpt><trkpt lat="44.0788727" lon="7.9134562"><ele>463.0</ele><time>2026-05-03T08:48:05.125Z</time></trkpt><trkpt lat="44.0790911" lon="7.9134248"><ele>471.75</ele><time>2026-05-03T08:48:08.125Z</time></trkpt><trkpt lat="44.0792894" lon="7.9132937"><ele>480.5</ele><time>2026-05-03T08:48:09.125Z</time></trkpt><trkpt lat="44.0793991" lon="7.9132542"><ele>489.25</ele><time>2026-05-03T08:48:10.125Z</time></trkpt><trkpt lat="44.0795016" lon="7.9132064"><ele>498.0</ele><time>2026-05-03T08:48:11.126Z</time></trkpt><trkpt lat="44.079563" lon="7.9131456"><ele>498.0</ele><time>2026-05-03T08:48:12.125Z</time></trkpt><trkpt lat="44.0795593" lon="7.913054"><ele>498.0</ele><time>2026-05-03T08:48:13.126Z</time></trkpt><trkpt lat="44.0794598" lon="7.9130485"><ele>498.0</ele><time>2026-05-03T08:48:15.125Z</time></trkpt><trkpt lat="44.0793987" lon="7.9130941"><ele>498.0</ele><time>2026-05-03T08:48:16.125Z</time></trkpt><trkpt lat="44.0793007" lon="7.9131535"><ele>498.0</ele><time>2026-05-03T08:48:17.125Z</time></trkpt><trkpt lat="44.0792088" lon="7.9131598"><ele>498.0</ele><time>2026-05-03T08:48:18.125Z</time></trkpt><trkpt lat="44.0791201" lon="7.91311"><ele>495.0</ele><time>2026-05-03T08:48:19.125Z</time></trkpt><trkpt lat="44.0790276" lon="7.9130233"><ele>491.99999999999994</ele><time>2026-05-03T08:48:20.125Z</time></trkpt><trkpt lat="44.0789869" lon="7.9129147"><ele>488.99999999999994</ele><time>2026-05-03T08:48:21.125Z</time></trkpt><trkpt lat="44.078952" lon="7.9127738"><ele>486.0</ele><time>2026-05-03T08:48:22.126Z</time></trkpt><trkpt lat="44.0789091" lon="7.9126133"><ele>483.0</ele><time>2026-05-03T08:48:23.125Z</time></trkpt><trkpt lat="44.0788772" lon="7.9124507"><ele>483.0</ele><time>2026-05-03T08:48:24.125Z</time></trkpt><trkpt lat="44.0788357" lon="7.9122601"><ele>483.0</ele><time>2026-05-03T08:48:25.125Z</time></trkpt><trkpt lat="44.0788011" lon="7.9120628"><ele>483.0</ele><time>2026-05-03T08:48:26.125Z</time></trkpt><trkpt lat="44.0787725" lon="7.9118776"><ele>483.0</ele><time>2026-05-03T08:48:27.125Z</time></trkpt><trkpt lat="44.078762" lon="7.9117076"><ele>486.59999999999997</ele><time>2026-05-03T08:48:28.126Z</time></trkpt><trkpt lat="44.0787816" lon="7.9115512"><ele>490.19999999999993</ele><time>2026-05-03T08:48:29.126Z</time></trkpt><trkpt lat="44.0788258" lon="7.9114158"><ele>493.8</ele><time>2026-05-03T08:48:30.126Z</time></trkpt><trkpt lat="44.0788444" lon="7.9113043"><ele>497.4</ele><time>2026-05-03T08:48:31.125Z</time></trkpt><trkpt lat="44.0788245" lon="7.911198"><ele>501.0</ele><time>2026-05-03T08:48:32.125Z</time></trkpt><trkpt lat="44.0787587" lon="7.9111101"><ele>501.0</ele><time>2026-05-03T08:48:33.125Z</time></trkpt><trkpt lat="44.078636" lon="7.9110769"><ele>501.0</ele><time>2026-05-03T08:48:34.125Z</time></trkpt><trkpt lat="44.0785048" lon="7.9110673"><ele>501.0</ele><time>2026-05-03T08:48:35.126Z</time></trkpt><trkpt lat="44.0783781" lon="7.911084"><ele>501.0</ele><time>2026-05-03T08:48:36.125Z</time></trkpt><trkpt lat="44.0782476" lon="7.9111452"><ele>501.25</ele><time>2026-05-03T08:48:37.125Z</time></trkpt><trkpt lat="44.0781072" lon="7.9112144"><ele>501.5</ele><time>2026-05-03T08:48:38.125Z</time></trkpt><trkpt lat="44.0779642" lon="7.9112694"><ele>501.75</ele><time>2026-05-03T08:48:39.126Z</time></trkpt><trkpt lat="44.0778255" lon="7.9112981"><ele>502.0</ele><time>2026-05-03T08:48:40.127Z</time></trkpt><trkpt lat="44.077686" lon="7.9113052"><ele>502.0</ele><time>2026-05-03T08:48:41.125Z</time></trkpt><trkpt lat="44.0775407" lon="7.9112975"><ele>502.0</ele><time>2026-05-03T08:48:42.126Z</time></trkpt><trkpt lat="44.0773926" lon="7.9112828"><ele>502.0</ele><time>2026-05-03T08:48:43.125Z</time></trkpt><trkpt lat="44.0772446" lon="7.911257"><ele>502.0</ele><time>2026-05-03T08:48:44.125Z</time></trkpt><trkpt lat="44.0771052" lon="7.9112078"><ele>504.0</ele><time>2026-05-03T08:48:45.125Z</time></trkpt><trkpt lat="44.0769841" lon="7.9111397"><ele>506.00000000000006</ele><time>2026-05-03T08:48:46.125Z</time></trkpt><trkpt lat="44.0768809" lon="7.9110925"><ele>508.00000000000006</ele><time>2026-05-03T08:48:47.125Z</time></trkpt><trkpt lat="44.0767865" lon="7.9111045"><ele>510.0</ele><time>2026-05-03T08:48:48.125Z</time></trkpt><trkpt lat="44.0767006" lon="7.9111711"><ele>512.0</ele><time>2026-05-03T08:48:49.125Z</time></trkpt><trkpt lat="44.0766147" lon="7.9112628"><ele>515.8000000000001</ele><time>2026-05-03T08:48:50.125Z</time></trkpt><trkpt lat="44.0765115" lon="7.9113335"><ele>519.6</ele><time>2026-05-03T08:48:51.126Z</time></trkpt><trkpt lat="44.0763945" lon="7.9113833"><ele>523.4000000000001</ele><time>2026-05-03T08:48:52.125Z</time></trkpt><trkpt lat="44.0762833" lon="7.9114137"><ele>527.2</ele><time>2026-05-03T08:48:53.125Z</time></trkpt><trkpt lat="44.0761973" lon="7.9113984"><ele>531.0</ele><time>2026-05-03T08:48:54.125Z</time></trkpt><trkpt lat="44.0761423" lon="7.9113255"><ele>531.0</ele><time>2026-05-03T08:48:55.125Z</time></trkpt><trkpt lat="44.076127" lon="7.9112201"><ele>531.0</ele><time>2026-05-03T08:48:56.125Z</time></trkpt><trkpt lat="44.0761593" lon="7.9111121"><ele>531.0</ele><time>2026-05-03T08:48:57.125Z</time></trkpt><trkpt lat="44.0762222" lon="7.9110215"><ele>531.0</ele><time>2026-05-03T08:48:58.125Z</time></trkpt><trkpt lat="44.0763143" lon="7.910965"><ele>531.0</ele><time>2026-05-03T08:48:59.126Z</time></trkpt><trkpt lat="44.0764284" lon="7.9109143"><ele>532.25</ele><time>2026-05-03T08:49:00.125Z</time></trkpt><trkpt lat="44.0765411" lon="7.9108432"><ele>533.5</ele><time>2026-05-03T08:49:01.125Z</time></trkpt><trkpt lat="44.076645" lon="7.9107541"><ele>534.75</ele><time>2026-05-03T08:49:02.125Z</time></trkpt><trkpt lat="44.0767204" lon="7.910639"><ele>536.0</ele><time>2026-05-03T08:49:03.125Z</time></trkpt><trkpt lat="44.0768009" lon="7.9105446"><ele>536.0</ele><time>2026-05-03T08:49:04.125Z</time></trkpt><trkpt lat="44.0769023" lon="7.9105029"><ele>536.0</ele><time>2026-05-03T08:49:05.125Z</time></trkpt><trkpt lat="44.0770223" lon="7.9105053"><ele>536.0</ele><time>2026-05-03T08:49:06.125Z</time></trkpt><trkpt lat="44.0771538" lon="7.9105234"><ele>536.0</ele><time>2026-05-03T08:49:07.125Z</time></trkpt><trkpt lat="44.0772856" lon="7.9105298"><ele>536.0</ele><time>2026-05-03T08:49:08.126Z</time></trkpt><trkpt lat="44.0774202" lon="7.910529"><ele>536.0</ele><time>2026-05-03T08:49:09.125Z</time></trkpt><trkpt lat="44.0775517" lon="7.910528"><ele>536.0</ele><time>2026-05-03T08:49:10.125Z</time></trkpt><trkpt lat="44.0776785" lon="7.9105341"><ele>536.0</ele><time>2026-05-03T08:49:11.125Z</time></trkpt><trkpt lat="44.0778008" lon="7.9105466"><ele>535.25</ele><time>2026-05-03T08:49:12.125Z</time></trkpt><trkpt lat="44.077929" lon="7.9105431"><ele>534.5</ele><time>2026-05-03T08:49:13.125Z</time></trkpt><trkpt lat="44.0780581" lon="7.9105053"><ele>533.75</ele><time>2026-05-03T08:49:14.125Z</time></trkpt><trkpt lat="44.0781859" lon="7.9104554"><ele>533.0</ele><time>2026-05-03T08:49:15.125Z</time></trkpt><trkpt lat="44.0783082" lon="7.9104009"><ele>532.8</ele><time>2026-05-03T08:49:16.125Z</time></trkpt><trkpt lat="44.078422" lon="7.9103536"><ele>532.5999999999999</ele><time>2026-05-03T08:49:17.126Z</time></trkpt><trkpt lat="44.0785187" lon="7.9103128"><ele>532.4000000000001</ele><time>2026-05-03T08:49:18.125Z</time></trkpt><trkpt lat="44.0785888" lon="7.9102471"><ele>532.2</ele><time>2026-05-03T08:49:19.125Z</time></trkpt><trkpt lat="44.078624" lon="7.9101383"><ele>532.0</ele><time>2026-05-03T08:49:20.127Z</time></trkpt><trkpt lat="44.0786398" lon="7.9100029"><ele>540.0</ele><time>2026-05-03T08:49:21.127Z</time></trkpt><trkpt lat="44.0786512" lon="7.9098495"><ele>548.0</ele><time>2026-05-03T08:49:22.126Z</time></trkpt><trkpt lat="44.0786875" lon="7.9096862"><ele>556.0</ele><time>2026-05-03T08:49:23.126Z</time></trkpt><trkpt lat="44.0787545" lon="7.909554"><ele>564.0</ele><time>2026-05-03T08:49:24.127Z</time></trkpt><trkpt lat="44.078835" lon="7.9094549"><ele>564.0</ele><time>2026-05-03T08:49:25.128Z</time></trkpt><trkpt lat="44.078927" lon="7.9093615"><ele>564.0</ele><time>2026-05-03T08:49:26.126Z</time></trkpt><trkpt lat="44.0790112" lon="7.9092486"><ele>564.0</ele><time>2026-05-03T08:49:27.126Z</time></trkpt><trkpt lat="44.0790928" lon="7.9091323"><ele>564.0</ele><time>2026-05-03T08:49:28.126Z</time></trkpt><trkpt lat="44.0791687" lon="7.9090306"><ele>564.2</ele><time>2026-05-03T08:49:29.126Z</time></trkpt><trkpt lat="44.0792448" lon="7.9089472"><ele>564.4</ele><time>2026-05-03T08:49:30.126Z</time></trkpt><trkpt lat="44.079341" lon="7.9088892"><ele>564.6</ele><time>2026-05-03T08:49:31.126Z</time></trkpt><trkpt lat="44.0793823" lon="7.9090003"><ele>564.8</ele><time>2026-05-03T08:49:32.127Z</time></trkpt><trkpt lat="44.0793886" lon="7.909164"><ele>565.0</ele><time>2026-05-03T08:49:33.126Z</time></trkpt><trkpt lat="44.0793559" lon="7.9093385"><ele>562.2</ele><time>2026-05-03T08:49:34.126Z</time></trkpt><trkpt lat="44.0793545" lon="7.9094766"><ele>559.4</ele><time>2026-05-03T08:49:35.126Z</time></trkpt><trkpt lat="44.0793992" lon="7.9095758"><ele>556.6</ele><time>2026-05-03T08:49:36.126Z</time></trkpt><trkpt lat="44.0795387" lon="7.909591"><ele>553.8</ele><time>2026-05-03T08:49:37.126Z</time></trkpt><trkpt lat="44.0796276" lon="7.9096754"><ele>551.0</ele><time>2026-05-03T08:49:38.127Z</time></trkpt><trkpt lat="44.079733" lon="7.9097405"><ele>551.0</ele><time>2026-05-03T08:49:39.127Z</time></trkpt><trkpt lat="44.0798499" lon="7.9097379"><ele>551.0</ele><time>2026-05-03T08:49:40.126Z</time></trkpt><trkpt lat="44.0799515" lon="7.9096861"><ele>551.0</ele><time>2026-05-03T08:49:41.127Z</time></trkpt><trkpt lat="44.0800528" lon="7.9095997"><ele>551.0</ele><time>2026-05-03T08:49:42.126Z</time></trkpt><trkpt lat="44.0801539" lon="7.9094883"><ele>552.5</ele><time>2026-05-03T08:49:43.126Z</time></trkpt><trkpt lat="44.0802575" lon="7.9093881"><ele>554.0</ele><time>2026-05-03T08:49:44.126Z</time></trkpt><trkpt lat="44.0803677" lon="7.9092749"><ele>555.5</ele><time>2026-05-03T08:49:45.126Z</time></trkpt><trkpt lat="44.0804679" lon="7.9091748"><ele>557.0</ele><time>2026-05-03T08:49:46.126Z</time></trkpt><trkpt lat="44.0805641" lon="7.9090939"><ele>559.0</ele><time>2026-05-03T08:49:47.127Z</time></trkpt><trkpt lat="44.0806612" lon="7.909033"><ele>561.0</ele><time>2026-05-03T08:49:48.126Z</time></trkpt><trkpt lat="44.0807615" lon="7.9090466"><ele>563.0</ele><time>2026-05-03T08:49:49.126Z</time></trkpt><trkpt lat="44.0808595" lon="7.9090589"><ele>565.0</ele><time>2026-05-03T08:49:50.126Z</time></trkpt><trkpt lat="44.0809299" lon="7.9090403"><ele>567.0</ele><time>2026-05-03T08:49:51.126Z</time></trkpt><trkpt lat="44.0809744" lon="7.9089764"><ele>569.0</ele><time>2026-05-03T08:49:52.126Z</time></trkpt><trkpt lat="44.0809718" lon="7.908814"><ele>569.0</ele><time>2026-05-03T08:49:54.126Z</time></trkpt><trkpt lat="44.0809545" lon="7.9087267"><ele>569.0</ele><time>2026-05-03T08:49:55.127Z</time></trkpt><trkpt lat="44.080837" lon="7.9087272"><ele>569.0</ele><time>2026-05-03T08:49:56.126Z</time></trkpt><trkpt lat="44.0807286" lon="7.9087028"><ele>569.0</ele><time>2026-05-03T08:49:57.126Z</time></trkpt><trkpt lat="44.0806222" lon="7.9086553"><ele>569.0</ele><time>2026-05-03T08:49:58.127Z</time></trkpt><trkpt lat="44.0804912" lon="7.9086171"><ele>569.0</ele><time>2026-05-03T08:49:59.127Z</time></trkpt><trkpt lat="44.0803789" lon="7.9085786"><ele>569.0</ele><time>2026-05-03T08:50:00.127Z</time></trkpt><trkpt lat="44.0802486" lon="7.9085394"><ele>569.0</ele><time>2026-05-03T08:50:01.126Z</time></trkpt><trkpt lat="44.080118" lon="7.9085171"><ele>569.0</ele><time>2026-05-03T08:50:02.126Z</time></trkpt><trkpt lat="44.0800061" lon="7.9085052"><ele>568.2</ele><time>2026-05-03T08:50:03.127Z</time></trkpt><trkpt lat="44.0799083" lon="7.9084796"><ele>567.4</ele><time>2026-05-03T08:50:04.126Z</time></trkpt><trkpt lat="44.0798231" lon="7.9084249"><ele>566.6</ele><time>2026-05-03T08:50:05.126Z</time></trkpt><trkpt lat="44.0798383" lon="7.9083082"><ele>565.8</ele><time>2026-05-03T08:50:06.127Z</time></trkpt><trkpt lat="44.0798643" lon="7.9081687"><ele>565.0</ele><time>2026-05-03T08:50:08.126Z</time></trkpt><trkpt lat="44.0799813" lon="7.908093"><ele>571.5</ele><time>2026-05-03T08:50:10.127Z</time></trkpt><trkpt lat="44.0801166" lon="7.9081101"><ele>578.0</ele><time>2026-05-03T08:50:11.126Z</time></trkpt><trkpt lat="44.0802624" lon="7.9081217"><ele>584.5</ele><time>2026-05-03T08:50:12.126Z</time></trkpt><trkpt lat="44.0804143" lon="7.9081084"><ele>591.0</ele><time>2026-05-03T08:50:13.126Z</time></trkpt><trkpt lat="44.0805546" lon="7.9080809"><ele>591.0</ele><time>2026-05-03T08:50:14.126Z</time></trkpt><trkpt lat="44.0806867" lon="7.9080254"><ele>591.0</ele><time>2026-05-03T08:50:15.126Z</time></trkpt><trkpt lat="44.0808195" lon="7.9079519"><ele>591.0</ele><time>2026-05-03T08:50:16.126Z</time></trkpt><trkpt lat="44.0809433" lon="7.9078952"><ele>591.0</ele><time>2026-05-03T08:50:17.126Z</time></trkpt><trkpt lat="44.081082" lon="7.9078973"><ele>592.5</ele><time>2026-05-03T08:50:18.127Z</time></trkpt><trkpt lat="44.0812256" lon="7.907933"><ele>594.0</ele><time>2026-05-03T08:50:19.126Z</time></trkpt><trkpt lat="44.0813574" lon="7.9079634"><ele>595.5</ele><time>2026-05-03T08:50:20.126Z</time></trkpt><trkpt lat="44.0814762" lon="7.9080001"><ele>597.0</ele><time>2026-05-03T08:50:21.126Z</time></trkpt><trkpt lat="44.0815732" lon="7.9080554"><ele>597.4</ele><time>2026-05-03T08:50:22.126Z</time></trkpt><trkpt lat="44.0816442" lon="7.908144"><ele>597.8000000000001</ele><time>2026-05-03T08:50:23.126Z</time></trkpt><trkpt lat="44.0816873" lon="7.9082662"><ele>598.2</ele><time>2026-05-03T08:50:24.126Z</time></trkpt><trkpt lat="44.0817" lon="7.908415"><ele>598.6</ele><time>2026-05-03T08:50:25.127Z</time></trkpt><trkpt lat="44.0817093" lon="7.9085585"><ele>599.0</ele><time>2026-05-03T08:50:26.127Z</time></trkpt><trkpt lat="44.0817373" lon="7.9086807"><ele>599.0</ele><time>2026-05-03T08:50:27.126Z</time></trkpt><trkpt lat="44.0817996" lon="7.9087855"><ele>599.0</ele><time>2026-05-03T08:50:28.126Z</time></trkpt><trkpt lat="44.0818977" lon="7.9088747"><ele>599.0</ele><time>2026-05-03T08:50:29.126Z</time></trkpt><trkpt lat="44.081981" lon="7.9089539"><ele>599.0</ele><time>2026-05-03T08:50:30.127Z</time></trkpt><trkpt lat="44.0820397" lon="7.9090144"><ele>599.0</ele><time>2026-05-03T08:50:31.126Z</time></trkpt><trkpt lat="44.0821026" lon="7.9090732"><ele>599.0</ele><time>2026-05-03T08:50:33.126Z</time></trkpt><trkpt lat="44.0820208" lon="7.9089721"><ele>599.0</ele><time>2026-05-03T08:50:39.126Z</time></trkpt><trkpt lat="44.0819572" lon="7.9089233"><ele>599.0</ele><time>2026-05-03T08:50:40.126Z</time></trkpt><trkpt lat="44.0818837" lon="7.9088529"><ele>599.0</ele><time>2026-05-03T08:50:41.127Z</time></trkpt><trkpt lat="44.0818127" lon="7.9087624"><ele>599.0</ele><time>2026-05-03T08:50:42.126Z</time></trkpt><trkpt lat="44.0817558" lon="7.9086648"><ele>599.0</ele><time>2026-05-03T08:50:43.127Z</time></trkpt><trkpt lat="44.0817167" lon="7.9085617"><ele>599.0</ele><time>2026-05-03T08:50:44.126Z</time></trkpt><trkpt lat="44.0816932" lon="7.9084528"><ele>599.0</ele><time>2026-05-03T08:50:45.126Z</time></trkpt><trkpt lat="44.0816942" lon="7.9083308"><ele>599.0</ele><time>2026-05-03T08:50:46.127Z</time></trkpt><trkpt lat="44.0817053" lon="7.9082107"><ele>599.0</ele><time>2026-05-03T08:50:47.127Z</time></trkpt><trkpt lat="44.0817005" lon="7.9081095"><ele>599.0</ele><time>2026-05-03T08:50:48.126Z</time></trkpt><trkpt lat="44.0816047" lon="7.9080004"><ele>598.6666666666666</ele><time>2026-05-03T08:50:50.126Z</time></trkpt><trkpt lat="44.0815325" lon="7.9079517"><ele>598.3333333333333</ele><time>2026-05-03T08:50:51.127Z</time></trkpt><trkpt lat="44.0814527" lon="7.9078935"><ele>598.0</ele><time>2026-05-03T08:50:52.126Z</time></trkpt><trkpt lat="44.0813697" lon="7.9078356"><ele>597.6666666666666</ele><time>2026-05-03T08:50:53.126Z</time></trkpt><trkpt lat="44.0812962" lon="7.9077646"><ele>597.3333333333334</ele><time>2026-05-03T08:50:54.127Z</time></trkpt><trkpt lat="44.0812248" lon="7.9076964"><ele>597.0</ele><time>2026-05-03T08:50:55.126Z</time></trkpt><trkpt lat="44.0811479" lon="7.9076383"><ele>597.0</ele><time>2026-05-03T08:50:56.127Z</time></trkpt><trkpt lat="44.0810566" lon="7.907609"><ele>597.0</ele><time>2026-05-03T08:50:57.127Z</time></trkpt><trkpt lat="44.0809479" lon="7.9075937"><ele>597.0</ele><time>2026-05-03T08:50:58.126Z</time></trkpt><trkpt lat="44.0808356" lon="7.9075912"><ele>597.0</ele><time>2026-05-03T08:50:59.126Z</time></trkpt><trkpt lat="44.0807226" lon="7.907587"><ele>597.0</ele><time>2026-05-03T08:51:00.126Z</time></trkpt><trkpt lat="44.0806085" lon="7.907587"><ele>595.8000000000001</ele><time>2026-05-03T08:51:01.126Z</time></trkpt><trkpt lat="44.0805266" lon="7.9075995"><ele>594.6</ele><time>2026-05-03T08:51:02.126Z</time></trkpt><trkpt lat="44.0804177" lon="7.9075919"><ele>593.4000000000001</ele><time>2026-05-03T08:51:04.126Z</time></trkpt><trkpt lat="44.0803818" lon="7.9074912"><ele>592.2</ele><time>2026-05-03T08:51:06.126Z</time></trkpt><trkpt lat="44.0804466" lon="7.9074303"><ele>591.0</ele><time>2026-05-03T08:51:08.127Z</time></trkpt><trkpt lat="44.0805602" lon="7.907416"><ele>597.25</ele><time>2026-05-03T08:51:10.126Z</time></trkpt><trkpt lat="44.0806314" lon="7.9073996"><ele>603.5</ele><time>2026-05-03T08:51:11.126Z</time></trkpt><trkpt lat="44.0807564" lon="7.9073272"><ele>609.75</ele><time>2026-05-03T08:51:12.126Z</time></trkpt><trkpt lat="44.0808898" lon="7.9072483"><ele>616.0</ele><time>2026-05-03T08:51:13.127Z</time></trkpt><trkpt lat="44.0810127" lon="7.9071785"><ele>616.75</ele><time>2026-05-03T08:51:14.126Z</time></trkpt><trkpt lat="44.0811343" lon="7.9071203"><ele>617.5</ele><time>2026-05-03T08:51:15.126Z</time></trkpt><trkpt lat="44.0812489" lon="7.9070777"><ele>618.25</ele><time>2026-05-03T08:51:16.126Z</time></trkpt><trkpt lat="44.0813647" lon="7.9070511"><ele>619.0</ele><time>2026-05-03T08:51:17.126Z</time></trkpt><trkpt lat="44.0814785" lon="7.9070364"><ele>619.0</ele><time>2026-05-03T08:51:18.127Z</time></trkpt><trkpt lat="44.0815785" lon="7.9070497"><ele>619.0</ele><time>2026-05-03T08:51:19.126Z</time></trkpt><trkpt lat="44.0816663" lon="7.9070981"><ele>619.0</ele><time>2026-05-03T08:51:20.127Z</time></trkpt><trkpt lat="44.0817518" lon="7.9071611"><ele>619.0</ele><time>2026-05-03T08:51:21.126Z</time></trkpt><trkpt lat="44.0818425" lon="7.9072168"><ele>619.0</ele><time>2026-05-03T08:51:22.126Z</time></trkpt><trkpt lat="44.0819309" lon="7.9072589"><ele>620.6</ele><time>2026-05-03T08:51:23.126Z</time></trkpt><trkpt lat="44.0820289" lon="7.9072877"><ele>622.2</ele><time>2026-05-03T08:51:24.126Z</time></trkpt><trkpt lat="44.0821343" lon="7.9072965"><ele>623.8000000000001</ele><time>2026-05-03T08:51:25.126Z</time></trkpt><trkpt lat="44.0822515" lon="7.9072967"><ele>625.4</ele><time>2026-05-03T08:51:26.126Z</time></trkpt><trkpt lat="44.0823649" lon="7.9073055"><ele>627.0</ele><time>2026-05-03T08:51:27.127Z</time></trkpt><trkpt lat="44.082464" lon="7.907319"><ele>627.6666666666666</ele><time>2026-05-03T08:51:28.127Z</time></trkpt><trkpt lat="44.0825581" lon="7.9073432"><ele>628.3333333333334</ele><time>2026-05-03T08:51:29.126Z</time></trkpt><trkpt lat="44.0826179" lon="7.9073976"><ele>629.0</ele><time>2026-05-03T08:51:30.126Z</time></trkpt><trkpt lat="44.082646" lon="7.9074762"><ele>629.6666666666667</ele><time>2026-05-03T08:51:31.126Z</time></trkpt><trkpt lat="44.0826619" lon="7.9075626"><ele>630.3333333333334</ele><time>2026-05-03T08:51:32.127Z</time></trkpt><trkpt lat="44.082659" lon="7.9076719"><ele>631.0</ele><time>2026-05-03T08:51:33.127Z</time></trkpt><trkpt lat="44.0826558" lon="7.9077844"><ele>631.0</ele><time>2026-05-03T08:51:34.126Z</time></trkpt><trkpt lat="44.0826855" lon="7.9078869"><ele>631.0</ele><time>2026-05-03T08:51:35.126Z</time></trkpt><trkpt lat="44.082752" lon="7.9079794"><ele>631.0</ele><time>2026-05-03T08:51:36.126Z</time></trkpt><trkpt lat="44.0828179" lon="7.9080449"><ele>631.0</ele><time>2026-05-03T08:51:37.126Z</time></trkpt><trkpt lat="44.0828804" lon="7.9080984"><ele>631.0</ele><time>2026-05-03T08:51:38.126Z</time></trkpt><trkpt lat="44.0829527" lon="7.908143"><ele>631.0</ele><time>2026-05-03T08:51:39.126Z</time></trkpt><trkpt lat="44.083046" lon="7.9081589"><ele>631.0</ele><time>2026-05-03T08:51:40.127Z</time></trkpt><trkpt lat="44.083132" lon="7.9081807"><ele>631.0</ele><time>2026-05-03T08:51:41.126Z</time></trkpt><trkpt lat="44.083214" lon="7.9082047"><ele>631.0</ele><time>2026-05-03T08:51:42.126Z</time></trkpt><trkpt lat="44.0832883" lon="7.9082439"><ele>631.0</ele><time>2026-05-03T08:51:43.127Z</time></trkpt><trkpt lat="44.0833573" lon="7.9083001"><ele>631.0</ele><time>2026-05-03T08:51:44.126Z</time></trkpt><trkpt lat="44.0834191" lon="7.9083666"><ele>631.0</ele><time>2026-05-03T08:51:45.126Z</time></trkpt><trkpt lat="44.0834659" lon="7.9084399"><ele>631.3333333333334</ele><time>2026-05-03T08:51:46.126Z</time></trkpt><trkpt lat="44.0835127" lon="7.9085"><ele>631.6666666666667</ele><time>2026-05-03T08:51:47.126Z</time></trkpt><trkpt lat="44.0835707" lon="7.9085436"><ele>632.0</ele><time>2026-05-03T08:51:48.127Z</time></trkpt><trkpt lat="44.0836522" lon="7.9085794"><ele>632.3333333333334</ele><time>2026-05-03T08:51:49.127Z</time></trkpt><trkpt lat="44.0837272" lon="7.9085613"><ele>632.6666666666666</ele><time>2026-05-03T08:51:50.127Z</time></trkpt><trkpt lat="44.0837746" lon="7.9084101"><ele>633.0</ele><time>2026-05-03T08:51:51.127Z</time></trkpt><trkpt lat="44.0838188" lon="7.9082609"><ele>638.0</ele><time>2026-05-03T08:51:52.126Z</time></trkpt><trkpt lat="44.0838664" lon="7.9081306"><ele>643.0</ele><time>2026-05-03T08:51:53.126Z</time></trkpt><trkpt lat="44.0839299" lon="7.9080173"><ele>648.0</ele><time>2026-05-03T08:51:54.126Z</time></trkpt><trkpt lat="44.084" lon="7.9079293"><ele>653.0</ele><time>2026-05-03T08:51:55.126Z</time></trkpt><trkpt lat="44.0840762" lon="7.907839"><ele>658.0</ele><time>2026-05-03T08:51:56.126Z</time></trkpt><trkpt lat="44.0841515" lon="7.9077462"><ele>660.0</ele><time>2026-05-03T08:51:57.127Z</time></trkpt><trkpt lat="44.0842301" lon="7.9076535"><ele>662.0</ele><time>2026-05-03T08:51:58.126Z</time></trkpt><trkpt lat="44.0843033" lon="7.9075854"><ele>664.0</ele><time>2026-05-03T08:51:59.126Z</time></trkpt><trkpt lat="44.0843822" lon="7.9075281"><ele>666.0</ele><time>2026-05-03T08:52:00.127Z</time></trkpt><trkpt lat="44.0844439" lon="7.9074909"><ele>668.0</ele><time>2026-05-03T08:52:01.126Z</time></trkpt><trkpt lat="44.0844811" lon="7.9073411"><ele>671.0</ele><time>2026-05-03T08:52:03.126Z</time></trkpt><trkpt lat="44.0844516" lon="7.907202"><ele>674.0</ele><time>2026-05-03T08:52:05.126Z</time></trkpt><trkpt lat="44.084317" lon="7.9072399"><ele>677.0</ele><time>2026-05-03T08:52:07.126Z</time></trkpt><trkpt lat="44.0842344" lon="7.9073234"><ele>680.0</ele><time>2026-05-03T08:52:08.126Z</time></trkpt><trkpt lat="44.084149" lon="7.9074126"><ele>678.4</ele><time>2026-05-03T08:52:09.126Z</time></trkpt><trkpt lat="44.0840547" lon="7.9074808"><ele>676.8</ele><time>2026-05-03T08:52:10.127Z</time></trkpt><trkpt lat="44.0839604" lon="7.9075225"><ele>675.2</ele><time>2026-05-03T08:52:11.127Z</time></trkpt><trkpt lat="44.0838643" lon="7.9075433"><ele>673.6</ele><time>2026-05-03T08:52:12.126Z</time></trkpt><trkpt lat="44.0837824" lon="7.9075533"><ele>672.0</ele><time>2026-05-03T08:52:13.127Z</time></trkpt><trkpt lat="44.0837118" lon="7.907546"><ele>672.0</ele><time>2026-05-03T08:52:14.126Z</time></trkpt><trkpt lat="44.0836354" lon="7.9074551"><ele>672.0</ele><time>2026-05-03T08:52:16.126Z</time></trkpt><trkpt lat="44.0836835" lon="7.9073624"><ele>672.0</ele><time>2026-05-03T08:52:18.127Z</time></trkpt><trkpt lat="44.0837978" lon="7.907324"><ele>672.0</ele><time>2026-05-03T08:52:20.127Z</time></trkpt><trkpt lat="44.0838836" lon="7.9072959"><ele>672.0</ele><time>2026-05-03T08:52:21.126Z</time></trkpt><trkpt lat="44.0839561" lon="7.9072288"><ele>672.0</ele><time>2026-05-03T08:52:22.126Z</time></trkpt><trkpt lat="44.0840211" lon="7.9071309"><ele>672.0</ele><time>2026-05-03T08:52:23.126Z</time></trkpt><trkpt lat="44.084072" lon="7.9070188"><ele>672.0</ele><time>2026-05-03T08:52:24.126Z</time></trkpt><trkpt lat="44.0841004" lon="7.9068858"><ele>672.0</ele><time>2026-05-03T08:52:25.127Z</time></trkpt><trkpt lat="44.0841125" lon="7.9067539"><ele>672.0</ele><time>2026-05-03T08:52:26.126Z</time></trkpt><trkpt lat="44.0841183" lon="7.9066312"><ele>675.3333333333334</ele><time>2026-05-03T08:52:27.126Z</time></trkpt><trkpt lat="44.0841245" lon="7.9065146"><ele>678.6666666666666</ele><time>2026-05-03T08:52:28.127Z</time></trkpt><trkpt lat="44.0841349" lon="7.9063864"><ele>682.0</ele><time>2026-05-03T08:52:29.126Z</time></trkpt><trkpt lat="44.084169" lon="7.906276"><ele>685.3333333333333</ele><time>2026-05-03T08:52:30.126Z</time></trkpt><trkpt lat="44.0842224" lon="7.9061796"><ele>688.6666666666666</ele><time>2026-05-03T08:52:31.126Z</time></trkpt><trkpt lat="44.0842857" lon="7.9060908"><ele>692.0</ele><time>2026-05-03T08:52:32.127Z</time></trkpt><trkpt lat="44.0843487" lon="7.9060054"><ele>692.0</ele><time>2026-05-03T08:52:33.126Z</time></trkpt><trkpt lat="44.0844045" lon="7.9059226"><ele>692.0</ele><time>2026-05-03T08:52:34.126Z</time></trkpt><trkpt lat="44.0844579" lon="7.9058342"><ele>692.0</ele><time>2026-05-03T08:52:35.126Z</time></trkpt><trkpt lat="44.0844786" lon="7.9057143"><ele>692.0</ele><time>2026-05-03T08:52:36.127Z</time></trkpt><trkpt lat="44.0844914" lon="7.9055829"><ele>692.0</ele><time>2026-05-03T08:52:37.126Z</time></trkpt><trkpt lat="44.0845066" lon="7.9054788"><ele>692.0</ele><time>2026-05-03T08:52:38.126Z</time></trkpt><trkpt lat="44.0845739" lon="7.9053401"><ele>696.0</ele><time>2026-05-03T08:52:40.126Z</time></trkpt><trkpt lat="44.0847189" lon="7.9054233"><ele>700.0</ele><time>2026-05-03T08:52:43.126Z</time></trkpt><trkpt lat="44.0848931" lon="7.9056879"><ele>704.0</ele><time>2026-05-03T08:52:46.127Z</time></trkpt><trkpt lat="44.0849537" lon="7.905812"><ele>705.0</ele><time>2026-05-03T08:52:47.126Z</time></trkpt><trkpt lat="44.0850135" lon="7.9059153"><ele>706.0</ele><time>2026-05-03T08:52:48.126Z</time></trkpt><trkpt lat="44.0850838" lon="7.9059201"><ele>707.0</ele><time>2026-05-03T08:52:49.126Z</time></trkpt><trkpt lat="44.0851344" lon="7.9058627"><ele>708.0</ele><time>2026-05-03T08:52:50.127Z</time></trkpt><trkpt lat="44.0852267" lon="7.9056971"><ele>709.0</ele><time>2026-05-03T08:52:52.127Z</time></trkpt><trkpt lat="44.0852513" lon="7.9055548"><ele>709.0</ele><time>2026-05-03T08:52:53.126Z</time></trkpt><trkpt lat="44.0852733" lon="7.9054036"><ele>709.0</ele><time>2026-05-03T08:52:54.126Z</time></trkpt><trkpt lat="44.0853119" lon="7.9052538"><ele>709.0</ele><time>2026-05-03T08:52:55.126Z</time></trkpt><trkpt lat="44.0853492" lon="7.9051047"><ele>709.0</ele><time>2026-05-03T08:52:56.126Z</time></trkpt><trkpt lat="44.0853772" lon="7.9049531"><ele>712.2</ele><time>2026-05-03T08:52:57.124Z</time></trkpt><trkpt lat="44.0853946" lon="7.9048036"><ele>715.4000000000001</ele><time>2026-05-03T08:52:58.126Z</time></trkpt><trkpt lat="44.085399" lon="7.9046602"><ele>718.6</ele><time>2026-05-03T08:52:59.126Z</time></trkpt><trkpt lat="44.0854044" lon="7.9045122"><ele>721.8</ele><time>2026-05-03T08:53:00.126Z</time></trkpt><trkpt lat="44.085421" lon="7.9043856"><ele>725.0</ele><time>2026-05-03T08:53:01.126Z</time></trkpt><trkpt lat="44.0854666" lon="7.9042668"><ele>728.4</ele><time>2026-05-03T08:53:02.126Z</time></trkpt><trkpt lat="44.0855084" lon="7.9041541"><ele>731.8</ele><time>2026-05-03T08:53:03.126Z</time></trkpt><trkpt lat="44.0855462" lon="7.9040429"><ele>735.2</ele><time>2026-05-03T08:53:04.127Z</time></trkpt><trkpt lat="44.0855915" lon="7.9039321"><ele>738.6</ele><time>2026-05-03T08:53:05.127Z</time></trkpt><trkpt lat="44.0856532" lon="7.9038198"><ele>742.0</ele><time>2026-05-03T08:53:06.126Z</time></trkpt><trkpt lat="44.0857239" lon="7.9037136"><ele>743.2</ele><time>2026-05-03T08:53:07.126Z</time></trkpt><trkpt lat="44.0857999" lon="7.9036217"><ele>744.4000000000001</ele><time>2026-05-03T08:53:08.126Z</time></trkpt><trkpt lat="44.0858804" lon="7.9035289"><ele>745.5999999999999</ele><time>2026-05-03T08:53:09.126Z</time></trkpt><trkpt lat="44.085963" lon="7.9034281"><ele>746.8</ele><time>2026-05-03T08:53:10.126Z</time></trkpt><trkpt lat="44.0860494" lon="7.9033311"><ele>748.0</ele><time>2026-05-03T08:53:11.126Z</time></trkpt><trkpt lat="44.0861299" lon="7.9032465"><ele>748.0</ele><time>2026-05-03T08:53:12.126Z</time></trkpt><trkpt lat="44.0862214" lon="7.9032203"><ele>748.0</ele><time>2026-05-03T08:53:13.127Z</time></trkpt><trkpt lat="44.0863136" lon="7.9031973"><ele>748.0</ele><time>2026-05-03T08:53:14.126Z</time></trkpt><trkpt lat="44.0863977" lon="7.9031452"><ele>748.0</ele><time>2026-05-03T08:53:15.126Z</time></trkpt><trkpt lat="44.0864661" lon="7.9030567"><ele>748.0</ele><time>2026-05-03T08:53:16.126Z</time></trkpt><trkpt lat="44.0865287" lon="7.9029485"><ele>748.25</ele><time>2026-05-03T08:53:17.126Z</time></trkpt><trkpt lat="44.0865995" lon="7.9028446"><ele>748.5</ele><time>2026-05-03T08:53:18.127Z</time></trkpt><trkpt lat="44.0866737" lon="7.9027214"><ele>748.75</ele><time>2026-05-03T08:53:19.127Z</time></trkpt><trkpt lat="44.0867552" lon="7.9025924"><ele>749.0</ele><time>2026-05-03T08:53:20.126Z</time></trkpt><trkpt lat="44.0868196" lon="7.9024588"><ele>749.0</ele><time>2026-05-03T08:53:21.126Z</time></trkpt><trkpt lat="44.086871" lon="7.9023412"><ele>749.0</ele><time>2026-05-03T08:53:22.126Z</time></trkpt><trkpt lat="44.0869189" lon="7.902231"><ele>749.0</ele><time>2026-05-03T08:53:23.126Z</time></trkpt><trkpt lat="44.0869611" lon="7.902111"><ele>749.0</ele><time>2026-05-03T08:53:24.126Z</time></trkpt><trkpt lat="44.0869546" lon="7.9019549"><ele>749.0</ele><time>2026-05-03T08:53:25.126Z</time></trkpt><trkpt lat="44.0869241" lon="7.9017866"><ele>752.8000000000001</ele><time>2026-05-03T08:53:26.127Z</time></trkpt><trkpt lat="44.0869074" lon="7.9016206"><ele>756.6</ele><time>2026-05-03T08:53:27.126Z</time></trkpt><trkpt lat="44.0869061" lon="7.9014583"><ele>760.4</ele><time>2026-05-03T08:53:28.127Z</time></trkpt><trkpt lat="44.0869178" lon="7.901317"><ele>764.2</ele><time>2026-05-03T08:53:29.127Z</time></trkpt><trkpt lat="44.0869389" lon="7.9012182"><ele>768.0</ele><time>2026-05-03T08:53:30.126Z</time></trkpt><trkpt lat="44.0869585" lon="7.9011327"><ele>768.0</ele><time>2026-05-03T08:53:31.126Z</time></trkpt><trkpt lat="44.0870484" lon="7.9010272"><ele>768.0</ele><time>2026-05-03T08:53:33.126Z</time></trkpt><trkpt lat="44.0871126" lon="7.9009903"><ele>768.0</ele><time>2026-05-03T08:53:34.126Z</time></trkpt><trkpt lat="44.0871539" lon="7.9009167"><ele>768.0</ele><time>2026-05-03T08:53:35.126Z</time></trkpt><trkpt lat="44.0871341" lon="7.9007429"><ele>768.0</ele><time>2026-05-03T08:53:37.126Z</time></trkpt><trkpt lat="44.0870527" lon="7.9006315"><ele>771.2</ele><time>2026-05-03T08:53:38.126Z</time></trkpt><trkpt lat="44.0869708" lon="7.9005191"><ele>774.4</ele><time>2026-05-03T08:53:39.126Z</time></trkpt><trkpt lat="44.0868995" lon="7.900403"><ele>777.6</ele><time>2026-05-03T08:53:40.126Z</time></trkpt><trkpt lat="44.086842" lon="7.9003053"><ele>780.8000000000001</ele><time>2026-05-03T08:53:41.126Z</time></trkpt><trkpt lat="44.0867994" lon="7.9002205"><ele>784.0</ele><time>2026-05-03T08:53:42.126Z</time></trkpt><trkpt lat="44.0867593" lon="7.9001365"><ele>785.4999999999999</ele><time>2026-05-03T08:53:43.127Z</time></trkpt><trkpt lat="44.0867725" lon="7.900045"><ele>787.0</ele><time>2026-05-03T08:53:44.127Z</time></trkpt><trkpt lat="44.0868166" lon="7.8999482"><ele>788.5</ele><time>2026-05-03T08:53:45.126Z</time></trkpt><trkpt lat="44.0868691" lon="7.8998539"><ele>790.0</ele><time>2026-05-03T08:53:46.127Z</time></trkpt><trkpt lat="44.0869418" lon="7.8997757"><ele>791.4999999999999</ele><time>2026-05-03T08:53:47.126Z</time></trkpt><trkpt lat="44.0870248" lon="7.8997251"><ele>793.0</ele><time>2026-05-03T08:53:48.126Z</time></trkpt><trkpt lat="44.0871125" lon="7.8996811"><ele>793.0</ele><time>2026-05-03T08:53:49.127Z</time></trkpt><trkpt lat="44.0871944" lon="7.8996316"><ele>793.0</ele><time>2026-05-03T08:53:50.126Z</time></trkpt><trkpt lat="44.0872665" lon="7.8995358"><ele>793.0</ele><time>2026-05-03T08:53:51.126Z</time></trkpt><trkpt lat="44.0873311" lon="7.8994219"><ele>793.0</ele><time>2026-05-03T08:53:52.126Z</time></trkpt><trkpt lat="44.0873795" lon="7.8993099"><ele>793.0</ele><time>2026-05-03T08:53:53.126Z</time></trkpt><trkpt lat="44.08743" lon="7.8992042"><ele>789.4999999999999</ele><time>2026-05-03T08:53:54.126Z</time></trkpt><trkpt lat="44.0874995" lon="7.8991241"><ele>786.0</ele><time>2026-05-03T08:53:55.126Z</time></trkpt><trkpt lat="44.0875651" lon="7.8990668"><ele>782.5</ele><time>2026-05-03T08:53:56.126Z</time></trkpt><trkpt lat="44.0876169" lon="7.899005"><ele>779.0</ele><time>2026-05-03T08:53:57.126Z</time></trkpt><trkpt lat="44.0876334" lon="7.898912"><ele>775.4999999999999</ele><time>2026-05-03T08:53:58.127Z</time></trkpt><trkpt lat="44.0876311" lon="7.8988114"><ele>772.0</ele><time>2026-05-03T08:53:59.126Z</time></trkpt><trkpt lat="44.0876125" lon="7.8986871"><ele>771.9999999999999</ele><time>2026-05-03T08:54:00.126Z</time></trkpt><trkpt lat="44.0875932" lon="7.8985403"><ele>772.0</ele><time>2026-05-03T08:54:01.126Z</time></trkpt><trkpt lat="44.0875954" lon="7.8984087"><ele>772.0</ele><time>2026-05-03T08:54:02.126Z</time></trkpt><trkpt lat="44.0876092" lon="7.8982971"><ele>772.0</ele><time>2026-05-03T08:54:03.127Z</time></trkpt><trkpt lat="44.0876333" lon="7.8982001"><ele>771.9999999999999</ele><time>2026-05-03T08:54:04.127Z</time></trkpt><trkpt lat="44.0876697" lon="7.8981142"><ele>772.0</ele><time>2026-05-03T08:54:05.126Z</time></trkpt><trkpt lat="44.0877234" lon="7.8980434"><ele>775.3333333333333</ele><time>2026-05-03T08:54:06.126Z</time></trkpt><trkpt lat="44.0878006" lon="7.8979882"><ele>778.6666666666666</ele><time>2026-05-03T08:54:07.126Z</time></trkpt><trkpt lat="44.087834" lon="7.8979129"><ele>782.0</ele><time>2026-05-03T08:54:08.127Z</time></trkpt><trkpt lat="44.0878478" lon="7.8978065"><ele>785.3333333333333</ele><time>2026-05-03T08:54:09.127Z</time></trkpt><trkpt lat="44.0878639" lon="7.8976915"><ele>788.6666666666666</ele><time>2026-05-03T08:54:10.126Z</time></trkpt><trkpt lat="44.0878763" lon="7.8975743"><ele>792.0</ele><time>2026-05-03T08:54:11.126Z</time></trkpt><trkpt lat="44.0878654" lon="7.8974627"><ele>795.5</ele><time>2026-05-03T08:54:12.127Z</time></trkpt><trkpt lat="44.0878412" lon="7.8973601"><ele>799.0</ele><time>2026-05-03T08:54:13.127Z</time></trkpt><trkpt lat="44.0878203" lon="7.897274"><ele>802.5</ele><time>2026-05-03T08:54:14.126Z</time></trkpt><trkpt lat="44.0878204" lon="7.8971549"><ele>806.0</ele><time>2026-05-03T08:54:16.126Z</time></trkpt><trkpt lat="44.0878962" lon="7.8970333"><ele>809.5</ele><time>2026-05-03T08:54:18.126Z</time></trkpt><trkpt lat="44.0879261" lon="7.8969538"><ele>813.0</ele><time>2026-05-03T08:54:19.127Z</time></trkpt><trkpt lat="44.0879517" lon="7.8968634"><ele>813.0</ele><time>2026-05-03T08:54:20.126Z</time></trkpt><trkpt lat="44.0879937" lon="7.8967857"><ele>813.0</ele><time>2026-05-03T08:54:21.126Z</time></trkpt><trkpt lat="44.0880317" lon="7.8967134"><ele>813.0</ele><time>2026-05-03T08:54:22.126Z</time></trkpt><trkpt lat="44.0881565" lon="7.896689"><ele>813.0</ele><time>2026-05-03T08:54:24.126Z</time></trkpt><trkpt lat="44.0882387" lon="7.8966708"><ele>813.0</ele><time>2026-05-03T08:54:25.127Z</time></trkpt><trkpt lat="44.0883128" lon="7.896619"><ele>813.0</ele><time>2026-05-03T08:54:26.126Z</time></trkpt><trkpt lat="44.0883912" lon="7.8965555"><ele>807.8</ele><time>2026-05-03T08:54:27.126Z</time></trkpt><trkpt lat="44.088467" lon="7.8964778"><ele>802.5999999999999</ele><time>2026-05-03T08:54:28.126Z</time></trkpt><trkpt lat="44.0885448" lon="7.8963669"><ele>797.4000000000001</ele><time>2026-05-03T08:54:29.126Z</time></trkpt><trkpt lat="44.0886108" lon="7.8962451"><ele>792.2</ele><time>2026-05-03T08:54:30.126Z</time></trkpt><trkpt lat="44.0886702" lon="7.8961255"><ele>787.0</ele><time>2026-05-03T08:54:31.126Z</time></trkpt><trkpt lat="44.0887128" lon="7.8960157"><ele>791.2857142857142</ele><time>2026-05-03T08:54:32.126Z</time></trkpt><trkpt lat="44.0887441" lon="7.8959027"><ele>795.5714285714286</ele><time>2026-05-03T08:54:33.126Z</time></trkpt><trkpt lat="44.0887441" lon="7.8957882"><ele>799.8571428571429</ele><time>2026-05-03T08:54:34.126Z</time></trkpt><trkpt lat="44.0887243" lon="7.8956923"><ele>804.1428571428571</ele><time>2026-05-03T08:54:35.127Z</time></trkpt><trkpt lat="44.0886959" lon="7.8956064"><ele>808.4285714285714</ele><time>2026-05-03T08:54:36.126Z</time></trkpt><trkpt lat="44.0886722" lon="7.8955231"><ele>812.7142857142857</ele><time>2026-05-03T08:54:37.127Z</time></trkpt><trkpt lat="44.0886585" lon="7.8954224"><ele>817.0</ele><time>2026-05-03T08:54:38.127Z</time></trkpt><trkpt lat="44.0886536" lon="7.8953199"><ele>817.0</ele><time>2026-05-03T08:54:39.126Z</time></trkpt><trkpt lat="44.0887238" lon="7.8952591"><ele>817.0</ele><time>2026-05-03T08:54:40.126Z</time></trkpt><trkpt lat="44.0887779" lon="7.895202"><ele>817.0</ele><time>2026-05-03T08:54:41.126Z</time></trkpt><trkpt lat="44.0888739" lon="7.8951697"><ele>817.0</ele><time>2026-05-03T08:54:42.126Z</time></trkpt><trkpt lat="44.0889714" lon="7.8951106"><ele>817.0</ele><time>2026-05-03T08:54:43.126Z</time></trkpt><trkpt lat="44.0890576" lon="7.8950465"><ele>812.0</ele><time>2026-05-03T08:54:44.127Z</time></trkpt><trkpt lat="44.0891408" lon="7.8949317"><ele>807.0</ele><time>2026-05-03T08:54:45.127Z</time></trkpt><trkpt lat="44.0892289" lon="7.8948092"><ele>802.0</ele><time>2026-05-03T08:54:46.127Z</time></trkpt><trkpt lat="44.0893169" lon="7.8946878"><ele>797.0</ele><time>2026-05-03T08:54:47.126Z</time></trkpt><trkpt lat="44.0893852" lon="7.8945691"><ele>797.0</ele><time>2026-05-03T08:54:48.126Z</time></trkpt><trkpt lat="44.0894155" lon="7.8944369"><ele>797.0</ele><time>2026-05-03T08:54:49.126Z</time></trkpt><trkpt lat="44.0894516" lon="7.8943007"><ele>797.0</ele><time>2026-05-03T08:54:50.126Z</time></trkpt><trkpt lat="44.0895076" lon="7.8941777"><ele>797.0</ele><time>2026-05-03T08:54:51.126Z</time></trkpt><trkpt lat="44.0895742" lon="7.8940735"><ele>797.0</ele><time>2026-05-03T08:54:52.126Z</time></trkpt><trkpt lat="44.0896409" lon="7.8939735"><ele>804.8</ele><time>2026-05-03T08:54:53.126Z</time></trkpt><trkpt lat="44.0896954" lon="7.8938732"><ele>812.6</ele><time>2026-05-03T08:54:54.127Z</time></trkpt><trkpt lat="44.0897432" lon="7.893757"><ele>820.4</ele><time>2026-05-03T08:54:55.126Z</time></trkpt><trkpt lat="44.0897795" lon="7.8936262"><ele>828.1999999999999</ele><time>2026-05-03T08:54:56.126Z</time></trkpt><trkpt lat="44.0898103" lon="7.8934979"><ele>836.0</ele><time>2026-05-03T08:54:57.127Z</time></trkpt><trkpt lat="44.0898294" lon="7.8933808"><ele>841.0000000000001</ele><time>2026-05-03T08:54:58.126Z</time></trkpt><trkpt lat="44.0898309" lon="7.8932793"><ele>846.0</ele><time>2026-05-03T08:54:59.126Z</time></trkpt><trkpt lat="44.0898078" lon="7.8931804"><ele>851.0</ele><time>2026-05-03T08:55:00.126Z</time></trkpt><trkpt lat="44.0897749" lon="7.89309"><ele>856.0</ele><time>2026-05-03T08:55:01.126Z</time></trkpt><trkpt lat="44.0897414" lon="7.8930106"><ele>861.0000000000001</ele><time>2026-05-03T08:55:02.126Z</time></trkpt><trkpt lat="44.0897358" lon="7.892867"><ele>866.0</ele><time>2026-05-03T08:55:04.126Z</time></trkpt><trkpt lat="44.0897771" lon="7.892798"><ele>866.0000000000001</ele><time>2026-05-03T08:55:05.127Z</time></trkpt><trkpt lat="44.089826" lon="7.8927321"><ele>866.0</ele><time>2026-05-03T08:55:06.126Z</time></trkpt><trkpt lat="44.0898749" lon="7.892666"><ele>866.0</ele><time>2026-05-03T08:55:07.126Z</time></trkpt><trkpt lat="44.0900077" lon="7.8926124"><ele>866.0</ele><time>2026-05-03T08:55:09.126Z</time></trkpt><trkpt lat="44.0900931" lon="7.892595"><ele>866.0000000000001</ele><time>2026-05-03T08:55:10.126Z</time></trkpt><trkpt lat="44.0901732" lon="7.8925684"><ele>866.0</ele><time>2026-05-03T08:55:11.126Z</time></trkpt><trkpt lat="44.0902433" lon="7.8925223"><ele>862.0000000000001</ele><time>2026-05-03T08:55:12.126Z</time></trkpt><trkpt lat="44.0903123" lon="7.8924761"><ele>858.0</ele><time>2026-05-03T08:55:13.126Z</time></trkpt><trkpt lat="44.0904296" lon="7.8924746"><ele>854.0</ele><time>2026-05-03T08:55:15.126Z</time></trkpt><trkpt lat="44.090483" lon="7.8925507"><ele>850.0</ele><time>2026-05-03T08:55:16.126Z</time></trkpt><trkpt lat="44.0905297" lon="7.8926435"><ele>846.0000000000001</ele><time>2026-05-03T08:55:17.126Z</time></trkpt><trkpt lat="44.09056" lon="7.8927433"><ele>842.0</ele><time>2026-05-03T08:55:18.126Z</time></trkpt><trkpt lat="44.0905813" lon="7.8928515"><ele>837.8</ele><time>2026-05-03T08:55:19.126Z</time></trkpt><trkpt lat="44.0906242" lon="7.8929647"><ele>833.6</ele><time>2026-05-03T08:55:20.126Z</time></trkpt><trkpt lat="44.0906839" lon="7.8930778"><ele>829.4</ele><time>2026-05-03T08:55:21.126Z</time></trkpt><trkpt lat="44.0907495" lon="7.893192"><ele>825.1999999999999</ele><time>2026-05-03T08:55:22.126Z</time></trkpt><trkpt lat="44.0908396" lon="7.8933003"><ele>821.0</ele><time>2026-05-03T08:55:23.126Z</time></trkpt><trkpt lat="44.0909159" lon="7.8934023"><ele>819.5000000000001</ele><time>2026-05-03T08:55:24.128Z</time></trkpt><trkpt lat="44.0909583" lon="7.893507"><ele>818.0</ele><time>2026-05-03T08:55:25.126Z</time></trkpt><trkpt lat="44.0909946" lon="7.8936149"><ele>816.5</ele><time>2026-05-03T08:55:26.126Z</time></trkpt><trkpt lat="44.0910124" lon="7.8937295"><ele>815.0</ele><time>2026-05-03T08:55:27.126Z</time></trkpt><trkpt lat="44.0910195" lon="7.8938411"><ele>813.5000000000001</ele><time>2026-05-03T08:55:28.126Z</time></trkpt><trkpt lat="44.0910552" lon="7.893952"><ele>812.0</ele><time>2026-05-03T08:55:29.127Z</time></trkpt><trkpt lat="44.0910962" lon="7.8940639"><ele>812.0</ele><time>2026-05-03T08:55:30.126Z</time></trkpt><trkpt lat="44.0911748" lon="7.8941174"><ele>812.0</ele><time>2026-05-03T08:55:31.126Z</time></trkpt><trkpt lat="44.091267" lon="7.8941095"><ele>812.0</ele><time>2026-05-03T08:55:32.126Z</time></trkpt><trkpt lat="44.0913555" lon="7.8940871"><ele>812.0</ele><time>2026-05-03T08:55:33.126Z</time></trkpt><trkpt lat="44.0914457" lon="7.8940254"><ele>812.0</ele><time>2026-05-03T08:55:34.126Z</time></trkpt><trkpt lat="44.0915342" lon="7.8939692"><ele>813.8333333333334</ele><time>2026-05-03T08:55:35.127Z</time></trkpt><trkpt lat="44.0916117" lon="7.8939312"><ele>815.6666666666667</ele><time>2026-05-03T08:55:36.126Z</time></trkpt><trkpt lat="44.0916748" lon="7.8939344"><ele>817.5</ele><time>2026-05-03T08:55:37.126Z</time></trkpt><trkpt lat="44.0917755" lon="7.8940544"><ele>819.3333333333333</ele><time>2026-05-03T08:55:39.126Z</time></trkpt><trkpt lat="44.0918121" lon="7.8941556"><ele>821.1666666666666</ele><time>2026-05-03T08:55:40.127Z</time></trkpt><trkpt lat="44.0918415" lon="7.8942697"><ele>823.0</ele><time>2026-05-03T08:55:41.126Z</time></trkpt><trkpt lat="44.0918747" lon="7.8943871"><ele>823.0</ele><time>2026-05-03T08:55:42.126Z</time></trkpt><trkpt lat="44.0919222" lon="7.8944969"><ele>823.0</ele><time>2026-05-03T08:55:43.126Z</time></trkpt><trkpt lat="44.0919888" lon="7.8946008"><ele>823.0</ele><time>2026-05-03T08:55:44.126Z</time></trkpt><trkpt lat="44.0920603" lon="7.8946833"><ele>823.0</ele><time>2026-05-03T08:55:45.126Z</time></trkpt><trkpt lat="44.0921388" lon="7.8947652"><ele>823.0</ele><time>2026-05-03T08:55:46.126Z</time></trkpt><trkpt lat="44.0922384" lon="7.8948349"><ele>823.0</ele><time>2026-05-03T08:55:47.126Z</time></trkpt><trkpt lat="44.0923298" lon="7.8948995"><ele>823.0</ele><time>2026-05-03T08:55:48.126Z</time></trkpt><trkpt lat="44.0924075" lon="7.8949971"><ele>823.0</ele><time>2026-05-03T08:55:49.127Z</time></trkpt><trkpt lat="44.0924828" lon="7.8951041"><ele>823.0</ele><time>2026-05-03T08:55:50.126Z</time></trkpt><trkpt lat="44.0925188" lon="7.8952269"><ele>823.0</ele><time>2026-05-03T08:55:51.126Z</time></trkpt><trkpt lat="44.0925594" lon="7.895345"><ele>823.4</ele><time>2026-05-03T08:55:52.127Z</time></trkpt><trkpt lat="44.0926186" lon="7.8954499"><ele>823.8</ele><time>2026-05-03T08:55:53.126Z</time></trkpt><trkpt lat="44.0926929" lon="7.8955453"><ele>824.2</ele><time>2026-05-03T08:55:54.127Z</time></trkpt><trkpt lat="44.0927748" lon="7.8956253"><ele>824.6</ele><time>2026-05-03T08:55:55.126Z</time></trkpt><trkpt lat="44.0928574" lon="7.895693"><ele>825.0</ele><time>2026-05-03T08:55:56.126Z</time></trkpt><trkpt lat="44.0929571" lon="7.8957319"><ele>825.0</ele><time>2026-05-03T08:55:57.126Z</time></trkpt><trkpt lat="44.0930592" lon="7.8957352"><ele>825.0</ele><time>2026-05-03T08:55:58.127Z</time></trkpt><trkpt lat="44.0931528" lon="7.8957232"><ele>825.0</ele><time>2026-05-03T08:55:59.126Z</time></trkpt><trkpt lat="44.0932385" lon="7.8957073"><ele>825.0</ele><time>2026-05-03T08:56:00.127Z</time></trkpt><trkpt lat="44.0933287" lon="7.8956689"><ele>825.0</ele><time>2026-05-03T08:56:01.127Z</time></trkpt><trkpt lat="44.0934202" lon="7.8956139"><ele>828.0</ele><time>2026-05-03T08:56:02.126Z</time></trkpt><trkpt lat="44.0935029" lon="7.8955453"><ele>831.0</ele><time>2026-05-03T08:56:03.126Z</time></trkpt><trkpt lat="44.0935368" lon="7.8954338"><ele>834.0</ele><time>2026-05-03T08:56:04.126Z</time></trkpt><trkpt lat="44.093536" lon="7.8953177"><ele>837.0</ele><time>2026-05-03T08:56:05.126Z</time></trkpt><trkpt lat="44.0935063" lon="7.8952182"><ele>840.0</ele><time>2026-05-03T08:56:06.127Z</time></trkpt><trkpt lat="44.0934456" lon="7.8951376"><ele>843.0</ele><time>2026-05-03T08:56:07.126Z</time></trkpt><trkpt lat="44.0933641" lon="7.8950719"><ele>843.5</ele><time>2026-05-03T08:56:08.127Z</time></trkpt><trkpt lat="44.0932673" lon="7.895028"><ele>844.0</ele><time>2026-05-03T08:56:09.126Z</time></trkpt><trkpt lat="44.093191" lon="7.8949641"><ele>844.5</ele><time>2026-05-03T08:56:10.126Z</time></trkpt><trkpt lat="44.0931211" lon="7.8948934"><ele>845.0</ele><time>2026-05-03T08:56:11.126Z</time></trkpt><trkpt lat="44.0930861" lon="7.8947913"><ele>845.5</ele><time>2026-05-03T08:56:12.126Z</time></trkpt><trkpt lat="44.0930569" lon="7.8946893"><ele>846.0</ele><time>2026-05-03T08:56:13.126Z</time></trkpt><trkpt lat="44.0930408" lon="7.8945728"><ele>846.0</ele><time>2026-05-03T08:56:14.126Z</time></trkpt><trkpt lat="44.0930821" lon="7.8943942"><ele>846.0</ele><time>2026-05-03T08:56:15.126Z</time></trkpt><trkpt lat="44.0931274" lon="7.8942046"><ele>846.0</ele><time>2026-05-03T08:56:16.126Z</time></trkpt><trkpt lat="44.093142" lon="7.8940289"><ele>846.0</ele><time>2026-05-03T08:56:17.127Z</time></trkpt><trkpt lat="44.0931451" lon="7.8938425"><ele>848.8</ele><time>2026-05-03T08:56:18.127Z</time></trkpt><trkpt lat="44.0931568" lon="7.8936667"><ele>851.5999999999999</ele><time>2026-05-03T08:56:19.127Z</time></trkpt><trkpt lat="44.0931744" lon="7.8935048"><ele>854.4</ele><time>2026-05-03T08:56:20.126Z</time></trkpt><trkpt lat="44.0931913" lon="7.8933526"><ele>857.2</ele><time>2026-05-03T08:56:21.126Z</time></trkpt><trkpt lat="44.093171" lon="7.8932341"><ele>860.0</ele><time>2026-05-03T08:56:22.126Z</time></trkpt><trkpt lat="44.0931375" lon="7.8931222"><ele>862.0</ele><time>2026-05-03T08:56:23.126Z</time></trkpt><trkpt lat="44.0930821" lon="7.8930289"><ele>864.0</ele><time>2026-05-03T08:56:24.126Z</time></trkpt><trkpt lat="44.0930355" lon="7.8929345"><ele>866.0</ele><time>2026-05-03T08:56:25.126Z</time></trkpt><trkpt lat="44.0930127" lon="7.8928208"><ele>868.0</ele><time>2026-05-03T08:56:26.126Z</time></trkpt><trkpt lat="44.0930173" lon="7.8926779"><ele>870.0</ele><time>2026-05-03T08:56:27.126Z</time></trkpt><trkpt lat="44.0930487" lon="7.8925286"><ele>871.0</ele><time>2026-05-03T08:56:28.126Z</time></trkpt><trkpt lat="44.0931061" lon="7.8924018"><ele>872.0</ele><time>2026-05-03T08:56:29.127Z</time></trkpt><trkpt lat="44.0931699" lon="7.8922965"><ele>873.0</ele><time>2026-05-03T08:56:30.126Z</time></trkpt><trkpt lat="44.0932564" lon="7.8922029"><ele>874.0</ele><time>2026-05-03T08:56:31.126Z</time></trkpt><trkpt lat="44.0933459" lon="7.8921134"><ele>875.0</ele><time>2026-05-03T08:56:32.126Z</time></trkpt><trkpt lat="44.0934232" lon="7.8920026"><ele>877.75</ele><time>2026-05-03T08:56:33.126Z</time></trkpt><trkpt lat="44.0934873" lon="7.8918852"><ele>880.5</ele><time>2026-05-03T08:56:34.126Z</time></trkpt><trkpt lat="44.0935193" lon="7.8917365"><ele>883.25</ele><time>2026-05-03T08:56:35.126Z</time></trkpt><trkpt lat="44.0935732" lon="7.8915773"><ele>886.0</ele><time>2026-05-03T08:56:36.126Z</time></trkpt><trkpt lat="44.0936279" lon="7.8914481"><ele>887.1666666666666</ele><time>2026-05-03T08:56:37.127Z</time></trkpt><trkpt lat="44.0936808" lon="7.8913423"><ele>888.3333333333333</ele><time>2026-05-03T08:56:38.127Z</time></trkpt><trkpt lat="44.0937247" lon="7.8912504"><ele>889.5</ele><time>2026-05-03T08:56:39.127Z</time></trkpt><trkpt lat="44.0937553" lon="7.8911608"><ele>890.6666666666667</ele><time>2026-05-03T08:56:40.126Z</time></trkpt><trkpt lat="44.093738" lon="7.8910389"><ele>891.8333333333334</ele><time>2026-05-03T08:56:42.126Z</time></trkpt><trkpt lat="44.0936285" lon="7.8910117"><ele>893.0</ele><time>2026-05-03T08:56:44.127Z</time></trkpt><trkpt lat="44.0935151" lon="7.8910349"><ele>893.0</ele><time>2026-05-03T08:56:45.126Z</time></trkpt><trkpt lat="44.0934149" lon="7.8910731"><ele>893.0</ele><time>2026-05-03T08:56:46.126Z</time></trkpt><trkpt lat="44.0933176" lon="7.8911222"><ele>893.0</ele><time>2026-05-03T08:56:47.126Z</time></trkpt><trkpt lat="44.093224" lon="7.8911798"><ele>893.0</ele><time>2026-05-03T08:56:48.127Z</time></trkpt><trkpt lat="44.0931303" lon="7.8912368"><ele>893.0</ele><time>2026-05-03T08:56:49.126Z</time></trkpt><trkpt lat="44.0930398" lon="7.8912569"><ele>893.4285714285714</ele><time>2026-05-03T08:56:50.127Z</time></trkpt><trkpt lat="44.0929612" lon="7.8912481"><ele>893.8571428571429</ele><time>2026-05-03T08:56:51.126Z</time></trkpt><trkpt lat="44.0928935" lon="7.8912033"><ele>894.2857142857142</ele><time>2026-05-03T08:56:52.126Z</time></trkpt><trkpt lat="44.0928358" lon="7.8911311"><ele>894.7142857142858</ele><time>2026-05-03T08:56:53.126Z</time></trkpt><trkpt lat="44.0928077" lon="7.8910396"><ele>895.1428571428571</ele><time>2026-05-03T08:56:54.126Z</time></trkpt><trkpt lat="44.0928168" lon="7.8909393"><ele>895.5714285714286</ele><time>2026-05-03T08:56:55.126Z</time></trkpt><trkpt lat="44.0928381" lon="7.890841"><ele>896.0</ele><time>2026-05-03T08:56:56.126Z</time></trkpt><trkpt lat="44.0928942" lon="7.8907338"><ele>896.0</ele><time>2026-05-03T08:56:57.126Z</time></trkpt><trkpt lat="44.0929504" lon="7.8906156"><ele>895.9999999999999</ele><time>2026-05-03T08:56:58.126Z</time></trkpt><trkpt lat="44.0930102" lon="7.8904957"><ele>895.9999999999999</ele><time>2026-05-03T08:56:59.126Z</time></trkpt><trkpt lat="44.0930651" lon="7.8903711"><ele>896.0</ele><time>2026-05-03T08:57:00.126Z</time></trkpt><trkpt lat="44.0931058" lon="7.890233"><ele>896.0</ele><time>2026-05-03T08:57:01.126Z</time></trkpt><trkpt lat="44.0931457" lon="7.8900919"><ele>898.3333333333334</ele><time>2026-05-03T08:57:02.127Z</time></trkpt><trkpt lat="44.0931848" lon="7.8899525"><ele>900.6666666666667</ele><time>2026-05-03T08:57:03.126Z</time></trkpt><trkpt lat="44.0932322" lon="7.8898265"><ele>903.0</ele><time>2026-05-03T08:57:04.127Z</time></trkpt><trkpt lat="44.0932823" lon="7.8897153"><ele>905.3333333333333</ele><time>2026-05-03T08:57:05.126Z</time></trkpt><trkpt lat="44.0932618" lon="7.8896319"><ele>907.6666666666666</ele><time>2026-05-03T08:57:06.126Z</time></trkpt><trkpt lat="44.0932445" lon="7.889536"><ele>910.0</ele><time>2026-05-03T08:57:07.127Z</time></trkpt><trkpt lat="44.0931917" lon="7.8894823"><ele>909.9999999999999</ele><time>2026-05-03T08:57:08.126Z</time></trkpt><trkpt lat="44.0931339" lon="7.8894246"><ele>910.0</ele><time>2026-05-03T08:57:09.127Z</time></trkpt><trkpt lat="44.0930515" lon="7.8894252"><ele>910.0</ele><time>2026-05-03T08:57:10.126Z</time></trkpt><trkpt lat="44.0929683" lon="7.8894298"><ele>910.0</ele><time>2026-05-03T08:57:11.126Z</time></trkpt><trkpt lat="44.0928854" lon="7.8894382"><ele>909.9999999999999</ele><time>2026-05-03T08:57:12.126Z</time></trkpt><trkpt lat="44.0927945" lon="7.8894772"><ele>910.0</ele><time>2026-05-03T08:57:13.126Z</time></trkpt><trkpt lat="44.0927162" lon="7.8895324"><ele>910.0</ele><time>2026-05-03T08:57:14.127Z</time></trkpt><trkpt lat="44.0926393" lon="7.8896096"><ele>910.0</ele><time>2026-05-03T08:57:15.127Z</time></trkpt><trkpt lat="44.0925586" lon="7.8896939"><ele>910.0</ele><time>2026-05-03T08:57:16.127Z</time></trkpt><trkpt lat="44.0924701" lon="7.8897795"><ele>910.0</ele><time>2026-05-03T08:57:17.127Z</time></trkpt><trkpt lat="44.0923713" lon="7.8898597"><ele>910.0</ele><time>2026-05-03T08:57:18.126Z</time></trkpt><trkpt lat="44.0922884" lon="7.8899219"><ele>910.3333333333333</ele><time>2026-05-03T08:57:19.126Z</time></trkpt><trkpt lat="44.0922233" lon="7.8899731"><ele>910.6666666666666</ele><time>2026-05-03T08:57:20.126Z</time></trkpt><trkpt lat="44.0921586" lon="7.8900143"><ele>911.0</ele><time>2026-05-03T08:57:21.126Z</time></trkpt><trkpt lat="44.0920946" lon="7.8900335"><ele>911.3333333333333</ele><time>2026-05-03T08:57:22.126Z</time></trkpt><trkpt lat="44.0920346" lon="7.8900066"><ele>911.6666666666666</ele><time>2026-05-03T08:57:23.126Z</time></trkpt><trkpt lat="44.0919811" lon="7.8899021"><ele>912.0</ele><time>2026-05-03T08:57:25.126Z</time></trkpt><trkpt lat="44.0920676" lon="7.8898135"><ele>912.0</ele><time>2026-05-03T08:57:27.126Z</time></trkpt><trkpt lat="44.0921327" lon="7.8897744"><ele>912.0</ele><time>2026-05-03T08:57:28.126Z</time></trkpt><trkpt lat="44.0921866" lon="7.8897249"><ele>912.0</ele><time>2026-05-03T08:57:29.127Z</time></trkpt><trkpt lat="44.0922435" lon="7.889661"><ele>912.0</ele><time>2026-05-03T08:57:30.126Z</time></trkpt><trkpt lat="44.0922977" lon="7.8895876"><ele>912.0</ele><time>2026-05-03T08:57:31.127Z</time></trkpt><trkpt lat="44.0923373" lon="7.8894901"><ele>912.0</ele><time>2026-05-03T08:57:32.126Z</time></trkpt><trkpt lat="44.0923826" lon="7.889384"><ele>912.0</ele><time>2026-05-03T08:57:33.126Z</time></trkpt><trkpt lat="44.0924209" lon="7.8892695"><ele>912.0</ele><time>2026-05-03T08:57:34.126Z</time></trkpt><trkpt lat="44.092472" lon="7.8891621"><ele>912.0</ele><time>2026-05-03T08:57:35.126Z</time></trkpt><trkpt lat="44.0925284" lon="7.8890725"><ele>912.0</ele><time>2026-05-03T08:57:36.126Z</time></trkpt><trkpt lat="44.092588" lon="7.8889952"><ele>912.0</ele><time>2026-05-03T08:57:37.126Z</time></trkpt><trkpt lat="44.0926671" lon="7.8889308"><ele>912.0</ele><time>2026-05-03T08:57:38.126Z</time></trkpt><trkpt lat="44.0927499" lon="7.8888656"><ele>916.0</ele><time>2026-05-03T08:57:39.126Z</time></trkpt><trkpt lat="44.0928245" lon="7.8887791"><ele>920.0</ele><time>2026-05-03T08:57:40.126Z</time></trkpt><trkpt lat="44.0928793" lon="7.8886806"><ele>924.0</ele><time>2026-05-03T08:57:41.126Z</time></trkpt><trkpt lat="44.0929363" lon="7.8885962"><ele>928.0</ele><time>2026-05-03T08:57:42.127Z</time></trkpt><trkpt lat="44.0929923" lon="7.8885211"><ele>932.0</ele><time>2026-05-03T08:57:43.126Z</time></trkpt><trkpt lat="44.0930552" lon="7.8884638"><ele>936.0</ele><time>2026-05-03T08:57:44.126Z</time></trkpt><trkpt lat="44.0931214" lon="7.8884044"><ele>939.0</ele><time>2026-05-03T08:57:45.126Z</time></trkpt><trkpt lat="44.0932021" lon="7.8883674"><ele>941.9999999999999</ele><time>2026-05-03T08:57:46.126Z</time></trkpt><trkpt lat="44.0933038" lon="7.8883222"><ele>944.9999999999999</ele><time>2026-05-03T08:57:47.127Z</time></trkpt><trkpt lat="44.093408" lon="7.8882636"><ele>948.0</ele><time>2026-05-03T08:57:48.126Z</time></trkpt><trkpt lat="44.093521" lon="7.8882028"><ele>951.0</ele><time>2026-05-03T08:57:49.127Z</time></trkpt><trkpt lat="44.0936295" lon="7.8881658"><ele>951.0</ele><time>2026-05-03T08:57:50.126Z</time></trkpt><trkpt lat="44.0937281" lon="7.8881859"><ele>950.9999999999999</ele><time>2026-05-03T08:57:51.127Z</time></trkpt><trkpt lat="44.0938187" lon="7.8882441"><ele>950.9999999999999</ele><time>2026-05-03T08:57:52.126Z</time></trkpt><trkpt lat="44.0939106" lon="7.8883209"><ele>951.0</ele><time>2026-05-03T08:57:53.126Z</time></trkpt><trkpt lat="44.0939899" lon="7.8884223"><ele>951.0</ele><time>2026-05-03T08:57:54.126Z</time></trkpt><trkpt lat="44.0940627" lon="7.8885304"><ele>949.8</ele><time>2026-05-03T08:57:55.126Z</time></trkpt><trkpt lat="44.0941309" lon="7.8886736"><ele>948.5999999999999</ele><time>2026-05-03T08:57:56.126Z</time></trkpt><trkpt lat="44.0941932" lon="7.8888098"><ele>947.4</ele><time>2026-05-03T08:57:57.126Z</time></trkpt><trkpt lat="44.0942566" lon="7.8889044"><ele>946.2</ele><time>2026-05-03T08:57:58.126Z</time></trkpt><trkpt lat="44.0943259" lon="7.8889614"><ele>945.0</ele><time>2026-05-03T08:57:59.126Z</time></trkpt><trkpt lat="44.0944227" lon="7.8889778"><ele>945.0</ele><time>2026-05-03T08:58:00.126Z</time></trkpt><trkpt lat="44.0945194" lon="7.8889754"><ele>945.0</ele><time>2026-05-03T08:58:01.127Z</time></trkpt><trkpt lat="44.0946068" lon="7.8889429"><ele>945.0</ele><time>2026-05-03T08:58:02.126Z</time></trkpt><trkpt lat="44.0946891" lon="7.8888639"><ele>945.0</ele><time>2026-05-03T08:58:03.126Z</time></trkpt><trkpt lat="44.0947473" lon="7.8887142"><ele>945.0</ele><time>2026-05-03T08:58:04.126Z</time></trkpt><trkpt lat="44.0947835" lon="7.8885528"><ele>948.2</ele><time>2026-05-03T08:58:05.126Z</time></trkpt><trkpt lat="44.094812" lon="7.8883976"><ele>951.4</ele><time>2026-05-03T08:58:06.126Z</time></trkpt><trkpt lat="44.0948478" lon="7.8882443"><ele>954.5999999999999</ele><time>2026-05-03T08:58:07.126Z</time></trkpt><trkpt lat="44.0948846" lon="7.8881173"><ele>957.8</ele><time>2026-05-03T08:58:08.126Z</time></trkpt><trkpt lat="44.0949156" lon="7.8879905"><ele>961.0</ele><time>2026-05-03T08:58:09.126Z</time></trkpt><trkpt lat="44.0949461" lon="7.8878652"><ele>962.1999999999999</ele><time>2026-05-03T08:58:10.126Z</time></trkpt><trkpt lat="44.0949922" lon="7.8877465"><ele>963.3999999999999</ele><time>2026-05-03T08:58:11.126Z</time></trkpt><trkpt lat="44.0950492" lon="7.8876243"><ele>964.6</ele><time>2026-05-03T08:58:12.126Z</time></trkpt><trkpt lat="44.0951098" lon="7.8875116"><ele>965.8</ele><time>2026-05-03T08:58:13.126Z</time></trkpt><trkpt lat="44.0951837" lon="7.8874306"><ele>967.0</ele><time>2026-05-03T08:58:14.126Z</time></trkpt><trkpt lat="44.0953108" lon="7.8874555"><ele>970.6</ele><time>2026-05-03T08:58:15.127Z</time></trkpt><trkpt lat="44.0954184" lon="7.8874991"><ele>974.2</ele><time>2026-05-03T08:58:16.126Z</time></trkpt><trkpt lat="44.0955194" lon="7.8875301"><ele>977.8</ele><time>2026-05-03T08:58:17.126Z</time></trkpt><trkpt lat="44.0956047" lon="7.8875555"><ele>981.4</ele><time>2026-05-03T08:58:18.126Z</time></trkpt><trkpt lat="44.0956999" lon="7.8875331"><ele>985.0</ele><time>2026-05-03T08:58:19.126Z</time></trkpt><trkpt lat="44.0957848" lon="7.8874769"><ele>985.0</ele><time>2026-05-03T08:58:20.126Z</time></trkpt><trkpt lat="44.0958733" lon="7.8873915"><ele>985.0</ele><time>2026-05-03T08:58:21.126Z</time></trkpt><trkpt lat="44.0959579" lon="7.8872996"><ele>985.0</ele><time>2026-05-03T08:58:22.126Z</time></trkpt><trkpt lat="44.0960359" lon="7.887193"><ele>985.0</ele><time>2026-05-03T08:58:23.127Z</time></trkpt><trkpt lat="44.0961073" lon="7.8870781"><ele>985.0</ele><time>2026-05-03T08:58:24.127Z</time></trkpt><trkpt lat="44.0961641" lon="7.8869493"><ele>984.9999999999999</ele><time>2026-05-03T08:58:25.127Z</time></trkpt><trkpt lat="44.0962144" lon="7.8868349"><ele>985.0</ele><time>2026-05-03T08:58:26.126Z</time></trkpt><trkpt lat="44.096264" lon="7.8867316"><ele>985.0</ele><time>2026-05-03T08:58:27.127Z</time></trkpt><trkpt lat="44.0963276" lon="7.8866637"><ele>985.0</ele><time>2026-05-03T08:58:28.126Z</time></trkpt><trkpt lat="44.0964124" lon="7.8866272"><ele>984.9999999999999</ele><time>2026-05-03T08:58:29.127Z</time></trkpt><trkpt lat="44.0965033" lon="7.8866275"><ele>985.0</ele><time>2026-05-03T08:58:30.126Z</time></trkpt><trkpt lat="44.0965804" lon="7.8866495"><ele>986.3333333333333</ele><time>2026-05-03T08:58:31.126Z</time></trkpt><trkpt lat="44.0966487" lon="7.8866857"><ele>987.6666666666666</ele><time>2026-05-03T08:58:32.126Z</time></trkpt><trkpt lat="44.0966941" lon="7.8867812"><ele>989.0</ele><time>2026-05-03T08:58:33.126Z</time></trkpt><trkpt lat="44.096719" lon="7.8868976"><ele>990.3333333333333</ele><time>2026-05-03T08:58:34.126Z</time></trkpt><trkpt lat="44.0967362" lon="7.8870242"><ele>991.6666666666666</ele><time>2026-05-03T08:58:35.126Z</time></trkpt><trkpt lat="44.0967706" lon="7.8871492"><ele>993.0</ele><time>2026-05-03T08:58:36.127Z</time></trkpt><trkpt lat="44.0968172" lon="7.8872668"><ele>993.0</ele><time>2026-05-03T08:58:37.126Z</time></trkpt><trkpt lat="44.0969007" lon="7.8873297"><ele>993.0</ele><time>2026-05-03T08:58:38.126Z</time></trkpt><trkpt lat="44.096983" lon="7.8873833"><ele>993.0</ele><time>2026-05-03T08:58:39.126Z</time></trkpt><trkpt lat="44.0970572" lon="7.8874237"><ele>993.0</ele><time>2026-05-03T08:58:40.126Z</time></trkpt><trkpt lat="44.0971721" lon="7.8873661"><ele>993.0</ele><time>2026-05-03T08:58:41.126Z</time></trkpt><trkpt lat="44.097276" lon="7.8872844"><ele>993.0</ele><time>2026-05-03T08:58:42.126Z</time></trkpt><trkpt lat="44.0973616" lon="7.8871887"><ele>993.0</ele><time>2026-05-03T08:58:43.126Z</time></trkpt><trkpt lat="44.0974211" lon="7.8870376"><ele>993.0</ele><time>2026-05-03T08:58:44.126Z</time></trkpt><trkpt lat="44.0974863" lon="7.8869132"><ele>993.0</ele><time>2026-05-03T08:58:45.127Z</time></trkpt><trkpt lat="44.0975532" lon="7.8868321"><ele>993.0</ele><time>2026-05-03T08:58:46.126Z</time></trkpt><trkpt lat="44.0976212" lon="7.8868016"><ele>994.8</ele><time>2026-05-03T08:58:47.126Z</time></trkpt><trkpt lat="44.097694" lon="7.8868264"><ele>996.5999999999999</ele><time>2026-05-03T08:58:48.127Z</time></trkpt><trkpt lat="44.0977613" lon="7.8868954"><ele>998.4000000000001</ele><time>2026-05-03T08:58:49.126Z</time></trkpt><trkpt lat="44.0978236" lon="7.8869933"><ele>1000.2</ele><time>2026-05-03T08:58:50.126Z</time></trkpt><trkpt lat="44.0978929" lon="7.8870953"><ele>1002.0</ele><time>2026-05-03T08:58:51.126Z</time></trkpt><trkpt lat="44.0979797" lon="7.8871797"><ele>1002.0</ele><time>2026-05-03T08:58:52.126Z</time></trkpt><trkpt lat="44.0980831" lon="7.8872447"><ele>1002.0</ele><time>2026-05-03T08:58:53.126Z</time></trkpt><trkpt lat="44.0981922" lon="7.8873003"><ele>1002.0</ele><time>2026-05-03T08:58:54.126Z</time></trkpt><trkpt lat="44.0983054" lon="7.8873622"><ele>1002.0</ele><time>2026-05-03T08:58:55.126Z</time></trkpt><trkpt lat="44.0984121" lon="7.8874353"><ele>1003.2</ele><time>2026-05-03T08:58:56.126Z</time></trkpt><trkpt lat="44.0985192" lon="7.8875189"><ele>1004.4000000000001</ele><time>2026-05-03T08:58:57.126Z</time></trkpt><trkpt lat="44.0986074" lon="7.8876256"><ele>1005.5999999999999</ele><time>2026-05-03T08:58:58.127Z</time></trkpt><trkpt lat="44.0986756" lon="7.8877356"><ele>1006.8</ele><time>2026-05-03T08:58:59.127Z</time></trkpt><trkpt lat="44.0987425" lon="7.8878352"><ele>1008.0</ele><time>2026-05-03T08:59:00.127Z</time></trkpt><trkpt lat="44.098829" lon="7.8879031"><ele>1008.0</ele><time>2026-05-03T08:59:01.126Z</time></trkpt><trkpt lat="44.0989094" lon="7.887957"><ele>1008.0</ele><time>2026-05-03T08:59:02.126Z</time></trkpt><trkpt lat="44.0990012" lon="7.8879867"><ele>1008.0</ele><time>2026-05-03T08:59:03.126Z</time></trkpt><trkpt lat="44.0990911" lon="7.8879863"><ele>1008.0</ele><time>2026-05-03T08:59:04.126Z</time></trkpt><trkpt lat="44.099195" lon="7.8879562"><ele>1008.0</ele><time>2026-05-03T08:59:05.127Z</time></trkpt><trkpt lat="44.0993242" lon="7.8878996"><ele>1010.0</ele><time>2026-05-03T08:59:06.126Z</time></trkpt><trkpt lat="44.0994495" lon="7.8878209"><ele>1012.0</ele><time>2026-05-03T08:59:07.126Z</time></trkpt><trkpt lat="44.0995841" lon="7.8877304"><ele>1014.0</ele><time>2026-05-03T08:59:08.126Z</time></trkpt><trkpt lat="44.0997214" lon="7.8876485"><ele>1016.0</ele><time>2026-05-03T08:59:09.126Z</time></trkpt><trkpt lat="44.0998499" lon="7.8875832"><ele>1018.8</ele><time>2026-05-03T08:59:10.126Z</time></trkpt><trkpt lat="44.0999735" lon="7.8875439"><ele>1021.5999999999999</ele><time>2026-05-03T08:59:11.126Z</time></trkpt><trkpt lat="44.1000818" lon="7.8875358"><ele>1024.4</ele><time>2026-05-03T08:59:12.126Z</time></trkpt><trkpt lat="44.1001524" lon="7.8876254"><ele>1027.2</ele><time>2026-05-03T08:59:13.126Z</time></trkpt><trkpt lat="44.1002076" lon="7.8877352"><ele>1030.0</ele><time>2026-05-03T08:59:14.127Z</time></trkpt><trkpt lat="44.1002331" lon="7.8878673"><ele>1030.0</ele><time>2026-05-03T08:59:15.126Z</time></trkpt><trkpt lat="44.1002476" lon="7.888023"><ele>1030.0</ele><time>2026-05-03T08:59:16.126Z</time></trkpt><trkpt lat="44.1002464" lon="7.8881748"><ele>1030.0</ele><time>2026-05-03T08:59:17.126Z</time></trkpt><trkpt lat="44.1002389" lon="7.8883183"><ele>1030.0</ele><time>2026-05-03T08:59:18.126Z</time></trkpt><trkpt lat="44.1002501" lon="7.8884655"><ele>1030.0</ele><time>2026-05-03T08:59:19.127Z</time></trkpt><trkpt lat="44.1002725" lon="7.8886162"><ele>1029.1666666666665</ele><time>2026-05-03T08:59:20.126Z</time></trkpt><trkpt lat="44.1002927" lon="7.8887565"><ele>1028.3333333333333</ele><time>2026-05-03T08:59:21.127Z</time></trkpt><trkpt lat="44.1003261" lon="7.8888608"><ele>1027.5</ele><time>2026-05-03T08:59:22.126Z</time></trkpt><trkpt lat="44.1003809" lon="7.8889167"><ele>1026.6666666666667</ele><time>2026-05-03T08:59:23.126Z</time></trkpt><trkpt lat="44.1004427" lon="7.8889372"><ele>1025.8333333333335</ele><time>2026-05-03T08:59:24.126Z</time></trkpt><trkpt lat="44.1005537" lon="7.8888963"><ele>1025.0</ele><time>2026-05-03T08:59:26.126Z</time></trkpt><trkpt lat="44.1005942" lon="7.8887033"><ele>1025.0</ele><time>2026-05-03T08:59:28.126Z</time></trkpt><trkpt lat="44.1005843" lon="7.8885311"><ele>1025.0</ele><time>2026-05-03T08:59:29.126Z</time></trkpt><trkpt lat="44.1005872" lon="7.8883541"><ele>1025.0</ele><time>2026-05-03T08:59:30.126Z</time></trkpt><trkpt lat="44.1006028" lon="7.8881911"><ele>1025.0</ele><time>2026-05-03T08:59:31.126Z</time></trkpt><trkpt lat="44.1006217" lon="7.8880437"><ele>1026.0</ele><time>2026-05-03T08:59:32.127Z</time></trkpt><trkpt lat="44.1006357" lon="7.8879148"><ele>1027.0</ele><time>2026-05-03T08:59:33.126Z</time></trkpt><trkpt lat="44.1006374" lon="7.8877936"><ele>1028.0</ele><time>2026-05-03T08:59:34.126Z</time></trkpt><trkpt lat="44.1005707" lon="7.8876478"><ele>1029.0</ele><time>2026-05-03T08:59:35.126Z</time></trkpt><trkpt lat="44.1005057" lon="7.8874984"><ele>1030.0</ele><time>2026-05-03T08:59:36.127Z</time></trkpt><trkpt lat="44.1004437" lon="7.8873432"><ele>1032.6</ele><time>2026-05-03T08:59:37.126Z</time></trkpt><trkpt lat="44.1003941" lon="7.8871917"><ele>1035.2</ele><time>2026-05-03T08:59:38.126Z</time></trkpt><trkpt lat="44.1003455" lon="7.8870397"><ele>1037.8</ele><time>2026-05-03T08:59:39.127Z</time></trkpt><trkpt lat="44.1002692" lon="7.8869615"><ele>1040.4</ele><time>2026-05-03T08:59:40.126Z</time></trkpt><trkpt lat="44.1001746" lon="7.8869229"><ele>1043.0</ele><time>2026-05-03T08:59:41.126Z</time></trkpt><trkpt lat="44.1000566" lon="7.8869064"><ele>1043.0</ele><time>2026-05-03T08:59:42.127Z</time></trkpt><trkpt lat="44.0999185" lon="7.8868862"><ele>1043.0</ele><time>2026-05-03T08:59:43.126Z</time></trkpt><trkpt lat="44.0997722" lon="7.8868525"><ele>1043.0</ele><time>2026-05-03T08:59:44.126Z</time></trkpt><trkpt lat="44.0996334" lon="7.8867938"><ele>1043.0</ele><time>2026-05-03T08:59:45.126Z</time></trkpt><trkpt lat="44.0995146" lon="7.8867073"><ele>1043.8</ele><time>2026-05-03T08:59:46.126Z</time></trkpt><trkpt lat="44.0994141" lon="7.8866147"><ele>1044.6</ele><time>2026-05-03T08:59:47.126Z</time></trkpt><trkpt lat="44.0993238" lon="7.8865324"><ele>1045.4</ele><time>2026-05-03T08:59:48.126Z</time></trkpt><trkpt lat="44.0992564" lon="7.8864524"><ele>1046.2</ele><time>2026-05-03T08:59:49.126Z</time></trkpt><trkpt lat="44.0991944" lon="7.8863669"><ele>1047.0</ele><time>2026-05-03T08:59:51.126Z</time></trkpt><trkpt lat="44.0992505" lon="7.8864572"><ele>1047.0</ele><time>2026-05-03T08:59:59.126Z</time></trkpt><trkpt lat="44.0993145" lon="7.8864933"><ele>1047.0</ele><time>2026-05-03T09:00:00.126Z</time></trkpt><trkpt lat="44.0993744" lon="7.886542"><ele>1047.0</ele><time>2026-05-03T09:00:01.126Z</time></trkpt><trkpt lat="44.0994308" lon="7.8865957"><ele>1047.0</ele><time>2026-05-03T09:00:02.126Z</time></trkpt><trkpt lat="44.0995175" lon="7.8866524"><ele>1047.0</ele><time>2026-05-03T09:00:04.126Z</time></trkpt><trkpt lat="44.0997072" lon="7.8866964"><ele>1046.0</ele><time>2026-05-03T09:00:11.126Z</time></trkpt><trkpt lat="44.0998668" lon="7.886762"><ele>1045.0</ele><time>2026-05-03T09:00:16.127Z</time></trkpt><trkpt lat="44.0999812" lon="7.8867981"><ele>1044.0</ele><time>2026-05-03T09:00:18.126Z</time></trkpt><trkpt lat="44.1000701" lon="7.8868009"><ele>1043.0</ele><time>2026-05-03T09:00:19.126Z</time></trkpt><trkpt lat="44.1001595" lon="7.8868014"><ele>1043.0</ele><time>2026-05-03T09:00:20.127Z</time></trkpt><trkpt lat="44.1002483" lon="7.8867986"><ele>1043.0</ele><time>2026-05-03T09:00:21.126Z</time></trkpt><trkpt lat="44.1003255" lon="7.8868017"><ele>1043.0</ele><time>2026-05-03T09:00:22.127Z</time></trkpt><trkpt lat="44.1003915" lon="7.8868005"><ele>1043.0</ele><time>2026-05-03T09:00:23.126Z</time></trkpt><trkpt lat="44.1004512" lon="7.8868499"><ele>1043.0</ele><time>2026-05-03T09:00:24.126Z</time></trkpt><trkpt lat="44.1005025" lon="7.8869283"><ele>1043.0</ele><time>2026-05-03T09:00:25.126Z</time></trkpt><trkpt lat="44.1005439" lon="7.8870154"><ele>1043.0</ele><time>2026-05-03T09:00:26.127Z</time></trkpt><trkpt lat="44.1005836" lon="7.8871128"><ele>1043.0</ele><time>2026-05-03T09:00:27.126Z</time></trkpt><trkpt lat="44.100635" lon="7.8872062"><ele>1043.0</ele><time>2026-05-03T09:00:28.126Z</time></trkpt><trkpt lat="44.100709" lon="7.887314"><ele>1043.0</ele><time>2026-05-03T09:00:29.126Z</time></trkpt><trkpt lat="44.1007861" lon="7.8874132"><ele>1043.0</ele><time>2026-05-03T09:00:30.126Z</time></trkpt><trkpt lat="44.1008567" lon="7.887504"><ele>1044.6666666666667</ele><time>2026-05-03T09:00:31.126Z</time></trkpt><trkpt lat="44.1009155" lon="7.8875819"><ele>1046.3333333333335</ele><time>2026-05-03T09:00:32.126Z</time></trkpt><trkpt lat="44.1009675" lon="7.8876594"><ele>1048.0</ele><time>2026-05-03T09:00:33.126Z</time></trkpt><trkpt lat="44.1010074" lon="7.8877609"><ele>1049.6666666666667</ele><time>2026-05-03T09:00:34.126Z</time></trkpt><trkpt lat="44.1010371" lon="7.8878727"><ele>1051.3333333333333</ele><time>2026-05-03T09:00:35.126Z</time></trkpt><trkpt lat="44.1010764" lon="7.8879626"><ele>1053.0</ele><time>2026-05-03T09:00:36.126Z</time></trkpt><trkpt lat="44.1011326" lon="7.8880152"><ele>1053.0</ele><time>2026-05-03T09:00:37.126Z</time></trkpt><trkpt lat="44.1011963" lon="7.8880739"><ele>1053.0</ele><time>2026-05-03T09:00:38.126Z</time></trkpt><trkpt lat="44.1012677" lon="7.8881186"><ele>1053.0</ele><time>2026-05-03T09:00:39.126Z</time></trkpt><trkpt lat="44.1013459" lon="7.8881647"><ele>1053.0</ele><time>2026-05-03T09:00:40.126Z</time></trkpt><trkpt lat="44.1014208" lon="7.8882219"><ele>1053.0</ele><time>2026-05-03T09:00:41.126Z</time></trkpt><trkpt lat="44.1014816" lon="7.8882747"><ele>1053.0</ele><time>2026-05-03T09:00:42.126Z</time></trkpt><trkpt lat="44.1015519" lon="7.8883098"><ele>1056.4</ele><time>2026-05-03T09:00:43.126Z</time></trkpt><trkpt lat="44.1016417" lon="7.8882615"><ele>1059.8</ele><time>2026-05-03T09:00:45.127Z</time></trkpt><trkpt lat="44.1016546" lon="7.8884322"><ele>1063.2</ele><time>2026-05-03T09:00:49.127Z</time></trkpt><trkpt lat="44.1016527" lon="7.8885213"><ele>1066.6</ele><time>2026-05-03T09:00:50.126Z</time></trkpt><trkpt lat="44.1016803" lon="7.888627"><ele>1070.0</ele><time>2026-05-03T09:00:51.126Z</time></trkpt><trkpt lat="44.1017263" lon="7.8887349"><ele>1070.0</ele><time>2026-05-03T09:00:52.126Z</time></trkpt><trkpt lat="44.101782" lon="7.8888043"><ele>1070.0</ele><time>2026-05-03T09:00:53.126Z</time></trkpt><trkpt lat="44.1018489" lon="7.8888407"><ele>1070.0</ele><time>2026-05-03T09:00:54.126Z</time></trkpt><trkpt lat="44.1019184" lon="7.8888839"><ele>1070.0</ele><time>2026-05-03T09:00:55.126Z</time></trkpt><trkpt lat="44.1019828" lon="7.8889484"><ele>1070.0</ele><time>2026-05-03T09:00:56.127Z</time></trkpt><trkpt lat="44.1020501" lon="7.8890168"><ele>1070.0</ele><time>2026-05-03T09:00:57.126Z</time></trkpt><trkpt lat="44.102097" lon="7.8890952"><ele>1070.0</ele><time>2026-05-03T09:00:58.126Z</time></trkpt><trkpt lat="44.1021351" lon="7.889179"><ele>1070.0</ele><time>2026-05-03T09:00:59.126Z</time></trkpt><trkpt lat="44.1021714" lon="7.8892734"><ele>1070.0</ele><time>2026-05-03T09:01:00.126Z</time></trkpt><trkpt lat="44.1022133" lon="7.8893758"><ele>1070.0</ele><time>2026-05-03T09:01:01.127Z</time></trkpt><trkpt lat="44.1022533" lon="7.889483"><ele>1070.0</ele><time>2026-05-03T09:01:02.126Z</time></trkpt><trkpt lat="44.1023038" lon="7.88958"><ele>1070.0</ele><time>2026-05-03T09:01:03.126Z</time></trkpt><trkpt lat="44.1023777" lon="7.8896295"><ele>1072.7142857142858</ele><time>2026-05-03T09:01:04.126Z</time></trkpt><trkpt lat="44.1024556" lon="7.8896622"><ele>1075.4285714285716</ele><time>2026-05-03T09:01:05.126Z</time></trkpt><trkpt lat="44.1025252" lon="7.8896941"><ele>1078.1428571428573</ele><time>2026-05-03T09:01:06.126Z</time></trkpt><trkpt lat="44.102591" lon="7.889737"><ele>1080.857142857143</ele><time>2026-05-03T09:01:07.127Z</time></trkpt><trkpt lat="44.1026533" lon="7.8897776"><ele>1083.5714285714287</ele><time>2026-05-03T09:01:08.126Z</time></trkpt><trkpt lat="44.102701" lon="7.8898461"><ele>1086.2857142857144</ele><time>2026-05-03T09:01:09.126Z</time></trkpt><trkpt lat="44.1027325" lon="7.889939"><ele>1089.0</ele><time>2026-05-03T09:01:10.126Z</time></trkpt><trkpt lat="44.1027399" lon="7.8900391"><ele>1087.3333333333333</ele><time>2026-05-03T09:01:11.126Z</time></trkpt><trkpt lat="44.1027476" lon="7.890133"><ele>1085.6666666666667</ele><time>2026-05-03T09:01:12.126Z</time></trkpt><trkpt lat="44.1027713" lon="7.8902241"><ele>1084.0</ele><time>2026-05-03T09:01:13.126Z</time></trkpt><trkpt lat="44.1028163" lon="7.8903268"><ele>1082.3333333333335</ele><time>2026-05-03T09:01:14.126Z</time></trkpt><trkpt lat="44.1028592" lon="7.8904416"><ele>1080.6666666666667</ele><time>2026-05-03T09:01:15.126Z</time></trkpt><trkpt lat="44.1029212" lon="7.8905208"><ele>1079.0</ele><time>2026-05-03T09:01:16.126Z</time></trkpt><trkpt lat="44.1029982" lon="7.8905844"><ele>1079.0</ele><time>2026-05-03T09:01:17.126Z</time></trkpt><trkpt lat="44.1030728" lon="7.8906557"><ele>1079.0</ele><time>2026-05-03T09:01:18.126Z</time></trkpt><trkpt lat="44.1031557" lon="7.8907289"><ele>1079.0</ele><time>2026-05-03T09:01:19.126Z</time></trkpt><trkpt lat="44.1032331" lon="7.890784"><ele>1079.0</ele><time>2026-05-03T09:01:20.126Z</time></trkpt><trkpt lat="44.1033095" lon="7.8908239"><ele>1079.0</ele><time>2026-05-03T09:01:21.126Z</time></trkpt><trkpt lat="44.1033754" lon="7.8908694"><ele>1079.0</ele><time>2026-05-03T09:01:22.126Z</time></trkpt><trkpt lat="44.1034408" lon="7.8909248"><ele>1079.5</ele><time>2026-05-03T09:01:23.126Z</time></trkpt><trkpt lat="44.1034991" lon="7.8909897"><ele>1080.0</ele><time>2026-05-03T09:01:24.126Z</time></trkpt><trkpt lat="44.1035473" lon="7.8910674"><ele>1080.5</ele><time>2026-05-03T09:01:25.126Z</time></trkpt><trkpt lat="44.1035894" lon="7.8911586"><ele>1081.0</ele><time>2026-05-03T09:01:26.126Z</time></trkpt><trkpt lat="44.1036253" lon="7.8912356"><ele>1081.5</ele><time>2026-05-03T09:01:27.126Z</time></trkpt><trkpt lat="44.1036764" lon="7.8913891"><ele>1082.0</ele><time>2026-05-03T09:01:29.126Z</time></trkpt><trkpt lat="44.1036783" lon="7.8915323"><ele>1082.0</ele><time>2026-05-03T09:01:31.126Z</time></trkpt><trkpt lat="44.103653" lon="7.8916412"><ele>1082.0</ele><time>2026-05-03T09:01:32.127Z</time></trkpt><trkpt lat="44.1036286" lon="7.8917449"><ele>1082.0</ele><time>2026-05-03T09:01:33.127Z</time></trkpt><trkpt lat="44.1036237" lon="7.8918499"><ele>1082.0</ele><time>2026-05-03T09:01:34.127Z</time></trkpt><trkpt lat="44.1036222" lon="7.8919611"><ele>1082.0</ele><time>2026-05-03T09:01:35.126Z</time></trkpt><trkpt lat="44.1036352" lon="7.8920884"><ele>1082.0</ele><time>2026-05-03T09:01:36.126Z</time></trkpt><trkpt lat="44.1036506" lon="7.8922297"><ele>1079.4</ele><time>2026-05-03T09:01:37.126Z</time></trkpt><trkpt lat="44.1036893" lon="7.8923661"><ele>1076.8000000000002</ele><time>2026-05-03T09:01:38.126Z</time></trkpt><trkpt lat="44.1037359" lon="7.8924932"><ele>1074.2</ele><time>2026-05-03T09:01:39.126Z</time></trkpt><trkpt lat="44.103788" lon="7.8926168"><ele>1071.6000000000001</ele><time>2026-05-03T09:01:40.126Z</time></trkpt><trkpt lat="44.1038431" lon="7.8927454"><ele>1069.0</ele><time>2026-05-03T09:01:41.126Z</time></trkpt><trkpt lat="44.1038917" lon="7.8928663"><ele>1067.8333333333333</ele><time>2026-05-03T09:01:42.127Z</time></trkpt><trkpt lat="44.1039298" lon="7.8929766"><ele>1066.6666666666665</ele><time>2026-05-03T09:01:43.126Z</time></trkpt><trkpt lat="44.1039568" lon="7.8930792"><ele>1065.5</ele><time>2026-05-03T09:01:44.127Z</time></trkpt><trkpt lat="44.1039559" lon="7.8931892"><ele>1064.3333333333333</ele><time>2026-05-03T09:01:45.126Z</time></trkpt><trkpt lat="44.1039252" lon="7.8933118"><ele>1063.1666666666667</ele><time>2026-05-03T09:01:46.126Z</time></trkpt><trkpt lat="44.1038821" lon="7.8934443"><ele>1062.0</ele><time>2026-05-03T09:01:47.126Z</time></trkpt><trkpt lat="44.1038528" lon="7.8935764"><ele>1062.0</ele><time>2026-05-03T09:01:48.126Z</time></trkpt><trkpt lat="44.1038397" lon="7.8937106"><ele>1062.0</ele><time>2026-05-03T09:01:49.126Z</time></trkpt><trkpt lat="44.1038375" lon="7.8938606"><ele>1062.0</ele><time>2026-05-03T09:01:50.126Z</time></trkpt><trkpt lat="44.1038448" lon="7.8940181"><ele>1062.0</ele><time>2026-05-03T09:01:51.126Z</time></trkpt><trkpt lat="44.1038547" lon="7.8941672"><ele>1062.0</ele><time>2026-05-03T09:01:52.126Z</time></trkpt><trkpt lat="44.1038588" lon="7.8943067"><ele>1062.4</ele><time>2026-05-03T09:01:53.126Z</time></trkpt><trkpt lat="44.1038591" lon="7.8944497"><ele>1062.8000000000002</ele><time>2026-05-03T09:01:54.126Z</time></trkpt><trkpt lat="44.1038687" lon="7.8945737"><ele>1063.2</ele><time>2026-05-03T09:01:55.126Z</time></trkpt><trkpt lat="44.1038777" lon="7.8946959"><ele>1063.6000000000001</ele><time>2026-05-03T09:01:56.127Z</time></trkpt><trkpt lat="44.1039021" lon="7.89482"><ele>1064.0</ele><time>2026-05-03T09:01:57.126Z</time></trkpt><trkpt lat="44.1039346" lon="7.8949533"><ele>1063.4</ele><time>2026-05-03T09:01:58.127Z</time></trkpt><trkpt lat="44.1039769" lon="7.8950925"><ele>1062.8000000000002</ele><time>2026-05-03T09:01:59.126Z</time></trkpt><trkpt lat="44.1040133" lon="7.89523"><ele>1062.1999999999998</ele><time>2026-05-03T09:02:00.127Z</time></trkpt><trkpt lat="44.1040505" lon="7.8953689"><ele>1061.6</ele><time>2026-05-03T09:02:01.126Z</time></trkpt><trkpt lat="44.1040821" lon="7.8954967"><ele>1061.0</ele><time>2026-05-03T09:02:02.126Z</time></trkpt><trkpt lat="44.1041059" lon="7.895634"><ele>1067.0</ele><time>2026-05-03T09:02:03.126Z</time></trkpt><trkpt lat="44.1041215" lon="7.8957809"><ele>1073.0</ele><time>2026-05-03T09:02:04.127Z</time></trkpt><trkpt lat="44.1041312" lon="7.8959278"><ele>1079.0</ele><time>2026-05-03T09:02:05.126Z</time></trkpt><trkpt lat="44.1041392" lon="7.8960808"><ele>1085.0</ele><time>2026-05-03T09:02:06.126Z</time></trkpt><trkpt lat="44.1041535" lon="7.8962192"><ele>1091.0</ele><time>2026-05-03T09:02:07.126Z</time></trkpt><trkpt lat="44.1041728" lon="7.896352"><ele>1091.0</ele><time>2026-05-03T09:02:08.126Z</time></trkpt><trkpt lat="44.104204" lon="7.896495"><ele>1091.0</ele><time>2026-05-03T09:02:09.127Z</time></trkpt><trkpt lat="44.104236" lon="7.8966402"><ele>1091.0</ele><time>2026-05-03T09:02:10.126Z</time></trkpt><trkpt lat="44.1042718" lon="7.8967805"><ele>1091.0</ele><time>2026-05-03T09:02:11.126Z</time></trkpt><trkpt lat="44.1043121" lon="7.8969184"><ele>1091.0</ele><time>2026-05-03T09:02:12.126Z</time></trkpt><trkpt lat="44.1043603" lon="7.8970426"><ele>1090.0</ele><time>2026-05-03T09:02:13.126Z</time></trkpt><trkpt lat="44.1043993" lon="7.897169"><ele>1089.0</ele><time>2026-05-03T09:02:14.126Z</time></trkpt><trkpt lat="44.1044228" lon="7.8973003"><ele>1088.0</ele><time>2026-05-03T09:02:15.126Z</time></trkpt><trkpt lat="44.1044364" lon="7.8974234"><ele>1087.0</ele><time>2026-05-03T09:02:16.126Z</time></trkpt><trkpt lat="44.1044385" lon="7.8975414"><ele>1086.0</ele><time>2026-05-03T09:02:17.126Z</time></trkpt><trkpt lat="44.1044559" lon="7.8976489"><ele>1085.0</ele><time>2026-05-03T09:02:18.127Z</time></trkpt><trkpt lat="44.1044926" lon="7.8977553"><ele>1085.6666666666667</ele><time>2026-05-03T09:02:19.126Z</time></trkpt><trkpt lat="44.1045452" lon="7.8978408"><ele>1086.3333333333335</ele><time>2026-05-03T09:02:20.126Z</time></trkpt><trkpt lat="44.1045995" lon="7.897911"><ele>1087.0</ele><time>2026-05-03T09:02:21.127Z</time></trkpt><trkpt lat="44.1046524" lon="7.8979756"><ele>1087.6666666666667</ele><time>2026-05-03T09:02:22.126Z</time></trkpt><trkpt lat="44.1047302" lon="7.8980154"><ele>1088.3333333333333</ele><time>2026-05-03T09:02:23.128Z</time></trkpt><trkpt lat="44.1048233" lon="7.8980332"><ele>1089.0</ele><time>2026-05-03T09:02:24.126Z</time></trkpt><trkpt lat="44.1049243" lon="7.8980499"><ele>1089.0</ele><time>2026-05-03T09:02:25.126Z</time></trkpt><trkpt lat="44.1050291" lon="7.898067"><ele>1089.0</ele><time>2026-05-03T09:02:26.126Z</time></trkpt><trkpt lat="44.1051095" lon="7.8980866"><ele>1089.0</ele><time>2026-05-03T09:02:27.126Z</time></trkpt><trkpt lat="44.1051875" lon="7.8981349"><ele>1089.0</ele><time>2026-05-03T09:02:28.126Z</time></trkpt><trkpt lat="44.1052557" lon="7.8982039"><ele>1089.0</ele><time>2026-05-03T09:02:29.126Z</time></trkpt><trkpt lat="44.1053204" lon="7.8982942"><ele>1089.0</ele><time>2026-05-03T09:02:30.127Z</time></trkpt><trkpt lat="44.1053839" lon="7.8983934"><ele>1086.1666666666667</ele><time>2026-05-03T09:02:31.126Z</time></trkpt><trkpt lat="44.1054525" lon="7.898473"><ele>1083.3333333333333</ele><time>2026-05-03T09:02:32.126Z</time></trkpt><trkpt lat="44.105521" lon="7.8985447"><ele>1080.5</ele><time>2026-05-03T09:02:33.126Z</time></trkpt><trkpt lat="44.1055841" lon="7.8986176"><ele>1077.6666666666665</ele><time>2026-05-03T09:02:34.128Z</time></trkpt><trkpt lat="44.1056328" lon="7.8987117"><ele>1074.8333333333333</ele><time>2026-05-03T09:02:35.126Z</time></trkpt><trkpt lat="44.1056707" lon="7.8988357"><ele>1072.0</ele><time>2026-05-03T09:02:36.126Z</time></trkpt><trkpt lat="44.105704" lon="7.8989869"><ele>1072.0</ele><time>2026-05-03T09:02:37.126Z</time></trkpt><trkpt lat="44.1057333" lon="7.8991573"><ele>1072.0</ele><time>2026-05-03T09:02:38.126Z</time></trkpt><trkpt lat="44.1057715" lon="7.89932"><ele>1072.0</ele><time>2026-05-03T09:02:39.126Z</time></trkpt><trkpt lat="44.1058108" lon="7.8994619"><ele>1072.0</ele><time>2026-05-03T09:02:40.126Z</time></trkpt><trkpt lat="44.10585" lon="7.8995951"><ele>1078.2</ele><time>2026-05-03T09:02:41.126Z</time></trkpt><trkpt lat="44.1058659" lon="7.899733"><ele>1084.4</ele><time>2026-05-03T09:02:42.126Z</time></trkpt><trkpt lat="44.1058639" lon="7.8998771"><ele>1090.6</ele><time>2026-05-03T09:02:43.127Z</time></trkpt><trkpt lat="44.1058526" lon="7.9000269"><ele>1096.8</ele><time>2026-05-03T09:02:44.126Z</time></trkpt><trkpt lat="44.1058471" lon="7.9001801"><ele>1103.0</ele><time>2026-05-03T09:02:45.126Z</time></trkpt><trkpt lat="44.1058535" lon="7.9003274"><ele>1103.0</ele><time>2026-05-03T09:02:46.126Z</time></trkpt><trkpt lat="44.1058694" lon="7.9004665"><ele>1103.0</ele><time>2026-05-03T09:02:47.126Z</time></trkpt><trkpt lat="44.1058997" lon="7.9006112"><ele>1103.0</ele><time>2026-05-03T09:02:48.126Z</time></trkpt><trkpt lat="44.105931" lon="7.9007649"><ele>1103.0</ele><time>2026-05-03T09:02:49.126Z</time></trkpt><trkpt lat="44.1059412" lon="7.9009249"><ele>1103.0</ele><time>2026-05-03T09:02:50.126Z</time></trkpt><trkpt lat="44.1059408" lon="7.90109"><ele>1102.8</ele><time>2026-05-03T09:02:51.126Z</time></trkpt><trkpt lat="44.105952" lon="7.9012549"><ele>1102.6</ele><time>2026-05-03T09:02:52.126Z</time></trkpt><trkpt lat="44.1059818" lon="7.9014167"><ele>1102.4</ele><time>2026-05-03T09:02:53.126Z</time></trkpt><trkpt lat="44.1060256" lon="7.9015503"><ele>1102.2</ele><time>2026-05-03T09:02:54.126Z</time></trkpt><trkpt lat="44.1060722" lon="7.9016585"><ele>1102.0</ele><time>2026-05-03T09:02:55.126Z</time></trkpt><trkpt lat="44.1061302" lon="7.9017679"><ele>1098.25</ele><time>2026-05-03T09:02:56.126Z</time></trkpt><trkpt lat="44.1061936" lon="7.9018854"><ele>1094.5</ele><time>2026-05-03T09:02:57.127Z</time></trkpt><trkpt lat="44.1062538" lon="7.9020239"><ele>1090.75</ele><time>2026-05-03T09:02:58.126Z</time></trkpt><trkpt lat="44.1063168" lon="7.9021907"><ele>1087.0</ele><time>2026-05-03T09:02:59.126Z</time></trkpt><trkpt lat="44.1063935" lon="7.9023767"><ele>1087.0</ele><time>2026-05-03T09:03:00.127Z</time></trkpt><trkpt lat="44.1064675" lon="7.9025689"><ele>1087.0</ele><time>2026-05-03T09:03:01.126Z</time></trkpt><trkpt lat="44.106519" lon="7.9027444"><ele>1087.0</ele><time>2026-05-03T09:03:02.126Z</time></trkpt><trkpt lat="44.106555" lon="7.9029187"><ele>1087.0</ele><time>2026-05-03T09:03:03.126Z</time></trkpt><trkpt lat="44.1065816" lon="7.9030978"><ele>1090.5</ele><time>2026-05-03T09:03:04.126Z</time></trkpt><trkpt lat="44.1065922" lon="7.9032843"><ele>1094.0</ele><time>2026-05-03T09:03:05.126Z</time></trkpt><trkpt lat="44.1065885" lon="7.9034656"><ele>1097.5</ele><time>2026-05-03T09:03:06.127Z</time></trkpt><trkpt lat="44.1065806" lon="7.903646"><ele>1101.0</ele><time>2026-05-03T09:03:07.126Z</time></trkpt><trkpt lat="44.1065697" lon="7.9038142"><ele>1101.0</ele><time>2026-05-03T09:03:08.126Z</time></trkpt><trkpt lat="44.1065461" lon="7.9039478"><ele>1101.0</ele><time>2026-05-03T09:03:09.126Z</time></trkpt><trkpt lat="44.1065306" lon="7.9040554"><ele>1101.0</ele><time>2026-05-03T09:03:10.127Z</time></trkpt><trkpt lat="44.1065301" lon="7.9041613"><ele>1101.0</ele><time>2026-05-03T09:03:11.126Z</time></trkpt><trkpt lat="44.1065631" lon="7.9042501"><ele>1101.0</ele><time>2026-05-03T09:03:12.126Z</time></trkpt><trkpt lat="44.1066274" lon="7.9043188"><ele>1101.0</ele><time>2026-05-03T09:03:13.126Z</time></trkpt><trkpt lat="44.1067051" lon="7.9043871"><ele>1104.2</ele><time>2026-05-03T09:03:14.126Z</time></trkpt><trkpt lat="44.1067917" lon="7.9044494"><ele>1107.3999999999999</ele><time>2026-05-03T09:03:15.126Z</time></trkpt><trkpt lat="44.1068904" lon="7.9045239"><ele>1110.6</ele><time>2026-05-03T09:03:16.127Z</time></trkpt><trkpt lat="44.1069876" lon="7.9046212"><ele>1113.8</ele><time>2026-05-03T09:03:17.126Z</time></trkpt><trkpt lat="44.1070701" lon="7.9047353"><ele>1117.0</ele><time>2026-05-03T09:03:18.126Z</time></trkpt><trkpt lat="44.1071452" lon="7.904863"><ele>1117.0</ele><time>2026-05-03T09:03:19.127Z</time></trkpt><trkpt lat="44.1072244" lon="7.9049836"><ele>1117.0</ele><time>2026-05-03T09:03:20.126Z</time></trkpt><trkpt lat="44.1073126" lon="7.9050799"><ele>1117.0</ele><time>2026-05-03T09:03:21.126Z</time></trkpt><trkpt lat="44.1073937" lon="7.9051803"><ele>1117.0</ele><time>2026-05-03T09:03:22.126Z</time></trkpt><trkpt lat="44.1074588" lon="7.9052855"><ele>1117.0</ele><time>2026-05-03T09:03:23.127Z</time></trkpt><trkpt lat="44.107519" lon="7.9053836"><ele>1119.5</ele><time>2026-05-03T09:03:24.126Z</time></trkpt><trkpt lat="44.1075853" lon="7.9054563"><ele>1122.0</ele><time>2026-05-03T09:03:25.126Z</time></trkpt><trkpt lat="44.1076442" lon="7.9055174"><ele>1124.5</ele><time>2026-05-03T09:03:26.126Z</time></trkpt><trkpt lat="44.1076974" lon="7.9055963"><ele>1127.0</ele><time>2026-05-03T09:03:27.126Z</time></trkpt><trkpt lat="44.1077397" lon="7.9056943"><ele>1129.5</ele><time>2026-05-03T09:03:28.126Z</time></trkpt><trkpt lat="44.1077884" lon="7.9058096"><ele>1132.0</ele><time>2026-05-03T09:03:29.126Z</time></trkpt><trkpt lat="44.1078325" lon="7.9059357"><ele>1134.0</ele><time>2026-05-03T09:03:30.126Z</time></trkpt><trkpt lat="44.1078629" lon="7.9060692"><ele>1136.0</ele><time>2026-05-03T09:03:31.127Z</time></trkpt><trkpt lat="44.1078685" lon="7.9061887"><ele>1138.0</ele><time>2026-05-03T09:03:32.127Z</time></trkpt><trkpt lat="44.1078194" lon="7.906308"><ele>1140.0</ele><time>2026-05-03T09:03:34.126Z</time></trkpt><trkpt lat="44.1077222" lon="7.9063992"><ele>1142.0</ele><time>2026-05-03T09:03:36.126Z</time></trkpt><trkpt lat="44.1076498" lon="7.9064534"><ele>1142.0</ele><time>2026-05-03T09:03:37.126Z</time></trkpt><trkpt lat="44.1075762" lon="7.9065447"><ele>1142.0</ele><time>2026-05-03T09:03:38.126Z</time></trkpt><trkpt lat="44.1074996" lon="7.9066588"><ele>1142.0</ele><time>2026-05-03T09:03:39.127Z</time></trkpt><trkpt lat="44.1074254" lon="7.9067607"><ele>1142.0</ele><time>2026-05-03T09:03:40.126Z</time></trkpt><trkpt lat="44.10735" lon="7.9068694"><ele>1142.0</ele><time>2026-05-03T09:03:41.126Z</time></trkpt><trkpt lat="44.1072665" lon="7.9069866"><ele>1141.0</ele><time>2026-05-03T09:03:42.127Z</time></trkpt><trkpt lat="44.107183" lon="7.9071064"><ele>1140.0</ele><time>2026-05-03T09:03:43.127Z</time></trkpt><trkpt lat="44.1071029" lon="7.9072187"><ele>1139.0</ele><time>2026-05-03T09:03:44.126Z</time></trkpt><trkpt lat="44.1070283" lon="7.9073332"><ele>1138.0</ele><time>2026-05-03T09:03:45.127Z</time></trkpt><trkpt lat="44.10696" lon="7.9074547"><ele>1140.4</ele><time>2026-05-03T09:03:46.126Z</time></trkpt><trkpt lat="44.1069" lon="7.9075799"><ele>1142.8</ele><time>2026-05-03T09:03:47.127Z</time></trkpt><trkpt lat="44.1068455" lon="7.9077025"><ele>1145.2</ele><time>2026-05-03T09:03:48.126Z</time></trkpt><trkpt lat="44.1068085" lon="7.9078264"><ele>1147.6</ele><time>2026-05-03T09:03:49.126Z</time></trkpt><trkpt lat="44.106783" lon="7.9079609"><ele>1150.0</ele><time>2026-05-03T09:03:50.126Z</time></trkpt><trkpt lat="44.1067739" lon="7.9081116"><ele>1150.0</ele><time>2026-05-03T09:03:51.126Z</time></trkpt><trkpt lat="44.1067757" lon="7.908262"><ele>1150.0</ele><time>2026-05-03T09:03:52.126Z</time></trkpt><trkpt lat="44.1067875" lon="7.9084015"><ele>1150.0</ele><time>2026-05-03T09:03:53.127Z</time></trkpt><trkpt lat="44.1067969" lon="7.9085314"><ele>1150.0</ele><time>2026-05-03T09:03:54.126Z</time></trkpt><trkpt lat="44.1068004" lon="7.9086688"><ele>1150.0</ele><time>2026-05-03T09:03:55.127Z</time></trkpt><trkpt lat="44.1068061" lon="7.9088031"><ele>1151.2</ele><time>2026-05-03T09:03:56.126Z</time></trkpt><trkpt lat="44.1068246" lon="7.9089395"><ele>1152.4</ele><time>2026-05-03T09:03:57.127Z</time></trkpt><trkpt lat="44.1068618" lon="7.909065"><ele>1153.6</ele><time>2026-05-03T09:03:58.126Z</time></trkpt><trkpt lat="44.1069211" lon="7.9091854"><ele>1154.8</ele><time>2026-05-03T09:03:59.127Z</time></trkpt><trkpt lat="44.1069924" lon="7.9093062"><ele>1156.0</ele><time>2026-05-03T09:04:00.126Z</time></trkpt><trkpt lat="44.1070752" lon="7.9094206"><ele>1153.0</ele><time>2026-05-03T09:04:01.127Z</time></trkpt><trkpt lat="44.1071606" lon="7.9095373"><ele>1150.0</ele><time>2026-05-03T09:04:02.126Z</time></trkpt><trkpt lat="44.1072429" lon="7.9096634"><ele>1147.0</ele><time>2026-05-03T09:04:03.126Z</time></trkpt><trkpt lat="44.1073229" lon="7.9097958"><ele>1144.0</ele><time>2026-05-03T09:04:04.127Z</time></trkpt><trkpt lat="44.1073984" lon="7.9099306"><ele>1150.25</ele><time>2026-05-03T09:04:05.126Z</time></trkpt><trkpt lat="44.1074699" lon="7.9100757"><ele>1156.5</ele><time>2026-05-03T09:04:06.126Z</time></trkpt><trkpt lat="44.1075398" lon="7.9102275"><ele>1162.75</ele><time>2026-05-03T09:04:07.126Z</time></trkpt><trkpt lat="44.1076041" lon="7.9103794"><ele>1169.0</ele><time>2026-05-03T09:04:08.127Z</time></trkpt><trkpt lat="44.1076592" lon="7.9105244"><ele>1169.0</ele><time>2026-05-03T09:04:09.126Z</time></trkpt><trkpt lat="44.1076957" lon="7.9106709"><ele>1169.0</ele><time>2026-05-03T09:04:10.126Z</time></trkpt><trkpt lat="44.1077257" lon="7.9108222"><ele>1169.0</ele><time>2026-05-03T09:04:11.126Z</time></trkpt><trkpt lat="44.1077533" lon="7.9109708"><ele>1169.0</ele><time>2026-05-03T09:04:12.127Z</time></trkpt><trkpt lat="44.1077847" lon="7.9111167"><ele>1169.0</ele><time>2026-05-03T09:04:13.126Z</time></trkpt><trkpt lat="44.1078132" lon="7.9112561"><ele>1168.25</ele><time>2026-05-03T09:04:14.127Z</time></trkpt><trkpt lat="44.1078575" lon="7.9113918"><ele>1167.5</ele><time>2026-05-03T09:04:15.126Z</time></trkpt><trkpt lat="44.1079115" lon="7.9115281"><ele>1166.75</ele><time>2026-05-03T09:04:16.126Z</time></trkpt><trkpt lat="44.1079596" lon="7.9116725"><ele>1166.0</ele><time>2026-05-03T09:04:17.127Z</time></trkpt><trkpt lat="44.1080043" lon="7.9118317"><ele>1165.25</ele><time>2026-05-03T09:04:18.126Z</time></trkpt><trkpt lat="44.1080471" lon="7.9120147"><ele>1164.5</ele><time>2026-05-03T09:04:19.126Z</time></trkpt><trkpt lat="44.1080889" lon="7.9122048"><ele>1163.75</ele><time>2026-05-03T09:04:20.126Z</time></trkpt><trkpt lat="44.1081295" lon="7.9123897"><ele>1163.0</ele><time>2026-05-03T09:04:21.126Z</time></trkpt><trkpt lat="44.1081667" lon="7.912563"><ele>1163.25</ele><time>2026-05-03T09:04:22.126Z</time></trkpt><trkpt lat="44.1081988" lon="7.9127148"><ele>1163.5</ele><time>2026-05-03T09:04:23.126Z</time></trkpt><trkpt lat="44.1082203" lon="7.9128692"><ele>1163.75</ele><time>2026-05-03T09:04:24.126Z</time></trkpt><trkpt lat="44.1082409" lon="7.9130256"><ele>1164.0</ele><time>2026-05-03T09:04:25.126Z</time></trkpt><trkpt lat="44.1082638" lon="7.9131781"><ele>1173.5</ele><time>2026-05-03T09:04:26.126Z</time></trkpt><trkpt lat="44.1082819" lon="7.9133336"><ele>1183.0</ele><time>2026-05-03T09:04:27.127Z</time></trkpt><trkpt lat="44.1083007" lon="7.9134954"><ele>1192.5</ele><time>2026-05-03T09:04:28.126Z</time></trkpt><trkpt lat="44.1083275" lon="7.9136558"><ele>1202.0</ele><time>2026-05-03T09:04:29.127Z</time></trkpt><trkpt lat="44.1083607" lon="7.9138143"><ele>1202.2</ele><time>2026-05-03T09:04:30.126Z</time></trkpt><trkpt lat="44.1084061" lon="7.9139709"><ele>1202.4</ele><time>2026-05-03T09:04:31.126Z</time></trkpt><trkpt lat="44.1084607" lon="7.9141165"><ele>1202.6</ele><time>2026-05-03T09:04:32.126Z</time></trkpt><trkpt lat="44.1085185" lon="7.91422"><ele>1202.8</ele><time>2026-05-03T09:04:33.126Z</time></trkpt><trkpt lat="44.1085844" lon="7.9142828"><ele>1203.0</ele><time>2026-05-03T09:04:34.126Z</time></trkpt><trkpt lat="44.1086525" lon="7.9143377"><ele>1203.0</ele><time>2026-05-03T09:04:35.126Z</time></trkpt><trkpt lat="44.108716" lon="7.9143869"><ele>1203.0</ele><time>2026-05-03T09:04:36.126Z</time></trkpt><trkpt lat="44.1087583" lon="7.9144544"><ele>1203.0</ele><time>2026-05-03T09:04:37.127Z</time></trkpt><trkpt lat="44.1087856" lon="7.914535"><ele>1203.0</ele><time>2026-05-03T09:04:38.126Z</time></trkpt><trkpt lat="44.1087885" lon="7.914632"><ele>1203.0</ele><time>2026-05-03T09:04:39.126Z</time></trkpt><trkpt lat="44.1087687" lon="7.914743"><ele>1203.0</ele><time>2026-05-03T09:04:40.126Z</time></trkpt><trkpt lat="44.1087545" lon="7.9148676"><ele>1203.0</ele><time>2026-05-03T09:04:41.127Z</time></trkpt><trkpt lat="44.108742" lon="7.9150152"><ele>1203.5</ele><time>2026-05-03T09:04:42.126Z</time></trkpt><trkpt lat="44.1087415" lon="7.9151734"><ele>1204.0</ele><time>2026-05-03T09:04:43.126Z</time></trkpt><trkpt lat="44.1087366" lon="7.9153349"><ele>1204.5</ele><time>2026-05-03T09:04:44.126Z</time></trkpt><trkpt lat="44.1087366" lon="7.9155081"><ele>1205.0</ele><time>2026-05-03T09:04:45.127Z</time></trkpt><trkpt lat="44.1087433" lon="7.9156859"><ele>1205.0</ele><time>2026-05-03T09:04:46.126Z</time></trkpt><trkpt lat="44.1087368" lon="7.9158577"><ele>1205.0</ele><time>2026-05-03T09:04:47.126Z</time></trkpt><trkpt lat="44.1087244" lon="7.9160346"><ele>1205.0</ele><time>2026-05-03T09:04:48.126Z</time></trkpt><trkpt lat="44.1087133" lon="7.9162337"><ele>1205.0</ele><time>2026-05-03T09:04:49.126Z</time></trkpt><trkpt lat="44.1087036" lon="7.9164283"><ele>1207.25</ele><time>2026-05-03T09:04:50.127Z</time></trkpt><trkpt lat="44.1086949" lon="7.9166169"><ele>1209.5</ele><time>2026-05-03T09:04:51.126Z</time></trkpt><trkpt lat="44.1086741" lon="7.9167752"><ele>1211.75</ele><time>2026-05-03T09:04:52.126Z</time></trkpt><trkpt lat="44.1086546" lon="7.9169303"><ele>1214.0</ele><time>2026-05-03T09:04:53.127Z</time></trkpt><trkpt lat="44.1086414" lon="7.9170844"><ele>1216.25</ele><time>2026-05-03T09:04:54.127Z</time></trkpt><trkpt lat="44.1086366" lon="7.9172439"><ele>1218.5</ele><time>2026-05-03T09:04:55.126Z</time></trkpt><trkpt lat="44.1086418" lon="7.9174235"><ele>1220.75</ele><time>2026-05-03T09:04:56.126Z</time></trkpt><trkpt lat="44.1086467" lon="7.9176119"><ele>1223.0</ele><time>2026-05-03T09:04:57.126Z</time></trkpt><trkpt lat="44.1086435" lon="7.9177923"><ele>1226.25</ele><time>2026-05-03T09:04:58.126Z</time></trkpt><trkpt lat="44.1086384" lon="7.9179627"><ele>1229.5</ele><time>2026-05-03T09:04:59.126Z</time></trkpt><trkpt lat="44.1086329" lon="7.9181333"><ele>1232.75</ele><time>2026-05-03T09:05:00.126Z</time></trkpt><trkpt lat="44.1086254" lon="7.9183174"><ele>1236.0</ele><time>2026-05-03T09:05:01.127Z</time></trkpt><trkpt lat="44.1086117" lon="7.9185214"><ele>1238.5</ele><time>2026-05-03T09:05:02.126Z</time></trkpt><trkpt lat="44.1085916" lon="7.9187201"><ele>1241.0</ele><time>2026-05-03T09:05:03.126Z</time></trkpt><trkpt lat="44.10857" lon="7.9188914"><ele>1243.5</ele><time>2026-05-03T09:05:04.126Z</time></trkpt><trkpt lat="44.1085562" lon="7.9190451"><ele>1246.0</ele><time>2026-05-03T09:05:05.127Z</time></trkpt><trkpt lat="44.1085458" lon="7.9191913"><ele>1247.0</ele><time>2026-05-03T09:05:06.126Z</time></trkpt><trkpt lat="44.1085385" lon="7.9193353"><ele>1248.0</ele><time>2026-05-03T09:05:07.127Z</time></trkpt><trkpt lat="44.1085288" lon="7.9194729"><ele>1249.0</ele><time>2026-05-03T09:05:08.126Z</time></trkpt><trkpt lat="44.1085223" lon="7.9195915"><ele>1250.0</ele><time>2026-05-03T09:05:09.126Z</time></trkpt><trkpt lat="44.1085255" lon="7.9196986"><ele>1251.0</ele><time>2026-05-03T09:05:10.126Z</time></trkpt><trkpt lat="44.1085437" lon="7.9197931"><ele>1252.0</ele><time>2026-05-03T09:05:11.126Z</time></trkpt><trkpt lat="44.1085753" lon="7.9198887"><ele>1252.0</ele><time>2026-05-03T09:05:12.127Z</time></trkpt><trkpt lat="44.1086124" lon="7.9199949"><ele>1252.0</ele><time>2026-05-03T09:05:13.127Z</time></trkpt><trkpt lat="44.1086534" lon="7.9200973"><ele>1252.0</ele><time>2026-05-03T09:05:14.126Z</time></trkpt><trkpt lat="44.1086734" lon="7.9202079"><ele>1252.0</ele><time>2026-05-03T09:05:15.126Z</time></trkpt><trkpt lat="44.1086739" lon="7.9203201"><ele>1252.0</ele><time>2026-05-03T09:05:16.126Z</time></trkpt><trkpt lat="44.1086665" lon="7.9204296"><ele>1252.0</ele><time>2026-05-03T09:05:17.127Z</time></trkpt><trkpt lat="44.1086528" lon="7.9205292"><ele>1254.0</ele><time>2026-05-03T09:05:18.126Z</time></trkpt><trkpt lat="44.1086077" lon="7.9206097"><ele>1256.0</ele><time>2026-05-03T09:05:19.126Z</time></trkpt><trkpt lat="44.1085489" lon="7.9206911"><ele>1258.0</ele><time>2026-05-03T09:05:20.127Z</time></trkpt><trkpt lat="44.1084877" lon="7.9207779"><ele>1260.0</ele><time>2026-05-03T09:05:21.126Z</time></trkpt><trkpt lat="44.1084314" lon="7.9208613"><ele>1262.0</ele><time>2026-05-03T09:05:22.127Z</time></trkpt><trkpt lat="44.108381" lon="7.9209558"><ele>1264.0</ele><time>2026-05-03T09:05:23.126Z</time></trkpt><trkpt lat="44.1083257" lon="7.9210469"><ele>1263.6666666666665</ele><time>2026-05-03T09:05:24.127Z</time></trkpt><trkpt lat="44.1082786" lon="7.9211317"><ele>1263.3333333333333</ele><time>2026-05-03T09:05:25.127Z</time></trkpt><trkpt lat="44.1082373" lon="7.9212202"><ele>1263.0</ele><time>2026-05-03T09:05:26.127Z</time></trkpt><trkpt lat="44.1081981" lon="7.9213079"><ele>1262.6666666666667</ele><time>2026-05-03T09:05:27.127Z</time></trkpt><trkpt lat="44.1081677" lon="7.9213985"><ele>1262.3333333333335</ele><time>2026-05-03T09:05:28.126Z</time></trkpt><trkpt lat="44.1081499" lon="7.9214907"><ele>1262.0</ele><time>2026-05-03T09:05:29.126Z</time></trkpt><trkpt lat="44.1081473" lon="7.9216326"><ele>1262.0</ele><time>2026-05-03T09:05:31.126Z</time></trkpt><trkpt lat="44.10814" lon="7.9217226"><ele>1262.0</ele><time>2026-05-03T09:12:57.127Z</time></trkpt><trkpt lat="44.1081261" lon="7.921813"><ele>1262.0</ele><time>2026-05-03T09:12:59.127Z</time></trkpt><trkpt lat="44.108098" lon="7.9218947"><ele>1262.0</ele><time>2026-05-03T09:13:00.128Z</time></trkpt><trkpt lat="44.108053" lon="7.9219939"><ele>1262.0</ele><time>2026-05-03T09:13:01.127Z</time></trkpt><trkpt lat="44.1080012" lon="7.9221121"><ele>1262.0</ele><time>2026-05-03T09:13:02.128Z</time></trkpt><trkpt lat="44.1079561" lon="7.922229"><ele>1265.75</ele><time>2026-05-03T09:13:03.128Z</time></trkpt><trkpt lat="44.1079041" lon="7.9223529"><ele>1269.5</ele><time>2026-05-03T09:13:04.128Z</time></trkpt><trkpt lat="44.1078483" lon="7.9224823"><ele>1273.25</ele><time>2026-05-03T09:13:05.127Z</time></trkpt><trkpt lat="44.1077737" lon="7.9226259"><ele>1277.0</ele><time>2026-05-03T09:13:06.128Z</time></trkpt><trkpt lat="44.1076841" lon="7.922767"><ele>1278.8</ele><time>2026-05-03T09:13:07.127Z</time></trkpt><trkpt lat="44.1075886" lon="7.9229031"><ele>1280.6</ele><time>2026-05-03T09:13:08.127Z</time></trkpt><trkpt lat="44.1075055" lon="7.9230213"><ele>1282.3999999999999</ele><time>2026-05-03T09:13:09.127Z</time></trkpt><trkpt lat="44.1074349" lon="7.9231541"><ele>1284.2</ele><time>2026-05-03T09:13:10.127Z</time></trkpt><trkpt lat="44.1074145" lon="7.9232501"><ele>1286.0</ele><time>2026-05-03T09:13:11.127Z</time></trkpt><trkpt lat="44.1075154" lon="7.9232814"><ele>1286.0</ele><time>2026-05-03T09:13:12.127Z</time></trkpt><trkpt lat="44.107587" lon="7.9232744"><ele>1286.0</ele><time>2026-05-03T09:13:13.127Z</time></trkpt><trkpt lat="44.107654" lon="7.9232454"><ele>1286.0</ele><time>2026-05-03T09:13:14.127Z</time></trkpt><trkpt lat="44.1077177" lon="7.9230797"><ele>1286.0</ele><time>2026-05-03T09:13:15.127Z</time></trkpt><trkpt lat="44.1078064" lon="7.9229692"><ele>1286.0</ele><time>2026-05-03T09:13:16.127Z</time></trkpt><trkpt lat="44.1079268" lon="7.9229092"><ele>1286.0</ele><time>2026-05-03T09:13:17.128Z</time></trkpt><trkpt lat="44.1080712" lon="7.9228595"><ele>1286.0</ele><time>2026-05-03T09:13:18.127Z</time></trkpt><trkpt lat="44.1082103" lon="7.9227983"><ele>1286.0</ele><time>2026-05-03T09:13:19.128Z</time></trkpt><trkpt lat="44.108353" lon="7.9227203"><ele>1286.0</ele><time>2026-05-03T09:13:20.127Z</time></trkpt><trkpt lat="44.1084891" lon="7.9226293"><ele>1290.0</ele><time>2026-05-03T09:13:21.127Z</time></trkpt><trkpt lat="44.1086311" lon="7.9225384"><ele>1294.0</ele><time>2026-05-03T09:13:22.128Z</time></trkpt><trkpt lat="44.1087795" lon="7.9224643"><ele>1298.0</ele><time>2026-05-03T09:13:23.127Z</time></trkpt><trkpt lat="44.1089262" lon="7.922426"><ele>1298.0</ele><time>2026-05-03T09:13:24.127Z</time></trkpt><trkpt lat="44.1090674" lon="7.9224245"><ele>1298.0</ele><time>2026-05-03T09:13:25.127Z</time></trkpt><trkpt lat="44.1092051" lon="7.9224425"><ele>1298.0</ele><time>2026-05-03T09:13:26.127Z</time></trkpt><trkpt lat="44.1093272" lon="7.9224946"><ele>1298.0</ele><time>2026-05-03T09:13:27.127Z</time></trkpt><trkpt lat="44.1094265" lon="7.9225803"><ele>1303.4</ele><time>2026-05-03T09:13:28.127Z</time></trkpt><trkpt lat="44.1094732" lon="7.9226906"><ele>1308.8000000000002</ele><time>2026-05-03T09:13:29.127Z</time></trkpt><trkpt lat="44.1094683" lon="7.9227961"><ele>1314.2</ele><time>2026-05-03T09:13:30.127Z</time></trkpt><trkpt lat="44.1093498" lon="7.9228528"><ele>1319.6</ele><time>2026-05-03T09:13:32.128Z</time></trkpt><trkpt lat="44.1092676" lon="7.9227981"><ele>1325.0</ele><time>2026-05-03T09:13:33.127Z</time></trkpt><trkpt lat="44.10918" lon="7.9227319"><ele>1322.0</ele><time>2026-05-03T09:13:34.127Z</time></trkpt><trkpt lat="44.1090716" lon="7.9227082"><ele>1319.0</ele><time>2026-05-03T09:13:35.127Z</time></trkpt><trkpt lat="44.1089535" lon="7.9227218"><ele>1316.0</ele><time>2026-05-03T09:13:36.127Z</time></trkpt><trkpt lat="44.1088325" lon="7.9227359"><ele>1313.0</ele><time>2026-05-03T09:13:37.127Z</time></trkpt><trkpt lat="44.1087208" lon="7.9227642"><ele>1313.0</ele><time>2026-05-03T09:13:38.128Z</time></trkpt><trkpt lat="44.1086212" lon="7.9230138"><ele>1313.0</ele><time>2026-05-03T09:13:39.128Z</time></trkpt><trkpt lat="44.1085406" lon="7.9231898"><ele>1313.0</ele><time>2026-05-03T09:13:40.127Z</time></trkpt><trkpt lat="44.1084852" lon="7.923385"><ele>1316.0</ele><time>2026-05-03T09:13:41.128Z</time></trkpt><trkpt lat="44.1084485" lon="7.9235965"><ele>1319.0</ele><time>2026-05-03T09:13:42.127Z</time></trkpt><trkpt lat="44.1084138" lon="7.9238203"><ele>1322.0</ele><time>2026-05-03T09:13:43.127Z</time></trkpt><trkpt lat="44.1083653" lon="7.9240322"><ele>1321.75</ele><time>2026-05-03T09:13:44.127Z</time></trkpt><trkpt lat="44.1083258" lon="7.9242377"><ele>1321.5</ele><time>2026-05-03T09:13:45.127Z</time></trkpt><trkpt lat="44.1082995" lon="7.9244244"><ele>1321.25</ele><time>2026-05-03T09:13:46.127Z</time></trkpt><trkpt lat="44.1082987" lon="7.9245925"><ele>1321.0</ele><time>2026-05-03T09:13:47.128Z</time></trkpt><trkpt lat="44.1083204" lon="7.9247403"><ele>1321.0</ele><time>2026-05-03T09:13:48.128Z</time></trkpt><trkpt lat="44.1083969" lon="7.9248572"><ele>1321.0</ele><time>2026-05-03T09:13:49.127Z</time></trkpt><trkpt lat="44.1086526" lon="7.9250038"><ele>1321.0</ele><time>2026-05-03T09:13:52.039Z</time></trkpt><trkpt lat="44.1088543" lon="7.9250145"><ele>1319.25</ele><time>2026-05-03T09:13:53.126Z</time></trkpt><trkpt lat="44.1089893" lon="7.9250652"><ele>1317.5</ele><time>2026-05-03T09:13:54.126Z</time></trkpt><trkpt lat="44.1090702" lon="7.9251858"><ele>1315.75</ele><time>2026-05-03T09:13:55.126Z</time></trkpt><trkpt lat="44.1091016" lon="7.9253514"><ele>1314.0</ele><time>2026-05-03T09:13:56.126Z</time></trkpt><trkpt lat="44.1091057" lon="7.9255243"><ele>1321.0</ele><time>2026-05-03T09:13:57.127Z</time></trkpt><trkpt lat="44.1091264" lon="7.9256961"><ele>1328.0</ele><time>2026-05-03T09:13:58.126Z</time></trkpt><trkpt lat="44.1091764" lon="7.9258677"><ele>1335.0</ele><time>2026-05-03T09:13:59.126Z</time></trkpt><trkpt lat="44.1092446" lon="7.9260424"><ele>1342.0</ele><time>2026-05-03T09:14:00.126Z</time></trkpt><trkpt lat="44.1093141" lon="7.9262235"><ele>1342.75</ele><time>2026-05-03T09:14:01.126Z</time></trkpt><trkpt lat="44.109363" lon="7.9264135"><ele>1343.5</ele><time>2026-05-03T09:14:02.127Z</time></trkpt><trkpt lat="44.1093825" lon="7.9266127"><ele>1344.25</ele><time>2026-05-03T09:14:03.126Z</time></trkpt><trkpt lat="44.1093704" lon="7.9268116"><ele>1345.0</ele><time>2026-05-03T09:14:04.126Z</time></trkpt><trkpt lat="44.1093274" lon="7.927003"><ele>1342.75</ele><time>2026-05-03T09:14:05.126Z</time></trkpt><trkpt lat="44.1092601" lon="7.9271775"><ele>1340.5</ele><time>2026-05-03T09:14:06.126Z</time></trkpt><trkpt lat="44.109166" lon="7.9273318"><ele>1338.25</ele><time>2026-05-03T09:14:07.127Z</time></trkpt><trkpt lat="44.1090481" lon="7.9274648"><ele>1336.0</ele><time>2026-05-03T09:14:08.126Z</time></trkpt><trkpt lat="44.1089203" lon="7.9275742"><ele>1341.5</ele><time>2026-05-03T09:14:09.128Z</time></trkpt><trkpt lat="44.1088012" lon="7.9276892"><ele>1347.0</ele><time>2026-05-03T09:14:10.126Z</time></trkpt><trkpt lat="44.1086979" lon="7.9278351"><ele>1352.5</ele><time>2026-05-03T09:14:11.127Z</time></trkpt><trkpt lat="44.1086015" lon="7.9279991"><ele>1358.0</ele><time>2026-05-03T09:14:12.126Z</time></trkpt><trkpt lat="44.1085077" lon="7.9281607"><ele>1358.0</ele><time>2026-05-03T09:14:13.127Z</time></trkpt><trkpt lat="44.1084161" lon="7.9283253"><ele>1358.0</ele><time>2026-05-03T09:14:14.126Z</time></trkpt><trkpt lat="44.1083387" lon="7.9284989"><ele>1358.0</ele><time>2026-05-03T09:14:15.126Z</time></trkpt><trkpt lat="44.1082802" lon="7.9286819"><ele>1358.0</ele><time>2026-05-03T09:14:16.126Z</time></trkpt><trkpt lat="44.1082341" lon="7.9288634"><ele>1360.0</ele><time>2026-05-03T09:14:17.126Z</time></trkpt><trkpt lat="44.1081965" lon="7.9290313"><ele>1362.0</ele><time>2026-05-03T09:14:18.127Z</time></trkpt><trkpt lat="44.1081651" lon="7.9291807"><ele>1364.0</ele><time>2026-05-03T09:14:19.126Z</time></trkpt><trkpt lat="44.1081296" lon="7.9293181"><ele>1366.0</ele><time>2026-05-03T09:14:20.126Z</time></trkpt><trkpt lat="44.1080968" lon="7.9294463"><ele>1368.0</ele><time>2026-05-03T09:14:21.126Z</time></trkpt><trkpt lat="44.1080863" lon="7.9295648"><ele>1368.0</ele><time>2026-05-03T09:14:22.127Z</time></trkpt><trkpt lat="44.1081157" lon="7.9296873"><ele>1368.0</ele><time>2026-05-03T09:14:23.127Z</time></trkpt><trkpt lat="44.1082721" lon="7.929939"><ele>1368.0</ele><time>2026-05-03T09:14:26.126Z</time></trkpt><trkpt lat="44.10842" lon="7.9298357"><ele>1370.0</ele><time>2026-05-03T09:14:27.127Z</time></trkpt><trkpt lat="44.1085536" lon="7.9297242"><ele>1372.0</ele><time>2026-05-03T09:14:28.126Z</time></trkpt><trkpt lat="44.1086787" lon="7.9295825"><ele>1374.0</ele><time>2026-05-03T09:14:29.126Z</time></trkpt><trkpt lat="44.1087949" lon="7.9294395"><ele>1374.0</ele><time>2026-05-03T09:14:30.126Z</time></trkpt><trkpt lat="44.1089149" lon="7.9293131"><ele>1374.0</ele><time>2026-05-03T09:14:31.126Z</time></trkpt><trkpt lat="44.1090436" lon="7.9292064"><ele>1374.0</ele><time>2026-05-03T09:14:32.126Z</time></trkpt><trkpt lat="44.1091844" lon="7.9291343"><ele>1374.6666666666667</ele><time>2026-05-03T09:14:33.127Z</time></trkpt><trkpt lat="44.1093302" lon="7.9290994"><ele>1375.3333333333335</ele><time>2026-05-03T09:14:34.126Z</time></trkpt><trkpt lat="44.1094795" lon="7.9290658"><ele>1376.0</ele><time>2026-05-03T09:14:35.126Z</time></trkpt><trkpt lat="44.1096259" lon="7.929002"><ele>1376.0</ele><time>2026-05-03T09:14:36.126Z</time></trkpt><trkpt lat="44.1097639" lon="7.9289057"><ele>1376.0</ele><time>2026-05-03T09:14:37.126Z</time></trkpt><trkpt lat="44.1098852" lon="7.9287636"><ele>1376.0</ele><time>2026-05-03T09:14:38.127Z</time></trkpt><trkpt lat="44.109999" lon="7.9286094"><ele>1376.0</ele><time>2026-05-03T09:14:39.127Z</time></trkpt><trkpt lat="44.1101335" lon="7.9284806"><ele>1376.0</ele><time>2026-05-03T09:14:40.127Z</time></trkpt><trkpt lat="44.1102877" lon="7.9283722"><ele>1376.0</ele><time>2026-05-03T09:14:41.126Z</time></trkpt><trkpt lat="44.1104328" lon="7.9282602"><ele>1376.0</ele><time>2026-05-03T09:14:42.126Z</time></trkpt><trkpt lat="44.1105716" lon="7.9281508"><ele>1376.0</ele><time>2026-05-03T09:14:43.126Z</time></trkpt><trkpt lat="44.1107058" lon="7.9280427"><ele>1376.0</ele><time>2026-05-03T09:14:44.126Z</time></trkpt><trkpt lat="44.1108472" lon="7.9279602"><ele>1367.3333333333335</ele><time>2026-05-03T09:14:45.126Z</time></trkpt><trkpt lat="44.1109961" lon="7.927929"><ele>1358.6666666666667</ele><time>2026-05-03T09:14:46.126Z</time></trkpt><trkpt lat="44.1111478" lon="7.9279638"><ele>1350.0</ele><time>2026-05-03T09:14:47.126Z</time></trkpt><trkpt lat="44.1112944" lon="7.9280534"><ele>1350.0</ele><time>2026-05-03T09:14:48.126Z</time></trkpt><trkpt lat="44.1114279" lon="7.9281608"><ele>1350.0</ele><time>2026-05-03T09:14:49.127Z</time></trkpt><trkpt lat="44.1115505" lon="7.9283"><ele>1350.0</ele><time>2026-05-03T09:14:50.126Z</time></trkpt><trkpt lat="44.1116752" lon="7.928443"><ele>1342.75</ele><time>2026-05-03T09:14:51.126Z</time></trkpt><trkpt lat="44.1118013" lon="7.92852"><ele>1335.5</ele><time>2026-05-03T09:14:52.126Z</time></trkpt><trkpt lat="44.1119176" lon="7.9285757"><ele>1328.25</ele><time>2026-05-03T09:14:53.126Z</time></trkpt><trkpt lat="44.1120373" lon="7.9285434"><ele>1321.0</ele><time>2026-05-03T09:14:54.127Z</time></trkpt><trkpt lat="44.11216" lon="7.9284961"><ele>1321.0</ele><time>2026-05-03T09:14:55.126Z</time></trkpt><trkpt lat="44.1123178" lon="7.9284207"><ele>1321.0</ele><time>2026-05-03T09:14:56.126Z</time></trkpt><trkpt lat="44.112468" lon="7.9283092"><ele>1321.0</ele><time>2026-05-03T09:14:57.127Z</time></trkpt><trkpt lat="44.1125756" lon="7.9281375"><ele>1327.0</ele><time>2026-05-03T09:14:58.126Z</time></trkpt><trkpt lat="44.1126757" lon="7.9279882"><ele>1333.0</ele><time>2026-05-03T09:14:59.126Z</time></trkpt><trkpt lat="44.1127989" lon="7.92787"><ele>1339.0</ele><time>2026-05-03T09:15:00.126Z</time></trkpt><trkpt lat="44.1129104" lon="7.9277593"><ele>1345.0</ele><time>2026-05-03T09:15:01.126Z</time></trkpt><trkpt lat="44.113085" lon="7.9277798"><ele>1345.0</ele><time>2026-05-03T09:15:02.126Z</time></trkpt><trkpt lat="44.1132265" lon="7.9279243"><ele>1345.0</ele><time>2026-05-03T09:15:03.126Z</time></trkpt><trkpt lat="44.1132074" lon="7.9282292"><ele>1345.0</ele><time>2026-05-03T09:15:04.126Z</time></trkpt><trkpt lat="44.1132918" lon="7.9283329"><ele>1337.75</ele><time>2026-05-03T09:15:05.126Z</time></trkpt><trkpt lat="44.1134004" lon="7.9284025"><ele>1330.5</ele><time>2026-05-03T09:15:06.127Z</time></trkpt><trkpt lat="44.1135329" lon="7.928452"><ele>1323.25</ele><time>2026-05-03T09:15:07.126Z</time></trkpt><trkpt lat="44.1136616" lon="7.9285376"><ele>1316.0</ele><time>2026-05-03T09:15:08.128Z</time></trkpt><trkpt lat="44.1137867" lon="7.9286589"><ele>1316.0</ele><time>2026-05-03T09:15:09.126Z</time></trkpt><trkpt lat="44.113897" lon="7.9288024"><ele>1316.0</ele><time>2026-05-03T09:15:10.126Z</time></trkpt><trkpt lat="44.1139896" lon="7.9289549"><ele>1316.0</ele><time>2026-05-03T09:15:11.126Z</time></trkpt><trkpt lat="44.1140765" lon="7.9291153"><ele>1316.0</ele><time>2026-05-03T09:15:12.126Z</time></trkpt><trkpt lat="44.1141366" lon="7.9292875"><ele>1316.75</ele><time>2026-05-03T09:15:13.126Z</time></trkpt><trkpt lat="44.1141726" lon="7.9294799"><ele>1317.5</ele><time>2026-05-03T09:15:14.126Z</time></trkpt><trkpt lat="44.1141961" lon="7.9296802"><ele>1318.25</ele><time>2026-05-03T09:15:15.126Z</time></trkpt><trkpt lat="44.114214" lon="7.9298814"><ele>1319.0</ele><time>2026-05-03T09:15:16.127Z</time></trkpt><trkpt lat="44.11426" lon="7.9300801"><ele>1314.25</ele><time>2026-05-03T09:15:17.126Z</time></trkpt><trkpt lat="44.114306" lon="7.9302756"><ele>1309.5</ele><time>2026-05-03T09:15:18.126Z</time></trkpt><trkpt lat="44.1143455" lon="7.9304676"><ele>1304.75</ele><time>2026-05-03T09:15:19.126Z</time></trkpt><trkpt lat="44.1143931" lon="7.9306646"><ele>1300.0</ele><time>2026-05-03T09:15:20.126Z</time></trkpt><trkpt lat="44.1144347" lon="7.9308603"><ele>1295.75</ele><time>2026-05-03T09:15:21.126Z</time></trkpt><trkpt lat="44.1144855" lon="7.9310603"><ele>1291.5</ele><time>2026-05-03T09:15:22.127Z</time></trkpt><trkpt lat="44.1145482" lon="7.9312439"><ele>1287.25</ele><time>2026-05-03T09:15:23.127Z</time></trkpt><trkpt lat="44.1146308" lon="7.9314171"><ele>1283.0</ele><time>2026-05-03T09:15:24.127Z</time></trkpt><trkpt lat="44.1147122" lon="7.9315949"><ele>1283.0</ele><time>2026-05-03T09:15:25.126Z</time></trkpt><trkpt lat="44.1148499" lon="7.9317005"><ele>1283.0</ele><time>2026-05-03T09:15:26.127Z</time></trkpt><trkpt lat="44.114967" lon="7.93183"><ele>1283.0</ele><time>2026-05-03T09:15:27.126Z</time></trkpt><trkpt lat="44.1150683" lon="7.9319818"><ele>1284.25</ele><time>2026-05-03T09:15:28.127Z</time></trkpt><trkpt lat="44.115164" lon="7.9321393"><ele>1285.5</ele><time>2026-05-03T09:15:29.126Z</time></trkpt><trkpt lat="44.1152566" lon="7.9323032"><ele>1286.75</ele><time>2026-05-03T09:15:30.127Z</time></trkpt><trkpt lat="44.1153523" lon="7.9324417"><ele>1288.0</ele><time>2026-05-03T09:15:31.126Z</time></trkpt><trkpt lat="44.1154637" lon="7.9325647"><ele>1287.75</ele><time>2026-05-03T09:15:32.126Z</time></trkpt><trkpt lat="44.1155859" lon="7.9326671"><ele>1287.5</ele><time>2026-05-03T09:15:33.127Z</time></trkpt><trkpt lat="44.1157034" lon="7.9327637"><ele>1287.25</ele><time>2026-05-03T09:15:34.126Z</time></trkpt><trkpt lat="44.1158143" lon="7.9328766"><ele>1287.0</ele><time>2026-05-03T09:15:35.127Z</time></trkpt><trkpt lat="44.1159061" lon="7.9330225"><ele>1287.0</ele><time>2026-05-03T09:15:36.126Z</time></trkpt><trkpt lat="44.1159738" lon="7.9331896"><ele>1287.0</ele><time>2026-05-03T09:15:37.126Z</time></trkpt><trkpt lat="44.1160274" lon="7.9333699"><ele>1287.0</ele><time>2026-05-03T09:15:38.126Z</time></trkpt><trkpt lat="44.11605" lon="7.9335629"><ele>1287.0</ele><time>2026-05-03T09:15:39.126Z</time></trkpt><trkpt lat="44.1160429" lon="7.9337565"><ele>1284.75</ele><time>2026-05-03T09:15:40.127Z</time></trkpt><trkpt lat="44.1159936" lon="7.9339257"><ele>1282.5</ele><time>2026-05-03T09:15:41.126Z</time></trkpt><trkpt lat="44.1159079" lon="7.9340705"><ele>1280.25</ele><time>2026-05-03T09:15:42.126Z</time></trkpt><trkpt lat="44.1158393" lon="7.9342184"><ele>1278.0</ele><time>2026-05-03T09:15:43.127Z</time></trkpt><trkpt lat="44.1158113" lon="7.934402"><ele>1276.0</ele><time>2026-05-03T09:15:44.127Z</time></trkpt><trkpt lat="44.1158156" lon="7.9345846"><ele>1274.0</ele><time>2026-05-03T09:15:45.126Z</time></trkpt><trkpt lat="44.1158524" lon="7.9347611"><ele>1272.0</ele><time>2026-05-03T09:15:46.126Z</time></trkpt><trkpt lat="44.1158959" lon="7.9349656"><ele>1270.0</ele><time>2026-05-03T09:15:47.126Z</time></trkpt><trkpt lat="44.1159591" lon="7.9351502"><ele>1265.0</ele><time>2026-05-03T09:15:48.126Z</time></trkpt><trkpt lat="44.1160415" lon="7.9353282"><ele>1260.0</ele><time>2026-05-03T09:15:49.126Z</time></trkpt><trkpt lat="44.1161082" lon="7.9355223"><ele>1255.0</ele><time>2026-05-03T09:15:50.127Z</time></trkpt><trkpt lat="44.1161596" lon="7.9357231"><ele>1250.0</ele><time>2026-05-03T09:15:51.126Z</time></trkpt><trkpt lat="44.1162143" lon="7.9359235"><ele>1245.0</ele><time>2026-05-03T09:15:52.126Z</time></trkpt><trkpt lat="44.1162522" lon="7.9361325"><ele>1240.0</ele><time>2026-05-03T09:15:53.126Z</time></trkpt><trkpt lat="44.116301" lon="7.9363233"><ele>1240.0</ele><time>2026-05-03T09:15:54.126Z</time></trkpt><trkpt lat="44.1163712" lon="7.9364911"><ele>1240.0</ele><time>2026-05-03T09:15:55.126Z</time></trkpt><trkpt lat="44.1164472" lon="7.9366333"><ele>1240.0</ele><time>2026-05-03T09:15:56.126Z</time></trkpt><trkpt lat="44.1165349" lon="7.9367766"><ele>1240.0</ele><time>2026-05-03T09:15:57.127Z</time></trkpt><trkpt lat="44.1166076" lon="7.9368807"><ele>1241.5</ele><time>2026-05-03T09:15:58.126Z</time></trkpt><trkpt lat="44.1166777" lon="7.9369887"><ele>1243.0</ele><time>2026-05-03T09:15:59.126Z</time></trkpt><trkpt lat="44.1167506" lon="7.937085"><ele>1244.5</ele><time>2026-05-03T09:16:00.126Z</time></trkpt><trkpt lat="44.1168057" lon="7.9371517"><ele>1246.0</ele><time>2026-05-03T09:16:01.126Z</time></trkpt><trkpt lat="44.1168545" lon="7.9372317"><ele>1247.5</ele><time>2026-05-03T09:16:02.126Z</time></trkpt><trkpt lat="44.1168963" lon="7.9373165"><ele>1249.0</ele><time>2026-05-03T09:16:03.126Z</time></trkpt><trkpt lat="44.1169294" lon="7.9374098"><ele>1249.0</ele><time>2026-05-03T09:16:04.126Z</time></trkpt><trkpt lat="44.1169616" lon="7.9375122"><ele>1249.0</ele><time>2026-05-03T09:16:05.127Z</time></trkpt><trkpt lat="44.1169975" lon="7.937618"><ele>1249.0</ele><time>2026-05-03T09:16:06.127Z</time></trkpt><trkpt lat="44.1170421" lon="7.9377287"><ele>1249.0</ele><time>2026-05-03T09:16:07.127Z</time></trkpt><trkpt lat="44.1171003" lon="7.9378301"><ele>1249.0</ele><time>2026-05-03T09:16:08.126Z</time></trkpt><trkpt lat="44.1171634" lon="7.9379237"><ele>1249.0</ele><time>2026-05-03T09:16:09.126Z</time></trkpt><trkpt lat="44.1172256" lon="7.9380111"><ele>1251.2</ele><time>2026-05-03T09:16:10.126Z</time></trkpt><trkpt lat="44.1172789" lon="7.938119"><ele>1253.4</ele><time>2026-05-03T09:16:11.126Z</time></trkpt><trkpt lat="44.1173286" lon="7.9382223"><ele>1255.6</ele><time>2026-05-03T09:16:12.126Z</time></trkpt><trkpt lat="44.1173754" lon="7.9383317"><ele>1257.8</ele><time>2026-05-03T09:16:13.126Z</time></trkpt><trkpt lat="44.1174208" lon="7.9384544"><ele>1260.0</ele><time>2026-05-03T09:16:14.126Z</time></trkpt><trkpt lat="44.1174473" lon="7.9385864"><ele>1260.0</ele><time>2026-05-03T09:16:15.126Z</time></trkpt><trkpt lat="44.1174589" lon="7.9387174"><ele>1260.0</ele><time>2026-05-03T09:16:16.126Z</time></trkpt><trkpt lat="44.1174626" lon="7.938862"><ele>1260.0</ele><time>2026-05-03T09:16:17.127Z</time></trkpt><trkpt lat="44.1174579" lon="7.9390098"><ele>1260.0</ele><time>2026-05-03T09:16:18.126Z</time></trkpt><trkpt lat="44.1174537" lon="7.9391504"><ele>1260.0</ele><time>2026-05-03T09:16:19.126Z</time></trkpt><trkpt lat="44.1174512" lon="7.9392932"><ele>1256.8</ele><time>2026-05-03T09:16:20.127Z</time></trkpt><trkpt lat="44.1174624" lon="7.9394152"><ele>1253.6</ele><time>2026-05-03T09:16:21.126Z</time></trkpt><trkpt lat="44.117492" lon="7.9395179"><ele>1250.4</ele><time>2026-05-03T09:16:22.126Z</time></trkpt><trkpt lat="44.1175417" lon="7.9395858"><ele>1247.2</ele><time>2026-05-03T09:16:23.126Z</time></trkpt><trkpt lat="44.1176612" lon="7.9396353"><ele>1244.0</ele><time>2026-05-03T09:16:25.127Z</time></trkpt><trkpt lat="44.1177607" lon="7.9396309"><ele>1244.0</ele><time>2026-05-03T09:16:26.127Z</time></trkpt><trkpt lat="44.1178626" lon="7.9396186"><ele>1244.0</ele><time>2026-05-03T09:16:27.126Z</time></trkpt><trkpt lat="44.117972" lon="7.9396057"><ele>1244.0</ele><time>2026-05-03T09:16:28.126Z</time></trkpt><trkpt lat="44.1180823" lon="7.9395906"><ele>1244.0</ele><time>2026-05-03T09:16:29.127Z</time></trkpt><trkpt lat="44.118175" lon="7.9395731"><ele>1244.0</ele><time>2026-05-03T09:16:30.126Z</time></trkpt><trkpt lat="44.1182616" lon="7.9395723"><ele>1247.0</ele><time>2026-05-03T09:16:31.127Z</time></trkpt><trkpt lat="44.1183463" lon="7.9396198"><ele>1250.0</ele><time>2026-05-03T09:16:32.126Z</time></trkpt><trkpt lat="44.1184208" lon="7.9396989"><ele>1253.0</ele><time>2026-05-03T09:16:33.126Z</time></trkpt><trkpt lat="44.1185035" lon="7.939782"><ele>1256.0</ele><time>2026-05-03T09:16:34.126Z</time></trkpt><trkpt lat="44.1185906" lon="7.9398661"><ele>1259.0</ele><time>2026-05-03T09:16:35.126Z</time></trkpt><trkpt lat="44.1186693" lon="7.9399659"><ele>1258.75</ele><time>2026-05-03T09:16:36.127Z</time></trkpt><trkpt lat="44.118747" lon="7.9400668"><ele>1258.5</ele><time>2026-05-03T09:16:37.127Z</time></trkpt><trkpt lat="44.1188346" lon="7.9401413"><ele>1258.25</ele><time>2026-05-03T09:16:38.126Z</time></trkpt><trkpt lat="44.1189461" lon="7.9401968"><ele>1258.0</ele><time>2026-05-03T09:16:39.126Z</time></trkpt><trkpt lat="44.1190737" lon="7.9402348"><ele>1258.0</ele><time>2026-05-03T09:16:40.126Z</time></trkpt><trkpt lat="44.1191846" lon="7.9402625"><ele>1258.0</ele><time>2026-05-03T09:16:41.127Z</time></trkpt><trkpt lat="44.1192793" lon="7.9402981"><ele>1258.0</ele><time>2026-05-03T09:16:42.126Z</time></trkpt><trkpt lat="44.1193775" lon="7.9403373"><ele>1258.0</ele><time>2026-05-03T09:16:43.126Z</time></trkpt><trkpt lat="44.1194695" lon="7.9403901"><ele>1258.0</ele><time>2026-05-03T09:16:44.126Z</time></trkpt><trkpt lat="44.1195548" lon="7.940441"><ele>1258.0</ele><time>2026-05-03T09:16:45.126Z</time></trkpt><trkpt lat="44.1196548" lon="7.9404732"><ele>1258.0</ele><time>2026-05-03T09:16:46.126Z</time></trkpt><trkpt lat="44.1197548" lon="7.9405145"><ele>1258.0</ele><time>2026-05-03T09:16:47.126Z</time></trkpt><trkpt lat="44.1198139" lon="7.9405783"><ele>1258.0</ele><time>2026-05-03T09:16:48.126Z</time></trkpt><trkpt lat="44.1198528" lon="7.9406659"><ele>1258.0</ele><time>2026-05-03T09:16:49.127Z</time></trkpt><trkpt lat="44.1198931" lon="7.94078"><ele>1258.0</ele><time>2026-05-03T09:16:50.126Z</time></trkpt><trkpt lat="44.1199291" lon="7.9409023"><ele>1262.0</ele><time>2026-05-03T09:16:51.126Z</time></trkpt><trkpt lat="44.1199491" lon="7.9410334"><ele>1266.0</ele><time>2026-05-03T09:16:52.126Z</time></trkpt><trkpt lat="44.1199498" lon="7.9411635"><ele>1270.0</ele><time>2026-05-03T09:16:53.127Z</time></trkpt><trkpt lat="44.1199468" lon="7.9413048"><ele>1274.0</ele><time>2026-05-03T09:16:54.126Z</time></trkpt><trkpt lat="44.1199554" lon="7.9414408"><ele>1278.0</ele><time>2026-05-03T09:16:55.126Z</time></trkpt><trkpt lat="44.1199846" lon="7.9415624"><ele>1278.0</ele><time>2026-05-03T09:16:56.126Z</time></trkpt><trkpt lat="44.1200322" lon="7.9416959"><ele>1278.0</ele><time>2026-05-03T09:16:57.126Z</time></trkpt><trkpt lat="44.1200761" lon="7.9418367"><ele>1278.0</ele><time>2026-05-03T09:16:58.127Z</time></trkpt><trkpt lat="44.120097" lon="7.9419888"><ele>1278.0</ele><time>2026-05-03T09:16:59.127Z</time></trkpt><trkpt lat="44.1201084" lon="7.9421406"><ele>1278.0</ele><time>2026-05-03T09:17:00.126Z</time></trkpt><trkpt lat="44.1201202" lon="7.9422978"><ele>1277.0</ele><time>2026-05-03T09:17:01.126Z</time></trkpt><trkpt lat="44.1201383" lon="7.9424472"><ele>1276.0</ele><time>2026-05-03T09:17:02.127Z</time></trkpt><trkpt lat="44.1201497" lon="7.9425886"><ele>1275.0</ele><time>2026-05-03T09:17:03.127Z</time></trkpt><trkpt lat="44.1201555" lon="7.942705"><ele>1274.0</ele><time>2026-05-03T09:17:04.126Z</time></trkpt><trkpt lat="44.1201647" lon="7.9428006"><ele>1273.0</ele><time>2026-05-03T09:17:05.126Z</time></trkpt><trkpt lat="44.1201783" lon="7.9428891"><ele>1272.0</ele><time>2026-05-03T09:17:06.126Z</time></trkpt><trkpt lat="44.1202283" lon="7.9430118"><ele>1270.6666666666667</ele><time>2026-05-03T09:17:08.126Z</time></trkpt><trkpt lat="44.1202832" lon="7.9431109"><ele>1269.3333333333333</ele><time>2026-05-03T09:17:11.126Z</time></trkpt><trkpt lat="44.1203198" lon="7.9431951"><ele>1268.0</ele><time>2026-05-03T09:17:13.126Z</time></trkpt><trkpt lat="44.1203532" lon="7.9432912"><ele>1266.6666666666665</ele><time>2026-05-03T09:17:15.126Z</time></trkpt><trkpt lat="44.1203872" lon="7.9434001"><ele>1265.3333333333333</ele><time>2026-05-03T09:17:17.126Z</time></trkpt><trkpt lat="44.1204017" lon="7.943526"><ele>1264.0</ele><time>2026-05-03T09:17:19.126Z</time></trkpt><trkpt lat="44.1204097" lon="7.9436705"><ele>1262.8333333333333</ele><time>2026-05-03T09:17:21.126Z</time></trkpt><trkpt lat="44.1204389" lon="7.943829"><ele>1261.6666666666665</ele><time>2026-05-03T09:17:23.126Z</time></trkpt><trkpt lat="44.1204721" lon="7.9439138"><ele>1260.5</ele><time>2026-05-03T09:17:24.126Z</time></trkpt><trkpt lat="44.1205022" lon="7.9440038"><ele>1259.3333333333333</ele><time>2026-05-03T09:17:25.127Z</time></trkpt><trkpt lat="44.120529" lon="7.9440918"><ele>1258.1666666666667</ele><time>2026-05-03T09:17:26.126Z</time></trkpt><trkpt lat="44.1205641" lon="7.944171"><ele>1257.0</ele><time>2026-05-03T09:17:27.126Z</time></trkpt><trkpt lat="44.1206242" lon="7.9442639"><ele>1255.4</ele><time>2026-05-03T09:17:28.126Z</time></trkpt><trkpt lat="44.120686" lon="7.94437"><ele>1253.8000000000002</ele><time>2026-05-03T09:17:29.126Z</time></trkpt><trkpt lat="44.1207436" lon="7.9444764"><ele>1252.2</ele><time>2026-05-03T09:17:30.126Z</time></trkpt><trkpt lat="44.1207954" lon="7.9445818"><ele>1250.6000000000001</ele><time>2026-05-03T09:17:31.126Z</time></trkpt><trkpt lat="44.12084" lon="7.9446893"><ele>1249.0</ele><time>2026-05-03T09:17:32.126Z</time></trkpt><trkpt lat="44.1208773" lon="7.9448107"><ele>1252.6000000000001</ele><time>2026-05-03T09:17:33.126Z</time></trkpt><trkpt lat="44.1209095" lon="7.9449336"><ele>1256.2</ele><time>2026-05-03T09:17:34.127Z</time></trkpt><trkpt lat="44.1209451" lon="7.9450401"><ele>1259.8000000000002</ele><time>2026-05-03T09:17:35.126Z</time></trkpt><trkpt lat="44.1209846" lon="7.9451528"><ele>1263.4</ele><time>2026-05-03T09:17:36.127Z</time></trkpt><trkpt lat="44.1210214" lon="7.9452772"><ele>1267.0</ele><time>2026-05-03T09:17:37.126Z</time></trkpt><trkpt lat="44.1210577" lon="7.9454146"><ele>1267.0</ele><time>2026-05-03T09:17:38.126Z</time></trkpt><trkpt lat="44.1211031" lon="7.9455451"><ele>1267.0</ele><time>2026-05-03T09:17:39.126Z</time></trkpt><trkpt lat="44.1211679" lon="7.9456681"><ele>1267.0</ele><time>2026-05-03T09:17:40.127Z</time></trkpt><trkpt lat="44.1212294" lon="7.9457946"><ele>1267.0</ele><time>2026-05-03T09:17:41.127Z</time></trkpt><trkpt lat="44.1212994" lon="7.9459189"><ele>1267.0</ele><time>2026-05-03T09:17:42.126Z</time></trkpt><trkpt lat="44.1213651" lon="7.9460328"><ele>1264.0</ele><time>2026-05-03T09:17:43.126Z</time></trkpt><trkpt lat="44.1214274" lon="7.9461415"><ele>1261.0</ele><time>2026-05-03T09:17:44.126Z</time></trkpt><trkpt lat="44.1214898" lon="7.946246"><ele>1258.0</ele><time>2026-05-03T09:17:45.127Z</time></trkpt><trkpt lat="44.1215599" lon="7.9463504"><ele>1255.0</ele><time>2026-05-03T09:17:46.126Z</time></trkpt><trkpt lat="44.121643" lon="7.9464538"><ele>1252.0</ele><time>2026-05-03T09:17:47.127Z</time></trkpt><trkpt lat="44.121734" lon="7.9465488"><ele>1255.0</ele><time>2026-05-03T09:17:48.127Z</time></trkpt><trkpt lat="44.1218222" lon="7.9466399"><ele>1258.0</ele><time>2026-05-03T09:17:49.126Z</time></trkpt><trkpt lat="44.1219003" lon="7.9467349"><ele>1261.0</ele><time>2026-05-03T09:17:50.126Z</time></trkpt><trkpt lat="44.12197" lon="7.9468365"><ele>1264.0</ele><time>2026-05-03T09:17:51.127Z</time></trkpt><trkpt lat="44.1220338" lon="7.9469352"><ele>1267.0</ele><time>2026-05-03T09:17:52.126Z</time></trkpt><trkpt lat="44.1220957" lon="7.9470309"><ele>1267.0</ele><time>2026-05-03T09:17:53.126Z</time></trkpt><trkpt lat="44.1221551" lon="7.9471311"><ele>1267.0</ele><time>2026-05-03T09:17:54.126Z</time></trkpt><trkpt lat="44.1222119" lon="7.9472384"><ele>1267.0</ele><time>2026-05-03T09:17:55.126Z</time></trkpt><trkpt lat="44.1222719" lon="7.9473437"><ele>1267.0</ele><time>2026-05-03T09:17:56.126Z</time></trkpt><trkpt lat="44.1223299" lon="7.947445"><ele>1267.0</ele><time>2026-05-03T09:17:57.126Z</time></trkpt><trkpt lat="44.1223805" lon="7.9475489"><ele>1269.6666666666665</ele><time>2026-05-03T09:17:58.127Z</time></trkpt><trkpt lat="44.1224256" lon="7.9476476"><ele>1272.3333333333333</ele><time>2026-05-03T09:17:59.126Z</time></trkpt><trkpt lat="44.1224732" lon="7.9477462"><ele>1275.0</ele><time>2026-05-03T09:18:00.126Z</time></trkpt><trkpt lat="44.1225373" lon="7.9478376"><ele>1277.6666666666667</ele><time>2026-05-03T09:18:01.126Z</time></trkpt><trkpt lat="44.1226073" lon="7.947902"><ele>1280.3333333333335</ele><time>2026-05-03T09:18:02.127Z</time></trkpt><trkpt lat="44.1226902" lon="7.9479547"><ele>1283.0</ele><time>2026-05-03T09:18:03.127Z</time></trkpt><trkpt lat="44.1227706" lon="7.9480098"><ele>1283.0</ele><time>2026-05-03T09:18:04.126Z</time></trkpt><trkpt lat="44.1228475" lon="7.9480724"><ele>1283.0</ele><time>2026-05-03T09:18:05.126Z</time></trkpt><trkpt lat="44.1229208" lon="7.9481392"><ele>1283.0</ele><time>2026-05-03T09:18:06.126Z</time></trkpt><trkpt lat="44.1229957" lon="7.9481989"><ele>1283.0</ele><time>2026-05-03T09:18:07.126Z</time></trkpt><trkpt lat="44.1230761" lon="7.9482492"><ele>1283.0</ele><time>2026-05-03T09:18:08.126Z</time></trkpt><trkpt lat="44.123155" lon="7.9482992"><ele>1283.0</ele><time>2026-05-03T09:18:09.126Z</time></trkpt><trkpt lat="44.123235" lon="7.9483461"><ele>1281.6000000000001</ele><time>2026-05-03T09:18:10.126Z</time></trkpt><trkpt lat="44.1233243" lon="7.9483916"><ele>1280.2</ele><time>2026-05-03T09:18:11.126Z</time></trkpt><trkpt lat="44.1234217" lon="7.9484283"><ele>1278.8</ele><time>2026-05-03T09:18:12.126Z</time></trkpt><trkpt lat="44.1235235" lon="7.9484523"><ele>1277.4</ele><time>2026-05-03T09:18:13.126Z</time></trkpt><trkpt lat="44.1236265" lon="7.9484611"><ele>1276.0</ele><time>2026-05-03T09:18:14.126Z</time></trkpt><trkpt lat="44.1237289" lon="7.9484693"><ele>1276.0</ele><time>2026-05-03T09:18:15.126Z</time></trkpt><trkpt lat="44.1238229" lon="7.9484664"><ele>1276.0</ele><time>2026-05-03T09:18:16.126Z</time></trkpt><trkpt lat="44.1239167" lon="7.9484488"><ele>1276.0</ele><time>2026-05-03T09:18:17.126Z</time></trkpt><trkpt lat="44.12401" lon="7.9484258"><ele>1276.0</ele><time>2026-05-03T09:18:18.126Z</time></trkpt><trkpt lat="44.1241042" lon="7.9483956"><ele>1276.0</ele><time>2026-05-03T09:18:19.126Z</time></trkpt><trkpt lat="44.1242016" lon="7.9483558"><ele>1282.4</ele><time>2026-05-03T09:18:20.126Z</time></trkpt><trkpt lat="44.1242927" lon="7.948307"><ele>1288.8</ele><time>2026-05-03T09:18:21.126Z</time></trkpt><trkpt lat="44.1243875" lon="7.9482471"><ele>1295.2</ele><time>2026-05-03T09:18:22.126Z</time></trkpt><trkpt lat="44.1244838" lon="7.9481886"><ele>1301.6000000000001</ele><time>2026-05-03T09:18:23.126Z</time></trkpt><trkpt lat="44.1245771" lon="7.9481327"><ele>1308.0</ele><time>2026-05-03T09:18:24.126Z</time></trkpt><trkpt lat="44.1246705" lon="7.9480713"><ele>1308.0</ele><time>2026-05-03T09:18:25.126Z</time></trkpt><trkpt lat="44.1247614" lon="7.9480007"><ele>1308.0</ele><time>2026-05-03T09:18:26.126Z</time></trkpt><trkpt lat="44.1248477" lon="7.9479213"><ele>1308.0</ele><time>2026-05-03T09:18:27.126Z</time></trkpt><trkpt lat="44.1249293" lon="7.9478388"><ele>1308.0</ele><time>2026-05-03T09:18:28.126Z</time></trkpt><trkpt lat="44.12501" lon="7.9477529"><ele>1308.0</ele><time>2026-05-03T09:18:29.126Z</time></trkpt><trkpt lat="44.1250903" lon="7.9476572"><ele>1305.6000000000001</ele><time>2026-05-03T09:18:30.126Z</time></trkpt><trkpt lat="44.125165" lon="7.9475535"><ele>1303.2</ele><time>2026-05-03T09:18:31.126Z</time></trkpt><trkpt lat="44.1252276" lon="7.9474489"><ele>1300.8</ele><time>2026-05-03T09:18:32.126Z</time></trkpt><trkpt lat="44.1252946" lon="7.947342"><ele>1298.4</ele><time>2026-05-03T09:18:33.126Z</time></trkpt><trkpt lat="44.1253545" lon="7.9472458"><ele>1296.0</ele><time>2026-05-03T09:18:34.127Z</time></trkpt><trkpt lat="44.12542" lon="7.9471589"><ele>1300.6666666666667</ele><time>2026-05-03T09:18:35.126Z</time></trkpt><trkpt lat="44.1254863" lon="7.9470743"><ele>1305.3333333333333</ele><time>2026-05-03T09:18:36.126Z</time></trkpt><trkpt lat="44.1255534" lon="7.9469901"><ele>1310.0</ele><time>2026-05-03T09:18:37.126Z</time></trkpt><trkpt lat="44.125614" lon="7.9468984"><ele>1314.6666666666665</ele><time>2026-05-03T09:18:38.126Z</time></trkpt><trkpt lat="44.1256566" lon="7.9468001"><ele>1319.3333333333333</ele><time>2026-05-03T09:18:39.126Z</time></trkpt><trkpt lat="44.125696" lon="7.9467151"><ele>1324.0</ele><time>2026-05-03T09:18:40.126Z</time></trkpt><trkpt lat="44.1257486" lon="7.9466646"><ele>1324.7142857142858</ele><time>2026-05-03T09:18:41.126Z</time></trkpt><trkpt lat="44.125819" lon="7.946654"><ele>1325.4285714285713</ele><time>2026-05-03T09:18:42.126Z</time></trkpt><trkpt lat="44.1258944" lon="7.9466642"><ele>1326.142857142857</ele><time>2026-05-03T09:18:43.126Z</time></trkpt><trkpt lat="44.1259676" lon="7.9466916"><ele>1326.857142857143</ele><time>2026-05-03T09:18:44.126Z</time></trkpt><trkpt lat="44.126027" lon="7.946757"><ele>1327.5714285714287</ele><time>2026-05-03T09:18:45.126Z</time></trkpt><trkpt lat="44.1260622" lon="7.9468487"><ele>1328.2857142857142</ele><time>2026-05-03T09:18:46.126Z</time></trkpt><trkpt lat="44.1260744" lon="7.946947"><ele>1329.0</ele><time>2026-05-03T09:18:47.127Z</time></trkpt><trkpt lat="44.1260582" lon="7.9470421"><ele>1327.4</ele><time>2026-05-03T09:18:48.126Z</time></trkpt><trkpt lat="44.1260292" lon="7.9471445"><ele>1325.8000000000002</ele><time>2026-05-03T09:18:49.126Z</time></trkpt><trkpt lat="44.1260023" lon="7.9472541"><ele>1324.1999999999998</ele><time>2026-05-03T09:18:50.126Z</time></trkpt><trkpt lat="44.1259864" lon="7.9473812"><ele>1322.6</ele><time>2026-05-03T09:18:51.126Z</time></trkpt><trkpt lat="44.1259765" lon="7.9475221"><ele>1321.0</ele><time>2026-05-03T09:18:52.126Z</time></trkpt><trkpt lat="44.1259656" lon="7.9476628"><ele>1321.0</ele><time>2026-05-03T09:18:53.126Z</time></trkpt><trkpt lat="44.1259493" lon="7.9477983"><ele>1321.0</ele><time>2026-05-03T09:18:54.126Z</time></trkpt><trkpt lat="44.1259329" lon="7.9479304"><ele>1321.0</ele><time>2026-05-03T09:18:55.127Z</time></trkpt><trkpt lat="44.1259111" lon="7.94806"><ele>1321.0</ele><time>2026-05-03T09:18:56.126Z</time></trkpt><trkpt lat="44.1258824" lon="7.9481842"><ele>1321.0</ele><time>2026-05-03T09:18:57.127Z</time></trkpt><trkpt lat="44.1258515" lon="7.9483088"><ele>1322.1999999999998</ele><time>2026-05-03T09:18:58.126Z</time></trkpt><trkpt lat="44.125822" lon="7.9484324"><ele>1323.3999999999999</ele><time>2026-05-03T09:18:59.126Z</time></trkpt><trkpt lat="44.1257982" lon="7.9485585"><ele>1324.6</ele><time>2026-05-03T09:19:00.126Z</time></trkpt><trkpt lat="44.1257871" lon="7.9486844"><ele>1325.8</ele><time>2026-05-03T09:19:01.126Z</time></trkpt><trkpt lat="44.1257902" lon="7.9488127"><ele>1327.0</ele><time>2026-05-03T09:19:02.126Z</time></trkpt><trkpt lat="44.1257924" lon="7.9489433"><ele>1327.0</ele><time>2026-05-03T09:19:03.127Z</time></trkpt><trkpt lat="44.1257853" lon="7.9490756"><ele>1327.0</ele><time>2026-05-03T09:19:04.126Z</time></trkpt><trkpt lat="44.1257685" lon="7.9492012"><ele>1327.0</ele><time>2026-05-03T09:19:05.126Z</time></trkpt><trkpt lat="44.1257485" lon="7.9493192"><ele>1327.0</ele><time>2026-05-03T09:19:06.126Z</time></trkpt><trkpt lat="44.1257407" lon="7.9494439"><ele>1327.0</ele><time>2026-05-03T09:19:07.126Z</time></trkpt><trkpt lat="44.1257447" lon="7.9495829"><ele>1328.1999999999998</ele><time>2026-05-03T09:19:08.126Z</time></trkpt><trkpt lat="44.1257563" lon="7.9497222"><ele>1329.4</ele><time>2026-05-03T09:19:09.126Z</time></trkpt><trkpt lat="44.1257628" lon="7.9498665"><ele>1330.6</ele><time>2026-05-03T09:19:10.126Z</time></trkpt><trkpt lat="44.1257683" lon="7.9500086"><ele>1331.8000000000002</ele><time>2026-05-03T09:19:11.126Z</time></trkpt><trkpt lat="44.1257812" lon="7.9501355"><ele>1333.0</ele><time>2026-05-03T09:19:12.126Z</time></trkpt><trkpt lat="44.1258008" lon="7.9502594"><ele>1333.0</ele><time>2026-05-03T09:19:13.126Z</time></trkpt><trkpt lat="44.1258224" lon="7.9503849"><ele>1333.0</ele><time>2026-05-03T09:19:14.127Z</time></trkpt><trkpt lat="44.1258464" lon="7.9505027"><ele>1333.0</ele><time>2026-05-03T09:19:15.126Z</time></trkpt><trkpt lat="44.1258657" lon="7.9506229"><ele>1333.0</ele><time>2026-05-03T09:19:16.127Z</time></trkpt><trkpt lat="44.1258881" lon="7.950751"><ele>1333.0</ele><time>2026-05-03T09:19:17.126Z</time></trkpt><trkpt lat="44.1259019" lon="7.9508778"><ele>1332.0</ele><time>2026-05-03T09:19:18.127Z</time></trkpt><trkpt lat="44.1259129" lon="7.951004"><ele>1331.0</ele><time>2026-05-03T09:19:19.126Z</time></trkpt><trkpt lat="44.1259309" lon="7.9511362"><ele>1330.0</ele><time>2026-05-03T09:19:20.126Z</time></trkpt><trkpt lat="44.1259512" lon="7.9512629"><ele>1329.0</ele><time>2026-05-03T09:19:21.126Z</time></trkpt><trkpt lat="44.1259755" lon="7.9513751"><ele>1328.0</ele><time>2026-05-03T09:19:22.126Z</time></trkpt><trkpt lat="44.1260199" lon="7.9514861"><ele>1328.0</ele><time>2026-05-03T09:19:23.126Z</time></trkpt><trkpt lat="44.1260795" lon="7.9515915"><ele>1328.0</ele><time>2026-05-03T09:19:24.127Z</time></trkpt><trkpt lat="44.1261436" lon="7.9517033"><ele>1328.0</ele><time>2026-05-03T09:19:25.126Z</time></trkpt><trkpt lat="44.1262024" lon="7.9518201"><ele>1328.0</ele><time>2026-05-03T09:19:26.126Z</time></trkpt><trkpt lat="44.1262571" lon="7.9519429"><ele>1328.0</ele><time>2026-05-03T09:19:27.126Z</time></trkpt><trkpt lat="44.1263153" lon="7.9520937"><ele>1328.75</ele><time>2026-05-03T09:19:28.126Z</time></trkpt><trkpt lat="44.1263746" lon="7.9522496"><ele>1329.5</ele><time>2026-05-03T09:19:29.127Z</time></trkpt><trkpt lat="44.1264363" lon="7.9523954"><ele>1330.25</ele><time>2026-05-03T09:19:30.126Z</time></trkpt><trkpt lat="44.1265031" lon="7.9525233"><ele>1331.0</ele><time>2026-05-03T09:19:31.126Z</time></trkpt><trkpt lat="44.1265725" lon="7.952637"><ele>1331.0</ele><time>2026-05-03T09:19:32.126Z</time></trkpt><trkpt lat="44.1266386" lon="7.9527283"><ele>1331.0</ele><time>2026-05-03T09:19:33.127Z</time></trkpt><trkpt lat="44.1267068" lon="7.9527816"><ele>1331.0</ele><time>2026-05-03T09:19:34.126Z</time></trkpt><trkpt lat="44.1267781" lon="7.9528005"><ele>1331.0</ele><time>2026-05-03T09:19:35.126Z</time></trkpt><trkpt lat="44.126851" lon="7.9528036"><ele>1331.0</ele><time>2026-05-03T09:19:36.127Z</time></trkpt><trkpt lat="44.1269232" lon="7.9527861"><ele>1331.0</ele><time>2026-05-03T09:19:37.126Z</time></trkpt><trkpt lat="44.1270064" lon="7.952756"><ele>1331.0</ele><time>2026-05-03T09:19:38.126Z</time></trkpt><trkpt lat="44.1270767" lon="7.9527219"><ele>1331.0</ele><time>2026-05-03T09:19:39.127Z</time></trkpt><trkpt lat="44.1271567" lon="7.9526864"><ele>1331.0</ele><time>2026-05-03T09:19:40.126Z</time></trkpt><trkpt lat="44.12724" lon="7.9526323"><ele>1331.0</ele><time>2026-05-03T09:19:41.127Z</time></trkpt><trkpt lat="44.1273193" lon="7.9525993"><ele>1331.0</ele><time>2026-05-03T09:19:42.126Z</time></trkpt><trkpt lat="44.1273985" lon="7.9525836"><ele>1331.0</ele><time>2026-05-03T09:19:43.127Z</time></trkpt><trkpt lat="44.1274658" lon="7.9526063"><ele>1334.1666666666667</ele><time>2026-05-03T09:19:44.126Z</time></trkpt><trkpt lat="44.1275229" lon="7.9526541"><ele>1337.3333333333335</ele><time>2026-05-03T09:19:45.126Z</time></trkpt><trkpt lat="44.127571" lon="7.9527267"><ele>1340.5</ele><time>2026-05-03T09:19:46.126Z</time></trkpt><trkpt lat="44.1276164" lon="7.9528083"><ele>1343.6666666666667</ele><time>2026-05-03T09:19:47.127Z</time></trkpt><trkpt lat="44.1276757" lon="7.9528894"><ele>1346.8333333333333</ele><time>2026-05-03T09:19:48.127Z</time></trkpt><trkpt lat="44.1277319" lon="7.9529707"><ele>1350.0</ele><time>2026-05-03T09:19:49.127Z</time></trkpt><trkpt lat="44.1277969" lon="7.9530759"><ele>1350.0</ele><time>2026-05-03T09:19:50.126Z</time></trkpt><trkpt lat="44.1278649" lon="7.9531673"><ele>1350.0</ele><time>2026-05-03T09:19:51.127Z</time></trkpt><trkpt lat="44.1279437" lon="7.9532485"><ele>1350.0</ele><time>2026-05-03T09:19:52.126Z</time></trkpt><trkpt lat="44.1280372" lon="7.9533084"><ele>1350.0</ele><time>2026-05-03T09:19:53.126Z</time></trkpt><trkpt lat="44.1281422" lon="7.953352"><ele>1350.0</ele><time>2026-05-03T09:19:54.126Z</time></trkpt><trkpt lat="44.1282402" lon="7.9534034"><ele>1350.4</ele><time>2026-05-03T09:19:55.126Z</time></trkpt><trkpt lat="44.1283366" lon="7.9534563"><ele>1350.8</ele><time>2026-05-03T09:19:56.126Z</time></trkpt><trkpt lat="44.1284399" lon="7.9535197"><ele>1351.1999999999998</ele><time>2026-05-03T09:19:57.126Z</time></trkpt><trkpt lat="44.1285443" lon="7.9535897"><ele>1351.6</ele><time>2026-05-03T09:19:58.127Z</time></trkpt><trkpt lat="44.1286463" lon="7.9536509"><ele>1352.0</ele><time>2026-05-03T09:19:59.126Z</time></trkpt><trkpt lat="44.1287449" lon="7.9537069"><ele>1352.0</ele><time>2026-05-03T09:20:00.126Z</time></trkpt><trkpt lat="44.1288287" lon="7.9537848"><ele>1352.0</ele><time>2026-05-03T09:20:01.126Z</time></trkpt><trkpt lat="44.1288995" lon="7.9538883"><ele>1352.0</ele><time>2026-05-03T09:20:02.126Z</time></trkpt><trkpt lat="44.1289667" lon="7.9540051"><ele>1352.0</ele><time>2026-05-03T09:20:03.127Z</time></trkpt><trkpt lat="44.1290323" lon="7.954125"><ele>1352.0</ele><time>2026-05-03T09:20:04.126Z</time></trkpt><trkpt lat="44.1290938" lon="7.9542445"><ele>1356.0</ele><time>2026-05-03T09:20:05.126Z</time></trkpt><trkpt lat="44.1291534" lon="7.9543618"><ele>1360.0</ele><time>2026-05-03T09:20:06.126Z</time></trkpt><trkpt lat="44.1292168" lon="7.9544723"><ele>1364.0</ele><time>2026-05-03T09:20:07.127Z</time></trkpt><trkpt lat="44.1292831" lon="7.9545727"><ele>1368.0</ele><time>2026-05-03T09:20:08.126Z</time></trkpt><trkpt lat="44.1293551" lon="7.9546647"><ele>1372.0</ele><time>2026-05-03T09:20:09.126Z</time></trkpt><trkpt lat="44.1294217" lon="7.9547525"><ele>1372.0</ele><time>2026-05-03T09:20:10.126Z</time></trkpt><trkpt lat="44.129473" lon="7.9548529"><ele>1372.0</ele><time>2026-05-03T09:20:11.126Z</time></trkpt><trkpt lat="44.129516" lon="7.9549624"><ele>1372.0</ele><time>2026-05-03T09:20:12.127Z</time></trkpt><trkpt lat="44.1295637" lon="7.9550704"><ele>1372.0</ele><time>2026-05-03T09:20:13.127Z</time></trkpt><trkpt lat="44.1296296" lon="7.9551691"><ele>1372.0</ele><time>2026-05-03T09:20:14.127Z</time></trkpt><trkpt lat="44.1297073" lon="7.9552489"><ele>1373.0</ele><time>2026-05-03T09:20:15.126Z</time></trkpt><trkpt lat="44.1297795" lon="7.9553104"><ele>1374.0</ele><time>2026-05-03T09:20:16.126Z</time></trkpt><trkpt lat="44.1298367" lon="7.9553731"><ele>1375.0</ele><time>2026-05-03T09:20:17.127Z</time></trkpt><trkpt lat="44.1298739" lon="7.9554533"><ele>1376.0</ele><time>2026-05-03T09:20:18.126Z</time></trkpt><trkpt lat="44.1298758" lon="7.9556141"><ele>1377.0</ele><time>2026-05-03T09:20:20.127Z</time></trkpt><trkpt lat="44.1297647" lon="7.9557173"><ele>1377.0</ele><time>2026-05-03T09:20:22.126Z</time></trkpt><trkpt lat="44.1296859" lon="7.9557682"><ele>1377.0</ele><time>2026-05-03T09:20:23.126Z</time></trkpt><trkpt lat="44.1296085" lon="7.9558513"><ele>1377.0</ele><time>2026-05-03T09:20:24.126Z</time></trkpt><trkpt lat="44.1295308" lon="7.9559567"><ele>1377.0</ele><time>2026-05-03T09:20:25.126Z</time></trkpt><trkpt lat="44.1294556" lon="7.956067"><ele>1377.0</ele><time>2026-05-03T09:20:26.126Z</time></trkpt><trkpt lat="44.1293656" lon="7.9561725"><ele>1377.8</ele><time>2026-05-03T09:20:27.126Z</time></trkpt><trkpt lat="44.1292667" lon="7.9562632"><ele>1378.6</ele><time>2026-05-03T09:20:28.126Z</time></trkpt><trkpt lat="44.1291707" lon="7.9563399"><ele>1379.3999999999999</ele><time>2026-05-03T09:20:29.126Z</time></trkpt><trkpt lat="44.1290727" lon="7.9564177"><ele>1380.1999999999998</ele><time>2026-05-03T09:20:30.127Z</time></trkpt><trkpt lat="44.128982" lon="7.9564962"><ele>1381.0</ele><time>2026-05-03T09:20:31.126Z</time></trkpt><trkpt lat="44.1288838" lon="7.9565846"><ele>1381.0</ele><time>2026-05-03T09:20:32.127Z</time></trkpt><trkpt lat="44.1287915" lon="7.9566791"><ele>1381.0</ele><time>2026-05-03T09:20:33.126Z</time></trkpt><trkpt lat="44.1287017" lon="7.9567668"><ele>1381.0</ele><time>2026-05-03T09:20:34.127Z</time></trkpt><trkpt lat="44.1286168" lon="7.9568384"><ele>1381.0</ele><time>2026-05-03T09:20:35.126Z</time></trkpt><trkpt lat="44.1285345" lon="7.9569071"><ele>1381.0</ele><time>2026-05-03T09:20:36.126Z</time></trkpt><trkpt lat="44.1284581" lon="7.9569876"><ele>1381.1999999999998</ele><time>2026-05-03T09:20:37.126Z</time></trkpt><trkpt lat="44.1283801" lon="7.957081"><ele>1381.3999999999999</ele><time>2026-05-03T09:20:38.126Z</time></trkpt><trkpt lat="44.1283066" lon="7.9571745"><ele>1381.6</ele><time>2026-05-03T09:20:39.126Z</time></trkpt><trkpt lat="44.1282315" lon="7.9572652"><ele>1381.8</ele><time>2026-05-03T09:20:40.127Z</time></trkpt><trkpt lat="44.1281577" lon="7.9573679"><ele>1382.0</ele><time>2026-05-03T09:20:41.126Z</time></trkpt><trkpt lat="44.1280805" lon="7.9574771"><ele>1387.3999999999999</ele><time>2026-05-03T09:20:42.126Z</time></trkpt><trkpt lat="44.1279963" lon="7.9575789"><ele>1392.8</ele><time>2026-05-03T09:20:43.126Z</time></trkpt><trkpt lat="44.1279163" lon="7.9576803"><ele>1398.2</ele><time>2026-05-03T09:20:44.126Z</time></trkpt><trkpt lat="44.1278293" lon="7.9577834"><ele>1403.6</ele><time>2026-05-03T09:20:45.127Z</time></trkpt><trkpt lat="44.127749" lon="7.9578915"><ele>1409.0</ele><time>2026-05-03T09:20:46.126Z</time></trkpt><trkpt lat="44.127662" lon="7.9580041"><ele>1409.0</ele><time>2026-05-03T09:20:47.127Z</time></trkpt><trkpt lat="44.1275863" lon="7.9581293"><ele>1409.0</ele><time>2026-05-03T09:20:48.126Z</time></trkpt><trkpt lat="44.127513" lon="7.9582575"><ele>1409.0</ele><time>2026-05-03T09:20:49.126Z</time></trkpt><trkpt lat="44.1274379" lon="7.9583887"><ele>1409.0</ele><time>2026-05-03T09:20:50.126Z</time></trkpt><trkpt lat="44.1273745" lon="7.9585086"><ele>1404.6666666666667</ele><time>2026-05-03T09:20:51.126Z</time></trkpt><trkpt lat="44.1273239" lon="7.9586185"><ele>1400.3333333333335</ele><time>2026-05-03T09:20:52.126Z</time></trkpt><trkpt lat="44.1272874" lon="7.9587349"><ele>1396.0</ele><time>2026-05-03T09:20:53.126Z</time></trkpt><trkpt lat="44.1272548" lon="7.9588452"><ele>1391.6666666666667</ele><time>2026-05-03T09:20:54.126Z</time></trkpt><trkpt lat="44.1272523" lon="7.9589566"><ele>1387.3333333333333</ele><time>2026-05-03T09:20:55.127Z</time></trkpt><trkpt lat="44.1272569" lon="7.9590828"><ele>1383.0</ele><time>2026-05-03T09:20:56.126Z</time></trkpt><trkpt lat="44.1272776" lon="7.9592106"><ele>1383.0</ele><time>2026-05-03T09:20:57.127Z</time></trkpt><trkpt lat="44.1273104" lon="7.9593409"><ele>1383.0</ele><time>2026-05-03T09:20:58.126Z</time></trkpt><trkpt lat="44.1273543" lon="7.9594671"><ele>1383.0</ele><time>2026-05-03T09:20:59.126Z</time></trkpt><trkpt lat="44.1274107" lon="7.959578"><ele>1383.0</ele><time>2026-05-03T09:21:00.126Z</time></trkpt><trkpt lat="44.1274657" lon="7.9596816"><ele>1383.0</ele><time>2026-05-03T09:21:01.126Z</time></trkpt><trkpt lat="44.1275176" lon="7.9597807"><ele>1389.2</ele><time>2026-05-03T09:21:02.126Z</time></trkpt><trkpt lat="44.1275516" lon="7.9599014"><ele>1395.4</ele><time>2026-05-03T09:21:03.127Z</time></trkpt><trkpt lat="44.1275746" lon="7.9600451"><ele>1401.6000000000001</ele><time>2026-05-03T09:21:04.126Z</time></trkpt><trkpt lat="44.127606" lon="7.9601966"><ele>1407.8000000000002</ele><time>2026-05-03T09:21:05.126Z</time></trkpt><trkpt lat="44.127646" lon="7.9603447"><ele>1414.0</ele><time>2026-05-03T09:21:06.126Z</time></trkpt><trkpt lat="44.1276736" lon="7.9604889"><ele>1414.0</ele><time>2026-05-03T09:21:07.126Z</time></trkpt><trkpt lat="44.1276869" lon="7.9606479"><ele>1414.0</ele><time>2026-05-03T09:21:08.126Z</time></trkpt><trkpt lat="44.127696" lon="7.9608026"><ele>1414.0</ele><time>2026-05-03T09:21:09.127Z</time></trkpt><trkpt lat="44.1277097" lon="7.9609454"><ele>1414.0</ele><time>2026-05-03T09:21:10.126Z</time></trkpt><trkpt lat="44.1277397" lon="7.9610706"><ele>1414.0</ele><time>2026-05-03T09:21:11.126Z</time></trkpt><trkpt lat="44.1277808" lon="7.9611804"><ele>1415.0</ele><time>2026-05-03T09:21:12.126Z</time></trkpt><trkpt lat="44.1278198" lon="7.961285"><ele>1416.0</ele><time>2026-05-03T09:21:13.126Z</time></trkpt><trkpt lat="44.1278571" lon="7.9613855"><ele>1417.0</ele><time>2026-05-03T09:21:14.126Z</time></trkpt><trkpt lat="44.1278982" lon="7.961491"><ele>1418.0</ele><time>2026-05-03T09:21:15.126Z</time></trkpt><trkpt lat="44.1279371" lon="7.9616038"><ele>1419.0</ele><time>2026-05-03T09:21:16.127Z</time></trkpt><trkpt lat="44.1279609" lon="7.9617221"><ele>1420.0</ele><time>2026-05-03T09:21:17.126Z</time></trkpt><trkpt lat="44.1279688" lon="7.9618398"><ele>1422.5</ele><time>2026-05-03T09:21:18.126Z</time></trkpt><trkpt lat="44.1279763" lon="7.961952"><ele>1425.0</ele><time>2026-05-03T09:21:19.126Z</time></trkpt><trkpt lat="44.127982" lon="7.9620675"><ele>1427.5</ele><time>2026-05-03T09:21:20.126Z</time></trkpt><trkpt lat="44.1279895" lon="7.9621859"><ele>1430.0</ele><time>2026-05-03T09:21:21.127Z</time></trkpt><trkpt lat="44.1280012" lon="7.9623021"><ele>1432.5</ele><time>2026-05-03T09:21:22.126Z</time></trkpt><trkpt lat="44.1280252" lon="7.9624148"><ele>1435.0</ele><time>2026-05-03T09:21:23.127Z</time></trkpt><trkpt lat="44.1280668" lon="7.9625175"><ele>1438.0</ele><time>2026-05-03T09:21:24.126Z</time></trkpt><trkpt lat="44.1281121" lon="7.9626133"><ele>1441.0</ele><time>2026-05-03T09:21:25.126Z</time></trkpt><trkpt lat="44.1281536" lon="7.9627079"><ele>1444.0</ele><time>2026-05-03T09:21:26.126Z</time></trkpt><trkpt lat="44.1281846" lon="7.9628075"><ele>1447.0</ele><time>2026-05-03T09:21:27.126Z</time></trkpt><trkpt lat="44.12821" lon="7.9629114"><ele>1450.0</ele><time>2026-05-03T09:21:28.126Z</time></trkpt><trkpt lat="44.128224" lon="7.9630178"><ele>1453.0</ele><time>2026-05-03T09:21:29.126Z</time></trkpt><trkpt lat="44.1282235" lon="7.9631312"><ele>1453.0</ele><time>2026-05-03T09:21:30.126Z</time></trkpt><trkpt lat="44.1282139" lon="7.9632493"><ele>1453.0</ele><time>2026-05-03T09:21:31.126Z</time></trkpt><trkpt lat="44.1282084" lon="7.9633669"><ele>1453.0</ele><time>2026-05-03T09:21:32.126Z</time></trkpt><trkpt lat="44.1282098" lon="7.9634786"><ele>1453.0</ele><time>2026-05-03T09:21:33.126Z</time></trkpt><trkpt lat="44.1282196" lon="7.9635668"><ele>1453.0</ele><time>2026-05-03T09:21:34.126Z</time></trkpt><trkpt lat="44.128264" lon="7.9637115"><ele>1453.0</ele><time>2026-05-03T09:21:36.127Z</time></trkpt><trkpt lat="44.1283596" lon="7.9638195"><ele>1453.3333333333333</ele><time>2026-05-03T09:21:38.126Z</time></trkpt><trkpt lat="44.1284214" lon="7.9638665"><ele>1453.6666666666665</ele><time>2026-05-03T09:21:39.126Z</time></trkpt><trkpt lat="44.12849" lon="7.9639181"><ele>1454.0</ele><time>2026-05-03T09:21:40.126Z</time></trkpt><trkpt lat="44.1285623" lon="7.9639729"><ele>1454.3333333333333</ele><time>2026-05-03T09:21:41.127Z</time></trkpt><trkpt lat="44.1286327" lon="7.9640265"><ele>1454.6666666666667</ele><time>2026-05-03T09:21:42.127Z</time></trkpt><trkpt lat="44.1287081" lon="7.9640758"><ele>1455.0</ele><time>2026-05-03T09:21:43.126Z</time></trkpt><trkpt lat="44.1287871" lon="7.9641125"><ele>1455.0</ele><time>2026-05-03T09:21:44.126Z</time></trkpt><trkpt lat="44.1288663" lon="7.9641411"><ele>1455.0</ele><time>2026-05-03T09:21:45.126Z</time></trkpt><trkpt lat="44.1289419" lon="7.964164"><ele>1455.0</ele><time>2026-05-03T09:21:46.126Z</time></trkpt><trkpt lat="44.1290158" lon="7.964179"><ele>1455.0</ele><time>2026-05-03T09:21:47.126Z</time></trkpt><trkpt lat="44.1290877" lon="7.9641869"><ele>1455.0</ele><time>2026-05-03T09:21:48.126Z</time></trkpt><trkpt lat="44.129353" lon="7.9642223"><ele>1452.0</ele><time>2026-05-03T09:21:52.052Z</time></trkpt><trkpt lat="44.1294716" lon="7.9642275"><ele>1449.0</ele><time>2026-05-03T09:21:53.128Z</time></trkpt><trkpt lat="44.1295441" lon="7.9642217"><ele>1446.0</ele><time>2026-05-03T09:21:54.127Z</time></trkpt><trkpt lat="44.1296134" lon="7.9642337"><ele>1443.0</ele><time>2026-05-03T09:21:55.127Z</time></trkpt><trkpt lat="44.1296841" lon="7.964249"><ele>1440.0</ele><time>2026-05-03T09:21:56.127Z</time></trkpt><trkpt lat="44.1297603" lon="7.9642743"><ele>1437.0</ele><time>2026-05-03T09:21:57.127Z</time></trkpt><trkpt lat="44.1298419" lon="7.9643025"><ele>1437.3999999999999</ele><time>2026-05-03T09:21:58.127Z</time></trkpt><trkpt lat="44.1299321" lon="7.9643264"><ele>1437.8</ele><time>2026-05-03T09:21:59.127Z</time></trkpt><trkpt lat="44.1300219" lon="7.9643397"><ele>1438.2</ele><time>2026-05-03T09:22:00.127Z</time></trkpt><trkpt lat="44.130115" lon="7.9643504"><ele>1438.6</ele><time>2026-05-03T09:22:01.127Z</time></trkpt><trkpt lat="44.13021" lon="7.9643686"><ele>1439.0</ele><time>2026-05-03T09:22:02.128Z</time></trkpt><trkpt lat="44.1302999" lon="7.9644033"><ele>1439.0</ele><time>2026-05-03T09:22:03.128Z</time></trkpt><trkpt lat="44.1303929" lon="7.9644478"><ele>1439.0</ele><time>2026-05-03T09:22:04.128Z</time></trkpt><trkpt lat="44.1304912" lon="7.9644809"><ele>1439.0</ele><time>2026-05-03T09:22:05.128Z</time></trkpt><trkpt lat="44.130596" lon="7.9645054"><ele>1439.0</ele><time>2026-05-03T09:22:06.128Z</time></trkpt><trkpt lat="44.1307077" lon="7.9645223"><ele>1439.0</ele><time>2026-05-03T09:22:07.128Z</time></trkpt><trkpt lat="44.1308175" lon="7.9645394"><ele>1439.8000000000002</ele><time>2026-05-03T09:22:08.127Z</time></trkpt><trkpt lat="44.1309231" lon="7.9645701"><ele>1440.6000000000001</ele><time>2026-05-03T09:22:09.127Z</time></trkpt><trkpt lat="44.131024" lon="7.9645974"><ele>1441.4</ele><time>2026-05-03T09:22:10.127Z</time></trkpt><trkpt lat="44.1311264" lon="7.9646194"><ele>1442.2</ele><time>2026-05-03T09:22:11.127Z</time></trkpt><trkpt lat="44.1312325" lon="7.9646561"><ele>1443.0</ele><time>2026-05-03T09:22:12.127Z</time></trkpt><trkpt lat="44.131329" lon="7.9646986"><ele>1443.0</ele><time>2026-05-03T09:22:13.127Z</time></trkpt><trkpt lat="44.1314188" lon="7.9647461"><ele>1443.0</ele><time>2026-05-03T09:22:14.128Z</time></trkpt><trkpt lat="44.1314963" lon="7.9648043"><ele>1443.0</ele><time>2026-05-03T09:22:15.127Z</time></trkpt><trkpt lat="44.1315513" lon="7.9648749"><ele>1443.0</ele><time>2026-05-03T09:22:16.127Z</time></trkpt><trkpt lat="44.1315827" lon="7.9649704"><ele>1443.0</ele><time>2026-05-03T09:22:17.128Z</time></trkpt><trkpt lat="44.1315996" lon="7.9650679"><ele>1443.0</ele><time>2026-05-03T09:22:18.127Z</time></trkpt><trkpt lat="44.1316083" lon="7.9651563"><ele>1442.3333333333333</ele><time>2026-05-03T09:22:19.128Z</time></trkpt><trkpt lat="44.131627" lon="7.9652455"><ele>1441.6666666666667</ele><time>2026-05-03T09:22:20.127Z</time></trkpt><trkpt lat="44.1316738" lon="7.9653268"><ele>1441.0</ele><time>2026-05-03T09:22:21.127Z</time></trkpt><trkpt lat="44.1317398" lon="7.9653913"><ele>1440.3333333333335</ele><time>2026-05-03T09:22:22.127Z</time></trkpt><trkpt lat="44.1318044" lon="7.9654342"><ele>1439.6666666666667</ele><time>2026-05-03T09:22:23.127Z</time></trkpt><trkpt lat="44.1318775" lon="7.9654603"><ele>1439.0</ele><time>2026-05-03T09:22:24.127Z</time></trkpt><trkpt lat="44.1319639" lon="7.9654839"><ele>1439.0</ele><time>2026-05-03T09:22:25.127Z</time></trkpt><trkpt lat="44.1320518" lon="7.9655064"><ele>1439.0</ele><time>2026-05-03T09:22:26.127Z</time></trkpt><trkpt lat="44.1321442" lon="7.9655116"><ele>1439.0</ele><time>2026-05-03T09:22:27.127Z</time></trkpt><trkpt lat="44.1322382" lon="7.9655121"><ele>1439.0</ele><time>2026-05-03T09:22:28.127Z</time></trkpt><trkpt lat="44.1323347" lon="7.9654774"><ele>1439.0</ele><time>2026-05-03T09:22:29.128Z</time></trkpt><trkpt lat="44.1324342" lon="7.9654704"><ele>1439.5</ele><time>2026-05-03T09:22:30.128Z</time></trkpt><trkpt lat="44.1325271" lon="7.9654744"><ele>1440.0</ele><time>2026-05-03T09:22:31.127Z</time></trkpt><trkpt lat="44.1326187" lon="7.9654676"><ele>1440.5</ele><time>2026-05-03T09:22:32.127Z</time></trkpt><trkpt lat="44.132696" lon="7.9654684"><ele>1441.0</ele><time>2026-05-03T09:22:33.127Z</time></trkpt><trkpt lat="44.132762" lon="7.9654731"><ele>1441.5</ele><time>2026-05-03T09:22:34.127Z</time></trkpt><trkpt lat="44.1328686" lon="7.9655348"><ele>1442.0</ele><time>2026-05-03T09:22:36.127Z</time></trkpt><trkpt lat="44.132927" lon="7.9655932"><ele>1442.0</ele><time>2026-05-03T09:22:37.127Z</time></trkpt><trkpt lat="44.1329758" lon="7.9656807"><ele>1442.0</ele><time>2026-05-03T09:22:38.127Z</time></trkpt><trkpt lat="44.1330346" lon="7.9657604"><ele>1442.0</ele><time>2026-05-03T09:22:39.127Z</time></trkpt><trkpt lat="44.1330519" lon="7.9658604"><ele>1442.0</ele><time>2026-05-03T09:22:40.127Z</time></trkpt><trkpt lat="44.1330643" lon="7.9659493"><ele>1442.0</ele><time>2026-05-03T09:22:41.127Z</time></trkpt><trkpt lat="44.133095" lon="7.9661175"><ele>1442.0</ele><time>2026-05-03T09:22:43.127Z</time></trkpt><trkpt lat="44.1331986" lon="7.9661897"><ele>1441.5</ele><time>2026-05-03T09:22:45.127Z</time></trkpt><trkpt lat="44.1333113" lon="7.9662266"><ele>1441.0</ele><time>2026-05-03T09:22:47.128Z</time></trkpt><trkpt lat="44.1333686" lon="7.9662726"><ele>1440.5</ele><time>2026-05-03T09:22:48.128Z</time></trkpt><trkpt lat="44.1334315" lon="7.9663371"><ele>1440.0</ele><time>2026-05-03T09:22:49.127Z</time></trkpt><trkpt lat="44.1334679" lon="7.9664215"><ele>1439.5</ele><time>2026-05-03T09:22:50.128Z</time></trkpt><trkpt lat="44.133507" lon="7.9665053"><ele>1439.0</ele><time>2026-05-03T09:22:51.127Z</time></trkpt><trkpt lat="44.1335555" lon="7.9665754"><ele>1439.0</ele><time>2026-05-03T09:22:52.127Z</time></trkpt><trkpt lat="44.1336147" lon="7.9666343"><ele>1439.0</ele><time>2026-05-03T09:22:53.127Z</time></trkpt><trkpt lat="44.1336742" lon="7.9666796"><ele>1439.0</ele><time>2026-05-03T09:22:54.128Z</time></trkpt><trkpt lat="44.1337312" lon="7.9667195"><ele>1439.0</ele><time>2026-05-03T09:22:55.128Z</time></trkpt><trkpt lat="44.133841" lon="7.9667875"><ele>1439.0</ele><time>2026-05-03T09:22:57.127Z</time></trkpt><trkpt lat="44.1339232" lon="7.9668123"><ele>1439.0</ele><time>2026-05-03T09:22:59.127Z</time></trkpt><trkpt lat="44.1340235" lon="7.9667796"><ele>1441.6666666666667</ele><time>2026-05-03T09:24:03.127Z</time></trkpt><trkpt lat="44.134156" lon="7.966778"><ele>1444.3333333333335</ele><time>2026-05-03T09:24:05.128Z</time></trkpt><trkpt lat="44.1342311" lon="7.9667918"><ele>1447.0</ele><time>2026-05-03T09:24:06.127Z</time></trkpt><trkpt lat="44.1343042" lon="7.9668257"><ele>1449.6666666666667</ele><time>2026-05-03T09:24:07.127Z</time></trkpt><trkpt lat="44.1343684" lon="7.9668707"><ele>1452.3333333333333</ele><time>2026-05-03T09:24:08.127Z</time></trkpt><trkpt lat="44.1344234" lon="7.9669265"><ele>1455.0</ele><time>2026-05-03T09:24:09.127Z</time></trkpt><trkpt lat="44.1344782" lon="7.966992"><ele>1455.0</ele><time>2026-05-03T09:24:10.128Z</time></trkpt><trkpt lat="44.1345304" lon="7.9670699"><ele>1455.0</ele><time>2026-05-03T09:24:11.127Z</time></trkpt><trkpt lat="44.134581" lon="7.9671534"><ele>1455.0</ele><time>2026-05-03T09:24:12.127Z</time></trkpt><trkpt lat="44.1346301" lon="7.9672457"><ele>1455.0</ele><time>2026-05-03T09:24:13.127Z</time></trkpt><trkpt lat="44.1346876" lon="7.9673397"><ele>1455.0</ele><time>2026-05-03T09:24:14.128Z</time></trkpt><trkpt lat="44.1347485" lon="7.9674267"><ele>1455.0</ele><time>2026-05-03T09:24:15.128Z</time></trkpt><trkpt lat="44.1348218" lon="7.9674914"><ele>1455.0</ele><time>2026-05-03T09:24:16.127Z</time></trkpt><trkpt lat="44.1349037" lon="7.9675224"><ele>1455.0</ele><time>2026-05-03T09:24:17.128Z</time></trkpt><trkpt lat="44.1349744" lon="7.9675156"><ele>1455.0</ele><time>2026-05-03T09:24:18.127Z</time></trkpt><trkpt lat="44.1350371" lon="7.967504"><ele>1455.0</ele><time>2026-05-03T09:24:19.127Z</time></trkpt><trkpt lat="44.1351531" lon="7.9674282"><ele>1455.0</ele><time>2026-05-03T09:24:21.128Z</time></trkpt><trkpt lat="44.1352673" lon="7.967359"><ele>1455.0</ele><time>2026-05-03T09:24:23.128Z</time></trkpt><trkpt lat="44.1353323" lon="7.9673554"><ele>1455.0</ele><time>2026-05-03T09:24:24.128Z</time></trkpt><trkpt lat="44.1354051" lon="7.9673824"><ele>1455.0</ele><time>2026-05-03T09:24:25.127Z</time></trkpt><trkpt lat="44.1354912" lon="7.9674251"><ele>1455.0</ele><time>2026-05-03T09:24:26.127Z</time></trkpt><trkpt lat="44.1355671" lon="7.967462"><ele>1455.0</ele><time>2026-05-03T09:24:27.127Z</time></trkpt><trkpt lat="44.1356359" lon="7.9675101"><ele>1455.0</ele><time>2026-05-03T09:24:28.127Z</time></trkpt><trkpt lat="44.1356876" lon="7.9675755"><ele>1453.0</ele><time>2026-05-03T09:24:29.127Z</time></trkpt><trkpt lat="44.1357241" lon="7.9677466"><ele>1451.0</ele><time>2026-05-03T09:24:31.129Z</time></trkpt><trkpt lat="44.1357127" lon="7.9678713"><ele>1449.0</ele><time>2026-05-03T09:24:32.128Z</time></trkpt><trkpt lat="44.1356881" lon="7.9680275"><ele>1447.0</ele><time>2026-05-03T09:24:33.127Z</time></trkpt><trkpt lat="44.1356652" lon="7.968174"><ele>1445.0</ele><time>2026-05-03T09:24:34.127Z</time></trkpt><trkpt lat="44.1356469" lon="7.968305"><ele>1448.8333333333335</ele><time>2026-05-03T09:24:35.127Z</time></trkpt><trkpt lat="44.135628" lon="7.9684274"><ele>1452.6666666666667</ele><time>2026-05-03T09:24:36.127Z</time></trkpt><trkpt lat="44.135611" lon="7.968541"><ele>1456.5</ele><time>2026-05-03T09:24:37.127Z</time></trkpt><trkpt lat="44.1355925" lon="7.9686511"><ele>1460.3333333333333</ele><time>2026-05-03T09:24:38.127Z</time></trkpt><trkpt lat="44.135577" lon="7.9687593"><ele>1464.1666666666665</ele><time>2026-05-03T09:24:39.127Z</time></trkpt><trkpt lat="44.1355641" lon="7.9688735"><ele>1468.0</ele><time>2026-05-03T09:24:40.127Z</time></trkpt><trkpt lat="44.1355521" lon="7.9689871"><ele>1468.0</ele><time>2026-05-03T09:24:41.127Z</time></trkpt><trkpt lat="44.1355421" lon="7.969089"><ele>1468.0</ele><time>2026-05-03T09:24:42.128Z</time></trkpt><trkpt lat="44.1355312" lon="7.9691866"><ele>1468.0</ele><time>2026-05-03T09:24:43.127Z</time></trkpt><trkpt lat="44.135512" lon="7.9692821"><ele>1468.0</ele><time>2026-05-03T09:24:44.127Z</time></trkpt><trkpt lat="44.1354888" lon="7.96938"><ele>1468.0</ele><time>2026-05-03T09:24:45.127Z</time></trkpt><trkpt lat="44.135471" lon="7.9694713"><ele>1468.0</ele><time>2026-05-03T09:24:46.128Z</time></trkpt><trkpt lat="44.135456" lon="7.9695577"><ele>1468.0</ele><time>2026-05-03T09:24:47.127Z</time></trkpt><trkpt lat="44.13543" lon="7.9697314"><ele>1468.0</ele><time>2026-05-03T09:24:49.127Z</time></trkpt><trkpt lat="44.1354301" lon="7.9698224"><ele>1468.0</ele><time>2026-05-03T09:24:50.128Z</time></trkpt><trkpt lat="44.1354343" lon="7.9699111"><ele>1468.0</ele><time>2026-05-03T09:24:51.127Z</time></trkpt><trkpt lat="44.1354333" lon="7.970003"><ele>1468.0</ele><time>2026-05-03T09:24:52.127Z</time></trkpt><trkpt lat="44.1354376" lon="7.9701023"><ele>1468.0</ele><time>2026-05-03T09:24:53.127Z</time></trkpt><trkpt lat="44.1354466" lon="7.970207"><ele>1468.0</ele><time>2026-05-03T09:24:54.127Z</time></trkpt><trkpt lat="44.1354581" lon="7.9703205"><ele>1468.0</ele><time>2026-05-03T09:24:55.127Z</time></trkpt><trkpt lat="44.1354698" lon="7.9704278"><ele>1467.6666666666665</ele><time>2026-05-03T09:24:56.128Z</time></trkpt><trkpt lat="44.1354863" lon="7.970533"><ele>1467.3333333333333</ele><time>2026-05-03T09:24:57.127Z</time></trkpt><trkpt lat="44.1355045" lon="7.970638"><ele>1467.0</ele><time>2026-05-03T09:24:58.127Z</time></trkpt><trkpt lat="44.1355094" lon="7.9707403"><ele>1466.6666666666667</ele><time>2026-05-03T09:24:59.127Z</time></trkpt><trkpt lat="44.1355144" lon="7.9708458"><ele>1466.3333333333335</ele><time>2026-05-03T09:25:00.127Z</time></trkpt><trkpt lat="44.1355275" lon="7.9709661"><ele>1466.0</ele><time>2026-05-03T09:25:01.128Z</time></trkpt><trkpt lat="44.135548" lon="7.9711019"><ele>1465.1666666666667</ele><time>2026-05-03T09:25:02.127Z</time></trkpt><trkpt lat="44.1355636" lon="7.9712291"><ele>1464.3333333333335</ele><time>2026-05-03T09:25:03.127Z</time></trkpt><trkpt lat="44.1355636" lon="7.971345"><ele>1463.5</ele><time>2026-05-03T09:25:04.127Z</time></trkpt><trkpt lat="44.1355541" lon="7.9714678"><ele>1462.6666666666667</ele><time>2026-05-03T09:25:05.127Z</time></trkpt><trkpt lat="44.1355371" lon="7.9715926"><ele>1461.8333333333333</ele><time>2026-05-03T09:25:06.127Z</time></trkpt><trkpt lat="44.1355105" lon="7.9717031"><ele>1461.0</ele><time>2026-05-03T09:25:07.127Z</time></trkpt><trkpt lat="44.1354768" lon="7.9718158"><ele>1459.6666666666667</ele><time>2026-05-03T09:25:08.128Z</time></trkpt><trkpt lat="44.135441" lon="7.9719251"><ele>1458.3333333333333</ele><time>2026-05-03T09:25:09.127Z</time></trkpt><trkpt lat="44.1354078" lon="7.9720315"><ele>1457.0</ele><time>2026-05-03T09:25:10.127Z</time></trkpt><trkpt lat="44.1353771" lon="7.9721261"><ele>1455.6666666666665</ele><time>2026-05-03T09:25:11.127Z</time></trkpt><trkpt lat="44.1353365" lon="7.9722177"><ele>1454.3333333333333</ele><time>2026-05-03T09:25:12.127Z</time></trkpt><trkpt lat="44.135303" lon="7.9723196"><ele>1453.0</ele><time>2026-05-03T09:25:13.127Z</time></trkpt><trkpt lat="44.135275" lon="7.9724256"><ele>1450.8333333333333</ele><time>2026-05-03T09:25:14.127Z</time></trkpt><trkpt lat="44.1352475" lon="7.9725303"><ele>1448.6666666666665</ele><time>2026-05-03T09:25:15.127Z</time></trkpt><trkpt lat="44.1352249" lon="7.9726361"><ele>1446.5</ele><time>2026-05-03T09:25:16.127Z</time></trkpt><trkpt lat="44.1351997" lon="7.9727446"><ele>1444.3333333333333</ele><time>2026-05-03T09:25:17.127Z</time></trkpt><trkpt lat="44.1351643" lon="7.972851"><ele>1442.1666666666667</ele><time>2026-05-03T09:25:18.128Z</time></trkpt><trkpt lat="44.1351343" lon="7.9729512"><ele>1440.0</ele><time>2026-05-03T09:25:19.127Z</time></trkpt><trkpt lat="44.1351255" lon="7.9730541"><ele>1440.0</ele><time>2026-05-03T09:25:20.127Z</time></trkpt><trkpt lat="44.1351364" lon="7.9731742"><ele>1440.0</ele><time>2026-05-03T09:25:21.128Z</time></trkpt><trkpt lat="44.1351508" lon="7.9732988"><ele>1440.0</ele><time>2026-05-03T09:25:22.128Z</time></trkpt><trkpt lat="44.1351489" lon="7.9734228"><ele>1440.0</ele><time>2026-05-03T09:25:23.127Z</time></trkpt><trkpt lat="44.1351319" lon="7.9735474"><ele>1440.0</ele><time>2026-05-03T09:25:24.127Z</time></trkpt><trkpt lat="44.1351" lon="7.9736679"><ele>1438.5</ele><time>2026-05-03T09:25:25.127Z</time></trkpt><trkpt lat="44.1350762" lon="7.9737819"><ele>1437.0</ele><time>2026-05-03T09:25:26.127Z</time></trkpt><trkpt lat="44.1350576" lon="7.9738915"><ele>1435.5</ele><time>2026-05-03T09:25:27.127Z</time></trkpt><trkpt lat="44.1350469" lon="7.9739827"><ele>1434.0</ele><time>2026-05-03T09:25:28.127Z</time></trkpt><trkpt lat="44.1351303" lon="7.9739816"><ele>1432.5</ele><time>2026-05-03T09:25:32.127Z</time></trkpt><trkpt lat="44.1351801" lon="7.9738972"><ele>1431.0</ele><time>2026-05-03T09:25:33.127Z</time></trkpt><trkpt lat="44.1352333" lon="7.9737869"><ele>1431.0</ele><time>2026-05-03T09:25:34.127Z</time></trkpt><trkpt lat="44.135275" lon="7.9736624"><ele>1431.0</ele><time>2026-05-03T09:25:35.128Z</time></trkpt><trkpt lat="44.1353184" lon="7.9735483"><ele>1431.0</ele><time>2026-05-03T09:25:36.127Z</time></trkpt><trkpt lat="44.1353615" lon="7.9734549"><ele>1431.0</ele><time>2026-05-03T09:25:37.127Z</time></trkpt><trkpt lat="44.1354106" lon="7.9733673"><ele>1431.0</ele><time>2026-05-03T09:25:38.127Z</time></trkpt><trkpt lat="44.1354602" lon="7.973286"><ele>1431.0</ele><time>2026-05-03T09:25:39.128Z</time></trkpt><trkpt lat="44.1355058" lon="7.9732192"><ele>1432.8</ele><time>2026-05-03T09:25:40.128Z</time></trkpt><trkpt lat="44.135577" lon="7.9730776"><ele>1434.6</ele><time>2026-05-03T09:25:42.127Z</time></trkpt><trkpt lat="44.13561" lon="7.9729964"><ele>1436.4</ele><time>2026-05-03T09:25:43.127Z</time></trkpt><trkpt lat="44.1356663" lon="7.9728584"><ele>1438.2</ele><time>2026-05-03T09:25:45.128Z</time></trkpt><trkpt lat="44.1357412" lon="7.9727406"><ele>1440.0</ele><time>2026-05-03T09:25:47.127Z</time></trkpt><trkpt lat="44.1358246" lon="7.9725984"><ele>1436.5</ele><time>2026-05-03T09:25:49.127Z</time></trkpt><trkpt lat="44.1358705" lon="7.9725324"><ele>1433.0</ele><time>2026-05-03T09:25:50.128Z</time></trkpt><trkpt lat="44.1359224" lon="7.9724464"><ele>1429.5</ele><time>2026-05-03T09:25:51.127Z</time></trkpt><trkpt lat="44.1359664" lon="7.9723729"><ele>1426.0</ele><time>2026-05-03T09:25:52.127Z</time></trkpt><trkpt lat="44.1360318" lon="7.9723083"><ele>1422.5</ele><time>2026-05-03T09:25:53.127Z</time></trkpt><trkpt lat="44.1360962" lon="7.9722399"><ele>1419.0</ele><time>2026-05-03T09:25:54.127Z</time></trkpt><trkpt lat="44.1361908" lon="7.9721394"><ele>1419.0</ele><time>2026-05-03T09:25:56.127Z</time></trkpt><trkpt lat="44.1362461" lon="7.9720824"><ele>1419.0</ele><time>2026-05-03T09:25:57.127Z</time></trkpt><trkpt lat="44.136299" lon="7.9719393"><ele>1419.0</ele><time>2026-05-03T09:25:59.127Z</time></trkpt><trkpt lat="44.1363289" lon="7.9718481"><ele>1419.0</ele><time>2026-05-03T09:26:00.127Z</time></trkpt><trkpt lat="44.1363729" lon="7.9717597"><ele>1419.0</ele><time>2026-05-03T09:26:01.127Z</time></trkpt><trkpt lat="44.1363982" lon="7.9716727"><ele>1419.0</ele><time>2026-05-03T09:26:02.127Z</time></trkpt><trkpt lat="44.1364241" lon="7.9715892"><ele>1421.3333333333333</ele><time>2026-05-03T09:26:03.127Z</time></trkpt><trkpt lat="44.1364567" lon="7.9715111"><ele>1423.6666666666667</ele><time>2026-05-03T09:26:04.127Z</time></trkpt><trkpt lat="44.1365164" lon="7.9713906"><ele>1426.0</ele><time>2026-05-03T09:26:06.127Z</time></trkpt><trkpt lat="44.1365285" lon="7.9712847"><ele>1428.3333333333335</ele><time>2026-05-03T09:26:07.127Z</time></trkpt><trkpt lat="44.1365494" lon="7.9711875"><ele>1430.6666666666667</ele><time>2026-05-03T09:26:08.127Z</time></trkpt><trkpt lat="44.1365545" lon="7.9710913"><ele>1433.0</ele><time>2026-05-03T09:26:09.128Z</time></trkpt><trkpt lat="44.136569" lon="7.9710008"><ele>1426.8333333333335</ele><time>2026-05-03T09:26:10.127Z</time></trkpt><trkpt lat="44.1365842" lon="7.9708884"><ele>1420.6666666666667</ele><time>2026-05-03T09:26:11.127Z</time></trkpt><trkpt lat="44.1366063" lon="7.9707847"><ele>1414.5</ele><time>2026-05-03T09:26:12.128Z</time></trkpt><trkpt lat="44.1366279" lon="7.9706639"><ele>1408.3333333333333</ele><time>2026-05-03T09:26:13.128Z</time></trkpt><trkpt lat="44.1366461" lon="7.9705799"><ele>1402.1666666666665</ele><time>2026-05-03T09:26:14.127Z</time></trkpt><trkpt lat="44.1366587" lon="7.970465"><ele>1396.0</ele><time>2026-05-03T09:26:15.127Z</time></trkpt><trkpt lat="44.136648" lon="7.9703624"><ele>1395.8333333333333</ele><time>2026-05-03T09:26:16.128Z</time></trkpt><trkpt lat="44.1366406" lon="7.9702467"><ele>1395.6666666666665</ele><time>2026-05-03T09:26:17.127Z</time></trkpt><trkpt lat="44.1366166" lon="7.9701277"><ele>1395.5</ele><time>2026-05-03T09:26:18.127Z</time></trkpt><trkpt lat="44.1366135" lon="7.9700184"><ele>1395.3333333333333</ele><time>2026-05-03T09:26:19.127Z</time></trkpt><trkpt lat="44.1366244" lon="7.96993"><ele>1395.1666666666667</ele><time>2026-05-03T09:26:20.127Z</time></trkpt><trkpt lat="44.1366222" lon="7.9698138"><ele>1395.0</ele><time>2026-05-03T09:26:21.128Z</time></trkpt><trkpt lat="44.1366353" lon="7.9697071"><ele>1394.3333333333333</ele><time>2026-05-03T09:26:22.127Z</time></trkpt><trkpt lat="44.1366397" lon="7.9696022"><ele>1393.6666666666667</ele><time>2026-05-03T09:26:23.127Z</time></trkpt><trkpt lat="44.1366374" lon="7.9694984"><ele>1393.0</ele><time>2026-05-03T09:26:24.127Z</time></trkpt><trkpt lat="44.1366443" lon="7.9693912"><ele>1392.3333333333335</ele><time>2026-05-03T09:26:25.127Z</time></trkpt><trkpt lat="44.1366593" lon="7.9692985"><ele>1391.6666666666667</ele><time>2026-05-03T09:26:26.128Z</time></trkpt><trkpt lat="44.1366935" lon="7.9691602"><ele>1391.0</ele><time>2026-05-03T09:26:28.127Z</time></trkpt><trkpt lat="44.1367191" lon="7.9690269"><ele>1391.0</ele><time>2026-05-03T09:26:30.127Z</time></trkpt><trkpt lat="44.1367212" lon="7.968887"><ele>1391.0</ele><time>2026-05-03T09:26:32.127Z</time></trkpt><trkpt lat="44.1367635" lon="7.968752"><ele>1391.0</ele><time>2026-05-03T09:26:34.127Z</time></trkpt><trkpt lat="44.1368049" lon="7.9686228"><ele>1391.0</ele><time>2026-05-03T09:26:36.128Z</time></trkpt><trkpt lat="44.1368189" lon="7.9685336"><ele>1391.0</ele><time>2026-05-03T09:26:37.127Z</time></trkpt><trkpt lat="44.1368645" lon="7.968416"><ele>1392.0</ele><time>2026-05-03T09:26:39.128Z</time></trkpt><trkpt lat="44.136904" lon="7.9682808"><ele>1393.0</ele><time>2026-05-03T09:26:41.128Z</time></trkpt><trkpt lat="44.1369496" lon="7.9681502"><ele>1394.0</ele><time>2026-05-03T09:26:43.127Z</time></trkpt><trkpt lat="44.1369942" lon="7.968008"><ele>1395.0</ele><time>2026-05-03T09:26:45.128Z</time></trkpt><trkpt lat="44.1370632" lon="7.9679065"><ele>1396.0</ele><time>2026-05-03T09:26:47.127Z</time></trkpt><trkpt lat="44.1371214" lon="7.9677868"><ele>1396.0</ele><time>2026-05-03T09:26:49.127Z</time></trkpt><trkpt lat="44.1371679" lon="7.9677269"><ele>1396.0</ele><time>2026-05-03T09:26:50.127Z</time></trkpt><trkpt lat="44.1372257" lon="7.9676202"><ele>1396.0</ele><time>2026-05-03T09:26:52.128Z</time></trkpt><trkpt lat="44.1372687" lon="7.9675129"><ele>1396.0</ele><time>2026-05-03T09:26:54.127Z</time></trkpt><trkpt lat="44.1373129" lon="7.9673702"><ele>1396.0</ele><time>2026-05-03T09:26:56.127Z</time></trkpt><trkpt lat="44.1373452" lon="7.9672189"><ele>1390.3333333333333</ele><time>2026-05-03T09:26:58.127Z</time></trkpt><trkpt lat="44.1373951" lon="7.9670633"><ele>1384.6666666666665</ele><time>2026-05-03T09:27:00.128Z</time></trkpt><trkpt lat="44.1374382" lon="7.9669699"><ele>1379.0</ele><time>2026-05-03T09:27:01.127Z</time></trkpt><trkpt lat="44.1374809" lon="7.9668963"><ele>1373.3333333333333</ele><time>2026-05-03T09:27:02.127Z</time></trkpt><trkpt lat="44.1375294" lon="7.9668279"><ele>1367.6666666666667</ele><time>2026-05-03T09:27:03.127Z</time></trkpt><trkpt lat="44.1375892" lon="7.9667707"><ele>1362.0</ele><time>2026-05-03T09:27:04.127Z</time></trkpt><trkpt lat="44.1376649" lon="7.966654"><ele>1362.0</ele><time>2026-05-03T09:27:06.128Z</time></trkpt><trkpt lat="44.1377455" lon="7.9665302"><ele>1362.0</ele><time>2026-05-03T09:27:08.127Z</time></trkpt><trkpt lat="44.137762" lon="7.9664279"><ele>1362.0</ele><time>2026-05-03T09:27:10.127Z</time></trkpt><trkpt lat="44.1377267" lon="7.9663351"><ele>1362.0</ele><time>2026-05-03T09:27:12.127Z</time></trkpt><trkpt lat="44.1376255" lon="7.9662425"><ele>1362.0</ele><time>2026-05-03T09:27:14.127Z</time></trkpt><trkpt lat="44.1375773" lon="7.9661798"><ele>1362.0</ele><time>2026-05-03T09:27:15.127Z</time></trkpt><trkpt lat="44.13749" lon="7.9660492"><ele>1362.0</ele><time>2026-05-03T09:27:17.127Z</time></trkpt><trkpt lat="44.1374256" lon="7.9658559"><ele>1362.0</ele><time>2026-05-03T09:27:19.127Z</time></trkpt><trkpt lat="44.1373423" lon="7.9657621"><ele>1362.0</ele><time>2026-05-03T09:27:20.128Z</time></trkpt><trkpt lat="44.1373072" lon="7.9656662"><ele>1366.0</ele><time>2026-05-03T09:27:21.128Z</time></trkpt><trkpt lat="44.1372561" lon="7.9656045"><ele>1370.0</ele><time>2026-05-03T09:27:22.128Z</time></trkpt><trkpt lat="44.1372325" lon="7.9655137"><ele>1374.0</ele><time>2026-05-03T09:27:23.127Z</time></trkpt><trkpt lat="44.1372465" lon="7.9653858"><ele>1378.0</ele><time>2026-05-03T09:27:25.127Z</time></trkpt><trkpt lat="44.1372879" lon="7.9653061"><ele>1382.0</ele><time>2026-05-03T09:27:26.127Z</time></trkpt><trkpt lat="44.1373422" lon="7.9651344"><ele>1386.0</ele><time>2026-05-03T09:27:28.127Z</time></trkpt><trkpt lat="44.1373759" lon="7.9650587"><ele>1379.3333333333333</ele><time>2026-05-03T09:27:29.128Z</time></trkpt><trkpt lat="44.1374136" lon="7.9649608"><ele>1372.6666666666667</ele><time>2026-05-03T09:27:30.127Z</time></trkpt><trkpt lat="44.1374711" lon="7.9648634"><ele>1366.0</ele><time>2026-05-03T09:27:31.127Z</time></trkpt><trkpt lat="44.1375085" lon="7.9647563"><ele>1359.3333333333335</ele><time>2026-05-03T09:27:32.127Z</time></trkpt><trkpt lat="44.1375412" lon="7.9646439"><ele>1352.6666666666667</ele><time>2026-05-03T09:27:33.129Z</time></trkpt><trkpt lat="44.1375606" lon="7.9645546"><ele>1346.0</ele><time>2026-05-03T09:27:34.127Z</time></trkpt><trkpt lat="44.137571" lon="7.964454"><ele>1346.0</ele><time>2026-05-03T09:27:35.127Z</time></trkpt><trkpt lat="44.1375634" lon="7.9643442"><ele>1346.0</ele><time>2026-05-03T09:27:36.127Z</time></trkpt><trkpt lat="44.1375761" lon="7.9642067"><ele>1346.0</ele><time>2026-05-03T09:27:37.127Z</time></trkpt><trkpt lat="44.1375797" lon="7.9640937"><ele>1346.0</ele><time>2026-05-03T09:27:38.127Z</time></trkpt><trkpt lat="44.1375755" lon="7.9639648"><ele>1346.0</ele><time>2026-05-03T09:27:39.127Z</time></trkpt><trkpt lat="44.1376081" lon="7.9638369"><ele>1347.4</ele><time>2026-05-03T09:27:40.127Z</time></trkpt><trkpt lat="44.1376455" lon="7.9637211"><ele>1348.8</ele><time>2026-05-03T09:27:41.127Z</time></trkpt><trkpt lat="44.1376782" lon="7.9635772"><ele>1350.2</ele><time>2026-05-03T09:27:42.127Z</time></trkpt><trkpt lat="44.1376974" lon="7.9634685"><ele>1351.6000000000001</ele><time>2026-05-03T09:27:43.127Z</time></trkpt><trkpt lat="44.1377418" lon="7.9633228"><ele>1353.0</ele><time>2026-05-03T09:27:44.127Z</time></trkpt><trkpt lat="44.1377693" lon="7.9631925"><ele>1353.6000000000001</ele><time>2026-05-03T09:27:45.128Z</time></trkpt><trkpt lat="44.137796" lon="7.9630596"><ele>1354.2</ele><time>2026-05-03T09:27:46.127Z</time></trkpt><trkpt lat="44.1378096" lon="7.9629323"><ele>1354.8</ele><time>2026-05-03T09:27:47.127Z</time></trkpt><trkpt lat="44.137809" lon="7.9628117"><ele>1355.4</ele><time>2026-05-03T09:27:48.128Z</time></trkpt><trkpt lat="44.1378045" lon="7.9626739"><ele>1356.0</ele><time>2026-05-03T09:27:49.128Z</time></trkpt><trkpt lat="44.1378072" lon="7.9625206"><ele>1357.0</ele><time>2026-05-03T09:27:50.127Z</time></trkpt><trkpt lat="44.1378346" lon="7.9623832"><ele>1358.0</ele><time>2026-05-03T09:27:51.127Z</time></trkpt><trkpt lat="44.1378478" lon="7.962256"><ele>1359.0</ele><time>2026-05-03T09:27:52.127Z</time></trkpt><trkpt lat="44.137853" lon="7.9621168"><ele>1360.0</ele><time>2026-05-03T09:27:53.127Z</time></trkpt><trkpt lat="44.1378522" lon="7.9619832"><ele>1361.0</ele><time>2026-05-03T09:27:54.127Z</time></trkpt><trkpt lat="44.1378477" lon="7.9618655"><ele>1361.0</ele><time>2026-05-03T09:27:55.127Z</time></trkpt><trkpt lat="44.13786" lon="7.9617335"><ele>1361.0</ele><time>2026-05-03T09:27:56.127Z</time></trkpt><trkpt lat="44.1378922" lon="7.9615982"><ele>1361.0</ele><time>2026-05-03T09:27:57.128Z</time></trkpt><trkpt lat="44.1379246" lon="7.9614732"><ele>1361.0</ele><time>2026-05-03T09:27:58.127Z</time></trkpt><trkpt lat="44.1379534" lon="7.9613453"><ele>1361.0</ele><time>2026-05-03T09:27:59.127Z</time></trkpt><trkpt lat="44.1379767" lon="7.9612309"><ele>1361.8</ele><time>2026-05-03T09:28:00.127Z</time></trkpt><trkpt lat="44.1380162" lon="7.9611261"><ele>1362.6</ele><time>2026-05-03T09:28:01.127Z</time></trkpt><trkpt lat="44.1380351" lon="7.9610157"><ele>1363.4</ele><time>2026-05-03T09:28:02.127Z</time></trkpt><trkpt lat="44.1380605" lon="7.9609"><ele>1364.2</ele><time>2026-05-03T09:28:03.128Z</time></trkpt><trkpt lat="44.1381045" lon="7.9607732"><ele>1365.0</ele><time>2026-05-03T09:28:04.127Z</time></trkpt><trkpt lat="44.1381548" lon="7.9606334"><ele>1355.8</ele><time>2026-05-03T09:28:05.127Z</time></trkpt><trkpt lat="44.138238" lon="7.9605079"><ele>1346.6</ele><time>2026-05-03T09:28:06.128Z</time></trkpt><trkpt lat="44.138296" lon="7.9603965"><ele>1337.4</ele><time>2026-05-03T09:28:07.127Z</time></trkpt><trkpt lat="44.1383624" lon="7.9603076"><ele>1328.2</ele><time>2026-05-03T09:28:08.127Z</time></trkpt><trkpt lat="44.1384165" lon="7.9602137"><ele>1319.0</ele><time>2026-05-03T09:28:09.128Z</time></trkpt><trkpt lat="44.1385055" lon="7.9601213"><ele>1319.0</ele><time>2026-05-03T09:28:10.127Z</time></trkpt><trkpt lat="44.1385637" lon="7.9600566"><ele>1319.0</ele><time>2026-05-03T09:28:11.127Z</time></trkpt><trkpt lat="44.1386254" lon="7.9600025"><ele>1319.0</ele><time>2026-05-03T09:28:12.128Z</time></trkpt><trkpt lat="44.1386942" lon="7.9599368"><ele>1319.0</ele><time>2026-05-03T09:28:13.128Z</time></trkpt><trkpt lat="44.1387739" lon="7.9598781"><ele>1319.0</ele><time>2026-05-03T09:28:14.127Z</time></trkpt><trkpt lat="44.1388544" lon="7.9598242"><ele>1319.0</ele><time>2026-05-03T09:28:15.127Z</time></trkpt><trkpt lat="44.1389191" lon="7.9597565"><ele>1321.8333333333335</ele><time>2026-05-03T09:28:16.127Z</time></trkpt><trkpt lat="44.138982" lon="7.9597089"><ele>1324.6666666666667</ele><time>2026-05-03T09:28:17.128Z</time></trkpt><trkpt lat="44.1390421" lon="7.9596727"><ele>1327.5</ele><time>2026-05-03T09:28:18.127Z</time></trkpt><trkpt lat="44.1391183" lon="7.9596249"><ele>1330.3333333333333</ele><time>2026-05-03T09:28:19.127Z</time></trkpt><trkpt lat="44.139174" lon="7.9595764"><ele>1333.1666666666665</ele><time>2026-05-03T09:28:20.127Z</time></trkpt><trkpt lat="44.1392345" lon="7.9595349"><ele>1336.0</ele><time>2026-05-03T09:28:21.128Z</time></trkpt><trkpt lat="44.1393466" lon="7.9594913"><ele>1330.1666666666665</ele><time>2026-05-03T09:28:23.127Z</time></trkpt><trkpt lat="44.1394217" lon="7.9594667"><ele>1324.3333333333333</ele><time>2026-05-03T09:28:24.127Z</time></trkpt><trkpt lat="44.1395093" lon="7.9594273"><ele>1318.5</ele><time>2026-05-03T09:28:25.127Z</time></trkpt><trkpt lat="44.1395735" lon="7.9593958"><ele>1312.6666666666667</ele><time>2026-05-03T09:28:26.127Z</time></trkpt><trkpt lat="44.1396504" lon="7.9593781"><ele>1306.8333333333335</ele><time>2026-05-03T09:28:27.127Z</time></trkpt><trkpt lat="44.1397272" lon="7.9593661"><ele>1301.0</ele><time>2026-05-03T09:28:28.128Z</time></trkpt><trkpt lat="44.1398152" lon="7.9593363"><ele>1300.5</ele><time>2026-05-03T09:28:29.128Z</time></trkpt><trkpt lat="44.139893" lon="7.9593081"><ele>1300.0</ele><time>2026-05-03T09:28:30.128Z</time></trkpt><trkpt lat="44.1399783" lon="7.9592718"><ele>1299.5</ele><time>2026-05-03T09:28:31.127Z</time></trkpt><trkpt lat="44.1400545" lon="7.9592344"><ele>1299.0</ele><time>2026-05-03T09:28:32.127Z</time></trkpt><trkpt lat="44.1401607" lon="7.9592035"><ele>1298.5</ele><time>2026-05-03T09:28:33.127Z</time></trkpt><trkpt lat="44.1402461" lon="7.9591663"><ele>1298.0</ele><time>2026-05-03T09:28:34.127Z</time></trkpt><trkpt lat="44.1403193" lon="7.9591263"><ele>1298.0</ele><time>2026-05-03T09:28:35.128Z</time></trkpt><trkpt lat="44.1403967" lon="7.9590956"><ele>1298.0</ele><time>2026-05-03T09:28:36.127Z</time></trkpt><trkpt lat="44.1404781" lon="7.9590555"><ele>1298.0</ele><time>2026-05-03T09:28:37.127Z</time></trkpt><trkpt lat="44.140557" lon="7.9590144"><ele>1298.0</ele><time>2026-05-03T09:28:38.128Z</time></trkpt><trkpt lat="44.1406426" lon="7.9589743"><ele>1298.0</ele><time>2026-05-03T09:28:39.128Z</time></trkpt><trkpt lat="44.1407161" lon="7.9589433"><ele>1298.0</ele><time>2026-05-03T09:28:40.127Z</time></trkpt><trkpt lat="44.1407792" lon="7.9589073"><ele>1295.6000000000001</ele><time>2026-05-03T09:28:41.127Z</time></trkpt><trkpt lat="44.1408598" lon="7.9588285"><ele>1293.2</ele><time>2026-05-03T09:28:42.127Z</time></trkpt><trkpt lat="44.1409322" lon="7.9587449"><ele>1290.8</ele><time>2026-05-03T09:28:43.127Z</time></trkpt><trkpt lat="44.140991" lon="7.9586582"><ele>1288.4</ele><time>2026-05-03T09:28:44.127Z</time></trkpt><trkpt lat="44.1410659" lon="7.9585698"><ele>1286.0</ele><time>2026-05-03T09:28:45.127Z</time></trkpt><trkpt lat="44.1411367" lon="7.9584726"><ele>1289.0</ele><time>2026-05-03T09:28:46.128Z</time></trkpt><trkpt lat="44.1412041" lon="7.9583614"><ele>1292.0</ele><time>2026-05-03T09:28:47.127Z</time></trkpt><trkpt lat="44.1412866" lon="7.9582516"><ele>1295.0</ele><time>2026-05-03T09:28:48.128Z</time></trkpt><trkpt lat="44.1413303" lon="7.9580971"><ele>1298.0</ele><time>2026-05-03T09:28:50.127Z</time></trkpt><trkpt lat="44.1413171" lon="7.9579416"><ele>1298.0</ele><time>2026-05-03T09:28:52.128Z</time></trkpt><trkpt lat="44.1413134" lon="7.9578413"><ele>1298.0</ele><time>2026-05-03T09:28:53.127Z</time></trkpt><trkpt lat="44.1413011" lon="7.957731"><ele>1298.0</ele><time>2026-05-03T09:28:54.127Z</time></trkpt><trkpt lat="44.1412839" lon="7.9576306"><ele>1298.0</ele><time>2026-05-03T09:28:55.128Z</time></trkpt><trkpt lat="44.1412674" lon="7.957462"><ele>1298.0</ele><time>2026-05-03T09:28:57.127Z</time></trkpt><trkpt lat="44.1412465" lon="7.9572875"><ele>1298.8000000000002</ele><time>2026-05-03T09:28:59.127Z</time></trkpt><trkpt lat="44.1412715" lon="7.9571964"><ele>1299.6</ele><time>2026-05-03T09:29:00.127Z</time></trkpt><trkpt lat="44.141318" lon="7.9570498"><ele>1300.4</ele><time>2026-05-03T09:29:02.127Z</time></trkpt><trkpt lat="44.1413459" lon="7.9569381"><ele>1301.1999999999998</ele><time>2026-05-03T09:29:04.127Z</time></trkpt><trkpt lat="44.1413661" lon="7.9568151"><ele>1302.0</ele><time>2026-05-03T09:29:06.128Z</time></trkpt><trkpt lat="44.1413893" lon="7.9566529"><ele>1302.5714285714287</ele><time>2026-05-03T09:29:08.127Z</time></trkpt><trkpt lat="44.1413876" lon="7.956563"><ele>1303.142857142857</ele><time>2026-05-03T09:29:09.128Z</time></trkpt><trkpt lat="44.1413999" lon="7.9564683"><ele>1303.7142857142858</ele><time>2026-05-03T09:29:10.127Z</time></trkpt><trkpt lat="44.1414188" lon="7.956373"><ele>1304.2857142857142</ele><time>2026-05-03T09:29:11.127Z</time></trkpt><trkpt lat="44.1414429" lon="7.9562886"><ele>1304.857142857143</ele><time>2026-05-03T09:29:12.128Z</time></trkpt><trkpt lat="44.1414719" lon="7.9561994"><ele>1305.4285714285716</ele><time>2026-05-03T09:29:13.128Z</time></trkpt><trkpt lat="44.1414955" lon="7.9560873"><ele>1306.0</ele><time>2026-05-03T09:29:14.128Z</time></trkpt><trkpt lat="44.141531" lon="7.9559736"><ele>1301.6666666666665</ele><time>2026-05-03T09:29:15.127Z</time></trkpt><trkpt lat="44.1415797" lon="7.9558668"><ele>1297.3333333333333</ele><time>2026-05-03T09:29:16.127Z</time></trkpt><trkpt lat="44.141627" lon="7.9557548"><ele>1293.0</ele><time>2026-05-03T09:29:17.127Z</time></trkpt><trkpt lat="44.1416629" lon="7.9556499"><ele>1288.6666666666667</ele><time>2026-05-03T09:29:18.127Z</time></trkpt><trkpt lat="44.1416963" lon="7.9555648"><ele>1284.3333333333335</ele><time>2026-05-03T09:29:19.127Z</time></trkpt><trkpt lat="44.1417592" lon="7.9554687"><ele>1280.0</ele><time>2026-05-03T09:29:21.127Z</time></trkpt><trkpt lat="44.1418263" lon="7.9555234"><ele>1280.0</ele><time>2026-05-03T09:29:24.128Z</time></trkpt><trkpt lat="44.1418049" lon="7.9556153"><ele>1280.0</ele><time>2026-05-03T09:29:27.138Z</time></trkpt><trkpt lat="44.141835" lon="7.9557221"><ele>1280.0</ele><time>2026-05-03T09:29:31.127Z</time></trkpt><trkpt lat="44.141858" lon="7.9558279"><ele>1280.0</ele><time>2026-05-03T09:29:34.127Z</time></trkpt><trkpt lat="44.1419512" lon="7.9559853"><ele>1280.0</ele><time>2026-05-03T09:29:36.127Z</time></trkpt><trkpt lat="44.1420215" lon="7.9560738"><ele>1280.6</ele><time>2026-05-03T09:29:37.128Z</time></trkpt><trkpt lat="44.1421198" lon="7.9561457"><ele>1281.2</ele><time>2026-05-03T09:29:38.127Z</time></trkpt><trkpt lat="44.1422124" lon="7.9561058"><ele>1281.8000000000002</ele><time>2026-05-03T09:29:40.127Z</time></trkpt><trkpt lat="44.1422853" lon="7.956148"><ele>1282.4</ele><time>2026-05-03T09:29:42.127Z</time></trkpt><trkpt lat="44.142359" lon="7.9562658"><ele>1283.0</ele><time>2026-05-03T09:29:44.128Z</time></trkpt><trkpt lat="44.1424109" lon="7.9563418"><ele>1282.8333333333335</ele><time>2026-05-03T09:29:45.128Z</time></trkpt><trkpt lat="44.1424475" lon="7.9564267"><ele>1282.6666666666667</ele><time>2026-05-03T09:29:46.128Z</time></trkpt><trkpt lat="44.1425007" lon="7.956485"><ele>1282.5</ele><time>2026-05-03T09:29:47.127Z</time></trkpt><trkpt lat="44.14259" lon="7.9566036"><ele>1282.3333333333333</ele><time>2026-05-03T09:29:49.127Z</time></trkpt><trkpt lat="44.142664" lon="7.956656"><ele>1282.1666666666665</ele><time>2026-05-03T09:29:50.127Z</time></trkpt><trkpt lat="44.1427333" lon="7.9567057"><ele>1282.0</ele><time>2026-05-03T09:29:51.128Z</time></trkpt><trkpt lat="44.1427904" lon="7.9567563"><ele>1282.0</ele><time>2026-05-03T09:29:52.127Z</time></trkpt><trkpt lat="44.1428416" lon="7.9568315"><ele>1282.0</ele><time>2026-05-03T09:29:53.127Z</time></trkpt><trkpt lat="44.14292" lon="7.9569153"><ele>1282.0</ele><time>2026-05-03T09:29:55.127Z</time></trkpt><trkpt lat="44.1429774" lon="7.9569821"><ele>1282.0</ele><time>2026-05-03T09:29:57.127Z</time></trkpt><trkpt lat="44.1430696" lon="7.9570524"><ele>1282.0</ele><time>2026-05-03T09:29:59.127Z</time></trkpt><trkpt lat="44.1431429" lon="7.9571039"><ele>1282.0</ele><time>2026-05-03T09:30:01.127Z</time></trkpt><trkpt lat="44.1432174" lon="7.9570344"><ele>1282.0</ele><time>2026-05-03T09:30:04.128Z</time></trkpt><trkpt lat="44.1432153" lon="7.9569338"><ele>1282.0</ele><time>2026-05-03T09:30:07.127Z</time></trkpt><trkpt lat="44.1431793" lon="7.9568523"><ele>1282.0</ele><time>2026-05-03T09:30:09.128Z</time></trkpt><trkpt lat="44.1431273" lon="7.9567845"><ele>1282.0</ele><time>2026-05-03T09:30:10.127Z</time></trkpt><trkpt lat="44.1430588" lon="7.9566827"><ele>1282.0</ele><time>2026-05-03T09:30:12.128Z</time></trkpt><trkpt lat="44.1429944" lon="7.956561"><ele>1282.0</ele><time>2026-05-03T09:30:14.127Z</time></trkpt><trkpt lat="44.1429638" lon="7.9564801"><ele>1279.8</ele><time>2026-05-03T09:30:15.127Z</time></trkpt><trkpt lat="44.142923" lon="7.9564039"><ele>1277.6</ele><time>2026-05-03T09:30:16.127Z</time></trkpt><trkpt lat="44.1428846" lon="7.9562214"><ele>1275.3999999999999</ele><time>2026-05-03T09:30:18.127Z</time></trkpt><trkpt lat="44.1429166" lon="7.9561381"><ele>1273.1999999999998</ele><time>2026-05-03T09:30:19.127Z</time></trkpt><trkpt lat="44.1429283" lon="7.9559877"><ele>1271.0</ele><time>2026-05-03T09:30:21.127Z</time></trkpt><trkpt lat="44.1429387" lon="7.9558494"><ele>1268.8</ele><time>2026-05-03T09:30:23.127Z</time></trkpt><trkpt lat="44.1429468" lon="7.9556948"><ele>1266.6</ele><time>2026-05-03T09:30:25.127Z</time></trkpt><trkpt lat="44.1429534" lon="7.9555798"><ele>1264.4</ele><time>2026-05-03T09:30:26.127Z</time></trkpt><trkpt lat="44.1429921" lon="7.9554673"><ele>1262.2</ele><time>2026-05-03T09:30:27.127Z</time></trkpt><trkpt lat="44.1430192" lon="7.955305"><ele>1260.0</ele><time>2026-05-03T09:30:29.128Z</time></trkpt><trkpt lat="44.1430462" lon="7.955206"><ele>1260.0</ele><time>2026-05-03T09:30:30.128Z</time></trkpt><trkpt lat="44.1430644" lon="7.9550917"><ele>1260.0</ele><time>2026-05-03T09:30:31.127Z</time></trkpt><trkpt lat="44.1430892" lon="7.9550014"><ele>1260.0</ele><time>2026-05-03T09:30:32.127Z</time></trkpt><trkpt lat="44.1431179" lon="7.9549208"><ele>1260.0</ele><time>2026-05-03T09:30:33.128Z</time></trkpt><trkpt lat="44.1431229" lon="7.9548116"><ele>1260.0</ele><time>2026-05-03T09:30:34.128Z</time></trkpt><trkpt lat="44.1431367" lon="7.9546501"><ele>1260.0</ele><time>2026-05-03T09:30:36.127Z</time></trkpt><trkpt lat="44.1431382" lon="7.9545284"><ele>1260.142857142857</ele><time>2026-05-03T09:30:37.127Z</time></trkpt><trkpt lat="44.1431354" lon="7.9544099"><ele>1260.2857142857142</ele><time>2026-05-03T09:30:38.127Z</time></trkpt><trkpt lat="44.1431479" lon="7.9543166"><ele>1260.4285714285716</ele><time>2026-05-03T09:30:39.127Z</time></trkpt><trkpt lat="44.1431425" lon="7.954223"><ele>1260.5714285714284</ele><time>2026-05-03T09:30:40.127Z</time></trkpt><trkpt lat="44.1431311" lon="7.9541248"><ele>1260.7142857142858</ele><time>2026-05-03T09:30:41.127Z</time></trkpt><trkpt lat="44.14311" lon="7.9540237"><ele>1260.857142857143</ele><time>2026-05-03T09:30:42.127Z</time></trkpt><trkpt lat="44.1431084" lon="7.9539143"><ele>1261.0</ele><time>2026-05-03T09:30:43.127Z</time></trkpt><trkpt lat="44.1430914" lon="7.9538033"><ele>1261.0</ele><time>2026-05-03T09:30:44.127Z</time></trkpt><trkpt lat="44.1430518" lon="7.9536929"><ele>1261.0</ele><time>2026-05-03T09:30:45.128Z</time></trkpt><trkpt lat="44.1430258" lon="7.9535876"><ele>1261.0</ele><time>2026-05-03T09:30:46.127Z</time></trkpt><trkpt lat="44.1430005" lon="7.9534874"><ele>1261.0</ele><time>2026-05-03T09:30:47.128Z</time></trkpt><trkpt lat="44.1429567" lon="7.9534025"><ele>1261.0</ele><time>2026-05-03T09:30:48.127Z</time></trkpt><trkpt lat="44.1429105" lon="7.9533102"><ele>1261.0</ele><time>2026-05-03T09:30:49.128Z</time></trkpt><trkpt lat="44.142854" lon="7.9532238"><ele>1257.8</ele><time>2026-05-03T09:30:50.127Z</time></trkpt><trkpt lat="44.1427963" lon="7.9531225"><ele>1254.6</ele><time>2026-05-03T09:30:51.128Z</time></trkpt><trkpt lat="44.1427359" lon="7.9530306"><ele>1251.4</ele><time>2026-05-03T09:30:52.127Z</time></trkpt><trkpt lat="44.1426789" lon="7.9529316"><ele>1248.2</ele><time>2026-05-03T09:30:53.127Z</time></trkpt><trkpt lat="44.1426487" lon="7.9528239"><ele>1245.0</ele><time>2026-05-03T09:30:54.127Z</time></trkpt><trkpt lat="44.1426109" lon="7.9526922"><ele>1245.0</ele><time>2026-05-03T09:30:55.127Z</time></trkpt><trkpt lat="44.1425702" lon="7.9525716"><ele>1245.0</ele><time>2026-05-03T09:30:56.127Z</time></trkpt><trkpt lat="44.142529" lon="7.9524573"><ele>1245.0</ele><time>2026-05-03T09:30:57.127Z</time></trkpt><trkpt lat="44.1424902" lon="7.952343"><ele>1245.0</ele><time>2026-05-03T09:30:58.127Z</time></trkpt><trkpt lat="44.142448" lon="7.9522454"><ele>1245.0</ele><time>2026-05-03T09:30:59.127Z</time></trkpt><trkpt lat="44.1424015" lon="7.9521637"><ele>1245.0</ele><time>2026-05-03T09:31:00.128Z</time></trkpt><trkpt lat="44.1423534" lon="7.9520812"><ele>1245.0</ele><time>2026-05-03T09:31:01.127Z</time></trkpt><trkpt lat="44.1423169" lon="7.9519996"><ele>1245.0</ele><time>2026-05-03T09:31:02.127Z</time></trkpt><trkpt lat="44.142312" lon="7.9519121"><ele>1245.0</ele><time>2026-05-03T09:31:03.127Z</time></trkpt><trkpt lat="44.1423195" lon="7.951811"><ele>1245.0</ele><time>2026-05-03T09:31:04.127Z</time></trkpt><trkpt lat="44.1423283" lon="7.9517144"><ele>1245.0</ele><time>2026-05-03T09:31:05.127Z</time></trkpt><trkpt lat="44.1423399" lon="7.9515471"><ele>1245.0</ele><time>2026-05-03T09:31:07.127Z</time></trkpt><trkpt lat="44.1423629" lon="7.9513931"><ele>1238.0</ele><time>2026-05-03T09:31:09.128Z</time></trkpt><trkpt lat="44.1424144" lon="7.9512282"><ele>1231.0</ele><time>2026-05-03T09:31:11.127Z</time></trkpt><trkpt lat="44.1424695" lon="7.9511422"><ele>1224.0</ele><time>2026-05-03T09:31:12.128Z</time></trkpt><trkpt lat="44.1425268" lon="7.9510481"><ele>1217.0</ele><time>2026-05-03T09:31:13.127Z</time></trkpt><trkpt lat="44.1425658" lon="7.9509684"><ele>1210.0</ele><time>2026-05-03T09:31:14.128Z</time></trkpt><trkpt lat="44.14265" lon="7.950813"><ele>1210.0</ele><time>2026-05-03T09:31:16.127Z</time></trkpt><trkpt lat="44.1426929" lon="7.9507121"><ele>1210.0</ele><time>2026-05-03T09:31:17.127Z</time></trkpt><trkpt lat="44.1427226" lon="7.9506169"><ele>1210.0</ele><time>2026-05-03T09:31:18.127Z</time></trkpt><trkpt lat="44.1427502" lon="7.9504647"><ele>1210.0</ele><time>2026-05-03T09:31:20.127Z</time></trkpt><trkpt lat="44.1427448" lon="7.9503551"><ele>1210.0</ele><time>2026-05-03T09:31:22.128Z</time></trkpt><trkpt lat="44.1427182" lon="7.9502594"><ele>1210.0</ele><time>2026-05-03T09:31:24.127Z</time></trkpt><trkpt lat="44.1426877" lon="7.950124"><ele>1209.8</ele><time>2026-05-03T09:31:26.128Z</time></trkpt><trkpt lat="44.1427178" lon="7.9499847"><ele>1209.6</ele><time>2026-05-03T09:31:28.127Z</time></trkpt><trkpt lat="44.1427904" lon="7.9498612"><ele>1209.4</ele><time>2026-05-03T09:31:30.127Z</time></trkpt><trkpt lat="44.1428554" lon="7.9497107"><ele>1209.2</ele><time>2026-05-03T09:31:32.127Z</time></trkpt><trkpt lat="44.1428982" lon="7.9495988"><ele>1209.0</ele><time>2026-05-03T09:31:33.128Z</time></trkpt><trkpt lat="44.142942" lon="7.949491"><ele>1209.0</ele><time>2026-05-03T09:31:34.127Z</time></trkpt><trkpt lat="44.1429823" lon="7.9493921"><ele>1209.0</ele><time>2026-05-03T09:31:35.127Z</time></trkpt><trkpt lat="44.1430209" lon="7.9493009"><ele>1209.0</ele><time>2026-05-03T09:31:36.127Z</time></trkpt><trkpt lat="44.1430557" lon="7.949211"><ele>1209.0</ele><time>2026-05-03T09:31:37.128Z</time></trkpt><trkpt lat="44.1430845" lon="7.9491206"><ele>1209.0</ele><time>2026-05-03T09:31:38.128Z</time></trkpt><trkpt lat="44.1431068" lon="7.9490354"><ele>1209.0</ele><time>2026-05-03T09:31:39.127Z</time></trkpt><trkpt lat="44.1431288" lon="7.9488752"><ele>1209.5</ele><time>2026-05-03T09:31:41.128Z</time></trkpt><trkpt lat="44.1431596" lon="7.9487393"><ele>1210.0</ele><time>2026-05-03T09:31:43.128Z</time></trkpt><trkpt lat="44.1432503" lon="7.948967"><ele>1210.5</ele><time>2026-05-03T09:31:49.127Z</time></trkpt><trkpt lat="44.1432558" lon="7.9490862"><ele>1211.0</ele><time>2026-05-03T09:31:50.127Z</time></trkpt><trkpt lat="44.1432618" lon="7.9491944"><ele>1204.3333333333335</ele><time>2026-05-03T09:31:51.127Z</time></trkpt><trkpt lat="44.1432685" lon="7.9493048"><ele>1197.6666666666667</ele><time>2026-05-03T09:31:52.127Z</time></trkpt><trkpt lat="44.1432683" lon="7.9494006"><ele>1191.0</ele><time>2026-05-03T09:31:53.127Z</time></trkpt><trkpt lat="44.1432624" lon="7.9495064"><ele>1184.3333333333333</ele><time>2026-05-03T09:31:54.128Z</time></trkpt><trkpt lat="44.1432525" lon="7.9496052"><ele>1177.6666666666665</ele><time>2026-05-03T09:31:55.127Z</time></trkpt><trkpt lat="44.1432482" lon="7.9497575"><ele>1171.0</ele><time>2026-05-03T09:31:57.127Z</time></trkpt><trkpt lat="44.143224" lon="7.9498761"><ele>1171.0</ele><time>2026-05-03T09:31:59.127Z</time></trkpt><trkpt lat="44.1432225" lon="7.9499883"><ele>1171.0</ele><time>2026-05-03T09:32:01.128Z</time></trkpt><trkpt lat="44.1432902" lon="7.9501079"><ele>1171.0</ele><time>2026-05-03T09:32:03.128Z</time></trkpt><trkpt lat="44.1433685" lon="7.9502239"><ele>1171.0</ele><time>2026-05-03T09:32:05.127Z</time></trkpt><trkpt lat="44.1433808" lon="7.9503159"><ele>1171.0</ele><time>2026-05-03T09:32:06.127Z</time></trkpt><trkpt lat="44.1433969" lon="7.9504169"><ele>1171.0</ele><time>2026-05-03T09:32:07.127Z</time></trkpt><trkpt lat="44.1434258" lon="7.9505781"><ele>1171.3999999999999</ele><time>2026-05-03T09:32:08.127Z</time></trkpt><trkpt lat="44.1434387" lon="7.9507102"><ele>1171.8</ele><time>2026-05-03T09:32:09.128Z</time></trkpt><trkpt lat="44.1434768" lon="7.9508458"><ele>1172.1999999999998</ele><time>2026-05-03T09:32:10.127Z</time></trkpt><trkpt lat="44.1435045" lon="7.9509642"><ele>1172.6</ele><time>2026-05-03T09:32:11.128Z</time></trkpt><trkpt lat="44.14354" lon="7.9511458"><ele>1173.0</ele><time>2026-05-03T09:32:13.127Z</time></trkpt><trkpt lat="44.1436672" lon="7.9510726"><ele>1173.0</ele><time>2026-05-03T09:32:18.127Z</time></trkpt><trkpt lat="44.143652" lon="7.9509547"><ele>1173.0</ele><time>2026-05-03T09:32:19.127Z</time></trkpt><trkpt lat="44.1436863" lon="7.9508732"><ele>1173.0</ele><time>2026-05-03T09:32:20.128Z</time></trkpt><trkpt lat="44.1437032" lon="7.9506779"><ele>1173.0</ele><time>2026-05-03T09:32:22.127Z</time></trkpt><trkpt lat="44.1437245" lon="7.9505783"><ele>1173.0</ele><time>2026-05-03T09:32:23.127Z</time></trkpt><trkpt lat="44.1437464" lon="7.9504295"><ele>1173.0</ele><time>2026-05-03T09:32:25.128Z</time></trkpt><trkpt lat="44.143785" lon="7.9502881"><ele>1173.0</ele><time>2026-05-03T09:32:27.127Z</time></trkpt><trkpt lat="44.143793" lon="7.9501956"><ele>1173.0</ele><time>2026-05-03T09:32:28.128Z</time></trkpt><trkpt lat="44.1437748" lon="7.9500101"><ele>1173.0</ele><time>2026-05-03T09:32:30.127Z</time></trkpt><trkpt lat="44.1437874" lon="7.9499142"><ele>1173.0</ele><time>2026-05-03T09:32:31.127Z</time></trkpt><trkpt lat="44.1438526" lon="7.94971"><ele>1172.6</ele><time>2026-05-03T09:32:33.128Z</time></trkpt><trkpt lat="44.1439098" lon="7.9495796"><ele>1172.1999999999998</ele><time>2026-05-03T09:32:34.127Z</time></trkpt><trkpt lat="44.143959" lon="7.9494507"><ele>1171.8</ele><time>2026-05-03T09:32:35.127Z</time></trkpt><trkpt lat="44.1440138" lon="7.9493215"><ele>1171.3999999999999</ele><time>2026-05-03T09:32:36.127Z</time></trkpt><trkpt lat="44.1440573" lon="7.9492093"><ele>1171.0</ele><time>2026-05-03T09:32:37.127Z</time></trkpt><trkpt lat="44.1441354" lon="7.949024"><ele>1171.0</ele><time>2026-05-03T09:32:39.127Z</time></trkpt><trkpt lat="44.1441799" lon="7.9489582"><ele>1171.0</ele><time>2026-05-03T09:32:40.127Z</time></trkpt><trkpt lat="44.1442047" lon="7.948877"><ele>1171.0</ele><time>2026-05-03T09:32:41.127Z</time></trkpt><trkpt lat="44.1441986" lon="7.9487283"><ele>1171.0</ele><time>2026-05-03T09:32:43.127Z</time></trkpt><trkpt lat="44.1441349" lon="7.9486239"><ele>1171.0</ele><time>2026-05-03T09:32:45.128Z</time></trkpt><trkpt lat="44.1440549" lon="7.9485513"><ele>1171.0</ele><time>2026-05-03T09:32:47.128Z</time></trkpt><trkpt lat="44.1440024" lon="7.9484044"><ele>1162.25</ele><time>2026-05-03T09:32:49.127Z</time></trkpt><trkpt lat="44.1440863" lon="7.9482672"><ele>1153.5</ele><time>2026-05-03T09:32:51.127Z</time></trkpt><trkpt lat="44.1441649" lon="7.9481296"><ele>1144.75</ele><time>2026-05-03T09:32:53.127Z</time></trkpt><trkpt lat="44.1442391" lon="7.9480233"><ele>1136.0</ele><time>2026-05-03T09:32:55.127Z</time></trkpt><trkpt lat="44.1443428" lon="7.9479452"><ele>1136.0</ele><time>2026-05-03T09:32:57.127Z</time></trkpt><trkpt lat="44.1444228" lon="7.9478948"><ele>1136.0</ele><time>2026-05-03T09:32:58.128Z</time></trkpt><trkpt lat="44.1444812" lon="7.947852"><ele>1136.0</ele><time>2026-05-03T09:32:59.127Z</time></trkpt><trkpt lat="44.1445375" lon="7.9478044"><ele>1136.0</ele><time>2026-05-03T09:33:00.127Z</time></trkpt><trkpt lat="44.1446409" lon="7.9476774"><ele>1136.0</ele><time>2026-05-03T09:33:02.127Z</time></trkpt><trkpt lat="44.1446951" lon="7.9476046"><ele>1136.0</ele><time>2026-05-03T09:33:03.127Z</time></trkpt><trkpt lat="44.1447916" lon="7.9475003"><ele>1132.0</ele><time>2026-05-03T09:33:05.127Z</time></trkpt><trkpt lat="44.1448818" lon="7.9473941"><ele>1128.0</ele><time>2026-05-03T09:33:07.127Z</time></trkpt><trkpt lat="44.1449902" lon="7.9473138"><ele>1124.0</ele><time>2026-05-03T09:33:09.127Z</time></trkpt><trkpt lat="44.1450719" lon="7.9472166"><ele>1120.0</ele><time>2026-05-03T09:33:11.128Z</time></trkpt><trkpt lat="44.1451354" lon="7.9471505"><ele>1116.0</ele><time>2026-05-03T09:33:12.127Z</time></trkpt><trkpt lat="44.1451986" lon="7.9471245"><ele>1116.0</ele><time>2026-05-03T09:33:13.128Z</time></trkpt><trkpt lat="44.1452583" lon="7.9470846"><ele>1116.0</ele><time>2026-05-03T09:33:14.127Z</time></trkpt><trkpt lat="44.145352" lon="7.9470738"><ele>1116.0</ele><time>2026-05-03T09:33:16.127Z</time></trkpt><trkpt lat="44.1454501" lon="7.9470062"><ele>1116.0</ele><time>2026-05-03T09:33:18.127Z</time></trkpt><trkpt lat="44.1455045" lon="7.9469434"><ele>1116.0</ele><time>2026-05-03T09:33:19.127Z</time></trkpt><trkpt lat="44.1455628" lon="7.9468857"><ele>1116.0</ele><time>2026-05-03T09:33:20.127Z</time></trkpt><trkpt lat="44.14564" lon="7.9467631"><ele>1113.1666666666667</ele><time>2026-05-03T09:33:22.127Z</time></trkpt><trkpt lat="44.1456859" lon="7.9466792"><ele>1110.3333333333333</ele><time>2026-05-03T09:33:23.127Z</time></trkpt><trkpt lat="44.1457208" lon="7.946592"><ele>1107.5</ele><time>2026-05-03T09:33:24.128Z</time></trkpt><trkpt lat="44.1457702" lon="7.9465095"><ele>1104.6666666666665</ele><time>2026-05-03T09:33:25.127Z</time></trkpt><trkpt lat="44.1458096" lon="7.9464038"><ele>1101.8333333333333</ele><time>2026-05-03T09:33:26.128Z</time></trkpt><trkpt lat="44.1458347" lon="7.946309"><ele>1099.0</ele><time>2026-05-03T09:33:27.128Z</time></trkpt><trkpt lat="44.1458717" lon="7.9461855"><ele>1099.0</ele><time>2026-05-03T09:33:28.127Z</time></trkpt><trkpt lat="44.145915" lon="7.9460549"><ele>1099.0</ele><time>2026-05-03T09:33:29.128Z</time></trkpt><trkpt lat="44.1459483" lon="7.9459018"><ele>1099.0</ele><time>2026-05-03T09:33:30.127Z</time></trkpt><trkpt lat="44.1459841" lon="7.945781"><ele>1099.0</ele><time>2026-05-03T09:33:31.128Z</time></trkpt><trkpt lat="44.1460211" lon="7.9456609"><ele>1099.0</ele><time>2026-05-03T09:33:32.127Z</time></trkpt><trkpt lat="44.1460593" lon="7.9455419"><ele>1100.8333333333333</ele><time>2026-05-03T09:33:33.127Z</time></trkpt><trkpt lat="44.1461008" lon="7.9454478"><ele>1102.6666666666665</ele><time>2026-05-03T09:33:34.128Z</time></trkpt><trkpt lat="44.1461572" lon="7.9453433"><ele>1104.5</ele><time>2026-05-03T09:33:35.128Z</time></trkpt><trkpt lat="44.1462003" lon="7.9452361"><ele>1106.3333333333333</ele><time>2026-05-03T09:33:36.127Z</time></trkpt><trkpt lat="44.1462399" lon="7.9451513"><ele>1108.1666666666667</ele><time>2026-05-03T09:33:37.127Z</time></trkpt><trkpt lat="44.1462832" lon="7.9450414"><ele>1110.0</ele><time>2026-05-03T09:33:39.128Z</time></trkpt><trkpt lat="44.1463193" lon="7.9449333"><ele>1111.1666666666667</ele><time>2026-05-03T09:33:41.128Z</time></trkpt><trkpt lat="44.1463526" lon="7.944827"><ele>1112.3333333333333</ele><time>2026-05-03T09:33:43.127Z</time></trkpt><trkpt lat="44.1463392" lon="7.9447202"><ele>1113.5</ele><time>2026-05-03T09:33:45.127Z</time></trkpt><trkpt lat="44.1463139" lon="7.944639"><ele>1114.6666666666665</ele><time>2026-05-03T09:33:46.127Z</time></trkpt><trkpt lat="44.1462751" lon="7.944554"><ele>1115.8333333333333</ele><time>2026-05-03T09:33:47.128Z</time></trkpt><trkpt lat="44.1463031" lon="7.9444088"><ele>1117.0</ele><time>2026-05-03T09:33:49.128Z</time></trkpt><trkpt lat="44.1463332" lon="7.9443315"><ele>1116.0</ele><time>2026-05-03T09:33:50.128Z</time></trkpt><trkpt lat="44.1463858" lon="7.9441864"><ele>1115.0</ele><time>2026-05-03T09:33:52.127Z</time></trkpt><trkpt lat="44.1463948" lon="7.9440717"><ele>1114.0</ele><time>2026-05-03T09:33:54.127Z</time></trkpt><trkpt lat="44.1464143" lon="7.9439413"><ele>1113.0</ele><time>2026-05-03T09:33:56.127Z</time></trkpt><trkpt lat="44.1464268" lon="7.943807"><ele>1112.0</ele><time>2026-05-03T09:33:58.127Z</time></trkpt><trkpt lat="44.1464435" lon="7.9436566"><ele>1112.0</ele><time>2026-05-03T09:34:00.127Z</time></trkpt><trkpt lat="44.1465103" lon="7.9435871"><ele>1112.0</ele><time>2026-05-03T09:34:02.127Z</time></trkpt><trkpt lat="44.1465492" lon="7.9436649"><ele>1112.0</ele><time>2026-05-03T09:34:04.127Z</time></trkpt><trkpt lat="44.1465872" lon="7.9437447"><ele>1112.0</ele><time>2026-05-03T09:34:05.128Z</time></trkpt><trkpt lat="44.1466397" lon="7.9438502"><ele>1112.0</ele><time>2026-05-03T09:34:06.127Z</time></trkpt><trkpt lat="44.1466811" lon="7.9439547"><ele>1112.0</ele><time>2026-05-03T09:34:07.127Z</time></trkpt><trkpt lat="44.1467207" lon="7.9440551"><ele>1106.8333333333335</ele><time>2026-05-03T09:34:08.128Z</time></trkpt><trkpt lat="44.1467595" lon="7.9441502"><ele>1101.6666666666667</ele><time>2026-05-03T09:34:09.127Z</time></trkpt><trkpt lat="44.1467968" lon="7.9442378"><ele>1096.5</ele><time>2026-05-03T09:34:10.128Z</time></trkpt><trkpt lat="44.1468314" lon="7.9443336"><ele>1091.3333333333333</ele><time>2026-05-03T09:34:11.128Z</time></trkpt><trkpt lat="44.1468688" lon="7.9444292"><ele>1086.1666666666665</ele><time>2026-05-03T09:34:12.127Z</time></trkpt><trkpt lat="44.1469108" lon="7.9445206"><ele>1081.0</ele><time>2026-05-03T09:34:13.127Z</time></trkpt><trkpt lat="44.1469642" lon="7.9445867"><ele>1081.0</ele><time>2026-05-03T09:34:14.127Z</time></trkpt><trkpt lat="44.1470218" lon="7.9446576"><ele>1081.0</ele><time>2026-05-03T09:34:15.127Z</time></trkpt><trkpt lat="44.1470926" lon="7.9447036"><ele>1081.0</ele><time>2026-05-03T09:34:16.127Z</time></trkpt><trkpt lat="44.147151" lon="7.9447505"><ele>1081.0</ele><time>2026-05-03T09:34:17.127Z</time></trkpt><trkpt lat="44.1472479" lon="7.9448483"><ele>1081.0</ele><time>2026-05-03T09:34:19.127Z</time></trkpt><trkpt lat="44.1473043" lon="7.9448951"><ele>1081.0</ele><time>2026-05-03T09:34:20.127Z</time></trkpt><trkpt lat="44.1473835" lon="7.94494"><ele>1076.5</ele><time>2026-05-03T09:34:22.127Z</time></trkpt><trkpt lat="44.1474468" lon="7.9449604"><ele>1072.0</ele><time>2026-05-03T09:34:24.128Z</time></trkpt><trkpt lat="44.147503" lon="7.9449073"><ele>1067.5</ele><time>2026-05-03T09:34:42.127Z</time></trkpt><trkpt lat="44.1475363" lon="7.9448273"><ele>1063.0</ele><time>2026-05-03T09:34:44.127Z</time></trkpt><trkpt lat="44.1475666" lon="7.9447178"><ele>1058.5</ele><time>2026-05-03T09:34:46.127Z</time></trkpt><trkpt lat="44.1475436" lon="7.9445793"><ele>1054.0</ele><time>2026-05-03T09:34:48.127Z</time></trkpt><trkpt lat="44.1474919" lon="7.9445173"><ele>1054.0</ele><time>2026-05-03T09:34:49.127Z</time></trkpt><trkpt lat="44.1474468" lon="7.944422"><ele>1054.0</ele><time>2026-05-03T09:34:51.127Z</time></trkpt><trkpt lat="44.1474127" lon="7.9442766"><ele>1054.0</ele><time>2026-05-03T09:34:53.128Z</time></trkpt><trkpt lat="44.1474137" lon="7.9440997"><ele>1054.0</ele><time>2026-05-03T09:34:55.128Z</time></trkpt><trkpt lat="44.1473905" lon="7.9439818"><ele>1054.0</ele><time>2026-05-03T09:34:56.127Z</time></trkpt><trkpt lat="44.147357" lon="7.9438775"><ele>1057.2</ele><time>2026-05-03T09:34:57.127Z</time></trkpt><trkpt lat="44.1473365" lon="7.9437711"><ele>1060.4</ele><time>2026-05-03T09:34:58.128Z</time></trkpt><trkpt lat="44.1473121" lon="7.943642"><ele>1063.6</ele><time>2026-05-03T09:34:59.127Z</time></trkpt><trkpt lat="44.1473022" lon="7.9435475"><ele>1066.8</ele><time>2026-05-03T09:35:00.127Z</time></trkpt><trkpt lat="44.1472515" lon="7.9434057"><ele>1070.0</ele><time>2026-05-03T09:35:02.127Z</time></trkpt><trkpt lat="44.1471993" lon="7.9432832"><ele>1070.0</ele><time>2026-05-03T09:35:04.127Z</time></trkpt><trkpt lat="44.1471835" lon="7.9431963"><ele>1070.0</ele><time>2026-05-03T09:35:06.127Z</time></trkpt><trkpt lat="44.1472011" lon="7.9430815"><ele>1070.0</ele><time>2026-05-03T09:35:08.127Z</time></trkpt><trkpt lat="44.1471995" lon="7.9429433"><ele>1070.0</ele><time>2026-05-03T09:35:10.127Z</time></trkpt><trkpt lat="44.1472286" lon="7.9428297"><ele>1070.0</ele><time>2026-05-03T09:35:12.128Z</time></trkpt><trkpt lat="44.1472732" lon="7.9427048"><ele>1070.0</ele><time>2026-05-03T09:35:14.127Z</time></trkpt><trkpt lat="44.1473796" lon="7.9426575"><ele>1064.3333333333335</ele><time>2026-05-03T09:35:16.127Z</time></trkpt><trkpt lat="44.1474508" lon="7.9425485"><ele>1058.6666666666667</ele><time>2026-05-03T09:35:18.128Z</time></trkpt><trkpt lat="44.1474998" lon="7.9424482"><ele>1053.0</ele><time>2026-05-03T09:35:20.128Z</time></trkpt><trkpt lat="44.1475218" lon="7.9423551"><ele>1047.3333333333333</ele><time>2026-05-03T09:35:21.127Z</time></trkpt><trkpt lat="44.1475669" lon="7.942252"><ele>1041.6666666666665</ele><time>2026-05-03T09:35:22.127Z</time></trkpt><trkpt lat="44.1476064" lon="7.942169"><ele>1036.0</ele><time>2026-05-03T09:35:23.127Z</time></trkpt><trkpt lat="44.1476422" lon="7.9420904"><ele>1036.0</ele><time>2026-05-03T09:35:24.127Z</time></trkpt><trkpt lat="44.1477082" lon="7.9419154"><ele>1036.0</ele><time>2026-05-03T09:35:26.127Z</time></trkpt><trkpt lat="44.1477364" lon="7.9418194"><ele>1036.0</ele><time>2026-05-03T09:35:27.127Z</time></trkpt><trkpt lat="44.1477621" lon="7.9417115"><ele>1036.0</ele><time>2026-05-03T09:35:28.127Z</time></trkpt><trkpt lat="44.1477999" lon="7.9416196"><ele>1036.0</ele><time>2026-05-03T09:35:29.128Z</time></trkpt><trkpt lat="44.1478373" lon="7.941522"><ele>1037.1666666666665</ele><time>2026-05-03T09:35:30.127Z</time></trkpt><trkpt lat="44.1478701" lon="7.9414293"><ele>1038.3333333333333</ele><time>2026-05-03T09:35:31.128Z</time></trkpt><trkpt lat="44.1479018" lon="7.9413499"><ele>1039.5</ele><time>2026-05-03T09:35:32.128Z</time></trkpt><trkpt lat="44.1479846" lon="7.9412211"><ele>1040.6666666666667</ele><time>2026-05-03T09:35:34.127Z</time></trkpt><trkpt lat="44.1480279" lon="7.941115"><ele>1041.8333333333335</ele><time>2026-05-03T09:35:36.127Z</time></trkpt><trkpt lat="44.1480681" lon="7.9410232"><ele>1043.0</ele><time>2026-05-03T09:35:38.127Z</time></trkpt><trkpt lat="44.1480928" lon="7.9408906"><ele>1044.4</ele><time>2026-05-03T09:35:40.127Z</time></trkpt><trkpt lat="44.1481039" lon="7.9407336"><ele>1045.8</ele><time>2026-05-03T09:35:42.127Z</time></trkpt><trkpt lat="44.1481781" lon="7.9405856"><ele>1047.2</ele><time>2026-05-03T09:35:44.127Z</time></trkpt><trkpt lat="44.1482336" lon="7.9405102"><ele>1048.6</ele><time>2026-05-03T09:35:45.127Z</time></trkpt><trkpt lat="44.148279" lon="7.9404382"><ele>1050.0</ele><time>2026-05-03T09:35:46.127Z</time></trkpt><trkpt lat="44.1483587" lon="7.9403146"><ele>1044.0</ele><time>2026-05-03T09:35:48.127Z</time></trkpt><trkpt lat="44.1484327" lon="7.9401839"><ele>1038.0</ele><time>2026-05-03T09:35:50.127Z</time></trkpt><trkpt lat="44.1485064" lon="7.9400647"><ele>1032.0</ele><time>2026-05-03T09:35:52.128Z</time></trkpt><trkpt lat="44.148582" lon="7.9399885"><ele>1026.0</ele><time>2026-05-03T09:35:54.127Z</time></trkpt><trkpt lat="44.1487017" lon="7.9399036"><ele>1026.0</ele><time>2026-05-03T09:35:56.127Z</time></trkpt><trkpt lat="44.1487705" lon="7.9398346"><ele>1026.0</ele><time>2026-05-03T09:35:57.128Z</time></trkpt><trkpt lat="44.1488229" lon="7.9397634"><ele>1026.0</ele><time>2026-05-03T09:35:58.128Z</time></trkpt><trkpt lat="44.1489167" lon="7.9396754"><ele>1026.0</ele><time>2026-05-03T09:36:00.128Z</time></trkpt><trkpt lat="44.149038" lon="7.9396314"><ele>1026.0</ele><time>2026-05-03T09:36:02.129Z</time></trkpt><trkpt lat="44.1491663" lon="7.9395857"><ele>1019.0</ele><time>2026-05-03T09:36:04.129Z</time></trkpt><trkpt lat="44.14923" lon="7.9395749"><ele>1011.9999999999999</ele><time>2026-05-03T09:36:05.128Z</time></trkpt><trkpt lat="44.1493339" lon="7.9395333"><ele>1004.9999999999999</ele><time>2026-05-03T09:36:07.128Z</time></trkpt><trkpt lat="44.1494279" lon="7.9394672"><ele>998.0</ele><time>2026-05-03T09:36:09.129Z</time></trkpt><trkpt lat="44.1494837" lon="7.9393642"><ele>991.0</ele><time>2026-05-03T09:36:11.128Z</time></trkpt><trkpt lat="44.1495571" lon="7.939256"><ele>994.8</ele><time>2026-05-03T09:36:13.128Z</time></trkpt><trkpt lat="44.1496176" lon="7.9391029"><ele>998.5999999999999</ele><time>2026-05-03T09:36:15.128Z</time></trkpt><trkpt lat="44.1496664" lon="7.9389503"><ele>1002.4</ele><time>2026-05-03T09:36:17.129Z</time></trkpt><trkpt lat="44.1496976" lon="7.9388643"><ele>1006.2</ele><time>2026-05-03T09:36:18.128Z</time></trkpt><trkpt lat="44.1497271" lon="7.9387277"><ele>1010.0</ele><time>2026-05-03T09:36:20.128Z</time></trkpt><trkpt lat="44.1497277" lon="7.9385909"><ele>1010.0</ele><time>2026-05-03T09:36:22.128Z</time></trkpt><trkpt lat="44.1496808" lon="7.938452"><ele>1010.0</ele><time>2026-05-03T09:36:24.128Z</time></trkpt><trkpt lat="44.1496255" lon="7.9383564"><ele>1010.0</ele><time>2026-05-03T09:36:25.128Z</time></trkpt><trkpt lat="44.1495767" lon="7.9382169"><ele>1010.0</ele><time>2026-05-03T09:36:26.129Z</time></trkpt><trkpt lat="44.1495443" lon="7.9381018"><ele>1010.0</ele><time>2026-05-03T09:36:27.128Z</time></trkpt><trkpt lat="44.1494961" lon="7.9379791"><ele>1010.5000000000001</ele><time>2026-05-03T09:36:28.128Z</time></trkpt><trkpt lat="44.149451" lon="7.9378542"><ele>1011.0</ele><time>2026-05-03T09:36:29.129Z</time></trkpt><trkpt lat="44.1494112" lon="7.9377296"><ele>1011.5</ele><time>2026-05-03T09:36:30.128Z</time></trkpt><trkpt lat="44.1493651" lon="7.937618"><ele>1012.0</ele><time>2026-05-03T09:36:31.128Z</time></trkpt><trkpt lat="44.1493458" lon="7.9375148"><ele>1012.5000000000001</ele><time>2026-05-03T09:36:32.129Z</time></trkpt><trkpt lat="44.149324" lon="7.9374068"><ele>1013.0</ele><time>2026-05-03T09:36:33.129Z</time></trkpt><trkpt lat="44.1492958" lon="7.9373101"><ele>1009.0</ele><time>2026-05-03T09:36:34.128Z</time></trkpt><trkpt lat="44.1492793" lon="7.9372136"><ele>1005.0</ele><time>2026-05-03T09:36:35.129Z</time></trkpt><trkpt lat="44.1492678" lon="7.9371102"><ele>1001.0</ele><time>2026-05-03T09:36:36.129Z</time></trkpt><trkpt lat="44.1492322" lon="7.9369473"><ele>997.0</ele><time>2026-05-03T09:36:38.129Z</time></trkpt><trkpt lat="44.1491928" lon="7.9368548"><ele>993.0</ele><time>2026-05-03T09:36:39.128Z</time></trkpt><trkpt lat="44.1491238" lon="7.936704"><ele>995.2</ele><time>2026-05-03T09:36:41.129Z</time></trkpt><trkpt lat="44.1490658" lon="7.9366322"><ele>997.4</ele><time>2026-05-03T09:36:42.128Z</time></trkpt><trkpt lat="44.1489933" lon="7.9365415"><ele>999.6000000000001</ele><time>2026-05-03T09:36:43.128Z</time></trkpt><trkpt lat="44.1489205" lon="7.9364453"><ele>1001.8000000000001</ele><time>2026-05-03T09:36:44.128Z</time></trkpt><trkpt lat="44.1488558" lon="7.9363725"><ele>1004.0</ele><time>2026-05-03T09:36:45.128Z</time></trkpt><trkpt lat="44.148787" lon="7.9362694"><ele>1004.0000000000001</ele><time>2026-05-03T09:36:46.129Z</time></trkpt><trkpt lat="44.1487126" lon="7.9361769"><ele>1004.0</ele><time>2026-05-03T09:36:47.128Z</time></trkpt><trkpt lat="44.1486418" lon="7.9361051"><ele>1004.0</ele><time>2026-05-03T09:36:48.128Z</time></trkpt><trkpt lat="44.1485907" lon="7.9360392"><ele>1004.0</ele><time>2026-05-03T09:36:49.128Z</time></trkpt><trkpt lat="44.1485289" lon="7.9359858"><ele>1004.0000000000001</ele><time>2026-05-03T09:36:50.128Z</time></trkpt><trkpt lat="44.1484672" lon="7.9359168"><ele>1004.0</ele><time>2026-05-03T09:36:51.128Z</time></trkpt><trkpt lat="44.1483912" lon="7.9357976"><ele>1003.6</ele><time>2026-05-03T09:36:52.129Z</time></trkpt><trkpt lat="44.1483324" lon="7.9356905"><ele>1003.2</ele><time>2026-05-03T09:36:53.128Z</time></trkpt><trkpt lat="44.148284" lon="7.9355908"><ele>1002.8000000000001</ele><time>2026-05-03T09:36:54.128Z</time></trkpt><trkpt lat="44.1482205" lon="7.9354512"><ele>1002.4000000000001</ele><time>2026-05-03T09:36:55.128Z</time></trkpt><trkpt lat="44.1481687" lon="7.9353726"><ele>1002.0</ele><time>2026-05-03T09:36:56.129Z</time></trkpt><trkpt lat="44.1481091" lon="7.9352889"><ele>1002.0</ele><time>2026-05-03T09:36:57.128Z</time></trkpt><trkpt lat="44.1480453" lon="7.9352319"><ele>1002.0</ele><time>2026-05-03T09:36:58.128Z</time></trkpt><trkpt lat="44.14799" lon="7.9351612"><ele>1002.0</ele><time>2026-05-03T09:36:59.129Z</time></trkpt><trkpt lat="44.1479035" lon="7.9350716"><ele>1002.0</ele><time>2026-05-03T09:37:01.128Z</time></trkpt><trkpt lat="44.1478576" lon="7.9349614"><ele>1002.0</ele><time>2026-05-03T09:37:03.128Z</time></trkpt><trkpt lat="44.1478628" lon="7.9348524"><ele>1002.0</ele><time>2026-05-03T09:37:05.128Z</time></trkpt><trkpt lat="44.1479132" lon="7.934785"><ele>999.8571428571429</ele><time>2026-05-03T09:37:07.129Z</time></trkpt><trkpt lat="44.1479734" lon="7.9347142"><ele>997.7142857142857</ele><time>2026-05-03T09:37:09.128Z</time></trkpt><trkpt lat="44.1480067" lon="7.9346103"><ele>995.5714285714286</ele><time>2026-05-03T09:37:11.128Z</time></trkpt><trkpt lat="44.1480135" lon="7.9345136"><ele>993.4285714285714</ele><time>2026-05-03T09:37:12.128Z</time></trkpt><trkpt lat="44.1480319" lon="7.9344273"><ele>991.2857142857142</ele><time>2026-05-03T09:37:13.129Z</time></trkpt><trkpt lat="44.14807" lon="7.9343462"><ele>989.1428571428571</ele><time>2026-05-03T09:37:14.129Z</time></trkpt><trkpt lat="44.1481318" lon="7.9342831"><ele>987.0</ele><time>2026-05-03T09:37:15.128Z</time></trkpt><trkpt lat="44.1482283" lon="7.9341609"><ele>976.2</ele><time>2026-05-03T09:37:17.128Z</time></trkpt><trkpt lat="44.148278" lon="7.9340914"><ele>965.4000000000001</ele><time>2026-05-03T09:37:18.128Z</time></trkpt><trkpt lat="44.1483023" lon="7.9339393"><ele>954.5999999999999</ele><time>2026-05-03T09:37:20.128Z</time></trkpt><trkpt lat="44.1482897" lon="7.9337819"><ele>943.8</ele><time>2026-05-03T09:37:22.128Z</time></trkpt><trkpt lat="44.1482615" lon="7.933645"><ele>933.0</ele><time>2026-05-03T09:37:24.128Z</time></trkpt><trkpt lat="44.1482462" lon="7.9334965"><ele>934.5999999999999</ele><time>2026-05-03T09:37:26.128Z</time></trkpt><trkpt lat="44.1482986" lon="7.9333228"><ele>936.1999999999999</ele><time>2026-05-03T09:37:28.128Z</time></trkpt><trkpt lat="44.148307" lon="7.9332127"><ele>937.8</ele><time>2026-05-03T09:37:29.128Z</time></trkpt><trkpt lat="44.1483339" lon="7.9330831"><ele>939.4</ele><time>2026-05-03T09:37:30.128Z</time></trkpt><trkpt lat="44.1483855" lon="7.932923"><ele>941.0</ele><time>2026-05-03T09:37:31.128Z</time></trkpt><trkpt lat="44.1484161" lon="7.9327725"><ele>941.0</ele><time>2026-05-03T09:37:32.128Z</time></trkpt><trkpt lat="44.1484536" lon="7.9326057"><ele>940.9999999999999</ele><time>2026-05-03T09:37:33.128Z</time></trkpt><trkpt lat="44.1484919" lon="7.9324714"><ele>940.9999999999999</ele><time>2026-05-03T09:37:34.128Z</time></trkpt><trkpt lat="44.1485204" lon="7.9323512"><ele>941.0</ele><time>2026-05-03T09:37:35.128Z</time></trkpt><trkpt lat="44.1485473" lon="7.9322298"><ele>941.0</ele><time>2026-05-03T09:37:36.128Z</time></trkpt><trkpt lat="44.1485816" lon="7.9321097"><ele>942.4</ele><time>2026-05-03T09:37:37.129Z</time></trkpt><trkpt lat="44.1486221" lon="7.9319753"><ele>943.8</ele><time>2026-05-03T09:37:38.128Z</time></trkpt><trkpt lat="44.1486442" lon="7.9318439"><ele>945.1999999999999</ele><time>2026-05-03T09:37:39.128Z</time></trkpt><trkpt lat="44.1486643" lon="7.9317422"><ele>946.5999999999999</ele><time>2026-05-03T09:37:40.128Z</time></trkpt><trkpt lat="44.1486644" lon="7.9316028"><ele>948.0</ele><time>2026-05-03T09:37:41.128Z</time></trkpt><trkpt lat="44.1486655" lon="7.9314902"><ele>948.4</ele><time>2026-05-03T09:37:42.129Z</time></trkpt><trkpt lat="44.1486593" lon="7.9313846"><ele>948.8</ele><time>2026-05-03T09:37:43.128Z</time></trkpt><trkpt lat="44.1486835" lon="7.9312813"><ele>949.2</ele><time>2026-05-03T09:37:44.128Z</time></trkpt><trkpt lat="44.1486664" lon="7.9311363"><ele>949.6</ele><time>2026-05-03T09:37:45.128Z</time></trkpt><trkpt lat="44.1486815" lon="7.9309927"><ele>950.0</ele><time>2026-05-03T09:37:46.129Z</time></trkpt><trkpt lat="44.1486847" lon="7.93087"><ele>950.0</ele><time>2026-05-03T09:37:47.128Z</time></trkpt><trkpt lat="44.1486948" lon="7.9307411"><ele>950.0</ele><time>2026-05-03T09:37:48.128Z</time></trkpt><trkpt lat="44.1487239" lon="7.9306039"><ele>950.0</ele><time>2026-05-03T09:37:49.128Z</time></trkpt><trkpt lat="44.1487242" lon="7.9304644"><ele>950.0</ele><time>2026-05-03T09:37:50.128Z</time></trkpt><trkpt lat="44.1487231" lon="7.9303231"><ele>950.0</ele><time>2026-05-03T09:37:51.128Z</time></trkpt><trkpt lat="44.1487027" lon="7.9301681"><ele>949.4</ele><time>2026-05-03T09:37:52.128Z</time></trkpt><trkpt lat="44.1486806" lon="7.9300402"><ele>948.8</ele><time>2026-05-03T09:37:53.128Z</time></trkpt><trkpt lat="44.1486376" lon="7.9299024"><ele>948.2</ele><time>2026-05-03T09:37:54.129Z</time></trkpt><trkpt lat="44.1485922" lon="7.9297891"><ele>947.6</ele><time>2026-05-03T09:37:55.128Z</time></trkpt><trkpt lat="44.1485279" lon="7.9296628"><ele>947.0</ele><time>2026-05-03T09:37:56.128Z</time></trkpt><trkpt lat="44.1484645" lon="7.929548"><ele>947.0</ele><time>2026-05-03T09:37:57.128Z</time></trkpt><trkpt lat="44.1484073" lon="7.9294299"><ele>947.0</ele><time>2026-05-03T09:37:58.128Z</time></trkpt><trkpt lat="44.1483616" lon="7.9293088"><ele>947.0</ele><time>2026-05-03T09:37:59.129Z</time></trkpt><trkpt lat="44.1482966" lon="7.929218"><ele>947.0</ele><time>2026-05-03T09:38:00.128Z</time></trkpt><trkpt lat="44.1482239" lon="7.9291344"><ele>947.0</ele><time>2026-05-03T09:38:01.128Z</time></trkpt><trkpt lat="44.1481504" lon="7.9290655"><ele>949.8</ele><time>2026-05-03T09:38:02.128Z</time></trkpt><trkpt lat="44.1480724" lon="7.9290476"><ele>952.6</ele><time>2026-05-03T09:38:03.129Z</time></trkpt><trkpt lat="44.1479861" lon="7.929003"><ele>955.3999999999999</ele><time>2026-05-03T09:38:04.128Z</time></trkpt><trkpt lat="44.1478962" lon="7.9289648"><ele>958.1999999999999</ele><time>2026-05-03T09:38:05.128Z</time></trkpt><trkpt lat="44.1478025" lon="7.9288893"><ele>961.0</ele><time>2026-05-03T09:38:06.129Z</time></trkpt><trkpt lat="44.1477021" lon="7.9288038"><ele>961.0</ele><time>2026-05-03T09:38:07.129Z</time></trkpt><trkpt lat="44.1475793" lon="7.9287155"><ele>961.0</ele><time>2026-05-03T09:38:08.129Z</time></trkpt><trkpt lat="44.1474673" lon="7.9286039"><ele>961.0</ele><time>2026-05-03T09:38:09.128Z</time></trkpt><trkpt lat="44.147368" lon="7.9285198"><ele>961.0</ele><time>2026-05-03T09:38:10.129Z</time></trkpt><trkpt lat="44.1472553" lon="7.9284285"><ele>960.25</ele><time>2026-05-03T09:38:11.129Z</time></trkpt><trkpt lat="44.1472039" lon="7.9282982"><ele>959.5</ele><time>2026-05-03T09:38:12.128Z</time></trkpt><trkpt lat="44.1471221" lon="7.9281846"><ele>958.75</ele><time>2026-05-03T09:38:13.128Z</time></trkpt><trkpt lat="44.1470402" lon="7.9280575"><ele>958.0</ele><time>2026-05-03T09:38:14.128Z</time></trkpt><trkpt lat="44.1469272" lon="7.9279444"><ele>958.0</ele><time>2026-05-03T09:38:15.13Z</time></trkpt><trkpt lat="44.1468204" lon="7.9278179"><ele>958.0</ele><time>2026-05-03T09:38:16.128Z</time></trkpt><trkpt lat="44.1467291" lon="7.9277224"><ele>958.0</ele><time>2026-05-03T09:38:17.128Z</time></trkpt><trkpt lat="44.1466566" lon="7.9276255"><ele>958.0</ele><time>2026-05-03T09:38:18.128Z</time></trkpt><trkpt lat="44.1465968" lon="7.9275227"><ele>955.4</ele><time>2026-05-03T09:38:19.128Z</time></trkpt><trkpt lat="44.1465223" lon="7.9274459"><ele>952.8</ele><time>2026-05-03T09:38:20.128Z</time></trkpt><trkpt lat="44.1464409" lon="7.92734"><ele>950.2</ele><time>2026-05-03T09:38:21.128Z</time></trkpt><trkpt lat="44.1463578" lon="7.9272779"><ele>947.6</ele><time>2026-05-03T09:38:22.129Z</time></trkpt><trkpt lat="44.1462835" lon="7.9272305"><ele>945.0</ele><time>2026-05-03T09:38:23.128Z</time></trkpt><trkpt lat="44.1462181" lon="7.9271891"><ele>945.0</ele><time>2026-05-03T09:38:24.128Z</time></trkpt><trkpt lat="44.1461296" lon="7.9271393"><ele>945.0</ele><time>2026-05-03T09:38:25.128Z</time></trkpt><trkpt lat="44.1460494" lon="7.9271327"><ele>945.0</ele><time>2026-05-03T09:38:26.128Z</time></trkpt><trkpt lat="44.1459704" lon="7.9271131"><ele>945.0</ele><time>2026-05-03T09:38:27.128Z</time></trkpt><trkpt lat="44.1458933" lon="7.9271127"><ele>945.0</ele><time>2026-05-03T09:38:28.128Z</time></trkpt><trkpt lat="44.1458293" lon="7.9270796"><ele>945.0</ele><time>2026-05-03T09:38:29.128Z</time></trkpt><trkpt lat="44.1457768" lon="7.927006"><ele>945.0</ele><time>2026-05-03T09:38:30.129Z</time></trkpt><trkpt lat="44.1457234" lon="7.9269418"><ele>945.0</ele><time>2026-05-03T09:38:31.129Z</time></trkpt><trkpt lat="44.1456235" lon="7.9268199"><ele>945.0</ele><time>2026-05-03T09:38:33.128Z</time></trkpt><trkpt lat="44.1454984" lon="7.9268117"><ele>945.0</ele><time>2026-05-03T09:38:35.128Z</time></trkpt><trkpt lat="44.1454295" lon="7.9267826"><ele>945.0</ele><time>2026-05-03T09:38:36.129Z</time></trkpt><trkpt lat="44.1453484" lon="7.9267418"><ele>941.6</ele><time>2026-05-03T09:38:37.128Z</time></trkpt><trkpt lat="44.1452507" lon="7.9266696"><ele>938.2</ele><time>2026-05-03T09:38:38.128Z</time></trkpt><trkpt lat="44.1451191" lon="7.9265944"><ele>934.8</ele><time>2026-05-03T09:38:40.128Z</time></trkpt><trkpt lat="44.1450918" lon="7.9264986"><ele>931.4</ele><time>2026-05-03T09:38:41.128Z</time></trkpt><trkpt lat="44.14505" lon="7.9264043"><ele>928.0</ele><time>2026-05-03T09:38:42.129Z</time></trkpt><trkpt lat="44.1450601" lon="7.9263146"><ele>928.0</ele><time>2026-05-03T09:38:43.128Z</time></trkpt><trkpt lat="44.1451113" lon="7.9261583"><ele>928.0</ele><time>2026-05-03T09:38:45.128Z</time></trkpt><trkpt lat="44.1451474" lon="7.9260671"><ele>928.0</ele><time>2026-05-03T09:38:46.128Z</time></trkpt><trkpt lat="44.1452167" lon="7.9259591"><ele>928.0</ele><time>2026-05-03T09:38:47.128Z</time></trkpt><trkpt lat="44.1452797" lon="7.9258642"><ele>928.0</ele><time>2026-05-03T09:38:48.128Z</time></trkpt><trkpt lat="44.1453245" lon="7.9257703"><ele>927.0</ele><time>2026-05-03T09:38:49.128Z</time></trkpt><trkpt lat="44.1453991" lon="7.9257058"><ele>926.0</ele><time>2026-05-03T09:38:50.128Z</time></trkpt><trkpt lat="44.1454438" lon="7.9255982"><ele>925.0</ele><time>2026-05-03T09:38:51.129Z</time></trkpt><trkpt lat="44.1454911" lon="7.9254859"><ele>924.0</ele><time>2026-05-03T09:38:52.128Z</time></trkpt><trkpt lat="44.1455491" lon="7.9253647"><ele>923.0</ele><time>2026-05-03T09:38:53.128Z</time></trkpt><trkpt lat="44.1456159" lon="7.9252422"><ele>923.0000000000001</ele><time>2026-05-03T09:38:54.128Z</time></trkpt><trkpt lat="44.1456501" lon="7.925135"><ele>923.0</ele><time>2026-05-03T09:38:55.128Z</time></trkpt><trkpt lat="44.1456889" lon="7.9250401"><ele>923.0</ele><time>2026-05-03T09:38:56.128Z</time></trkpt><trkpt lat="44.1457251" lon="7.9249402"><ele>923.0</ele><time>2026-05-03T09:38:57.129Z</time></trkpt><trkpt lat="44.145731" lon="7.9248392"><ele>923.0000000000001</ele><time>2026-05-03T09:38:58.128Z</time></trkpt><trkpt lat="44.1457718" lon="7.9247383"><ele>923.0</ele><time>2026-05-03T09:38:59.128Z</time></trkpt><trkpt lat="44.1457603" lon="7.9246273"><ele>921.0000000000001</ele><time>2026-05-03T09:39:00.128Z</time></trkpt><trkpt lat="44.1457728" lon="7.9245194"><ele>919.0</ele><time>2026-05-03T09:39:01.128Z</time></trkpt><trkpt lat="44.145828" lon="7.9244277"><ele>917.0</ele><time>2026-05-03T09:39:02.128Z</time></trkpt><trkpt lat="44.1458568" lon="7.9243317"><ele>915.0</ele><time>2026-05-03T09:39:03.128Z</time></trkpt><trkpt lat="44.1458913" lon="7.9242564"><ele>913.0000000000001</ele><time>2026-05-03T09:39:04.128Z</time></trkpt><trkpt lat="44.1459154" lon="7.924166"><ele>911.0</ele><time>2026-05-03T09:39:05.128Z</time></trkpt><trkpt lat="44.1459508" lon="7.9240632"><ele>911.0000000000001</ele><time>2026-05-03T09:39:06.129Z</time></trkpt><trkpt lat="44.1460125" lon="7.9239792"><ele>911.0</ele><time>2026-05-03T09:39:07.128Z</time></trkpt><trkpt lat="44.1460719" lon="7.9238985"><ele>911.0</ele><time>2026-05-03T09:39:08.128Z</time></trkpt><trkpt lat="44.1461363" lon="7.9237875"><ele>911.0</ele><time>2026-05-03T09:39:10.128Z</time></trkpt><trkpt lat="44.1462173" lon="7.9237356"><ele>911.0000000000001</ele><time>2026-05-03T09:39:12.128Z</time></trkpt><trkpt lat="44.1462652" lon="7.923676"><ele>911.0</ele><time>2026-05-03T09:39:13.128Z</time></trkpt><trkpt lat="44.1463288" lon="7.9235488"><ele>915.25</ele><time>2026-05-03T09:39:15.129Z</time></trkpt><trkpt lat="44.1463479" lon="7.9233443"><ele>919.5</ele><time>2026-05-03T09:39:17.128Z</time></trkpt><trkpt lat="44.1463752" lon="7.923208"><ele>923.75</ele><time>2026-05-03T09:39:18.129Z</time></trkpt><trkpt lat="44.1463979" lon="7.9230621"><ele>928.0</ele><time>2026-05-03T09:39:19.128Z</time></trkpt><trkpt lat="44.1464103" lon="7.922929"><ele>927.9999999999999</ele><time>2026-05-03T09:39:20.128Z</time></trkpt><trkpt lat="44.1464118" lon="7.9228187"><ele>928.0</ele><time>2026-05-03T09:39:21.128Z</time></trkpt><trkpt lat="44.1464064" lon="7.922714"><ele>928.0</ele><time>2026-05-03T09:39:22.128Z</time></trkpt><trkpt lat="44.1464378" lon="7.9226199"><ele>928.0</ele><time>2026-05-03T09:39:23.128Z</time></trkpt><trkpt lat="44.1464859" lon="7.9225546"><ele>927.9999999999999</ele><time>2026-05-03T09:39:24.128Z</time></trkpt><trkpt lat="44.1465752" lon="7.9224758"><ele>928.0</ele><time>2026-05-03T09:39:26.129Z</time></trkpt><trkpt lat="44.1466514" lon="7.9224309"><ele>924.1666666666666</ele><time>2026-05-03T09:39:27.129Z</time></trkpt><trkpt lat="44.146719" lon="7.9223848"><ele>920.3333333333333</ele><time>2026-05-03T09:39:28.128Z</time></trkpt><trkpt lat="44.1467738" lon="7.9223247"><ele>916.5</ele><time>2026-05-03T09:39:29.128Z</time></trkpt><trkpt lat="44.1468315" lon="7.9222564"><ele>912.6666666666667</ele><time>2026-05-03T09:39:30.128Z</time></trkpt><trkpt lat="44.1468955" lon="7.9222202"><ele>908.8333333333334</ele><time>2026-05-03T09:39:31.128Z</time></trkpt><trkpt lat="44.1470151" lon="7.9221834"><ele>905.0</ele><time>2026-05-03T09:39:33.128Z</time></trkpt><trkpt lat="44.1470813" lon="7.9221365"><ele>905.0</ele><time>2026-05-03T09:39:34.128Z</time></trkpt><trkpt lat="44.1471499" lon="7.9220784"><ele>905.0</ele><time>2026-05-03T09:39:35.128Z</time></trkpt><trkpt lat="44.1472379" lon="7.9220231"><ele>905.0</ele><time>2026-05-03T09:39:36.129Z</time></trkpt><trkpt lat="44.1473309" lon="7.9219883"><ele>905.0</ele><time>2026-05-03T09:39:37.128Z</time></trkpt><trkpt lat="44.1474185" lon="7.9219448"><ele>905.0</ele><time>2026-05-03T09:39:38.128Z</time></trkpt><trkpt lat="44.1474919" lon="7.9218766"><ele>905.2</ele><time>2026-05-03T09:39:39.128Z</time></trkpt><trkpt lat="44.1475496" lon="7.9217899"><ele>905.4</ele><time>2026-05-03T09:39:40.128Z</time></trkpt><trkpt lat="44.1476064" lon="7.9216905"><ele>905.5999999999999</ele><time>2026-05-03T09:39:41.128Z</time></trkpt><trkpt lat="44.1476815" lon="7.9215933"><ele>905.8</ele><time>2026-05-03T09:39:42.128Z</time></trkpt><trkpt lat="44.1477423" lon="7.9214958"><ele>906.0</ele><time>2026-05-03T09:39:43.129Z</time></trkpt><trkpt lat="44.1478067" lon="7.921395"><ele>906.0</ele><time>2026-05-03T09:39:44.128Z</time></trkpt><trkpt lat="44.1478807" lon="7.9212999"><ele>905.9999999999999</ele><time>2026-05-03T09:39:45.128Z</time></trkpt><trkpt lat="44.147958" lon="7.9212113"><ele>905.9999999999999</ele><time>2026-05-03T09:39:46.129Z</time></trkpt><trkpt lat="44.1480377" lon="7.9211318"><ele>906.0</ele><time>2026-05-03T09:39:47.129Z</time></trkpt><trkpt lat="44.1481111" lon="7.921048"><ele>906.0</ele><time>2026-05-03T09:39:48.128Z</time></trkpt><trkpt lat="44.148185" lon="7.9209656"><ele>906.5</ele><time>2026-05-03T09:39:49.128Z</time></trkpt><trkpt lat="44.1482254" lon="7.9208888"><ele>907.0</ele><time>2026-05-03T09:39:50.128Z</time></trkpt><trkpt lat="44.1482152" lon="7.9207882"><ele>907.5</ele><time>2026-05-03T09:39:52.128Z</time></trkpt><trkpt lat="44.1481358" lon="7.9207309"><ele>908.0</ele><time>2026-05-03T09:39:54.128Z</time></trkpt><trkpt lat="44.1480552" lon="7.9207165"><ele>908.5</ele><time>2026-05-03T09:39:55.128Z</time></trkpt><trkpt lat="44.1479613" lon="7.9207225"><ele>909.0</ele><time>2026-05-03T09:39:56.128Z</time></trkpt><trkpt lat="44.1478612" lon="7.9207458"><ele>909.0</ele><time>2026-05-03T09:39:57.128Z</time></trkpt><trkpt lat="44.1477548" lon="7.9207602"><ele>909.0000000000001</ele><time>2026-05-03T09:39:58.128Z</time></trkpt><trkpt lat="44.1476483" lon="7.9207536"><ele>909.0000000000001</ele><time>2026-05-03T09:39:59.128Z</time></trkpt><trkpt lat="44.1475521" lon="7.9207262"><ele>909.0</ele><time>2026-05-03T09:40:00.129Z</time></trkpt><trkpt lat="44.1474548" lon="7.9206814"><ele>909.0</ele><time>2026-05-03T09:40:01.129Z</time></trkpt><trkpt lat="44.1473613" lon="7.9206444"><ele>912.5</ele><time>2026-05-03T09:40:02.128Z</time></trkpt><trkpt lat="44.1472723" lon="7.9206182"><ele>916.0</ele><time>2026-05-03T09:40:03.128Z</time></trkpt><trkpt lat="44.1471995" lon="7.9205834"><ele>919.5</ele><time>2026-05-03T09:40:04.128Z</time></trkpt><trkpt lat="44.1471396" lon="7.9205393"><ele>923.0</ele><time>2026-05-03T09:40:05.128Z</time></trkpt><trkpt lat="44.1470765" lon="7.9204859"><ele>926.5</ele><time>2026-05-03T09:40:06.128Z</time></trkpt><trkpt lat="44.1470035" lon="7.9204158"><ele>930.0</ele><time>2026-05-03T09:40:07.128Z</time></trkpt><trkpt lat="44.1469313" lon="7.9203455"><ele>930.0</ele><time>2026-05-03T09:40:08.128Z</time></trkpt><trkpt lat="44.1468527" lon="7.920297"><ele>930.0</ele><time>2026-05-03T09:40:09.129Z</time></trkpt><trkpt lat="44.1467655" lon="7.9202695"><ele>930.0</ele><time>2026-05-03T09:40:10.128Z</time></trkpt><trkpt lat="44.1466555" lon="7.9202659"><ele>930.0</ele><time>2026-05-03T09:40:11.128Z</time></trkpt><trkpt lat="44.146538" lon="7.9202742"><ele>930.0</ele><time>2026-05-03T09:40:12.129Z</time></trkpt><trkpt lat="44.1463946" lon="7.920265"><ele>935.2</ele><time>2026-05-03T09:40:13.128Z</time></trkpt><trkpt lat="44.1462429" lon="7.9202527"><ele>940.4</ele><time>2026-05-03T09:40:14.129Z</time></trkpt><trkpt lat="44.1461241" lon="7.9202488"><ele>945.5999999999999</ele><time>2026-05-03T09:40:15.128Z</time></trkpt><trkpt lat="44.1460395" lon="7.9202409"><ele>950.8</ele><time>2026-05-03T09:40:16.128Z</time></trkpt><trkpt lat="44.1459609" lon="7.9202315"><ele>956.0</ele><time>2026-05-03T09:40:17.128Z</time></trkpt><trkpt lat="44.1459226" lon="7.9200808"><ele>952.5999999999999</ele><time>2026-05-03T09:40:19.128Z</time></trkpt><trkpt lat="44.1459217" lon="7.9199265"><ele>949.1999999999999</ele><time>2026-05-03T09:40:20.128Z</time></trkpt><trkpt lat="44.1459146" lon="7.9197812"><ele>945.8000000000001</ele><time>2026-05-03T09:40:21.128Z</time></trkpt><trkpt lat="44.1459003" lon="7.9196412"><ele>942.4000000000001</ele><time>2026-05-03T09:40:22.128Z</time></trkpt><trkpt lat="44.1458903" lon="7.919527"><ele>939.0</ele><time>2026-05-03T09:40:23.128Z</time></trkpt><trkpt lat="44.1458802" lon="7.919432"><ele>939.0</ele><time>2026-05-03T09:40:24.128Z</time></trkpt><trkpt lat="44.14582" lon="7.9193174"><ele>939.0000000000001</ele><time>2026-05-03T09:40:26.129Z</time></trkpt><trkpt lat="44.145721" lon="7.9193147"><ele>939.0000000000001</ele><time>2026-05-03T09:40:28.129Z</time></trkpt><trkpt lat="44.1456518" lon="7.9193551"><ele>939.0</ele><time>2026-05-03T09:40:29.128Z</time></trkpt><trkpt lat="44.1455717" lon="7.9194038"><ele>939.0</ele><time>2026-05-03T09:40:30.128Z</time></trkpt><trkpt lat="44.1454731" lon="7.919419"><ele>937.5</ele><time>2026-05-03T09:40:31.128Z</time></trkpt><trkpt lat="44.1453776" lon="7.9194313"><ele>936.0</ele><time>2026-05-03T09:40:32.128Z</time></trkpt><trkpt lat="44.1452861" lon="7.9194099"><ele>934.5</ele><time>2026-05-03T09:40:33.128Z</time></trkpt><trkpt lat="44.1452174" lon="7.9193644"><ele>933.0</ele><time>2026-05-03T09:40:34.128Z</time></trkpt><trkpt lat="44.1451485" lon="7.9193088"><ele>931.5</ele><time>2026-05-03T09:40:35.129Z</time></trkpt><trkpt lat="44.1450844" lon="7.91924"><ele>930.0</ele><time>2026-05-03T09:40:36.128Z</time></trkpt><trkpt lat="44.1450228" lon="7.9191674"><ele>930.0</ele><time>2026-05-03T09:40:37.128Z</time></trkpt><trkpt lat="44.1449604" lon="7.9191142"><ele>930.0</ele><time>2026-05-03T09:40:38.128Z</time></trkpt><trkpt lat="44.1448798" lon="7.9190846"><ele>930.0</ele><time>2026-05-03T09:40:39.129Z</time></trkpt><trkpt lat="44.1447968" lon="7.9190592"><ele>930.0</ele><time>2026-05-03T09:40:40.129Z</time></trkpt><trkpt lat="44.1447126" lon="7.9190403"><ele>930.0</ele><time>2026-05-03T09:40:41.128Z</time></trkpt><trkpt lat="44.1446238" lon="7.9190219"><ele>930.0</ele><time>2026-05-03T09:40:42.128Z</time></trkpt><trkpt lat="44.1445488" lon="7.9190143"><ele>932.2</ele><time>2026-05-03T09:40:43.128Z</time></trkpt><trkpt lat="44.1444611" lon="7.9190006"><ele>934.4</ele><time>2026-05-03T09:40:44.128Z</time></trkpt><trkpt lat="44.144366" lon="7.918979"><ele>936.5999999999999</ele><time>2026-05-03T09:40:45.128Z</time></trkpt><trkpt lat="44.1442915" lon="7.9189143"><ele>938.8</ele><time>2026-05-03T09:40:46.128Z</time></trkpt><trkpt lat="44.1442034" lon="7.9188251"><ele>941.0</ele><time>2026-05-03T09:40:47.129Z</time></trkpt><trkpt lat="44.1441169" lon="7.918743"><ele>942.1999999999999</ele><time>2026-05-03T09:40:48.129Z</time></trkpt><trkpt lat="44.1440319" lon="7.918663"><ele>943.3999999999999</ele><time>2026-05-03T09:40:49.128Z</time></trkpt><trkpt lat="44.1439485" lon="7.9185813"><ele>944.6</ele><time>2026-05-03T09:40:50.129Z</time></trkpt><trkpt lat="44.1438801" lon="7.9184928"><ele>945.8</ele><time>2026-05-03T09:40:51.128Z</time></trkpt><trkpt lat="44.1438283" lon="7.9183903"><ele>947.0</ele><time>2026-05-03T09:40:52.128Z</time></trkpt><trkpt lat="44.143785" lon="7.918272"><ele>947.0000000000001</ele><time>2026-05-03T09:40:53.128Z</time></trkpt><trkpt lat="44.1437552" lon="7.9181523"><ele>947.0</ele><time>2026-05-03T09:40:54.128Z</time></trkpt><trkpt lat="44.143737" lon="7.9180394"><ele>947.0</ele><time>2026-05-03T09:40:55.129Z</time></trkpt><trkpt lat="44.1436999" lon="7.9179306"><ele>947.0</ele><time>2026-05-03T09:40:56.128Z</time></trkpt><trkpt lat="44.1436556" lon="7.9178333"><ele>947.0000000000001</ele><time>2026-05-03T09:40:57.128Z</time></trkpt><trkpt lat="44.1435914" lon="7.9177468"><ele>947.0</ele><time>2026-05-03T09:40:58.128Z</time></trkpt><trkpt lat="44.1435154" lon="7.9176758"><ele>947.0000000000001</ele><time>2026-05-03T09:40:59.129Z</time></trkpt><trkpt lat="44.143427" lon="7.9176179"><ele>947.0</ele><time>2026-05-03T09:41:00.128Z</time></trkpt><trkpt lat="44.1433325" lon="7.9175899"><ele>947.0</ele><time>2026-05-03T09:41:01.129Z</time></trkpt><trkpt lat="44.1432479" lon="7.9175974"><ele>947.0</ele><time>2026-05-03T09:41:02.128Z</time></trkpt><trkpt lat="44.1431699" lon="7.9176046"><ele>947.0000000000001</ele><time>2026-05-03T09:41:03.128Z</time></trkpt><trkpt lat="44.1430961" lon="7.9175861"><ele>947.0</ele><time>2026-05-03T09:41:04.128Z</time></trkpt><trkpt lat="44.1430151" lon="7.917497"><ele>946.4000000000001</ele><time>2026-05-03T09:41:05.128Z</time></trkpt><trkpt lat="44.142932" lon="7.9174028"><ele>945.8000000000001</ele><time>2026-05-03T09:41:06.128Z</time></trkpt><trkpt lat="44.1428568" lon="7.9173166"><ele>945.2</ele><time>2026-05-03T09:41:07.128Z</time></trkpt><trkpt lat="44.1427886" lon="7.9172303"><ele>944.6</ele><time>2026-05-03T09:41:08.128Z</time></trkpt><trkpt lat="44.1427357" lon="7.9171429"><ele>944.0</ele><time>2026-05-03T09:41:09.128Z</time></trkpt><trkpt lat="44.1426955" lon="7.9170344"><ele>944.0000000000001</ele><time>2026-05-03T09:41:10.129Z</time></trkpt><trkpt lat="44.1426711" lon="7.916904"><ele>944.0</ele><time>2026-05-03T09:41:11.129Z</time></trkpt><trkpt lat="44.1426581" lon="7.9167795"><ele>944.0</ele><time>2026-05-03T09:41:12.128Z</time></trkpt><trkpt lat="44.1426623" lon="7.916677"><ele>944.0</ele><time>2026-05-03T09:41:13.129Z</time></trkpt><trkpt lat="44.1426776" lon="7.916569"><ele>944.0000000000001</ele><time>2026-05-03T09:41:14.128Z</time></trkpt><trkpt lat="44.1427049" lon="7.9164607"><ele>944.0</ele><time>2026-05-03T09:41:15.128Z</time></trkpt><trkpt lat="44.1427174" lon="7.9163579"><ele>940.8000000000001</ele><time>2026-05-03T09:41:16.128Z</time></trkpt><trkpt lat="44.1426881" lon="7.9161813"><ele>937.6000000000001</ele><time>2026-05-03T09:41:18.128Z</time></trkpt><trkpt lat="44.1426379" lon="7.9160865"><ele>934.4</ele><time>2026-05-03T09:41:19.128Z</time></trkpt><trkpt lat="44.1425783" lon="7.9159927"><ele>931.2</ele><time>2026-05-03T09:41:20.128Z</time></trkpt><trkpt lat="44.1425283" lon="7.9158915"><ele>928.0</ele><time>2026-05-03T09:41:21.128Z</time></trkpt><trkpt lat="44.1424948" lon="7.9157788"><ele>926.4999999999999</ele><time>2026-05-03T09:41:22.128Z</time></trkpt><trkpt lat="44.1424628" lon="7.9156561"><ele>925.0</ele><time>2026-05-03T09:41:23.129Z</time></trkpt><trkpt lat="44.1424544" lon="7.915542"><ele>923.5</ele><time>2026-05-03T09:41:24.128Z</time></trkpt><trkpt lat="44.1424802" lon="7.9154572"><ele>922.0</ele><time>2026-05-03T09:41:25.128Z</time></trkpt><trkpt lat="44.1425267" lon="7.9153695"><ele>920.4999999999999</ele><time>2026-05-03T09:41:27.129Z</time></trkpt><trkpt lat="44.1425842" lon="7.9152644"><ele>919.0</ele><time>2026-05-03T09:41:42.128Z</time></trkpt><trkpt lat="44.1426558" lon="7.9151623"><ele>919.8000000000001</ele><time>2026-05-03T09:41:43.128Z</time></trkpt><trkpt lat="44.1427391" lon="7.9150348"><ele>920.6000000000001</ele><time>2026-05-03T09:41:44.128Z</time></trkpt><trkpt lat="44.1428231" lon="7.9149318"><ele>921.4</ele><time>2026-05-03T09:41:45.128Z</time></trkpt><trkpt lat="44.1428972" lon="7.914847"><ele>922.2</ele><time>2026-05-03T09:41:46.129Z</time></trkpt><trkpt lat="44.1429683" lon="7.9147771"><ele>923.0</ele><time>2026-05-03T09:41:47.128Z</time></trkpt><trkpt lat="44.142991" lon="7.9146661"><ele>923.0</ele><time>2026-05-03T09:41:48.128Z</time></trkpt><trkpt lat="44.1429976" lon="7.914548"><ele>923.0</ele><time>2026-05-03T09:41:49.129Z</time></trkpt><trkpt lat="44.1430115" lon="7.9144263"><ele>923.0</ele><time>2026-05-03T09:41:50.128Z</time></trkpt><trkpt lat="44.1430388" lon="7.9143194"><ele>923.0</ele><time>2026-05-03T09:41:51.128Z</time></trkpt><trkpt lat="44.1430994" lon="7.914214"><ele>923.0</ele><time>2026-05-03T09:41:52.128Z</time></trkpt><trkpt lat="44.1431781" lon="7.9141043"><ele>918.0</ele><time>2026-05-03T09:41:53.128Z</time></trkpt><trkpt lat="44.1432616" lon="7.9139974"><ele>913.0</ele><time>2026-05-03T09:41:54.128Z</time></trkpt><trkpt lat="44.1433482" lon="7.9139016"><ele>908.0</ele><time>2026-05-03T09:41:55.128Z</time></trkpt><trkpt lat="44.1434206" lon="7.9138235"><ele>903.0</ele><time>2026-05-03T09:41:56.128Z</time></trkpt><trkpt lat="44.143492" lon="7.9137476"><ele>898.0</ele><time>2026-05-03T09:41:57.128Z</time></trkpt><trkpt lat="44.1435682" lon="7.9136805"><ele>898.0</ele><time>2026-05-03T09:41:58.128Z</time></trkpt><trkpt lat="44.1436596" lon="7.9136242"><ele>898.0</ele><time>2026-05-03T09:41:59.128Z</time></trkpt><trkpt lat="44.1437427" lon="7.9135822"><ele>898.0</ele><time>2026-05-03T09:42:00.128Z</time></trkpt><trkpt lat="44.143829" lon="7.9135421"><ele>898.0</ele><time>2026-05-03T09:42:01.128Z</time></trkpt><trkpt lat="44.1439276" lon="7.913499"><ele>898.0</ele><time>2026-05-03T09:42:02.129Z</time></trkpt><trkpt lat="44.144015" lon="7.9134461"><ele>895.9999999999999</ele><time>2026-05-03T09:42:03.129Z</time></trkpt><trkpt lat="44.1440952" lon="7.9133658"><ele>894.0</ele><time>2026-05-03T09:42:04.128Z</time></trkpt><trkpt lat="44.1441732" lon="7.9132815"><ele>892.0</ele><time>2026-05-03T09:42:05.128Z</time></trkpt><trkpt lat="44.1442379" lon="7.9132001"><ele>890.0</ele><time>2026-05-03T09:42:06.129Z</time></trkpt><trkpt lat="44.1442837" lon="7.9131272"><ele>887.9999999999999</ele><time>2026-05-03T09:42:07.128Z</time></trkpt><trkpt lat="44.144336" lon="7.9130445"><ele>886.0</ele><time>2026-05-03T09:42:08.129Z</time></trkpt><trkpt lat="44.1443816" lon="7.9129526"><ele>885.9999999999999</ele><time>2026-05-03T09:42:09.128Z</time></trkpt><trkpt lat="44.1443822" lon="7.9128476"><ele>886.0</ele><time>2026-05-03T09:42:10.128Z</time></trkpt><trkpt lat="44.1443727" lon="7.912732"><ele>886.0</ele><time>2026-05-03T09:42:11.129Z</time></trkpt><trkpt lat="44.1443508" lon="7.91261"><ele>886.0</ele><time>2026-05-03T09:42:12.128Z</time></trkpt><trkpt lat="44.1443179" lon="7.9124984"><ele>885.9999999999999</ele><time>2026-05-03T09:42:13.129Z</time></trkpt><trkpt lat="44.1442734" lon="7.9124005"><ele>886.0</ele><time>2026-05-03T09:42:14.128Z</time></trkpt><trkpt lat="44.1442306" lon="7.9123081"><ele>885.6666666666666</ele><time>2026-05-03T09:42:15.128Z</time></trkpt><trkpt lat="44.1441939" lon="7.9122013"><ele>885.3333333333333</ele><time>2026-05-03T09:42:16.129Z</time></trkpt><trkpt lat="44.1441631" lon="7.9120895"><ele>885.0</ele><time>2026-05-03T09:42:17.128Z</time></trkpt><trkpt lat="44.1441425" lon="7.9119786"><ele>884.6666666666667</ele><time>2026-05-03T09:42:18.128Z</time></trkpt><trkpt lat="44.1441079" lon="7.9118536"><ele>884.3333333333334</ele><time>2026-05-03T09:42:19.128Z</time></trkpt><trkpt lat="44.1440642" lon="7.9117468"><ele>884.0</ele><time>2026-05-03T09:42:20.128Z</time></trkpt><trkpt lat="44.1440171" lon="7.9116481"><ele>882.4285714285714</ele><time>2026-05-03T09:42:21.128Z</time></trkpt><trkpt lat="44.1439646" lon="7.911575"><ele>880.8571428571429</ele><time>2026-05-03T09:42:22.128Z</time></trkpt><trkpt lat="44.1439043" lon="7.911516"><ele>879.2857142857142</ele><time>2026-05-03T09:42:23.129Z</time></trkpt><trkpt lat="44.1438509" lon="7.9114553"><ele>877.7142857142858</ele><time>2026-05-03T09:42:24.129Z</time></trkpt><trkpt lat="44.1437937" lon="7.9113873"><ele>876.1428571428571</ele><time>2026-05-03T09:42:25.128Z</time></trkpt><trkpt lat="44.1437434" lon="7.9113141"><ele>874.5714285714286</ele><time>2026-05-03T09:42:26.128Z</time></trkpt><trkpt lat="44.143688" lon="7.9112496"><ele>873.0</ele><time>2026-05-03T09:42:27.128Z</time></trkpt><trkpt lat="44.1435627" lon="7.9111983"><ele>873.0</ele><time>2026-05-03T09:42:29.128Z</time></trkpt><trkpt lat="44.1434928" lon="7.9112051"><ele>873.0</ele><time>2026-05-03T09:42:30.128Z</time></trkpt><trkpt lat="44.1434198" lon="7.9112363"><ele>873.0</ele><time>2026-05-03T09:42:31.129Z</time></trkpt><trkpt lat="44.1432961" lon="7.9112205"><ele>873.0</ele><time>2026-05-03T09:42:33.128Z</time></trkpt><trkpt lat="44.1431967" lon="7.9111551"><ele>873.0</ele><time>2026-05-03T09:42:35.128Z</time></trkpt><trkpt lat="44.1431123" lon="7.9109816"><ele>872.5</ele><time>2026-05-03T09:42:37.129Z</time></trkpt><trkpt lat="44.1430645" lon="7.9108719"><ele>872.0</ele><time>2026-05-03T09:42:38.128Z</time></trkpt><trkpt lat="44.1430184" lon="7.9107741"><ele>871.5</ele><time>2026-05-03T09:42:39.128Z</time></trkpt><trkpt lat="44.1429956" lon="7.9106507"><ele>871.0</ele><time>2026-05-03T09:42:40.128Z</time></trkpt><trkpt lat="44.1429833" lon="7.9105263"><ele>870.5</ele><time>2026-05-03T09:42:41.128Z</time></trkpt><trkpt lat="44.1429596" lon="7.910416"><ele>870.0</ele><time>2026-05-03T09:42:42.128Z</time></trkpt><trkpt lat="44.1429196" lon="7.9102621"><ele>870.0</ele><time>2026-05-03T09:42:43.128Z</time></trkpt><trkpt lat="44.1428896" lon="7.9100936"><ele>870.0</ele><time>2026-05-03T09:42:44.128Z</time></trkpt><trkpt lat="44.1428512" lon="7.9099579"><ele>870.0</ele><time>2026-05-03T09:42:45.128Z</time></trkpt><trkpt lat="44.1428513" lon="7.9098029"><ele>870.0</ele><time>2026-05-03T09:42:46.128Z</time></trkpt><trkpt lat="44.142856" lon="7.909647"><ele>867.0</ele><time>2026-05-03T09:42:47.128Z</time></trkpt><trkpt lat="44.1428823" lon="7.9095076"><ele>864.0</ele><time>2026-05-03T09:42:48.128Z</time></trkpt><trkpt lat="44.1428989" lon="7.9093754"><ele>861.0</ele><time>2026-05-03T09:42:49.128Z</time></trkpt><trkpt lat="44.1428909" lon="7.9092241"><ele>858.0</ele><time>2026-05-03T09:42:51.128Z</time></trkpt><trkpt lat="44.1428015" lon="7.9091491"><ele>855.0</ele><time>2026-05-03T09:42:52.128Z</time></trkpt><trkpt lat="44.1427371" lon="7.909109"><ele>855.4</ele><time>2026-05-03T09:42:53.128Z</time></trkpt><trkpt lat="44.1426267" lon="7.9090913"><ele>855.8</ele><time>2026-05-03T09:42:54.128Z</time></trkpt><trkpt lat="44.1425287" lon="7.9090423"><ele>856.2</ele><time>2026-05-03T09:42:55.128Z</time></trkpt><trkpt lat="44.1424364" lon="7.9090011"><ele>856.6</ele><time>2026-05-03T09:42:56.129Z</time></trkpt><trkpt lat="44.14238" lon="7.9089404"><ele>857.0</ele><time>2026-05-03T09:42:57.128Z</time></trkpt><trkpt lat="44.1423317" lon="7.9088445"><ele>857.0000000000001</ele><time>2026-05-03T09:42:58.128Z</time></trkpt><trkpt lat="44.1422989" lon="7.9087261"><ele>857.0</ele><time>2026-05-03T09:42:59.128Z</time></trkpt><trkpt lat="44.1422725" lon="7.9086156"><ele>857.0</ele><time>2026-05-03T09:43:00.128Z</time></trkpt><trkpt lat="44.1422572" lon="7.908496"><ele>857.0</ele><time>2026-05-03T09:43:01.129Z</time></trkpt><trkpt lat="44.1422486" lon="7.9083856"><ele>857.0000000000001</ele><time>2026-05-03T09:43:02.128Z</time></trkpt><trkpt lat="44.142278" lon="7.9082826"><ele>857.0</ele><time>2026-05-03T09:43:03.128Z</time></trkpt><trkpt lat="44.1422924" lon="7.9081611"><ele>854.3333333333334</ele><time>2026-05-03T09:43:04.129Z</time></trkpt><trkpt lat="44.1422879" lon="7.9080717"><ele>851.6666666666667</ele><time>2026-05-03T09:43:05.128Z</time></trkpt><trkpt lat="44.1422438" lon="7.9079952"><ele>849.0</ele><time>2026-05-03T09:43:06.128Z</time></trkpt><trkpt lat="44.1422053" lon="7.907917"><ele>846.3333333333333</ele><time>2026-05-03T09:43:07.129Z</time></trkpt><trkpt lat="44.1421477" lon="7.9078414"><ele>843.6666666666666</ele><time>2026-05-03T09:43:08.129Z</time></trkpt><trkpt lat="44.1420636" lon="7.9077844"><ele>841.0</ele><time>2026-05-03T09:43:09.128Z</time></trkpt><trkpt lat="44.1419929" lon="7.9077297"><ele>841.0</ele><time>2026-05-03T09:43:10.129Z</time></trkpt><trkpt lat="44.1419189" lon="7.9076777"><ele>841.0</ele><time>2026-05-03T09:43:11.129Z</time></trkpt><trkpt lat="44.1418388" lon="7.9075821"><ele>841.0</ele><time>2026-05-03T09:43:12.128Z</time></trkpt><trkpt lat="44.1417553" lon="7.9075102"><ele>841.0</ele><time>2026-05-03T09:43:13.128Z</time></trkpt><trkpt lat="44.1416774" lon="7.9074463"><ele>841.0</ele><time>2026-05-03T09:43:14.129Z</time></trkpt><trkpt lat="44.1416111" lon="7.9073625"><ele>836.0</ele><time>2026-05-03T09:43:15.128Z</time></trkpt><trkpt lat="44.141539" lon="7.9072872"><ele>831.0</ele><time>2026-05-03T09:43:16.13Z</time></trkpt><trkpt lat="44.141443" lon="7.907115"><ele>826.0</ele><time>2026-05-03T09:43:18.128Z</time></trkpt><trkpt lat="44.141355" lon="7.9070396"><ele>821.0</ele><time>2026-05-03T09:43:19.129Z</time></trkpt><trkpt lat="44.1412635" lon="7.9069364"><ele>821.0000000000001</ele><time>2026-05-03T09:43:20.128Z</time></trkpt><trkpt lat="44.1411704" lon="7.9068434"><ele>821.0</ele><time>2026-05-03T09:43:21.128Z</time></trkpt><trkpt lat="44.141103" lon="7.9067612"><ele>821.0</ele><time>2026-05-03T09:43:22.128Z</time></trkpt><trkpt lat="44.1410238" lon="7.9066816"><ele>821.0</ele><time>2026-05-03T09:43:23.129Z</time></trkpt><trkpt lat="44.1409724" lon="7.9066079"><ele>821.0000000000001</ele><time>2026-05-03T09:43:24.128Z</time></trkpt><trkpt lat="44.1409159" lon="7.9065427"><ele>821.0</ele><time>2026-05-03T09:43:25.128Z</time></trkpt><trkpt lat="44.1408636" lon="7.9064929"><ele>818.0000000000001</ele><time>2026-05-03T09:43:26.128Z</time></trkpt><trkpt lat="44.1407983" lon="7.9064349"><ele>815.0</ele><time>2026-05-03T09:43:27.129Z</time></trkpt><trkpt lat="44.1407402" lon="7.9063821"><ele>812.0</ele><time>2026-05-03T09:43:28.128Z</time></trkpt><trkpt lat="44.14067" lon="7.9063155"><ele>809.0</ele><time>2026-05-03T09:43:30.129Z</time></trkpt><trkpt lat="44.1406187" lon="7.9062401"><ele>806.0000000000001</ele><time>2026-05-03T09:43:37.128Z</time></trkpt><trkpt lat="44.1406278" lon="7.906135"><ele>803.0</ele><time>2026-05-03T09:43:39.128Z</time></trkpt><trkpt lat="44.1407696" lon="7.9062169"><ele>803.0</ele><time>2026-05-03T09:43:42.128Z</time></trkpt><trkpt lat="44.1408696" lon="7.9063146"><ele>803.0</ele><time>2026-05-03T09:43:43.128Z</time></trkpt><trkpt lat="44.140962" lon="7.9063877"><ele>803.0</ele><time>2026-05-03T09:43:44.128Z</time></trkpt><trkpt lat="44.1410725" lon="7.9064414"><ele>803.0</ele><time>2026-05-03T09:43:45.128Z</time></trkpt><trkpt lat="44.1411716" lon="7.9064649"><ele>803.0</ele><time>2026-05-03T09:43:46.129Z</time></trkpt><trkpt lat="44.1412766" lon="7.9065161"><ele>803.0</ele><time>2026-05-03T09:43:47.128Z</time></trkpt><trkpt lat="44.1413901" lon="7.9065749"><ele>803.0</ele><time>2026-05-03T09:43:48.128Z</time></trkpt><trkpt lat="44.1414944" lon="7.9066315"><ele>803.0</ele><time>2026-05-03T09:43:49.128Z</time></trkpt><trkpt lat="44.1416182" lon="7.9067132"><ele>803.0</ele><time>2026-05-03T09:43:50.128Z</time></trkpt><trkpt lat="44.141728" lon="7.9067805"><ele>807.0</ele><time>2026-05-03T09:43:51.128Z</time></trkpt><trkpt lat="44.1418306" lon="7.9068724"><ele>811.0</ele><time>2026-05-03T09:43:52.128Z</time></trkpt><trkpt lat="44.1419427" lon="7.906983"><ele>815.0</ele><time>2026-05-03T09:43:53.129Z</time></trkpt><trkpt lat="44.142056" lon="7.9070549"><ele>819.0</ele><time>2026-05-03T09:43:54.128Z</time></trkpt><trkpt lat="44.142178" lon="7.9070617"><ele>819.0</ele><time>2026-05-03T09:43:55.128Z</time></trkpt><trkpt lat="44.1422814" lon="7.9070719"><ele>819.0</ele><time>2026-05-03T09:43:56.128Z</time></trkpt><trkpt lat="44.1423997" lon="7.9071084"><ele>819.0</ele><time>2026-05-03T09:43:57.128Z</time></trkpt><trkpt lat="44.1425192" lon="7.9071256"><ele>819.0</ele><time>2026-05-03T09:43:58.129Z</time></trkpt><trkpt lat="44.142637" lon="7.9071698"><ele>808.0</ele><time>2026-05-03T09:43:59.128Z</time></trkpt><trkpt lat="44.1427448" lon="7.9072039"><ele>797.0</ele><time>2026-05-03T09:44:00.128Z</time></trkpt><trkpt lat="44.1428635" lon="7.9072945"><ele>786.0</ele><time>2026-05-03T09:44:01.128Z</time></trkpt><trkpt lat="44.1431946" lon="7.9074793"><ele>787.25</ele><time>2026-05-03T09:44:04.128Z</time></trkpt><trkpt lat="44.1433049" lon="7.9075309"><ele>788.5</ele><time>2026-05-03T09:44:05.129Z</time></trkpt><trkpt lat="44.1434144" lon="7.9075905"><ele>789.75</ele><time>2026-05-03T09:44:06.128Z</time></trkpt><trkpt lat="44.1435232" lon="7.9076396"><ele>791.0</ele><time>2026-05-03T09:44:07.128Z</time></trkpt><trkpt lat="44.1436267" lon="7.9076996"><ele>791.0</ele><time>2026-05-03T09:44:08.128Z</time></trkpt><trkpt lat="44.1437497" lon="7.9077809"><ele>791.0</ele><time>2026-05-03T09:44:09.129Z</time></trkpt><trkpt lat="44.14386" lon="7.9078748"><ele>791.0</ele><time>2026-05-03T09:44:10.128Z</time></trkpt><trkpt lat="44.1439728" lon="7.9079664"><ele>791.0</ele><time>2026-05-03T09:44:11.128Z</time></trkpt><trkpt lat="44.144084" lon="7.9080471"><ele>789.1999999999999</ele><time>2026-05-03T09:44:12.129Z</time></trkpt><trkpt lat="44.1441797" lon="7.9081357"><ele>787.4</ele><time>2026-05-03T09:44:13.128Z</time></trkpt><trkpt lat="44.1442962" lon="7.9082307"><ele>785.6</ele><time>2026-05-03T09:44:14.128Z</time></trkpt><trkpt lat="44.144384" lon="7.9082983"><ele>783.8</ele><time>2026-05-03T09:44:15.128Z</time></trkpt><trkpt lat="44.1444362" lon="7.9083611"><ele>782.0</ele><time>2026-05-03T09:44:16.129Z</time></trkpt><trkpt lat="44.1445046" lon="7.9084159"><ele>782.0000000000001</ele><time>2026-05-03T09:44:17.128Z</time></trkpt><trkpt lat="44.144574" lon="7.9084375"><ele>782.0</ele><time>2026-05-03T09:44:18.129Z</time></trkpt><trkpt lat="44.1446738" lon="7.9084683"><ele>782.0</ele><time>2026-05-03T09:44:20.129Z</time></trkpt><trkpt lat="44.1447386" lon="7.9084732"><ele>782.0</ele><time>2026-05-03T09:44:21.128Z</time></trkpt><trkpt lat="44.1448019" lon="7.9084378"><ele>782.0000000000001</ele><time>2026-05-03T09:44:22.128Z</time></trkpt><trkpt lat="44.1448635" lon="7.9083929"><ele>782.0</ele><time>2026-05-03T09:44:23.129Z</time></trkpt><trkpt lat="44.1449786" lon="7.9083252"><ele>773.3333333333334</ele><time>2026-05-03T09:44:25.128Z</time></trkpt><trkpt lat="44.1450395" lon="7.9082931"><ele>764.6666666666667</ele><time>2026-05-03T09:44:26.128Z</time></trkpt><trkpt lat="44.1451036" lon="7.9082516"><ele>756.0</ele><time>2026-05-03T09:44:27.128Z</time></trkpt><trkpt lat="44.1451772" lon="7.9082077"><ele>747.3333333333334</ele><time>2026-05-03T09:44:28.129Z</time></trkpt><trkpt lat="44.1452578" lon="7.9081484"><ele>738.6666666666667</ele><time>2026-05-03T09:44:29.128Z</time></trkpt><trkpt lat="44.1453381" lon="7.9080966"><ele>730.0</ele><time>2026-05-03T09:44:30.128Z</time></trkpt><trkpt lat="44.145403" lon="7.9080477"><ele>730.0</ele><time>2026-05-03T09:44:31.128Z</time></trkpt><trkpt lat="44.1454987" lon="7.9079814"><ele>730.0</ele><time>2026-05-03T09:44:33.128Z</time></trkpt><trkpt lat="44.1455685" lon="7.9079554"><ele>730.0</ele><time>2026-05-03T09:44:35.128Z</time></trkpt><trkpt lat="44.1456423" lon="7.9080564"><ele>730.0</ele><time>2026-05-03T09:44:37.128Z</time></trkpt><trkpt lat="44.1456773" lon="7.908134"><ele>730.0</ele><time>2026-05-03T09:44:38.128Z</time></trkpt><trkpt lat="44.1457155" lon="7.9082281"><ele>730.0</ele><time>2026-05-03T09:44:39.129Z</time></trkpt><trkpt lat="44.1457649" lon="7.908331"><ele>730.6</ele><time>2026-05-03T09:44:40.128Z</time></trkpt><trkpt lat="44.145815" lon="7.9084359"><ele>731.2</ele><time>2026-05-03T09:44:41.128Z</time></trkpt><trkpt lat="44.1458719" lon="7.908551"><ele>731.8</ele><time>2026-05-03T09:44:42.128Z</time></trkpt><trkpt lat="44.1459265" lon="7.9086684"><ele>732.4</ele><time>2026-05-03T09:44:43.128Z</time></trkpt><trkpt lat="44.1459896" lon="7.9087852"><ele>733.0</ele><time>2026-05-03T09:44:44.128Z</time></trkpt><trkpt lat="44.1460544" lon="7.9089012"><ele>733.0</ele><time>2026-05-03T09:44:45.128Z</time></trkpt><trkpt lat="44.1461257" lon="7.9090204"><ele>733.0</ele><time>2026-05-03T09:44:46.128Z</time></trkpt><trkpt lat="44.1462042" lon="7.909137"><ele>733.0</ele><time>2026-05-03T09:44:47.128Z</time></trkpt><trkpt lat="44.146283" lon="7.9092416"><ele>733.0</ele><time>2026-05-03T09:44:48.128Z</time></trkpt><trkpt lat="44.1463677" lon="7.9093488"><ele>733.0</ele><time>2026-05-03T09:44:49.128Z</time></trkpt><trkpt lat="44.1464581" lon="7.9094474"><ele>734.0</ele><time>2026-05-03T09:44:50.128Z</time></trkpt><trkpt lat="44.1465488" lon="7.9095391"><ele>735.0</ele><time>2026-05-03T09:44:51.128Z</time></trkpt><trkpt lat="44.146644" lon="7.9096296"><ele>736.0</ele><time>2026-05-03T09:44:52.128Z</time></trkpt><trkpt lat="44.1467562" lon="7.9096982"><ele>737.0</ele><time>2026-05-03T09:44:53.128Z</time></trkpt><trkpt lat="44.1468628" lon="7.9097519"><ele>737.0</ele><time>2026-05-03T09:44:54.128Z</time></trkpt><trkpt lat="44.1469715" lon="7.9097878"><ele>737.0</ele><time>2026-05-03T09:44:55.128Z</time></trkpt><trkpt lat="44.1470866" lon="7.9098126"><ele>737.0</ele><time>2026-05-03T09:44:56.128Z</time></trkpt><trkpt lat="44.1472023" lon="7.9098225"><ele>737.0</ele><time>2026-05-03T09:44:57.128Z</time></trkpt><trkpt lat="44.1473218" lon="7.9098199"><ele>739.0</ele><time>2026-05-03T09:44:58.129Z</time></trkpt><trkpt lat="44.1474434" lon="7.9098077"><ele>741.0</ele><time>2026-05-03T09:44:59.128Z</time></trkpt><trkpt lat="44.1475667" lon="7.9097919"><ele>743.0</ele><time>2026-05-03T09:45:00.128Z</time></trkpt><trkpt lat="44.1476904" lon="7.9097917"><ele>745.0</ele><time>2026-05-03T09:45:01.128Z</time></trkpt><trkpt lat="44.1478103" lon="7.9098228"><ele>745.0</ele><time>2026-05-03T09:45:02.128Z</time></trkpt><trkpt lat="44.1479176" lon="7.909895"><ele>745.0</ele><time>2026-05-03T09:45:03.128Z</time></trkpt><trkpt lat="44.1480082" lon="7.9099968"><ele>745.0</ele><time>2026-05-03T09:45:04.128Z</time></trkpt><trkpt lat="44.148079" lon="7.9101169"><ele>745.0</ele><time>2026-05-03T09:45:05.128Z</time></trkpt><trkpt lat="44.1481414" lon="7.9102329"><ele>744.6</ele><time>2026-05-03T09:45:06.129Z</time></trkpt><trkpt lat="44.1482013" lon="7.9103415"><ele>744.2</ele><time>2026-05-03T09:45:07.128Z</time></trkpt><trkpt lat="44.1482511" lon="7.9104497"><ele>743.8</ele><time>2026-05-03T09:45:08.129Z</time></trkpt><trkpt lat="44.1482809" lon="7.9105689"><ele>743.4</ele><time>2026-05-03T09:45:09.128Z</time></trkpt><trkpt lat="44.1482829" lon="7.910704"><ele>743.0</ele><time>2026-05-03T09:45:10.129Z</time></trkpt><trkpt lat="44.1482611" lon="7.9108494"><ele>742.75</ele><time>2026-05-03T09:45:11.128Z</time></trkpt><trkpt lat="44.1482183" lon="7.9110005"><ele>742.5</ele><time>2026-05-03T09:45:12.128Z</time></trkpt><trkpt lat="44.1481691" lon="7.9111557"><ele>742.25</ele><time>2026-05-03T09:45:13.129Z</time></trkpt><trkpt lat="44.1481251" lon="7.9113188"><ele>742.0</ele><time>2026-05-03T09:45:14.128Z</time></trkpt><trkpt lat="44.1480845" lon="7.9114928"><ele>740.25</ele><time>2026-05-03T09:45:15.128Z</time></trkpt><trkpt lat="44.1480503" lon="7.9116774"><ele>738.5</ele><time>2026-05-03T09:45:16.128Z</time></trkpt><trkpt lat="44.1480234" lon="7.9118712"><ele>736.75</ele><time>2026-05-03T09:45:17.129Z</time></trkpt><trkpt lat="44.1480055" lon="7.9120699"><ele>735.0</ele><time>2026-05-03T09:45:18.129Z</time></trkpt><trkpt lat="44.1479933" lon="7.9122748"><ele>734.25</ele><time>2026-05-03T09:45:19.128Z</time></trkpt><trkpt lat="44.1479823" lon="7.9124817"><ele>733.5</ele><time>2026-05-03T09:45:20.129Z</time></trkpt><trkpt lat="44.1479594" lon="7.9126857"><ele>732.75</ele><time>2026-05-03T09:45:21.128Z</time></trkpt><trkpt lat="44.1479248" lon="7.9128807"><ele>732.0</ele><time>2026-05-03T09:45:22.129Z</time></trkpt><trkpt lat="44.1478763" lon="7.9130636"><ele>732.0</ele><time>2026-05-03T09:45:23.128Z</time></trkpt><trkpt lat="44.1478147" lon="7.9132343"><ele>732.0</ele><time>2026-05-03T09:45:24.129Z</time></trkpt><trkpt lat="44.1477477" lon="7.9134014"><ele>732.0</ele><time>2026-05-03T09:45:25.128Z</time></trkpt><trkpt lat="44.1476821" lon="7.91357"><ele>732.0</ele><time>2026-05-03T09:45:26.128Z</time></trkpt><trkpt lat="44.1476314" lon="7.9137498"><ele>730.5</ele><time>2026-05-03T09:45:27.129Z</time></trkpt><trkpt lat="44.1475954" lon="7.9139341"><ele>729.0</ele><time>2026-05-03T09:45:28.128Z</time></trkpt><trkpt lat="44.1476173" lon="7.9141172"><ele>727.5</ele><time>2026-05-03T09:45:29.128Z</time></trkpt><trkpt lat="44.1476823" lon="7.9142764"><ele>726.0</ele><time>2026-05-03T09:45:30.128Z</time></trkpt><trkpt lat="44.147774" lon="7.9144021"><ele>725.25</ele><time>2026-05-03T09:45:31.128Z</time></trkpt><trkpt lat="44.1478922" lon="7.9144662"><ele>724.5</ele><time>2026-05-03T09:45:32.129Z</time></trkpt><trkpt lat="44.1480274" lon="7.9144884"><ele>723.75</ele><time>2026-05-03T09:45:33.128Z</time></trkpt><trkpt lat="44.1481664" lon="7.9144841"><ele>723.0</ele><time>2026-05-03T09:45:34.128Z</time></trkpt><trkpt lat="44.1483135" lon="7.914464"><ele>722.3333333333334</ele><time>2026-05-03T09:45:35.128Z</time></trkpt><trkpt lat="44.1484648" lon="7.9144453"><ele>721.6666666666667</ele><time>2026-05-03T09:45:36.128Z</time></trkpt><trkpt lat="44.1486162" lon="7.9144262"><ele>721.0</ele><time>2026-05-03T09:45:37.129Z</time></trkpt><trkpt lat="44.1487612" lon="7.9143997"><ele>721.0</ele><time>2026-05-03T09:45:38.128Z</time></trkpt><trkpt lat="44.1488989" lon="7.9143697"><ele>721.0</ele><time>2026-05-03T09:45:39.128Z</time></trkpt><trkpt lat="44.1490307" lon="7.9143316"><ele>721.0</ele><time>2026-05-03T09:45:40.128Z</time></trkpt><trkpt lat="44.1491565" lon="7.9142932"><ele>721.0</ele><time>2026-05-03T09:45:41.128Z</time></trkpt><trkpt lat="44.1492728" lon="7.9142574"><ele>723.0</ele><time>2026-05-03T09:45:42.128Z</time></trkpt><trkpt lat="44.149381" lon="7.9142316"><ele>725.0</ele><time>2026-05-03T09:45:43.128Z</time></trkpt><trkpt lat="44.1494921" lon="7.9142033"><ele>727.0</ele><time>2026-05-03T09:45:44.129Z</time></trkpt><trkpt lat="44.1496116" lon="7.9141635"><ele>729.0</ele><time>2026-05-03T09:45:45.128Z</time></trkpt><trkpt lat="44.1497316" lon="7.9141122"><ele>729.0</ele><time>2026-05-03T09:45:46.128Z</time></trkpt><trkpt lat="44.1498389" lon="7.9140566"><ele>729.0</ele><time>2026-05-03T09:45:47.128Z</time></trkpt><trkpt lat="44.149921" lon="7.9140028"><ele>729.0</ele><time>2026-05-03T09:45:48.129Z</time></trkpt><trkpt lat="44.1499811" lon="7.91395"><ele>729.0</ele><time>2026-05-03T09:45:49.128Z</time></trkpt><trkpt lat="44.1500376" lon="7.9138988"><ele>729.0</ele><time>2026-05-03T09:45:50.128Z</time></trkpt><trkpt lat="44.1501233" lon="7.9138293"><ele>729.0</ele><time>2026-05-03T09:45:52.128Z</time></trkpt><trkpt lat="44.1501931" lon="7.9137929"><ele>729.6</ele><time>2026-05-03T09:45:54.128Z</time></trkpt><trkpt lat="44.1502726" lon="7.9137321"><ele>730.2</ele><time>2026-05-03T09:45:56.128Z</time></trkpt><trkpt lat="44.1503129" lon="7.9136198"><ele>730.8000000000001</ele><time>2026-05-03T09:55:01.129Z</time></trkpt><trkpt lat="44.1503465" lon="7.9135255"><ele>731.4000000000001</ele><time>2026-05-03T09:55:03.129Z</time></trkpt><trkpt lat="44.1503972" lon="7.9133667"><ele>732.0</ele><time>2026-05-03T09:55:05.129Z</time></trkpt><trkpt lat="44.1504461" lon="7.913269"><ele>732.0</ele><time>2026-05-03T09:55:06.13Z</time></trkpt><trkpt lat="44.1504948" lon="7.9131812"><ele>732.0</ele><time>2026-05-03T09:55:07.129Z</time></trkpt><trkpt lat="44.1505487" lon="7.9131087"><ele>732.0</ele><time>2026-05-03T09:55:08.129Z</time></trkpt><trkpt lat="44.1506054" lon="7.9130234"><ele>732.0</ele><time>2026-05-03T09:55:09.13Z</time></trkpt><trkpt lat="44.1506518" lon="7.912936"><ele>732.0</ele><time>2026-05-03T09:55:10.129Z</time></trkpt><trkpt lat="44.1507161" lon="7.9128715"><ele>732.0</ele><time>2026-05-03T09:55:11.129Z</time></trkpt><trkpt lat="44.1507645" lon="7.9127967"><ele>731.5</ele><time>2026-05-03T09:55:12.129Z</time></trkpt><trkpt lat="44.1508223" lon="7.9127241"><ele>731.0</ele><time>2026-05-03T09:55:13.13Z</time></trkpt><trkpt lat="44.1508796" lon="7.9126499"><ele>730.5</ele><time>2026-05-03T09:55:14.129Z</time></trkpt><trkpt lat="44.1509372" lon="7.9125738"><ele>730.0</ele><time>2026-05-03T09:55:15.129Z</time></trkpt><trkpt lat="44.150992" lon="7.9125071"><ele>729.5</ele><time>2026-05-03T09:55:16.129Z</time></trkpt><trkpt lat="44.1510482" lon="7.9124401"><ele>729.0</ele><time>2026-05-03T09:55:17.129Z</time></trkpt><trkpt lat="44.1511097" lon="7.9123742"><ele>729.0</ele><time>2026-05-03T09:55:18.129Z</time></trkpt><trkpt lat="44.1511878" lon="7.9123178"><ele>729.0</ele><time>2026-05-03T09:55:19.13Z</time></trkpt><trkpt lat="44.1512705" lon="7.9122874"><ele>729.0</ele><time>2026-05-03T09:55:20.129Z</time></trkpt><trkpt lat="44.1513536" lon="7.9122598"><ele>729.0</ele><time>2026-05-03T09:55:21.13Z</time></trkpt><trkpt lat="44.1514417" lon="7.9122442"><ele>729.0</ele><time>2026-05-03T09:55:22.129Z</time></trkpt><trkpt lat="44.1515372" lon="7.9122423"><ele>729.0</ele><time>2026-05-03T09:55:23.129Z</time></trkpt><trkpt lat="44.1516318" lon="7.9122324"><ele>726.25</ele><time>2026-05-03T09:55:24.13Z</time></trkpt><trkpt lat="44.1517493" lon="7.9122399"><ele>723.5</ele><time>2026-05-03T09:55:25.129Z</time></trkpt><trkpt lat="44.1518684" lon="7.9122411"><ele>720.75</ele><time>2026-05-03T09:55:26.129Z</time></trkpt><trkpt lat="44.1519951" lon="7.9122304"><ele>718.0</ele><time>2026-05-03T09:55:27.129Z</time></trkpt><trkpt lat="44.1521237" lon="7.9122158"><ele>718.0</ele><time>2026-05-03T09:55:28.129Z</time></trkpt><trkpt lat="44.1522634" lon="7.9122036"><ele>718.0</ele><time>2026-05-03T09:55:29.129Z</time></trkpt><trkpt lat="44.1524049" lon="7.9121819"><ele>718.0</ele><time>2026-05-03T09:55:30.129Z</time></trkpt><trkpt lat="44.1525401" lon="7.9121676"><ele>718.0</ele><time>2026-05-03T09:55:31.129Z</time></trkpt><trkpt lat="44.1526699" lon="7.9121476"><ele>718.25</ele><time>2026-05-03T09:55:32.129Z</time></trkpt><trkpt lat="44.1528017" lon="7.9121327"><ele>718.5</ele><time>2026-05-03T09:55:33.13Z</time></trkpt><trkpt lat="44.152923" lon="7.9121398"><ele>718.75</ele><time>2026-05-03T09:55:34.129Z</time></trkpt><trkpt lat="44.1530516" lon="7.912162"><ele>719.0</ele><time>2026-05-03T09:55:35.129Z</time></trkpt><trkpt lat="44.1531872" lon="7.9121912"><ele>719.0</ele><time>2026-05-03T09:55:36.129Z</time></trkpt><trkpt lat="44.1533248" lon="7.9122412"><ele>719.0</ele><time>2026-05-03T09:55:37.129Z</time></trkpt><trkpt lat="44.1534601" lon="7.9123176"><ele>719.0</ele><time>2026-05-03T09:55:38.129Z</time></trkpt><trkpt lat="44.1535937" lon="7.912425"><ele>719.0</ele><time>2026-05-03T09:55:39.129Z</time></trkpt><trkpt lat="44.1537176" lon="7.9125462"><ele>719.3333333333333</ele><time>2026-05-03T09:55:40.129Z</time></trkpt><trkpt lat="44.1538389" lon="7.9126853"><ele>719.6666666666666</ele><time>2026-05-03T09:55:41.129Z</time></trkpt><trkpt lat="44.1539507" lon="7.9128363"><ele>720.0</ele><time>2026-05-03T09:55:42.129Z</time></trkpt><trkpt lat="44.1540457" lon="7.9130143"><ele>720.0</ele><time>2026-05-03T09:55:43.13Z</time></trkpt><trkpt lat="44.1541412" lon="7.9132034"><ele>720.0</ele><time>2026-05-03T09:55:44.13Z</time></trkpt><trkpt lat="44.1542284" lon="7.9134003"><ele>720.0</ele><time>2026-05-03T09:55:45.129Z</time></trkpt><trkpt lat="44.1543173" lon="7.9136066"><ele>717.6666666666666</ele><time>2026-05-03T09:55:46.129Z</time></trkpt><trkpt lat="44.1543963" lon="7.9138125"><ele>715.3333333333333</ele><time>2026-05-03T09:55:47.129Z</time></trkpt><trkpt lat="44.1544659" lon="7.9140216"><ele>713.0</ele><time>2026-05-03T09:55:48.129Z</time></trkpt><trkpt lat="44.1546279" lon="7.9145559"><ele>712.0</ele><time>2026-05-03T09:55:51.037Z</time></trkpt><trkpt lat="44.1547311" lon="7.9149107"><ele>711.0</ele><time>2026-05-03T09:55:52.129Z</time></trkpt><trkpt lat="44.1547883" lon="7.9151366"><ele>710.0</ele><time>2026-05-03T09:55:53.129Z</time></trkpt><trkpt lat="44.1548465" lon="7.9153628"><ele>712.3333333333333</ele><time>2026-05-03T09:55:54.13Z</time></trkpt><trkpt lat="44.1549021" lon="7.9155726"><ele>714.6666666666666</ele><time>2026-05-03T09:55:55.13Z</time></trkpt><trkpt lat="44.1549597" lon="7.91578"><ele>717.0</ele><time>2026-05-03T09:55:56.129Z</time></trkpt><trkpt lat="44.155012" lon="7.9159779"><ele>717.0</ele><time>2026-05-03T09:55:57.129Z</time></trkpt><trkpt lat="44.1550554" lon="7.9161702"><ele>717.0</ele><time>2026-05-03T09:55:58.13Z</time></trkpt><trkpt lat="44.1550931" lon="7.9163608"><ele>717.0</ele><time>2026-05-03T09:55:59.129Z</time></trkpt><trkpt lat="44.1550777" lon="7.9165374"><ele>717.0</ele><time>2026-05-03T09:56:00.129Z</time></trkpt><trkpt lat="44.1550568" lon="7.9167137"><ele>715.6666666666666</ele><time>2026-05-03T09:56:01.129Z</time></trkpt><trkpt lat="44.1550033" lon="7.9168938"><ele>714.3333333333333</ele><time>2026-05-03T09:56:02.129Z</time></trkpt><trkpt lat="44.1549629" lon="7.9171023"><ele>713.0</ele><time>2026-05-03T09:56:03.13Z</time></trkpt><trkpt lat="44.1549298" lon="7.9173261"><ele>713.0</ele><time>2026-05-03T09:56:04.129Z</time></trkpt><trkpt lat="44.1548978" lon="7.9175659"><ele>713.0</ele><time>2026-05-03T09:56:05.13Z</time></trkpt><trkpt lat="44.154859" lon="7.9178177"><ele>713.0</ele><time>2026-05-03T09:56:06.129Z</time></trkpt><trkpt lat="44.1548235" lon="7.9180775"><ele>710.3333333333333</ele><time>2026-05-03T09:56:07.129Z</time></trkpt><trkpt lat="44.1547968" lon="7.9183269"><ele>707.6666666666666</ele><time>2026-05-03T09:56:08.129Z</time></trkpt><trkpt lat="44.1547682" lon="7.9185711"><ele>705.0</ele><time>2026-05-03T09:56:09.129Z</time></trkpt><trkpt lat="44.1547344" lon="7.9188124"><ele>705.0</ele><time>2026-05-03T09:56:10.129Z</time></trkpt><trkpt lat="44.1547016" lon="7.919062"><ele>705.0</ele><time>2026-05-03T09:56:11.13Z</time></trkpt><trkpt lat="44.1546747" lon="7.9193098"><ele>705.0</ele><time>2026-05-03T09:56:12.129Z</time></trkpt><trkpt lat="44.1546553" lon="7.9195721"><ele>704.3333333333334</ele><time>2026-05-03T09:56:13.129Z</time></trkpt><trkpt lat="44.1546354" lon="7.9198375"><ele>703.6666666666667</ele><time>2026-05-03T09:56:14.129Z</time></trkpt><trkpt lat="44.1546226" lon="7.9201106"><ele>703.0</ele><time>2026-05-03T09:56:15.129Z</time></trkpt><trkpt lat="44.1546203" lon="7.9203814"><ele>701.6666666666667</ele><time>2026-05-03T09:56:16.129Z</time></trkpt><trkpt lat="44.1546193" lon="7.9206483"><ele>700.3333333333334</ele><time>2026-05-03T09:56:17.129Z</time></trkpt><trkpt lat="44.154627" lon="7.9209122"><ele>699.0</ele><time>2026-05-03T09:56:18.129Z</time></trkpt><trkpt lat="44.1546448" lon="7.921174"><ele>699.0</ele><time>2026-05-03T09:56:19.129Z</time></trkpt><trkpt lat="44.154674" lon="7.9214313"><ele>699.0</ele><time>2026-05-03T09:56:20.13Z</time></trkpt><trkpt lat="44.1547109" lon="7.9216904"><ele>699.0</ele><time>2026-05-03T09:56:21.13Z</time></trkpt><trkpt lat="44.1547516" lon="7.9219453"><ele>698.6666666666666</ele><time>2026-05-03T09:56:22.129Z</time></trkpt><trkpt lat="44.1547932" lon="7.9222042"><ele>698.3333333333333</ele><time>2026-05-03T09:56:23.129Z</time></trkpt><trkpt lat="44.1548306" lon="7.9224644"><ele>698.0</ele><time>2026-05-03T09:56:24.129Z</time></trkpt><trkpt lat="44.1548693" lon="7.9227275"><ele>698.3333333333333</ele><time>2026-05-03T09:56:25.13Z</time></trkpt><trkpt lat="44.1549119" lon="7.9229897"><ele>698.6666666666666</ele><time>2026-05-03T09:56:26.129Z</time></trkpt><trkpt lat="44.1549564" lon="7.9232549"><ele>699.0</ele><time>2026-05-03T09:56:27.129Z</time></trkpt><trkpt lat="44.1549999" lon="7.9235205"><ele>698.3333333333334</ele><time>2026-05-03T09:56:28.129Z</time></trkpt><trkpt lat="44.1550441" lon="7.9237894"><ele>697.6666666666667</ele><time>2026-05-03T09:56:29.13Z</time></trkpt><trkpt lat="44.1550854" lon="7.9240575"><ele>697.0</ele><time>2026-05-03T09:56:30.129Z</time></trkpt><trkpt lat="44.1551248" lon="7.9243279"><ele>696.6666666666667</ele><time>2026-05-03T09:56:31.129Z</time></trkpt><trkpt lat="44.1551629" lon="7.9246014"><ele>696.3333333333334</ele><time>2026-05-03T09:56:32.129Z</time></trkpt><trkpt lat="44.1552047" lon="7.9248768"><ele>696.0</ele><time>2026-05-03T09:56:33.129Z</time></trkpt><trkpt lat="44.1552508" lon="7.9251529"><ele>696.0</ele><time>2026-05-03T09:56:34.129Z</time></trkpt><trkpt lat="44.1552952" lon="7.9254316"><ele>696.0</ele><time>2026-05-03T09:56:35.129Z</time></trkpt><trkpt lat="44.1553408" lon="7.9257063"><ele>696.0</ele><time>2026-05-03T09:56:36.129Z</time></trkpt><trkpt lat="44.1553854" lon="7.9259821"><ele>696.0</ele><time>2026-05-03T09:56:37.129Z</time></trkpt><trkpt lat="44.1554339" lon="7.9262541"><ele>696.0</ele><time>2026-05-03T09:56:38.13Z</time></trkpt><trkpt lat="44.1554814" lon="7.9265232"><ele>696.0</ele><time>2026-05-03T09:56:39.129Z</time></trkpt><trkpt lat="44.1555234" lon="7.9267954"><ele>695.6666666666666</ele><time>2026-05-03T09:56:40.13Z</time></trkpt><trkpt lat="44.1555659" lon="7.9270656"><ele>695.3333333333333</ele><time>2026-05-03T09:56:41.129Z</time></trkpt><trkpt lat="44.1556115" lon="7.9273384"><ele>695.0</ele><time>2026-05-03T09:56:42.129Z</time></trkpt><trkpt lat="44.1556612" lon="7.9276113"><ele>695.0</ele><time>2026-05-03T09:56:43.129Z</time></trkpt><trkpt lat="44.1557133" lon="7.927881"><ele>695.0</ele><time>2026-05-03T09:56:44.13Z</time></trkpt><trkpt lat="44.1557567" lon="7.9281535"><ele>695.0</ele><time>2026-05-03T09:56:45.129Z</time></trkpt><trkpt lat="44.1557993" lon="7.9284283"><ele>693.3333333333333</ele><time>2026-05-03T09:56:46.129Z</time></trkpt><trkpt lat="44.1558433" lon="7.9287016"><ele>691.6666666666666</ele><time>2026-05-03T09:56:47.129Z</time></trkpt><trkpt lat="44.1558911" lon="7.9289818"><ele>690.0</ele><time>2026-05-03T09:56:48.129Z</time></trkpt><trkpt lat="44.1559385" lon="7.9292697"><ele>690.0</ele><time>2026-05-03T09:56:49.129Z</time></trkpt><trkpt lat="44.1559861" lon="7.9295623"><ele>690.0</ele><time>2026-05-03T09:56:50.129Z</time></trkpt><trkpt lat="44.1560342" lon="7.9298574"><ele>690.0</ele><time>2026-05-03T09:56:51.129Z</time></trkpt><trkpt lat="44.1560822" lon="7.9301459"><ele>689.6666666666666</ele><time>2026-05-03T09:56:52.129Z</time></trkpt><trkpt lat="44.1561294" lon="7.9304376"><ele>689.3333333333333</ele><time>2026-05-03T09:56:53.129Z</time></trkpt><trkpt lat="44.1561772" lon="7.9307263"><ele>689.0</ele><time>2026-05-03T09:56:54.129Z</time></trkpt><trkpt lat="44.1562214" lon="7.9310047"><ele>688.6666666666666</ele><time>2026-05-03T09:56:55.13Z</time></trkpt><trkpt lat="44.1562648" lon="7.9312752"><ele>688.3333333333334</ele><time>2026-05-03T09:56:56.129Z</time></trkpt><trkpt lat="44.1563113" lon="7.9315467"><ele>688.0</ele><time>2026-05-03T09:56:57.13Z</time></trkpt><trkpt lat="44.1563521" lon="7.9318139"><ele>688.0</ele><time>2026-05-03T09:56:58.13Z</time></trkpt><trkpt lat="44.15639" lon="7.9320865"><ele>688.0</ele><time>2026-05-03T09:56:59.129Z</time></trkpt><trkpt lat="44.1564286" lon="7.9323622"><ele>688.0</ele><time>2026-05-03T09:57:00.129Z</time></trkpt><trkpt lat="44.156471" lon="7.9326409"><ele>688.0</ele><time>2026-05-03T09:57:01.129Z</time></trkpt><trkpt lat="44.1565145" lon="7.9329212"><ele>688.0</ele><time>2026-05-03T09:57:02.129Z</time></trkpt><trkpt lat="44.1565604" lon="7.9332003"><ele>688.0</ele><time>2026-05-03T09:57:03.129Z</time></trkpt><trkpt lat="44.1566073" lon="7.9334785"><ele>687.6666666666667</ele><time>2026-05-03T09:57:04.129Z</time></trkpt><trkpt lat="44.1566566" lon="7.9337556"><ele>687.3333333333334</ele><time>2026-05-03T09:57:05.129Z</time></trkpt><trkpt lat="44.1567087" lon="7.9340379"><ele>687.0</ele><time>2026-05-03T09:57:06.13Z</time></trkpt><trkpt lat="44.1567576" lon="7.9343208"><ele>686.6666666666666</ele><time>2026-05-03T09:57:07.129Z</time></trkpt><trkpt lat="44.1568079" lon="7.9346066"><ele>686.3333333333333</ele><time>2026-05-03T09:57:08.13Z</time></trkpt><trkpt lat="44.1568576" lon="7.9348912"><ele>686.0</ele><time>2026-05-03T09:57:09.129Z</time></trkpt><trkpt lat="44.1569046" lon="7.9351756"><ele>686.0</ele><time>2026-05-03T09:57:10.129Z</time></trkpt><trkpt lat="44.1569421" lon="7.9354607"><ele>686.0</ele><time>2026-05-03T09:57:11.129Z</time></trkpt><trkpt lat="44.156974" lon="7.9357498"><ele>686.0</ele><time>2026-05-03T09:57:12.129Z</time></trkpt><trkpt lat="44.1569965" lon="7.9360428"><ele>686.0</ele><time>2026-05-03T09:57:13.13Z</time></trkpt><trkpt lat="44.1570147" lon="7.9363436"><ele>686.0</ele><time>2026-05-03T09:57:14.129Z</time></trkpt><trkpt lat="44.1570335" lon="7.9366446"><ele>686.0</ele><time>2026-05-03T09:57:15.129Z</time></trkpt><trkpt lat="44.157054" lon="7.9369466"><ele>686.0</ele><time>2026-05-03T09:57:16.129Z</time></trkpt><trkpt lat="44.1570731" lon="7.9372462"><ele>686.0</ele><time>2026-05-03T09:57:17.129Z</time></trkpt><trkpt lat="44.1570967" lon="7.9375437"><ele>686.0</ele><time>2026-05-03T09:57:18.129Z</time></trkpt><trkpt lat="44.1571274" lon="7.9378364"><ele>685.6666666666666</ele><time>2026-05-03T09:57:19.13Z</time></trkpt><trkpt lat="44.157163" lon="7.938122"><ele>685.3333333333334</ele><time>2026-05-03T09:57:20.13Z</time></trkpt><trkpt lat="44.157196" lon="7.938407"><ele>685.0</ele><time>2026-05-03T09:57:21.129Z</time></trkpt><trkpt lat="44.1572305" lon="7.93869"><ele>685.0</ele><time>2026-05-03T09:57:22.129Z</time></trkpt><trkpt lat="44.1572677" lon="7.9389744"><ele>685.0</ele><time>2026-05-03T09:57:23.129Z</time></trkpt><trkpt lat="44.1573069" lon="7.9392604"><ele>685.0</ele><time>2026-05-03T09:57:24.129Z</time></trkpt><trkpt lat="44.1573432" lon="7.939547"><ele>685.6666666666667</ele><time>2026-05-03T09:57:25.129Z</time></trkpt><trkpt lat="44.1573788" lon="7.939832"><ele>686.3333333333334</ele><time>2026-05-03T09:57:26.129Z</time></trkpt><trkpt lat="44.1574205" lon="7.9401147"><ele>687.0</ele><time>2026-05-03T09:57:27.129Z</time></trkpt><trkpt lat="44.1574637" lon="7.9403974"><ele>684.3333333333334</ele><time>2026-05-03T09:57:28.129Z</time></trkpt><trkpt lat="44.1575082" lon="7.9406841"><ele>681.6666666666667</ele><time>2026-05-03T09:57:29.13Z</time></trkpt><trkpt lat="44.1575544" lon="7.9409727"><ele>679.0</ele><time>2026-05-03T09:57:30.129Z</time></trkpt><trkpt lat="44.1576022" lon="7.9412693"><ele>678.6666666666667</ele><time>2026-05-03T09:57:31.129Z</time></trkpt><trkpt lat="44.1576533" lon="7.9415748"><ele>678.3333333333334</ele><time>2026-05-03T09:57:32.13Z</time></trkpt><trkpt lat="44.1576999" lon="7.9418802"><ele>678.0</ele><time>2026-05-03T09:57:33.129Z</time></trkpt><trkpt lat="44.1577425" lon="7.9421823"><ele>676.6666666666666</ele><time>2026-05-03T09:57:34.129Z</time></trkpt><trkpt lat="44.1577829" lon="7.942482"><ele>675.3333333333333</ele><time>2026-05-03T09:57:35.129Z</time></trkpt><trkpt lat="44.1578192" lon="7.9427766"><ele>674.0</ele><time>2026-05-03T09:57:36.129Z</time></trkpt><trkpt lat="44.1578539" lon="7.9430694"><ele>673.6666666666666</ele><time>2026-05-03T09:57:37.129Z</time></trkpt><trkpt lat="44.1578852" lon="7.9433579"><ele>673.3333333333334</ele><time>2026-05-03T09:57:38.13Z</time></trkpt><trkpt lat="44.1579031" lon="7.9436411"><ele>673.0</ele><time>2026-05-03T09:57:39.129Z</time></trkpt><trkpt lat="44.1579104" lon="7.9439134"><ele>672.6666666666667</ele><time>2026-05-03T09:57:40.129Z</time></trkpt><trkpt lat="44.1579207" lon="7.9441741"><ele>672.3333333333334</ele><time>2026-05-03T09:57:41.129Z</time></trkpt><trkpt lat="44.1579443" lon="7.944417"><ele>672.0</ele><time>2026-05-03T09:57:42.129Z</time></trkpt><trkpt lat="44.1579984" lon="7.944644"><ele>673.0</ele><time>2026-05-03T09:57:43.129Z</time></trkpt><trkpt lat="44.1580808" lon="7.9448489"><ele>674.0</ele><time>2026-05-03T09:57:44.129Z</time></trkpt><trkpt lat="44.1581794" lon="7.9450338"><ele>675.0</ele><time>2026-05-03T09:57:45.129Z</time></trkpt><trkpt lat="44.1582736" lon="7.9452285"><ele>676.0</ele><time>2026-05-03T09:57:46.129Z</time></trkpt><trkpt lat="44.1583213" lon="7.9454701"><ele>677.0</ele><time>2026-05-03T09:57:47.129Z</time></trkpt><trkpt lat="44.1583296" lon="7.9457275"><ele>678.0</ele><time>2026-05-03T09:57:48.129Z</time></trkpt><trkpt lat="44.1583442" lon="7.9459877"><ele>678.3333333333334</ele><time>2026-05-03T09:57:49.129Z</time></trkpt><trkpt lat="44.1583614" lon="7.9462399"><ele>678.6666666666667</ele><time>2026-05-03T09:57:50.129Z</time></trkpt><trkpt lat="44.1583748" lon="7.9464877"><ele>679.0</ele><time>2026-05-03T09:57:51.129Z</time></trkpt><trkpt lat="44.1583881" lon="7.9467372"><ele>679.0</ele><time>2026-05-03T09:57:52.13Z</time></trkpt><trkpt lat="44.1583966" lon="7.9469896"><ele>679.0</ele><time>2026-05-03T09:57:53.129Z</time></trkpt><trkpt lat="44.158403" lon="7.9472463"><ele>679.0</ele><time>2026-05-03T09:57:54.129Z</time></trkpt><trkpt lat="44.1584005" lon="7.9475104"><ele>678.3333333333334</ele><time>2026-05-03T09:57:55.129Z</time></trkpt><trkpt lat="44.1583891" lon="7.9477748"><ele>677.6666666666666</ele><time>2026-05-03T09:57:56.13Z</time></trkpt><trkpt lat="44.1583783" lon="7.9480356"><ele>677.0</ele><time>2026-05-03T09:57:57.129Z</time></trkpt><trkpt lat="44.1583706" lon="7.948297"><ele>679.0</ele><time>2026-05-03T09:57:58.129Z</time></trkpt><trkpt lat="44.1583602" lon="7.9485597"><ele>681.0</ele><time>2026-05-03T09:57:59.129Z</time></trkpt><trkpt lat="44.1583473" lon="7.9488258"><ele>683.0</ele><time>2026-05-03T09:58:00.129Z</time></trkpt><trkpt lat="44.1583321" lon="7.9490923"><ele>683.3333333333333</ele><time>2026-05-03T09:58:01.13Z</time></trkpt><trkpt lat="44.1583156" lon="7.9493597"><ele>683.6666666666666</ele><time>2026-05-03T09:58:02.13Z</time></trkpt><trkpt lat="44.1583029" lon="7.9496247"><ele>684.0</ele><time>2026-05-03T09:58:03.129Z</time></trkpt><trkpt lat="44.1582925" lon="7.9498881"><ele>685.6666666666666</ele><time>2026-05-03T09:58:04.129Z</time></trkpt><trkpt lat="44.1582787" lon="7.9501538"><ele>687.3333333333333</ele><time>2026-05-03T09:58:05.13Z</time></trkpt><trkpt lat="44.1582671" lon="7.9504239"><ele>689.0</ele><time>2026-05-03T09:58:06.129Z</time></trkpt><trkpt lat="44.1582554" lon="7.9506944"><ele>686.6666666666666</ele><time>2026-05-03T09:58:07.129Z</time></trkpt><trkpt lat="44.1582418" lon="7.9509676"><ele>684.3333333333334</ele><time>2026-05-03T09:58:08.129Z</time></trkpt><trkpt lat="44.1582331" lon="7.9512428"><ele>682.0</ele><time>2026-05-03T09:58:09.129Z</time></trkpt><trkpt lat="44.1582277" lon="7.9515191"><ele>681.0</ele><time>2026-05-03T09:58:10.129Z</time></trkpt><trkpt lat="44.1582275" lon="7.9517992"><ele>680.0</ele><time>2026-05-03T09:58:11.129Z</time></trkpt><trkpt lat="44.1582365" lon="7.9520802"><ele>679.0</ele><time>2026-05-03T09:58:12.13Z</time></trkpt><trkpt lat="44.1582396" lon="7.9523614"><ele>677.6666666666667</ele><time>2026-05-03T09:58:13.129Z</time></trkpt><trkpt lat="44.1582432" lon="7.9526411"><ele>676.3333333333334</ele><time>2026-05-03T09:58:14.129Z</time></trkpt><trkpt lat="44.1582522" lon="7.9529161"><ele>675.0</ele><time>2026-05-03T09:58:15.129Z</time></trkpt><trkpt lat="44.1582599" lon="7.9531872"><ele>674.3333333333334</ele><time>2026-05-03T09:58:16.129Z</time></trkpt><trkpt lat="44.158265" lon="7.953457"><ele>673.6666666666667</ele><time>2026-05-03T09:58:17.129Z</time></trkpt><trkpt lat="44.1582695" lon="7.9537279"><ele>673.0</ele><time>2026-05-03T09:58:18.13Z</time></trkpt><trkpt lat="44.1582731" lon="7.9539989"><ele>673.3333333333334</ele><time>2026-05-03T09:58:19.129Z</time></trkpt><trkpt lat="44.1582765" lon="7.9542688"><ele>673.6666666666666</ele><time>2026-05-03T09:58:20.13Z</time></trkpt><trkpt lat="44.1582776" lon="7.9545366"><ele>674.0</ele><time>2026-05-03T09:58:21.129Z</time></trkpt><trkpt lat="44.1582783" lon="7.9548085"><ele>673.0</ele><time>2026-05-03T09:58:22.129Z</time></trkpt><trkpt lat="44.1582791" lon="7.955084"><ele>672.0</ele><time>2026-05-03T09:58:23.131Z</time></trkpt><trkpt lat="44.1582945" lon="7.9553601"><ele>671.0</ele><time>2026-05-03T09:58:24.129Z</time></trkpt><trkpt lat="44.1583328" lon="7.9556335"><ele>669.0</ele><time>2026-05-03T09:58:25.129Z</time></trkpt><trkpt lat="44.1584005" lon="7.9558985"><ele>667.0</ele><time>2026-05-03T09:58:26.129Z</time></trkpt><trkpt lat="44.158496" lon="7.9561469"><ele>665.0</ele><time>2026-05-03T09:58:27.13Z</time></trkpt><trkpt lat="44.1586147" lon="7.9563733"><ele>665.0</ele><time>2026-05-03T09:58:28.129Z</time></trkpt><trkpt lat="44.1587501" lon="7.9565838"><ele>665.0</ele><time>2026-05-03T09:58:29.129Z</time></trkpt><trkpt lat="44.1588966" lon="7.9567858"><ele>665.0</ele><time>2026-05-03T09:58:30.129Z</time></trkpt><trkpt lat="44.1590458" lon="7.9569864"><ele>664.6666666666666</ele><time>2026-05-03T09:58:31.129Z</time></trkpt><trkpt lat="44.1591929" lon="7.957185"><ele>664.3333333333334</ele><time>2026-05-03T09:58:32.129Z</time></trkpt><trkpt lat="44.1593392" lon="7.9573768"><ele>664.0</ele><time>2026-05-03T09:58:33.129Z</time></trkpt><trkpt lat="44.1594824" lon="7.95757"><ele>663.3333333333334</ele><time>2026-05-03T09:58:34.129Z</time></trkpt><trkpt lat="44.1596246" lon="7.9577673"><ele>662.6666666666666</ele><time>2026-05-03T09:58:35.129Z</time></trkpt><trkpt lat="44.1597645" lon="7.9579703"><ele>662.0</ele><time>2026-05-03T09:58:36.13Z</time></trkpt><trkpt lat="44.1599015" lon="7.9581824"><ele>662.3333333333333</ele><time>2026-05-03T09:58:37.129Z</time></trkpt><trkpt lat="44.1600249" lon="7.9584164"><ele>662.6666666666666</ele><time>2026-05-03T09:58:38.129Z</time></trkpt><trkpt lat="44.1601305" lon="7.9586659"><ele>663.0</ele><time>2026-05-03T09:58:39.129Z</time></trkpt><trkpt lat="44.1602215" lon="7.9589392"><ele>662.3333333333334</ele><time>2026-05-03T09:58:40.129Z</time></trkpt><trkpt lat="44.1602996" lon="7.9592259"><ele>661.6666666666667</ele><time>2026-05-03T09:58:41.13Z</time></trkpt><trkpt lat="44.1603716" lon="7.9595136"><ele>661.0</ele><time>2026-05-03T09:58:42.13Z</time></trkpt><trkpt lat="44.1604317" lon="7.9598075"><ele>661.6666666666667</ele><time>2026-05-03T09:58:43.129Z</time></trkpt><trkpt lat="44.1604561" lon="7.9601091"><ele>662.3333333333334</ele><time>2026-05-03T09:58:44.129Z</time></trkpt><trkpt lat="44.1604455" lon="7.9604125"><ele>663.0</ele><time>2026-05-03T09:58:45.13Z</time></trkpt><trkpt lat="44.1604172" lon="7.9607146"><ele>662.3333333333334</ele><time>2026-05-03T09:58:46.129Z</time></trkpt><trkpt lat="44.1603886" lon="7.9610155"><ele>661.6666666666667</ele><time>2026-05-03T09:58:47.129Z</time></trkpt><trkpt lat="44.1603582" lon="7.9613118"><ele>661.0</ele><time>2026-05-03T09:58:48.13Z</time></trkpt><trkpt lat="44.1603297" lon="7.9616065"><ele>662.3333333333334</ele><time>2026-05-03T09:58:49.129Z</time></trkpt><trkpt lat="44.1603001" lon="7.9619017"><ele>663.6666666666666</ele><time>2026-05-03T09:58:50.129Z</time></trkpt><trkpt lat="44.1602799" lon="7.9621996"><ele>665.0</ele><time>2026-05-03T09:58:51.129Z</time></trkpt><trkpt lat="44.1602847" lon="7.962501"><ele>664.0</ele><time>2026-05-03T09:58:52.129Z</time></trkpt><trkpt lat="44.1603164" lon="7.9628037"><ele>663.0</ele><time>2026-05-03T09:58:53.129Z</time></trkpt><trkpt lat="44.1603666" lon="7.9630991"><ele>662.0</ele><time>2026-05-03T09:58:54.13Z</time></trkpt><trkpt lat="44.1604271" lon="7.9633848"><ele>664.0</ele><time>2026-05-03T09:58:55.129Z</time></trkpt><trkpt lat="44.1604911" lon="7.9636548"><ele>666.0</ele><time>2026-05-03T09:58:56.129Z</time></trkpt><trkpt lat="44.1605547" lon="7.9639062"><ele>668.0</ele><time>2026-05-03T09:58:57.13Z</time></trkpt><trkpt lat="44.16062" lon="7.9641412"><ele>668.3333333333333</ele><time>2026-05-03T09:58:58.129Z</time></trkpt><trkpt lat="44.1606979" lon="7.9643518"><ele>668.6666666666666</ele><time>2026-05-03T09:58:59.13Z</time></trkpt><trkpt lat="44.1607843" lon="7.9645414"><ele>669.0</ele><time>2026-05-03T09:59:00.13Z</time></trkpt><trkpt lat="44.1608527" lon="7.9647299"><ele>665.3333333333334</ele><time>2026-05-03T09:59:01.129Z</time></trkpt><trkpt lat="44.1609092" lon="7.96493"><ele>661.6666666666667</ele><time>2026-05-03T09:59:02.129Z</time></trkpt><trkpt lat="44.1609655" lon="7.965136"><ele>658.0</ele><time>2026-05-03T09:59:03.13Z</time></trkpt><trkpt lat="44.1610243" lon="7.9653472"><ele>656.3333333333334</ele><time>2026-05-03T09:59:04.129Z</time></trkpt><trkpt lat="44.1610873" lon="7.9655618"><ele>654.6666666666666</ele><time>2026-05-03T09:59:05.129Z</time></trkpt><trkpt lat="44.1611677" lon="7.965765"><ele>653.0</ele><time>2026-05-03T09:59:06.129Z</time></trkpt><trkpt lat="44.1612786" lon="7.9659434"><ele>653.0</ele><time>2026-05-03T09:59:07.13Z</time></trkpt><trkpt lat="44.1614059" lon="7.9661008"><ele>653.0</ele><time>2026-05-03T09:59:08.129Z</time></trkpt><trkpt lat="44.161527" lon="7.9662627"><ele>653.0</ele><time>2026-05-03T09:59:09.129Z</time></trkpt><trkpt lat="44.1616193" lon="7.9664527"><ele>657.0</ele><time>2026-05-03T09:59:10.13Z</time></trkpt><trkpt lat="44.1616817" lon="7.9666688"><ele>661.0</ele><time>2026-05-03T09:59:11.13Z</time></trkpt><trkpt lat="44.161725" lon="7.9668895"><ele>665.0</ele><time>2026-05-03T09:59:12.129Z</time></trkpt><trkpt lat="44.1617616" lon="7.9671071"><ele>665.0</ele><time>2026-05-03T09:59:13.129Z</time></trkpt><trkpt lat="44.1617909" lon="7.9673167"><ele>665.0</ele><time>2026-05-03T09:59:14.13Z</time></trkpt><trkpt lat="44.1618128" lon="7.9675166"><ele>665.0</ele><time>2026-05-03T09:59:15.129Z</time></trkpt><trkpt lat="44.1618299" lon="7.9677105"><ele>665.0</ele><time>2026-05-03T09:59:16.13Z</time></trkpt><trkpt lat="44.1618453" lon="7.9678995"><ele>663.25</ele><time>2026-05-03T09:59:17.129Z</time></trkpt><trkpt lat="44.1618579" lon="7.9680814"><ele>661.5</ele><time>2026-05-03T09:59:18.13Z</time></trkpt><trkpt lat="44.1618747" lon="7.9682563"><ele>659.75</ele><time>2026-05-03T09:59:19.129Z</time></trkpt><trkpt lat="44.1618997" lon="7.9684344"><ele>658.0</ele><time>2026-05-03T09:59:20.129Z</time></trkpt><trkpt lat="44.1619438" lon="7.9686166"><ele>657.0</ele><time>2026-05-03T09:59:21.13Z</time></trkpt><trkpt lat="44.1620017" lon="7.9688021"><ele>656.0</ele><time>2026-05-03T09:59:22.129Z</time></trkpt><trkpt lat="44.1620675" lon="7.9689938"><ele>655.0</ele><time>2026-05-03T09:59:23.129Z</time></trkpt><trkpt lat="44.1621364" lon="7.9691957"><ele>653.3333333333334</ele><time>2026-05-03T09:59:24.129Z</time></trkpt><trkpt lat="44.1622063" lon="7.9694057"><ele>651.6666666666666</ele><time>2026-05-03T09:59:25.129Z</time></trkpt><trkpt lat="44.1622738" lon="7.9696186"><ele>650.0</ele><time>2026-05-03T09:59:26.129Z</time></trkpt><trkpt lat="44.1623396" lon="7.9698271"><ele>650.25</ele><time>2026-05-03T09:59:27.129Z</time></trkpt><trkpt lat="44.162409" lon="7.9700255"><ele>650.5</ele><time>2026-05-03T09:59:28.129Z</time></trkpt><trkpt lat="44.1624755" lon="7.9702082"><ele>650.75</ele><time>2026-05-03T09:59:29.129Z</time></trkpt><trkpt lat="44.1625574" lon="7.9703729"><ele>651.0</ele><time>2026-05-03T09:59:30.129Z</time></trkpt><trkpt lat="44.1626659" lon="7.970524"><ele>651.0</ele><time>2026-05-03T09:59:31.129Z</time></trkpt><trkpt lat="44.1627831" lon="7.9706652"><ele>651.0</ele><time>2026-05-03T09:59:32.129Z</time></trkpt><trkpt lat="44.1629092" lon="7.9707974"><ele>651.0</ele><time>2026-05-03T09:59:33.13Z</time></trkpt><trkpt lat="44.1630495" lon="7.9709308"><ele>650.6666666666666</ele><time>2026-05-03T09:59:34.129Z</time></trkpt><trkpt lat="44.1632054" lon="7.9710667"><ele>650.3333333333333</ele><time>2026-05-03T09:59:35.13Z</time></trkpt><trkpt lat="44.1633876" lon="7.9712191"><ele>650.0</ele><time>2026-05-03T09:59:36.129Z</time></trkpt><trkpt lat="44.1635445" lon="7.9713744"><ele>650.0</ele><time>2026-05-03T09:59:37.129Z</time></trkpt><trkpt lat="44.1636986" lon="7.9715244"><ele>650.0</ele><time>2026-05-03T09:59:38.129Z</time></trkpt><trkpt lat="44.1638469" lon="7.9716652"><ele>650.0</ele><time>2026-05-03T09:59:39.13Z</time></trkpt><trkpt lat="44.1639955" lon="7.9717838"><ele>649.0</ele><time>2026-05-03T09:59:40.129Z</time></trkpt><trkpt lat="44.1641411" lon="7.9718784"><ele>648.0</ele><time>2026-05-03T09:59:41.129Z</time></trkpt><trkpt lat="44.1642961" lon="7.9719519"><ele>647.0</ele><time>2026-05-03T09:59:42.129Z</time></trkpt><trkpt lat="44.1644692" lon="7.9720174"><ele>647.0</ele><time>2026-05-03T09:59:43.129Z</time></trkpt><trkpt lat="44.1646546" lon="7.9720828"><ele>647.0</ele><time>2026-05-03T09:59:44.129Z</time></trkpt><trkpt lat="44.164851" lon="7.9721444"><ele>647.0</ele><time>2026-05-03T09:59:45.129Z</time></trkpt><trkpt lat="44.165064" lon="7.9722042"><ele>648.0</ele><time>2026-05-03T09:59:46.129Z</time></trkpt><trkpt lat="44.1652942" lon="7.9722623"><ele>649.0</ele><time>2026-05-03T09:59:47.129Z</time></trkpt><trkpt lat="44.165525" lon="7.9723223"><ele>649.3333333333334</ele><time>2026-05-03T09:59:48.129Z</time></trkpt><trkpt lat="44.1657478" lon="7.9723834"><ele>649.6666666666666</ele><time>2026-05-03T09:59:49.13Z</time></trkpt><trkpt lat="44.1659607" lon="7.9724565"><ele>650.0</ele><time>2026-05-03T09:59:50.129Z</time></trkpt><trkpt lat="44.1661619" lon="7.9725228"><ele>649.3333333333333</ele><time>2026-05-03T09:59:51.129Z</time></trkpt><trkpt lat="44.1663533" lon="7.9725792"><ele>648.6666666666666</ele><time>2026-05-03T09:59:52.129Z</time></trkpt><trkpt lat="44.1665415" lon="7.9726354"><ele>648.0</ele><time>2026-05-03T09:59:53.129Z</time></trkpt><trkpt lat="44.1667222" lon="7.9727019"><ele>648.0</ele><time>2026-05-03T09:59:54.129Z</time></trkpt><trkpt lat="44.1668923" lon="7.9728023"><ele>648.0</ele><time>2026-05-03T09:59:55.129Z</time></trkpt><trkpt lat="44.1670527" lon="7.9729437"><ele>648.0</ele><time>2026-05-03T09:59:56.13Z</time></trkpt><trkpt lat="44.1671989" lon="7.9731123"><ele>648.0</ele><time>2026-05-03T09:59:57.13Z</time></trkpt><trkpt lat="44.167326" lon="7.973298"><ele>648.0</ele><time>2026-05-03T09:59:58.13Z</time></trkpt><trkpt lat="44.167443" lon="7.9734925"><ele>648.0</ele><time>2026-05-03T09:59:59.128Z</time></trkpt><trkpt lat="44.1675552" lon="7.9736823"><ele>646.3333333333334</ele><time>2026-05-03T10:00:00.129Z</time></trkpt><trkpt lat="44.16768" lon="7.9738662"><ele>644.6666666666667</ele><time>2026-05-03T10:00:01.129Z</time></trkpt><trkpt lat="44.1678157" lon="7.9740378"><ele>643.0</ele><time>2026-05-03T10:00:02.129Z</time></trkpt><trkpt lat="44.1679945" lon="7.9741746"><ele>643.0</ele><time>2026-05-03T10:00:03.129Z</time></trkpt><trkpt lat="44.1681761" lon="7.9743242"><ele>643.0</ele><time>2026-05-03T10:00:04.13Z</time></trkpt><trkpt lat="44.1683611" lon="7.9744794"><ele>643.0</ele><time>2026-05-03T10:00:05.129Z</time></trkpt><trkpt lat="44.1685441" lon="7.9746448"><ele>643.0</ele><time>2026-05-03T10:00:06.129Z</time></trkpt><trkpt lat="44.1687353" lon="7.9748174"><ele>643.0</ele><time>2026-05-03T10:00:07.129Z</time></trkpt><trkpt lat="44.1689282" lon="7.9749864"><ele>641.0</ele><time>2026-05-03T10:00:08.129Z</time></trkpt><trkpt lat="44.169112" lon="7.9751414"><ele>639.0</ele><time>2026-05-03T10:00:09.13Z</time></trkpt><trkpt lat="44.1692975" lon="7.975293"><ele>637.0</ele><time>2026-05-03T10:00:10.13Z</time></trkpt><trkpt lat="44.1694796" lon="7.9754462"><ele>637.0</ele><time>2026-05-03T10:00:11.129Z</time></trkpt><trkpt lat="44.1696673" lon="7.9756077"><ele>637.0</ele><time>2026-05-03T10:00:12.129Z</time></trkpt><trkpt lat="44.1698527" lon="7.9757632"><ele>637.0</ele><time>2026-05-03T10:00:13.129Z</time></trkpt><trkpt lat="44.1700284" lon="7.9759155"><ele>636.3333333333334</ele><time>2026-05-03T10:00:14.129Z</time></trkpt><trkpt lat="44.1702025" lon="7.9760636"><ele>635.6666666666666</ele><time>2026-05-03T10:00:15.129Z</time></trkpt><trkpt lat="44.1703703" lon="7.9762029"><ele>635.0</ele><time>2026-05-03T10:00:16.129Z</time></trkpt><trkpt lat="44.1705427" lon="7.9763345"><ele>635.6666666666666</ele><time>2026-05-03T10:00:17.129Z</time></trkpt><trkpt lat="44.1707243" lon="7.9764374"><ele>636.3333333333334</ele><time>2026-05-03T10:00:18.129Z</time></trkpt><trkpt lat="44.1709225" lon="7.9765106"><ele>637.0</ele><time>2026-05-03T10:00:19.13Z</time></trkpt><trkpt lat="44.1711258" lon="7.976564"><ele>637.0</ele><time>2026-05-03T10:00:20.129Z</time></trkpt><trkpt lat="44.171334" lon="7.9766083"><ele>637.0</ele><time>2026-05-03T10:00:21.13Z</time></trkpt><trkpt lat="44.171548" lon="7.9766502"><ele>637.0</ele><time>2026-05-03T10:00:22.129Z</time></trkpt><trkpt lat="44.1717685" lon="7.9766994"><ele>633.0</ele><time>2026-05-03T10:00:23.129Z</time></trkpt><trkpt lat="44.1719993" lon="7.9767571"><ele>629.0</ele><time>2026-05-03T10:00:24.129Z</time></trkpt><trkpt lat="44.1722303" lon="7.9768297"><ele>629.0</ele><time>2026-05-03T10:00:25.129Z</time></trkpt><trkpt lat="44.1724598" lon="7.9769268"><ele>629.0</ele><time>2026-05-03T10:00:26.129Z</time></trkpt><trkpt lat="44.1726838" lon="7.9770516"><ele>629.0</ele><time>2026-05-03T10:00:27.129Z</time></trkpt><trkpt lat="44.1728932" lon="7.9771808"><ele>629.0</ele><time>2026-05-03T10:00:28.129Z</time></trkpt><trkpt lat="44.1730918" lon="7.9773118"><ele>629.0</ele><time>2026-05-03T10:00:29.129Z</time></trkpt><trkpt lat="44.1732827" lon="7.9774557"><ele>629.6666666666666</ele><time>2026-05-03T10:00:30.13Z</time></trkpt><trkpt lat="44.1734686" lon="7.9776021"><ele>630.3333333333334</ele><time>2026-05-03T10:00:31.129Z</time></trkpt><trkpt lat="44.1736602" lon="7.9777555"><ele>631.0</ele><time>2026-05-03T10:00:32.13Z</time></trkpt><trkpt lat="44.1738476" lon="7.9779027"><ele>630.3333333333334</ele><time>2026-05-03T10:00:33.129Z</time></trkpt><trkpt lat="44.1740381" lon="7.9780508"><ele>629.6666666666666</ele><time>2026-05-03T10:00:34.13Z</time></trkpt><trkpt lat="44.1742348" lon="7.9782075"><ele>629.0</ele><time>2026-05-03T10:00:35.129Z</time></trkpt><trkpt lat="44.1744318" lon="7.9783803"><ele>629.0</ele><time>2026-05-03T10:00:36.129Z</time></trkpt><trkpt lat="44.1746206" lon="7.9785739"><ele>629.0</ele><time>2026-05-03T10:00:37.13Z</time></trkpt><trkpt lat="44.1748075" lon="7.9787838"><ele>629.0</ele><time>2026-05-03T10:00:38.13Z</time></trkpt><trkpt lat="44.1749896" lon="7.9790148"><ele>629.0</ele><time>2026-05-03T10:00:39.129Z</time></trkpt><trkpt lat="44.1751655" lon="7.979257"><ele>629.0</ele><time>2026-05-03T10:00:40.13Z</time></trkpt><trkpt lat="44.1753255" lon="7.9795069"><ele>629.0</ele><time>2026-05-03T10:00:41.129Z</time></trkpt><trkpt lat="44.175465" lon="7.9797654"><ele>628.0</ele><time>2026-05-03T10:00:42.129Z</time></trkpt><trkpt lat="44.1755791" lon="7.9800229"><ele>627.0</ele><time>2026-05-03T10:00:43.13Z</time></trkpt><trkpt lat="44.1756998" lon="7.980269"><ele>626.0</ele><time>2026-05-03T10:00:44.129Z</time></trkpt><trkpt lat="44.1758338" lon="7.9804912"><ele>626.0</ele><time>2026-05-03T10:00:45.129Z</time></trkpt><trkpt lat="44.175996" lon="7.9806719"><ele>626.0</ele><time>2026-05-03T10:00:46.129Z</time></trkpt><trkpt lat="44.1761743" lon="7.9808015"><ele>626.0</ele><time>2026-05-03T10:00:47.129Z</time></trkpt><trkpt lat="44.1763745" lon="7.9808741"><ele>626.6666666666666</ele><time>2026-05-03T10:00:48.13Z</time></trkpt><trkpt lat="44.1765763" lon="7.9808877"><ele>627.3333333333334</ele><time>2026-05-03T10:00:49.13Z</time></trkpt><trkpt lat="44.1767729" lon="7.9808864"><ele>628.0</ele><time>2026-05-03T10:00:50.129Z</time></trkpt><trkpt lat="44.1769815" lon="7.980881"><ele>628.0</ele><time>2026-05-03T10:00:51.129Z</time></trkpt><trkpt lat="44.1771862" lon="7.9808866"><ele>628.0</ele><time>2026-05-03T10:00:52.13Z</time></trkpt><trkpt lat="44.1773912" lon="7.9809125"><ele>628.0</ele><time>2026-05-03T10:00:53.129Z</time></trkpt><trkpt lat="44.1775959" lon="7.9809648"><ele>628.0</ele><time>2026-05-03T10:00:54.13Z</time></trkpt><trkpt lat="44.1778032" lon="7.9810361"><ele>628.0</ele><time>2026-05-03T10:00:55.129Z</time></trkpt><trkpt lat="44.1780095" lon="7.9811043"><ele>628.0</ele><time>2026-05-03T10:00:56.129Z</time></trkpt><trkpt lat="44.1782145" lon="7.9811828"><ele>628.0</ele><time>2026-05-03T10:00:57.13Z</time></trkpt><trkpt lat="44.1784137" lon="7.9812647"><ele>628.0</ele><time>2026-05-03T10:00:58.129Z</time></trkpt><trkpt lat="44.1786181" lon="7.9813401"><ele>628.0</ele><time>2026-05-03T10:00:59.129Z</time></trkpt><trkpt lat="44.1788216" lon="7.9814169"><ele>630.3333333333334</ele><time>2026-05-03T10:01:00.129Z</time></trkpt><trkpt lat="44.1790258" lon="7.9814963"><ele>632.6666666666666</ele><time>2026-05-03T10:01:01.129Z</time></trkpt><trkpt lat="44.1792315" lon="7.9815757"><ele>635.0</ele><time>2026-05-03T10:01:02.129Z</time></trkpt><trkpt lat="44.1794418" lon="7.9816553"><ele>631.3333333333333</ele><time>2026-05-03T10:01:03.129Z</time></trkpt><trkpt lat="44.179653" lon="7.9817399"><ele>627.6666666666666</ele><time>2026-05-03T10:01:04.13Z</time></trkpt><trkpt lat="44.1798686" lon="7.9818346"><ele>624.0</ele><time>2026-05-03T10:01:05.129Z</time></trkpt><trkpt lat="44.1800747" lon="7.9819555"><ele>624.0</ele><time>2026-05-03T10:01:06.129Z</time></trkpt><trkpt lat="44.18027" lon="7.9820907"><ele>624.0</ele><time>2026-05-03T10:01:07.129Z</time></trkpt><trkpt lat="44.1804593" lon="7.982235"><ele>624.0</ele><time>2026-05-03T10:01:08.129Z</time></trkpt><trkpt lat="44.1806405" lon="7.982395"><ele>623.0</ele><time>2026-05-03T10:01:09.129Z</time></trkpt><trkpt lat="44.1808139" lon="7.9825671"><ele>622.0</ele><time>2026-05-03T10:01:10.129Z</time></trkpt><trkpt lat="44.1809741" lon="7.9827472"><ele>621.0</ele><time>2026-05-03T10:01:11.129Z</time></trkpt><trkpt lat="44.1811281" lon="7.9829385"><ele>621.0</ele><time>2026-05-03T10:01:12.129Z</time></trkpt><trkpt lat="44.1812713" lon="7.9831438"><ele>621.0</ele><time>2026-05-03T10:01:13.129Z</time></trkpt><trkpt lat="44.181415" lon="7.9833438"><ele>621.0</ele><time>2026-05-03T10:01:14.13Z</time></trkpt><trkpt lat="44.18155" lon="7.9835551"><ele>622.3333333333334</ele><time>2026-05-03T10:01:15.129Z</time></trkpt><trkpt lat="44.1816848" lon="7.9837608"><ele>623.6666666666667</ele><time>2026-05-03T10:01:16.13Z</time></trkpt><trkpt lat="44.1818184" lon="7.9839566"><ele>625.0</ele><time>2026-05-03T10:01:17.129Z</time></trkpt><trkpt lat="44.1819522" lon="7.9841596"><ele>622.3333333333334</ele><time>2026-05-03T10:01:18.13Z</time></trkpt><trkpt lat="44.1820891" lon="7.9843675"><ele>619.6666666666666</ele><time>2026-05-03T10:01:19.129Z</time></trkpt><trkpt lat="44.1822264" lon="7.9845796"><ele>617.0</ele><time>2026-05-03T10:01:20.129Z</time></trkpt><trkpt lat="44.1823586" lon="7.9847889"><ele>618.3333333333333</ele><time>2026-05-03T10:01:21.129Z</time></trkpt><trkpt lat="44.1824878" lon="7.9849992"><ele>619.6666666666666</ele><time>2026-05-03T10:01:22.129Z</time></trkpt><trkpt lat="44.1826195" lon="7.9852105"><ele>621.0</ele><time>2026-05-03T10:01:23.13Z</time></trkpt><trkpt lat="44.1827529" lon="7.9854268"><ele>621.0</ele><time>2026-05-03T10:01:24.13Z</time></trkpt><trkpt lat="44.1828827" lon="7.9856548"><ele>621.0</ele><time>2026-05-03T10:01:25.129Z</time></trkpt><trkpt lat="44.1830072" lon="7.9858968"><ele>621.0</ele><time>2026-05-03T10:01:26.129Z</time></trkpt><trkpt lat="44.1831191" lon="7.9861533"><ele>621.6666666666666</ele><time>2026-05-03T10:01:27.13Z</time></trkpt><trkpt lat="44.1832191" lon="7.9864156"><ele>622.3333333333333</ele><time>2026-05-03T10:01:28.129Z</time></trkpt><trkpt lat="44.1833082" lon="7.9866793"><ele>623.0</ele><time>2026-05-03T10:01:29.13Z</time></trkpt><trkpt lat="44.1833828" lon="7.9869378"><ele>623.0</ele><time>2026-05-03T10:01:30.129Z</time></trkpt><trkpt lat="44.1834429" lon="7.9871877"><ele>623.0</ele><time>2026-05-03T10:01:31.129Z</time></trkpt><trkpt lat="44.1834959" lon="7.9874314"><ele>623.0</ele><time>2026-05-03T10:01:32.129Z</time></trkpt><trkpt lat="44.1835424" lon="7.9876732"><ele>620.3333333333333</ele><time>2026-05-03T10:01:33.129Z</time></trkpt><trkpt lat="44.1835802" lon="7.9879125"><ele>617.6666666666666</ele><time>2026-05-03T10:01:34.129Z</time></trkpt><trkpt lat="44.1836083" lon="7.9881485"><ele>615.0</ele><time>2026-05-03T10:01:35.129Z</time></trkpt><trkpt lat="44.1836301" lon="7.9883863"><ele>615.0</ele><time>2026-05-03T10:01:36.129Z</time></trkpt><trkpt lat="44.1836457" lon="7.9886217"><ele>615.0</ele><time>2026-05-03T10:01:37.129Z</time></trkpt><trkpt lat="44.1836565" lon="7.9888487"><ele>615.0</ele><time>2026-05-03T10:01:38.129Z</time></trkpt><trkpt lat="44.1836604" lon="7.9890726"><ele>614.3333333333334</ele><time>2026-05-03T10:01:39.129Z</time></trkpt><trkpt lat="44.183661" lon="7.9892928"><ele>613.6666666666667</ele><time>2026-05-03T10:01:40.13Z</time></trkpt><trkpt lat="44.1836661" lon="7.9895142"><ele>613.0</ele><time>2026-05-03T10:01:41.129Z</time></trkpt><trkpt lat="44.1836782" lon="7.9897322"><ele>613.0</ele><time>2026-05-03T10:01:42.129Z</time></trkpt><trkpt lat="44.1837016" lon="7.9899502"><ele>613.0</ele><time>2026-05-03T10:01:43.128Z</time></trkpt><trkpt lat="44.1837436" lon="7.9901582"><ele>613.0</ele><time>2026-05-03T10:01:44.129Z</time></trkpt><trkpt lat="44.1838031" lon="7.990361"><ele>612.6666666666667</ele><time>2026-05-03T10:01:45.129Z</time></trkpt><trkpt lat="44.1838636" lon="7.9905608"><ele>612.3333333333334</ele><time>2026-05-03T10:01:46.13Z</time></trkpt><trkpt lat="44.1839294" lon="7.9907594"><ele>612.0</ele><time>2026-05-03T10:01:47.129Z</time></trkpt><trkpt lat="44.1840032" lon="7.9909595"><ele>613.0</ele><time>2026-05-03T10:01:48.129Z</time></trkpt><trkpt lat="44.1840794" lon="7.9911631"><ele>614.0</ele><time>2026-05-03T10:01:49.129Z</time></trkpt><trkpt lat="44.1841566" lon="7.9913667"><ele>615.0</ele><time>2026-05-03T10:01:50.129Z</time></trkpt><trkpt lat="44.1842299" lon="7.9915627"><ele>614.3333333333334</ele><time>2026-05-03T10:01:51.129Z</time></trkpt><trkpt lat="44.1843019" lon="7.9917566"><ele>613.6666666666667</ele><time>2026-05-03T10:01:52.129Z</time></trkpt><trkpt lat="44.1843706" lon="7.9919452"><ele>613.0</ele><time>2026-05-03T10:01:53.129Z</time></trkpt><trkpt lat="44.184439" lon="7.9921305"><ele>613.0</ele><time>2026-05-03T10:01:54.129Z</time></trkpt><trkpt lat="44.1845052" lon="7.9923057"><ele>613.0</ele><time>2026-05-03T10:01:55.129Z</time></trkpt><trkpt lat="44.1845769" lon="7.9924771"><ele>613.0</ele><time>2026-05-03T10:01:56.13Z</time></trkpt><trkpt lat="44.1846488" lon="7.9926492"><ele>613.0</ele><time>2026-05-03T10:01:57.129Z</time></trkpt><trkpt lat="44.1847279" lon="7.9928099"><ele>613.5</ele><time>2026-05-03T10:01:58.129Z</time></trkpt><trkpt lat="44.1848142" lon="7.9929513"><ele>614.0</ele><time>2026-05-03T10:01:59.13Z</time></trkpt><trkpt lat="44.1849122" lon="7.9930763"><ele>614.5</ele><time>2026-05-03T10:02:00.129Z</time></trkpt><trkpt lat="44.1850138" lon="7.9931835"><ele>615.0</ele><time>2026-05-03T10:02:01.13Z</time></trkpt><trkpt lat="44.1851167" lon="7.9932792"><ele>614.5</ele><time>2026-05-03T10:02:02.13Z</time></trkpt><trkpt lat="44.1852205" lon="7.9933687"><ele>614.0</ele><time>2026-05-03T10:02:03.129Z</time></trkpt><trkpt lat="44.1853296" lon="7.9934553"><ele>613.5</ele><time>2026-05-03T10:02:04.129Z</time></trkpt><trkpt lat="44.1854326" lon="7.9935436"><ele>613.0</ele><time>2026-05-03T10:02:05.129Z</time></trkpt><trkpt lat="44.1855249" lon="7.9936337"><ele>613.0</ele><time>2026-05-03T10:02:06.129Z</time></trkpt><trkpt lat="44.1856223" lon="7.9937342"><ele>613.0</ele><time>2026-05-03T10:02:07.129Z</time></trkpt><trkpt lat="44.1857271" lon="7.9938474"><ele>613.0</ele><time>2026-05-03T10:02:08.13Z</time></trkpt><trkpt lat="44.1858428" lon="7.9939737"><ele>613.0</ele><time>2026-05-03T10:02:09.129Z</time></trkpt><trkpt lat="44.1859614" lon="7.9941162"><ele>613.0</ele><time>2026-05-03T10:02:10.129Z</time></trkpt><trkpt lat="44.1860831" lon="7.9942715"><ele>613.0</ele><time>2026-05-03T10:02:11.13Z</time></trkpt><trkpt lat="44.1862066" lon="7.9944338"><ele>613.0</ele><time>2026-05-03T10:02:12.129Z</time></trkpt><trkpt lat="44.1863345" lon="7.9945937"><ele>613.0</ele><time>2026-05-03T10:02:13.129Z</time></trkpt><trkpt lat="44.1864625" lon="7.9947535"><ele>613.0</ele><time>2026-05-03T10:02:14.129Z</time></trkpt><trkpt lat="44.1865866" lon="7.9949088"><ele>613.0</ele><time>2026-05-03T10:02:15.129Z</time></trkpt><trkpt lat="44.1867035" lon="7.995065"><ele>612.6666666666667</ele><time>2026-05-03T10:02:16.13Z</time></trkpt><trkpt lat="44.186811" lon="7.9952201"><ele>612.3333333333334</ele><time>2026-05-03T10:02:17.129Z</time></trkpt><trkpt lat="44.1869065" lon="7.9953862"><ele>612.0</ele><time>2026-05-03T10:02:18.129Z</time></trkpt><trkpt lat="44.186985" lon="7.9955725"><ele>612.0</ele><time>2026-05-03T10:02:19.13Z</time></trkpt><trkpt lat="44.1870448" lon="7.9957621"><ele>612.0</ele><time>2026-05-03T10:02:20.129Z</time></trkpt><trkpt lat="44.187096" lon="7.9959498"><ele>612.0</ele><time>2026-05-03T10:02:21.129Z</time></trkpt><trkpt lat="44.1871482" lon="7.9961434"><ele>612.0</ele><time>2026-05-03T10:02:22.13Z</time></trkpt><trkpt lat="44.1872002" lon="7.9963307"><ele>611.5</ele><time>2026-05-03T10:02:23.129Z</time></trkpt><trkpt lat="44.1872524" lon="7.9965188"><ele>611.0</ele><time>2026-05-03T10:02:24.13Z</time></trkpt><trkpt lat="44.1873014" lon="7.9967035"><ele>610.5</ele><time>2026-05-03T10:02:25.129Z</time></trkpt><trkpt lat="44.1873518" lon="7.9968897"><ele>610.0</ele><time>2026-05-03T10:02:26.129Z</time></trkpt><trkpt lat="44.1873975" lon="7.9970748"><ele>609.5</ele><time>2026-05-03T10:02:27.13Z</time></trkpt><trkpt lat="44.1874442" lon="7.9972598"><ele>609.0</ele><time>2026-05-03T10:02:28.129Z</time></trkpt><trkpt lat="44.1874883" lon="7.9974401"><ele>608.5</ele><time>2026-05-03T10:02:29.129Z</time></trkpt><trkpt lat="44.1875333" lon="7.9976147"><ele>608.0</ele><time>2026-05-03T10:02:30.129Z</time></trkpt><trkpt lat="44.1875813" lon="7.997784"><ele>607.75</ele><time>2026-05-03T10:02:31.129Z</time></trkpt><trkpt lat="44.1876266" lon="7.9979465"><ele>607.5</ele><time>2026-05-03T10:02:32.13Z</time></trkpt><trkpt lat="44.1876711" lon="7.9981102"><ele>607.25</ele><time>2026-05-03T10:02:33.129Z</time></trkpt><trkpt lat="44.187714" lon="7.9982772"><ele>607.0</ele><time>2026-05-03T10:02:34.13Z</time></trkpt><trkpt lat="44.1877647" lon="7.9984471"><ele>606.5</ele><time>2026-05-03T10:02:35.129Z</time></trkpt><trkpt lat="44.1878262" lon="7.9986147"><ele>606.0</ele><time>2026-05-03T10:02:36.129Z</time></trkpt><trkpt lat="44.1879" lon="7.9987759"><ele>605.5</ele><time>2026-05-03T10:02:37.129Z</time></trkpt><trkpt lat="44.1879847" lon="7.9989318"><ele>605.0</ele><time>2026-05-03T10:02:38.129Z</time></trkpt><trkpt lat="44.1880751" lon="7.9990743"><ele>604.75</ele><time>2026-05-03T10:02:39.129Z</time></trkpt><trkpt lat="44.1881625" lon="7.9992142"><ele>604.5</ele><time>2026-05-03T10:02:40.129Z</time></trkpt><trkpt lat="44.1882496" lon="7.9993505"><ele>604.25</ele><time>2026-05-03T10:02:41.129Z</time></trkpt><trkpt lat="44.1883387" lon="7.9994881"><ele>604.0</ele><time>2026-05-03T10:02:42.13Z</time></trkpt><trkpt lat="44.1884255" lon="7.9996258"><ele>604.0</ele><time>2026-05-03T10:02:43.13Z</time></trkpt><trkpt lat="44.18851" lon="7.9997644"><ele>604.0</ele><time>2026-05-03T10:02:44.13Z</time></trkpt><trkpt lat="44.1885941" lon="7.9999023"><ele>604.0</ele><time>2026-05-03T10:02:45.129Z</time></trkpt><trkpt lat="44.1886749" lon="8.00004"><ele>604.0</ele><time>2026-05-03T10:02:46.129Z</time></trkpt><trkpt lat="44.1887462" lon="8.0001893"><ele>604.0</ele><time>2026-05-03T10:02:47.13Z</time></trkpt><trkpt lat="44.1888059" lon="8.0003463"><ele>604.0</ele><time>2026-05-03T10:02:48.129Z</time></trkpt><trkpt lat="44.1888573" lon="8.0005087"><ele>604.0</ele><time>2026-05-03T10:02:49.129Z</time></trkpt><trkpt lat="44.1889029" lon="8.0006804"><ele>604.0</ele><time>2026-05-03T10:02:50.129Z</time></trkpt><trkpt lat="44.1889417" lon="8.0008657"><ele>603.6666666666667</ele><time>2026-05-03T10:02:51.129Z</time></trkpt><trkpt lat="44.1889777" lon="8.0010635"><ele>603.3333333333334</ele><time>2026-05-03T10:02:52.129Z</time></trkpt><trkpt lat="44.1890101" lon="8.00127"><ele>603.0</ele><time>2026-05-03T10:02:53.13Z</time></trkpt><trkpt lat="44.1890416" lon="8.0014814"><ele>606.6666666666666</ele><time>2026-05-03T10:02:54.129Z</time></trkpt><trkpt lat="44.1890796" lon="8.0016976"><ele>610.3333333333333</ele><time>2026-05-03T10:02:55.129Z</time></trkpt><trkpt lat="44.1891151" lon="8.001917"><ele>614.0</ele><time>2026-05-03T10:02:56.129Z</time></trkpt><trkpt lat="44.1891437" lon="8.0021299"><ele>614.0</ele><time>2026-05-03T10:02:57.129Z</time></trkpt><trkpt lat="44.1891667" lon="8.0023396"><ele>614.0</ele><time>2026-05-03T10:02:58.129Z</time></trkpt><trkpt lat="44.1891863" lon="8.0025461"><ele>614.0</ele><time>2026-05-03T10:02:59.129Z</time></trkpt><trkpt lat="44.189202" lon="8.002751"><ele>614.0</ele><time>2026-05-03T10:03:00.129Z</time></trkpt><trkpt lat="44.1892237" lon="8.0029562"><ele>613.3333333333333</ele><time>2026-05-03T10:03:01.13Z</time></trkpt><trkpt lat="44.1892532" lon="8.0031651"><ele>612.6666666666666</ele><time>2026-05-03T10:03:02.13Z</time></trkpt><trkpt lat="44.1892861" lon="8.003376"><ele>612.0</ele><time>2026-05-03T10:03:03.129Z</time></trkpt><trkpt lat="44.1893317" lon="8.0035966"><ele>612.0</ele><time>2026-05-03T10:03:04.129Z</time></trkpt><trkpt lat="44.1893863" lon="8.0038183"><ele>612.0</ele><time>2026-05-03T10:03:05.13Z</time></trkpt><trkpt lat="44.189452" lon="8.0040417"><ele>612.0</ele><time>2026-05-03T10:03:06.129Z</time></trkpt><trkpt lat="44.1895248" lon="8.0042656"><ele>609.3333333333334</ele><time>2026-05-03T10:03:07.13Z</time></trkpt><trkpt lat="44.1895985" lon="8.0044891"><ele>606.6666666666667</ele><time>2026-05-03T10:03:08.129Z</time></trkpt><trkpt lat="44.1896779" lon="8.0047126"><ele>604.0</ele><time>2026-05-03T10:03:09.129Z</time></trkpt><trkpt lat="44.1897573" lon="8.0049419"><ele>601.3333333333334</ele><time>2026-05-03T10:03:10.129Z</time></trkpt><trkpt lat="44.1898315" lon="8.0051805"><ele>598.6666666666666</ele><time>2026-05-03T10:03:11.13Z</time></trkpt><trkpt lat="44.1899004" lon="8.0054291"><ele>596.0</ele><time>2026-05-03T10:03:12.129Z</time></trkpt><trkpt lat="44.18996" lon="8.0056922"><ele>600.0</ele><time>2026-05-03T10:03:13.129Z</time></trkpt><trkpt lat="44.1900112" lon="8.005959"><ele>604.0</ele><time>2026-05-03T10:03:14.129Z</time></trkpt><trkpt lat="44.1900622" lon="8.0062181"><ele>608.0</ele><time>2026-05-03T10:03:15.13Z</time></trkpt><trkpt lat="44.1901125" lon="8.0064745"><ele>605.6666666666666</ele><time>2026-05-03T10:03:16.129Z</time></trkpt><trkpt lat="44.1901622" lon="8.0067294"><ele>603.3333333333334</ele><time>2026-05-03T10:03:17.129Z</time></trkpt><trkpt lat="44.1902114" lon="8.0069822"><ele>601.0</ele><time>2026-05-03T10:03:18.129Z</time></trkpt><trkpt lat="44.1902613" lon="8.0072277"><ele>601.0</ele><time>2026-05-03T10:03:19.129Z</time></trkpt><trkpt lat="44.1903098" lon="8.0074653"><ele>601.0</ele><time>2026-05-03T10:03:20.13Z</time></trkpt><trkpt lat="44.1903584" lon="8.0076932"><ele>601.0</ele><time>2026-05-03T10:03:21.129Z</time></trkpt><trkpt lat="44.190418" lon="8.0079152"><ele>599.6666666666667</ele><time>2026-05-03T10:03:22.129Z</time></trkpt><trkpt lat="44.1904936" lon="8.0081322"><ele>598.3333333333334</ele><time>2026-05-03T10:03:23.129Z</time></trkpt><trkpt lat="44.1905958" lon="8.008339"><ele>597.0</ele><time>2026-05-03T10:03:24.129Z</time></trkpt><trkpt lat="44.1907128" lon="8.0085355"><ele>601.3333333333334</ele><time>2026-05-03T10:03:25.129Z</time></trkpt><trkpt lat="44.1908457" lon="8.0087193"><ele>605.6666666666667</ele><time>2026-05-03T10:03:26.129Z</time></trkpt><trkpt lat="44.1909917" lon="8.0088911"><ele>610.0</ele><time>2026-05-03T10:03:27.129Z</time></trkpt><trkpt lat="44.1911485" lon="8.0090436"><ele>608.0</ele><time>2026-05-03T10:03:28.129Z</time></trkpt><trkpt lat="44.1913154" lon="8.0091811"><ele>606.0</ele><time>2026-05-03T10:03:29.129Z</time></trkpt><trkpt lat="44.1914872" lon="8.0093086"><ele>604.0</ele><time>2026-05-03T10:03:30.129Z</time></trkpt><trkpt lat="44.191664" lon="8.0094211"><ele>604.0</ele><time>2026-05-03T10:03:31.129Z</time></trkpt><trkpt lat="44.1918449" lon="8.0095132"><ele>604.0</ele><time>2026-05-03T10:03:32.13Z</time></trkpt><trkpt lat="44.1920244" lon="8.009588"><ele>604.0</ele><time>2026-05-03T10:03:33.129Z</time></trkpt><trkpt lat="44.1921994" lon="8.0096553"><ele>610.3333333333334</ele><time>2026-05-03T10:03:34.129Z</time></trkpt><trkpt lat="44.1923693" lon="8.0097235"><ele>616.6666666666666</ele><time>2026-05-03T10:03:35.129Z</time></trkpt><trkpt lat="44.1925366" lon="8.0097938"><ele>623.0</ele><time>2026-05-03T10:03:36.129Z</time></trkpt><trkpt lat="44.1927094" lon="8.0098674"><ele>623.0</ele><time>2026-05-03T10:03:37.13Z</time></trkpt><trkpt lat="44.1928913" lon="8.0099417"><ele>623.0</ele><time>2026-05-03T10:03:38.129Z</time></trkpt><trkpt lat="44.1930786" lon="8.0100211"><ele>623.0</ele><time>2026-05-03T10:03:39.129Z</time></trkpt><trkpt lat="44.1932688" lon="8.0101014"><ele>617.3333333333333</ele><time>2026-05-03T10:03:40.129Z</time></trkpt><trkpt lat="44.1934604" lon="8.0101819"><ele>611.6666666666666</ele><time>2026-05-03T10:03:41.13Z</time></trkpt><trkpt lat="44.1936537" lon="8.0102666"><ele>606.0</ele><time>2026-05-03T10:03:42.13Z</time></trkpt><trkpt lat="44.1938502" lon="8.0103509"><ele>610.6666666666666</ele><time>2026-05-03T10:03:43.129Z</time></trkpt><trkpt lat="44.1940483" lon="8.0104349"><ele>615.3333333333333</ele><time>2026-05-03T10:03:44.129Z</time></trkpt><trkpt lat="44.1942449" lon="8.0105211"><ele>620.0</ele><time>2026-05-03T10:03:45.129Z</time></trkpt><trkpt lat="44.194437" lon="8.0106115"><ele>620.0</ele><time>2026-05-03T10:03:46.13Z</time></trkpt><trkpt lat="44.1946301" lon="8.0107032"><ele>620.0</ele><time>2026-05-03T10:03:47.129Z</time></trkpt><trkpt lat="44.194821" lon="8.0107918"><ele>620.0</ele><time>2026-05-03T10:03:48.129Z</time></trkpt><trkpt lat="44.1950118" lon="8.0108757"><ele>613.0</ele><time>2026-05-03T10:03:49.13Z</time></trkpt><trkpt lat="44.1952006" lon="8.0109548"><ele>606.0</ele><time>2026-05-03T10:03:50.129Z</time></trkpt><trkpt lat="44.1953863" lon="8.0110288"><ele>599.0</ele><time>2026-05-03T10:03:51.129Z</time></trkpt><trkpt lat="44.1955708" lon="8.0111002"><ele>603.6666666666666</ele><time>2026-05-03T10:03:52.129Z</time></trkpt><trkpt lat="44.1957587" lon="8.0111647"><ele>608.3333333333334</ele><time>2026-05-03T10:03:53.13Z</time></trkpt><trkpt lat="44.1959476" lon="8.0112262"><ele>613.0</ele><time>2026-05-03T10:03:54.129Z</time></trkpt><trkpt lat="44.1961335" lon="8.0112866"><ele>613.0</ele><time>2026-05-03T10:03:55.129Z</time></trkpt><trkpt lat="44.1963187" lon="8.011341"><ele>613.0</ele><time>2026-05-03T10:03:56.129Z</time></trkpt><trkpt lat="44.1965063" lon="8.0113909"><ele>613.0</ele><time>2026-05-03T10:03:57.129Z</time></trkpt><trkpt lat="44.196694" lon="8.0114312"><ele>615.3333333333334</ele><time>2026-05-03T10:03:58.129Z</time></trkpt><trkpt lat="44.1968806" lon="8.0114668"><ele>617.6666666666666</ele><time>2026-05-03T10:03:59.129Z</time></trkpt><trkpt lat="44.1970682" lon="8.0115011"><ele>620.0</ele><time>2026-05-03T10:04:00.129Z</time></trkpt><trkpt lat="44.1972527" lon="8.0115388"><ele>622.6666666666666</ele><time>2026-05-03T10:04:01.129Z</time></trkpt><trkpt lat="44.1974347" lon="8.0115813"><ele>625.3333333333334</ele><time>2026-05-03T10:04:02.129Z</time></trkpt><trkpt lat="44.1976146" lon="8.0116343"><ele>628.0</ele><time>2026-05-03T10:04:03.13Z</time></trkpt><trkpt lat="44.1977971" lon="8.0116922"><ele>617.3333333333334</ele><time>2026-05-03T10:04:04.129Z</time></trkpt><trkpt lat="44.1979765" lon="8.0117534"><ele>606.6666666666666</ele><time>2026-05-03T10:04:05.13Z</time></trkpt><trkpt lat="44.1981494" lon="8.0118202"><ele>596.0</ele><time>2026-05-03T10:04:06.129Z</time></trkpt><trkpt lat="44.1983147" lon="8.0118957"><ele>596.0</ele><time>2026-05-03T10:04:07.129Z</time></trkpt><trkpt lat="44.1984827" lon="8.0119689"><ele>596.0</ele><time>2026-05-03T10:04:08.13Z</time></trkpt><trkpt lat="44.1986407" lon="8.0120362"><ele>596.0</ele><time>2026-05-03T10:04:09.129Z</time></trkpt><trkpt lat="44.1987954" lon="8.0121084"><ele>596.0</ele><time>2026-05-03T10:04:10.129Z</time></trkpt><trkpt lat="44.198944" lon="8.0121755"><ele>596.0</ele><time>2026-05-03T10:04:11.129Z</time></trkpt><trkpt lat="44.1990925" lon="8.0122363"><ele>596.0</ele><time>2026-05-03T10:04:12.129Z</time></trkpt><trkpt lat="44.1992368" lon="8.012297"><ele>596.0</ele><time>2026-05-03T10:04:13.129Z</time></trkpt><trkpt lat="44.1993833" lon="8.0123582"><ele>596.0</ele><time>2026-05-03T10:04:14.129Z</time></trkpt><trkpt lat="44.1995293" lon="8.0124175"><ele>596.0</ele><time>2026-05-03T10:04:15.13Z</time></trkpt><trkpt lat="44.1996757" lon="8.0124759"><ele>593.25</ele><time>2026-05-03T10:04:16.129Z</time></trkpt><trkpt lat="44.1998166" lon="8.0125313"><ele>590.5</ele><time>2026-05-03T10:04:17.129Z</time></trkpt><trkpt lat="44.1999589" lon="8.0125946"><ele>587.75</ele><time>2026-05-03T10:04:18.129Z</time></trkpt><trkpt lat="44.2001053" lon="8.0126524"><ele>585.0</ele><time>2026-05-03T10:04:19.129Z</time></trkpt><trkpt lat="44.2002513" lon="8.0127094"><ele>585.0</ele><time>2026-05-03T10:04:20.129Z</time></trkpt><trkpt lat="44.2004068" lon="8.01277"><ele>585.0</ele><time>2026-05-03T10:04:21.13Z</time></trkpt><trkpt lat="44.2005688" lon="8.0128312"><ele>585.0</ele><time>2026-05-03T10:04:22.129Z</time></trkpt><trkpt lat="44.2007316" lon="8.0128957"><ele>585.0</ele><time>2026-05-03T10:04:23.129Z</time></trkpt><trkpt lat="44.2009058" lon="8.0129665"><ele>585.0</ele><time>2026-05-03T10:04:24.129Z</time></trkpt><trkpt lat="44.2010814" lon="8.0130435"><ele>585.0</ele><time>2026-05-03T10:04:25.129Z</time></trkpt><trkpt lat="44.2012411" lon="8.0131024"><ele>585.0</ele><time>2026-05-03T10:04:26.129Z</time></trkpt><trkpt lat="44.2013931" lon="8.0131686"><ele>585.0</ele><time>2026-05-03T10:04:27.129Z</time></trkpt><trkpt lat="44.201538" lon="8.0132277"><ele>585.0</ele><time>2026-05-03T10:04:28.13Z</time></trkpt><trkpt lat="44.2016837" lon="8.0132914"><ele>584.6666666666666</ele><time>2026-05-03T10:04:29.129Z</time></trkpt><trkpt lat="44.2018344" lon="8.0133536"><ele>584.3333333333333</ele><time>2026-05-03T10:04:30.129Z</time></trkpt><trkpt lat="44.2019837" lon="8.0134119"><ele>584.0</ele><time>2026-05-03T10:04:31.13Z</time></trkpt><trkpt lat="44.2021448" lon="8.0134698"><ele>584.0</ele><time>2026-05-03T10:04:32.13Z</time></trkpt><trkpt lat="44.2022989" lon="8.0135293"><ele>584.0</ele><time>2026-05-03T10:04:33.129Z</time></trkpt><trkpt lat="44.2024449" lon="8.0135907"><ele>584.0</ele><time>2026-05-03T10:04:34.129Z</time></trkpt><trkpt lat="44.202584" lon="8.013652"><ele>584.25</ele><time>2026-05-03T10:04:35.129Z</time></trkpt><trkpt lat="44.2027146" lon="8.0137105"><ele>584.5</ele><time>2026-05-03T10:04:36.129Z</time></trkpt><trkpt lat="44.2028398" lon="8.0137572"><ele>584.75</ele><time>2026-05-03T10:04:37.129Z</time></trkpt><trkpt lat="44.2029463" lon="8.0138025"><ele>585.0</ele><time>2026-05-03T10:04:38.129Z</time></trkpt><trkpt lat="44.2030255" lon="8.0138405"><ele>585.0</ele><time>2026-05-03T10:04:39.129Z</time></trkpt><trkpt lat="44.2030917" lon="8.013859"><ele>585.0</ele><time>2026-05-03T10:04:40.129Z</time></trkpt><trkpt lat="44.2031537" lon="8.013878"><ele>585.0</ele><time>2026-05-03T10:04:41.129Z</time></trkpt><trkpt lat="44.2032154" lon="8.0139048"><ele>585.0</ele><time>2026-05-03T10:04:42.13Z</time></trkpt><trkpt lat="44.2033269" lon="8.0139433"><ele>585.0</ele><time>2026-05-03T10:04:44.129Z</time></trkpt><trkpt lat="44.2034368" lon="8.0139924"><ele>585.0</ele><time>2026-05-03T10:04:46.129Z</time></trkpt><trkpt lat="44.20352" lon="8.0140225"><ele>585.0</ele><time>2026-05-03T10:04:48.129Z</time></trkpt><trkpt lat="44.2035805" lon="8.0140526"><ele>585.0</ele><time>2026-05-03T10:04:50.129Z</time></trkpt><trkpt lat="44.2036416" lon="8.0140885"><ele>585.0</ele><time>2026-05-03T10:04:52.129Z</time></trkpt><trkpt lat="44.2037718" lon="8.0141321"><ele>585.0</ele><time>2026-05-03T10:04:54.13Z</time></trkpt><trkpt lat="44.2038609" lon="8.014152"><ele>585.0</ele><time>2026-05-03T10:04:55.13Z</time></trkpt><trkpt lat="44.2039606" lon="8.0141824"><ele>585.25</ele><time>2026-05-03T10:04:56.129Z</time></trkpt><trkpt lat="44.2040757" lon="8.0142419"><ele>585.5</ele><time>2026-05-03T10:04:57.13Z</time></trkpt><trkpt lat="44.2041905" lon="8.0143043"><ele>585.75</ele><time>2026-05-03T10:04:58.129Z</time></trkpt><trkpt lat="44.2043126" lon="8.0143682"><ele>586.0</ele><time>2026-05-03T10:04:59.129Z</time></trkpt><trkpt lat="44.204437" lon="8.0144264"><ele>586.0</ele><time>2026-05-03T10:05:00.129Z</time></trkpt><trkpt lat="44.204567" lon="8.0144818"><ele>586.0</ele><time>2026-05-03T10:05:01.129Z</time></trkpt><trkpt lat="44.204699" lon="8.0145308"><ele>586.0</ele><time>2026-05-03T10:05:02.129Z</time></trkpt><trkpt lat="44.2048257" lon="8.0145758"><ele>586.0</ele><time>2026-05-03T10:05:03.129Z</time></trkpt><trkpt lat="44.2049544" lon="8.014618"><ele>586.0</ele><time>2026-05-03T10:05:04.129Z</time></trkpt><trkpt lat="44.2050885" lon="8.0146176"><ele>586.0</ele><time>2026-05-03T10:05:05.13Z</time></trkpt><trkpt lat="44.2052057" lon="8.0146275"><ele>586.0</ele><time>2026-05-03T10:05:06.129Z</time></trkpt><trkpt lat="44.2053176" lon="8.0146393"><ele>586.0</ele><time>2026-05-03T10:05:07.131Z</time></trkpt><trkpt lat="44.2054196" lon="8.0146395"><ele>586.0</ele><time>2026-05-03T10:05:08.13Z</time></trkpt><trkpt lat="44.205524" lon="8.014656"><ele>586.0</ele><time>2026-05-03T10:05:09.129Z</time></trkpt><trkpt lat="44.2056323" lon="8.0146673"><ele>586.0</ele><time>2026-05-03T10:05:10.129Z</time></trkpt><trkpt lat="44.2057399" lon="8.0146816"><ele>586.0</ele><time>2026-05-03T10:05:11.129Z</time></trkpt><trkpt lat="44.2058428" lon="8.0146881"><ele>586.0</ele><time>2026-05-03T10:05:12.13Z</time></trkpt><trkpt lat="44.2059496" lon="8.0147039"><ele>585.4</ele><time>2026-05-03T10:05:13.129Z</time></trkpt><trkpt lat="44.2060476" lon="8.0147048"><ele>584.8</ele><time>2026-05-03T10:05:14.129Z</time></trkpt><trkpt lat="44.2061457" lon="8.0147113"><ele>584.1999999999999</ele><time>2026-05-03T10:05:15.13Z</time></trkpt><trkpt lat="44.2062468" lon="8.0147256"><ele>583.6</ele><time>2026-05-03T10:05:16.129Z</time></trkpt><trkpt lat="44.2063423" lon="8.0147286"><ele>583.0</ele><time>2026-05-03T10:05:17.129Z</time></trkpt><trkpt lat="44.2064439" lon="8.0147426"><ele>582.1999999999999</ele><time>2026-05-03T10:05:18.129Z</time></trkpt><trkpt lat="44.2065312" lon="8.0147499"><ele>581.4</ele><time>2026-05-03T10:05:19.129Z</time></trkpt><trkpt lat="44.2066286" lon="8.0147495"><ele>580.5999999999999</ele><time>2026-05-03T10:05:20.129Z</time></trkpt><trkpt lat="44.2067287" lon="8.0147558"><ele>579.8</ele><time>2026-05-03T10:05:21.129Z</time></trkpt><trkpt lat="44.2068376" lon="8.0147575"><ele>579.0</ele><time>2026-05-03T10:05:22.129Z</time></trkpt><trkpt lat="44.2069392" lon="8.0147641"><ele>579.0</ele><time>2026-05-03T10:05:23.13Z</time></trkpt><trkpt lat="44.2070441" lon="8.0147754"><ele>579.0</ele><time>2026-05-03T10:05:24.13Z</time></trkpt><trkpt lat="44.2071454" lon="8.0147839"><ele>579.0</ele><time>2026-05-03T10:05:25.129Z</time></trkpt><trkpt lat="44.2072477" lon="8.0147945"><ele>579.0</ele><time>2026-05-03T10:05:26.13Z</time></trkpt><trkpt lat="44.2073529" lon="8.0147957"><ele>579.0</ele><time>2026-05-03T10:05:27.13Z</time></trkpt><trkpt lat="44.2074543" lon="8.0147978"><ele>579.0</ele><time>2026-05-03T10:05:28.129Z</time></trkpt><trkpt lat="44.2075449" lon="8.014801"><ele>579.0</ele><time>2026-05-03T10:05:29.129Z</time></trkpt><trkpt lat="44.2076203" lon="8.014815"><ele>579.0</ele><time>2026-05-03T10:05:30.129Z</time></trkpt><trkpt lat="44.2076678" lon="8.0148733"><ele>579.0</ele><time>2026-05-03T10:05:31.129Z</time></trkpt><trkpt lat="44.2076984" lon="8.0150645"><ele>579.0</ele><time>2026-05-03T10:05:33.129Z</time></trkpt><trkpt lat="44.2077064" lon="8.0151952"><ele>579.0</ele><time>2026-05-03T10:05:34.13Z</time></trkpt><trkpt lat="44.2077167" lon="8.0153509"><ele>579.0</ele><time>2026-05-03T10:05:35.13Z</time></trkpt><trkpt lat="44.2077319" lon="8.0155313"><ele>579.0</ele><time>2026-05-03T10:05:36.129Z</time></trkpt><trkpt lat="44.2077408" lon="8.0157068"><ele>579.0</ele><time>2026-05-03T10:05:37.129Z</time></trkpt><trkpt lat="44.2077554" lon="8.0158951"><ele>579.0</ele><time>2026-05-03T10:05:38.129Z</time></trkpt><trkpt lat="44.2077691" lon="8.0160867"><ele>579.0</ele><time>2026-05-03T10:05:39.13Z</time></trkpt><trkpt lat="44.2077785" lon="8.0162871"><ele>579.0</ele><time>2026-05-03T10:05:40.129Z</time></trkpt><trkpt lat="44.2077887" lon="8.0164827"><ele>579.0</ele><time>2026-05-03T10:05:41.13Z</time></trkpt><trkpt lat="44.2077974" lon="8.0166716"><ele>578.0</ele><time>2026-05-03T10:05:42.129Z</time></trkpt><trkpt lat="44.2078042" lon="8.0168575"><ele>577.0</ele><time>2026-05-03T10:05:43.129Z</time></trkpt><trkpt lat="44.2078154" lon="8.017046"><ele>576.0</ele><time>2026-05-03T10:05:44.129Z</time></trkpt><trkpt lat="44.2078252" lon="8.0172425"><ele>575.0</ele><time>2026-05-03T10:05:45.129Z</time></trkpt><trkpt lat="44.2078282" lon="8.0174425"><ele>575.0</ele><time>2026-05-03T10:05:46.129Z</time></trkpt><trkpt lat="44.2078143" lon="8.0176396"><ele>575.0</ele><time>2026-05-03T10:05:47.129Z</time></trkpt><trkpt lat="44.2077827" lon="8.0178322"><ele>575.0</ele><time>2026-05-03T10:05:48.129Z</time></trkpt><trkpt lat="44.2077165" lon="8.0180029"><ele>575.0</ele><time>2026-05-03T10:05:49.13Z</time></trkpt><trkpt lat="44.2076201" lon="8.0181413"><ele>575.0</ele><time>2026-05-03T10:05:50.129Z</time></trkpt><trkpt lat="44.2075016" lon="8.01824"><ele>575.0</ele><time>2026-05-03T10:05:51.13Z</time></trkpt><trkpt lat="44.2073744" lon="8.0183085"><ele>575.0</ele><time>2026-05-03T10:05:52.129Z</time></trkpt><trkpt lat="44.2072509" lon="8.0183748"><ele>575.0</ele><time>2026-05-03T10:05:53.13Z</time></trkpt><trkpt lat="44.2071266" lon="8.0184457"><ele>576.25</ele><time>2026-05-03T10:05:54.129Z</time></trkpt><trkpt lat="44.2069932" lon="8.0185132"><ele>577.5</ele><time>2026-05-03T10:05:55.129Z</time></trkpt><trkpt lat="44.206855" lon="8.0185743"><ele>578.75</ele><time>2026-05-03T10:05:56.129Z</time></trkpt><trkpt lat="44.2067125" lon="8.0186247"><ele>580.0</ele><time>2026-05-03T10:05:57.129Z</time></trkpt><trkpt lat="44.2065762" lon="8.0186655"><ele>580.0</ele><time>2026-05-03T10:05:58.129Z</time></trkpt><trkpt lat="44.206455" lon="8.0187027"><ele>580.0</ele><time>2026-05-03T10:05:59.129Z</time></trkpt><trkpt lat="44.2063465" lon="8.0187362"><ele>580.0</ele><time>2026-05-03T10:06:00.129Z</time></trkpt><trkpt lat="44.2062519" lon="8.0187654"><ele>580.0</ele><time>2026-05-03T10:06:01.129Z</time></trkpt><trkpt lat="44.2061728" lon="8.0188"><ele>580.0</ele><time>2026-05-03T10:06:02.129Z</time></trkpt><trkpt lat="44.2061099" lon="8.0188505"><ele>580.0</ele><time>2026-05-03T10:06:03.129Z</time></trkpt><trkpt lat="44.2060626" lon="8.0189193"><ele>580.0</ele><time>2026-05-03T10:06:04.129Z</time></trkpt><trkpt lat="44.206039" lon="8.0190008"><ele>580.0</ele><time>2026-05-03T10:06:05.13Z</time></trkpt><trkpt lat="44.2059831" lon="8.0191297"><ele>580.0</ele><time>2026-05-03T10:06:07.129Z</time></trkpt><trkpt lat="44.2059042" lon="8.0191712"><ele>580.0</ele><time>2026-05-03T10:06:08.129Z</time></trkpt><trkpt lat="44.2058215" lon="8.0192305"><ele>580.0</ele><time>2026-05-03T10:06:09.13Z</time></trkpt><trkpt lat="44.2057457" lon="8.019314"><ele>580.0</ele><time>2026-05-03T10:06:10.129Z</time></trkpt><trkpt lat="44.2056877" lon="8.0194089"><ele>580.0</ele><time>2026-05-03T10:06:11.13Z</time></trkpt><trkpt lat="44.2056544" lon="8.0195156"><ele>580.0</ele><time>2026-05-03T10:06:12.129Z</time></trkpt><trkpt lat="44.2056446" lon="8.0196427"><ele>580.0</ele><time>2026-05-03T10:06:13.129Z</time></trkpt><trkpt lat="44.2056571" lon="8.0197856"><ele>580.0</ele><time>2026-05-03T10:06:14.129Z</time></trkpt><trkpt lat="44.2056773" lon="8.0199362"><ele>580.4</ele><time>2026-05-03T10:06:15.129Z</time></trkpt><trkpt lat="44.2056916" lon="8.0200909"><ele>580.8</ele><time>2026-05-03T10:06:16.13Z</time></trkpt><trkpt lat="44.2057004" lon="8.020241"><ele>581.2</ele><time>2026-05-03T10:06:17.129Z</time></trkpt><trkpt lat="44.2057107" lon="8.020382"><ele>581.6</ele><time>2026-05-03T10:06:18.129Z</time></trkpt><trkpt lat="44.2057163" lon="8.0204985"><ele>582.0</ele><time>2026-05-03T10:06:19.129Z</time></trkpt><trkpt lat="44.2057185" lon="8.0206031"><ele>582.0</ele><time>2026-05-03T10:06:20.129Z</time></trkpt><trkpt lat="44.2057174" lon="8.0206964"><ele>582.0</ele><time>2026-05-03T10:06:21.129Z</time></trkpt><trkpt lat="44.2057091" lon="8.0207841"><ele>582.0</ele><time>2026-05-03T10:06:22.13Z</time></trkpt><trkpt lat="44.2056917" lon="8.0208695"><ele>582.0</ele><time>2026-05-03T10:06:23.129Z</time></trkpt><trkpt lat="44.205653" lon="8.0209638"><ele>582.0</ele><time>2026-05-03T10:06:24.129Z</time></trkpt><trkpt lat="44.205588" lon="8.0210575"><ele>582.0</ele><time>2026-05-03T10:06:25.129Z</time></trkpt><trkpt lat="44.2055028" lon="8.0211274"><ele>582.5</ele><time>2026-05-03T10:06:26.13Z</time></trkpt><trkpt lat="44.2054071" lon="8.0211759"><ele>583.0</ele><time>2026-05-03T10:06:27.129Z</time></trkpt><trkpt lat="44.2053027" lon="8.0212253"><ele>583.5</ele><time>2026-05-03T10:06:28.129Z</time></trkpt><trkpt lat="44.2051866" lon="8.0212837"><ele>584.0</ele><time>2026-05-03T10:06:29.13Z</time></trkpt><trkpt lat="44.205072" lon="8.0213459"><ele>584.0</ele><time>2026-05-03T10:06:30.129Z</time></trkpt><trkpt lat="44.2049497" lon="8.0214113"><ele>584.0</ele><time>2026-05-03T10:06:31.129Z</time></trkpt><trkpt lat="44.2048179" lon="8.0214821"><ele>584.0</ele><time>2026-05-03T10:06:32.13Z</time></trkpt><trkpt lat="44.2046795" lon="8.021557"><ele>584.0</ele><time>2026-05-03T10:06:33.13Z</time></trkpt><trkpt lat="44.2045378" lon="8.0216332"><ele>584.5</ele><time>2026-05-03T10:06:34.13Z</time></trkpt><trkpt lat="44.2043939" lon="8.0217031"><ele>585.0</ele><time>2026-05-03T10:06:35.129Z</time></trkpt><trkpt lat="44.2042517" lon="8.0217636"><ele>585.5</ele><time>2026-05-03T10:06:36.129Z</time></trkpt><trkpt lat="44.2041204" lon="8.0218081"><ele>586.0</ele><time>2026-05-03T10:06:37.129Z</time></trkpt><trkpt lat="44.204011" lon="8.0218379"><ele>586.1666666666667</ele><time>2026-05-03T10:06:38.129Z</time></trkpt><trkpt lat="44.203929" lon="8.021852"><ele>586.3333333333334</ele><time>2026-05-03T10:06:39.129Z</time></trkpt><trkpt lat="44.2038548" lon="8.0218525"><ele>586.5</ele><time>2026-05-03T10:06:41.129Z</time></trkpt><trkpt lat="44.2037641" lon="8.0218796"><ele>586.6666666666666</ele><time>2026-05-03T10:07:30.129Z</time></trkpt><trkpt lat="44.2036969" lon="8.021871"><ele>586.8333333333333</ele><time>2026-05-03T10:07:31.129Z</time></trkpt><trkpt lat="44.2035997" lon="8.0218724"><ele>587.0</ele><time>2026-05-03T10:07:32.13Z</time></trkpt><trkpt lat="44.2034974" lon="8.0218624"><ele>587.0</ele><time>2026-05-03T10:07:33.129Z</time></trkpt><trkpt lat="44.2033907" lon="8.0218607"><ele>587.0</ele><time>2026-05-03T10:07:34.129Z</time></trkpt><trkpt lat="44.203275" lon="8.021859"><ele>587.0</ele><time>2026-05-03T10:07:35.129Z</time></trkpt><trkpt lat="44.2031518" lon="8.0218582"><ele>587.0</ele><time>2026-05-03T10:07:36.129Z</time></trkpt><trkpt lat="44.2030238" lon="8.0218581"><ele>587.25</ele><time>2026-05-03T10:07:37.129Z</time></trkpt><trkpt lat="44.2028949" lon="8.0218602"><ele>587.5</ele><time>2026-05-03T10:07:38.13Z</time></trkpt><trkpt lat="44.2027622" lon="8.0218587"><ele>587.75</ele><time>2026-05-03T10:07:39.13Z</time></trkpt><trkpt lat="44.2026455" lon="8.0218612"><ele>588.0</ele><time>2026-05-03T10:07:40.129Z</time></trkpt><trkpt lat="44.2025207" lon="8.0218699"><ele>588.0</ele><time>2026-05-03T10:07:41.129Z</time></trkpt><trkpt lat="44.2024006" lon="8.0218962"><ele>588.0</ele><time>2026-05-03T10:07:42.129Z</time></trkpt><trkpt lat="44.2022815" lon="8.02197"><ele>588.0</ele><time>2026-05-03T10:07:43.129Z</time></trkpt><trkpt lat="44.2021732" lon="8.0220738"><ele>588.0</ele><time>2026-05-03T10:07:44.129Z</time></trkpt><trkpt lat="44.2020588" lon="8.0222357"><ele>588.0</ele><time>2026-05-03T10:07:45.129Z</time></trkpt><trkpt lat="44.2019501" lon="8.0223956"><ele>588.0</ele><time>2026-05-03T10:07:46.13Z</time></trkpt><trkpt lat="44.2018387" lon="8.022567"><ele>588.0</ele><time>2026-05-03T10:07:47.129Z</time></trkpt><trkpt lat="44.2017252" lon="8.0227435"><ele>588.3333333333334</ele><time>2026-05-03T10:07:48.129Z</time></trkpt><trkpt lat="44.2016095" lon="8.0229153"><ele>588.6666666666667</ele><time>2026-05-03T10:07:49.13Z</time></trkpt><trkpt lat="44.2014941" lon="8.0230862"><ele>589.0</ele><time>2026-05-03T10:07:50.129Z</time></trkpt><trkpt lat="44.2013786" lon="8.0232542"><ele>589.6666666666667</ele><time>2026-05-03T10:07:51.129Z</time></trkpt><trkpt lat="44.2012677" lon="8.0234272"><ele>590.3333333333334</ele><time>2026-05-03T10:07:52.129Z</time></trkpt><trkpt lat="44.2011528" lon="8.0235996"><ele>591.0</ele><time>2026-05-03T10:07:53.129Z</time></trkpt><trkpt lat="44.2010456" lon="8.0237743"><ele>591.0</ele><time>2026-05-03T10:07:54.129Z</time></trkpt><trkpt lat="44.2009365" lon="8.0239447"><ele>591.0</ele><time>2026-05-03T10:07:55.13Z</time></trkpt><trkpt lat="44.2008251" lon="8.024116"><ele>591.0</ele><time>2026-05-03T10:07:56.129Z</time></trkpt><trkpt lat="44.2007126" lon="8.0242886"><ele>592.0</ele><time>2026-05-03T10:07:57.129Z</time></trkpt><trkpt lat="44.2006045" lon="8.0244578"><ele>593.0</ele><time>2026-05-03T10:07:58.129Z</time></trkpt><trkpt lat="44.2004952" lon="8.0246285"><ele>594.0</ele><time>2026-05-03T10:07:59.129Z</time></trkpt><trkpt lat="44.200386" lon="8.0247914"><ele>594.0</ele><time>2026-05-03T10:08:00.13Z</time></trkpt><trkpt lat="44.200276" lon="8.0249547"><ele>594.0</ele><time>2026-05-03T10:08:01.129Z</time></trkpt><trkpt lat="44.200168" lon="8.0251263"><ele>594.0</ele><time>2026-05-03T10:08:02.13Z</time></trkpt><trkpt lat="44.2000523" lon="8.0253026"><ele>595.0</ele><time>2026-05-03T10:08:03.129Z</time></trkpt><trkpt lat="44.1999349" lon="8.0254808"><ele>596.0</ele><time>2026-05-03T10:08:04.13Z</time></trkpt><trkpt lat="44.1998181" lon="8.025652"><ele>597.0</ele><time>2026-05-03T10:08:05.129Z</time></trkpt><trkpt lat="44.1996983" lon="8.0258232"><ele>597.0</ele><time>2026-05-03T10:08:06.129Z</time></trkpt><trkpt lat="44.1995752" lon="8.0259928"><ele>597.0</ele><time>2026-05-03T10:08:07.13Z</time></trkpt><trkpt lat="44.199452" lon="8.0261647"><ele>597.0</ele><time>2026-05-03T10:08:08.129Z</time></trkpt><trkpt lat="44.1993226" lon="8.0263316"><ele>597.0</ele><time>2026-05-03T10:08:09.129Z</time></trkpt><trkpt lat="44.1991961" lon="8.0264976"><ele>597.0</ele><time>2026-05-03T10:08:10.129Z</time></trkpt><trkpt lat="44.1990645" lon="8.0266644"><ele>597.0</ele><time>2026-05-03T10:08:11.129Z</time></trkpt><trkpt lat="44.1989294" lon="8.0268327"><ele>599.3333333333334</ele><time>2026-05-03T10:08:12.129Z</time></trkpt><trkpt lat="44.1987924" lon="8.0269985"><ele>601.6666666666667</ele><time>2026-05-03T10:08:13.129Z</time></trkpt><trkpt lat="44.1986557" lon="8.0271629"><ele>604.0</ele><time>2026-05-03T10:08:14.129Z</time></trkpt><trkpt lat="44.1985202" lon="8.0273258"><ele>604.0</ele><time>2026-05-03T10:08:15.129Z</time></trkpt><trkpt lat="44.1983785" lon="8.0274804"><ele>604.0</ele><time>2026-05-03T10:08:16.129Z</time></trkpt><trkpt lat="44.1982377" lon="8.0276373"><ele>604.0</ele><time>2026-05-03T10:08:17.129Z</time></trkpt><trkpt lat="44.1980954" lon="8.0277921"><ele>613.0</ele><time>2026-05-03T10:08:18.129Z</time></trkpt><trkpt lat="44.1979576" lon="8.02795"><ele>622.0</ele><time>2026-05-03T10:08:19.129Z</time></trkpt><trkpt lat="44.1978202" lon="8.0281037"><ele>631.0</ele><time>2026-05-03T10:08:20.129Z</time></trkpt><trkpt lat="44.1976891" lon="8.0282538"><ele>627.0</ele><time>2026-05-03T10:08:21.129Z</time></trkpt><trkpt lat="44.1975621" lon="8.028401"><ele>623.0</ele><time>2026-05-03T10:08:22.129Z</time></trkpt><trkpt lat="44.1974335" lon="8.0285488"><ele>619.0</ele><time>2026-05-03T10:08:23.13Z</time></trkpt><trkpt lat="44.1973027" lon="8.0286929"><ele>630.3333333333334</ele><time>2026-05-03T10:08:24.129Z</time></trkpt><trkpt lat="44.197164" lon="8.0288229"><ele>641.6666666666666</ele><time>2026-05-03T10:08:25.129Z</time></trkpt><trkpt lat="44.1970174" lon="8.0289368"><ele>653.0</ele><time>2026-05-03T10:08:26.129Z</time></trkpt><trkpt lat="44.1968603" lon="8.0290311"><ele>653.0</ele><time>2026-05-03T10:08:27.129Z</time></trkpt><trkpt lat="44.1966981" lon="8.0291189"><ele>653.0</ele><time>2026-05-03T10:08:28.131Z</time></trkpt><trkpt lat="44.1965278" lon="8.0292093"><ele>653.0</ele><time>2026-05-03T10:08:29.129Z</time></trkpt><trkpt lat="44.1963546" lon="8.0293008"><ele>646.3333333333333</ele><time>2026-05-03T10:08:30.129Z</time></trkpt><trkpt lat="44.1961831" lon="8.0293913"><ele>639.6666666666666</ele><time>2026-05-03T10:08:31.129Z</time></trkpt><trkpt lat="44.1960112" lon="8.0294876"><ele>633.0</ele><time>2026-05-03T10:08:32.13Z</time></trkpt><trkpt lat="44.1958413" lon="8.0295857"><ele>633.0</ele><time>2026-05-03T10:08:33.129Z</time></trkpt><trkpt lat="44.1956704" lon="8.0296809"><ele>633.0</ele><time>2026-05-03T10:08:34.129Z</time></trkpt><trkpt lat="44.1955057" lon="8.0297783"><ele>633.0</ele><time>2026-05-03T10:08:35.129Z</time></trkpt><trkpt lat="44.1953471" lon="8.0298809"><ele>631.6666666666666</ele><time>2026-05-03T10:08:36.13Z</time></trkpt><trkpt lat="44.1951983" lon="8.0300004"><ele>630.3333333333333</ele><time>2026-05-03T10:08:37.129Z</time></trkpt><trkpt lat="44.1950554" lon="8.0301449"><ele>629.0</ele><time>2026-05-03T10:08:38.13Z</time></trkpt><trkpt lat="44.194912" lon="8.030297"><ele>634.3333333333333</ele><time>2026-05-03T10:08:39.129Z</time></trkpt><trkpt lat="44.1947606" lon="8.030447"><ele>639.6666666666666</ele><time>2026-05-03T10:08:40.13Z</time></trkpt><trkpt lat="44.1946008" lon="8.0305846"><ele>645.0</ele><time>2026-05-03T10:08:41.129Z</time></trkpt><trkpt lat="44.1944306" lon="8.0306938"><ele>645.0</ele><time>2026-05-03T10:08:42.129Z</time></trkpt><trkpt lat="44.1942509" lon="8.0307732"><ele>645.0</ele><time>2026-05-03T10:08:43.129Z</time></trkpt><trkpt lat="44.1940671" lon="8.0308492"><ele>645.0</ele><time>2026-05-03T10:08:44.129Z</time></trkpt><trkpt lat="44.1938884" lon="8.0309523"><ele>648.6666666666666</ele><time>2026-05-03T10:08:45.13Z</time></trkpt><trkpt lat="44.1937166" lon="8.0310908"><ele>652.3333333333333</ele><time>2026-05-03T10:08:46.129Z</time></trkpt><trkpt lat="44.1935493" lon="8.0312574"><ele>656.0</ele><time>2026-05-03T10:08:47.129Z</time></trkpt><trkpt lat="44.1933718" lon="8.0313886"><ele>656.0</ele><time>2026-05-03T10:08:48.129Z</time></trkpt><trkpt lat="44.193181" lon="8.0314656"><ele>656.0</ele><time>2026-05-03T10:08:49.13Z</time></trkpt><trkpt lat="44.1929896" lon="8.0315074"><ele>656.0</ele><time>2026-05-03T10:08:50.129Z</time></trkpt><trkpt lat="44.1928095" lon="8.0315838"><ele>659.0</ele><time>2026-05-03T10:08:51.13Z</time></trkpt><trkpt lat="44.1926351" lon="8.0316786"><ele>662.0</ele><time>2026-05-03T10:08:52.129Z</time></trkpt><trkpt lat="44.1924605" lon="8.031808"><ele>665.0</ele><time>2026-05-03T10:08:53.129Z</time></trkpt><trkpt lat="44.1922716" lon="8.0318479"><ele>666.6666666666666</ele><time>2026-05-03T10:08:54.13Z</time></trkpt><trkpt lat="44.1920864" lon="8.0318354"><ele>668.3333333333334</ele><time>2026-05-03T10:08:55.129Z</time></trkpt><trkpt lat="44.1919107" lon="8.031852"><ele>670.0</ele><time>2026-05-03T10:08:56.13Z</time></trkpt><trkpt lat="44.1917131" lon="8.0318395"><ele>670.0</ele><time>2026-05-03T10:08:57.129Z</time></trkpt><trkpt lat="44.1915199" lon="8.0318252"><ele>670.0</ele><time>2026-05-03T10:08:58.129Z</time></trkpt><trkpt lat="44.1913297" lon="8.0318328"><ele>670.0</ele><time>2026-05-03T10:08:59.129Z</time></trkpt><trkpt lat="44.191142" lon="8.0318973"><ele>673.3333333333334</ele><time>2026-05-03T10:09:00.13Z</time></trkpt><trkpt lat="44.1909457" lon="8.0319519"><ele>676.6666666666666</ele><time>2026-05-03T10:09:01.129Z</time></trkpt><trkpt lat="44.1907549" lon="8.0320121"><ele>680.0</ele><time>2026-05-03T10:09:02.129Z</time></trkpt><trkpt lat="44.1905613" lon="8.0320717"><ele>683.6666666666666</ele><time>2026-05-03T10:09:03.129Z</time></trkpt><trkpt lat="44.1903703" lon="8.0321348"><ele>687.3333333333334</ele><time>2026-05-03T10:09:04.13Z</time></trkpt><trkpt lat="44.1901815" lon="8.0321958"><ele>691.0</ele><time>2026-05-03T10:09:05.13Z</time></trkpt><trkpt lat="44.189998" lon="8.032268"><ele>691.0</ele><time>2026-05-03T10:09:06.129Z</time></trkpt><trkpt lat="44.1898102" lon="8.0323245"><ele>691.0</ele><time>2026-05-03T10:09:07.13Z</time></trkpt><trkpt lat="44.1896422" lon="8.0323952"><ele>691.0</ele><time>2026-05-03T10:09:08.129Z</time></trkpt><trkpt lat="44.1894871" lon="8.0324847"><ele>691.0</ele><time>2026-05-03T10:09:09.129Z</time></trkpt><trkpt lat="44.1893367" lon="8.0325695"><ele>691.0</ele><time>2026-05-03T10:09:10.129Z</time></trkpt><trkpt lat="44.1892762" lon="8.0328075"><ele>691.0</ele><time>2026-05-03T10:09:11.129Z</time></trkpt><trkpt lat="44.1892292" lon="8.0330619"><ele>691.0</ele><time>2026-05-03T10:09:12.129Z</time></trkpt><trkpt lat="44.18914" lon="8.0332539"><ele>691.0</ele><time>2026-05-03T10:09:13.129Z</time></trkpt><trkpt lat="44.1889557" lon="8.0333372"><ele>691.0</ele><time>2026-05-03T10:09:14.129Z</time></trkpt><trkpt lat="44.188805" lon="8.033447"><ele>693.0</ele><time>2026-05-03T10:09:15.129Z</time></trkpt><trkpt lat="44.1886507" lon="8.0335604"><ele>695.0</ele><time>2026-05-03T10:09:16.13Z</time></trkpt><trkpt lat="44.1884992" lon="8.0336879"><ele>697.0</ele><time>2026-05-03T10:09:17.129Z</time></trkpt><trkpt lat="44.1883523" lon="8.0338183"><ele>697.0</ele><time>2026-05-03T10:09:18.129Z</time></trkpt><trkpt lat="44.1882233" lon="8.0339372"><ele>697.0</ele><time>2026-05-03T10:09:19.129Z</time></trkpt><trkpt lat="44.1881047" lon="8.0340393"><ele>697.0</ele><time>2026-05-03T10:09:20.13Z</time></trkpt><trkpt lat="44.1880038" lon="8.0341352"><ele>697.0</ele><time>2026-05-03T10:09:21.129Z</time></trkpt><trkpt lat="44.1879342" lon="8.034237"><ele>698.0</ele><time>2026-05-03T10:09:22.13Z</time></trkpt><trkpt lat="44.1878514" lon="8.0343407"><ele>699.0</ele><time>2026-05-03T10:09:23.129Z</time></trkpt><trkpt lat="44.1878939" lon="8.0344315"><ele>700.0</ele><time>2026-05-03T10:09:24.129Z</time></trkpt><trkpt lat="44.1878888" lon="8.0345346"><ele>701.0</ele><time>2026-05-03T10:09:25.13Z</time></trkpt><trkpt lat="44.1880186" lon="8.034571"><ele>702.0</ele><time>2026-05-03T10:09:27.129Z</time></trkpt><trkpt lat="44.1882164" lon="8.0343679"><ele>702.0</ele><time>2026-05-03T10:09:28.131Z</time></trkpt><trkpt lat="44.1883644" lon="8.0342574"><ele>702.0</ele><time>2026-05-03T10:09:29.129Z</time></trkpt><trkpt lat="44.188507" lon="8.0341411"><ele>702.0</ele><time>2026-05-03T10:09:30.13Z</time></trkpt><trkpt lat="44.1886484" lon="8.034049"><ele>700.3333333333334</ele><time>2026-05-03T10:09:31.129Z</time></trkpt><trkpt lat="44.1887937" lon="8.0339817"><ele>698.6666666666667</ele><time>2026-05-03T10:09:32.13Z</time></trkpt><trkpt lat="44.1889547" lon="8.0339345"><ele>697.0</ele><time>2026-05-03T10:09:33.129Z</time></trkpt><trkpt lat="44.1891201" lon="8.0339043"><ele>696.0</ele><time>2026-05-03T10:09:34.129Z</time></trkpt><trkpt lat="44.1892749" lon="8.0338393"><ele>695.0</ele><time>2026-05-03T10:09:35.129Z</time></trkpt><trkpt lat="44.18941" lon="8.0337441"><ele>694.0</ele><time>2026-05-03T10:09:36.129Z</time></trkpt><trkpt lat="44.1895163" lon="8.0336421"><ele>693.0</ele><time>2026-05-03T10:09:37.129Z</time></trkpt><trkpt lat="44.1896089" lon="8.0335218"><ele>693.0</ele><time>2026-05-03T10:09:38.129Z</time></trkpt><trkpt lat="44.1897059" lon="8.0334469"><ele>693.0</ele><time>2026-05-03T10:09:39.129Z</time></trkpt><trkpt lat="44.1897864" lon="8.0334192"><ele>693.0</ele><time>2026-05-03T10:09:40.13Z</time></trkpt><trkpt lat="44.1898525" lon="8.0335028"><ele>693.0</ele><time>2026-05-03T10:09:41.129Z</time></trkpt><trkpt lat="44.1898397" lon="8.0336416"><ele>693.0</ele><time>2026-05-03T10:09:42.13Z</time></trkpt><trkpt lat="44.1898006" lon="8.0337541"><ele>693.0</ele><time>2026-05-03T10:09:43.13Z</time></trkpt><trkpt lat="44.1897284" lon="8.0338876"><ele>693.0</ele><time>2026-05-03T10:09:44.129Z</time></trkpt><trkpt lat="44.1896324" lon="8.0340126"><ele>693.0</ele><time>2026-05-03T10:09:45.129Z</time></trkpt><trkpt lat="44.1895406" lon="8.0341148"><ele>693.0</ele><time>2026-05-03T10:09:46.129Z</time></trkpt><trkpt lat="44.1894532" lon="8.0341887"><ele>696.8</ele><time>2026-05-03T10:09:47.129Z</time></trkpt><trkpt lat="44.1893698" lon="8.0342539"><ele>700.5999999999999</ele><time>2026-05-03T10:09:48.129Z</time></trkpt><trkpt lat="44.1893019" lon="8.0342996"><ele>704.4000000000001</ele><time>2026-05-03T10:09:49.129Z</time></trkpt><trkpt lat="44.1892175" lon="8.0343836"><ele>708.2</ele><time>2026-05-03T10:09:51.13Z</time></trkpt><trkpt lat="44.1891538" lon="8.0344506"><ele>712.0</ele><time>2026-05-03T10:11:03.13Z</time></trkpt><trkpt lat="44.1890538" lon="8.0345537"><ele>710.0</ele><time>2026-05-03T10:11:05.129Z</time></trkpt><trkpt lat="44.1889629" lon="8.0346407"><ele>708.0</ele><time>2026-05-03T10:11:06.13Z</time></trkpt><trkpt lat="44.1888756" lon="8.0347121"><ele>706.0</ele><time>2026-05-03T10:11:07.129Z</time></trkpt><trkpt lat="44.1887776" lon="8.0347809"><ele>704.0</ele><time>2026-05-03T10:11:08.129Z</time></trkpt><trkpt lat="44.188668" lon="8.0348617"><ele>702.0</ele><time>2026-05-03T10:11:09.129Z</time></trkpt><trkpt lat="44.1885395" lon="8.0349247"><ele>704.0</ele><time>2026-05-03T10:11:10.129Z</time></trkpt><trkpt lat="44.1884234" lon="8.0349894"><ele>706.0</ele><time>2026-05-03T10:11:11.129Z</time></trkpt><trkpt lat="44.1882927" lon="8.0350734"><ele>708.0</ele><time>2026-05-03T10:11:12.129Z</time></trkpt><trkpt lat="44.188167" lon="8.0351674"><ele>710.0</ele><time>2026-05-03T10:11:13.129Z</time></trkpt><trkpt lat="44.1880544" lon="8.0352813"><ele>710.0</ele><time>2026-05-03T10:11:14.129Z</time></trkpt><trkpt lat="44.1879693" lon="8.0354423"><ele>710.0</ele><time>2026-05-03T10:11:15.129Z</time></trkpt><trkpt lat="44.1879214" lon="8.0356352"><ele>710.0</ele><time>2026-05-03T10:11:16.129Z</time></trkpt><trkpt lat="44.1878634" lon="8.0358184"><ele>710.0</ele><time>2026-05-03T10:11:17.129Z</time></trkpt><trkpt lat="44.1878014" lon="8.035975"><ele>714.25</ele><time>2026-05-03T10:11:18.129Z</time></trkpt><trkpt lat="44.1877167" lon="8.0360991"><ele>718.5</ele><time>2026-05-03T10:11:19.13Z</time></trkpt><trkpt lat="44.1876144" lon="8.036201"><ele>722.75</ele><time>2026-05-03T10:11:20.129Z</time></trkpt><trkpt lat="44.1874946" lon="8.0362845"><ele>727.0</ele><time>2026-05-03T10:11:21.129Z</time></trkpt><trkpt lat="44.1873666" lon="8.0363517"><ele>729.0</ele><time>2026-05-03T10:11:22.13Z</time></trkpt><trkpt lat="44.1872451" lon="8.0364218"><ele>731.0</ele><time>2026-05-03T10:11:23.129Z</time></trkpt><trkpt lat="44.1871299" lon="8.0364815"><ele>733.0</ele><time>2026-05-03T10:11:24.129Z</time></trkpt><trkpt lat="44.1870294" lon="8.0365653"><ele>735.0</ele><time>2026-05-03T10:11:25.129Z</time></trkpt><trkpt lat="44.1869242" lon="8.0366743"><ele>735.0</ele><time>2026-05-03T10:11:26.129Z</time></trkpt><trkpt lat="44.1868367" lon="8.0368194"><ele>735.0</ele><time>2026-05-03T10:11:27.129Z</time></trkpt><trkpt lat="44.1867388" lon="8.0369441"><ele>735.0</ele><time>2026-05-03T10:11:28.131Z</time></trkpt><trkpt lat="44.1866295" lon="8.0370497"><ele>735.0</ele><time>2026-05-03T10:11:29.129Z</time></trkpt><trkpt lat="44.1865293" lon="8.0371564"><ele>732.25</ele><time>2026-05-03T10:11:30.129Z</time></trkpt><trkpt lat="44.1864389" lon="8.0372744"><ele>729.5</ele><time>2026-05-03T10:11:31.129Z</time></trkpt><trkpt lat="44.1863782" lon="8.0374041"><ele>726.75</ele><time>2026-05-03T10:11:32.129Z</time></trkpt><trkpt lat="44.1863514" lon="8.0375592"><ele>724.0</ele><time>2026-05-03T10:11:33.13Z</time></trkpt><trkpt lat="44.186368" lon="8.0377417"><ele>724.0</ele><time>2026-05-03T10:11:34.129Z</time></trkpt><trkpt lat="44.1863859" lon="8.037932"><ele>724.0</ele><time>2026-05-03T10:11:35.129Z</time></trkpt><trkpt lat="44.1863676" lon="8.0381145"><ele>724.0</ele><time>2026-05-03T10:11:36.129Z</time></trkpt><trkpt lat="44.1863216" lon="8.0382833"><ele>724.0</ele><time>2026-05-03T10:11:37.129Z</time></trkpt><trkpt lat="44.1862443" lon="8.0384416"><ele>726.5</ele><time>2026-05-03T10:11:38.13Z</time></trkpt><trkpt lat="44.1861696" lon="8.0385933"><ele>729.0</ele><time>2026-05-03T10:11:39.129Z</time></trkpt><trkpt lat="44.1861122" lon="8.0387395"><ele>731.5</ele><time>2026-05-03T10:11:40.13Z</time></trkpt><trkpt lat="44.1860879" lon="8.0388928"><ele>734.0</ele><time>2026-05-03T10:11:41.129Z</time></trkpt><trkpt lat="44.1861125" lon="8.0390366"><ele>736.0</ele><time>2026-05-03T10:11:42.129Z</time></trkpt><trkpt lat="44.186178" lon="8.0391721"><ele>738.0</ele><time>2026-05-03T10:11:43.129Z</time></trkpt><trkpt lat="44.1862336" lon="8.0393088"><ele>740.0</ele><time>2026-05-03T10:11:44.13Z</time></trkpt><trkpt lat="44.1862555" lon="8.0394506"><ele>742.0</ele><time>2026-05-03T10:11:45.129Z</time></trkpt><trkpt lat="44.1862394" lon="8.0395929"><ele>744.0</ele><time>2026-05-03T10:11:46.129Z</time></trkpt><trkpt lat="44.1861899" lon="8.0397195"><ele>744.0</ele><time>2026-05-03T10:11:47.129Z</time></trkpt><trkpt lat="44.1861132" lon="8.0398253"><ele>744.0</ele><time>2026-05-03T10:11:48.129Z</time></trkpt><trkpt lat="44.186017" lon="8.0399284"><ele>744.0</ele><time>2026-05-03T10:11:49.129Z</time></trkpt><trkpt lat="44.1859124" lon="8.0400337"><ele>744.0</ele><time>2026-05-03T10:11:50.13Z</time></trkpt><trkpt lat="44.1857974" lon="8.0401296"><ele>745.75</ele><time>2026-05-03T10:11:51.129Z</time></trkpt><trkpt lat="44.185666" lon="8.0401845"><ele>747.5</ele><time>2026-05-03T10:11:52.13Z</time></trkpt><trkpt lat="44.1855339" lon="8.0401923"><ele>749.25</ele><time>2026-05-03T10:11:53.129Z</time></trkpt><trkpt lat="44.1854159" lon="8.0401718"><ele>751.0</ele><time>2026-05-03T10:11:54.129Z</time></trkpt><trkpt lat="44.1853119" lon="8.0401582"><ele>751.0</ele><time>2026-05-03T10:11:55.129Z</time></trkpt><trkpt lat="44.1852127" lon="8.0401814"><ele>751.0</ele><time>2026-05-03T10:11:56.129Z</time></trkpt><trkpt lat="44.1851277" lon="8.0402821"><ele>751.0</ele><time>2026-05-03T10:11:57.13Z</time></trkpt><trkpt lat="44.1850624" lon="8.0404372"><ele>751.0</ele><time>2026-05-03T10:11:58.129Z</time></trkpt><trkpt lat="44.1850119" lon="8.0405903"><ele>751.0</ele><time>2026-05-03T10:11:59.129Z</time></trkpt><trkpt lat="44.1849771" lon="8.0407407"><ele>751.0</ele><time>2026-05-03T10:12:00.129Z</time></trkpt><trkpt lat="44.1849723" lon="8.0408673"><ele>751.0</ele><time>2026-05-03T10:12:01.13Z</time></trkpt><trkpt lat="44.1849982" lon="8.0409768"><ele>751.0</ele><time>2026-05-03T10:12:02.129Z</time></trkpt><trkpt lat="44.1850849" lon="8.0410555"><ele>751.0</ele><time>2026-05-03T10:12:04.129Z</time></trkpt><trkpt lat="44.1852144" lon="8.0409529"><ele>751.0</ele><time>2026-05-03T10:12:06.13Z</time></trkpt><trkpt lat="44.1853211" lon="8.0407539"><ele>751.0</ele><time>2026-05-03T10:12:07.129Z</time></trkpt><trkpt lat="44.1854116" lon="8.0406129"><ele>751.0</ele><time>2026-05-03T10:12:08.13Z</time></trkpt><trkpt lat="44.1855625" lon="8.0407361"><ele>753.75</ele><time>2026-05-03T10:12:09.129Z</time></trkpt><trkpt lat="44.1856815" lon="8.0407177"><ele>756.5</ele><time>2026-05-03T10:12:10.129Z</time></trkpt><trkpt lat="44.1858143" lon="8.0406623"><ele>759.25</ele><time>2026-05-03T10:12:11.129Z</time></trkpt><trkpt lat="44.185944" lon="8.0405881"><ele>762.0</ele><time>2026-05-03T10:12:12.129Z</time></trkpt><trkpt lat="44.1860848" lon="8.0405196"><ele>762.0</ele><time>2026-05-03T10:12:13.13Z</time></trkpt><trkpt lat="44.1862314" lon="8.0405178"><ele>762.0</ele><time>2026-05-03T10:12:14.129Z</time></trkpt><trkpt lat="44.1863717" lon="8.0405157"><ele>762.0</ele><time>2026-05-03T10:12:15.129Z</time></trkpt><trkpt lat="44.1865033" lon="8.0404691"><ele>762.0</ele><time>2026-05-03T10:12:16.129Z</time></trkpt><trkpt lat="44.1866145" lon="8.040353"><ele>764.75</ele><time>2026-05-03T10:12:17.13Z</time></trkpt><trkpt lat="44.1867" lon="8.0401887"><ele>767.5</ele><time>2026-05-03T10:12:18.129Z</time></trkpt><trkpt lat="44.1867829" lon="8.0400163"><ele>770.25</ele><time>2026-05-03T10:12:19.129Z</time></trkpt><trkpt lat="44.1868507" lon="8.0398335"><ele>773.0</ele><time>2026-05-03T10:12:20.129Z</time></trkpt><trkpt lat="44.1868822" lon="8.0396372"><ele>773.0</ele><time>2026-05-03T10:12:21.129Z</time></trkpt><trkpt lat="44.1868981" lon="8.0394608"><ele>773.0</ele><time>2026-05-03T10:12:22.13Z</time></trkpt><trkpt lat="44.1869212" lon="8.0392931"><ele>773.0</ele><time>2026-05-03T10:12:23.129Z</time></trkpt><trkpt lat="44.1869702" lon="8.0391424"><ele>773.0</ele><time>2026-05-03T10:12:24.129Z</time></trkpt><trkpt lat="44.1870486" lon="8.0390082"><ele>771.25</ele><time>2026-05-03T10:12:25.129Z</time></trkpt><trkpt lat="44.187152" lon="8.0389077"><ele>769.5</ele><time>2026-05-03T10:12:26.129Z</time></trkpt><trkpt lat="44.1872502" lon="8.0388064"><ele>767.75</ele><time>2026-05-03T10:12:27.13Z</time></trkpt><trkpt lat="44.1873224" lon="8.0386729"><ele>766.0</ele><time>2026-05-03T10:12:28.129Z</time></trkpt><trkpt lat="44.1873825" lon="8.0385232"><ele>768.75</ele><time>2026-05-03T10:12:29.129Z</time></trkpt><trkpt lat="44.187438" lon="8.0383716"><ele>771.5</ele><time>2026-05-03T10:12:30.129Z</time></trkpt><trkpt lat="44.1875098" lon="8.0382384"><ele>774.25</ele><time>2026-05-03T10:12:31.129Z</time></trkpt><trkpt lat="44.1876068" lon="8.0381246"><ele>777.0</ele><time>2026-05-03T10:12:32.129Z</time></trkpt><trkpt lat="44.1877104" lon="8.0380433"><ele>777.0</ele><time>2026-05-03T10:12:33.129Z</time></trkpt><trkpt lat="44.187807" lon="8.0379774"><ele>777.0</ele><time>2026-05-03T10:12:34.129Z</time></trkpt><trkpt lat="44.1878942" lon="8.0379506"><ele>777.0</ele><time>2026-05-03T10:12:35.129Z</time></trkpt><trkpt lat="44.1879596" lon="8.0379795"><ele>777.0</ele><time>2026-05-03T10:12:36.129Z</time></trkpt><trkpt lat="44.1879568" lon="8.0381404"><ele>777.0</ele><time>2026-05-03T10:12:38.129Z</time></trkpt><trkpt lat="44.1878856" lon="8.0381858"><ele>777.0</ele><time>2026-05-03T10:12:39.129Z</time></trkpt><trkpt lat="44.1877964" lon="8.0382341"><ele>777.0</ele><time>2026-05-03T10:12:40.129Z</time></trkpt><trkpt lat="44.1876855" lon="8.0383043"><ele>777.0</ele><time>2026-05-03T10:12:41.13Z</time></trkpt><trkpt lat="44.187593" lon="8.038425"><ele>777.0</ele><time>2026-05-03T10:12:42.129Z</time></trkpt><trkpt lat="44.1875244" lon="8.038603"><ele>781.3333333333333</ele><time>2026-05-03T10:12:43.129Z</time></trkpt><trkpt lat="44.1874979" lon="8.038818"><ele>785.6666666666666</ele><time>2026-05-03T10:12:44.129Z</time></trkpt><trkpt lat="44.1874468" lon="8.0390225"><ele>790.0</ele><time>2026-05-03T10:12:45.129Z</time></trkpt><trkpt lat="44.1874037" lon="8.0392444"><ele>792.3333333333333</ele><time>2026-05-03T10:12:46.129Z</time></trkpt><trkpt lat="44.1873794" lon="8.0394623"><ele>794.6666666666667</ele><time>2026-05-03T10:12:47.13Z</time></trkpt><trkpt lat="44.1873802" lon="8.03968"><ele>797.0</ele><time>2026-05-03T10:12:48.129Z</time></trkpt><trkpt lat="44.1873747" lon="8.0398963"><ele>798.3333333333334</ele><time>2026-05-03T10:12:49.129Z</time></trkpt><trkpt lat="44.1873472" lon="8.0401138"><ele>799.6666666666667</ele><time>2026-05-03T10:12:50.129Z</time></trkpt><trkpt lat="44.1873117" lon="8.0403332"><ele>801.0</ele><time>2026-05-03T10:12:51.129Z</time></trkpt><trkpt lat="44.1872776" lon="8.0405498"><ele>799.75</ele><time>2026-05-03T10:12:52.129Z</time></trkpt><trkpt lat="44.1872381" lon="8.0407433"><ele>798.5</ele><time>2026-05-03T10:12:53.129Z</time></trkpt><trkpt lat="44.187181" lon="8.0409164"><ele>797.25</ele><time>2026-05-03T10:12:54.129Z</time></trkpt><trkpt lat="44.1870982" lon="8.0410695"><ele>796.0</ele><time>2026-05-03T10:12:55.129Z</time></trkpt><trkpt lat="44.187005" lon="8.041205"><ele>796.0</ele><time>2026-05-03T10:12:56.13Z</time></trkpt><trkpt lat="44.1868977" lon="8.041324"><ele>796.0</ele><time>2026-05-03T10:12:57.129Z</time></trkpt><trkpt lat="44.1867818" lon="8.041417"><ele>796.0</ele><time>2026-05-03T10:12:58.13Z</time></trkpt><trkpt lat="44.186655" lon="8.0414859"><ele>796.0</ele><time>2026-05-03T10:12:59.13Z</time></trkpt><trkpt lat="44.1865236" lon="8.0415287"><ele>797.75</ele><time>2026-05-03T10:13:00.129Z</time></trkpt><trkpt lat="44.1863922" lon="8.0415467"><ele>799.5</ele><time>2026-05-03T10:13:01.13Z</time></trkpt><trkpt lat="44.1862644" lon="8.0415765"><ele>801.25</ele><time>2026-05-03T10:13:02.129Z</time></trkpt><trkpt lat="44.1861601" lon="8.0416384"><ele>803.0</ele><time>2026-05-03T10:13:03.129Z</time></trkpt><trkpt lat="44.1860663" lon="8.0417336"><ele>803.0</ele><time>2026-05-03T10:13:04.13Z</time></trkpt><trkpt lat="44.1859717" lon="8.0418234"><ele>803.0</ele><time>2026-05-03T10:13:05.129Z</time></trkpt><trkpt lat="44.1859574" lon="8.0419995"><ele>803.0</ele><time>2026-05-03T10:13:06.129Z</time></trkpt><trkpt lat="44.1859184" lon="8.0421695"><ele>803.0</ele><time>2026-05-03T10:13:07.129Z</time></trkpt><trkpt lat="44.1859277" lon="8.0423958"><ele>804.5</ele><time>2026-05-03T10:13:08.129Z</time></trkpt><trkpt lat="44.1858943" lon="8.0425881"><ele>806.0</ele><time>2026-05-03T10:13:09.129Z</time></trkpt><trkpt lat="44.1858211" lon="8.0427419"><ele>807.5</ele><time>2026-05-03T10:13:10.129Z</time></trkpt><trkpt lat="44.185716" lon="8.0428566"><ele>809.0</ele><time>2026-05-03T10:13:11.129Z</time></trkpt><trkpt lat="44.185604" lon="8.0429589"><ele>809.0</ele><time>2026-05-03T10:13:12.129Z</time></trkpt><trkpt lat="44.1854929" lon="8.0430604"><ele>809.0</ele><time>2026-05-03T10:13:13.13Z</time></trkpt><trkpt lat="44.1853747" lon="8.0431423"><ele>809.0</ele><time>2026-05-03T10:13:14.129Z</time></trkpt><trkpt lat="44.1852688" lon="8.0432154"><ele>809.0</ele><time>2026-05-03T10:13:15.129Z</time></trkpt><trkpt lat="44.1851725" lon="8.0432862"><ele>812.4000000000001</ele><time>2026-05-03T10:13:16.129Z</time></trkpt><trkpt lat="44.1850716" lon="8.0433702"><ele>815.8</ele><time>2026-05-03T10:13:17.13Z</time></trkpt><trkpt lat="44.1850861" lon="8.0434866"><ele>819.2</ele><time>2026-05-03T10:13:18.129Z</time></trkpt><trkpt lat="44.1850735" lon="8.0435856"><ele>822.5999999999999</ele><time>2026-05-03T10:13:19.13Z</time></trkpt><trkpt lat="44.185232" lon="8.0435818"><ele>826.0</ele><time>2026-05-03T10:13:20.129Z</time></trkpt><trkpt lat="44.1853245" lon="8.0435291"><ele>826.0</ele><time>2026-05-03T10:13:21.129Z</time></trkpt><trkpt lat="44.1854284" lon="8.0434622"><ele>826.0</ele><time>2026-05-03T10:13:22.129Z</time></trkpt><trkpt lat="44.1855477" lon="8.0433693"><ele>826.0</ele><time>2026-05-03T10:13:23.129Z</time></trkpt><trkpt lat="44.1856549" lon="8.0432771"><ele>826.0</ele><time>2026-05-03T10:13:24.129Z</time></trkpt><trkpt lat="44.1857781" lon="8.0431676"><ele>823.75</ele><time>2026-05-03T10:13:25.129Z</time></trkpt><trkpt lat="44.1858896" lon="8.0430358"><ele>821.5</ele><time>2026-05-03T10:13:26.13Z</time></trkpt><trkpt lat="44.1859869" lon="8.0429119"><ele>819.25</ele><time>2026-05-03T10:13:27.129Z</time></trkpt><trkpt lat="44.1860596" lon="8.0427962"><ele>817.0</ele><time>2026-05-03T10:13:28.129Z</time></trkpt><trkpt lat="44.1861236" lon="8.0427127"><ele>817.0</ele><time>2026-05-03T10:13:29.13Z</time></trkpt><trkpt lat="44.1861894" lon="8.0426719"><ele>817.0</ele><time>2026-05-03T10:13:30.129Z</time></trkpt><trkpt lat="44.1862657" lon="8.0427771"><ele>817.0</ele><time>2026-05-03T10:13:32.13Z</time></trkpt><trkpt lat="44.1862467" lon="8.0428836"><ele>817.0</ele><time>2026-05-03T10:13:33.13Z</time></trkpt><trkpt lat="44.1861849" lon="8.0429805"><ele>817.0</ele><time>2026-05-03T10:13:34.13Z</time></trkpt><trkpt lat="44.1861063" lon="8.0430857"><ele>817.0</ele><time>2026-05-03T10:13:35.129Z</time></trkpt><trkpt lat="44.1860177" lon="8.0432212"><ele>817.0</ele><time>2026-05-03T10:13:36.13Z</time></trkpt><trkpt lat="44.1859061" lon="8.0433576"><ele>817.0</ele><time>2026-05-03T10:13:37.13Z</time></trkpt><trkpt lat="44.1857975" lon="8.0434724"><ele>817.0</ele><time>2026-05-03T10:13:38.129Z</time></trkpt><trkpt lat="44.1856771" lon="8.0435944"><ele>820.0</ele><time>2026-05-03T10:13:39.129Z</time></trkpt><trkpt lat="44.1855458" lon="8.0437014"><ele>823.0</ele><time>2026-05-03T10:13:40.129Z</time></trkpt><trkpt lat="44.1854146" lon="8.0438122"><ele>826.0</ele><time>2026-05-03T10:13:41.129Z</time></trkpt><trkpt lat="44.185276" lon="8.04392"><ele>826.0</ele><time>2026-05-03T10:13:42.129Z</time></trkpt><trkpt lat="44.1851479" lon="8.0440328"><ele>826.0</ele><time>2026-05-03T10:13:43.129Z</time></trkpt><trkpt lat="44.1850259" lon="8.0441529"><ele>826.0</ele><time>2026-05-03T10:13:44.13Z</time></trkpt><trkpt lat="44.1848929" lon="8.0442619"><ele>829.25</ele><time>2026-05-03T10:13:45.129Z</time></trkpt><trkpt lat="44.1847571" lon="8.0443272"><ele>832.5</ele><time>2026-05-03T10:13:46.129Z</time></trkpt><trkpt lat="44.1846148" lon="8.0443733"><ele>835.75</ele><time>2026-05-03T10:13:47.13Z</time></trkpt><trkpt lat="44.1844695" lon="8.0444008"><ele>839.0</ele><time>2026-05-03T10:13:48.129Z</time></trkpt><trkpt lat="44.1843216" lon="8.0444264"><ele>839.0</ele><time>2026-05-03T10:13:49.13Z</time></trkpt><trkpt lat="44.1841729" lon="8.0445268"><ele>839.0</ele><time>2026-05-03T10:13:50.129Z</time></trkpt><trkpt lat="44.184033" lon="8.0446273"><ele>839.0</ele><time>2026-05-03T10:13:51.13Z</time></trkpt><trkpt lat="44.183889" lon="8.044736"><ele>835.6666666666667</ele><time>2026-05-03T10:13:52.129Z</time></trkpt><trkpt lat="44.183739" lon="8.0448462"><ele>832.3333333333333</ele><time>2026-05-03T10:13:53.129Z</time></trkpt><trkpt lat="44.1835952" lon="8.0449532"><ele>829.0</ele><time>2026-05-03T10:13:54.129Z</time></trkpt><trkpt lat="44.1834627" lon="8.0450572"><ele>831.5</ele><time>2026-05-03T10:13:55.13Z</time></trkpt><trkpt lat="44.1833582" lon="8.0451894"><ele>834.0</ele><time>2026-05-03T10:13:56.129Z</time></trkpt><trkpt lat="44.1832351" lon="8.0452802"><ele>836.5</ele><time>2026-05-03T10:13:57.129Z</time></trkpt><trkpt lat="44.1831162" lon="8.0453752"><ele>839.0</ele><time>2026-05-03T10:13:58.13Z</time></trkpt><trkpt lat="44.1829974" lon="8.0454727"><ele>839.0</ele><time>2026-05-03T10:13:59.129Z</time></trkpt><trkpt lat="44.1828849" lon="8.0455732"><ele>839.0</ele><time>2026-05-03T10:14:00.13Z</time></trkpt><trkpt lat="44.1827848" lon="8.0456871"><ele>839.0</ele><time>2026-05-03T10:14:01.129Z</time></trkpt><trkpt lat="44.1827063" lon="8.0458484"><ele>839.0</ele><time>2026-05-03T10:14:02.129Z</time></trkpt><trkpt lat="44.1826334" lon="8.0460298"><ele>845.0</ele><time>2026-05-03T10:14:03.129Z</time></trkpt><trkpt lat="44.1825436" lon="8.0461936"><ele>851.0</ele><time>2026-05-03T10:14:04.129Z</time></trkpt><trkpt lat="44.1824448" lon="8.0463538"><ele>857.0</ele><time>2026-05-03T10:14:05.129Z</time></trkpt><trkpt lat="44.1823546" lon="8.0465315"><ele>860.6666666666667</ele><time>2026-05-03T10:14:06.129Z</time></trkpt><trkpt lat="44.1822824" lon="8.0467382"><ele>864.3333333333333</ele><time>2026-05-03T10:14:07.129Z</time></trkpt><trkpt lat="44.1822156" lon="8.0469488"><ele>868.0</ele><time>2026-05-03T10:14:08.129Z</time></trkpt><trkpt lat="44.1821528" lon="8.0471658"><ele>868.0</ele><time>2026-05-03T10:14:09.129Z</time></trkpt><trkpt lat="44.1820888" lon="8.0473905"><ele>868.0</ele><time>2026-05-03T10:14:10.13Z</time></trkpt><trkpt lat="44.1820153" lon="8.0476181"><ele>868.0</ele><time>2026-05-03T10:14:11.129Z</time></trkpt><trkpt lat="44.1819353" lon="8.0478442"><ele>872.0</ele><time>2026-05-03T10:14:12.129Z</time></trkpt><trkpt lat="44.1818521" lon="8.0480708"><ele>876.0</ele><time>2026-05-03T10:14:13.13Z</time></trkpt><trkpt lat="44.1817697" lon="8.0483077"><ele>880.0</ele><time>2026-05-03T10:14:14.129Z</time></trkpt><trkpt lat="44.1816887" lon="8.0485449"><ele>882.0</ele><time>2026-05-03T10:14:15.129Z</time></trkpt><trkpt lat="44.1816149" lon="8.0487695"><ele>884.0</ele><time>2026-05-03T10:14:16.129Z</time></trkpt><trkpt lat="44.1815633" lon="8.0489818"><ele>886.0</ele><time>2026-05-03T10:14:17.129Z</time></trkpt><trkpt lat="44.1815232" lon="8.0491944"><ele>894.5</ele><time>2026-05-03T10:14:18.129Z</time></trkpt><trkpt lat="44.1814866" lon="8.0493968"><ele>903.0</ele><time>2026-05-03T10:14:19.13Z</time></trkpt><trkpt lat="44.1814548" lon="8.0496013"><ele>911.5</ele><time>2026-05-03T10:14:20.13Z</time></trkpt><trkpt lat="44.1814311" lon="8.0497983"><ele>920.0</ele><time>2026-05-03T10:14:21.129Z</time></trkpt><trkpt lat="44.1814185" lon="8.0499765"><ele>920.0000000000001</ele><time>2026-05-03T10:14:22.129Z</time></trkpt><trkpt lat="44.1814154" lon="8.0501284"><ele>920.0</ele><time>2026-05-03T10:14:23.129Z</time></trkpt><trkpt lat="44.1814036" lon="8.050262"><ele>920.0</ele><time>2026-05-03T10:14:24.129Z</time></trkpt><trkpt lat="44.1813778" lon="8.0503731"><ele>920.0</ele><time>2026-05-03T10:14:25.129Z</time></trkpt><trkpt lat="44.1813169" lon="8.0504395"><ele>920.0000000000001</ele><time>2026-05-03T10:14:26.13Z</time></trkpt><trkpt lat="44.181258" lon="8.0504766"><ele>920.0</ele><time>2026-05-03T10:14:27.13Z</time></trkpt><trkpt lat="44.1812123" lon="8.0503363"><ele>920.0</ele><time>2026-05-03T10:14:28.129Z</time></trkpt><trkpt lat="44.1811947" lon="8.0502027"><ele>920.0</ele><time>2026-05-03T10:14:29.129Z</time></trkpt><trkpt lat="44.1811872" lon="8.0500462"><ele>920.0</ele><time>2026-05-03T10:14:30.129Z</time></trkpt><trkpt lat="44.1811818" lon="8.0498721"><ele>920.0</ele><time>2026-05-03T10:14:31.13Z</time></trkpt><trkpt lat="44.1811637" lon="8.0496655"><ele>920.3333333333334</ele><time>2026-05-03T10:14:32.129Z</time></trkpt><trkpt lat="44.1811546" lon="8.0494512"><ele>920.6666666666667</ele><time>2026-05-03T10:14:33.13Z</time></trkpt><trkpt lat="44.1811522" lon="8.0492414"><ele>921.0</ele><time>2026-05-03T10:14:34.129Z</time></trkpt><trkpt lat="44.1811502" lon="8.0490254"><ele>921.0</ele><time>2026-05-03T10:14:35.129Z</time></trkpt><trkpt lat="44.1811464" lon="8.048801"><ele>921.0</ele><time>2026-05-03T10:14:36.129Z</time></trkpt><trkpt lat="44.1811303" lon="8.0485816"><ele>921.0</ele><time>2026-05-03T10:14:37.129Z</time></trkpt><trkpt lat="44.1810808" lon="8.0483791"><ele>915.0</ele><time>2026-05-03T10:14:38.129Z</time></trkpt><trkpt lat="44.180994" lon="8.0481999"><ele>909.0</ele><time>2026-05-03T10:14:39.129Z</time></trkpt><trkpt lat="44.1808941" lon="8.0480404"><ele>903.0</ele><time>2026-05-03T10:14:40.129Z</time></trkpt><trkpt lat="44.1807612" lon="8.0479085"><ele>913.3333333333333</ele><time>2026-05-03T10:14:41.13Z</time></trkpt><trkpt lat="44.1806206" lon="8.0478101"><ele>923.6666666666666</ele><time>2026-05-03T10:14:42.129Z</time></trkpt><trkpt lat="44.1804682" lon="8.0477231"><ele>934.0</ele><time>2026-05-03T10:14:43.129Z</time></trkpt><trkpt lat="44.1803434" lon="8.04761"><ele>934.0</ele><time>2026-05-03T10:14:44.129Z</time></trkpt><trkpt lat="44.180241" lon="8.0474786"><ele>934.0</ele><time>2026-05-03T10:14:45.129Z</time></trkpt><trkpt lat="44.1801731" lon="8.0473022"><ele>934.0</ele><time>2026-05-03T10:14:46.129Z</time></trkpt><trkpt lat="44.1801243" lon="8.047121"><ele>934.0</ele><time>2026-05-03T10:14:47.13Z</time></trkpt><trkpt lat="44.1800553" lon="8.0469667"><ele>933.25</ele><time>2026-05-03T10:14:48.129Z</time></trkpt><trkpt lat="44.1799701" lon="8.0468579"><ele>932.5</ele><time>2026-05-03T10:14:49.129Z</time></trkpt><trkpt lat="44.1798743" lon="8.0468213"><ele>931.75</ele><time>2026-05-03T10:14:50.13Z</time></trkpt><trkpt lat="44.1797881" lon="8.0467754"><ele>931.0</ele><time>2026-05-03T10:14:51.13Z</time></trkpt><trkpt lat="44.1796677" lon="8.0469086"><ele>931.0</ele><time>2026-05-03T10:14:52.129Z</time></trkpt><trkpt lat="44.1795367" lon="8.0469484"><ele>931.0</ele><time>2026-05-03T10:14:53.129Z</time></trkpt><trkpt lat="44.179408" lon="8.0469833"><ele>931.0</ele><time>2026-05-03T10:14:54.129Z</time></trkpt><trkpt lat="44.1792895" lon="8.0469141"><ele>931.0</ele><time>2026-05-03T10:14:55.13Z</time></trkpt><trkpt lat="44.179135" lon="8.0468341"><ele>931.0</ele><time>2026-05-03T10:14:56.129Z</time></trkpt><trkpt lat="44.1790192" lon="8.0466685"><ele>931.0</ele><time>2026-05-03T10:14:57.13Z</time></trkpt><trkpt lat="44.1787186" lon="8.0463854"><ele>933.25</ele><time>2026-05-03T10:15:00.129Z</time></trkpt><trkpt lat="44.1786009" lon="8.0464166"><ele>935.5</ele><time>2026-05-03T10:15:01.129Z</time></trkpt><trkpt lat="44.1784608" lon="8.0464674"><ele>937.75</ele><time>2026-05-03T10:15:02.129Z</time></trkpt><trkpt lat="44.1782796" lon="8.0464929"><ele>940.0</ele><time>2026-05-03T10:15:03.13Z</time></trkpt><trkpt lat="44.1781123" lon="8.0464266"><ele>940.0</ele><time>2026-05-03T10:15:04.129Z</time></trkpt><trkpt lat="44.1779464" lon="8.0463957"><ele>940.0</ele><time>2026-05-03T10:15:05.129Z</time></trkpt><trkpt lat="44.177791" lon="8.0463316"><ele>940.0</ele><time>2026-05-03T10:15:06.129Z</time></trkpt><trkpt lat="44.1776497" lon="8.0462636"><ele>940.0</ele><time>2026-05-03T10:15:07.13Z</time></trkpt><trkpt lat="44.1775286" lon="8.0461731"><ele>940.0</ele><time>2026-05-03T10:15:08.129Z</time></trkpt><trkpt lat="44.1774137" lon="8.0460734"><ele>940.0</ele><time>2026-05-03T10:15:09.129Z</time></trkpt><trkpt lat="44.177406" lon="8.0457978"><ele>944.6666666666666</ele><time>2026-05-03T10:15:10.13Z</time></trkpt><trkpt lat="44.1773393" lon="8.0455962"><ele>949.3333333333333</ele><time>2026-05-03T10:15:11.129Z</time></trkpt><trkpt lat="44.1772631" lon="8.0453754"><ele>954.0</ele><time>2026-05-03T10:15:12.13Z</time></trkpt><trkpt lat="44.1771825" lon="8.0451668"><ele>954.0</ele><time>2026-05-03T10:15:13.129Z</time></trkpt><trkpt lat="44.1770889" lon="8.0449631"><ele>954.0</ele><time>2026-05-03T10:15:14.129Z</time></trkpt><trkpt lat="44.1769805" lon="8.0447865"><ele>954.0</ele><time>2026-05-03T10:15:15.13Z</time></trkpt><trkpt lat="44.1768693" lon="8.0446477"><ele>952.4000000000001</ele><time>2026-05-03T10:15:16.129Z</time></trkpt><trkpt lat="44.1767609" lon="8.0445409"><ele>950.8000000000001</ele><time>2026-05-03T10:15:17.129Z</time></trkpt><trkpt lat="44.1766594" lon="8.0444995"><ele>949.1999999999999</ele><time>2026-05-03T10:15:18.129Z</time></trkpt><trkpt lat="44.1765683" lon="8.0445273"><ele>947.5999999999999</ele><time>2026-05-03T10:15:19.129Z</time></trkpt><trkpt lat="44.1765102" lon="8.0446409"><ele>946.0</ele><time>2026-05-03T10:15:20.129Z</time></trkpt><trkpt lat="44.1764444" lon="8.044746"><ele>946.0</ele><time>2026-05-03T10:15:21.129Z</time></trkpt><trkpt lat="44.1766238" lon="8.044888"><ele>946.0</ele><time>2026-05-03T10:15:22.129Z</time></trkpt><trkpt lat="44.176723" lon="8.0449536"><ele>946.0</ele><time>2026-05-03T10:15:23.129Z</time></trkpt><trkpt lat="44.1768209" lon="8.045057"><ele>946.0</ele><time>2026-05-03T10:15:24.129Z</time></trkpt><trkpt lat="44.1769139" lon="8.0452221"><ele>948.0</ele><time>2026-05-03T10:15:25.129Z</time></trkpt><trkpt lat="44.1769749" lon="8.0454117"><ele>950.0</ele><time>2026-05-03T10:15:26.129Z</time></trkpt><trkpt lat="44.1770115" lon="8.045605"><ele>952.0</ele><time>2026-05-03T10:15:27.129Z</time></trkpt><trkpt lat="44.177029" lon="8.0458149"><ele>954.0</ele><time>2026-05-03T10:15:28.13Z</time></trkpt><trkpt lat="44.1770326" lon="8.0460209"><ele>955.5</ele><time>2026-05-03T10:15:29.129Z</time></trkpt><trkpt lat="44.1770424" lon="8.0462227"><ele>957.0</ele><time>2026-05-03T10:15:30.129Z</time></trkpt><trkpt lat="44.1770656" lon="8.0464114"><ele>958.5</ele><time>2026-05-03T10:15:31.129Z</time></trkpt><trkpt lat="44.1771101" lon="8.0465812"><ele>960.0</ele><time>2026-05-03T10:15:32.129Z</time></trkpt><trkpt lat="44.1771707" lon="8.0467262"><ele>960.0</ele><time>2026-05-03T10:15:33.129Z</time></trkpt><trkpt lat="44.1772166" lon="8.0468444"><ele>960.0</ele><time>2026-05-03T10:15:34.129Z</time></trkpt><trkpt lat="44.1772681" lon="8.0469514"><ele>960.0</ele><time>2026-05-03T10:15:35.129Z</time></trkpt><trkpt lat="44.1772963" lon="8.0470428"><ele>960.0</ele><time>2026-05-03T10:15:36.13Z</time></trkpt><trkpt lat="44.177316" lon="8.0471304"><ele>960.0</ele><time>2026-05-03T10:15:37.129Z</time></trkpt><trkpt lat="44.1773228" lon="8.0472614"><ele>960.0</ele><time>2026-05-03T10:15:39.129Z</time></trkpt><trkpt lat="44.1773269" lon="8.0474135"><ele>960.0</ele><time>2026-05-03T10:15:41.129Z</time></trkpt><trkpt lat="44.1773787" lon="8.0475436"><ele>960.0</ele><time>2026-05-03T10:15:43.13Z</time></trkpt><trkpt lat="44.1774074" lon="8.0476304"><ele>960.0</ele><time>2026-05-03T10:15:44.129Z</time></trkpt><trkpt lat="44.1774425" lon="8.0477375"><ele>960.0</ele><time>2026-05-03T10:15:45.13Z</time></trkpt><trkpt lat="44.1774894" lon="8.0478394"><ele>960.0</ele><time>2026-05-03T10:15:46.129Z</time></trkpt><trkpt lat="44.1775602" lon="8.0479354"><ele>960.0</ele><time>2026-05-03T10:15:47.129Z</time></trkpt><trkpt lat="44.1776433" lon="8.0480114"><ele>960.0</ele><time>2026-05-03T10:15:48.129Z</time></trkpt><trkpt lat="44.1777321" lon="8.0480805"><ele>960.0</ele><time>2026-05-03T10:15:49.129Z</time></trkpt><trkpt lat="44.1778157" lon="8.0481446"><ele>960.0</ele><time>2026-05-03T10:15:50.129Z</time></trkpt><trkpt lat="44.1778866" lon="8.0482167"><ele>960.0</ele><time>2026-05-03T10:15:51.13Z</time></trkpt><trkpt lat="44.1779288" lon="8.0483105"><ele>960.0</ele><time>2026-05-03T10:15:52.129Z</time></trkpt><trkpt lat="44.1779436" lon="8.0484214"><ele>960.0</ele><time>2026-05-03T10:15:53.13Z</time></trkpt><trkpt lat="44.1779379" lon="8.0485493"><ele>960.0</ele><time>2026-05-03T10:15:54.129Z</time></trkpt><trkpt lat="44.1779288" lon="8.0486898"><ele>960.0</ele><time>2026-05-03T10:15:55.129Z</time></trkpt><trkpt lat="44.1779236" lon="8.0488255"><ele>960.0</ele><time>2026-05-03T10:15:56.13Z</time></trkpt><trkpt lat="44.1779196" lon="8.0489636"><ele>960.0</ele><time>2026-05-03T10:15:57.129Z</time></trkpt><trkpt lat="44.1779315" lon="8.0491079"><ele>960.0</ele><time>2026-05-03T10:15:58.129Z</time></trkpt><trkpt lat="44.1780193" lon="8.0492977"><ele>960.0</ele><time>2026-05-03T10:15:59.129Z</time></trkpt><trkpt lat="44.1780535" lon="8.0494708"><ele>960.0</ele><time>2026-05-03T10:16:00.13Z</time></trkpt><trkpt lat="44.1781016" lon="8.0496617"><ele>960.0</ele><time>2026-05-03T10:16:01.129Z</time></trkpt><trkpt lat="44.1781609" lon="8.0498694"><ele>960.0</ele><time>2026-05-03T10:16:02.129Z</time></trkpt><trkpt lat="44.1782026" lon="8.0500764"><ele>963.0</ele><time>2026-05-03T10:16:03.129Z</time></trkpt><trkpt lat="44.1782419" lon="8.0502865"><ele>966.0</ele><time>2026-05-03T10:16:04.129Z</time></trkpt><trkpt lat="44.1782719" lon="8.0504865"><ele>969.0</ele><time>2026-05-03T10:16:05.129Z</time></trkpt><trkpt lat="44.1782906" lon="8.050669"><ele>972.0</ele><time>2026-05-03T10:16:06.129Z</time></trkpt><trkpt lat="44.1783014" lon="8.0508579"><ele>972.0</ele><time>2026-05-03T10:16:07.129Z</time></trkpt><trkpt lat="44.1783029" lon="8.051047"><ele>972.0</ele><time>2026-05-03T10:16:08.129Z</time></trkpt><trkpt lat="44.178299" lon="8.0512312"><ele>972.0</ele><time>2026-05-03T10:16:09.129Z</time></trkpt><trkpt lat="44.1782946" lon="8.051413"><ele>972.0</ele><time>2026-05-03T10:16:10.13Z</time></trkpt><trkpt lat="44.178281" lon="8.0516185"><ele>971.0</ele><time>2026-05-03T10:16:11.13Z</time></trkpt><trkpt lat="44.1782645" lon="8.0518356"><ele>970.0</ele><time>2026-05-03T10:16:12.129Z</time></trkpt><trkpt lat="44.1782414" lon="8.0520466"><ele>969.0</ele><time>2026-05-03T10:16:13.129Z</time></trkpt><trkpt lat="44.1782147" lon="8.0522722"><ele>967.0</ele><time>2026-05-03T10:16:14.13Z</time></trkpt><trkpt lat="44.1781895" lon="8.0524996"><ele>965.0</ele><time>2026-05-03T10:16:15.129Z</time></trkpt><trkpt lat="44.1781773" lon="8.0527287"><ele>963.0</ele><time>2026-05-03T10:16:16.129Z</time></trkpt><trkpt lat="44.1781777" lon="8.0529588"><ele>963.0</ele><time>2026-05-03T10:16:17.13Z</time></trkpt><trkpt lat="44.1781862" lon="8.0531819"><ele>963.0</ele><time>2026-05-03T10:16:18.129Z</time></trkpt><trkpt lat="44.178204" lon="8.053398"><ele>963.0</ele><time>2026-05-03T10:16:19.13Z</time></trkpt><trkpt lat="44.1782371" lon="8.0536015"><ele>962.25</ele><time>2026-05-03T10:16:20.13Z</time></trkpt><trkpt lat="44.1782666" lon="8.0537913"><ele>961.5</ele><time>2026-05-03T10:16:21.129Z</time></trkpt><trkpt lat="44.1782946" lon="8.0539829"><ele>960.75</ele><time>2026-05-03T10:16:22.129Z</time></trkpt><trkpt lat="44.1783208" lon="8.0541568"><ele>960.0</ele><time>2026-05-03T10:16:23.129Z</time></trkpt><trkpt lat="44.1783419" lon="8.0543286"><ele>959.5</ele><time>2026-05-03T10:16:24.129Z</time></trkpt><trkpt lat="44.1783559" lon="8.0544966"><ele>959.0</ele><time>2026-05-03T10:16:25.129Z</time></trkpt><trkpt lat="44.178363" lon="8.0546578"><ele>958.5</ele><time>2026-05-03T10:16:26.129Z</time></trkpt><trkpt lat="44.1783763" lon="8.0548255"><ele>958.0</ele><time>2026-05-03T10:16:27.129Z</time></trkpt><trkpt lat="44.178404" lon="8.0549827"><ele>957.75</ele><time>2026-05-03T10:16:28.129Z</time></trkpt><trkpt lat="44.1784446" lon="8.055146"><ele>957.5</ele><time>2026-05-03T10:16:29.13Z</time></trkpt><trkpt lat="44.1785025" lon="8.0553076"><ele>957.25</ele><time>2026-05-03T10:16:30.129Z</time></trkpt><trkpt lat="44.1785462" lon="8.0554672"><ele>957.0</ele><time>2026-05-03T10:16:31.129Z</time></trkpt><trkpt lat="44.1785705" lon="8.0556361"><ele>957.25</ele><time>2026-05-03T10:16:32.129Z</time></trkpt><trkpt lat="44.1785788" lon="8.0558093"><ele>957.5</ele><time>2026-05-03T10:16:33.129Z</time></trkpt><trkpt lat="44.1785791" lon="8.0559912"><ele>957.75</ele><time>2026-05-03T10:16:34.129Z</time></trkpt><trkpt lat="44.1785718" lon="8.0561804"><ele>958.0</ele><time>2026-05-03T10:16:35.129Z</time></trkpt><trkpt lat="44.17855" lon="8.0563578"><ele>958.0</ele><time>2026-05-03T10:16:36.129Z</time></trkpt><trkpt lat="44.1785077" lon="8.0565269"><ele>958.0</ele><time>2026-05-03T10:16:37.129Z</time></trkpt><trkpt lat="44.1784554" lon="8.056685"><ele>958.0</ele><time>2026-05-03T10:16:38.129Z</time></trkpt><trkpt lat="44.1784145" lon="8.0568582"><ele>958.0</ele><time>2026-05-03T10:16:39.129Z</time></trkpt><trkpt lat="44.1783766" lon="8.0570079"><ele>959.1666666666666</ele><time>2026-05-03T10:16:40.129Z</time></trkpt><trkpt lat="44.1783476" lon="8.0571401"><ele>960.3333333333333</ele><time>2026-05-03T10:16:41.129Z</time></trkpt><trkpt lat="44.178339" lon="8.0572562"><ele>961.5</ele><time>2026-05-03T10:16:42.129Z</time></trkpt><trkpt lat="44.1783743" lon="8.0573448"><ele>962.6666666666667</ele><time>2026-05-03T10:16:43.129Z</time></trkpt><trkpt lat="44.1784566" lon="8.0573923"><ele>963.8333333333334</ele><time>2026-05-03T10:16:44.129Z</time></trkpt><trkpt lat="44.1785561" lon="8.057425"><ele>965.0</ele><time>2026-05-03T10:16:45.129Z</time></trkpt><trkpt lat="44.1786567" lon="8.0574576"><ele>965.0</ele><time>2026-05-03T10:16:46.13Z</time></trkpt><trkpt lat="44.1787653" lon="8.0574959"><ele>965.0</ele><time>2026-05-03T10:16:47.129Z</time></trkpt><trkpt lat="44.1788897" lon="8.0575608"><ele>965.0</ele><time>2026-05-03T10:16:48.13Z</time></trkpt><trkpt lat="44.1790229" lon="8.0576335"><ele>965.0</ele><time>2026-05-03T10:16:49.129Z</time></trkpt><trkpt lat="44.1791594" lon="8.0577094"><ele>971.0</ele><time>2026-05-03T10:16:50.129Z</time></trkpt><trkpt lat="44.1792949" lon="8.0577801"><ele>977.0</ele><time>2026-05-03T10:16:51.129Z</time></trkpt><trkpt lat="44.1794239" lon="8.0578595"><ele>983.0</ele><time>2026-05-03T10:16:52.13Z</time></trkpt><trkpt lat="44.1795455" lon="8.0579345"><ele>989.0</ele><time>2026-05-03T10:16:53.129Z</time></trkpt><trkpt lat="44.1796496" lon="8.0580017"><ele>989.0</ele><time>2026-05-03T10:16:54.129Z</time></trkpt><trkpt lat="44.1797313" lon="8.0580701"><ele>989.0000000000001</ele><time>2026-05-03T10:16:55.129Z</time></trkpt><trkpt lat="44.1798059" lon="8.0581526"><ele>989.0000000000001</ele><time>2026-05-03T10:16:56.129Z</time></trkpt><trkpt lat="44.1798658" lon="8.0582692"><ele>989.0</ele><time>2026-05-03T10:16:57.129Z</time></trkpt><trkpt lat="44.1799098" lon="8.0584039"><ele>989.0</ele><time>2026-05-03T10:16:58.13Z</time></trkpt><trkpt lat="44.1799344" lon="8.0585473"><ele>990.0000000000001</ele><time>2026-05-03T10:16:59.129Z</time></trkpt><trkpt lat="44.179926" lon="8.0586865"><ele>991.0</ele><time>2026-05-03T10:17:00.129Z</time></trkpt><trkpt lat="44.1799018" lon="8.0588137"><ele>992.0</ele><time>2026-05-03T10:17:01.13Z</time></trkpt><trkpt lat="44.1798747" lon="8.0589305"><ele>993.0</ele><time>2026-05-03T10:17:02.129Z</time></trkpt><trkpt lat="44.1798712" lon="8.0590221"><ele>994.0000000000001</ele><time>2026-05-03T10:17:03.129Z</time></trkpt><trkpt lat="44.1799096" lon="8.0591028"><ele>995.0</ele><time>2026-05-03T10:17:04.129Z</time></trkpt><trkpt lat="44.1799693" lon="8.0591812"><ele>995.0</ele><time>2026-05-03T10:17:05.13Z</time></trkpt><trkpt lat="44.180047" lon="8.0592464"><ele>995.0</ele><time>2026-05-03T10:17:06.129Z</time></trkpt><trkpt lat="44.1801259" lon="8.0593148"><ele>995.0</ele><time>2026-05-03T10:17:07.13Z</time></trkpt><trkpt lat="44.1802057" lon="8.0594023"><ele>995.0</ele><time>2026-05-03T10:17:08.129Z</time></trkpt><trkpt lat="44.1802595" lon="8.0595245"><ele>995.0</ele><time>2026-05-03T10:17:09.129Z</time></trkpt><trkpt lat="44.1802925" lon="8.0596715"><ele>995.0</ele><time>2026-05-03T10:17:10.129Z</time></trkpt><trkpt lat="44.180311" lon="8.0598314"><ele>995.0</ele><time>2026-05-03T10:17:11.129Z</time></trkpt><trkpt lat="44.1803158" lon="8.0599923"><ele>995.0</ele><time>2026-05-03T10:17:12.129Z</time></trkpt><trkpt lat="44.1803203" lon="8.06014"><ele>995.0</ele><time>2026-05-03T10:17:13.129Z</time></trkpt><trkpt lat="44.1803432" lon="8.0602756"><ele>995.0</ele><time>2026-05-03T10:17:14.129Z</time></trkpt><trkpt lat="44.1804066" lon="8.0604098"><ele>992.25</ele><time>2026-05-03T10:17:15.129Z</time></trkpt><trkpt lat="44.1804942" lon="8.0605467"><ele>989.5</ele><time>2026-05-03T10:17:16.129Z</time></trkpt><trkpt lat="44.1805764" lon="8.0606885"><ele>986.75</ele><time>2026-05-03T10:17:17.129Z</time></trkpt><trkpt lat="44.1806285" lon="8.0608405"><ele>984.0</ele><time>2026-05-03T10:17:18.129Z</time></trkpt><trkpt lat="44.1806592" lon="8.0610051"><ele>989.8000000000001</ele><time>2026-05-03T10:17:19.129Z</time></trkpt><trkpt lat="44.1806896" lon="8.0611651"><ele>995.6000000000001</ele><time>2026-05-03T10:17:20.129Z</time></trkpt><trkpt lat="44.1807225" lon="8.0613241"><ele>1001.4</ele><time>2026-05-03T10:17:21.129Z</time></trkpt><trkpt lat="44.1807482" lon="8.0614758"><ele>1007.2</ele><time>2026-05-03T10:17:22.13Z</time></trkpt><trkpt lat="44.1807686" lon="8.0616094"><ele>1013.0</ele><time>2026-05-03T10:17:23.129Z</time></trkpt><trkpt lat="44.1807914" lon="8.0617164"><ele>1013.0000000000001</ele><time>2026-05-03T10:17:24.129Z</time></trkpt><trkpt lat="44.1808244" lon="8.0618069"><ele>1013.0</ele><time>2026-05-03T10:17:25.129Z</time></trkpt><trkpt lat="44.180876" lon="8.061876"><ele>1013.0</ele><time>2026-05-03T10:17:26.129Z</time></trkpt><trkpt lat="44.1809426" lon="8.0619295"><ele>1013.0</ele><time>2026-05-03T10:17:27.13Z</time></trkpt><trkpt lat="44.1810324" lon="8.0619604"><ele>1013.0000000000001</ele><time>2026-05-03T10:17:28.129Z</time></trkpt><trkpt lat="44.1811499" lon="8.0619742"><ele>1013.0</ele><time>2026-05-03T10:17:29.129Z</time></trkpt><trkpt lat="44.1812618" lon="8.0619851"><ele>1013.0</ele><time>2026-05-03T10:17:30.129Z</time></trkpt><trkpt lat="44.1813701" lon="8.0620161"><ele>1013.0</ele><time>2026-05-03T10:17:31.129Z</time></trkpt><trkpt lat="44.1814721" lon="8.0620792"><ele>1013.0</ele><time>2026-05-03T10:17:32.129Z</time></trkpt><trkpt lat="44.1815699" lon="8.0621382"><ele>1013.0</ele><time>2026-05-03T10:17:33.129Z</time></trkpt><trkpt lat="44.1816592" lon="8.0622236"><ele>1013.0</ele><time>2026-05-03T10:17:34.13Z</time></trkpt><trkpt lat="44.1817332" lon="8.0623208"><ele>1014.5999999999999</ele><time>2026-05-03T10:17:35.129Z</time></trkpt><trkpt lat="44.1817895" lon="8.062433"><ele>1016.1999999999999</ele><time>2026-05-03T10:17:36.129Z</time></trkpt><trkpt lat="44.1818238" lon="8.0625373"><ele>1017.8</ele><time>2026-05-03T10:17:37.129Z</time></trkpt><trkpt lat="44.1818763" lon="8.0626855"><ele>1019.4</ele><time>2026-05-03T10:17:39.129Z</time></trkpt><trkpt lat="44.1819114" lon="8.0627691"><ele>1021.0</ele><time>2026-05-03T10:17:40.129Z</time></trkpt><trkpt lat="44.1819501" lon="8.0628782"><ele>1021.0</ele><time>2026-05-03T10:17:41.129Z</time></trkpt><trkpt lat="44.1819861" lon="8.0630188"><ele>1020.9999999999999</ele><time>2026-05-03T10:17:42.13Z</time></trkpt><trkpt lat="44.1820149" lon="8.0631668"><ele>1020.9999999999999</ele><time>2026-05-03T10:17:43.129Z</time></trkpt><trkpt lat="44.1820382" lon="8.0633166"><ele>1021.0</ele><time>2026-05-03T10:17:44.129Z</time></trkpt><trkpt lat="44.1820576" lon="8.0634738"><ele>1021.0</ele><time>2026-05-03T10:17:45.129Z</time></trkpt><trkpt lat="44.1820759" lon="8.0636172"><ele>1018.4</ele><time>2026-05-03T10:17:46.129Z</time></trkpt><trkpt lat="44.1821092" lon="8.0637482"><ele>1015.8</ele><time>2026-05-03T10:17:47.13Z</time></trkpt><trkpt lat="44.1821631" lon="8.063867"><ele>1013.1999999999999</ele><time>2026-05-03T10:17:48.129Z</time></trkpt><trkpt lat="44.182231" lon="8.0639864"><ele>1010.5999999999999</ele><time>2026-05-03T10:17:49.129Z</time></trkpt><trkpt lat="44.1822971" lon="8.0641121"><ele>1008.0</ele><time>2026-05-03T10:17:50.13Z</time></trkpt><trkpt lat="44.1823676" lon="8.0642418"><ele>1015.4</ele><time>2026-05-03T10:17:51.129Z</time></trkpt><trkpt lat="44.1824332" lon="8.0643691"><ele>1022.8</ele><time>2026-05-03T10:17:52.129Z</time></trkpt><trkpt lat="44.182496" lon="8.0644948"><ele>1030.2</ele><time>2026-05-03T10:17:53.129Z</time></trkpt><trkpt lat="44.1825571" lon="8.0646034"><ele>1037.6</ele><time>2026-05-03T10:17:54.129Z</time></trkpt><trkpt lat="44.1826303" lon="8.064698"><ele>1045.0</ele><time>2026-05-03T10:17:55.129Z</time></trkpt><trkpt lat="44.182716" lon="8.0647701"><ele>1045.0</ele><time>2026-05-03T10:17:56.129Z</time></trkpt><trkpt lat="44.1828034" lon="8.0648411"><ele>1045.0</ele><time>2026-05-03T10:17:57.13Z</time></trkpt><trkpt lat="44.1828924" lon="8.0649225"><ele>1045.0</ele><time>2026-05-03T10:17:58.129Z</time></trkpt><trkpt lat="44.1829838" lon="8.0650116"><ele>1045.0</ele><time>2026-05-03T10:17:59.129Z</time></trkpt><trkpt lat="44.183071" lon="8.0651062"><ele>1045.0</ele><time>2026-05-03T10:18:00.129Z</time></trkpt><trkpt lat="44.1831498" lon="8.065204"><ele>1047.6</ele><time>2026-05-03T10:18:01.129Z</time></trkpt><trkpt lat="44.1832139" lon="8.065315"><ele>1050.2</ele><time>2026-05-03T10:18:02.129Z</time></trkpt><trkpt lat="44.1832713" lon="8.0654445"><ele>1052.8</ele><time>2026-05-03T10:18:03.129Z</time></trkpt><trkpt lat="44.1833189" lon="8.0655841"><ele>1055.4</ele><time>2026-05-03T10:18:04.13Z</time></trkpt><trkpt lat="44.1833649" lon="8.0657229"><ele>1058.0</ele><time>2026-05-03T10:18:05.129Z</time></trkpt><trkpt lat="44.1833949" lon="8.0658543"><ele>1058.0</ele><time>2026-05-03T10:18:06.129Z</time></trkpt><trkpt lat="44.1834095" lon="8.0659817"><ele>1058.0</ele><time>2026-05-03T10:18:07.129Z</time></trkpt><trkpt lat="44.1834107" lon="8.066116"><ele>1058.0</ele><time>2026-05-03T10:18:08.129Z</time></trkpt><trkpt lat="44.1834071" lon="8.0662447"><ele>1058.0</ele><time>2026-05-03T10:18:09.13Z</time></trkpt><trkpt lat="44.1834061" lon="8.0663684"><ele>1058.0</ele><time>2026-05-03T10:18:10.129Z</time></trkpt><trkpt lat="44.1834327" lon="8.0664937"><ele>1058.0</ele><time>2026-05-03T10:18:11.129Z</time></trkpt><trkpt lat="44.1834759" lon="8.0666077"><ele>1058.0</ele><time>2026-05-03T10:18:12.129Z</time></trkpt><trkpt lat="44.183532" lon="8.0667269"><ele>1058.0</ele><time>2026-05-03T10:18:13.129Z</time></trkpt><trkpt lat="44.1835973" lon="8.0668452"><ele>1058.0</ele><time>2026-05-03T10:18:14.129Z</time></trkpt><trkpt lat="44.1836429" lon="8.0669525"><ele>1058.0</ele><time>2026-05-03T10:18:15.13Z</time></trkpt><trkpt lat="44.1836598" lon="8.0670534"><ele>1057.6</ele><time>2026-05-03T10:18:16.129Z</time></trkpt><trkpt lat="44.1836489" lon="8.0671532"><ele>1057.1999999999998</ele><time>2026-05-03T10:18:17.129Z</time></trkpt><trkpt lat="44.1836156" lon="8.067249"><ele>1056.8</ele><time>2026-05-03T10:18:18.129Z</time></trkpt><trkpt lat="44.1835592" lon="8.0673492"><ele>1056.3999999999999</ele><time>2026-05-03T10:18:19.129Z</time></trkpt><trkpt lat="44.1834879" lon="8.0674594"><ele>1056.0</ele><time>2026-05-03T10:18:20.129Z</time></trkpt><trkpt lat="44.1834135" lon="8.0675824"><ele>1056.0</ele><time>2026-05-03T10:18:21.129Z</time></trkpt><trkpt lat="44.1833472" lon="8.0677208"><ele>1056.0</ele><time>2026-05-03T10:18:22.129Z</time></trkpt><trkpt lat="44.183293" lon="8.0678638"><ele>1056.0</ele><time>2026-05-03T10:18:23.129Z</time></trkpt><trkpt lat="44.1832597" lon="8.0680111"><ele>1056.0</ele><time>2026-05-03T10:18:24.129Z</time></trkpt><trkpt lat="44.1832446" lon="8.0681671"><ele>1060.0</ele><time>2026-05-03T10:18:25.13Z</time></trkpt><trkpt lat="44.1832226" lon="8.0683258"><ele>1064.0</ele><time>2026-05-03T10:18:26.129Z</time></trkpt><trkpt lat="44.1831842" lon="8.0684789"><ele>1068.0</ele><time>2026-05-03T10:18:27.129Z</time></trkpt><trkpt lat="44.1831351" lon="8.0686234"><ele>1072.0</ele><time>2026-05-03T10:18:28.129Z</time></trkpt><trkpt lat="44.1830725" lon="8.0687642"><ele>1066.0</ele><time>2026-05-03T10:18:29.129Z</time></trkpt><trkpt lat="44.1830028" lon="8.0689039"><ele>1060.0</ele><time>2026-05-03T10:18:30.129Z</time></trkpt><trkpt lat="44.1829361" lon="8.0690494"><ele>1054.0</ele><time>2026-05-03T10:18:31.129Z</time></trkpt><trkpt lat="44.1828788" lon="8.0691981"><ele>1048.0</ele><time>2026-05-03T10:18:32.13Z</time></trkpt><trkpt lat="44.1828368" lon="8.0693627"><ele>1048.0</ele><time>2026-05-03T10:18:33.129Z</time></trkpt><trkpt lat="44.1828024" lon="8.0695417"><ele>1048.0</ele><time>2026-05-03T10:18:34.129Z</time></trkpt><trkpt lat="44.1827623" lon="8.069713"><ele>1048.0</ele><time>2026-05-03T10:18:35.129Z</time></trkpt><trkpt lat="44.1827179" lon="8.0698706"><ele>1048.0</ele><time>2026-05-03T10:18:36.129Z</time></trkpt><trkpt lat="44.1826711" lon="8.0700149"><ele>1052.0</ele><time>2026-05-03T10:18:37.13Z</time></trkpt><trkpt lat="44.1826134" lon="8.0701463"><ele>1056.0</ele><time>2026-05-03T10:18:38.129Z</time></trkpt><trkpt lat="44.182543" lon="8.0702601"><ele>1060.0</ele><time>2026-05-03T10:18:39.13Z</time></trkpt><trkpt lat="44.1824693" lon="8.0703616"><ele>1064.0</ele><time>2026-05-03T10:18:40.129Z</time></trkpt><trkpt lat="44.1824032" lon="8.0704704"><ele>1068.0</ele><time>2026-05-03T10:18:41.13Z</time></trkpt><trkpt lat="44.1823539" lon="8.070585"><ele>1070.6</ele><time>2026-05-03T10:18:42.13Z</time></trkpt><trkpt lat="44.1823158" lon="8.0707113"><ele>1073.1999999999998</ele><time>2026-05-03T10:18:43.129Z</time></trkpt><trkpt lat="44.1823122" lon="8.0708492"><ele>1075.8</ele><time>2026-05-03T10:18:44.129Z</time></trkpt><trkpt lat="44.1823479" lon="8.0709913"><ele>1078.3999999999999</ele><time>2026-05-03T10:18:45.129Z</time></trkpt><trkpt lat="44.1823986" lon="8.0711284"><ele>1081.0</ele><time>2026-05-03T10:18:46.129Z</time></trkpt><trkpt lat="44.1824615" lon="8.0712426"><ele>1081.0</ele><time>2026-05-03T10:18:47.129Z</time></trkpt><trkpt lat="44.1825304" lon="8.0713361"><ele>1081.0</ele><time>2026-05-03T10:18:48.129Z</time></trkpt><trkpt lat="44.1825962" lon="8.0714223"><ele>1081.0</ele><time>2026-05-03T10:18:49.13Z</time></trkpt><trkpt lat="44.1826641" lon="8.0715172"><ele>1081.0</ele><time>2026-05-03T10:18:50.129Z</time></trkpt><trkpt lat="44.1827472" lon="8.0716135"><ele>1081.0</ele><time>2026-05-03T10:18:51.129Z</time></trkpt><trkpt lat="44.1828358" lon="8.0717163"><ele>1078.5</ele><time>2026-05-03T10:18:52.129Z</time></trkpt><trkpt lat="44.1829054" lon="8.0718496"><ele>1076.0</ele><time>2026-05-03T10:18:53.129Z</time></trkpt><trkpt lat="44.1829529" lon="8.0720093"><ele>1073.5</ele><time>2026-05-03T10:18:54.129Z</time></trkpt><trkpt lat="44.1829867" lon="8.072172"><ele>1071.0</ele><time>2026-05-03T10:18:55.129Z</time></trkpt><trkpt lat="44.1830107" lon="8.0723209"><ele>1069.0</ele><time>2026-05-03T10:18:56.129Z</time></trkpt><trkpt lat="44.1830261" lon="8.0724704"><ele>1067.0</ele><time>2026-05-03T10:18:57.129Z</time></trkpt><trkpt lat="44.1830209" lon="8.0726259"><ele>1065.0</ele><time>2026-05-03T10:18:58.13Z</time></trkpt><trkpt lat="44.1829928" lon="8.0727853"><ele>1063.0</ele><time>2026-05-03T10:18:59.129Z</time></trkpt><trkpt lat="44.1829432" lon="8.0729381"><ele>1063.0</ele><time>2026-05-03T10:19:00.129Z</time></trkpt><trkpt lat="44.1828967" lon="8.0730757"><ele>1063.0</ele><time>2026-05-03T10:19:01.129Z</time></trkpt><trkpt lat="44.1828671" lon="8.073214"><ele>1063.0</ele><time>2026-05-03T10:19:02.13Z</time></trkpt><trkpt lat="44.1828531" lon="8.0733655"><ele>1063.0</ele><time>2026-05-03T10:19:03.129Z</time></trkpt><trkpt lat="44.1828432" lon="8.0735226"><ele>1063.0</ele><time>2026-05-03T10:19:04.129Z</time></trkpt><trkpt lat="44.1828223" lon="8.0736718"><ele>1064.2</ele><time>2026-05-03T10:19:05.129Z</time></trkpt><trkpt lat="44.1827918" lon="8.0737909"><ele>1065.4</ele><time>2026-05-03T10:19:06.129Z</time></trkpt><trkpt lat="44.1827563" lon="8.073925"><ele>1066.6000000000001</ele><time>2026-05-03T10:19:08.13Z</time></trkpt><trkpt lat="44.1826718" lon="8.0740196"><ele>1067.8</ele><time>2026-05-03T10:19:14.129Z</time></trkpt><trkpt lat="44.1826155" lon="8.0740857"><ele>1069.0</ele><time>2026-05-03T10:19:15.13Z</time></trkpt><trkpt lat="44.1825568" lon="8.074173"><ele>1071.0</ele><time>2026-05-03T10:19:16.129Z</time></trkpt><trkpt lat="44.1824939" lon="8.0742962"><ele>1073.0</ele><time>2026-05-03T10:19:17.13Z</time></trkpt><trkpt lat="44.1824312" lon="8.074433"><ele>1075.0</ele><time>2026-05-03T10:19:18.129Z</time></trkpt><trkpt lat="44.1823685" lon="8.0745648"><ele>1077.0</ele><time>2026-05-03T10:19:19.13Z</time></trkpt><trkpt lat="44.1823082" lon="8.0746905"><ele>1079.0</ele><time>2026-05-03T10:19:20.13Z</time></trkpt><trkpt lat="44.1822465" lon="8.0748078"><ele>1074.2</ele><time>2026-05-03T10:19:21.129Z</time></trkpt><trkpt lat="44.1821796" lon="8.0749209"><ele>1069.4</ele><time>2026-05-03T10:19:22.13Z</time></trkpt><trkpt lat="44.182114" lon="8.0750306"><ele>1064.6</ele><time>2026-05-03T10:19:23.129Z</time></trkpt><trkpt lat="44.1820561" lon="8.0751266"><ele>1059.8</ele><time>2026-05-03T10:19:24.129Z</time></trkpt><trkpt lat="44.1820132" lon="8.0752253"><ele>1055.0</ele><time>2026-05-03T10:19:25.129Z</time></trkpt><trkpt lat="44.1819655" lon="8.0753216"><ele>1055.0</ele><time>2026-05-03T10:19:26.129Z</time></trkpt><trkpt lat="44.1819078" lon="8.0754178"><ele>1055.0</ele><time>2026-05-03T10:19:27.129Z</time></trkpt><trkpt lat="44.1818665" lon="8.0755287"><ele>1055.0</ele><time>2026-05-03T10:19:28.13Z</time></trkpt><trkpt lat="44.1818435" lon="8.0756522"><ele>1055.0</ele><time>2026-05-03T10:19:29.129Z</time></trkpt><trkpt lat="44.1818414" lon="8.0758074"><ele>1055.0</ele><time>2026-05-03T10:19:30.13Z</time></trkpt><trkpt lat="44.181836" lon="8.0759717"><ele>1056.8</ele><time>2026-05-03T10:19:31.129Z</time></trkpt><trkpt lat="44.1818339" lon="8.0761157"><ele>1058.6</ele><time>2026-05-03T10:19:32.13Z</time></trkpt><trkpt lat="44.1818453" lon="8.0762628"><ele>1060.4</ele><time>2026-05-03T10:19:33.129Z</time></trkpt><trkpt lat="44.181854" lon="8.0763967"><ele>1062.2</ele><time>2026-05-03T10:19:34.129Z</time></trkpt><trkpt lat="44.1818457" lon="8.0765314"><ele>1064.0</ele><time>2026-05-03T10:19:35.129Z</time></trkpt><trkpt lat="44.1818387" lon="8.0766576"><ele>1064.8</ele><time>2026-05-03T10:19:36.129Z</time></trkpt><trkpt lat="44.1818346" lon="8.0767725"><ele>1065.6000000000001</ele><time>2026-05-03T10:19:37.13Z</time></trkpt><trkpt lat="44.1817946" lon="8.0768792"><ele>1066.4</ele><time>2026-05-03T10:19:38.129Z</time></trkpt><trkpt lat="44.1817274" lon="8.076965"><ele>1067.2</ele><time>2026-05-03T10:19:39.129Z</time></trkpt><trkpt lat="44.1816474" lon="8.077043"><ele>1068.0</ele><time>2026-05-03T10:19:40.129Z</time></trkpt><trkpt lat="44.1815448" lon="8.0771022"><ele>1060.0</ele><time>2026-05-03T10:19:41.13Z</time></trkpt><trkpt lat="44.1814228" lon="8.0771529"><ele>1052.0</ele><time>2026-05-03T10:19:42.129Z</time></trkpt><trkpt lat="44.1812993" lon="8.077206"><ele>1044.0</ele><time>2026-05-03T10:19:43.129Z</time></trkpt><trkpt lat="44.1811763" lon="8.0772582"><ele>1036.0</ele><time>2026-05-03T10:19:44.129Z</time></trkpt><trkpt lat="44.1810548" lon="8.0773114"><ele>1036.0</ele><time>2026-05-03T10:19:45.13Z</time></trkpt><trkpt lat="44.1809364" lon="8.0773497"><ele>1036.0</ele><time>2026-05-03T10:19:46.129Z</time></trkpt><trkpt lat="44.1808259" lon="8.0773855"><ele>1036.0</ele><time>2026-05-03T10:19:47.129Z</time></trkpt><trkpt lat="44.1807204" lon="8.0774197"><ele>1036.0</ele><time>2026-05-03T10:19:48.129Z</time></trkpt><trkpt lat="44.1806159" lon="8.0774534"><ele>1038.6</ele><time>2026-05-03T10:19:49.129Z</time></trkpt><trkpt lat="44.1805201" lon="8.077494"><ele>1041.1999999999998</ele><time>2026-05-03T10:19:50.129Z</time></trkpt><trkpt lat="44.1804249" lon="8.0775573"><ele>1043.8000000000002</ele><time>2026-05-03T10:19:51.129Z</time></trkpt><trkpt lat="44.1803216" lon="8.0776293"><ele>1046.4</ele><time>2026-05-03T10:19:52.13Z</time></trkpt><trkpt lat="44.1802247" lon="8.0777068"><ele>1049.0</ele><time>2026-05-03T10:19:53.129Z</time></trkpt><trkpt lat="44.180137" lon="8.0777796"><ele>1049.0</ele><time>2026-05-03T10:19:54.13Z</time></trkpt><trkpt lat="44.1800713" lon="8.077852"><ele>1049.0</ele><time>2026-05-03T10:19:55.129Z</time></trkpt><trkpt lat="44.1799999" lon="8.0779133"><ele>1049.0</ele><time>2026-05-03T10:19:56.129Z</time></trkpt><trkpt lat="44.1799115" lon="8.0779687"><ele>1049.0</ele><time>2026-05-03T10:19:57.129Z</time></trkpt><trkpt lat="44.1798172" lon="8.0780054"><ele>1049.0</ele><time>2026-05-03T10:19:58.129Z</time></trkpt><trkpt lat="44.1797233" lon="8.0780255"><ele>1045.5</ele><time>2026-05-03T10:19:59.129Z</time></trkpt><trkpt lat="44.1796274" lon="8.078048"><ele>1042.0</ele><time>2026-05-03T10:20:00.129Z</time></trkpt><trkpt lat="44.179537" lon="8.0780716"><ele>1038.5</ele><time>2026-05-03T10:20:01.129Z</time></trkpt><trkpt lat="44.179452" lon="8.0780933"><ele>1035.0</ele><time>2026-05-03T10:20:02.129Z</time></trkpt><trkpt lat="44.1793741" lon="8.0781301"><ele>1031.5</ele><time>2026-05-03T10:20:03.129Z</time></trkpt><trkpt lat="44.1792962" lon="8.0781737"><ele>1028.0</ele><time>2026-05-03T10:20:04.129Z</time></trkpt><trkpt lat="44.1792281" lon="8.0782464"><ele>1028.3333333333335</ele><time>2026-05-03T10:20:05.129Z</time></trkpt><trkpt lat="44.1791679" lon="8.0783382"><ele>1028.6666666666667</ele><time>2026-05-03T10:20:06.129Z</time></trkpt><trkpt lat="44.1791126" lon="8.0784188"><ele>1029.0</ele><time>2026-05-03T10:20:07.129Z</time></trkpt><trkpt lat="44.1790527" lon="8.0784932"><ele>1029.3333333333333</ele><time>2026-05-03T10:20:08.129Z</time></trkpt><trkpt lat="44.1789866" lon="8.0785472"><ele>1029.6666666666665</ele><time>2026-05-03T10:20:09.13Z</time></trkpt><trkpt lat="44.1789144" lon="8.0785877"><ele>1030.0</ele><time>2026-05-03T10:20:10.129Z</time></trkpt><trkpt lat="44.1788393" lon="8.0786384"><ele>1030.0</ele><time>2026-05-03T10:20:11.13Z</time></trkpt><trkpt lat="44.1787614" lon="8.0786798"><ele>1030.0</ele><time>2026-05-03T10:20:12.13Z</time></trkpt><trkpt lat="44.1786873" lon="8.0787006"><ele>1030.0</ele><time>2026-05-03T10:20:13.129Z</time></trkpt><trkpt lat="44.1786093" lon="8.0787254"><ele>1030.0</ele><time>2026-05-03T10:20:14.13Z</time></trkpt><trkpt lat="44.1785204" lon="8.0787168"><ele>1030.0</ele><time>2026-05-03T10:20:15.129Z</time></trkpt><trkpt lat="44.1784289" lon="8.0786884"><ele>1030.0</ele><time>2026-05-03T10:20:16.13Z</time></trkpt><trkpt lat="44.1783437" lon="8.078653"><ele>1030.0</ele><time>2026-05-03T10:20:17.129Z</time></trkpt><trkpt lat="44.178261" lon="8.07862"><ele>1030.0</ele><time>2026-05-03T10:20:18.129Z</time></trkpt><trkpt lat="44.1781776" lon="8.0786012"><ele>1030.0</ele><time>2026-05-03T10:20:19.13Z</time></trkpt><trkpt lat="44.1780966" lon="8.078626"><ele>1030.0</ele><time>2026-05-03T10:20:20.129Z</time></trkpt><trkpt lat="44.1780169" lon="8.0786616"><ele>1030.0</ele><time>2026-05-03T10:20:21.13Z</time></trkpt><trkpt lat="44.1779415" lon="8.0787097"><ele>1030.0</ele><time>2026-05-03T10:20:22.129Z</time></trkpt><trkpt lat="44.1778781" lon="8.0787703"><ele>1029.4</ele><time>2026-05-03T10:20:23.129Z</time></trkpt><trkpt lat="44.1778209" lon="8.0788402"><ele>1028.8</ele><time>2026-05-03T10:20:24.13Z</time></trkpt><trkpt lat="44.177767" lon="8.0789166"><ele>1028.2</ele><time>2026-05-03T10:20:25.129Z</time></trkpt><trkpt lat="44.1777286" lon="8.0790206"><ele>1027.6</ele><time>2026-05-03T10:20:26.129Z</time></trkpt><trkpt lat="44.1777139" lon="8.0791701"><ele>1027.0</ele><time>2026-05-03T10:20:27.129Z</time></trkpt><trkpt lat="44.1776831" lon="8.0793128"><ele>1027.0</ele><time>2026-05-03T10:20:28.129Z</time></trkpt><trkpt lat="44.1776356" lon="8.0794484"><ele>1027.0</ele><time>2026-05-03T10:20:29.13Z</time></trkpt><trkpt lat="44.1775851" lon="8.0795841"><ele>1027.0</ele><time>2026-05-03T10:20:30.129Z</time></trkpt><trkpt lat="44.1775216" lon="8.079707"><ele>1027.0</ele><time>2026-05-03T10:20:31.129Z</time></trkpt><trkpt lat="44.1774589" lon="8.0798275"><ele>1027.0</ele><time>2026-05-03T10:20:32.129Z</time></trkpt><trkpt lat="44.1774155" lon="8.0799411"><ele>1027.3333333333333</ele><time>2026-05-03T10:20:33.13Z</time></trkpt><trkpt lat="44.1773867" lon="8.0800447"><ele>1027.6666666666665</ele><time>2026-05-03T10:20:34.129Z</time></trkpt><trkpt lat="44.1773773" lon="8.0801464"><ele>1028.0</ele><time>2026-05-03T10:20:35.129Z</time></trkpt><trkpt lat="44.1773792" lon="8.0802545"><ele>1028.3333333333333</ele><time>2026-05-03T10:20:36.129Z</time></trkpt><trkpt lat="44.1773885" lon="8.0803739"><ele>1028.6666666666667</ele><time>2026-05-03T10:20:37.13Z</time></trkpt><trkpt lat="44.1774061" lon="8.0805027"><ele>1029.0</ele><time>2026-05-03T10:20:38.129Z</time></trkpt><trkpt lat="44.1774283" lon="8.0806338"><ele>1029.0</ele><time>2026-05-03T10:20:39.13Z</time></trkpt><trkpt lat="44.177459" lon="8.0807486"><ele>1029.0</ele><time>2026-05-03T10:20:40.129Z</time></trkpt><trkpt lat="44.1775088" lon="8.0808428"><ele>1029.0</ele><time>2026-05-03T10:20:41.129Z</time></trkpt><trkpt lat="44.1775505" lon="8.0809322"><ele>1029.0</ele><time>2026-05-03T10:20:42.129Z</time></trkpt><trkpt lat="44.1775767" lon="8.0810305"><ele>1029.0</ele><time>2026-05-03T10:20:43.129Z</time></trkpt><trkpt lat="44.1775661" lon="8.0811306"><ele>1029.0</ele><time>2026-05-03T10:20:44.129Z</time></trkpt><trkpt lat="44.1775252" lon="8.0812343"><ele>1028.6000000000001</ele><time>2026-05-03T10:20:45.129Z</time></trkpt><trkpt lat="44.1774594" lon="8.0813287"><ele>1028.2</ele><time>2026-05-03T10:20:46.13Z</time></trkpt><trkpt lat="44.1773936" lon="8.081421"><ele>1027.8000000000002</ele><time>2026-05-03T10:20:47.129Z</time></trkpt><trkpt lat="44.1773297" lon="8.0815151"><ele>1027.4</ele><time>2026-05-03T10:20:48.13Z</time></trkpt><trkpt lat="44.1772698" lon="8.0816256"><ele>1027.0</ele><time>2026-05-03T10:20:49.129Z</time></trkpt><trkpt lat="44.1772088" lon="8.0817515"><ele>1021.2</ele><time>2026-05-03T10:20:50.129Z</time></trkpt><trkpt lat="44.1771566" lon="8.0818912"><ele>1015.4000000000001</ele><time>2026-05-03T10:20:51.129Z</time></trkpt><trkpt lat="44.1771164" lon="8.0820347"><ele>1009.5999999999999</ele><time>2026-05-03T10:20:52.129Z</time></trkpt><trkpt lat="44.177073" lon="8.082154"><ele>1003.8</ele><time>2026-05-03T10:20:53.129Z</time></trkpt><trkpt lat="44.1770201" lon="8.0822684"><ele>998.0</ele><time>2026-05-03T10:20:54.129Z</time></trkpt><trkpt lat="44.1769672" lon="8.0823926"><ele>999.5999999999999</ele><time>2026-05-03T10:20:55.129Z</time></trkpt><trkpt lat="44.1769255" lon="8.0825284"><ele>1001.1999999999999</ele><time>2026-05-03T10:20:56.129Z</time></trkpt><trkpt lat="44.1768888" lon="8.0826814"><ele>1002.8</ele><time>2026-05-03T10:20:57.13Z</time></trkpt><trkpt lat="44.1768529" lon="8.0828358"><ele>1004.4</ele><time>2026-05-03T10:20:58.129Z</time></trkpt><trkpt lat="44.176818" lon="8.082973"><ele>1006.0</ele><time>2026-05-03T10:20:59.129Z</time></trkpt><trkpt lat="44.1767854" lon="8.0830969"><ele>1006.0</ele><time>2026-05-03T10:21:00.129Z</time></trkpt><trkpt lat="44.1767577" lon="8.0832041"><ele>1005.9999999999999</ele><time>2026-05-03T10:21:01.129Z</time></trkpt><trkpt lat="44.176766" lon="8.083319"><ele>1005.9999999999999</ele><time>2026-05-03T10:21:02.129Z</time></trkpt><trkpt lat="44.1767839" lon="8.0834501"><ele>1006.0</ele><time>2026-05-03T10:21:03.129Z</time></trkpt><trkpt lat="44.1767906" lon="8.0835986"><ele>1006.0</ele><time>2026-05-03T10:21:04.129Z</time></trkpt><trkpt lat="44.1767795" lon="8.0837353"><ele>1007.5999999999999</ele><time>2026-05-03T10:21:05.129Z</time></trkpt><trkpt lat="44.1767488" lon="8.0838605"><ele>1009.1999999999999</ele><time>2026-05-03T10:21:06.13Z</time></trkpt><trkpt lat="44.1766995" lon="8.0839851"><ele>1010.8000000000001</ele><time>2026-05-03T10:21:07.13Z</time></trkpt><trkpt lat="44.1766481" lon="8.0841125"><ele>1012.4000000000001</ele><time>2026-05-03T10:21:08.129Z</time></trkpt><trkpt lat="44.1766101" lon="8.0842327"><ele>1014.0</ele><time>2026-05-03T10:21:09.129Z</time></trkpt><trkpt lat="44.1765968" lon="8.0843606"><ele>1015.4000000000001</ele><time>2026-05-03T10:21:10.129Z</time></trkpt><trkpt lat="44.1765731" lon="8.0844802"><ele>1016.8000000000001</ele><time>2026-05-03T10:21:11.129Z</time></trkpt><trkpt lat="44.1765261" lon="8.0845864"><ele>1018.1999999999999</ele><time>2026-05-03T10:21:12.13Z</time></trkpt><trkpt lat="44.1764612" lon="8.0846923"><ele>1019.5999999999999</ele><time>2026-05-03T10:21:13.129Z</time></trkpt><trkpt lat="44.1763999" lon="8.0848018"><ele>1021.0</ele><time>2026-05-03T10:21:14.129Z</time></trkpt><trkpt lat="44.1763601" lon="8.084924"><ele>1016.1999999999999</ele><time>2026-05-03T10:21:15.129Z</time></trkpt><trkpt lat="44.176335" lon="8.0850647"><ele>1011.3999999999999</ele><time>2026-05-03T10:21:16.13Z</time></trkpt><trkpt lat="44.1763148" lon="8.0852102"><ele>1006.6</ele><time>2026-05-03T10:21:17.129Z</time></trkpt><trkpt lat="44.1762884" lon="8.085343"><ele>1001.8</ele><time>2026-05-03T10:21:18.129Z</time></trkpt><trkpt lat="44.1762415" lon="8.0854864"><ele>997.0</ele><time>2026-05-03T10:21:19.129Z</time></trkpt><trkpt lat="44.1761914" lon="8.0856289"><ele>997.0</ele><time>2026-05-03T10:21:20.129Z</time></trkpt><trkpt lat="44.176147" lon="8.0857579"><ele>997.0</ele><time>2026-05-03T10:21:21.129Z</time></trkpt><trkpt lat="44.1760975" lon="8.0858901"><ele>997.0</ele><time>2026-05-03T10:21:22.13Z</time></trkpt><trkpt lat="44.1760511" lon="8.0860269"><ele>997.0</ele><time>2026-05-03T10:21:23.129Z</time></trkpt><trkpt lat="44.1759991" lon="8.0861629"><ele>997.0</ele><time>2026-05-03T10:21:24.129Z</time></trkpt><trkpt lat="44.175945" lon="8.0862945"><ele>999.0</ele><time>2026-05-03T10:21:25.129Z</time></trkpt><trkpt lat="44.1759063" lon="8.086435"><ele>1001.0</ele><time>2026-05-03T10:21:26.129Z</time></trkpt><trkpt lat="44.175874" lon="8.086577"><ele>1003.0</ele><time>2026-05-03T10:21:27.13Z</time></trkpt><trkpt lat="44.1758438" lon="8.0867147"><ele>1005.0</ele><time>2026-05-03T10:21:28.129Z</time></trkpt><trkpt lat="44.1758165" lon="8.0868613"><ele>1007.0</ele><time>2026-05-03T10:21:29.129Z</time></trkpt><trkpt lat="44.1757826" lon="8.0870132"><ele>1005.4000000000001</ele><time>2026-05-03T10:21:30.129Z</time></trkpt><trkpt lat="44.1757502" lon="8.0871603"><ele>1003.8000000000001</ele><time>2026-05-03T10:21:31.129Z</time></trkpt><trkpt lat="44.1757126" lon="8.0873052"><ele>1002.2</ele><time>2026-05-03T10:21:32.129Z</time></trkpt><trkpt lat="44.1756744" lon="8.0874481"><ele>1000.6</ele><time>2026-05-03T10:21:33.129Z</time></trkpt><trkpt lat="44.175633" lon="8.0875759"><ele>999.0</ele><time>2026-05-03T10:21:34.13Z</time></trkpt><trkpt lat="44.1755836" lon="8.0876949"><ele>999.0</ele><time>2026-05-03T10:21:35.129Z</time></trkpt><trkpt lat="44.1755359" lon="8.0878167"><ele>999.0000000000001</ele><time>2026-05-03T10:21:36.13Z</time></trkpt><trkpt lat="44.1754871" lon="8.0879239"><ele>999.0000000000001</ele><time>2026-05-03T10:21:37.129Z</time></trkpt><trkpt lat="44.1754475" lon="8.0880372"><ele>999.0</ele><time>2026-05-03T10:21:38.129Z</time></trkpt><trkpt lat="44.1754279" lon="8.0881612"><ele>999.0</ele><time>2026-05-03T10:21:39.129Z</time></trkpt><trkpt lat="44.1754294" lon="8.0882938"><ele>1001.2</ele><time>2026-05-03T10:21:40.129Z</time></trkpt><trkpt lat="44.1754434" lon="8.0884314"><ele>1003.4000000000001</ele><time>2026-05-03T10:21:41.129Z</time></trkpt><trkpt lat="44.1754486" lon="8.0885643"><ele>1005.6</ele><time>2026-05-03T10:21:42.129Z</time></trkpt><trkpt lat="44.1754275" lon="8.0886842"><ele>1007.8</ele><time>2026-05-03T10:21:43.13Z</time></trkpt><trkpt lat="44.1753846" lon="8.0887811"><ele>1010.0</ele><time>2026-05-03T10:21:44.129Z</time></trkpt><trkpt lat="44.1753354" lon="8.0888777"><ele>1010.0000000000001</ele><time>2026-05-03T10:21:45.13Z</time></trkpt><trkpt lat="44.1752852" lon="8.0889653"><ele>1010.0</ele><time>2026-05-03T10:21:46.129Z</time></trkpt><trkpt lat="44.1752596" lon="8.0890594"><ele>1010.0</ele><time>2026-05-03T10:21:47.129Z</time></trkpt><trkpt lat="44.1752608" lon="8.0891706"><ele>1010.0</ele><time>2026-05-03T10:21:48.13Z</time></trkpt><trkpt lat="44.1752723" lon="8.0892739"><ele>1010.0000000000001</ele><time>2026-05-03T10:21:49.13Z</time></trkpt><trkpt lat="44.1753017" lon="8.0893736"><ele>1010.0</ele><time>2026-05-03T10:21:50.129Z</time></trkpt><trkpt lat="44.1753307" lon="8.0894786"><ele>1011.0</ele><time>2026-05-03T10:21:51.129Z</time></trkpt><trkpt lat="44.1753491" lon="8.0895964"><ele>1012.0</ele><time>2026-05-03T10:21:52.129Z</time></trkpt><trkpt lat="44.1753397" lon="8.0897346"><ele>1013.0</ele><time>2026-05-03T10:21:53.129Z</time></trkpt><trkpt lat="44.1753187" lon="8.0898802"><ele>1014.0</ele><time>2026-05-03T10:21:54.13Z</time></trkpt><trkpt lat="44.1753027" lon="8.090043"><ele>1015.0</ele><time>2026-05-03T10:21:55.129Z</time></trkpt><trkpt lat="44.1752746" lon="8.0902037"><ele>1016.25</ele><time>2026-05-03T10:21:56.129Z</time></trkpt><trkpt lat="44.175239" lon="8.0903611"><ele>1017.5</ele><time>2026-05-03T10:21:57.129Z</time></trkpt><trkpt lat="44.175209" lon="8.09053"><ele>1018.75</ele><time>2026-05-03T10:21:58.129Z</time></trkpt><trkpt lat="44.1751857" lon="8.0906959"><ele>1020.0</ele><time>2026-05-03T10:21:59.129Z</time></trkpt><trkpt lat="44.1751651" lon="8.0908562"><ele>1020.0</ele><time>2026-05-03T10:22:00.129Z</time></trkpt><trkpt lat="44.1751515" lon="8.0910159"><ele>1020.0</ele><time>2026-05-03T10:22:01.13Z</time></trkpt><trkpt lat="44.1751464" lon="8.0911616"><ele>1020.0</ele><time>2026-05-03T10:22:02.129Z</time></trkpt><trkpt lat="44.1751419" lon="8.0912972"><ele>1020.0</ele><time>2026-05-03T10:22:03.129Z</time></trkpt><trkpt lat="44.1751432" lon="8.0914312"><ele>1020.0</ele><time>2026-05-03T10:22:04.129Z</time></trkpt><trkpt lat="44.1751515" lon="8.0915726"><ele>1021.2</ele><time>2026-05-03T10:22:05.129Z</time></trkpt><trkpt lat="44.1751684" lon="8.0917113"><ele>1022.4</ele><time>2026-05-03T10:22:06.129Z</time></trkpt><trkpt lat="44.1751971" lon="8.0918491"><ele>1023.5999999999999</ele><time>2026-05-03T10:22:07.129Z</time></trkpt><trkpt lat="44.1752218" lon="8.0919715"><ele>1024.8</ele><time>2026-05-03T10:22:08.129Z</time></trkpt><trkpt lat="44.1752352" lon="8.0920639"><ele>1026.0</ele><time>2026-05-03T10:22:09.13Z</time></trkpt><trkpt lat="44.1752263" lon="8.092209"><ele>1026.0</ele><time>2026-05-03T10:22:11.129Z</time></trkpt><trkpt lat="44.1751606" lon="8.0923101"><ele>1026.0</ele><time>2026-05-03T10:22:13.129Z</time></trkpt><trkpt lat="44.1750484" lon="8.0923659"><ele>1026.0</ele><time>2026-05-03T10:22:15.129Z</time></trkpt><trkpt lat="44.1749445" lon="8.0924216"><ele>1026.0</ele><time>2026-05-03T10:22:16.129Z</time></trkpt><trkpt lat="44.1748353" lon="8.092474"><ele>1026.0</ele><time>2026-05-03T10:22:17.13Z</time></trkpt><trkpt lat="44.1747435" lon="8.0925304"><ele>1027.1666666666667</ele><time>2026-05-03T10:22:18.129Z</time></trkpt><trkpt lat="44.174656" lon="8.0925955"><ele>1028.3333333333333</ele><time>2026-05-03T10:22:19.129Z</time></trkpt><trkpt lat="44.1745919" lon="8.0926807"><ele>1029.5</ele><time>2026-05-03T10:22:20.129Z</time></trkpt><trkpt lat="44.1745321" lon="8.0927615"><ele>1030.6666666666665</ele><time>2026-05-03T10:22:21.129Z</time></trkpt><trkpt lat="44.1745107" lon="8.0928487"><ele>1031.8333333333333</ele><time>2026-05-03T10:22:22.13Z</time></trkpt><trkpt lat="44.1745022" lon="8.0929425"><ele>1033.0</ele><time>2026-05-03T10:22:23.129Z</time></trkpt><trkpt lat="44.1744628" lon="8.093076"><ele>1033.0</ele><time>2026-05-03T10:22:25.129Z</time></trkpt><trkpt lat="44.1743899" lon="8.0930827"><ele>1033.0</ele><time>2026-05-03T10:22:26.129Z</time></trkpt><trkpt lat="44.1743028" lon="8.0930532"><ele>1033.0</ele><time>2026-05-03T10:22:27.129Z</time></trkpt><trkpt lat="44.1742138" lon="8.0930334"><ele>1033.0</ele><time>2026-05-03T10:22:28.13Z</time></trkpt><trkpt lat="44.1741331" lon="8.0930331"><ele>1033.0</ele><time>2026-05-03T10:22:29.129Z</time></trkpt><trkpt lat="44.1740516" lon="8.0930614"><ele>1033.0</ele><time>2026-05-03T10:22:30.129Z</time></trkpt><trkpt lat="44.1739692" lon="8.0931"><ele>1032.0</ele><time>2026-05-03T10:22:31.129Z</time></trkpt><trkpt lat="44.1738848" lon="8.0931333"><ele>1031.0</ele><time>2026-05-03T10:22:32.13Z</time></trkpt><trkpt lat="44.173802" lon="8.0931873"><ele>1030.0</ele><time>2026-05-03T10:22:33.129Z</time></trkpt><trkpt lat="44.1737216" lon="8.0932536"><ele>1029.0</ele><time>2026-05-03T10:22:34.129Z</time></trkpt><trkpt lat="44.1736393" lon="8.0933216"><ele>1028.0</ele><time>2026-05-03T10:22:35.129Z</time></trkpt><trkpt lat="44.1735527" lon="8.0933863"><ele>1031.3333333333335</ele><time>2026-05-03T10:22:36.129Z</time></trkpt><trkpt lat="44.173462" lon="8.0934141"><ele>1034.6666666666667</ele><time>2026-05-03T10:22:37.129Z</time></trkpt><trkpt lat="44.1733788" lon="8.093433"><ele>1038.0</ele><time>2026-05-03T10:22:38.129Z</time></trkpt><trkpt lat="44.1732917" lon="8.0934444"><ele>1041.3333333333333</ele><time>2026-05-03T10:22:39.129Z</time></trkpt><trkpt lat="44.1732163" lon="8.0934832"><ele>1044.6666666666665</ele><time>2026-05-03T10:22:40.129Z</time></trkpt><trkpt lat="44.1731434" lon="8.0935611"><ele>1048.0</ele><time>2026-05-03T10:22:41.129Z</time></trkpt><trkpt lat="44.1730682" lon="8.0936515"><ele>1048.0</ele><time>2026-05-03T10:22:42.129Z</time></trkpt><trkpt lat="44.1729942" lon="8.0937551"><ele>1048.0</ele><time>2026-05-03T10:22:43.129Z</time></trkpt><trkpt lat="44.1729342" lon="8.0938573"><ele>1048.0</ele><time>2026-05-03T10:22:44.129Z</time></trkpt><trkpt lat="44.1728884" lon="8.0939448"><ele>1048.0</ele><time>2026-05-03T10:22:45.129Z</time></trkpt><trkpt lat="44.1728488" lon="8.094018"><ele>1048.0</ele><time>2026-05-03T10:22:46.129Z</time></trkpt><trkpt lat="44.1727674" lon="8.0941198"><ele>1052.0</ele><time>2026-05-03T10:22:48.129Z</time></trkpt><trkpt lat="44.1726958" lon="8.094139"><ele>1056.0</ele><time>2026-05-03T10:22:49.13Z</time></trkpt><trkpt lat="44.1726038" lon="8.0941372"><ele>1060.0</ele><time>2026-05-03T10:22:50.129Z</time></trkpt><trkpt lat="44.1725102" lon="8.0941499"><ele>1064.0</ele><time>2026-05-03T10:22:51.129Z</time></trkpt><trkpt lat="44.1724164" lon="8.0941791"><ele>1068.0</ele><time>2026-05-03T10:22:52.129Z</time></trkpt><trkpt lat="44.1723187" lon="8.0942335"><ele>1068.0</ele><time>2026-05-03T10:22:53.129Z</time></trkpt><trkpt lat="44.1722247" lon="8.0943005"><ele>1068.0</ele><time>2026-05-03T10:22:54.129Z</time></trkpt><trkpt lat="44.1721325" lon="8.0943595"><ele>1068.0</ele><time>2026-05-03T10:22:55.129Z</time></trkpt><trkpt lat="44.1720339" lon="8.0943851"><ele>1068.0</ele><time>2026-05-03T10:22:56.13Z</time></trkpt><trkpt lat="44.1719416" lon="8.0944123"><ele>1068.0</ele><time>2026-05-03T10:22:57.13Z</time></trkpt><trkpt lat="44.1718587" lon="8.0944485"><ele>1068.0</ele><time>2026-05-03T10:22:58.129Z</time></trkpt><trkpt lat="44.1717661" lon="8.0944941"><ele>1068.0</ele><time>2026-05-03T10:22:59.129Z</time></trkpt><trkpt lat="44.1716597" lon="8.0945267"><ele>1068.0</ele><time>2026-05-03T10:23:00.129Z</time></trkpt><trkpt lat="44.1715581" lon="8.0945559"><ele>1068.0</ele><time>2026-05-03T10:23:01.13Z</time></trkpt><trkpt lat="44.171462" lon="8.0945789"><ele>1068.0</ele><time>2026-05-03T10:23:02.129Z</time></trkpt><trkpt lat="44.1713626" lon="8.0945975"><ele>1067.0</ele><time>2026-05-03T10:23:03.13Z</time></trkpt><trkpt lat="44.1712655" lon="8.0946299"><ele>1066.0</ele><time>2026-05-03T10:23:04.129Z</time></trkpt><trkpt lat="44.1711795" lon="8.094674"><ele>1065.0</ele><time>2026-05-03T10:23:05.13Z</time></trkpt><trkpt lat="44.1711054" lon="8.0947398"><ele>1064.0</ele><time>2026-05-03T10:23:06.129Z</time></trkpt><trkpt lat="44.1710382" lon="8.0948211"><ele>1063.0</ele><time>2026-05-03T10:23:07.129Z</time></trkpt><trkpt lat="44.1709782" lon="8.0949168"><ele>1062.6</ele><time>2026-05-03T10:23:08.129Z</time></trkpt><trkpt lat="44.1709219" lon="8.0950045"><ele>1062.1999999999998</ele><time>2026-05-03T10:23:09.129Z</time></trkpt><trkpt lat="44.1708594" lon="8.09508"><ele>1061.8</ele><time>2026-05-03T10:23:10.129Z</time></trkpt><trkpt lat="44.1707939" lon="8.0951766"><ele>1061.3999999999999</ele><time>2026-05-03T10:23:11.129Z</time></trkpt><trkpt lat="44.1707252" lon="8.095276"><ele>1061.0</ele><time>2026-05-03T10:23:12.13Z</time></trkpt><trkpt lat="44.1706513" lon="8.0953849"><ele>1061.0</ele><time>2026-05-03T10:23:13.129Z</time></trkpt><trkpt lat="44.1705853" lon="8.0955018"><ele>1061.0</ele><time>2026-05-03T10:23:14.129Z</time></trkpt><trkpt lat="44.1705199" lon="8.0956245"><ele>1061.0</ele><time>2026-05-03T10:23:15.129Z</time></trkpt><trkpt lat="44.170459" lon="8.0957594"><ele>1061.0</ele><time>2026-05-03T10:23:16.129Z</time></trkpt><trkpt lat="44.1703932" lon="8.0958833"><ele>1061.0</ele><time>2026-05-03T10:23:17.13Z</time></trkpt><trkpt lat="44.1703295" lon="8.0960071"><ele>1061.2</ele><time>2026-05-03T10:23:18.129Z</time></trkpt><trkpt lat="44.1702686" lon="8.0961372"><ele>1061.3999999999999</ele><time>2026-05-03T10:23:19.129Z</time></trkpt><trkpt lat="44.1702196" lon="8.0962564"><ele>1061.6</ele><time>2026-05-03T10:23:20.129Z</time></trkpt><trkpt lat="44.1701808" lon="8.0963857"><ele>1061.8</ele><time>2026-05-03T10:23:21.129Z</time></trkpt><trkpt lat="44.1701538" lon="8.0965135"><ele>1062.0</ele><time>2026-05-03T10:23:22.129Z</time></trkpt><trkpt lat="44.170129" lon="8.0966512"><ele>1062.6</ele><time>2026-05-03T10:23:23.129Z</time></trkpt><trkpt lat="44.1701139" lon="8.0967942"><ele>1063.2</ele><time>2026-05-03T10:23:24.13Z</time></trkpt><trkpt lat="44.1700971" lon="8.0969388"><ele>1063.8</ele><time>2026-05-03T10:23:25.129Z</time></trkpt><trkpt lat="44.1700729" lon="8.0970791"><ele>1064.4</ele><time>2026-05-03T10:23:26.13Z</time></trkpt><trkpt lat="44.1700453" lon="8.0972229"><ele>1065.0</ele><time>2026-05-03T10:23:27.129Z</time></trkpt><trkpt lat="44.1700222" lon="8.0973586"><ele>1064.0</ele><time>2026-05-03T10:23:28.129Z</time></trkpt><trkpt lat="44.170003" lon="8.0974939"><ele>1063.0</ele><time>2026-05-03T10:23:29.129Z</time></trkpt><trkpt lat="44.1699753" lon="8.0976499"><ele>1062.0</ele><time>2026-05-03T10:23:30.129Z</time></trkpt><trkpt lat="44.1699431" lon="8.097825"><ele>1061.0</ele><time>2026-05-03T10:23:31.13Z</time></trkpt><trkpt lat="44.1699158" lon="8.0980025"><ele>1061.0</ele><time>2026-05-03T10:23:32.129Z</time></trkpt><trkpt lat="44.1699007" lon="8.0981665"><ele>1061.0</ele><time>2026-05-03T10:23:33.13Z</time></trkpt><trkpt lat="44.1698838" lon="8.0983215"><ele>1061.0</ele><time>2026-05-03T10:23:34.129Z</time></trkpt><trkpt lat="44.1698605" lon="8.0984771"><ele>1061.0</ele><time>2026-05-03T10:23:35.129Z</time></trkpt><trkpt lat="44.1698294" lon="8.0986348"><ele>1060.3999999999999</ele><time>2026-05-03T10:23:36.129Z</time></trkpt><trkpt lat="44.1697958" lon="8.0987785"><ele>1059.8</ele><time>2026-05-03T10:23:37.129Z</time></trkpt><trkpt lat="44.1697489" lon="8.0989108"><ele>1059.1999999999998</ele><time>2026-05-03T10:23:38.129Z</time></trkpt><trkpt lat="44.1696934" lon="8.0990406"><ele>1058.6</ele><time>2026-05-03T10:23:39.129Z</time></trkpt><trkpt lat="44.1696292" lon="8.099172"><ele>1058.0</ele><time>2026-05-03T10:23:40.129Z</time></trkpt><trkpt lat="44.169566" lon="8.0993061"><ele>1058.0</ele><time>2026-05-03T10:23:41.129Z</time></trkpt><trkpt lat="44.1694946" lon="8.0994537"><ele>1058.0</ele><time>2026-05-03T10:23:42.129Z</time></trkpt><trkpt lat="44.1694234" lon="8.099608"><ele>1058.0</ele><time>2026-05-03T10:23:43.129Z</time></trkpt><trkpt lat="44.169355" lon="8.0997569"><ele>1058.0</ele><time>2026-05-03T10:23:44.129Z</time></trkpt><trkpt lat="44.1692993" lon="8.0999042"><ele>1057.0</ele><time>2026-05-03T10:23:45.129Z</time></trkpt><trkpt lat="44.169275" lon="8.1000465"><ele>1056.0</ele><time>2026-05-03T10:23:46.129Z</time></trkpt><trkpt lat="44.1692634" lon="8.100195"><ele>1055.0</ele><time>2026-05-03T10:23:47.129Z</time></trkpt><trkpt lat="44.1692434" lon="8.1003392"><ele>1054.0</ele><time>2026-05-03T10:23:48.129Z</time></trkpt><trkpt lat="44.1692223" lon="8.100484"><ele>1053.0</ele><time>2026-05-03T10:23:49.13Z</time></trkpt><trkpt lat="44.1691947" lon="8.1006149"><ele>1053.0</ele><time>2026-05-03T10:23:50.13Z</time></trkpt><trkpt lat="44.1691477" lon="8.1007451"><ele>1053.0</ele><time>2026-05-03T10:23:51.129Z</time></trkpt><trkpt lat="44.1690996" lon="8.100883"><ele>1053.0</ele><time>2026-05-03T10:23:52.129Z</time></trkpt><trkpt lat="44.1690328" lon="8.1010229"><ele>1053.0</ele><time>2026-05-03T10:23:53.13Z</time></trkpt><trkpt lat="44.1689682" lon="8.101165"><ele>1052.5</ele><time>2026-05-03T10:23:54.129Z</time></trkpt><trkpt lat="44.1689133" lon="8.101316"><ele>1052.0</ele><time>2026-05-03T10:23:55.129Z</time></trkpt><trkpt lat="44.1688667" lon="8.1014941"><ele>1051.5</ele><time>2026-05-03T10:23:56.13Z</time></trkpt><trkpt lat="44.1688263" lon="8.1016915"><ele>1051.0</ele><time>2026-05-03T10:23:57.129Z</time></trkpt><trkpt lat="44.1687955" lon="8.1018786"><ele>1050.2</ele><time>2026-05-03T10:23:58.129Z</time></trkpt><trkpt lat="44.1687684" lon="8.1020427"><ele>1049.3999999999999</ele><time>2026-05-03T10:23:59.129Z</time></trkpt><trkpt lat="44.1687336" lon="8.1021791"><ele>1048.6</ele><time>2026-05-03T10:24:00.13Z</time></trkpt><trkpt lat="44.1686856" lon="8.1022944"><ele>1047.8</ele><time>2026-05-03T10:24:01.129Z</time></trkpt><trkpt lat="44.1686249" lon="8.1023994"><ele>1047.0</ele><time>2026-05-03T10:24:02.13Z</time></trkpt><trkpt lat="44.1685578" lon="8.1024891"><ele>1044.6</ele><time>2026-05-03T10:24:03.13Z</time></trkpt><trkpt lat="44.168495" lon="8.1025731"><ele>1042.2</ele><time>2026-05-03T10:24:04.129Z</time></trkpt><trkpt lat="44.1684398" lon="8.1026542"><ele>1039.8</ele><time>2026-05-03T10:24:05.129Z</time></trkpt><trkpt lat="44.1683833" lon="8.1027492"><ele>1037.4</ele><time>2026-05-03T10:24:06.129Z</time></trkpt><trkpt lat="44.1683249" lon="8.1028733"><ele>1035.0</ele><time>2026-05-03T10:24:07.129Z</time></trkpt><trkpt lat="44.168273" lon="8.103007"><ele>1035.0</ele><time>2026-05-03T10:24:08.13Z</time></trkpt><trkpt lat="44.1682236" lon="8.103145"><ele>1035.0</ele><time>2026-05-03T10:24:09.129Z</time></trkpt><trkpt lat="44.1681663" lon="8.1032838"><ele>1035.0</ele><time>2026-05-03T10:24:10.129Z</time></trkpt><trkpt lat="44.1681049" lon="8.1034079"><ele>1035.0</ele><time>2026-05-03T10:24:11.129Z</time></trkpt><trkpt lat="44.1680459" lon="8.1035269"><ele>1035.0</ele><time>2026-05-03T10:24:12.129Z</time></trkpt><trkpt lat="44.1679973" lon="8.103653"><ele>1030.4</ele><time>2026-05-03T10:24:13.13Z</time></trkpt><trkpt lat="44.1679593" lon="8.1037846"><ele>1025.8</ele><time>2026-05-03T10:24:14.129Z</time></trkpt><trkpt lat="44.1679237" lon="8.1039141"><ele>1021.2</ele><time>2026-05-03T10:24:15.13Z</time></trkpt><trkpt lat="44.1678958" lon="8.1040388"><ele>1016.6</ele><time>2026-05-03T10:24:16.129Z</time></trkpt><trkpt lat="44.167876" lon="8.1041779"><ele>1012.0</ele><time>2026-05-03T10:24:17.129Z</time></trkpt><trkpt lat="44.1678668" lon="8.1043341"><ele>1012.0</ele><time>2026-05-03T10:24:18.13Z</time></trkpt><trkpt lat="44.1678581" lon="8.1044934"><ele>1012.0</ele><time>2026-05-03T10:24:19.129Z</time></trkpt><trkpt lat="44.1678353" lon="8.104643"><ele>1012.0</ele><time>2026-05-03T10:24:20.13Z</time></trkpt><trkpt lat="44.1678084" lon="8.1047859"><ele>1012.0</ele><time>2026-05-03T10:24:21.129Z</time></trkpt><trkpt lat="44.1677852" lon="8.1049275"><ele>1012.0</ele><time>2026-05-03T10:24:22.129Z</time></trkpt><trkpt lat="44.167771" lon="8.1050678"><ele>1011.0</ele><time>2026-05-03T10:24:23.13Z</time></trkpt><trkpt lat="44.1677554" lon="8.1052085"><ele>1010.0</ele><time>2026-05-03T10:24:24.129Z</time></trkpt><trkpt lat="44.1677409" lon="8.1053498"><ele>1009.0</ele><time>2026-05-03T10:24:25.129Z</time></trkpt><trkpt lat="44.1677324" lon="8.1054896"><ele>1008.0</ele><time>2026-05-03T10:24:26.13Z</time></trkpt><trkpt lat="44.167724" lon="8.1056315"><ele>1007.0</ele><time>2026-05-03T10:24:27.129Z</time></trkpt><trkpt lat="44.1677086" lon="8.1057814"><ele>1006.4000000000001</ele><time>2026-05-03T10:24:28.13Z</time></trkpt><trkpt lat="44.1676978" lon="8.1059299"><ele>1005.8000000000001</ele><time>2026-05-03T10:24:29.129Z</time></trkpt><trkpt lat="44.1676911" lon="8.1060816"><ele>1005.2</ele><time>2026-05-03T10:24:30.129Z</time></trkpt><trkpt lat="44.1676774" lon="8.106239"><ele>1004.6</ele><time>2026-05-03T10:24:31.129Z</time></trkpt><trkpt lat="44.1676591" lon="8.1063847"><ele>1004.0</ele><time>2026-05-03T10:24:32.129Z</time></trkpt><trkpt lat="44.1676484" lon="8.1065145"><ele>1003.8333333333334</ele><time>2026-05-03T10:24:33.13Z</time></trkpt><trkpt lat="44.1676532" lon="8.1066229"><ele>1003.6666666666667</ele><time>2026-05-03T10:24:34.129Z</time></trkpt><trkpt lat="44.1677222" lon="8.1067572"><ele>1003.5</ele><time>2026-05-03T10:24:36.129Z</time></trkpt><trkpt lat="44.1677974" lon="8.1067972"><ele>1003.3333333333333</ele><time>2026-05-03T10:24:37.129Z</time></trkpt><trkpt lat="44.1678848" lon="8.1068406"><ele>1003.1666666666666</ele><time>2026-05-03T10:24:38.129Z</time></trkpt><trkpt lat="44.1679525" lon="8.1068976"><ele>1003.0</ele><time>2026-05-03T10:24:39.13Z</time></trkpt><trkpt lat="44.168003" lon="8.1069743"><ele>1003.0</ele><time>2026-05-03T10:24:40.13Z</time></trkpt><trkpt lat="44.1680478" lon="8.1070725"><ele>1003.0</ele><time>2026-05-03T10:24:41.129Z</time></trkpt><trkpt lat="44.1680678" lon="8.1072039"><ele>1003.0</ele><time>2026-05-03T10:24:42.129Z</time></trkpt><trkpt lat="44.1680634" lon="8.1073524"><ele>1003.0</ele><time>2026-05-03T10:24:43.129Z</time></trkpt><trkpt lat="44.1680425" lon="8.1074914"><ele>1003.0</ele><time>2026-05-03T10:24:44.129Z</time></trkpt><trkpt lat="44.1679999" lon="8.1076311"><ele>1001.0</ele><time>2026-05-03T10:24:45.129Z</time></trkpt><trkpt lat="44.1679575" lon="8.1077905"><ele>999.0</ele><time>2026-05-03T10:24:46.129Z</time></trkpt><trkpt lat="44.1679299" lon="8.1079636"><ele>997.0</ele><time>2026-05-03T10:24:47.129Z</time></trkpt><trkpt lat="44.1679105" lon="8.1081316"><ele>995.0</ele><time>2026-05-03T10:24:48.129Z</time></trkpt><trkpt lat="44.1678849" lon="8.1082784"><ele>994.1666666666667</ele><time>2026-05-03T10:24:49.129Z</time></trkpt><trkpt lat="44.167859" lon="8.1084082"><ele>993.3333333333334</ele><time>2026-05-03T10:24:50.129Z</time></trkpt><trkpt lat="44.1678301" lon="8.1085109"><ele>992.5</ele><time>2026-05-03T10:24:51.13Z</time></trkpt><trkpt lat="44.1677849" lon="8.1085955"><ele>991.6666666666667</ele><time>2026-05-03T10:24:52.129Z</time></trkpt><trkpt lat="44.1677359" lon="8.1086819"><ele>990.8333333333334</ele><time>2026-05-03T10:24:53.129Z</time></trkpt><trkpt lat="44.1676849" lon="8.1087432"><ele>990.0</ele><time>2026-05-03T10:24:54.129Z</time></trkpt><trkpt lat="44.1676241" lon="8.1088174"><ele>990.0</ele><time>2026-05-03T10:24:55.13Z</time></trkpt><trkpt lat="44.1675582" lon="8.1088971"><ele>990.0</ele><time>2026-05-03T10:24:56.129Z</time></trkpt><trkpt lat="44.1674869" lon="8.1089793"><ele>990.0</ele><time>2026-05-03T10:24:57.13Z</time></trkpt><trkpt lat="44.1674172" lon="8.1090644"><ele>990.0</ele><time>2026-05-03T10:24:58.129Z</time></trkpt><trkpt lat="44.1673446" lon="8.1091559"><ele>990.0</ele><time>2026-05-03T10:24:59.129Z</time></trkpt><trkpt lat="44.1672661" lon="8.1092447"><ele>987.1666666666666</ele><time>2026-05-03T10:25:00.13Z</time></trkpt><trkpt lat="44.1671814" lon="8.1093211"><ele>984.3333333333333</ele><time>2026-05-03T10:25:01.129Z</time></trkpt><trkpt lat="44.1671007" lon="8.109376"><ele>981.5</ele><time>2026-05-03T10:25:02.13Z</time></trkpt><trkpt lat="44.1670203" lon="8.1094174"><ele>978.6666666666666</ele><time>2026-05-03T10:25:03.129Z</time></trkpt><trkpt lat="44.1669354" lon="8.1094487"><ele>975.8333333333333</ele><time>2026-05-03T10:25:04.129Z</time></trkpt><trkpt lat="44.1668543" lon="8.1094833"><ele>973.0</ele><time>2026-05-03T10:25:05.129Z</time></trkpt><trkpt lat="44.1667841" lon="8.1095395"><ele>972.9999999999999</ele><time>2026-05-03T10:25:06.13Z</time></trkpt><trkpt lat="44.1667242" lon="8.1096207"><ele>973.0</ele><time>2026-05-03T10:25:07.129Z</time></trkpt><trkpt lat="44.1666655" lon="8.1097098"><ele>973.0</ele><time>2026-05-03T10:25:08.129Z</time></trkpt><trkpt lat="44.1665959" lon="8.1097857"><ele>973.0</ele><time>2026-05-03T10:25:09.129Z</time></trkpt><trkpt lat="44.1665116" lon="8.109842"><ele>972.9999999999999</ele><time>2026-05-03T10:25:10.129Z</time></trkpt><trkpt lat="44.166421" lon="8.1098801"><ele>973.0</ele><time>2026-05-03T10:25:11.129Z</time></trkpt><trkpt lat="44.1663206" lon="8.109913"><ele>973.8</ele><time>2026-05-03T10:25:12.13Z</time></trkpt><trkpt lat="44.1662154" lon="8.1099576"><ele>974.5999999999999</ele><time>2026-05-03T10:25:13.13Z</time></trkpt><trkpt lat="44.1661147" lon="8.1100042"><ele>975.4000000000001</ele><time>2026-05-03T10:25:14.129Z</time></trkpt><trkpt lat="44.1660171" lon="8.1100427"><ele>976.2</ele><time>2026-05-03T10:25:15.129Z</time></trkpt><trkpt lat="44.1659189" lon="8.1100771"><ele>977.0</ele><time>2026-05-03T10:25:16.129Z</time></trkpt><trkpt lat="44.1658215" lon="8.1100687"><ele>977.0</ele><time>2026-05-03T10:25:17.129Z</time></trkpt><trkpt lat="44.165723" lon="8.1100582"><ele>977.0</ele><time>2026-05-03T10:25:18.129Z</time></trkpt><trkpt lat="44.165631" lon="8.1100771"><ele>977.0</ele><time>2026-05-03T10:25:19.129Z</time></trkpt><trkpt lat="44.1655439" lon="8.1101296"><ele>977.0</ele><time>2026-05-03T10:25:20.13Z</time></trkpt><trkpt lat="44.1654533" lon="8.1102002"><ele>977.0</ele><time>2026-05-03T10:25:21.129Z</time></trkpt><trkpt lat="44.1653504" lon="8.1102911"><ele>972.0</ele><time>2026-05-03T10:25:22.129Z</time></trkpt><trkpt lat="44.1652415" lon="8.1103709"><ele>967.0</ele><time>2026-05-03T10:25:23.13Z</time></trkpt><trkpt lat="44.1651267" lon="8.1104335"><ele>962.0</ele><time>2026-05-03T10:25:24.129Z</time></trkpt><trkpt lat="44.1650182" lon="8.1105102"><ele>957.0</ele><time>2026-05-03T10:25:25.129Z</time></trkpt><trkpt lat="44.1649139" lon="8.1105928"><ele>955.0</ele><time>2026-05-03T10:25:26.13Z</time></trkpt><trkpt lat="44.1648112" lon="8.1106792"><ele>953.0</ele><time>2026-05-03T10:25:27.13Z</time></trkpt><trkpt lat="44.1647121" lon="8.1107636"><ele>951.0</ele><time>2026-05-03T10:25:28.129Z</time></trkpt><trkpt lat="44.1646149" lon="8.1108359"><ele>949.0</ele><time>2026-05-03T10:25:29.129Z</time></trkpt><trkpt lat="44.1645152" lon="8.1109028"><ele>949.0</ele><time>2026-05-03T10:25:30.129Z</time></trkpt><trkpt lat="44.1644123" lon="8.1109761"><ele>949.0</ele><time>2026-05-03T10:25:31.13Z</time></trkpt><trkpt lat="44.1643115" lon="8.1110562"><ele>949.0</ele><time>2026-05-03T10:25:32.129Z</time></trkpt><trkpt lat="44.1642046" lon="8.1111399"><ele>949.0</ele><time>2026-05-03T10:25:33.129Z</time></trkpt><trkpt lat="44.1641007" lon="8.1112236"><ele>941.75</ele><time>2026-05-03T10:25:34.13Z</time></trkpt><trkpt lat="44.1640007" lon="8.1113035"><ele>934.5</ele><time>2026-05-03T10:25:35.129Z</time></trkpt><trkpt lat="44.1639014" lon="8.1113834"><ele>927.25</ele><time>2026-05-03T10:25:36.129Z</time></trkpt><trkpt lat="44.1638004" lon="8.1114421"><ele>920.0</ele><time>2026-05-03T10:25:37.131Z</time></trkpt><trkpt lat="44.1636951" lon="8.1115113"><ele>924.6</ele><time>2026-05-03T10:25:38.129Z</time></trkpt><trkpt lat="44.1635924" lon="8.1115772"><ele>929.2</ele><time>2026-05-03T10:25:39.129Z</time></trkpt><trkpt lat="44.1634931" lon="8.111628"><ele>933.8</ele><time>2026-05-03T10:25:40.129Z</time></trkpt><trkpt lat="44.1633943" lon="8.111677"><ele>938.4</ele><time>2026-05-03T10:25:41.13Z</time></trkpt><trkpt lat="44.1632968" lon="8.111731"><ele>943.0</ele><time>2026-05-03T10:25:42.129Z</time></trkpt><trkpt lat="44.1631994" lon="8.1117929"><ele>935.8</ele><time>2026-05-03T10:25:43.13Z</time></trkpt><trkpt lat="44.1631073" lon="8.1118412"><ele>928.5999999999999</ele><time>2026-05-03T10:25:44.129Z</time></trkpt><trkpt lat="44.1630082" lon="8.1118727"><ele>921.4000000000001</ele><time>2026-05-03T10:25:45.129Z</time></trkpt><trkpt lat="44.1629088" lon="8.1119102"><ele>914.2</ele><time>2026-05-03T10:25:46.129Z</time></trkpt><trkpt lat="44.1628228" lon="8.1119665"><ele>907.0</ele><time>2026-05-03T10:25:47.13Z</time></trkpt><trkpt lat="44.1627645" lon="8.1120388"><ele>906.9999999999999</ele><time>2026-05-03T10:25:48.129Z</time></trkpt><trkpt lat="44.1627355" lon="8.1121228"><ele>907.0</ele><time>2026-05-03T10:25:49.13Z</time></trkpt><trkpt lat="44.1627334" lon="8.1122206"><ele>907.0</ele><time>2026-05-03T10:25:50.129Z</time></trkpt><trkpt lat="44.1627496" lon="8.1123269"><ele>907.0</ele><time>2026-05-03T10:25:51.129Z</time></trkpt><trkpt lat="44.1627718" lon="8.1124618"><ele>906.9999999999999</ele><time>2026-05-03T10:25:52.13Z</time></trkpt><trkpt lat="44.1627748" lon="8.1126034"><ele>907.0</ele><time>2026-05-03T10:25:53.129Z</time></trkpt><trkpt lat="44.1627615" lon="8.1127413"><ele>910.2</ele><time>2026-05-03T10:25:54.129Z</time></trkpt><trkpt lat="44.162751" lon="8.1128766"><ele>913.4000000000001</ele><time>2026-05-03T10:25:55.129Z</time></trkpt><trkpt lat="44.1627414" lon="8.1130119"><ele>916.5999999999999</ele><time>2026-05-03T10:25:56.13Z</time></trkpt><trkpt lat="44.1627203" lon="8.1131418"><ele>919.8</ele><time>2026-05-03T10:25:57.129Z</time></trkpt><trkpt lat="44.1626869" lon="8.1132703"><ele>923.0</ele><time>2026-05-03T10:25:58.129Z</time></trkpt><trkpt lat="44.1626533" lon="8.1133955"><ele>923.0000000000001</ele><time>2026-05-03T10:25:59.13Z</time></trkpt><trkpt lat="44.1626141" lon="8.1135199"><ele>923.0</ele><time>2026-05-03T10:26:00.129Z</time></trkpt><trkpt lat="44.1625801" lon="8.1136266"><ele>923.0</ele><time>2026-05-03T10:26:01.129Z</time></trkpt><trkpt lat="44.1625508" lon="8.1137317"><ele>923.0</ele><time>2026-05-03T10:26:02.129Z</time></trkpt><trkpt lat="44.1625248" lon="8.1138481"><ele>923.0000000000001</ele><time>2026-05-03T10:26:03.13Z</time></trkpt><trkpt lat="44.1625132" lon="8.1139743"><ele>923.0</ele><time>2026-05-03T10:26:04.13Z</time></trkpt><trkpt lat="44.1624715" lon="8.1140978"><ele>923.5999999999999</ele><time>2026-05-03T10:26:05.129Z</time></trkpt><trkpt lat="44.1624445" lon="8.1142215"><ele>924.1999999999999</ele><time>2026-05-03T10:26:06.13Z</time></trkpt><trkpt lat="44.1624256" lon="8.1143417"><ele>924.8</ele><time>2026-05-03T10:26:07.13Z</time></trkpt><trkpt lat="44.1624359" lon="8.1144696"><ele>925.4</ele><time>2026-05-03T10:26:08.129Z</time></trkpt><trkpt lat="44.1624541" lon="8.1146052"><ele>926.0</ele><time>2026-05-03T10:26:09.13Z</time></trkpt><trkpt lat="44.1625092" lon="8.1147327"><ele>926.0</ele><time>2026-05-03T10:26:10.129Z</time></trkpt><trkpt lat="44.1625445" lon="8.1148656"><ele>925.9999999999999</ele><time>2026-05-03T10:26:11.129Z</time></trkpt><trkpt lat="44.1625448" lon="8.1150212"><ele>925.9999999999999</ele><time>2026-05-03T10:26:12.129Z</time></trkpt><trkpt lat="44.1625544" lon="8.1151656"><ele>926.0</ele><time>2026-05-03T10:26:13.13Z</time></trkpt><trkpt lat="44.1625809" lon="8.1153143"><ele>926.0</ele><time>2026-05-03T10:26:14.129Z</time></trkpt><trkpt lat="44.1626029" lon="8.1154389"><ele>924.4</ele><time>2026-05-03T10:26:15.129Z</time></trkpt><trkpt lat="44.1626227" lon="8.1155765"><ele>922.8</ele><time>2026-05-03T10:26:16.129Z</time></trkpt><trkpt lat="44.1626352" lon="8.115709"><ele>921.1999999999999</ele><time>2026-05-03T10:26:17.129Z</time></trkpt><trkpt lat="44.1626547" lon="8.1158291"><ele>919.5999999999999</ele><time>2026-05-03T10:26:18.129Z</time></trkpt><trkpt lat="44.1626674" lon="8.1159769"><ele>918.0</ele><time>2026-05-03T10:26:19.13Z</time></trkpt><trkpt lat="44.1626657" lon="8.1161289"><ele>916.0</ele><time>2026-05-03T10:26:20.129Z</time></trkpt><trkpt lat="44.1626437" lon="8.1162659"><ele>914.0</ele><time>2026-05-03T10:26:21.129Z</time></trkpt><trkpt lat="44.1626279" lon="8.1163792"><ele>912.0</ele><time>2026-05-03T10:26:22.129Z</time></trkpt><trkpt lat="44.1626016" lon="8.1164922"><ele>910.0</ele><time>2026-05-03T10:26:23.13Z</time></trkpt><trkpt lat="44.1625832" lon="8.1166026"><ele>908.0</ele><time>2026-05-03T10:26:24.129Z</time></trkpt><trkpt lat="44.162559" lon="8.1167091"><ele>906.0</ele><time>2026-05-03T10:26:25.129Z</time></trkpt><trkpt lat="44.1625513" lon="8.1168241"><ele>904.8333333333334</ele><time>2026-05-03T10:26:26.13Z</time></trkpt><trkpt lat="44.1625445" lon="8.116927"><ele>903.6666666666667</ele><time>2026-05-03T10:26:27.129Z</time></trkpt><trkpt lat="44.1625454" lon="8.1170317"><ele>902.5</ele><time>2026-05-03T10:26:28.129Z</time></trkpt><trkpt lat="44.1625735" lon="8.1171679"><ele>901.3333333333334</ele><time>2026-05-03T10:26:30.129Z</time></trkpt><trkpt lat="44.1626387" lon="8.1172815"><ele>900.1666666666667</ele><time>2026-05-03T10:26:32.13Z</time></trkpt><trkpt lat="44.1627193" lon="8.1173259"><ele>899.0</ele><time>2026-05-03T10:26:33.129Z</time></trkpt><trkpt lat="44.1627893" lon="8.117352"><ele>899.0</ele><time>2026-05-03T10:26:34.13Z</time></trkpt><trkpt lat="44.1628689" lon="8.1173506"><ele>899.0000000000001</ele><time>2026-05-03T10:26:35.129Z</time></trkpt><trkpt lat="44.1629524" lon="8.1173427"><ele>899.0000000000001</ele><time>2026-05-03T10:26:36.129Z</time></trkpt><trkpt lat="44.1630312" lon="8.1173359"><ele>899.0</ele><time>2026-05-03T10:26:37.13Z</time></trkpt><trkpt lat="44.1631412" lon="8.117335"><ele>899.0</ele><time>2026-05-03T10:26:39.129Z</time></trkpt><trkpt lat="44.1632457" lon="8.117338"><ele>899.6666666666667</ele><time>2026-05-03T10:26:41.129Z</time></trkpt><trkpt lat="44.1633312" lon="8.1174217"><ele>900.3333333333334</ele><time>2026-05-03T10:26:43.129Z</time></trkpt><trkpt lat="44.1633869" lon="8.1174786"><ele>901.0</ele><time>2026-05-03T10:26:44.129Z</time></trkpt><trkpt lat="44.1634492" lon="8.117541"><ele>901.6666666666667</ele><time>2026-05-03T10:26:45.129Z</time></trkpt><trkpt lat="44.1634987" lon="8.1176127"><ele>902.3333333333334</ele><time>2026-05-03T10:26:46.129Z</time></trkpt><trkpt lat="44.1635617" lon="8.1176905"><ele>903.0</ele><time>2026-05-03T10:26:47.129Z</time></trkpt><trkpt lat="44.1636072" lon="8.1177652"><ele>903.0</ele><time>2026-05-03T10:26:48.129Z</time></trkpt><trkpt lat="44.1637063" lon="8.1178033"><ele>903.0</ele><time>2026-05-03T10:26:49.13Z</time></trkpt><trkpt lat="44.1637916" lon="8.1178273"><ele>903.0</ele><time>2026-05-03T10:26:50.129Z</time></trkpt><trkpt lat="44.16388" lon="8.1178449"><ele>903.0</ele><time>2026-05-03T10:26:51.129Z</time></trkpt><trkpt lat="44.1639468" lon="8.1178411"><ele>903.0</ele><time>2026-05-03T10:26:52.129Z</time></trkpt><trkpt lat="44.1640269" lon="8.1178377"><ele>903.0</ele><time>2026-05-03T10:26:53.129Z</time></trkpt><trkpt lat="44.164097" lon="8.1178446"><ele>908.2</ele><time>2026-05-03T10:26:54.13Z</time></trkpt><trkpt lat="44.1642131" lon="8.1179248"><ele>913.4</ele><time>2026-05-03T10:26:56.13Z</time></trkpt><trkpt lat="44.164265" lon="8.1179861"><ele>918.6000000000001</ele><time>2026-05-03T10:26:57.129Z</time></trkpt><trkpt lat="44.1643434" lon="8.1180593"><ele>923.8000000000001</ele><time>2026-05-03T10:26:58.129Z</time></trkpt><trkpt lat="44.164405" lon="8.1181331"><ele>929.0</ele><time>2026-05-03T10:26:59.129Z</time></trkpt><trkpt lat="44.1644747" lon="8.1182128"><ele>926.3333333333334</ele><time>2026-05-03T10:27:00.129Z</time></trkpt><trkpt lat="44.1645256" lon="8.1183115"><ele>923.6666666666667</ele><time>2026-05-03T10:27:01.13Z</time></trkpt><trkpt lat="44.1645955" lon="8.1184271"><ele>921.0</ele><time>2026-05-03T10:27:02.129Z</time></trkpt><trkpt lat="44.1646404" lon="8.1185222"><ele>918.3333333333333</ele><time>2026-05-03T10:27:03.13Z</time></trkpt><trkpt lat="44.1646891" lon="8.1186101"><ele>915.6666666666666</ele><time>2026-05-03T10:27:04.129Z</time></trkpt><trkpt lat="44.1647498" lon="8.1186737"><ele>913.0</ele><time>2026-05-03T10:27:05.129Z</time></trkpt><trkpt lat="44.1648727" lon="8.118735"><ele>912.9999999999999</ele><time>2026-05-03T10:27:07.129Z</time></trkpt><trkpt lat="44.1649526" lon="8.1187141"><ele>913.0</ele><time>2026-05-03T10:27:08.129Z</time></trkpt><trkpt lat="44.1650168" lon="8.118709"><ele>913.0</ele><time>2026-05-03T10:27:09.129Z</time></trkpt><trkpt lat="44.1650789" lon="8.1186806"><ele>913.0</ele><time>2026-05-03T10:27:10.13Z</time></trkpt><trkpt lat="44.1651592" lon="8.1186233"><ele>912.9999999999999</ele><time>2026-05-03T10:27:11.129Z</time></trkpt><trkpt lat="44.1652348" lon="8.1185324"><ele>913.0</ele><time>2026-05-03T10:27:12.13Z</time></trkpt><trkpt lat="44.1653148" lon="8.1184683"><ele>913.0</ele><time>2026-05-03T10:27:13.129Z</time></trkpt><trkpt lat="44.165412" lon="8.118386"><ele>913.0</ele><time>2026-05-03T10:27:14.129Z</time></trkpt><trkpt lat="44.1654911" lon="8.1183311"><ele>913.0</ele><time>2026-05-03T10:27:15.129Z</time></trkpt><trkpt lat="44.1655681" lon="8.1182794"><ele>913.0</ele><time>2026-05-03T10:27:16.129Z</time></trkpt><trkpt lat="44.1656366" lon="8.1182038"><ele>913.0</ele><time>2026-05-03T10:27:17.13Z</time></trkpt><trkpt lat="44.165723" lon="8.1181435"><ele>914.8</ele><time>2026-05-03T10:27:18.13Z</time></trkpt><trkpt lat="44.1658002" lon="8.1180653"><ele>916.5999999999999</ele><time>2026-05-03T10:27:19.13Z</time></trkpt><trkpt lat="44.165879" lon="8.1179864"><ele>918.4000000000001</ele><time>2026-05-03T10:27:20.129Z</time></trkpt><trkpt lat="44.1659511" lon="8.117927"><ele>920.2</ele><time>2026-05-03T10:27:21.129Z</time></trkpt><trkpt lat="44.16603" lon="8.1178582"><ele>922.0</ele><time>2026-05-03T10:27:22.13Z</time></trkpt><trkpt lat="44.1661199" lon="8.117795"><ele>921.9999999999999</ele><time>2026-05-03T10:27:23.129Z</time></trkpt><trkpt lat="44.1662195" lon="8.1177349"><ele>922.0</ele><time>2026-05-03T10:27:24.129Z</time></trkpt><trkpt lat="44.1662971" lon="8.1177253"><ele>922.0</ele><time>2026-05-03T10:27:25.129Z</time></trkpt><trkpt lat="44.1663699" lon="8.1177024"><ele>922.0</ele><time>2026-05-03T10:27:26.129Z</time></trkpt><trkpt lat="44.1664403" lon="8.117656"><ele>921.9999999999999</ele><time>2026-05-03T10:27:27.13Z</time></trkpt><trkpt lat="44.1665147" lon="8.1176229"><ele>922.0</ele><time>2026-05-03T10:27:28.129Z</time></trkpt><trkpt lat="44.1665905" lon="8.1176021"><ele>919.8333333333333</ele><time>2026-05-03T10:27:29.129Z</time></trkpt><trkpt lat="44.1666638" lon="8.117512"><ele>917.6666666666666</ele><time>2026-05-03T10:27:30.129Z</time></trkpt><trkpt lat="44.1667351" lon="8.1174678"><ele>915.5</ele><time>2026-05-03T10:27:31.129Z</time></trkpt><trkpt lat="44.1668032" lon="8.1174096"><ele>913.3333333333333</ele><time>2026-05-03T10:27:32.13Z</time></trkpt><trkpt lat="44.1668619" lon="8.1173549"><ele>911.1666666666666</ele><time>2026-05-03T10:27:33.129Z</time></trkpt><trkpt lat="44.1669587" lon="8.117346"><ele>909.0</ele><time>2026-05-03T10:27:34.129Z</time></trkpt><trkpt lat="44.1670587" lon="8.1173557"><ele>909.0</ele><time>2026-05-03T10:27:36.13Z</time></trkpt><trkpt lat="44.1671461" lon="8.1173975"><ele>909.0</ele><time>2026-05-03T10:27:37.129Z</time></trkpt><trkpt lat="44.1673151" lon="8.1174342"><ele>909.0</ele><time>2026-05-03T10:27:39.129Z</time></trkpt><trkpt lat="44.1674257" lon="8.1174617"><ele>909.0</ele><time>2026-05-03T10:27:40.13Z</time></trkpt><trkpt lat="44.1675288" lon="8.1174936"><ele>908.5</ele><time>2026-05-03T10:27:41.129Z</time></trkpt><trkpt lat="44.1676136" lon="8.1175505"><ele>908.0</ele><time>2026-05-03T10:27:42.129Z</time></trkpt><trkpt lat="44.1677175" lon="8.1176138"><ele>907.5</ele><time>2026-05-03T10:27:43.129Z</time></trkpt><trkpt lat="44.1677897" lon="8.1176614"><ele>907.0</ele><time>2026-05-03T10:27:44.129Z</time></trkpt><trkpt lat="44.1678373" lon="8.1177558"><ele>906.5</ele><time>2026-05-03T10:27:45.129Z</time></trkpt><trkpt lat="44.167883" lon="8.1178354"><ele>906.0</ele><time>2026-05-03T10:27:46.129Z</time></trkpt><trkpt lat="44.1679052" lon="8.1179314"><ele>906.0</ele><time>2026-05-03T10:27:47.129Z</time></trkpt><trkpt lat="44.1679403" lon="8.1180766"><ele>905.9999999999999</ele><time>2026-05-03T10:27:49.129Z</time></trkpt><trkpt lat="44.168011" lon="8.1181608"><ele>905.9999999999999</ele><time>2026-05-03T10:27:51.13Z</time></trkpt><trkpt lat="44.1681712" lon="8.1181706"><ele>906.0</ele><time>2026-05-03T10:27:53.129Z</time></trkpt><trkpt lat="44.168257" lon="8.1181622"><ele>906.0</ele><time>2026-05-03T10:27:54.13Z</time></trkpt><trkpt lat="44.1683665" lon="8.1180934"><ele>906.8333333333334</ele><time>2026-05-03T10:27:55.129Z</time></trkpt><trkpt lat="44.1684467" lon="8.1180336"><ele>907.6666666666667</ele><time>2026-05-03T10:27:56.129Z</time></trkpt><trkpt lat="44.1685077" lon="8.1179942"><ele>908.5</ele><time>2026-05-03T10:27:57.129Z</time></trkpt><trkpt lat="44.1685615" lon="8.1179299"><ele>909.3333333333334</ele><time>2026-05-03T10:27:58.129Z</time></trkpt><trkpt lat="44.1686119" lon="8.1178476"><ele>910.1666666666667</ele><time>2026-05-03T10:27:59.129Z</time></trkpt><trkpt lat="44.1686768" lon="8.1177842"><ele>911.0</ele><time>2026-05-03T10:28:00.129Z</time></trkpt><trkpt lat="44.1687062" lon="8.1176991"><ele>911.0</ele><time>2026-05-03T10:28:01.129Z</time></trkpt><trkpt lat="44.1687611" lon="8.1176273"><ele>910.9999999999999</ele><time>2026-05-03T10:28:02.13Z</time></trkpt><trkpt lat="44.1688588" lon="8.1174801"><ele>910.9999999999999</ele><time>2026-05-03T10:28:04.13Z</time></trkpt><trkpt lat="44.168917" lon="8.1174117"><ele>911.0</ele><time>2026-05-03T10:28:05.129Z</time></trkpt><trkpt lat="44.1690015" lon="8.1173607"><ele>911.0</ele><time>2026-05-03T10:28:06.129Z</time></trkpt><trkpt lat="44.1690733" lon="8.1173306"><ele>913.5000000000001</ele><time>2026-05-03T10:28:07.129Z</time></trkpt><trkpt lat="44.1691445" lon="8.1172895"><ele>916.0</ele><time>2026-05-03T10:28:08.129Z</time></trkpt><trkpt lat="44.1692253" lon="8.1172689"><ele>918.5</ele><time>2026-05-03T10:28:09.129Z</time></trkpt><trkpt lat="44.1693027" lon="8.1172539"><ele>921.0</ele><time>2026-05-03T10:28:10.13Z</time></trkpt><trkpt lat="44.1694252" lon="8.1172888"><ele>923.5000000000001</ele><time>2026-05-03T10:28:12.129Z</time></trkpt><trkpt lat="44.1694833" lon="8.1173283"><ele>926.0</ele><time>2026-05-03T10:28:13.129Z</time></trkpt><trkpt lat="44.1695465" lon="8.1173796"><ele>921.8333333333334</ele><time>2026-05-03T10:28:14.129Z</time></trkpt><trkpt lat="44.1696253" lon="8.117452"><ele>917.6666666666667</ele><time>2026-05-03T10:28:15.129Z</time></trkpt><trkpt lat="44.1697046" lon="8.1175133"><ele>913.5</ele><time>2026-05-03T10:28:16.13Z</time></trkpt><trkpt lat="44.1697629" lon="8.117593"><ele>909.3333333333333</ele><time>2026-05-03T10:28:17.129Z</time></trkpt><trkpt lat="44.169829" lon="8.117695"><ele>905.1666666666666</ele><time>2026-05-03T10:28:18.13Z</time></trkpt><trkpt lat="44.1698575" lon="8.117805"><ele>901.0</ele><time>2026-05-03T10:28:19.129Z</time></trkpt><trkpt lat="44.1699119" lon="8.1179073"><ele>900.9999999999999</ele><time>2026-05-03T10:28:20.129Z</time></trkpt><trkpt lat="44.1699552" lon="8.1179948"><ele>901.0</ele><time>2026-05-03T10:28:21.13Z</time></trkpt><trkpt lat="44.1700035" lon="8.1181056"><ele>901.0</ele><time>2026-05-03T10:28:22.129Z</time></trkpt><trkpt lat="44.1700449" lon="8.1182088"><ele>901.0</ele><time>2026-05-03T10:28:23.129Z</time></trkpt><trkpt lat="44.1700615" lon="8.1183131"><ele>900.9999999999999</ele><time>2026-05-03T10:28:24.13Z</time></trkpt><trkpt lat="44.1700766" lon="8.118401"><ele>901.0</ele><time>2026-05-03T10:28:25.129Z</time></trkpt><trkpt lat="44.1701204" lon="8.118549"><ele>897.8</ele><time>2026-05-03T10:28:27.129Z</time></trkpt><trkpt lat="44.1702319" lon="8.1186121"><ele>894.5999999999999</ele><time>2026-05-03T10:28:29.129Z</time></trkpt><trkpt lat="44.1703097" lon="8.1186691"><ele>891.4</ele><time>2026-05-03T10:28:30.129Z</time></trkpt><trkpt lat="44.1703582" lon="8.1187369"><ele>888.2</ele><time>2026-05-03T10:28:31.129Z</time></trkpt><trkpt lat="44.1704124" lon="8.1187984"><ele>885.0</ele><time>2026-05-03T10:28:32.13Z</time></trkpt><trkpt lat="44.1705156" lon="8.1189278"><ele>886.4</ele><time>2026-05-03T10:28:34.13Z</time></trkpt><trkpt lat="44.170598" lon="8.1190682"><ele>887.8</ele><time>2026-05-03T10:28:36.129Z</time></trkpt><trkpt lat="44.1706338" lon="8.1191495"><ele>889.2</ele><time>2026-05-03T10:28:37.13Z</time></trkpt><trkpt lat="44.1706703" lon="8.1192349"><ele>890.6</ele><time>2026-05-03T10:28:38.129Z</time></trkpt><trkpt lat="44.1707087" lon="8.1193225"><ele>892.0</ele><time>2026-05-03T10:28:39.13Z</time></trkpt><trkpt lat="44.1707776" lon="8.1194795"><ele>892.0</ele><time>2026-05-03T10:28:41.129Z</time></trkpt><trkpt lat="44.1708283" lon="8.1196294"><ele>892.0</ele><time>2026-05-03T10:28:43.129Z</time></trkpt><trkpt lat="44.1708559" lon="8.1197697"><ele>892.0</ele><time>2026-05-03T10:28:45.129Z</time></trkpt><trkpt lat="44.1709032" lon="8.1199027"><ele>892.0</ele><time>2026-05-03T10:28:47.129Z</time></trkpt><trkpt lat="44.1709674" lon="8.1199945"><ele>892.0</ele><time>2026-05-03T10:28:48.129Z</time></trkpt><trkpt lat="44.1710338" lon="8.1200744"><ele>890.1666666666666</ele><time>2026-05-03T10:28:49.129Z</time></trkpt><trkpt lat="44.171073" lon="8.1201635"><ele>888.3333333333333</ele><time>2026-05-03T10:28:50.129Z</time></trkpt><trkpt lat="44.1711177" lon="8.1202346"><ele>886.5</ele><time>2026-05-03T10:28:51.129Z</time></trkpt><trkpt lat="44.1711766" lon="8.1203328"><ele>884.6666666666667</ele><time>2026-05-03T10:28:52.129Z</time></trkpt><trkpt lat="44.1712213" lon="8.1204076"><ele>882.8333333333334</ele><time>2026-05-03T10:28:53.129Z</time></trkpt><trkpt lat="44.1712739" lon="8.1204633"><ele>881.0</ele><time>2026-05-03T10:28:54.13Z</time></trkpt><trkpt lat="44.1713371" lon="8.1205544"><ele>881.0</ele><time>2026-05-03T10:28:56.129Z</time></trkpt><trkpt lat="44.1714014" lon="8.1206066"><ele>880.9999999999999</ele><time>2026-05-03T10:28:58.13Z</time></trkpt><trkpt lat="44.1714678" lon="8.1206922"><ele>880.9999999999999</ele><time>2026-05-03T10:29:00.13Z</time></trkpt><trkpt lat="44.1715673" lon="8.1207723"><ele>881.0</ele><time>2026-05-03T10:29:02.129Z</time></trkpt><trkpt lat="44.171665" lon="8.1207979"><ele>881.0</ele><time>2026-05-03T10:29:04.129Z</time></trkpt><trkpt lat="44.1717261" lon="8.1208937"><ele>878.8571428571428</ele><time>2026-05-03T10:29:06.129Z</time></trkpt><trkpt lat="44.1717485" lon="8.1209823"><ele>876.7142857142858</ele><time>2026-05-03T10:29:07.129Z</time></trkpt><trkpt lat="44.1717617" lon="8.1210719"><ele>874.5714285714286</ele><time>2026-05-03T10:29:08.13Z</time></trkpt><trkpt lat="44.1717715" lon="8.1211704"><ele>872.4285714285713</ele><time>2026-05-03T10:29:09.129Z</time></trkpt><trkpt lat="44.1718033" lon="8.1212573"><ele>870.2857142857142</ele><time>2026-05-03T10:29:10.129Z</time></trkpt><trkpt lat="44.1718496" lon="8.1213383"><ele>868.1428571428571</ele><time>2026-05-03T10:29:11.129Z</time></trkpt><trkpt lat="44.171899" lon="8.1214302"><ele>866.0</ele><time>2026-05-03T10:29:12.129Z</time></trkpt><trkpt lat="44.1719372" lon="8.1215218"><ele>863.8333333333334</ele><time>2026-05-03T10:29:13.129Z</time></trkpt><trkpt lat="44.1719512" lon="8.1216117"><ele>861.6666666666667</ele><time>2026-05-03T10:29:14.129Z</time></trkpt><trkpt lat="44.1719769" lon="8.1216974"><ele>859.5</ele><time>2026-05-03T10:29:15.129Z</time></trkpt><trkpt lat="44.1720095" lon="8.121774"><ele>857.3333333333333</ele><time>2026-05-03T10:29:16.129Z</time></trkpt><trkpt lat="44.1721063" lon="8.1218436"><ele>855.1666666666666</ele><time>2026-05-03T10:29:18.129Z</time></trkpt><trkpt lat="44.1722025" lon="8.1218495"><ele>853.0</ele><time>2026-05-03T10:29:20.129Z</time></trkpt><trkpt lat="44.1722869" lon="8.1218886"><ele>852.2</ele><time>2026-05-03T10:29:22.129Z</time></trkpt><trkpt lat="44.172388" lon="8.1219046"><ele>851.4</ele><time>2026-05-03T10:29:24.129Z</time></trkpt><trkpt lat="44.1724695" lon="8.121861"><ele>850.6</ele><time>2026-05-03T10:29:26.129Z</time></trkpt><trkpt lat="44.1725006" lon="8.121718"><ele>849.8000000000001</ele><time>2026-05-03T10:29:28.129Z</time></trkpt><trkpt lat="44.1725423" lon="8.1215986"><ele>849.0</ele><time>2026-05-03T10:29:29.129Z</time></trkpt><trkpt lat="44.1726169" lon="8.1214229"><ele>849.0</ele><time>2026-05-03T10:29:31.129Z</time></trkpt><trkpt lat="44.1726515" lon="8.1213049"><ele>849.0</ele><time>2026-05-03T10:29:32.129Z</time></trkpt><trkpt lat="44.1726831" lon="8.1211652"><ele>849.0</ele><time>2026-05-03T10:29:34.129Z</time></trkpt><trkpt lat="44.1726809" lon="8.1210724"><ele>849.0</ele><time>2026-05-03T10:29:35.129Z</time></trkpt><trkpt lat="44.1726824" lon="8.12098"><ele>849.0</ele><time>2026-05-03T10:29:36.13Z</time></trkpt><trkpt lat="44.1727039" lon="8.1208939"><ele>849.0</ele><time>2026-05-03T10:29:37.129Z</time></trkpt><trkpt lat="44.1727594" lon="8.1207742"><ele>851.3333333333334</ele><time>2026-05-03T10:29:39.13Z</time></trkpt><trkpt lat="44.1728109" lon="8.120691"><ele>853.6666666666667</ele><time>2026-05-03T10:29:41.129Z</time></trkpt><trkpt lat="44.1728603" lon="8.1206006"><ele>856.0</ele><time>2026-05-03T10:29:43.13Z</time></trkpt><trkpt lat="44.1729139" lon="8.1204655"><ele>858.3333333333334</ele><time>2026-05-03T10:29:45.129Z</time></trkpt><trkpt lat="44.17298" lon="8.1204247"><ele>860.6666666666667</ele><time>2026-05-03T10:29:46.13Z</time></trkpt><trkpt lat="44.1730339" lon="8.1203655"><ele>863.0</ele><time>2026-05-03T10:29:47.129Z</time></trkpt><trkpt lat="44.1730957" lon="8.1203218"><ele>863.0000000000001</ele><time>2026-05-03T10:29:48.129Z</time></trkpt><trkpt lat="44.173163" lon="8.1202578"><ele>863.0</ele><time>2026-05-03T10:29:49.129Z</time></trkpt><trkpt lat="44.1732112" lon="8.1201853"><ele>863.0</ele><time>2026-05-03T10:29:50.129Z</time></trkpt><trkpt lat="44.1732697" lon="8.120122"><ele>863.0</ele><time>2026-05-03T10:29:51.129Z</time></trkpt><trkpt lat="44.1733208" lon="8.1200541"><ele>863.0000000000001</ele><time>2026-05-03T10:29:52.129Z</time></trkpt><trkpt lat="44.1733774" lon="8.1199837"><ele>863.0</ele><time>2026-05-03T10:29:53.129Z</time></trkpt><trkpt lat="44.173462" lon="8.1198575"><ele>858.3333333333334</ele><time>2026-05-03T10:29:55.129Z</time></trkpt><trkpt lat="44.1735013" lon="8.1197478"><ele>853.6666666666667</ele><time>2026-05-03T10:29:57.129Z</time></trkpt><trkpt lat="44.1735743" lon="8.1196286"><ele>849.0</ele><time>2026-05-03T10:29:59.129Z</time></trkpt><trkpt lat="44.1736248" lon="8.119567"><ele>844.3333333333333</ele><time>2026-05-03T10:30:00.129Z</time></trkpt><trkpt lat="44.1736752" lon="8.1194994"><ele>839.6666666666666</ele><time>2026-05-03T10:30:01.129Z</time></trkpt><trkpt lat="44.1737199" lon="8.1193977"><ele>835.0</ele><time>2026-05-03T10:30:02.129Z</time></trkpt><trkpt lat="44.1737823" lon="8.1193253"><ele>834.9999999999999</ele><time>2026-05-03T10:30:03.129Z</time></trkpt><trkpt lat="44.1738448" lon="8.119236"><ele>835.0</ele><time>2026-05-03T10:30:04.129Z</time></trkpt><trkpt lat="44.1738816" lon="8.1191615"><ele>835.0</ele><time>2026-05-03T10:30:05.13Z</time></trkpt><trkpt lat="44.173922" lon="8.1190708"><ele>835.0</ele><time>2026-05-03T10:30:06.129Z</time></trkpt><trkpt lat="44.1739407" lon="8.1189866"><ele>834.9999999999999</ele><time>2026-05-03T10:30:07.129Z</time></trkpt><trkpt lat="44.1739852" lon="8.1189092"><ele>835.0</ele><time>2026-05-03T10:30:08.13Z</time></trkpt><trkpt lat="44.1740473" lon="8.1187914"><ele>830.6666666666666</ele><time>2026-05-03T10:30:10.13Z</time></trkpt><trkpt lat="44.1740979" lon="8.118695"><ele>826.3333333333333</ele><time>2026-05-03T10:30:13.129Z</time></trkpt><trkpt lat="44.1741247" lon="8.1186023"><ele>822.0</ele><time>2026-05-03T10:30:16.129Z</time></trkpt><trkpt lat="44.174184" lon="8.1185392"><ele>817.6666666666667</ele><time>2026-05-03T10:30:18.129Z</time></trkpt><trkpt lat="44.1742403" lon="8.118481"><ele>813.3333333333334</ele><time>2026-05-03T10:30:20.13Z</time></trkpt><trkpt lat="44.1743144" lon="8.1184576"><ele>809.0</ele><time>2026-05-03T10:30:22.13Z</time></trkpt><trkpt lat="44.1743901" lon="8.1184217"><ele>809.0000000000001</ele><time>2026-05-03T10:30:24.129Z</time></trkpt><trkpt lat="44.1744646" lon="8.1183649"><ele>809.0</ele><time>2026-05-03T10:30:27.129Z</time></trkpt><trkpt lat="44.1745405" lon="8.1183135"><ele>809.0</ele><time>2026-05-03T10:30:30.13Z</time></trkpt><trkpt lat="44.1746142" lon="8.1182457"><ele>809.0</ele><time>2026-05-03T10:30:32.129Z</time></trkpt><trkpt lat="44.1746902" lon="8.118186"><ele>809.0000000000001</ele><time>2026-05-03T10:30:33.129Z</time></trkpt><trkpt lat="44.1747762" lon="8.1181165"><ele>809.0</ele><time>2026-05-03T10:30:35.13Z</time></trkpt><trkpt lat="44.174861" lon="8.1180032"><ele>806.0000000000001</ele><time>2026-05-03T10:30:37.129Z</time></trkpt><trkpt lat="44.174943" lon="8.1179211"><ele>803.0</ele><time>2026-05-03T10:30:39.129Z</time></trkpt><trkpt lat="44.1750404" lon="8.1178172"><ele>800.0</ele><time>2026-05-03T10:30:41.129Z</time></trkpt><trkpt lat="44.1750971" lon="8.1177785"><ele>797.0</ele><time>2026-05-03T10:30:42.129Z</time></trkpt><trkpt lat="44.1751632" lon="8.1177365"><ele>794.0000000000001</ele><time>2026-05-03T10:30:43.129Z</time></trkpt><trkpt lat="44.1752425" lon="8.1176852"><ele>791.0</ele><time>2026-05-03T10:30:44.13Z</time></trkpt><trkpt lat="44.1753261" lon="8.1176268"><ele>791.0000000000001</ele><time>2026-05-03T10:30:45.129Z</time></trkpt><trkpt lat="44.1754072" lon="8.1175672"><ele>791.0</ele><time>2026-05-03T10:30:46.129Z</time></trkpt><trkpt lat="44.1754906" lon="8.1175021"><ele>791.0</ele><time>2026-05-03T10:30:47.129Z</time></trkpt><trkpt lat="44.1755634" lon="8.11744"><ele>791.0</ele><time>2026-05-03T10:30:48.129Z</time></trkpt><trkpt lat="44.1756359" lon="8.1173972"><ele>791.0000000000001</ele><time>2026-05-03T10:30:49.13Z</time></trkpt><trkpt lat="44.1757066" lon="8.1173592"><ele>791.0</ele><time>2026-05-03T10:30:50.129Z</time></trkpt><trkpt lat="44.175778" lon="8.1173328"><ele>788.3333333333334</ele><time>2026-05-03T10:30:51.129Z</time></trkpt><trkpt lat="44.1758579" lon="8.1173165"><ele>785.6666666666667</ele><time>2026-05-03T10:30:52.129Z</time></trkpt><trkpt lat="44.1759213" lon="8.1173071"><ele>783.0</ele><time>2026-05-03T10:30:53.129Z</time></trkpt><trkpt lat="44.1760315" lon="8.1173037"><ele>780.3333333333333</ele><time>2026-05-03T10:30:55.129Z</time></trkpt><trkpt lat="44.176099" lon="8.1173256"><ele>777.6666666666666</ele><time>2026-05-03T10:30:56.13Z</time></trkpt><trkpt lat="44.1761754" lon="8.1173402"><ele>775.0</ele><time>2026-05-03T10:30:57.129Z</time></trkpt><trkpt lat="44.1762492" lon="8.1173204"><ele>775.0</ele><time>2026-05-03T10:30:58.13Z</time></trkpt><trkpt lat="44.1763352" lon="8.117273"><ele>775.0</ele><time>2026-05-03T10:30:59.129Z</time></trkpt><trkpt lat="44.1764316" lon="8.1172044"><ele>775.0</ele><time>2026-05-03T10:31:00.129Z</time></trkpt><trkpt lat="44.1765287" lon="8.1171304"><ele>775.0</ele><time>2026-05-03T10:31:01.129Z</time></trkpt><trkpt lat="44.1766254" lon="8.117057"><ele>775.0</ele><time>2026-05-03T10:31:02.129Z</time></trkpt><trkpt lat="44.1767191" lon="8.1169887"><ele>773.8</ele><time>2026-05-03T10:31:03.129Z</time></trkpt><trkpt lat="44.1768087" lon="8.1169365"><ele>772.6</ele><time>2026-05-03T10:31:04.129Z</time></trkpt><trkpt lat="44.1769003" lon="8.1168872"><ele>771.4000000000001</ele><time>2026-05-03T10:31:05.129Z</time></trkpt><trkpt lat="44.1769995" lon="8.1168519"><ele>770.2</ele><time>2026-05-03T10:31:06.129Z</time></trkpt><trkpt lat="44.1771065" lon="8.1168298"><ele>769.0</ele><time>2026-05-03T10:31:07.129Z</time></trkpt><trkpt lat="44.1772074" lon="8.1167908"><ele>769.0</ele><time>2026-05-03T10:31:08.129Z</time></trkpt><trkpt lat="44.1772927" lon="8.1167447"><ele>769.0</ele><time>2026-05-03T10:31:09.13Z</time></trkpt><trkpt lat="44.1773621" lon="8.1166809"><ele>769.0</ele><time>2026-05-03T10:31:10.129Z</time></trkpt><trkpt lat="44.1774669" lon="8.1166024"><ele>769.0</ele><time>2026-05-03T10:31:12.129Z</time></trkpt><trkpt lat="44.1775399" lon="8.1165797"><ele>769.0</ele><time>2026-05-03T10:31:13.129Z</time></trkpt><trkpt lat="44.1776217" lon="8.1165679"><ele>768.2</ele><time>2026-05-03T10:31:14.13Z</time></trkpt><trkpt lat="44.1777206" lon="8.1165751"><ele>767.4000000000001</ele><time>2026-05-03T10:31:15.13Z</time></trkpt><trkpt lat="44.1778066" lon="8.1165896"><ele>766.6</ele><time>2026-05-03T10:31:16.13Z</time></trkpt><trkpt lat="44.1778813" lon="8.1166036"><ele>765.8</ele><time>2026-05-03T10:31:17.129Z</time></trkpt><trkpt lat="44.1779438" lon="8.1166232"><ele>765.0</ele><time>2026-05-03T10:31:18.129Z</time></trkpt><trkpt lat="44.1780904" lon="8.1166245"><ele>765.0</ele><time>2026-05-03T10:31:20.13Z</time></trkpt><trkpt lat="44.1781772" lon="8.1166343"><ele>765.0</ele><time>2026-05-03T10:31:21.129Z</time></trkpt><trkpt lat="44.1783192" lon="8.1166777"><ele>765.0</ele><time>2026-05-03T10:31:23.129Z</time></trkpt><trkpt lat="44.1784093" lon="8.1167123"><ele>765.0</ele><time>2026-05-03T10:31:24.129Z</time></trkpt><trkpt lat="44.1784997" lon="8.1167372"><ele>765.0</ele><time>2026-05-03T10:31:25.129Z</time></trkpt><trkpt lat="44.1785659" lon="8.1167923"><ele>765.0</ele><time>2026-05-03T10:31:26.129Z</time></trkpt><trkpt lat="44.1786578" lon="8.1168696"><ele>765.0</ele><time>2026-05-03T10:31:27.129Z</time></trkpt><trkpt lat="44.1787493" lon="8.1169296"><ele>765.0</ele><time>2026-05-03T10:31:28.13Z</time></trkpt><trkpt lat="44.1788239" lon="8.1170219"><ele>765.0</ele><time>2026-05-03T10:31:29.129Z</time></trkpt><trkpt lat="44.1789027" lon="8.1171285"><ele>765.0</ele><time>2026-05-03T10:31:30.129Z</time></trkpt><trkpt lat="44.1789663" lon="8.1172252"><ele>765.0</ele><time>2026-05-03T10:31:31.129Z</time></trkpt><trkpt lat="44.1790123" lon="8.1173212"><ele>765.0</ele><time>2026-05-03T10:31:32.13Z</time></trkpt><trkpt lat="44.1790735" lon="8.1174367"><ele>765.0</ele><time>2026-05-03T10:31:33.129Z</time></trkpt><trkpt lat="44.179136" lon="8.1175169"><ele>765.0</ele><time>2026-05-03T10:31:34.129Z</time></trkpt><trkpt lat="44.179218" lon="8.1175811"><ele>765.0</ele><time>2026-05-03T10:31:35.13Z</time></trkpt><trkpt lat="44.1793101" lon="8.1175882"><ele>762.6666666666666</ele><time>2026-05-03T10:31:36.129Z</time></trkpt><trkpt lat="44.1793866" lon="8.1176035"><ele>760.3333333333334</ele><time>2026-05-03T10:31:37.129Z</time></trkpt><trkpt lat="44.1794769" lon="8.1175758"><ele>758.0</ele><time>2026-05-03T10:31:38.129Z</time></trkpt><trkpt lat="44.1795576" lon="8.1175719"><ele>755.6666666666667</ele><time>2026-05-03T10:31:39.129Z</time></trkpt><trkpt lat="44.1796516" lon="8.1175911"><ele>753.3333333333334</ele><time>2026-05-03T10:31:40.129Z</time></trkpt><trkpt lat="44.1797447" lon="8.1176107"><ele>751.0</ele><time>2026-05-03T10:31:41.129Z</time></trkpt><trkpt lat="44.1798339" lon="8.1176472"><ele>752.75</ele><time>2026-05-03T10:31:42.129Z</time></trkpt><trkpt lat="44.1799172" lon="8.1177012"><ele>754.5</ele><time>2026-05-03T10:31:43.129Z</time></trkpt><trkpt lat="44.18002" lon="8.1177622"><ele>756.25</ele><time>2026-05-03T10:31:44.129Z</time></trkpt><trkpt lat="44.1801357" lon="8.1178235"><ele>758.0</ele><time>2026-05-03T10:31:45.129Z</time></trkpt><trkpt lat="44.1802571" lon="8.1178843"><ele>758.0</ele><time>2026-05-03T10:31:46.129Z</time></trkpt><trkpt lat="44.1803543" lon="8.1179612"><ele>758.0</ele><time>2026-05-03T10:31:47.129Z</time></trkpt><trkpt lat="44.1804694" lon="8.1180399"><ele>758.0</ele><time>2026-05-03T10:31:48.129Z</time></trkpt><trkpt lat="44.1805781" lon="8.1181243"><ele>758.0</ele><time>2026-05-03T10:31:49.13Z</time></trkpt><trkpt lat="44.1806905" lon="8.1181841"><ele>754.75</ele><time>2026-05-03T10:31:50.129Z</time></trkpt><trkpt lat="44.1807967" lon="8.1182598"><ele>751.5</ele><time>2026-05-03T10:31:51.129Z</time></trkpt><trkpt lat="44.1809021" lon="8.118323"><ele>748.25</ele><time>2026-05-03T10:31:52.129Z</time></trkpt><trkpt lat="44.1810036" lon="8.1183747"><ele>745.0</ele><time>2026-05-03T10:31:53.129Z</time></trkpt><trkpt lat="44.1811096" lon="8.1184131"><ele>745.0</ele><time>2026-05-03T10:31:54.129Z</time></trkpt><trkpt lat="44.181207" lon="8.1184605"><ele>745.0</ele><time>2026-05-03T10:31:55.13Z</time></trkpt><trkpt lat="44.1813031" lon="8.1184978"><ele>745.0</ele><time>2026-05-03T10:31:56.13Z</time></trkpt><trkpt lat="44.1814069" lon="8.1185563"><ele>745.0</ele><time>2026-05-03T10:31:57.129Z</time></trkpt><trkpt lat="44.1814899" lon="8.1186215"><ele>745.0</ele><time>2026-05-03T10:31:58.13Z</time></trkpt><trkpt lat="44.1815655" lon="8.1187045"><ele>742.8</ele><time>2026-05-03T10:31:59.129Z</time></trkpt><trkpt lat="44.1816517" lon="8.1187782"><ele>740.6</ele><time>2026-05-03T10:32:00.129Z</time></trkpt><trkpt lat="44.1817508" lon="8.1188705"><ele>738.4000000000001</ele><time>2026-05-03T10:32:01.129Z</time></trkpt><trkpt lat="44.1818532" lon="8.1189542"><ele>736.2</ele><time>2026-05-03T10:32:02.129Z</time></trkpt><trkpt lat="44.1819422" lon="8.1190378"><ele>734.0</ele><time>2026-05-03T10:32:03.129Z</time></trkpt><trkpt lat="44.1820462" lon="8.1191115"><ele>734.0</ele><time>2026-05-03T10:32:04.129Z</time></trkpt><trkpt lat="44.1821417" lon="8.1191852"><ele>734.0</ele><time>2026-05-03T10:32:05.13Z</time></trkpt><trkpt lat="44.1822543" lon="8.1192376"><ele>734.0</ele><time>2026-05-03T10:32:06.129Z</time></trkpt><trkpt lat="44.1823729" lon="8.1192866"><ele>734.0</ele><time>2026-05-03T10:32:07.129Z</time></trkpt><trkpt lat="44.1824731" lon="8.1193398"><ele>737.0</ele><time>2026-05-03T10:32:08.129Z</time></trkpt><trkpt lat="44.1825809" lon="8.1194045"><ele>740.0</ele><time>2026-05-03T10:32:09.13Z</time></trkpt><trkpt lat="44.1826864" lon="8.119465"><ele>743.0</ele><time>2026-05-03T10:32:10.129Z</time></trkpt><trkpt lat="44.1827828" lon="8.1195316"><ele>746.0</ele><time>2026-05-03T10:32:11.129Z</time></trkpt><trkpt lat="44.1828919" lon="8.1195947"><ele>746.0</ele><time>2026-05-03T10:32:12.129Z</time></trkpt><trkpt lat="44.1830166" lon="8.1196597"><ele>746.0</ele><time>2026-05-03T10:32:13.129Z</time></trkpt><trkpt lat="44.1831342" lon="8.1197045"><ele>746.0</ele><time>2026-05-03T10:32:14.129Z</time></trkpt><trkpt lat="44.1832504" lon="8.1197665"><ele>746.0</ele><time>2026-05-03T10:32:15.129Z</time></trkpt><trkpt lat="44.1833631" lon="8.1198229"><ele>743.0</ele><time>2026-05-03T10:32:16.129Z</time></trkpt><trkpt lat="44.1834726" lon="8.119894"><ele>740.0</ele><time>2026-05-03T10:32:17.13Z</time></trkpt><trkpt lat="44.1835851" lon="8.1199547"><ele>737.0</ele><time>2026-05-03T10:32:18.129Z</time></trkpt><trkpt lat="44.183703" lon="8.1200263"><ele>734.0</ele><time>2026-05-03T10:32:19.129Z</time></trkpt><trkpt lat="44.1838136" lon="8.1201132"><ele>734.0</ele><time>2026-05-03T10:32:20.13Z</time></trkpt><trkpt lat="44.1838966" lon="8.1201805"><ele>734.0</ele><time>2026-05-03T10:32:21.13Z</time></trkpt><trkpt lat="44.1840153" lon="8.1202565"><ele>734.0</ele><time>2026-05-03T10:32:22.129Z</time></trkpt><trkpt lat="44.1841283" lon="8.120342"><ele>734.0</ele><time>2026-05-03T10:32:23.129Z</time></trkpt><trkpt lat="44.1842305" lon="8.1204194"><ele>737.5</ele><time>2026-05-03T10:32:24.129Z</time></trkpt><trkpt lat="44.1843326" lon="8.1204887"><ele>741.0</ele><time>2026-05-03T10:32:25.129Z</time></trkpt><trkpt lat="44.1844384" lon="8.1205497"><ele>744.5</ele><time>2026-05-03T10:32:26.13Z</time></trkpt><trkpt lat="44.1845507" lon="8.1206052"><ele>748.0</ele><time>2026-05-03T10:32:27.129Z</time></trkpt><trkpt lat="44.1846673" lon="8.1206596"><ele>748.0</ele><time>2026-05-03T10:32:28.129Z</time></trkpt><trkpt lat="44.1847691" lon="8.1206917"><ele>748.0</ele><time>2026-05-03T10:32:29.129Z</time></trkpt><trkpt lat="44.1848725" lon="8.1207468"><ele>748.0</ele><time>2026-05-03T10:32:30.129Z</time></trkpt><trkpt lat="44.1849772" lon="8.1208135"><ele>748.0</ele><time>2026-05-03T10:32:31.129Z</time></trkpt><trkpt lat="44.1850739" lon="8.1208933"><ele>748.0</ele><time>2026-05-03T10:32:32.129Z</time></trkpt><trkpt lat="44.1851681" lon="8.1209665"><ele>745.5999999999999</ele><time>2026-05-03T10:32:33.13Z</time></trkpt><trkpt lat="44.1852317" lon="8.1210503"><ele>743.1999999999999</ele><time>2026-05-03T10:32:34.129Z</time></trkpt><trkpt lat="44.1852904" lon="8.1211772"><ele>740.8</ele><time>2026-05-03T10:32:35.129Z</time></trkpt><trkpt lat="44.185349" lon="8.1213062"><ele>738.4</ele><time>2026-05-03T10:32:36.129Z</time></trkpt><trkpt lat="44.1854069" lon="8.1214348"><ele>736.0</ele><time>2026-05-03T10:32:37.129Z</time></trkpt><trkpt lat="44.185474" lon="8.1215408"><ele>734.5999999999999</ele><time>2026-05-03T10:32:38.129Z</time></trkpt><trkpt lat="44.1855509" lon="8.1216462"><ele>733.2</ele><time>2026-05-03T10:32:39.129Z</time></trkpt><trkpt lat="44.1856264" lon="8.1217389"><ele>731.8</ele><time>2026-05-03T10:32:40.129Z</time></trkpt><trkpt lat="44.1856842" lon="8.1218304"><ele>730.4000000000001</ele><time>2026-05-03T10:32:41.13Z</time></trkpt><trkpt lat="44.1857283" lon="8.1219274"><ele>729.0</ele><time>2026-05-03T10:32:42.129Z</time></trkpt><trkpt lat="44.1857477" lon="8.1220318"><ele>729.0</ele><time>2026-05-03T10:32:43.129Z</time></trkpt><trkpt lat="44.1857447" lon="8.1221709"><ele>729.0</ele><time>2026-05-03T10:32:44.129Z</time></trkpt><trkpt lat="44.1857249" lon="8.1223017"><ele>729.0</ele><time>2026-05-03T10:32:45.129Z</time></trkpt><trkpt lat="44.1857075" lon="8.1224496"><ele>729.0</ele><time>2026-05-03T10:32:46.129Z</time></trkpt><trkpt lat="44.1856791" lon="8.1225964"><ele>729.0</ele><time>2026-05-03T10:32:47.129Z</time></trkpt><trkpt lat="44.1856647" lon="8.1227271"><ele>728.4000000000001</ele><time>2026-05-03T10:32:48.13Z</time></trkpt><trkpt lat="44.1856736" lon="8.1228582"><ele>727.8</ele><time>2026-05-03T10:32:49.129Z</time></trkpt><trkpt lat="44.1856923" lon="8.1230074"><ele>727.2</ele><time>2026-05-03T10:32:50.129Z</time></trkpt><trkpt lat="44.185719" lon="8.1231415"><ele>726.5999999999999</ele><time>2026-05-03T10:32:51.129Z</time></trkpt><trkpt lat="44.1857498" lon="8.1232976"><ele>726.0</ele><time>2026-05-03T10:32:52.13Z</time></trkpt><trkpt lat="44.1857986" lon="8.1234486"><ele>725.5</ele><time>2026-05-03T10:32:53.129Z</time></trkpt><trkpt lat="44.1858508" lon="8.1235963"><ele>725.0</ele><time>2026-05-03T10:32:54.129Z</time></trkpt><trkpt lat="44.1858961" lon="8.1237445"><ele>724.5</ele><time>2026-05-03T10:32:55.129Z</time></trkpt><trkpt lat="44.1859362" lon="8.1239072"><ele>724.0</ele><time>2026-05-03T10:32:56.129Z</time></trkpt><trkpt lat="44.1859689" lon="8.1240746"><ele>726.0</ele><time>2026-05-03T10:32:57.129Z</time></trkpt><trkpt lat="44.1859928" lon="8.1242467"><ele>728.0</ele><time>2026-05-03T10:32:58.13Z</time></trkpt><trkpt lat="44.1860234" lon="8.1244173"><ele>730.0</ele><time>2026-05-03T10:32:59.129Z</time></trkpt><trkpt lat="44.1860619" lon="8.1245714"><ele>732.0</ele><time>2026-05-03T10:33:00.129Z</time></trkpt><trkpt lat="44.1861143" lon="8.1247263"><ele>732.0</ele><time>2026-05-03T10:33:01.129Z</time></trkpt><trkpt lat="44.1861704" lon="8.1248719"><ele>732.0</ele><time>2026-05-03T10:33:02.129Z</time></trkpt><trkpt lat="44.1862345" lon="8.1250134"><ele>732.0</ele><time>2026-05-03T10:33:03.13Z</time></trkpt><trkpt lat="44.186298" lon="8.1251603"><ele>732.0</ele><time>2026-05-03T10:33:04.129Z</time></trkpt><trkpt lat="44.1863524" lon="8.1253266"><ele>733.5</ele><time>2026-05-03T10:33:05.129Z</time></trkpt><trkpt lat="44.1864023" lon="8.1255019"><ele>735.0</ele><time>2026-05-03T10:33:06.129Z</time></trkpt><trkpt lat="44.1864439" lon="8.125677"><ele>736.5</ele><time>2026-05-03T10:33:07.129Z</time></trkpt><trkpt lat="44.1864912" lon="8.1258519"><ele>738.0</ele><time>2026-05-03T10:33:08.129Z</time></trkpt><trkpt lat="44.1865515" lon="8.1260185"><ele>731.25</ele><time>2026-05-03T10:33:09.129Z</time></trkpt><trkpt lat="44.1866226" lon="8.1261811"><ele>724.5</ele><time>2026-05-03T10:33:10.129Z</time></trkpt><trkpt lat="44.1867023" lon="8.1263467"><ele>717.75</ele><time>2026-05-03T10:33:11.13Z</time></trkpt><trkpt lat="44.1867917" lon="8.1265042"><ele>711.0</ele><time>2026-05-03T10:33:12.129Z</time></trkpt><trkpt lat="44.1868892" lon="8.126654"><ele>710.75</ele><time>2026-05-03T10:33:13.129Z</time></trkpt><trkpt lat="44.1869982" lon="8.1268055"><ele>710.5</ele><time>2026-05-03T10:33:14.129Z</time></trkpt><trkpt lat="44.1871078" lon="8.12695"><ele>710.25</ele><time>2026-05-03T10:33:15.129Z</time></trkpt><trkpt lat="44.1872001" lon="8.1270849"><ele>710.0</ele><time>2026-05-03T10:33:16.129Z</time></trkpt><trkpt lat="44.1872841" lon="8.1272083"><ele>708.2</ele><time>2026-05-03T10:33:17.129Z</time></trkpt><trkpt lat="44.1873469" lon="8.1273186"><ele>706.4</ele><time>2026-05-03T10:33:18.129Z</time></trkpt><trkpt lat="44.1873906" lon="8.1274336"><ele>704.5999999999999</ele><time>2026-05-03T10:33:19.129Z</time></trkpt><trkpt lat="44.1874352" lon="8.1275637"><ele>702.8</ele><time>2026-05-03T10:33:20.129Z</time></trkpt><trkpt lat="44.1874833" lon="8.1276994"><ele>701.0</ele><time>2026-05-03T10:33:21.129Z</time></trkpt><trkpt lat="44.1875275" lon="8.1278379"><ele>701.0</ele><time>2026-05-03T10:33:22.129Z</time></trkpt><trkpt lat="44.1875745" lon="8.1279835"><ele>701.0</ele><time>2026-05-03T10:33:23.129Z</time></trkpt><trkpt lat="44.1876254" lon="8.1281191"><ele>701.0</ele><time>2026-05-03T10:33:24.13Z</time></trkpt><trkpt lat="44.1876722" lon="8.1282422"><ele>701.0</ele><time>2026-05-03T10:33:25.129Z</time></trkpt><trkpt lat="44.1877192" lon="8.1283606"><ele>701.0</ele><time>2026-05-03T10:33:26.129Z</time></trkpt><trkpt lat="44.1877783" lon="8.1284773"><ele>701.0</ele><time>2026-05-03T10:33:27.13Z</time></trkpt><trkpt lat="44.1878539" lon="8.1285792"><ele>701.0</ele><time>2026-05-03T10:33:28.129Z</time></trkpt><trkpt lat="44.187927" lon="8.128667"><ele>701.0</ele><time>2026-05-03T10:33:29.129Z</time></trkpt><trkpt lat="44.1879845" lon="8.1287607"><ele>701.0</ele><time>2026-05-03T10:33:30.129Z</time></trkpt><trkpt lat="44.1880218" lon="8.1288642"><ele>701.0</ele><time>2026-05-03T10:33:31.129Z</time></trkpt><trkpt lat="44.1880376" lon="8.1290108"><ele>701.4</ele><time>2026-05-03T10:33:33.129Z</time></trkpt><trkpt lat="44.1880589" lon="8.1291134"><ele>701.8</ele><time>2026-05-03T10:35:20.129Z</time></trkpt><trkpt lat="44.1881435" lon="8.1292447"><ele>702.1999999999999</ele><time>2026-05-03T10:35:22.129Z</time></trkpt><trkpt lat="44.1882684" lon="8.1292268"><ele>702.5999999999999</ele><time>2026-05-03T10:35:24.129Z</time></trkpt><trkpt lat="44.1883581" lon="8.1291418"><ele>703.0</ele><time>2026-05-03T10:35:25.129Z</time></trkpt><trkpt lat="44.1884737" lon="8.1290775"><ele>702.75</ele><time>2026-05-03T10:35:26.129Z</time></trkpt><trkpt lat="44.1886072" lon="8.1290292"><ele>702.5</ele><time>2026-05-03T10:35:27.129Z</time></trkpt><trkpt lat="44.188744" lon="8.1289823"><ele>702.25</ele><time>2026-05-03T10:35:28.129Z</time></trkpt><trkpt lat="44.1889081" lon="8.1289434"><ele>702.0</ele><time>2026-05-03T10:35:29.13Z</time></trkpt><trkpt lat="44.18908" lon="8.1289021"><ele>701.6666666666666</ele><time>2026-05-03T10:35:30.129Z</time></trkpt><trkpt lat="44.1892425" lon="8.1288609"><ele>701.3333333333333</ele><time>2026-05-03T10:35:31.129Z</time></trkpt><trkpt lat="44.1894221" lon="8.128814"><ele>701.0</ele><time>2026-05-03T10:35:32.129Z</time></trkpt><trkpt lat="44.189601" lon="8.1287584"><ele>701.0</ele><time>2026-05-03T10:35:33.129Z</time></trkpt><trkpt lat="44.1897741" lon="8.1287178"><ele>701.0</ele><time>2026-05-03T10:35:34.129Z</time></trkpt><trkpt lat="44.1899394" lon="8.1286784"><ele>701.0</ele><time>2026-05-03T10:35:35.129Z</time></trkpt><trkpt lat="44.190093" lon="8.1286439"><ele>701.3333333333333</ele><time>2026-05-03T10:35:36.129Z</time></trkpt><trkpt lat="44.1902502" lon="8.1286108"><ele>701.6666666666666</ele><time>2026-05-03T10:35:37.129Z</time></trkpt><trkpt lat="44.1903992" lon="8.1285781"><ele>702.0</ele><time>2026-05-03T10:35:38.129Z</time></trkpt><trkpt lat="44.1905501" lon="8.1285353"><ele>702.25</ele><time>2026-05-03T10:35:39.129Z</time></trkpt><trkpt lat="44.1906957" lon="8.1284751"><ele>702.5</ele><time>2026-05-03T10:35:40.129Z</time></trkpt><trkpt lat="44.1908337" lon="8.1283946"><ele>702.75</ele><time>2026-05-03T10:35:41.129Z</time></trkpt><trkpt lat="44.1909582" lon="8.1283023"><ele>703.0</ele><time>2026-05-03T10:35:42.13Z</time></trkpt><trkpt lat="44.1910742" lon="8.1282081"><ele>702.25</ele><time>2026-05-03T10:35:43.129Z</time></trkpt><trkpt lat="44.191187" lon="8.1281207"><ele>701.5</ele><time>2026-05-03T10:35:44.13Z</time></trkpt><trkpt lat="44.1912895" lon="8.1280358"><ele>700.75</ele><time>2026-05-03T10:35:45.129Z</time></trkpt><trkpt lat="44.1913876" lon="8.1279521"><ele>700.0</ele><time>2026-05-03T10:35:46.129Z</time></trkpt><trkpt lat="44.1914841" lon="8.127871"><ele>701.5</ele><time>2026-05-03T10:35:47.129Z</time></trkpt><trkpt lat="44.1917181" lon="8.1276565"><ele>703.0</ele><time>2026-05-03T10:35:50.035Z</time></trkpt><trkpt lat="44.191874" lon="8.1275177"><ele>701.6666666666667</ele><time>2026-05-03T10:35:51.13Z</time></trkpt><trkpt lat="44.1920792" lon="8.1273135"><ele>700.3333333333334</ele><time>2026-05-03T10:35:53.13Z</time></trkpt><trkpt lat="44.1921778" lon="8.1272074"><ele>699.0</ele><time>2026-05-03T10:35:54.13Z</time></trkpt><trkpt lat="44.1922842" lon="8.1271016"><ele>699.75</ele><time>2026-05-03T10:35:55.131Z</time></trkpt><trkpt lat="44.1924049" lon="8.1270205"><ele>700.5</ele><time>2026-05-03T10:35:56.13Z</time></trkpt><trkpt lat="44.1925304" lon="8.1269372"><ele>701.25</ele><time>2026-05-03T10:35:57.13Z</time></trkpt><trkpt lat="44.1926686" lon="8.1268737"><ele>702.0</ele><time>2026-05-03T10:35:58.13Z</time></trkpt><trkpt lat="44.1928017" lon="8.1267984"><ele>702.0</ele><time>2026-05-03T10:35:59.13Z</time></trkpt><trkpt lat="44.1929278" lon="8.1267155"><ele>702.0</ele><time>2026-05-03T10:36:00.13Z</time></trkpt><trkpt lat="44.1930462" lon="8.1266306"><ele>702.0</ele><time>2026-05-03T10:36:01.13Z</time></trkpt><trkpt lat="44.1931618" lon="8.1265564"><ele>702.0</ele><time>2026-05-03T10:36:02.13Z</time></trkpt><trkpt lat="44.1932768" lon="8.1265172"><ele>703.0</ele><time>2026-05-03T10:36:03.13Z</time></trkpt><trkpt lat="44.1934017" lon="8.126531"><ele>704.0</ele><time>2026-05-03T10:36:04.131Z</time></trkpt><trkpt lat="44.1935242" lon="8.1265879"><ele>705.0</ele><time>2026-05-03T10:36:05.13Z</time></trkpt><trkpt lat="44.1936509" lon="8.1266601"><ele>706.0</ele><time>2026-05-03T10:36:06.13Z</time></trkpt><trkpt lat="44.1937805" lon="8.1267413"><ele>706.0</ele><time>2026-05-03T10:36:07.13Z</time></trkpt><trkpt lat="44.1939093" lon="8.1268154"><ele>706.0</ele><time>2026-05-03T10:36:08.131Z</time></trkpt><trkpt lat="44.1940397" lon="8.1268912"><ele>706.0</ele><time>2026-05-03T10:36:09.131Z</time></trkpt><trkpt lat="44.1941673" lon="8.1269523"><ele>706.0</ele><time>2026-05-03T10:36:10.13Z</time></trkpt><trkpt lat="44.1942908" lon="8.1270084"><ele>705.5</ele><time>2026-05-03T10:36:11.13Z</time></trkpt><trkpt lat="44.1944151" lon="8.1270515"><ele>705.0</ele><time>2026-05-03T10:36:12.131Z</time></trkpt><trkpt lat="44.1945357" lon="8.1270816"><ele>704.5</ele><time>2026-05-03T10:36:13.13Z</time></trkpt><trkpt lat="44.1946499" lon="8.1271038"><ele>704.0</ele><time>2026-05-03T10:36:14.13Z</time></trkpt><trkpt lat="44.1947633" lon="8.127112"><ele>702.8000000000001</ele><time>2026-05-03T10:36:15.13Z</time></trkpt><trkpt lat="44.1948742" lon="8.1271086"><ele>701.6</ele><time>2026-05-03T10:36:16.131Z</time></trkpt><trkpt lat="44.1949778" lon="8.1270861"><ele>700.4</ele><time>2026-05-03T10:36:17.13Z</time></trkpt><trkpt lat="44.1950682" lon="8.1270595"><ele>699.2</ele><time>2026-05-03T10:36:18.131Z</time></trkpt><trkpt lat="44.1951477" lon="8.1270175"><ele>698.0</ele><time>2026-05-03T10:36:19.13Z</time></trkpt><trkpt lat="44.1952122" lon="8.1269685"><ele>698.0</ele><time>2026-05-03T10:36:20.131Z</time></trkpt><trkpt lat="44.1952705" lon="8.1269339"><ele>698.0</ele><time>2026-05-03T10:36:21.13Z</time></trkpt><trkpt lat="44.1953456" lon="8.1268908"><ele>698.0</ele><time>2026-05-03T10:36:23.13Z</time></trkpt><trkpt lat="44.1953916" lon="8.1268229"><ele>698.0</ele><time>2026-05-03T10:37:03.131Z</time></trkpt><trkpt lat="44.1955077" lon="8.1266964"><ele>698.0</ele><time>2026-05-03T10:37:05.132Z</time></trkpt><trkpt lat="44.1955899" lon="8.1266207"><ele>696.75</ele><time>2026-05-03T10:37:06.131Z</time></trkpt><trkpt lat="44.195686" lon="8.12653"><ele>695.5</ele><time>2026-05-03T10:37:07.13Z</time></trkpt><trkpt lat="44.1958025" lon="8.1264562"><ele>694.25</ele><time>2026-05-03T10:37:08.13Z</time></trkpt><trkpt lat="44.1959408" lon="8.1263902"><ele>693.0</ele><time>2026-05-03T10:37:09.131Z</time></trkpt><trkpt lat="44.1960949" lon="8.1263284"><ele>693.0</ele><time>2026-05-03T10:37:10.13Z</time></trkpt><trkpt lat="44.196267" lon="8.126264"><ele>693.0</ele><time>2026-05-03T10:37:11.13Z</time></trkpt><trkpt lat="44.1964543" lon="8.1261965"><ele>693.0</ele><time>2026-05-03T10:37:12.13Z</time></trkpt><trkpt lat="44.1966509" lon="8.1261221"><ele>692.3333333333334</ele><time>2026-05-03T10:37:13.13Z</time></trkpt><trkpt lat="44.1968496" lon="8.126051"><ele>691.6666666666667</ele><time>2026-05-03T10:37:14.131Z</time></trkpt><trkpt lat="44.1970634" lon="8.1259807"><ele>691.0</ele><time>2026-05-03T10:37:15.13Z</time></trkpt><trkpt lat="44.19729" lon="8.1259053"><ele>690.5</ele><time>2026-05-03T10:37:16.13Z</time></trkpt><trkpt lat="44.1975166" lon="8.1258123"><ele>690.0</ele><time>2026-05-03T10:37:17.13Z</time></trkpt><trkpt lat="44.1977355" lon="8.1256942"><ele>690.0</ele><time>2026-05-03T10:37:18.131Z</time></trkpt><trkpt lat="44.1979573" lon="8.1255491"><ele>690.0</ele><time>2026-05-03T10:37:19.13Z</time></trkpt><trkpt lat="44.1981883" lon="8.1254137"><ele>691.0</ele><time>2026-05-03T10:37:20.131Z</time></trkpt><trkpt lat="44.1984205" lon="8.1252741"><ele>692.0</ele><time>2026-05-03T10:37:21.13Z</time></trkpt><trkpt lat="44.1986633" lon="8.1251249"><ele>692.0</ele><time>2026-05-03T10:37:22.13Z</time></trkpt><trkpt lat="44.1989018" lon="8.1249788"><ele>692.0</ele><time>2026-05-03T10:37:23.131Z</time></trkpt><trkpt lat="44.1991199" lon="8.124841"><ele>689.5</ele><time>2026-05-03T10:37:24.13Z</time></trkpt><trkpt lat="44.1993288" lon="8.1246922"><ele>687.0</ele><time>2026-05-03T10:37:25.13Z</time></trkpt><trkpt lat="44.1995284" lon="8.1245539"><ele>687.0</ele><time>2026-05-03T10:37:26.13Z</time></trkpt><trkpt lat="44.199717" lon="8.1244031"><ele>687.0</ele><time>2026-05-03T10:37:27.13Z</time></trkpt><trkpt lat="44.1998978" lon="8.1242482"><ele>687.0</ele><time>2026-05-03T10:37:28.13Z</time></trkpt><trkpt lat="44.2000767" lon="8.1240953"><ele>686.6666666666666</ele><time>2026-05-03T10:37:29.131Z</time></trkpt><trkpt lat="44.2002476" lon="8.1239461"><ele>686.3333333333333</ele><time>2026-05-03T10:37:30.13Z</time></trkpt><trkpt lat="44.2004112" lon="8.1237972"><ele>686.0</ele><time>2026-05-03T10:37:31.13Z</time></trkpt><trkpt lat="44.2005792" lon="8.1236579"><ele>687.0</ele><time>2026-05-03T10:37:32.13Z</time></trkpt><trkpt lat="44.2007447" lon="8.1235166"><ele>688.0</ele><time>2026-05-03T10:37:33.13Z</time></trkpt><trkpt lat="44.2009026" lon="8.1233793"><ele>689.0</ele><time>2026-05-03T10:37:34.13Z</time></trkpt><trkpt lat="44.2010679" lon="8.1232418"><ele>689.0</ele><time>2026-05-03T10:37:35.13Z</time></trkpt><trkpt lat="44.2012362" lon="8.123114"><ele>689.0</ele><time>2026-05-03T10:37:36.13Z</time></trkpt><trkpt lat="44.201396" lon="8.1229853"><ele>689.0</ele><time>2026-05-03T10:37:37.132Z</time></trkpt><trkpt lat="44.2015527" lon="8.1228587"><ele>689.0</ele><time>2026-05-03T10:37:38.13Z</time></trkpt><trkpt lat="44.2017038" lon="8.1227241"><ele>689.0</ele><time>2026-05-03T10:37:39.131Z</time></trkpt><trkpt lat="44.2018337" lon="8.1225625"><ele>689.0</ele><time>2026-05-03T10:37:40.131Z</time></trkpt><trkpt lat="44.2019552" lon="8.1223986"><ele>687.6666666666666</ele><time>2026-05-03T10:37:41.13Z</time></trkpt><trkpt lat="44.202064" lon="8.1222136"><ele>686.3333333333334</ele><time>2026-05-03T10:37:42.13Z</time></trkpt><trkpt lat="44.2021538" lon="8.1220204"><ele>685.0</ele><time>2026-05-03T10:37:43.13Z</time></trkpt><trkpt lat="44.2022206" lon="8.121817"><ele>685.0</ele><time>2026-05-03T10:37:44.13Z</time></trkpt><trkpt lat="44.2022674" lon="8.1216007"><ele>685.0</ele><time>2026-05-03T10:37:45.131Z</time></trkpt><trkpt lat="44.2023043" lon="8.1213796"><ele>685.0</ele><time>2026-05-03T10:37:46.13Z</time></trkpt><trkpt lat="44.2023366" lon="8.1211658"><ele>686.3333333333334</ele><time>2026-05-03T10:37:47.13Z</time></trkpt><trkpt lat="44.2023682" lon="8.1209568"><ele>687.6666666666666</ele><time>2026-05-03T10:37:48.13Z</time></trkpt><trkpt lat="44.2024101" lon="8.1207535"><ele>689.0</ele><time>2026-05-03T10:37:49.13Z</time></trkpt><trkpt lat="44.2024649" lon="8.1205553"><ele>689.0</ele><time>2026-05-03T10:37:50.13Z</time></trkpt><trkpt lat="44.2025376" lon="8.1203727"><ele>689.0</ele><time>2026-05-03T10:37:51.131Z</time></trkpt><trkpt lat="44.2026216" lon="8.1202155"><ele>689.0</ele><time>2026-05-03T10:37:52.13Z</time></trkpt><trkpt lat="44.2027085" lon="8.1200786"><ele>689.0</ele><time>2026-05-03T10:37:53.13Z</time></trkpt><trkpt lat="44.2027957" lon="8.1199541"><ele>687.75</ele><time>2026-05-03T10:37:54.13Z</time></trkpt><trkpt lat="44.2028663" lon="8.1198016"><ele>686.5</ele><time>2026-05-03T10:37:55.131Z</time></trkpt><trkpt lat="44.2029255" lon="8.1196395"><ele>685.25</ele><time>2026-05-03T10:37:56.13Z</time></trkpt><trkpt lat="44.2029668" lon="8.1194671"><ele>684.0</ele><time>2026-05-03T10:37:57.131Z</time></trkpt><trkpt lat="44.2029996" lon="8.1192884"><ele>684.0</ele><time>2026-05-03T10:37:58.13Z</time></trkpt><trkpt lat="44.2030251" lon="8.1191067"><ele>684.0</ele><time>2026-05-03T10:37:59.13Z</time></trkpt><trkpt lat="44.2030528" lon="8.1189224"><ele>684.0</ele><time>2026-05-03T10:38:00.131Z</time></trkpt><trkpt lat="44.2030875" lon="8.1187485"><ele>684.0</ele><time>2026-05-03T10:38:01.13Z</time></trkpt><trkpt lat="44.2031268" lon="8.1185773"><ele>685.75</ele><time>2026-05-03T10:38:02.13Z</time></trkpt><trkpt lat="44.2031708" lon="8.1184046"><ele>687.5</ele><time>2026-05-03T10:38:03.13Z</time></trkpt><trkpt lat="44.2032222" lon="8.1182158"><ele>689.25</ele><time>2026-05-03T10:38:04.131Z</time></trkpt><trkpt lat="44.2032684" lon="8.1180045"><ele>691.0</ele><time>2026-05-03T10:38:05.13Z</time></trkpt><trkpt lat="44.2033063" lon="8.1177681"><ele>691.0</ele><time>2026-05-03T10:38:06.131Z</time></trkpt><trkpt lat="44.2033243" lon="8.1175249"><ele>691.0</ele><time>2026-05-03T10:38:07.13Z</time></trkpt><trkpt lat="44.2033178" lon="8.1172934"><ele>691.0</ele><time>2026-05-03T10:38:08.13Z</time></trkpt><trkpt lat="44.2033115" lon="8.1170735"><ele>689.75</ele><time>2026-05-03T10:38:09.13Z</time></trkpt><trkpt lat="44.2033166" lon="8.1168603"><ele>688.5</ele><time>2026-05-03T10:38:10.13Z</time></trkpt><trkpt lat="44.203344" lon="8.1166603"><ele>687.25</ele><time>2026-05-03T10:38:11.131Z</time></trkpt><trkpt lat="44.2033758" lon="8.1164647"><ele>686.0</ele><time>2026-05-03T10:38:12.131Z</time></trkpt><trkpt lat="44.2034106" lon="8.1162828"><ele>685.75</ele><time>2026-05-03T10:38:13.13Z</time></trkpt><trkpt lat="44.2034412" lon="8.1161128"><ele>685.5</ele><time>2026-05-03T10:38:14.13Z</time></trkpt><trkpt lat="44.2034719" lon="8.1159571"><ele>685.25</ele><time>2026-05-03T10:38:15.131Z</time></trkpt><trkpt lat="44.2035053" lon="8.1158121"><ele>685.0</ele><time>2026-05-03T10:38:16.13Z</time></trkpt><trkpt lat="44.2035508" lon="8.115675"><ele>683.5</ele><time>2026-05-03T10:38:17.13Z</time></trkpt><trkpt lat="44.2036067" lon="8.1155526"><ele>682.0</ele><time>2026-05-03T10:38:18.131Z</time></trkpt><trkpt lat="44.2036788" lon="8.1154439"><ele>680.5</ele><time>2026-05-03T10:38:19.13Z</time></trkpt><trkpt lat="44.2037797" lon="8.1153548"><ele>679.0</ele><time>2026-05-03T10:38:20.131Z</time></trkpt><trkpt lat="44.203901" lon="8.115273"><ele>680.3333333333334</ele><time>2026-05-03T10:38:21.131Z</time></trkpt><trkpt lat="44.2040367" lon="8.1151933"><ele>681.6666666666666</ele><time>2026-05-03T10:38:22.13Z</time></trkpt><trkpt lat="44.2041839" lon="8.1151123"><ele>683.0</ele><time>2026-05-03T10:38:23.131Z</time></trkpt><trkpt lat="44.204348" lon="8.1150373"><ele>683.0</ele><time>2026-05-03T10:38:24.131Z</time></trkpt><trkpt lat="44.2045224" lon="8.1149619"><ele>683.0</ele><time>2026-05-03T10:38:25.13Z</time></trkpt><trkpt lat="44.204707" lon="8.1148786"><ele>683.0</ele><time>2026-05-03T10:38:26.13Z</time></trkpt><trkpt lat="44.2048941" lon="8.1147945"><ele>681.0</ele><time>2026-05-03T10:38:27.131Z</time></trkpt><trkpt lat="44.2050865" lon="8.114713"><ele>679.0</ele><time>2026-05-03T10:38:28.13Z</time></trkpt><trkpt lat="44.2052884" lon="8.1146392"><ele>677.0</ele><time>2026-05-03T10:38:29.131Z</time></trkpt><trkpt lat="44.2054983" lon="8.1145702"><ele>677.0</ele><time>2026-05-03T10:38:30.13Z</time></trkpt><trkpt lat="44.2057149" lon="8.1145002"><ele>677.0</ele><time>2026-05-03T10:38:31.13Z</time></trkpt><trkpt lat="44.2059362" lon="8.11443"><ele>677.0</ele><time>2026-05-03T10:38:32.13Z</time></trkpt><trkpt lat="44.2061612" lon="8.1143596"><ele>677.0</ele><time>2026-05-03T10:38:33.13Z</time></trkpt><trkpt lat="44.2063819" lon="8.1142945"><ele>677.0</ele><time>2026-05-03T10:38:34.13Z</time></trkpt><trkpt lat="44.2066037" lon="8.1142407"><ele>678.6666666666666</ele><time>2026-05-03T10:38:35.13Z</time></trkpt><trkpt lat="44.2068204" lon="8.1142202"><ele>680.3333333333334</ele><time>2026-05-03T10:38:36.13Z</time></trkpt><trkpt lat="44.2070289" lon="8.1142265"><ele>682.0</ele><time>2026-05-03T10:38:37.13Z</time></trkpt><trkpt lat="44.2072308" lon="8.1142077"><ele>684.0</ele><time>2026-05-03T10:38:38.131Z</time></trkpt><trkpt lat="44.2074233" lon="8.1141289"><ele>686.0</ele><time>2026-05-03T10:38:39.131Z</time></trkpt><trkpt lat="44.2076043" lon="8.1140045"><ele>688.0</ele><time>2026-05-03T10:38:40.13Z</time></trkpt><trkpt lat="44.2077876" lon="8.113865"><ele>684.3333333333334</ele><time>2026-05-03T10:38:41.131Z</time></trkpt><trkpt lat="44.2079754" lon="8.113735"><ele>680.6666666666666</ele><time>2026-05-03T10:38:42.131Z</time></trkpt><trkpt lat="44.2081642" lon="8.1136022"><ele>677.0</ele><time>2026-05-03T10:38:43.13Z</time></trkpt><trkpt lat="44.208348" lon="8.113466"><ele>677.0</ele><time>2026-05-03T10:38:44.131Z</time></trkpt><trkpt lat="44.2085287" lon="8.113357"><ele>677.0</ele><time>2026-05-03T10:38:45.13Z</time></trkpt><trkpt lat="44.2087142" lon="8.1133005"><ele>677.0</ele><time>2026-05-03T10:38:46.131Z</time></trkpt><trkpt lat="44.2089053" lon="8.1132885"><ele>677.6666666666666</ele><time>2026-05-03T10:38:47.13Z</time></trkpt><trkpt lat="44.2090995" lon="8.1132865"><ele>678.3333333333334</ele><time>2026-05-03T10:38:48.13Z</time></trkpt><trkpt lat="44.2092907" lon="8.1132986"><ele>679.0</ele><time>2026-05-03T10:38:49.13Z</time></trkpt><trkpt lat="44.2094882" lon="8.1133195"><ele>679.0</ele><time>2026-05-03T10:38:50.13Z</time></trkpt><trkpt lat="44.2096846" lon="8.1133453"><ele>679.0</ele><time>2026-05-03T10:38:51.13Z</time></trkpt><trkpt lat="44.2098826" lon="8.113373"><ele>679.0</ele><time>2026-05-03T10:38:52.13Z</time></trkpt><trkpt lat="44.2100828" lon="8.1134023"><ele>679.6666666666667</ele><time>2026-05-03T10:38:53.131Z</time></trkpt><trkpt lat="44.2102846" lon="8.1134389"><ele>680.3333333333334</ele><time>2026-05-03T10:38:54.131Z</time></trkpt><trkpt lat="44.2104861" lon="8.1134769"><ele>681.0</ele><time>2026-05-03T10:38:55.13Z</time></trkpt><trkpt lat="44.2106867" lon="8.1135222"><ele>679.3333333333334</ele><time>2026-05-03T10:38:56.13Z</time></trkpt><trkpt lat="44.210882" lon="8.1135721"><ele>677.6666666666667</ele><time>2026-05-03T10:38:57.13Z</time></trkpt><trkpt lat="44.211083" lon="8.1136265"><ele>676.0</ele><time>2026-05-03T10:38:58.131Z</time></trkpt><trkpt lat="44.2112843" lon="8.1136853"><ele>676.0</ele><time>2026-05-03T10:38:59.13Z</time></trkpt><trkpt lat="44.2114847" lon="8.1137513"><ele>676.0</ele><time>2026-05-03T10:39:00.131Z</time></trkpt><trkpt lat="44.2116833" lon="8.1138318"><ele>676.0</ele><time>2026-05-03T10:39:01.13Z</time></trkpt><trkpt lat="44.2118768" lon="8.1139214"><ele>676.3333333333334</ele><time>2026-05-03T10:39:02.13Z</time></trkpt><trkpt lat="44.212067" lon="8.1140129"><ele>676.6666666666666</ele><time>2026-05-03T10:39:03.13Z</time></trkpt><trkpt lat="44.2122513" lon="8.1141027"><ele>677.0</ele><time>2026-05-03T10:39:04.13Z</time></trkpt><trkpt lat="44.2124324" lon="8.1141948"><ele>675.6666666666666</ele><time>2026-05-03T10:39:05.13Z</time></trkpt><trkpt lat="44.2126104" lon="8.1142959"><ele>674.3333333333334</ele><time>2026-05-03T10:39:06.131Z</time></trkpt><trkpt lat="44.2127864" lon="8.1144093"><ele>673.0</ele><time>2026-05-03T10:39:07.13Z</time></trkpt><trkpt lat="44.2129575" lon="8.1145398"><ele>673.0</ele><time>2026-05-03T10:39:08.13Z</time></trkpt><trkpt lat="44.2131218" lon="8.1146944"><ele>673.0</ele><time>2026-05-03T10:39:09.13Z</time></trkpt><trkpt lat="44.2132799" lon="8.1148673"><ele>673.0</ele><time>2026-05-03T10:39:10.131Z</time></trkpt><trkpt lat="44.2134445" lon="8.1150422"><ele>674.0</ele><time>2026-05-03T10:39:11.13Z</time></trkpt><trkpt lat="44.2136132" lon="8.11522"><ele>675.0</ele><time>2026-05-03T10:39:12.13Z</time></trkpt><trkpt lat="44.2137873" lon="8.1154004"><ele>676.0</ele><time>2026-05-03T10:39:13.13Z</time></trkpt><trkpt lat="44.2139539" lon="8.1155934"><ele>677.3333333333334</ele><time>2026-05-03T10:39:14.131Z</time></trkpt><trkpt lat="44.2141112" lon="8.1157744"><ele>678.6666666666666</ele><time>2026-05-03T10:39:15.13Z</time></trkpt><trkpt lat="44.2142763" lon="8.1159322"><ele>680.0</ele><time>2026-05-03T10:39:16.13Z</time></trkpt><trkpt lat="44.2144531" lon="8.1160231"><ele>680.0</ele><time>2026-05-03T10:39:17.13Z</time></trkpt><trkpt lat="44.2146417" lon="8.1160741"><ele>680.0</ele><time>2026-05-03T10:39:18.131Z</time></trkpt><trkpt lat="44.2148354" lon="8.1160766"><ele>680.0</ele><time>2026-05-03T10:39:19.13Z</time></trkpt><trkpt lat="44.2150328" lon="8.1160594"><ele>677.0</ele><time>2026-05-03T10:39:20.13Z</time></trkpt><trkpt lat="44.2152361" lon="8.1160499"><ele>674.0</ele><time>2026-05-03T10:39:21.131Z</time></trkpt><trkpt lat="44.2154445" lon="8.1160528"><ele>671.0</ele><time>2026-05-03T10:39:22.13Z</time></trkpt><trkpt lat="44.2156506" lon="8.1160923"><ele>671.0</ele><time>2026-05-03T10:39:23.13Z</time></trkpt><trkpt lat="44.2158648" lon="8.1161408"><ele>671.0</ele><time>2026-05-03T10:39:24.13Z</time></trkpt><trkpt lat="44.2160694" lon="8.11619"><ele>671.0</ele><time>2026-05-03T10:39:25.13Z</time></trkpt><trkpt lat="44.216278" lon="8.1162417"><ele>671.0</ele><time>2026-05-03T10:39:26.13Z</time></trkpt><trkpt lat="44.2164806" lon="8.1162748"><ele>671.0</ele><time>2026-05-03T10:39:27.13Z</time></trkpt><trkpt lat="44.2166851" lon="8.1162887"><ele>671.0</ele><time>2026-05-03T10:39:28.13Z</time></trkpt><trkpt lat="44.2168864" lon="8.116292"><ele>671.0</ele><time>2026-05-03T10:39:29.131Z</time></trkpt><trkpt lat="44.2170835" lon="8.1162732"><ele>671.0</ele><time>2026-05-03T10:39:30.13Z</time></trkpt><trkpt lat="44.2172744" lon="8.1162057"><ele>671.0</ele><time>2026-05-03T10:39:31.13Z</time></trkpt><trkpt lat="44.2174576" lon="8.1161082"><ele>671.0</ele><time>2026-05-03T10:39:32.13Z</time></trkpt><trkpt lat="44.2176399" lon="8.1159913"><ele>671.0</ele><time>2026-05-03T10:39:33.131Z</time></trkpt><trkpt lat="44.2178189" lon="8.1158697"><ele>671.0</ele><time>2026-05-03T10:39:34.131Z</time></trkpt><trkpt lat="44.2180032" lon="8.1157458"><ele>669.3333333333333</ele><time>2026-05-03T10:39:35.13Z</time></trkpt><trkpt lat="44.2181833" lon="8.1156172"><ele>667.6666666666666</ele><time>2026-05-03T10:39:36.13Z</time></trkpt><trkpt lat="44.2183675" lon="8.1154976"><ele>666.0</ele><time>2026-05-03T10:39:37.132Z</time></trkpt><trkpt lat="44.2185517" lon="8.1153765"><ele>666.0</ele><time>2026-05-03T10:39:38.13Z</time></trkpt><trkpt lat="44.2187337" lon="8.1152603"><ele>666.0</ele><time>2026-05-03T10:39:39.131Z</time></trkpt><trkpt lat="44.2189111" lon="8.1151429"><ele>666.0</ele><time>2026-05-03T10:39:40.13Z</time></trkpt><trkpt lat="44.219072" lon="8.115023"><ele>666.3333333333334</ele><time>2026-05-03T10:39:41.131Z</time></trkpt><trkpt lat="44.2192279" lon="8.1149093"><ele>666.6666666666667</ele><time>2026-05-03T10:39:42.13Z</time></trkpt><trkpt lat="44.2193845" lon="8.1148338"><ele>667.0</ele><time>2026-05-03T10:39:43.13Z</time></trkpt><trkpt lat="44.2195409" lon="8.114805"><ele>666.3333333333334</ele><time>2026-05-03T10:39:44.13Z</time></trkpt><trkpt lat="44.2196948" lon="8.114841"><ele>665.6666666666666</ele><time>2026-05-03T10:39:45.13Z</time></trkpt><trkpt lat="44.2198388" lon="8.11494"><ele>665.0</ele><time>2026-05-03T10:39:46.13Z</time></trkpt><trkpt lat="44.2199709" lon="8.1150828"><ele>665.0</ele><time>2026-05-03T10:39:47.13Z</time></trkpt><trkpt lat="44.2201038" lon="8.1152534"><ele>665.0</ele><time>2026-05-03T10:39:48.13Z</time></trkpt><trkpt lat="44.2202432" lon="8.1154333"><ele>665.0</ele><time>2026-05-03T10:39:49.131Z</time></trkpt><trkpt lat="44.2203823" lon="8.1156241"><ele>665.0</ele><time>2026-05-03T10:39:50.13Z</time></trkpt><trkpt lat="44.2205204" lon="8.1158362"><ele>665.0</ele><time>2026-05-03T10:39:51.13Z</time></trkpt><trkpt lat="44.220651" lon="8.1160633"><ele>665.0</ele><time>2026-05-03T10:39:52.13Z</time></trkpt><trkpt lat="44.2207695" lon="8.1163032"><ele>665.0</ele><time>2026-05-03T10:39:53.131Z</time></trkpt><trkpt lat="44.2208706" lon="8.1165551"><ele>665.0</ele><time>2026-05-03T10:39:54.13Z</time></trkpt><trkpt lat="44.2209621" lon="8.1168048"><ele>665.0</ele><time>2026-05-03T10:39:55.13Z</time></trkpt><trkpt lat="44.2210567" lon="8.1170481"><ele>667.3333333333333</ele><time>2026-05-03T10:39:56.13Z</time></trkpt><trkpt lat="44.2211666" lon="8.1172774"><ele>669.6666666666666</ele><time>2026-05-03T10:39:57.13Z</time></trkpt><trkpt lat="44.2212892" lon="8.1174946"><ele>672.0</ele><time>2026-05-03T10:39:58.13Z</time></trkpt><trkpt lat="44.2214209" lon="8.1177017"><ele>671.0</ele><time>2026-05-03T10:39:59.13Z</time></trkpt><trkpt lat="44.2215548" lon="8.1179044"><ele>670.0</ele><time>2026-05-03T10:40:00.13Z</time></trkpt><trkpt lat="44.2216969" lon="8.1180868"><ele>669.0</ele><time>2026-05-03T10:40:01.13Z</time></trkpt><trkpt lat="44.2218464" lon="8.1182636"><ele>669.0</ele><time>2026-05-03T10:40:02.13Z</time></trkpt><trkpt lat="44.2220257" lon="8.118373"><ele>669.0</ele><time>2026-05-03T10:40:03.131Z</time></trkpt><trkpt lat="44.2221975" lon="8.1184968"><ele>669.0</ele><time>2026-05-03T10:40:04.13Z</time></trkpt><trkpt lat="44.2223745" lon="8.1186109"><ele>666.0</ele><time>2026-05-03T10:40:05.13Z</time></trkpt><trkpt lat="44.2225495" lon="8.1187222"><ele>663.0</ele><time>2026-05-03T10:40:06.13Z</time></trkpt><trkpt lat="44.2227267" lon="8.1188377"><ele>660.0</ele><time>2026-05-03T10:40:07.131Z</time></trkpt><trkpt lat="44.2229036" lon="8.1189564"><ele>660.0</ele><time>2026-05-03T10:40:08.13Z</time></trkpt><trkpt lat="44.2230817" lon="8.1190708"><ele>660.0</ele><time>2026-05-03T10:40:09.131Z</time></trkpt><trkpt lat="44.2232646" lon="8.1191935"><ele>660.0</ele><time>2026-05-03T10:40:10.131Z</time></trkpt><trkpt lat="44.2234407" lon="8.1193047"><ele>660.0</ele><time>2026-05-03T10:40:11.13Z</time></trkpt><trkpt lat="44.2236194" lon="8.1194173"><ele>660.0</ele><time>2026-05-03T10:40:12.13Z</time></trkpt><trkpt lat="44.2237938" lon="8.1195293"><ele>660.0</ele><time>2026-05-03T10:40:13.131Z</time></trkpt><trkpt lat="44.2239622" lon="8.1196405"><ele>659.6666666666666</ele><time>2026-05-03T10:40:14.13Z</time></trkpt><trkpt lat="44.2241221" lon="8.119744"><ele>659.3333333333333</ele><time>2026-05-03T10:40:15.13Z</time></trkpt><trkpt lat="44.2242803" lon="8.1198467"><ele>659.0</ele><time>2026-05-03T10:40:16.13Z</time></trkpt><trkpt lat="44.2244347" lon="8.1199513"><ele>659.0</ele><time>2026-05-03T10:40:17.13Z</time></trkpt><trkpt lat="44.2245914" lon="8.1200631"><ele>659.0</ele><time>2026-05-03T10:40:18.131Z</time></trkpt><trkpt lat="44.22474" lon="8.1201652"><ele>659.0</ele><time>2026-05-03T10:40:19.13Z</time></trkpt><trkpt lat="44.2248875" lon="8.1202597"><ele>658.0</ele><time>2026-05-03T10:40:20.131Z</time></trkpt><trkpt lat="44.2250305" lon="8.1203396"><ele>657.0</ele><time>2026-05-03T10:40:21.13Z</time></trkpt><trkpt lat="44.225185" lon="8.1203876"><ele>656.0</ele><time>2026-05-03T10:40:22.131Z</time></trkpt><trkpt lat="44.2253391" lon="8.1204001"><ele>656.0</ele><time>2026-05-03T10:40:23.13Z</time></trkpt><trkpt lat="44.2254874" lon="8.1203783"><ele>656.0</ele><time>2026-05-03T10:40:24.13Z</time></trkpt><trkpt lat="44.2256288" lon="8.1203114"><ele>656.0</ele><time>2026-05-03T10:40:25.13Z</time></trkpt><trkpt lat="44.2257596" lon="8.1202069"><ele>656.0</ele><time>2026-05-03T10:40:26.13Z</time></trkpt><trkpt lat="44.2258647" lon="8.120051"><ele>655.25</ele><time>2026-05-03T10:40:27.13Z</time></trkpt><trkpt lat="44.2259575" lon="8.1198919"><ele>654.5</ele><time>2026-05-03T10:40:28.13Z</time></trkpt><trkpt lat="44.2260562" lon="8.1197375"><ele>653.75</ele><time>2026-05-03T10:40:29.13Z</time></trkpt><trkpt lat="44.2261664" lon="8.119587"><ele>653.0</ele><time>2026-05-03T10:40:30.13Z</time></trkpt><trkpt lat="44.2262882" lon="8.1194402"><ele>653.0</ele><time>2026-05-03T10:40:31.13Z</time></trkpt><trkpt lat="44.2264228" lon="8.1192986"><ele>653.0</ele><time>2026-05-03T10:40:32.13Z</time></trkpt><trkpt lat="44.2265675" lon="8.1191574"><ele>653.0</ele><time>2026-05-03T10:40:33.13Z</time></trkpt><trkpt lat="44.2267185" lon="8.1190124"><ele>653.3333333333333</ele><time>2026-05-03T10:40:34.131Z</time></trkpt><trkpt lat="44.2268778" lon="8.1188646"><ele>653.6666666666666</ele><time>2026-05-03T10:40:35.13Z</time></trkpt><trkpt lat="44.227025" lon="8.1187145"><ele>654.0</ele><time>2026-05-03T10:40:36.131Z</time></trkpt><trkpt lat="44.2271633" lon="8.1185744"><ele>654.0</ele><time>2026-05-03T10:40:37.13Z</time></trkpt><trkpt lat="44.2273008" lon="8.1184408"><ele>654.0</ele><time>2026-05-03T10:40:38.13Z</time></trkpt><trkpt lat="44.2274387" lon="8.1183393"><ele>654.0</ele><time>2026-05-03T10:40:39.13Z</time></trkpt><trkpt lat="44.2275733" lon="8.1182682"><ele>654.25</ele><time>2026-05-03T10:40:40.13Z</time></trkpt><trkpt lat="44.2276999" lon="8.1182056"><ele>654.5</ele><time>2026-05-03T10:40:41.131Z</time></trkpt><trkpt lat="44.2278375" lon="8.1181724"><ele>654.75</ele><time>2026-05-03T10:40:42.131Z</time></trkpt><trkpt lat="44.2279849" lon="8.1181544"><ele>655.0</ele><time>2026-05-03T10:40:43.13Z</time></trkpt><trkpt lat="44.2281463" lon="8.1181525"><ele>655.0</ele><time>2026-05-03T10:40:44.13Z</time></trkpt><trkpt lat="44.228318" lon="8.1181661"><ele>655.0</ele><time>2026-05-03T10:40:45.13Z</time></trkpt><trkpt lat="44.2285024" lon="8.1181892"><ele>655.0</ele><time>2026-05-03T10:40:46.131Z</time></trkpt><trkpt lat="44.2286988" lon="8.1182073"><ele>655.0</ele><time>2026-05-03T10:40:47.13Z</time></trkpt><trkpt lat="44.2288843" lon="8.1182153"><ele>655.0</ele><time>2026-05-03T10:40:48.131Z</time></trkpt><trkpt lat="44.2290766" lon="8.1182257"><ele>655.0</ele><time>2026-05-03T10:40:49.13Z</time></trkpt><trkpt lat="44.2292693" lon="8.1182502"><ele>654.3333333333334</ele><time>2026-05-03T10:40:50.131Z</time></trkpt><trkpt lat="44.2294551" lon="8.1182816"><ele>653.6666666666666</ele><time>2026-05-03T10:40:51.13Z</time></trkpt><trkpt lat="44.2296394" lon="8.1183192"><ele>653.0</ele><time>2026-05-03T10:40:52.13Z</time></trkpt><trkpt lat="44.2298191" lon="8.1183471"><ele>652.3333333333333</ele><time>2026-05-03T10:40:53.13Z</time></trkpt><trkpt lat="44.2299946" lon="8.1183509"><ele>651.6666666666666</ele><time>2026-05-03T10:40:54.13Z</time></trkpt><trkpt lat="44.2301707" lon="8.1183173"><ele>651.0</ele><time>2026-05-03T10:40:55.13Z</time></trkpt><trkpt lat="44.2303513" lon="8.118276"><ele>651.0</ele><time>2026-05-03T10:40:56.13Z</time></trkpt><trkpt lat="44.2305382" lon="8.1182305"><ele>651.0</ele><time>2026-05-03T10:40:57.13Z</time></trkpt><trkpt lat="44.2307323" lon="8.1181764"><ele>651.0</ele><time>2026-05-03T10:40:58.13Z</time></trkpt><trkpt lat="44.2309271" lon="8.1181425"><ele>651.0</ele><time>2026-05-03T10:40:59.13Z</time></trkpt><trkpt lat="44.2311183" lon="8.1181167"><ele>651.0</ele><time>2026-05-03T10:41:00.13Z</time></trkpt><trkpt lat="44.2313082" lon="8.1180871"><ele>651.0</ele><time>2026-05-03T10:41:01.13Z</time></trkpt><trkpt lat="44.2314969" lon="8.1180521"><ele>650.3333333333334</ele><time>2026-05-03T10:41:02.13Z</time></trkpt><trkpt lat="44.2316835" lon="8.118023"><ele>649.6666666666667</ele><time>2026-05-03T10:41:03.13Z</time></trkpt><trkpt lat="44.2318714" lon="8.1179891"><ele>649.0</ele><time>2026-05-03T10:41:04.13Z</time></trkpt><trkpt lat="44.2320593" lon="8.1179539"><ele>649.0</ele><time>2026-05-03T10:41:05.13Z</time></trkpt><trkpt lat="44.2322487" lon="8.1179173"><ele>649.0</ele><time>2026-05-03T10:41:06.13Z</time></trkpt><trkpt lat="44.2324375" lon="8.117878"><ele>649.0</ele><time>2026-05-03T10:41:07.13Z</time></trkpt><trkpt lat="44.2326299" lon="8.1178432"><ele>649.0</ele><time>2026-05-03T10:41:08.13Z</time></trkpt><trkpt lat="44.2328209" lon="8.1178022"><ele>649.0</ele><time>2026-05-03T10:41:09.13Z</time></trkpt><trkpt lat="44.2330123" lon="8.1177629"><ele>649.0</ele><time>2026-05-03T10:41:10.13Z</time></trkpt><trkpt lat="44.2332035" lon="8.1177262"><ele>649.0</ele><time>2026-05-03T10:41:11.13Z</time></trkpt><trkpt lat="44.2333934" lon="8.1176836"><ele>649.0</ele><time>2026-05-03T10:41:12.131Z</time></trkpt><trkpt lat="44.2335783" lon="8.1176396"><ele>649.0</ele><time>2026-05-03T10:41:13.13Z</time></trkpt><trkpt lat="44.2337643" lon="8.1176095"><ele>649.0</ele><time>2026-05-03T10:41:14.13Z</time></trkpt><trkpt lat="44.2339472" lon="8.1175898"><ele>649.0</ele><time>2026-05-03T10:41:15.131Z</time></trkpt><trkpt lat="44.2341289" lon="8.117585"><ele>649.0</ele><time>2026-05-03T10:41:16.13Z</time></trkpt><trkpt lat="44.2343095" lon="8.1176006"><ele>648.6666666666667</ele><time>2026-05-03T10:41:17.13Z</time></trkpt><trkpt lat="44.2344885" lon="8.1176382"><ele>648.3333333333334</ele><time>2026-05-03T10:41:18.13Z</time></trkpt><trkpt lat="44.2346554" lon="8.1176877"><ele>648.0</ele><time>2026-05-03T10:41:19.13Z</time></trkpt><trkpt lat="44.2348138" lon="8.1177291"><ele>647.6666666666666</ele><time>2026-05-03T10:41:20.131Z</time></trkpt><trkpt lat="44.234963" lon="8.1177413"><ele>647.3333333333333</ele><time>2026-05-03T10:41:21.13Z</time></trkpt><trkpt lat="44.235114" lon="8.1177536"><ele>647.0</ele><time>2026-05-03T10:41:22.13Z</time></trkpt><trkpt lat="44.2352715" lon="8.1177303"><ele>647.0</ele><time>2026-05-03T10:41:23.13Z</time></trkpt><trkpt lat="44.2354258" lon="8.1175648"><ele>647.0</ele><time>2026-05-03T10:41:24.13Z</time></trkpt><trkpt lat="44.2355281" lon="8.1174099"><ele>647.0</ele><time>2026-05-03T10:41:25.131Z</time></trkpt><trkpt lat="44.2356626" lon="8.1173"><ele>646.5</ele><time>2026-05-03T10:41:26.13Z</time></trkpt><trkpt lat="44.2357817" lon="8.1172095"><ele>646.0</ele><time>2026-05-03T10:41:27.13Z</time></trkpt><trkpt lat="44.2358958" lon="8.117114"><ele>645.5</ele><time>2026-05-03T10:41:28.131Z</time></trkpt><trkpt lat="44.2359999" lon="8.1170284"><ele>645.0</ele><time>2026-05-03T10:41:29.13Z</time></trkpt><trkpt lat="44.2360882" lon="8.1169512"><ele>645.0</ele><time>2026-05-03T10:41:30.13Z</time></trkpt><trkpt lat="44.2361729" lon="8.1168784"><ele>645.0</ele><time>2026-05-03T10:41:31.13Z</time></trkpt><trkpt lat="44.2362532" lon="8.1168257"><ele>645.0</ele><time>2026-05-03T10:41:32.131Z</time></trkpt><trkpt lat="44.2363209" lon="8.1167698"><ele>645.0</ele><time>2026-05-03T10:41:33.13Z</time></trkpt><trkpt lat="44.2363776" lon="8.1167204"><ele>645.0</ele><time>2026-05-03T10:41:34.131Z</time></trkpt><trkpt lat="44.2364784" lon="8.1166532"><ele>645.0</ele><time>2026-05-03T10:41:36.13Z</time></trkpt><trkpt lat="44.2365569" lon="8.1166243"><ele>646.0</ele><time>2026-05-03T10:41:38.131Z</time></trkpt><trkpt lat="44.236649" lon="8.1166491"><ele>646.0</ele><time>2026-05-03T10:41:41.13Z</time></trkpt><trkpt lat="44.2367115" lon="8.1166925"><ele>646.0</ele><time>2026-05-03T10:41:43.13Z</time></trkpt><trkpt lat="44.2367688" lon="8.1167312"><ele>646.0</ele><time>2026-05-03T10:41:45.13Z</time></trkpt><trkpt lat="44.2368106" lon="8.1168316"><ele>646.0</ele><time>2026-05-03T10:41:47.13Z</time></trkpt><trkpt lat="44.236858" lon="8.1168969"><ele>646.0</ele><time>2026-05-03T10:41:49.131Z</time></trkpt></trkseg><trkseg><trkpt lat="44.2368588" lon="8.1168918"><ele>646.0000000000001</ele><time>2026-05-03T12:22:59.144Z</time></trkpt><trkpt lat="44.2368618" lon="8.1167872"><ele>646.0</ele><time>2026-05-03T12:23:08.144Z</time></trkpt><trkpt lat="44.2369015" lon="8.1167066"><ele>646.0</ele><time>2026-05-03T12:23:11.144Z</time></trkpt><trkpt lat="44.2369371" lon="8.1166294"><ele>646.0</ele><time>2026-05-03T12:25:01.143Z</time></trkpt><trkpt lat="44.2369649" lon="8.1165066"><ele>646.0</ele><time>2026-05-03T12:25:12.143Z</time></trkpt><trkpt lat="44.2370044" lon="8.1164201"><ele>646.0000000000001</ele><time>2026-05-03T12:25:14.144Z</time></trkpt><trkpt lat="44.2370268" lon="8.1163353"><ele>646.0</ele><time>2026-05-03T12:25:16.143Z</time></trkpt><trkpt lat="44.2370079" lon="8.1162329"><ele>645.5</ele><time>2026-05-03T12:25:26.143Z</time></trkpt><trkpt lat="44.2370034" lon="8.1161432"><ele>645.0</ele><time>2026-05-03T12:25:28.143Z</time></trkpt><trkpt lat="44.2369938" lon="8.1160422"><ele>644.5</ele><time>2026-05-03T12:25:30.143Z</time></trkpt><trkpt lat="44.2369411" lon="8.1159844"><ele>644.0</ele><time>2026-05-03T12:25:32.143Z</time></trkpt><trkpt lat="44.2368576" lon="8.1160722"><ele>643.5</ele><time>2026-05-03T12:25:34.143Z</time></trkpt><trkpt lat="44.2368061" lon="8.1161922"><ele>643.0</ele><time>2026-05-03T12:25:36.144Z</time></trkpt><trkpt lat="44.2367383" lon="8.1163381"><ele>643.0</ele><time>2026-05-03T12:25:38.144Z</time></trkpt><trkpt lat="44.2366889" lon="8.1164168"><ele>643.0</ele><time>2026-05-03T12:25:39.143Z</time></trkpt><trkpt lat="44.2366275" lon="8.1164939"><ele>643.0</ele><time>2026-05-03T12:25:40.143Z</time></trkpt><trkpt lat="44.2365587" lon="8.1165621"><ele>643.0</ele><time>2026-05-03T12:25:41.143Z</time></trkpt><trkpt lat="44.2364788" lon="8.1166271"><ele>643.0</ele><time>2026-05-03T12:25:42.144Z</time></trkpt><trkpt lat="44.2364013" lon="8.1166941"><ele>643.0</ele><time>2026-05-03T12:25:43.143Z</time></trkpt><trkpt lat="44.2363229" lon="8.1167616"><ele>643.4</ele><time>2026-05-03T12:25:44.143Z</time></trkpt><trkpt lat="44.2362401" lon="8.1168305"><ele>643.8</ele><time>2026-05-03T12:25:45.143Z</time></trkpt><trkpt lat="44.2361516" lon="8.1169041"><ele>644.2</ele><time>2026-05-03T12:25:46.143Z</time></trkpt><trkpt lat="44.2360598" lon="8.1169787"><ele>644.6</ele><time>2026-05-03T12:25:47.143Z</time></trkpt><trkpt lat="44.2359645" lon="8.1170557"><ele>645.0</ele><time>2026-05-03T12:25:48.143Z</time></trkpt><trkpt lat="44.2358684" lon="8.1171368"><ele>645.0</ele><time>2026-05-03T12:25:49.144Z</time></trkpt><trkpt lat="44.2357693" lon="8.1172176"><ele>645.0</ele><time>2026-05-03T12:25:50.143Z</time></trkpt><trkpt lat="44.2356662" lon="8.1172996"><ele>645.0</ele><time>2026-05-03T12:25:51.143Z</time></trkpt><trkpt lat="44.235563" lon="8.1173893"><ele>645.0</ele><time>2026-05-03T12:25:52.143Z</time></trkpt><trkpt lat="44.2354613" lon="8.1174762"><ele>645.4</ele><time>2026-05-03T12:25:53.143Z</time></trkpt><trkpt lat="44.2353653" lon="8.1175553"><ele>645.8</ele><time>2026-05-03T12:25:54.144Z</time></trkpt><trkpt lat="44.2352634" lon="8.1176315"><ele>646.2</ele><time>2026-05-03T12:25:55.143Z</time></trkpt><trkpt lat="44.2351715" lon="8.1176885"><ele>646.6</ele><time>2026-05-03T12:25:56.143Z</time></trkpt><trkpt lat="44.2350559" lon="8.1177195"><ele>647.0</ele><time>2026-05-03T12:25:57.144Z</time></trkpt><trkpt lat="44.2349297" lon="8.1177275"><ele>647.25</ele><time>2026-05-03T12:25:58.143Z</time></trkpt><trkpt lat="44.234791" lon="8.117711"><ele>647.5</ele><time>2026-05-03T12:25:59.143Z</time></trkpt><trkpt lat="44.2346502" lon="8.1176786"><ele>647.75</ele><time>2026-05-03T12:26:00.143Z</time></trkpt><trkpt lat="44.2345122" lon="8.1176331"><ele>648.0</ele><time>2026-05-03T12:26:01.143Z</time></trkpt><trkpt lat="44.2343725" lon="8.1176044"><ele>648.0</ele><time>2026-05-03T12:26:02.143Z</time></trkpt><trkpt lat="44.2342289" lon="8.1175866"><ele>648.0</ele><time>2026-05-03T12:26:03.143Z</time></trkpt><trkpt lat="44.2340919" lon="8.1175858"><ele>648.0</ele><time>2026-05-03T12:26:04.144Z</time></trkpt><trkpt lat="44.2339568" lon="8.1175878"><ele>648.0</ele><time>2026-05-03T12:26:05.143Z</time></trkpt><trkpt lat="44.2338217" lon="8.1176022"><ele>648.25</ele><time>2026-05-03T12:26:06.144Z</time></trkpt><trkpt lat="44.2336924" lon="8.1176283"><ele>648.5</ele><time>2026-05-03T12:26:07.143Z</time></trkpt><trkpt lat="44.2335572" lon="8.1176524"><ele>648.75</ele><time>2026-05-03T12:26:08.144Z</time></trkpt><trkpt lat="44.2334193" lon="8.1176831"><ele>649.0</ele><time>2026-05-03T12:26:09.143Z</time></trkpt><trkpt lat="44.2332792" lon="8.1177076"><ele>648.6666666666667</ele><time>2026-05-03T12:26:10.143Z</time></trkpt><trkpt lat="44.2331304" lon="8.1177407"><ele>648.3333333333334</ele><time>2026-05-03T12:26:11.144Z</time></trkpt><trkpt lat="44.23298" lon="8.1177752"><ele>648.0</ele><time>2026-05-03T12:26:12.143Z</time></trkpt><trkpt lat="44.232831" lon="8.1178108"><ele>648.0</ele><time>2026-05-03T12:26:13.144Z</time></trkpt><trkpt lat="44.2326836" lon="8.1178391"><ele>648.0</ele><time>2026-05-03T12:26:14.143Z</time></trkpt><trkpt lat="44.2325331" lon="8.1178693"><ele>648.0</ele><time>2026-05-03T12:26:15.143Z</time></trkpt><trkpt lat="44.232377" lon="8.1179006"><ele>648.3333333333334</ele><time>2026-05-03T12:26:16.143Z</time></trkpt><trkpt lat="44.2322127" lon="8.1179327"><ele>648.6666666666667</ele><time>2026-05-03T12:26:17.144Z</time></trkpt><trkpt lat="44.2320444" lon="8.1179601"><ele>649.0</ele><time>2026-05-03T12:26:18.143Z</time></trkpt><trkpt lat="44.231877" lon="8.117988"><ele>649.0</ele><time>2026-05-03T12:26:19.143Z</time></trkpt><trkpt lat="44.2317153" lon="8.1180134"><ele>649.0</ele><time>2026-05-03T12:26:20.143Z</time></trkpt><trkpt lat="44.2315589" lon="8.1180412"><ele>649.0</ele><time>2026-05-03T12:26:21.143Z</time></trkpt><trkpt lat="44.2314082" lon="8.1180748"><ele>649.5</ele><time>2026-05-03T12:26:22.143Z</time></trkpt><trkpt lat="44.2312601" lon="8.1181097"><ele>650.0</ele><time>2026-05-03T12:26:23.143Z</time></trkpt><trkpt lat="44.2311136" lon="8.118144"><ele>650.5</ele><time>2026-05-03T12:26:24.143Z</time></trkpt><trkpt lat="44.2309658" lon="8.1181743"><ele>651.0</ele><time>2026-05-03T12:26:25.143Z</time></trkpt><trkpt lat="44.230815" lon="8.1181995"><ele>651.0</ele><time>2026-05-03T12:26:26.143Z</time></trkpt><trkpt lat="44.2306621" lon="8.1182265"><ele>651.0</ele><time>2026-05-03T12:26:27.143Z</time></trkpt><trkpt lat="44.2305078" lon="8.118261"><ele>651.0</ele><time>2026-05-03T12:26:28.144Z</time></trkpt><trkpt lat="44.2303526" lon="8.1182973"><ele>651.0</ele><time>2026-05-03T12:26:29.143Z</time></trkpt><trkpt lat="44.2301975" lon="8.1183269"><ele>651.0</ele><time>2026-05-03T12:26:30.143Z</time></trkpt><trkpt lat="44.2300413" lon="8.1183432"><ele>651.0</ele><time>2026-05-03T12:26:31.143Z</time></trkpt><trkpt lat="44.2298854" lon="8.1183459"><ele>651.6666666666666</ele><time>2026-05-03T12:26:32.143Z</time></trkpt><trkpt lat="44.2297348" lon="8.1183222"><ele>652.3333333333333</ele><time>2026-05-03T12:26:33.143Z</time></trkpt><trkpt lat="44.2295808" lon="8.1182801"><ele>653.0</ele><time>2026-05-03T12:26:34.143Z</time></trkpt><trkpt lat="44.2294236" lon="8.1182428"><ele>653.0</ele><time>2026-05-03T12:26:35.143Z</time></trkpt><trkpt lat="44.229265" lon="8.1182171"><ele>653.0</ele><time>2026-05-03T12:26:36.143Z</time></trkpt><trkpt lat="44.2291071" lon="8.1182032"><ele>653.0</ele><time>2026-05-03T12:26:37.143Z</time></trkpt><trkpt lat="44.2289518" lon="8.1181953"><ele>653.6666666666666</ele><time>2026-05-03T12:26:38.143Z</time></trkpt><trkpt lat="44.228798" lon="8.1181873"><ele>654.3333333333334</ele><time>2026-05-03T12:26:39.143Z</time></trkpt><trkpt lat="44.2286474" lon="8.1181825"><ele>655.0</ele><time>2026-05-03T12:26:40.144Z</time></trkpt><trkpt lat="44.2285013" lon="8.1181775"><ele>655.0</ele><time>2026-05-03T12:26:41.143Z</time></trkpt><trkpt lat="44.2283561" lon="8.1181727"><ele>655.0</ele><time>2026-05-03T12:26:42.143Z</time></trkpt><trkpt lat="44.2282082" lon="8.1181644"><ele>655.0</ele><time>2026-05-03T12:26:43.143Z</time></trkpt><trkpt lat="44.228058" lon="8.1181579"><ele>655.0</ele><time>2026-05-03T12:26:44.144Z</time></trkpt><trkpt lat="44.2279089" lon="8.1181597"><ele>654.75</ele><time>2026-05-03T12:26:45.143Z</time></trkpt><trkpt lat="44.2277593" lon="8.1181779"><ele>654.5</ele><time>2026-05-03T12:26:46.144Z</time></trkpt><trkpt lat="44.2276142" lon="8.1182198"><ele>654.25</ele><time>2026-05-03T12:26:47.143Z</time></trkpt><trkpt lat="44.2274761" lon="8.1182937"><ele>654.0</ele><time>2026-05-03T12:26:48.143Z</time></trkpt><trkpt lat="44.2273466" lon="8.1183948"><ele>654.0</ele><time>2026-05-03T12:26:49.143Z</time></trkpt><trkpt lat="44.2272235" lon="8.118515"><ele>654.0</ele><time>2026-05-03T12:26:50.144Z</time></trkpt><trkpt lat="44.2271095" lon="8.1186357"><ele>654.0</ele><time>2026-05-03T12:26:51.143Z</time></trkpt><trkpt lat="44.2270017" lon="8.1187452"><ele>654.0</ele><time>2026-05-03T12:26:52.143Z</time></trkpt><trkpt lat="44.226895" lon="8.1188571"><ele>654.0</ele><time>2026-05-03T12:26:53.144Z</time></trkpt><trkpt lat="44.2267872" lon="8.1189671"><ele>654.0</ele><time>2026-05-03T12:26:54.143Z</time></trkpt><trkpt lat="44.2266742" lon="8.1190767"><ele>654.0</ele><time>2026-05-03T12:26:55.143Z</time></trkpt><trkpt lat="44.2265597" lon="8.1191918"><ele>654.0</ele><time>2026-05-03T12:26:56.143Z</time></trkpt><trkpt lat="44.2264492" lon="8.1193056"><ele>653.75</ele><time>2026-05-03T12:26:57.143Z</time></trkpt><trkpt lat="44.2263403" lon="8.1194152"><ele>653.5</ele><time>2026-05-03T12:26:58.143Z</time></trkpt><trkpt lat="44.226235" lon="8.1195227"><ele>653.25</ele><time>2026-05-03T12:26:59.143Z</time></trkpt><trkpt lat="44.2261348" lon="8.1196326"><ele>653.0</ele><time>2026-05-03T12:27:00.144Z</time></trkpt><trkpt lat="44.2260458" lon="8.1197526"><ele>653.0</ele><time>2026-05-03T12:27:01.143Z</time></trkpt><trkpt lat="44.2259672" lon="8.1198903"><ele>653.0</ele><time>2026-05-03T12:27:02.143Z</time></trkpt><trkpt lat="44.2258871" lon="8.1200342"><ele>653.0</ele><time>2026-05-03T12:27:03.143Z</time></trkpt><trkpt lat="44.2257943" lon="8.1201672"><ele>653.0</ele><time>2026-05-03T12:27:04.144Z</time></trkpt><trkpt lat="44.2256891" lon="8.1202834"><ele>653.75</ele><time>2026-05-03T12:27:05.144Z</time></trkpt><trkpt lat="44.2255636" lon="8.1203669"><ele>654.5</ele><time>2026-05-03T12:27:06.145Z</time></trkpt><trkpt lat="44.225427" lon="8.1204143"><ele>655.25</ele><time>2026-05-03T12:27:07.143Z</time></trkpt><trkpt lat="44.2252818" lon="8.1204156"><ele>656.0</ele><time>2026-05-03T12:27:08.143Z</time></trkpt><trkpt lat="44.2251326" lon="8.1203777"><ele>656.0</ele><time>2026-05-03T12:27:09.144Z</time></trkpt><trkpt lat="44.2249817" lon="8.1203172"><ele>656.0</ele><time>2026-05-03T12:27:10.143Z</time></trkpt><trkpt lat="44.2248288" lon="8.1202391"><ele>656.0</ele><time>2026-05-03T12:27:11.143Z</time></trkpt><trkpt lat="44.2246714" lon="8.1201428"><ele>656.6666666666666</ele><time>2026-05-03T12:27:12.143Z</time></trkpt><trkpt lat="44.2245142" lon="8.1200291"><ele>657.3333333333334</ele><time>2026-05-03T12:27:13.143Z</time></trkpt><trkpt lat="44.2243513" lon="8.1199156"><ele>658.0</ele><time>2026-05-03T12:27:14.143Z</time></trkpt><trkpt lat="44.224183" lon="8.1198028"><ele>658.0</ele><time>2026-05-03T12:27:15.144Z</time></trkpt><trkpt lat="44.2240157" lon="8.1196879"><ele>658.0</ele><time>2026-05-03T12:27:16.143Z</time></trkpt><trkpt lat="44.2238489" lon="8.1195729"><ele>658.0</ele><time>2026-05-03T12:27:17.143Z</time></trkpt><trkpt lat="44.2236765" lon="8.1194593"><ele>658.6666666666667</ele><time>2026-05-03T12:27:18.143Z</time></trkpt><trkpt lat="44.2234994" lon="8.1193431"><ele>659.3333333333334</ele><time>2026-05-03T12:27:19.143Z</time></trkpt><trkpt lat="44.2233202" lon="8.1192206"><ele>660.0</ele><time>2026-05-03T12:27:20.143Z</time></trkpt><trkpt lat="44.2231386" lon="8.119097"><ele>660.0</ele><time>2026-05-03T12:27:21.143Z</time></trkpt><trkpt lat="44.222958" lon="8.1189716"><ele>660.0</ele><time>2026-05-03T12:27:22.144Z</time></trkpt><trkpt lat="44.222775" lon="8.1188473"><ele>660.0</ele><time>2026-05-03T12:27:23.143Z</time></trkpt><trkpt lat="44.2225899" lon="8.118725"><ele>660.0</ele><time>2026-05-03T12:27:24.143Z</time></trkpt><trkpt lat="44.2224033" lon="8.1186036"><ele>660.0</ele><time>2026-05-03T12:27:25.144Z</time></trkpt><trkpt lat="44.2222173" lon="8.1184804"><ele>660.0</ele><time>2026-05-03T12:27:26.143Z</time></trkpt><trkpt lat="44.2220339" lon="8.1183499"><ele>661.0</ele><time>2026-05-03T12:27:27.143Z</time></trkpt><trkpt lat="44.2218557" lon="8.118218"><ele>662.0</ele><time>2026-05-03T12:27:28.143Z</time></trkpt><trkpt lat="44.221691" lon="8.1180642"><ele>663.0</ele><time>2026-05-03T12:27:29.144Z</time></trkpt><trkpt lat="44.2215459" lon="8.1178803"><ele>666.0</ele><time>2026-05-03T12:27:30.143Z</time></trkpt><trkpt lat="44.2214136" lon="8.117681"><ele>669.0</ele><time>2026-05-03T12:27:31.143Z</time></trkpt><trkpt lat="44.2212873" lon="8.1174759"><ele>672.0</ele><time>2026-05-03T12:27:32.143Z</time></trkpt><trkpt lat="44.2211715" lon="8.1172606"><ele>672.0</ele><time>2026-05-03T12:27:33.143Z</time></trkpt><trkpt lat="44.2210717" lon="8.1170329"><ele>672.0</ele><time>2026-05-03T12:27:34.143Z</time></trkpt><trkpt lat="44.220979" lon="8.1167938"><ele>672.0</ele><time>2026-05-03T12:27:35.144Z</time></trkpt><trkpt lat="44.220892" lon="8.1165508"><ele>672.0</ele><time>2026-05-03T12:27:36.143Z</time></trkpt><trkpt lat="44.2207975" lon="8.1163192"><ele>672.0</ele><time>2026-05-03T12:27:37.143Z</time></trkpt><trkpt lat="44.2206953" lon="8.1161004"><ele>672.0</ele><time>2026-05-03T12:27:38.143Z</time></trkpt><trkpt lat="44.2205825" lon="8.1159014"><ele>669.6666666666666</ele><time>2026-05-03T12:27:39.144Z</time></trkpt><trkpt lat="44.2204627" lon="8.1157156"><ele>667.3333333333333</ele><time>2026-05-03T12:27:40.143Z</time></trkpt><trkpt lat="44.2203378" lon="8.1155372"><ele>665.0</ele><time>2026-05-03T12:27:41.143Z</time></trkpt><trkpt lat="44.2202135" lon="8.1153665"><ele>665.0</ele><time>2026-05-03T12:27:42.144Z</time></trkpt><trkpt lat="44.2200868" lon="8.1152022"><ele>665.0</ele><time>2026-05-03T12:27:43.143Z</time></trkpt><trkpt lat="44.2199619" lon="8.1150442"><ele>665.0</ele><time>2026-05-03T12:27:44.143Z</time></trkpt><trkpt lat="44.2198386" lon="8.1149054"><ele>664.25</ele><time>2026-05-03T12:27:45.143Z</time></trkpt><trkpt lat="44.2197092" lon="8.1148088"><ele>663.5</ele><time>2026-05-03T12:27:46.143Z</time></trkpt><trkpt lat="44.219569" lon="8.1147685"><ele>662.75</ele><time>2026-05-03T12:27:47.143Z</time></trkpt><trkpt lat="44.2194247" lon="8.1147874"><ele>662.0</ele><time>2026-05-03T12:27:48.143Z</time></trkpt><trkpt lat="44.2192821" lon="8.1148573"><ele>663.3333333333333</ele><time>2026-05-03T12:27:49.143Z</time></trkpt><trkpt lat="44.2191362" lon="8.1149541"><ele>664.6666666666666</ele><time>2026-05-03T12:27:50.143Z</time></trkpt><trkpt lat="44.2189841" lon="8.1150632"><ele>666.0</ele><time>2026-05-03T12:27:51.144Z</time></trkpt><trkpt lat="44.2188237" lon="8.115175"><ele>666.0</ele><time>2026-05-03T12:27:52.143Z</time></trkpt><trkpt lat="44.2186544" lon="8.115289"><ele>666.0</ele><time>2026-05-03T12:27:53.143Z</time></trkpt><trkpt lat="44.2184852" lon="8.1154042"><ele>666.0</ele><time>2026-05-03T12:27:54.143Z</time></trkpt><trkpt lat="44.2183232" lon="8.1155149"><ele>666.0</ele><time>2026-05-03T12:27:55.143Z</time></trkpt><trkpt lat="44.2181596" lon="8.1156297"><ele>666.0</ele><time>2026-05-03T12:27:56.144Z</time></trkpt><trkpt lat="44.2179927" lon="8.1157485"><ele>666.0</ele><time>2026-05-03T12:27:57.143Z</time></trkpt><trkpt lat="44.2178203" lon="8.1158685"><ele>667.6666666666666</ele><time>2026-05-03T12:27:58.143Z</time></trkpt><trkpt lat="44.2176554" lon="8.115983"><ele>669.3333333333333</ele><time>2026-05-03T12:27:59.143Z</time></trkpt><trkpt lat="44.2174836" lon="8.1160961"><ele>671.0</ele><time>2026-05-03T12:28:00.143Z</time></trkpt><trkpt lat="44.217319" lon="8.1161952"><ele>669.6666666666666</ele><time>2026-05-03T12:28:01.143Z</time></trkpt><trkpt lat="44.217151" lon="8.1162493"><ele>668.3333333333334</ele><time>2026-05-03T12:28:02.143Z</time></trkpt><trkpt lat="44.216973" lon="8.1162715"><ele>667.0</ele><time>2026-05-03T12:28:03.143Z</time></trkpt><trkpt lat="44.2167908" lon="8.1162763"><ele>667.0</ele><time>2026-05-03T12:28:04.143Z</time></trkpt><trkpt lat="44.2166007" lon="8.1162664"><ele>667.0</ele><time>2026-05-03T12:28:05.144Z</time></trkpt><trkpt lat="44.2164127" lon="8.1162429"><ele>667.0</ele><time>2026-05-03T12:28:06.143Z</time></trkpt><trkpt lat="44.2162248" lon="8.1161957"><ele>668.3333333333334</ele><time>2026-05-03T12:28:07.144Z</time></trkpt><trkpt lat="44.2160368" lon="8.116144"><ele>669.6666666666666</ele><time>2026-05-03T12:28:08.143Z</time></trkpt><trkpt lat="44.2158489" lon="8.1160945"><ele>671.0</ele><time>2026-05-03T12:28:09.143Z</time></trkpt><trkpt lat="44.2156593" lon="8.1160503"><ele>671.0</ele><time>2026-05-03T12:28:10.143Z</time></trkpt><trkpt lat="44.2154681" lon="8.11603"><ele>671.0</ele><time>2026-05-03T12:28:11.143Z</time></trkpt><trkpt lat="44.2152774" lon="8.1160304"><ele>671.0</ele><time>2026-05-03T12:28:12.143Z</time></trkpt><trkpt lat="44.2150923" lon="8.1160513"><ele>671.0</ele><time>2026-05-03T12:28:13.144Z</time></trkpt><trkpt lat="44.2149091" lon="8.1160689"><ele>671.0</ele><time>2026-05-03T12:28:14.143Z</time></trkpt><trkpt lat="44.2147318" lon="8.1160707"><ele>671.0</ele><time>2026-05-03T12:28:15.143Z</time></trkpt><trkpt lat="44.2145551" lon="8.1160525"><ele>670.3333333333333</ele><time>2026-05-03T12:28:16.144Z</time></trkpt><trkpt lat="44.2143877" lon="8.1159785"><ele>669.6666666666666</ele><time>2026-05-03T12:28:17.143Z</time></trkpt><trkpt lat="44.2142256" lon="8.115856"><ele>669.0</ele><time>2026-05-03T12:28:18.144Z</time></trkpt><trkpt lat="44.214076" lon="8.1157127"><ele>671.3333333333334</ele><time>2026-05-03T12:28:19.143Z</time></trkpt><trkpt lat="44.2139256" lon="8.1155456"><ele>673.6666666666667</ele><time>2026-05-03T12:28:20.144Z</time></trkpt><trkpt lat="44.2137809" lon="8.1153795"><ele>676.0</ele><time>2026-05-03T12:28:21.143Z</time></trkpt><trkpt lat="44.2136363" lon="8.1152117"><ele>676.0</ele><time>2026-05-03T12:28:22.143Z</time></trkpt><trkpt lat="44.2134847" lon="8.1150537"><ele>676.0</ele><time>2026-05-03T12:28:23.144Z</time></trkpt><trkpt lat="44.2133424" lon="8.114887"><ele>676.0</ele><time>2026-05-03T12:28:24.143Z</time></trkpt><trkpt lat="44.2131916" lon="8.1147345"><ele>675.0</ele><time>2026-05-03T12:28:25.143Z</time></trkpt><trkpt lat="44.213038" lon="8.1145904"><ele>674.0</ele><time>2026-05-03T12:28:26.143Z</time></trkpt><trkpt lat="44.2128768" lon="8.1144594"><ele>673.0</ele><time>2026-05-03T12:28:27.144Z</time></trkpt><trkpt lat="44.2127116" lon="8.1143484"><ele>673.0</ele><time>2026-05-03T12:28:28.143Z</time></trkpt><trkpt lat="44.2125424" lon="8.1142451"><ele>673.0</ele><time>2026-05-03T12:28:29.143Z</time></trkpt><trkpt lat="44.2123709" lon="8.1141449"><ele>673.0</ele><time>2026-05-03T12:28:30.143Z</time></trkpt><trkpt lat="44.2121935" lon="8.1140556"><ele>673.0</ele><time>2026-05-03T12:28:31.143Z</time></trkpt><trkpt lat="44.2120153" lon="8.1139652"><ele>673.0</ele><time>2026-05-03T12:28:32.143Z</time></trkpt><trkpt lat="44.2118358" lon="8.1138793"><ele>673.0</ele><time>2026-05-03T12:28:33.144Z</time></trkpt><trkpt lat="44.2116537" lon="8.1138024"><ele>674.0</ele><time>2026-05-03T12:28:34.143Z</time></trkpt><trkpt lat="44.211474" lon="8.113735"><ele>675.0</ele><time>2026-05-03T12:28:35.144Z</time></trkpt><trkpt lat="44.2112924" lon="8.1136727"><ele>676.0</ele><time>2026-05-03T12:28:36.143Z</time></trkpt><trkpt lat="44.2111067" lon="8.1136163"><ele>676.0</ele><time>2026-05-03T12:28:37.143Z</time></trkpt><trkpt lat="44.2109214" lon="8.1135593"><ele>676.0</ele><time>2026-05-03T12:28:38.144Z</time></trkpt><trkpt lat="44.2107371" lon="8.1135082"><ele>676.0</ele><time>2026-05-03T12:28:39.143Z</time></trkpt><trkpt lat="44.2105524" lon="8.1134652"><ele>677.6666666666667</ele><time>2026-05-03T12:28:40.143Z</time></trkpt><trkpt lat="44.2103691" lon="8.1134258"><ele>679.3333333333334</ele><time>2026-05-03T12:28:41.143Z</time></trkpt><trkpt lat="44.2101826" lon="8.1133989"><ele>681.0</ele><time>2026-05-03T12:28:42.143Z</time></trkpt><trkpt lat="44.209996" lon="8.1133701"><ele>680.3333333333334</ele><time>2026-05-03T12:28:43.144Z</time></trkpt><trkpt lat="44.2098075" lon="8.1133465"><ele>679.6666666666667</ele><time>2026-05-03T12:28:44.143Z</time></trkpt><trkpt lat="44.2096214" lon="8.1133179"><ele>679.0</ele><time>2026-05-03T12:28:45.144Z</time></trkpt><trkpt lat="44.209435" lon="8.1132862"><ele>679.0</ele><time>2026-05-03T12:28:46.143Z</time></trkpt><trkpt lat="44.2092485" lon="8.1132579"><ele>679.0</ele><time>2026-05-03T12:28:47.144Z</time></trkpt><trkpt lat="44.2090603" lon="8.1132298"><ele>679.0</ele><time>2026-05-03T12:28:48.144Z</time></trkpt><trkpt lat="44.208869" lon="8.1132435"><ele>678.3333333333334</ele><time>2026-05-03T12:28:49.143Z</time></trkpt><trkpt lat="44.2086807" lon="8.1132804"><ele>677.6666666666666</ele><time>2026-05-03T12:28:50.144Z</time></trkpt><trkpt lat="44.2085021" lon="8.1133543"><ele>677.0</ele><time>2026-05-03T12:28:51.143Z</time></trkpt><trkpt lat="44.2083301" lon="8.1134665"><ele>676.3333333333333</ele><time>2026-05-03T12:28:52.143Z</time></trkpt><trkpt lat="44.2081557" lon="8.1135951"><ele>675.6666666666666</ele><time>2026-05-03T12:28:53.144Z</time></trkpt><trkpt lat="44.2079791" lon="8.1137346"><ele>675.0</ele><time>2026-05-03T12:28:54.143Z</time></trkpt><trkpt lat="44.2078045" lon="8.1138744"><ele>675.0</ele><time>2026-05-03T12:28:55.143Z</time></trkpt><trkpt lat="44.2076293" lon="8.1140046"><ele>675.0</ele><time>2026-05-03T12:28:56.144Z</time></trkpt><trkpt lat="44.2074498" lon="8.1141134"><ele>675.0</ele><time>2026-05-03T12:28:57.143Z</time></trkpt><trkpt lat="44.2072561" lon="8.1141692"><ele>677.3333333333334</ele><time>2026-05-03T12:28:58.143Z</time></trkpt><trkpt lat="44.2070632" lon="8.1141833"><ele>679.6666666666667</ele><time>2026-05-03T12:28:59.144Z</time></trkpt><trkpt lat="44.2068747" lon="8.1141782"><ele>682.0</ele><time>2026-05-03T12:29:00.143Z</time></trkpt><trkpt lat="44.2066892" lon="8.1142115"><ele>682.0</ele><time>2026-05-03T12:29:01.143Z</time></trkpt><trkpt lat="44.2065032" lon="8.1142594"><ele>682.0</ele><time>2026-05-03T12:29:02.144Z</time></trkpt><trkpt lat="44.2063172" lon="8.1143145"><ele>682.0</ele><time>2026-05-03T12:29:03.143Z</time></trkpt><trkpt lat="44.2061339" lon="8.1143743"><ele>680.3333333333334</ele><time>2026-05-03T12:29:04.143Z</time></trkpt><trkpt lat="44.2059482" lon="8.1144291"><ele>678.6666666666666</ele><time>2026-05-03T12:29:05.143Z</time></trkpt><trkpt lat="44.2057606" lon="8.1144845"><ele>677.0</ele><time>2026-05-03T12:29:06.143Z</time></trkpt><trkpt lat="44.2055755" lon="8.1145442"><ele>677.0</ele><time>2026-05-03T12:29:07.143Z</time></trkpt><trkpt lat="44.2053905" lon="8.1145994"><ele>677.0</ele><time>2026-05-03T12:29:08.143Z</time></trkpt><trkpt lat="44.2052079" lon="8.1146578"><ele>677.0</ele><time>2026-05-03T12:29:09.143Z</time></trkpt><trkpt lat="44.2050281" lon="8.114727"><ele>677.0</ele><time>2026-05-03T12:29:10.143Z</time></trkpt><trkpt lat="44.2048506" lon="8.1148054"><ele>677.0</ele><time>2026-05-03T12:29:11.143Z</time></trkpt><trkpt lat="44.2046759" lon="8.1148903"><ele>677.0</ele><time>2026-05-03T12:29:12.144Z</time></trkpt><trkpt lat="44.2045036" lon="8.1149785"><ele>677.6666666666666</ele><time>2026-05-03T12:29:13.143Z</time></trkpt><trkpt lat="44.2043304" lon="8.1150647"><ele>678.3333333333334</ele><time>2026-05-03T12:29:14.143Z</time></trkpt><trkpt lat="44.2041557" lon="8.1151519"><ele>679.0</ele><time>2026-05-03T12:29:15.144Z</time></trkpt><trkpt lat="44.203981" lon="8.1152411"><ele>679.0</ele><time>2026-05-03T12:29:16.143Z</time></trkpt><trkpt lat="44.2038144" lon="8.1153358"><ele>679.0</ele><time>2026-05-03T12:29:17.144Z</time></trkpt><trkpt lat="44.2036716" lon="8.1154615"><ele>679.0</ele><time>2026-05-03T12:29:18.143Z</time></trkpt><trkpt lat="44.2035629" lon="8.1156228"><ele>681.0</ele><time>2026-05-03T12:29:19.144Z</time></trkpt><trkpt lat="44.203492" lon="8.1158148"><ele>683.0</ele><time>2026-05-03T12:29:20.144Z</time></trkpt><trkpt lat="44.2034437" lon="8.1160356"><ele>685.0</ele><time>2026-05-03T12:29:21.144Z</time></trkpt><trkpt lat="44.203399" lon="8.1162624"><ele>685.0</ele><time>2026-05-03T12:29:22.143Z</time></trkpt><trkpt lat="44.2033599" lon="8.1164854"><ele>685.0</ele><time>2026-05-03T12:29:23.143Z</time></trkpt><trkpt lat="44.2033214" lon="8.1167073"><ele>685.0</ele><time>2026-05-03T12:29:24.143Z</time></trkpt><trkpt lat="44.2033139" lon="8.1169328"><ele>685.3333333333334</ele><time>2026-05-03T12:29:25.143Z</time></trkpt><trkpt lat="44.2033193" lon="8.1171668"><ele>685.6666666666666</ele><time>2026-05-03T12:29:26.143Z</time></trkpt><trkpt lat="44.2033283" lon="8.1174073"><ele>686.0</ele><time>2026-05-03T12:29:27.143Z</time></trkpt><trkpt lat="44.2033206" lon="8.1176502"><ele>687.6666666666666</ele><time>2026-05-03T12:29:28.143Z</time></trkpt><trkpt lat="44.2032901" lon="8.1178975"><ele>689.3333333333334</ele><time>2026-05-03T12:29:29.143Z</time></trkpt><trkpt lat="44.2032431" lon="8.1181414"><ele>691.0</ele><time>2026-05-03T12:29:30.144Z</time></trkpt><trkpt lat="44.2031751" lon="8.1183913"><ele>688.6666666666667</ele><time>2026-05-03T12:29:31.144Z</time></trkpt><trkpt lat="44.2031108" lon="8.1186439"><ele>686.3333333333334</ele><time>2026-05-03T12:29:32.145Z</time></trkpt><trkpt lat="44.2030665" lon="8.1188947"><ele>684.0</ele><time>2026-05-03T12:29:33.145Z</time></trkpt><trkpt lat="44.2030314" lon="8.1191449"><ele>684.0</ele><time>2026-05-03T12:29:34.144Z</time></trkpt><trkpt lat="44.2029908" lon="8.1193982"><ele>684.0</ele><time>2026-05-03T12:29:35.144Z</time></trkpt><trkpt lat="44.2029236" lon="8.1196414"><ele>684.0</ele><time>2026-05-03T12:29:36.145Z</time></trkpt><trkpt lat="44.202827" lon="8.1198684"><ele>685.6666666666666</ele><time>2026-05-03T12:29:37.144Z</time></trkpt><trkpt lat="44.2027023" lon="8.1200706"><ele>687.3333333333333</ele><time>2026-05-03T12:29:38.144Z</time></trkpt><trkpt lat="44.202583" lon="8.120269"><ele>689.0</ele><time>2026-05-03T12:29:39.144Z</time></trkpt><trkpt lat="44.2024849" lon="8.1204888"><ele>689.0</ele><time>2026-05-03T12:29:40.144Z</time></trkpt><trkpt lat="44.2024092" lon="8.1207221"><ele>689.0</ele><time>2026-05-03T12:29:41.144Z</time></trkpt><trkpt lat="44.2023516" lon="8.1209682"><ele>689.0</ele><time>2026-05-03T12:29:42.146Z</time></trkpt><trkpt lat="44.202313" lon="8.1212133"><ele>687.6666666666666</ele><time>2026-05-03T12:29:43.144Z</time></trkpt><trkpt lat="44.2022704" lon="8.1214591"><ele>686.3333333333334</ele><time>2026-05-03T12:29:44.145Z</time></trkpt><trkpt lat="44.2022123" lon="8.1217091"><ele>685.0</ele><time>2026-05-03T12:29:45.144Z</time></trkpt><trkpt lat="44.2021382" lon="8.1219496"><ele>685.0</ele><time>2026-05-03T12:29:46.145Z</time></trkpt><trkpt lat="44.2020302" lon="8.1221657"><ele>685.0</ele><time>2026-05-03T12:29:47.144Z</time></trkpt><trkpt lat="44.2019071" lon="8.1223731"><ele>685.0</ele><time>2026-05-03T12:29:48.144Z</time></trkpt><trkpt lat="44.2017711" lon="8.1225721"><ele>685.0</ele><time>2026-05-03T12:29:49.144Z</time></trkpt><trkpt lat="44.2016142" lon="8.1227512"><ele>685.0</ele><time>2026-05-03T12:29:50.144Z</time></trkpt><trkpt lat="44.2014473" lon="8.1229081"><ele>685.0</ele><time>2026-05-03T12:29:51.144Z</time></trkpt><trkpt lat="44.2012724" lon="8.1230631"><ele>685.0</ele><time>2026-05-03T12:29:52.144Z</time></trkpt><trkpt lat="44.2010947" lon="8.1232141"><ele>685.0</ele><time>2026-05-03T12:29:53.144Z</time></trkpt><trkpt lat="44.200916" lon="8.123364"><ele>685.0</ele><time>2026-05-03T12:29:54.144Z</time></trkpt><trkpt lat="44.2007393" lon="8.1235103"><ele>685.3333333333334</ele><time>2026-05-03T12:29:55.144Z</time></trkpt><trkpt lat="44.2005601" lon="8.1236597"><ele>685.6666666666666</ele><time>2026-05-03T12:29:56.144Z</time></trkpt><trkpt lat="44.2003807" lon="8.1238097"><ele>686.0</ele><time>2026-05-03T12:29:57.145Z</time></trkpt><trkpt lat="44.2002029" lon="8.1239555"><ele>686.3333333333333</ele><time>2026-05-03T12:29:58.144Z</time></trkpt><trkpt lat="44.2000218" lon="8.1241044"><ele>686.6666666666666</ele><time>2026-05-03T12:29:59.144Z</time></trkpt><trkpt lat="44.199843" lon="8.1242556"><ele>687.0</ele><time>2026-05-03T12:30:00.144Z</time></trkpt><trkpt lat="44.1996588" lon="8.1244073"><ele>687.0</ele><time>2026-05-03T12:30:01.145Z</time></trkpt><trkpt lat="44.1994728" lon="8.1245528"><ele>687.0</ele><time>2026-05-03T12:30:02.145Z</time></trkpt><trkpt lat="44.1992858" lon="8.124693"><ele>687.0</ele><time>2026-05-03T12:30:03.144Z</time></trkpt><trkpt lat="44.1990972" lon="8.1248324"><ele>688.6666666666666</ele><time>2026-05-03T12:30:04.144Z</time></trkpt><trkpt lat="44.1989008" lon="8.1249561"><ele>690.3333333333333</ele><time>2026-05-03T12:30:05.144Z</time></trkpt><trkpt lat="44.1987075" lon="8.125075"><ele>692.0</ele><time>2026-05-03T12:30:06.144Z</time></trkpt><trkpt lat="44.1985144" lon="8.1251927"><ele>692.0</ele><time>2026-05-03T12:30:07.144Z</time></trkpt><trkpt lat="44.1983227" lon="8.1253083"><ele>692.0</ele><time>2026-05-03T12:30:08.144Z</time></trkpt><trkpt lat="44.1981329" lon="8.1254263"><ele>692.0</ele><time>2026-05-03T12:30:09.144Z</time></trkpt><trkpt lat="44.1979445" lon="8.1255392"><ele>692.3333333333333</ele><time>2026-05-03T12:30:10.145Z</time></trkpt><trkpt lat="44.1977539" lon="8.1256507"><ele>692.6666666666666</ele><time>2026-05-03T12:30:11.144Z</time></trkpt><trkpt lat="44.1975603" lon="8.1257571"><ele>693.0</ele><time>2026-05-03T12:30:12.144Z</time></trkpt><trkpt lat="44.1973602" lon="8.1258448"><ele>692.3333333333334</ele><time>2026-05-03T12:30:13.144Z</time></trkpt><trkpt lat="44.1971544" lon="8.1259196"><ele>691.6666666666667</ele><time>2026-05-03T12:30:14.144Z</time></trkpt><trkpt lat="44.1969579" lon="8.1259843"><ele>691.0</ele><time>2026-05-03T12:30:15.144Z</time></trkpt><trkpt lat="44.1967727" lon="8.1260472"><ele>691.0</ele><time>2026-05-03T12:30:16.144Z</time></trkpt><trkpt lat="44.1965934" lon="8.1261114"><ele>691.0</ele><time>2026-05-03T12:30:17.144Z</time></trkpt><trkpt lat="44.1964238" lon="8.1261738"><ele>691.0</ele><time>2026-05-03T12:30:18.144Z</time></trkpt><trkpt lat="44.1962617" lon="8.1262302"><ele>691.6666666666667</ele><time>2026-05-03T12:30:19.145Z</time></trkpt><trkpt lat="44.1961081" lon="8.1262863"><ele>692.3333333333334</ele><time>2026-05-03T12:30:20.144Z</time></trkpt><trkpt lat="44.1959634" lon="8.1263451"><ele>693.0</ele><time>2026-05-03T12:30:21.144Z</time></trkpt><trkpt lat="44.1958269" lon="8.1264117"><ele>693.0</ele><time>2026-05-03T12:30:22.144Z</time></trkpt><trkpt lat="44.1957036" lon="8.1264962"><ele>693.0</ele><time>2026-05-03T12:30:23.144Z</time></trkpt><trkpt lat="44.1955801" lon="8.1265978"><ele>693.0</ele><time>2026-05-03T12:30:24.144Z</time></trkpt><trkpt lat="44.1954522" lon="8.1267107"><ele>693.0</ele><time>2026-05-03T12:30:25.144Z</time></trkpt><trkpt lat="44.1953208" lon="8.1268308"><ele>694.6666666666666</ele><time>2026-05-03T12:30:26.144Z</time></trkpt><trkpt lat="44.1951802" lon="8.1269474"><ele>696.3333333333333</ele><time>2026-05-03T12:30:27.144Z</time></trkpt><trkpt lat="44.1950299" lon="8.1270328"><ele>698.0</ele><time>2026-05-03T12:30:28.145Z</time></trkpt><trkpt lat="44.1948776" lon="8.1270837"><ele>700.0</ele><time>2026-05-03T12:30:29.144Z</time></trkpt><trkpt lat="44.1947186" lon="8.1270882"><ele>702.0</ele><time>2026-05-03T12:30:30.144Z</time></trkpt><trkpt lat="44.1945591" lon="8.1270603"><ele>704.0</ele><time>2026-05-03T12:30:31.144Z</time></trkpt><trkpt lat="44.1943946" lon="8.1270083"><ele>704.0</ele><time>2026-05-03T12:30:32.144Z</time></trkpt><trkpt lat="44.1942292" lon="8.1269392"><ele>704.0</ele><time>2026-05-03T12:30:33.145Z</time></trkpt><trkpt lat="44.1940701" lon="8.1268538"><ele>704.0</ele><time>2026-05-03T12:30:34.144Z</time></trkpt><trkpt lat="44.1939194" lon="8.1267688"><ele>704.6666666666666</ele><time>2026-05-03T12:30:35.144Z</time></trkpt><trkpt lat="44.1937755" lon="8.126683"><ele>705.3333333333334</ele><time>2026-05-03T12:30:36.144Z</time></trkpt><trkpt lat="44.1936375" lon="8.1266012"><ele>706.0</ele><time>2026-05-03T12:30:37.144Z</time></trkpt><trkpt lat="44.1935062" lon="8.1265201"><ele>705.0</ele><time>2026-05-03T12:30:38.144Z</time></trkpt><trkpt lat="44.1933745" lon="8.1264739"><ele>704.0</ele><time>2026-05-03T12:30:39.145Z</time></trkpt><trkpt lat="44.1932394" lon="8.1264818"><ele>703.0</ele><time>2026-05-03T12:30:40.144Z</time></trkpt><trkpt lat="44.1931074" lon="8.1265675"><ele>702.0</ele><time>2026-05-03T12:30:41.144Z</time></trkpt><trkpt lat="44.1929664" lon="8.1266778"><ele>702.0</ele><time>2026-05-03T12:30:42.144Z</time></trkpt><trkpt lat="44.192812" lon="8.1267772"><ele>702.0</ele><time>2026-05-03T12:30:43.145Z</time></trkpt><trkpt lat="44.1926489" lon="8.1268696"><ele>702.0</ele><time>2026-05-03T12:30:44.144Z</time></trkpt><trkpt lat="44.192484" lon="8.1269659"><ele>701.0</ele><time>2026-05-03T12:30:45.144Z</time></trkpt><trkpt lat="44.192325" lon="8.1270819"><ele>700.0</ele><time>2026-05-03T12:30:46.144Z</time></trkpt><trkpt lat="44.1921871" lon="8.127214"><ele>699.0</ele><time>2026-05-03T12:30:47.144Z</time></trkpt><trkpt lat="44.1920528" lon="8.1273424"><ele>700.3333333333334</ele><time>2026-05-03T12:30:48.144Z</time></trkpt><trkpt lat="44.1919239" lon="8.1274676"><ele>701.6666666666667</ele><time>2026-05-03T12:30:49.145Z</time></trkpt><trkpt lat="44.1917892" lon="8.1275936"><ele>703.0</ele><time>2026-05-03T12:30:50.144Z</time></trkpt><trkpt lat="44.191651" lon="8.1277199"><ele>703.0</ele><time>2026-05-03T12:30:51.144Z</time></trkpt><trkpt lat="44.1915101" lon="8.1278406"><ele>703.0</ele><time>2026-05-03T12:30:52.144Z</time></trkpt><trkpt lat="44.1913737" lon="8.1279526"><ele>703.0</ele><time>2026-05-03T12:30:53.144Z</time></trkpt><trkpt lat="44.1912429" lon="8.1280582"><ele>703.0</ele><time>2026-05-03T12:30:54.144Z</time></trkpt><trkpt lat="44.1911149" lon="8.1281624"><ele>703.0</ele><time>2026-05-03T12:30:55.144Z</time></trkpt><trkpt lat="44.1909841" lon="8.1282704"><ele>703.0</ele><time>2026-05-03T12:30:56.145Z</time></trkpt><trkpt lat="44.1908532" lon="8.128371"><ele>703.0</ele><time>2026-05-03T12:30:57.144Z</time></trkpt><trkpt lat="44.1907115" lon="8.1284555"><ele>703.0</ele><time>2026-05-03T12:30:58.144Z</time></trkpt><trkpt lat="44.1905632" lon="8.1285237"><ele>703.0</ele><time>2026-05-03T12:30:59.144Z</time></trkpt><trkpt lat="44.1904079" lon="8.1285726"><ele>702.6666666666667</ele><time>2026-05-03T12:31:00.145Z</time></trkpt><trkpt lat="44.1902529" lon="8.1286127"><ele>702.3333333333334</ele><time>2026-05-03T12:31:01.144Z</time></trkpt><trkpt lat="44.1900976" lon="8.1286449"><ele>702.0</ele><time>2026-05-03T12:31:02.145Z</time></trkpt><trkpt lat="44.1899418" lon="8.1286818"><ele>701.6666666666666</ele><time>2026-05-03T12:31:03.144Z</time></trkpt><trkpt lat="44.1897849" lon="8.1287192"><ele>701.3333333333333</ele><time>2026-05-03T12:31:04.144Z</time></trkpt><trkpt lat="44.1896305" lon="8.1287568"><ele>701.0</ele><time>2026-05-03T12:31:05.144Z</time></trkpt><trkpt lat="44.1894735" lon="8.1287966"><ele>701.0</ele><time>2026-05-03T12:31:06.144Z</time></trkpt><trkpt lat="44.1893162" lon="8.1288327"><ele>701.0</ele><time>2026-05-03T12:31:07.144Z</time></trkpt><trkpt lat="44.1891578" lon="8.1288642"><ele>701.0</ele><time>2026-05-03T12:31:08.145Z</time></trkpt><trkpt lat="44.189005" lon="8.1289003"><ele>701.25</ele><time>2026-05-03T12:31:09.144Z</time></trkpt><trkpt lat="44.1888631" lon="8.1289339"><ele>701.5</ele><time>2026-05-03T12:31:10.144Z</time></trkpt><trkpt lat="44.1887289" lon="8.1289703"><ele>701.75</ele><time>2026-05-03T12:31:11.144Z</time></trkpt><trkpt lat="44.1886032" lon="8.1290074"><ele>702.0</ele><time>2026-05-03T12:31:12.145Z</time></trkpt><trkpt lat="44.1884916" lon="8.129045"><ele>702.1666666666666</ele><time>2026-05-03T12:31:13.144Z</time></trkpt><trkpt lat="44.1883859" lon="8.1290796"><ele>702.3333333333334</ele><time>2026-05-03T12:31:14.144Z</time></trkpt><trkpt lat="44.1882872" lon="8.1290951"><ele>702.5</ele><time>2026-05-03T12:31:15.144Z</time></trkpt><trkpt lat="44.1881998" lon="8.1291173"><ele>702.6666666666667</ele><time>2026-05-03T12:31:16.144Z</time></trkpt><trkpt lat="44.1881389" lon="8.1291597"><ele>702.8333333333334</ele><time>2026-05-03T12:31:17.144Z</time></trkpt><trkpt lat="44.1881061" lon="8.129242"><ele>703.0</ele><time>2026-05-03T12:31:18.144Z</time></trkpt><trkpt lat="44.1880996" lon="8.1293496"><ele>703.0</ele><time>2026-05-03T12:31:19.144Z</time></trkpt><trkpt lat="44.1881169" lon="8.1294715"><ele>703.0</ele><time>2026-05-03T12:31:20.144Z</time></trkpt><trkpt lat="44.1881419" lon="8.1296071"><ele>703.0</ele><time>2026-05-03T12:31:21.144Z</time></trkpt><trkpt lat="44.1881722" lon="8.1297592"><ele>703.0</ele><time>2026-05-03T12:31:22.144Z</time></trkpt><trkpt lat="44.1882095" lon="8.129902"><ele>703.0</ele><time>2026-05-03T12:31:23.144Z</time></trkpt><trkpt lat="44.1882547" lon="8.1300489"><ele>703.25</ele><time>2026-05-03T12:31:24.145Z</time></trkpt><trkpt lat="44.1883079" lon="8.1301964"><ele>703.5</ele><time>2026-05-03T12:31:25.144Z</time></trkpt><trkpt lat="44.1883676" lon="8.1303446"><ele>703.75</ele><time>2026-05-03T12:31:26.144Z</time></trkpt><trkpt lat="44.1884298" lon="8.1304947"><ele>704.0</ele><time>2026-05-03T12:31:27.144Z</time></trkpt><trkpt lat="44.1884926" lon="8.1306465"><ele>704.2</ele><time>2026-05-03T12:31:28.144Z</time></trkpt><trkpt lat="44.1885513" lon="8.1307805"><ele>704.4000000000001</ele><time>2026-05-03T12:31:29.144Z</time></trkpt><trkpt lat="44.1886068" lon="8.1309059"><ele>704.6</ele><time>2026-05-03T12:31:30.144Z</time></trkpt><trkpt lat="44.1886592" lon="8.1310211"><ele>704.8</ele><time>2026-05-03T12:31:31.144Z</time></trkpt><trkpt lat="44.1887063" lon="8.1311292"><ele>705.0</ele><time>2026-05-03T12:31:32.145Z</time></trkpt><trkpt lat="44.1887469" lon="8.1312247"><ele>705.0</ele><time>2026-05-03T12:31:33.144Z</time></trkpt><trkpt lat="44.1887861" lon="8.1313108"><ele>705.0</ele><time>2026-05-03T12:31:34.144Z</time></trkpt><trkpt lat="44.188811" lon="8.131392"><ele>705.0</ele><time>2026-05-03T12:31:35.144Z</time></trkpt><trkpt lat="44.188812" lon="8.1314815"><ele>705.0</ele><time>2026-05-03T12:31:36.144Z</time></trkpt><trkpt lat="44.1887808" lon="8.1315771"><ele>705.0</ele><time>2026-05-03T12:31:37.144Z</time></trkpt><trkpt lat="44.188721" lon="8.1316739"><ele>705.0</ele><time>2026-05-03T12:31:38.144Z</time></trkpt><trkpt lat="44.1886472" lon="8.1317778"><ele>705.25</ele><time>2026-05-03T12:31:39.144Z</time></trkpt><trkpt lat="44.1885567" lon="8.1318998"><ele>705.5</ele><time>2026-05-03T12:31:40.144Z</time></trkpt><trkpt lat="44.188461" lon="8.1320258"><ele>705.75</ele><time>2026-05-03T12:31:41.144Z</time></trkpt><trkpt lat="44.1883592" lon="8.1321419"><ele>706.0</ele><time>2026-05-03T12:31:42.144Z</time></trkpt><trkpt lat="44.1882449" lon="8.1322624"><ele>705.75</ele><time>2026-05-03T12:31:43.144Z</time></trkpt><trkpt lat="44.1881379" lon="8.1323732"><ele>705.5</ele><time>2026-05-03T12:31:44.145Z</time></trkpt><trkpt lat="44.188037" lon="8.1324778"><ele>705.25</ele><time>2026-05-03T12:31:45.144Z</time></trkpt><trkpt lat="44.1879432" lon="8.1325654"><ele>705.0</ele><time>2026-05-03T12:31:46.144Z</time></trkpt><trkpt lat="44.1878473" lon="8.1326605"><ele>705.0</ele><time>2026-05-03T12:31:47.145Z</time></trkpt><trkpt lat="44.187753" lon="8.1327647"><ele>705.0</ele><time>2026-05-03T12:31:48.144Z</time></trkpt><trkpt lat="44.1876638" lon="8.1328868"><ele>705.0</ele><time>2026-05-03T12:31:49.144Z</time></trkpt><trkpt lat="44.1875924" lon="8.1330391"><ele>705.0</ele><time>2026-05-03T12:31:50.144Z</time></trkpt><trkpt lat="44.187547" lon="8.1332228"><ele>705.5</ele><time>2026-05-03T12:31:51.144Z</time></trkpt><trkpt lat="44.1875225" lon="8.1334038"><ele>706.0</ele><time>2026-05-03T12:31:52.144Z</time></trkpt><trkpt lat="44.1875173" lon="8.1335755"><ele>706.5</ele><time>2026-05-03T12:31:53.144Z</time></trkpt><trkpt lat="44.1875118" lon="8.1337503"><ele>707.0</ele><time>2026-05-03T12:31:54.144Z</time></trkpt><trkpt lat="44.187496" lon="8.133936"><ele>707.0</ele><time>2026-05-03T12:31:55.144Z</time></trkpt><trkpt lat="44.1874574" lon="8.1341124"><ele>707.0</ele><time>2026-05-03T12:31:56.144Z</time></trkpt><trkpt lat="44.1874026" lon="8.1342871"><ele>707.0</ele><time>2026-05-03T12:31:57.144Z</time></trkpt><trkpt lat="44.1873423" lon="8.1344716"><ele>707.0</ele><time>2026-05-03T12:31:58.144Z</time></trkpt><trkpt lat="44.1872776" lon="8.1346735"><ele>707.0</ele><time>2026-05-03T12:31:59.144Z</time></trkpt><trkpt lat="44.1872064" lon="8.1348874"><ele>707.0</ele><time>2026-05-03T12:32:00.144Z</time></trkpt><trkpt lat="44.1871353" lon="8.1350873"><ele>707.0</ele><time>2026-05-03T12:32:01.144Z</time></trkpt><trkpt lat="44.1870644" lon="8.1352874"><ele>708.0</ele><time>2026-05-03T12:32:02.144Z</time></trkpt><trkpt lat="44.1869798" lon="8.1354873"><ele>709.0</ele><time>2026-05-03T12:32:03.144Z</time></trkpt><trkpt lat="44.1868999" lon="8.1356653"><ele>710.0</ele><time>2026-05-03T12:32:04.144Z</time></trkpt><trkpt lat="44.1868294" lon="8.1358388"><ele>710.5</ele><time>2026-05-03T12:32:05.144Z</time></trkpt><trkpt lat="44.1867657" lon="8.1360133"><ele>711.0</ele><time>2026-05-03T12:32:06.144Z</time></trkpt><trkpt lat="44.1867125" lon="8.1361973"><ele>711.5</ele><time>2026-05-03T12:32:07.145Z</time></trkpt><trkpt lat="44.1866626" lon="8.1363873"><ele>712.0</ele><time>2026-05-03T12:32:08.144Z</time></trkpt><trkpt lat="44.186613" lon="8.1365804"><ele>713.0</ele><time>2026-05-03T12:32:09.144Z</time></trkpt><trkpt lat="44.1865663" lon="8.1367755"><ele>714.0</ele><time>2026-05-03T12:32:10.144Z</time></trkpt><trkpt lat="44.1865185" lon="8.1369696"><ele>715.0</ele><time>2026-05-03T12:32:11.144Z</time></trkpt><trkpt lat="44.1864721" lon="8.1371614"><ele>716.0</ele><time>2026-05-03T12:32:12.145Z</time></trkpt><trkpt lat="44.1864252" lon="8.1373513"><ele>717.25</ele><time>2026-05-03T12:32:13.144Z</time></trkpt><trkpt lat="44.1863777" lon="8.1375395"><ele>718.5</ele><time>2026-05-03T12:32:14.145Z</time></trkpt><trkpt lat="44.1863344" lon="8.1377247"><ele>719.75</ele><time>2026-05-03T12:32:15.144Z</time></trkpt><trkpt lat="44.1862858" lon="8.1378957"><ele>721.0</ele><time>2026-05-03T12:32:16.144Z</time></trkpt><trkpt lat="44.186245" lon="8.1380581"><ele>721.0</ele><time>2026-05-03T12:32:17.144Z</time></trkpt><trkpt lat="44.1862065" lon="8.1382131"><ele>721.0</ele><time>2026-05-03T12:32:18.144Z</time></trkpt><trkpt lat="44.186168" lon="8.138365"><ele>721.0</ele><time>2026-05-03T12:32:19.144Z</time></trkpt><trkpt lat="44.1861261" lon="8.1385185"><ele>721.0</ele><time>2026-05-03T12:32:20.144Z</time></trkpt><trkpt lat="44.1860887" lon="8.1386641"><ele>721.8</ele><time>2026-05-03T12:32:21.144Z</time></trkpt><trkpt lat="44.1860465" lon="8.1388148"><ele>722.5999999999999</ele><time>2026-05-03T12:32:22.144Z</time></trkpt><trkpt lat="44.1860072" lon="8.1389582"><ele>723.4</ele><time>2026-05-03T12:32:23.145Z</time></trkpt><trkpt lat="44.1859698" lon="8.1390896"><ele>724.2</ele><time>2026-05-03T12:32:24.144Z</time></trkpt><trkpt lat="44.1859371" lon="8.1392242"><ele>725.0</ele><time>2026-05-03T12:32:25.144Z</time></trkpt><trkpt lat="44.185905" lon="8.1393491"><ele>725.0</ele><time>2026-05-03T12:32:26.144Z</time></trkpt><trkpt lat="44.1858755" lon="8.139461"><ele>725.0</ele><time>2026-05-03T12:32:27.144Z</time></trkpt><trkpt lat="44.1858465" lon="8.1395666"><ele>725.0</ele><time>2026-05-03T12:32:28.144Z</time></trkpt><trkpt lat="44.1858254" lon="8.1396595"><ele>725.0</ele><time>2026-05-03T12:32:29.144Z</time></trkpt><trkpt lat="44.1858055" lon="8.1397541"><ele>725.0</ele><time>2026-05-03T12:32:30.144Z</time></trkpt><trkpt lat="44.1857799" lon="8.1398612"><ele>725.0</ele><time>2026-05-03T12:32:31.144Z</time></trkpt><trkpt lat="44.185755" lon="8.1399835"><ele>725.2</ele><time>2026-05-03T12:32:32.145Z</time></trkpt><trkpt lat="44.1857237" lon="8.1401097"><ele>725.4</ele><time>2026-05-03T12:32:33.144Z</time></trkpt><trkpt lat="44.1856928" lon="8.1402414"><ele>725.5999999999999</ele><time>2026-05-03T12:32:34.144Z</time></trkpt><trkpt lat="44.1856534" lon="8.1403782"><ele>725.8</ele><time>2026-05-03T12:32:35.144Z</time></trkpt><trkpt lat="44.1856201" lon="8.1405133"><ele>726.0</ele><time>2026-05-03T12:32:36.144Z</time></trkpt><trkpt lat="44.1855904" lon="8.1406328"><ele>727.4</ele><time>2026-05-03T12:32:37.144Z</time></trkpt><trkpt lat="44.1855611" lon="8.1407536"><ele>728.8</ele><time>2026-05-03T12:32:38.144Z</time></trkpt><trkpt lat="44.1855311" lon="8.1408798"><ele>730.1999999999999</ele><time>2026-05-03T12:32:39.145Z</time></trkpt><trkpt lat="44.1855017" lon="8.1410074"><ele>731.5999999999999</ele><time>2026-05-03T12:32:40.144Z</time></trkpt><trkpt lat="44.1854731" lon="8.1411363"><ele>733.0</ele><time>2026-05-03T12:32:41.144Z</time></trkpt><trkpt lat="44.1854396" lon="8.1412634"><ele>733.0</ele><time>2026-05-03T12:32:42.145Z</time></trkpt><trkpt lat="44.1854086" lon="8.1413876"><ele>733.0</ele><time>2026-05-03T12:32:43.144Z</time></trkpt><trkpt lat="44.1853733" lon="8.1415069"><ele>733.0</ele><time>2026-05-03T12:32:44.145Z</time></trkpt><trkpt lat="44.1853432" lon="8.1416147"><ele>733.0</ele><time>2026-05-03T12:32:45.144Z</time></trkpt><trkpt lat="44.1853117" lon="8.1417189"><ele>733.0</ele><time>2026-05-03T12:32:46.144Z</time></trkpt><trkpt lat="44.1852824" lon="8.141816"><ele>733.0</ele><time>2026-05-03T12:32:47.145Z</time></trkpt><trkpt lat="44.1852578" lon="8.1419128"><ele>733.2</ele><time>2026-05-03T12:32:48.144Z</time></trkpt><trkpt lat="44.1852406" lon="8.1419989"><ele>733.4</ele><time>2026-05-03T12:32:49.144Z</time></trkpt><trkpt lat="44.1852148" lon="8.1421648"><ele>733.6</ele><time>2026-05-03T12:32:51.144Z</time></trkpt><trkpt lat="44.1851936" lon="8.1423417"><ele>733.8000000000001</ele><time>2026-05-03T12:32:53.144Z</time></trkpt><trkpt lat="44.1851816" lon="8.1424472"><ele>734.0</ele><time>2026-05-03T12:32:54.145Z</time></trkpt><trkpt lat="44.1851577" lon="8.14256"><ele>734.0</ele><time>2026-05-03T12:32:55.144Z</time></trkpt><trkpt lat="44.185114" lon="8.1426796"><ele>734.0</ele><time>2026-05-03T12:32:56.144Z</time></trkpt><trkpt lat="44.185053" lon="8.142803"><ele>734.0</ele><time>2026-05-03T12:32:57.146Z</time></trkpt><trkpt lat="44.1849919" lon="8.1429126"><ele>734.0</ele><time>2026-05-03T12:32:58.144Z</time></trkpt><trkpt lat="44.1849294" lon="8.1430247"><ele>734.0</ele><time>2026-05-03T12:32:59.144Z</time></trkpt><trkpt lat="44.1848613" lon="8.1431382"><ele>734.4000000000001</ele><time>2026-05-03T12:33:00.144Z</time></trkpt><trkpt lat="44.1847897" lon="8.1432521"><ele>734.8</ele><time>2026-05-03T12:33:01.144Z</time></trkpt><trkpt lat="44.1847204" lon="8.1433644"><ele>735.2</ele><time>2026-05-03T12:33:02.144Z</time></trkpt><trkpt lat="44.1846523" lon="8.1434776"><ele>735.5999999999999</ele><time>2026-05-03T12:33:03.144Z</time></trkpt><trkpt lat="44.184585" lon="8.1435942"><ele>736.0</ele><time>2026-05-03T12:33:04.144Z</time></trkpt><trkpt lat="44.1845193" lon="8.1437056"><ele>736.0</ele><time>2026-05-03T12:33:05.144Z</time></trkpt><trkpt lat="44.1844542" lon="8.1438128"><ele>736.0</ele><time>2026-05-03T12:33:06.144Z</time></trkpt><trkpt lat="44.1843874" lon="8.1439214"><ele>736.0</ele><time>2026-05-03T12:33:07.145Z</time></trkpt><trkpt lat="44.1843178" lon="8.1440369"><ele>736.0</ele><time>2026-05-03T12:33:08.144Z</time></trkpt><trkpt lat="44.1842496" lon="8.1441569"><ele>736.0</ele><time>2026-05-03T12:33:09.145Z</time></trkpt><trkpt lat="44.1841867" lon="8.1442804"><ele>736.0</ele><time>2026-05-03T12:33:10.144Z</time></trkpt><trkpt lat="44.1841306" lon="8.1444096"><ele>736.0</ele><time>2026-05-03T12:33:11.144Z</time></trkpt><trkpt lat="44.1840796" lon="8.1445405"><ele>736.0</ele><time>2026-05-03T12:33:12.144Z</time></trkpt><trkpt lat="44.1840337" lon="8.1446583"><ele>736.0</ele><time>2026-05-03T12:33:13.144Z</time></trkpt><trkpt lat="44.1840011" lon="8.1447428"><ele>736.0</ele><time>2026-05-03T12:33:14.144Z</time></trkpt><trkpt lat="44.1839691" lon="8.1448329"><ele>736.2857142857143</ele><time>2026-05-03T12:33:16.144Z</time></trkpt><trkpt lat="44.1839469" lon="8.1449205"><ele>736.5714285714286</ele><time>2026-05-03T12:33:19.145Z</time></trkpt><trkpt lat="44.1839949" lon="8.1449871"><ele>736.8571428571429</ele><time>2026-05-03T12:33:21.144Z</time></trkpt><trkpt lat="44.1840248" lon="8.1450792"><ele>737.1428571428571</ele><time>2026-05-03T12:33:23.144Z</time></trkpt><trkpt lat="44.1840306" lon="8.1451708"><ele>737.4285714285713</ele><time>2026-05-03T12:33:24.144Z</time></trkpt><trkpt lat="44.1840327" lon="8.1452874"><ele>737.7142857142857</ele><time>2026-05-03T12:33:25.144Z</time></trkpt><trkpt lat="44.1840349" lon="8.1454058"><ele>738.0</ele><time>2026-05-03T12:33:26.145Z</time></trkpt><trkpt lat="44.184035" lon="8.1455298"><ele>738.4</ele><time>2026-05-03T12:33:27.144Z</time></trkpt><trkpt lat="44.1840359" lon="8.1456545"><ele>738.8</ele><time>2026-05-03T12:33:28.145Z</time></trkpt><trkpt lat="44.1840371" lon="8.1457842"><ele>739.2</ele><time>2026-05-03T12:33:29.144Z</time></trkpt><trkpt lat="44.1840361" lon="8.145918"><ele>739.6</ele><time>2026-05-03T12:33:30.144Z</time></trkpt><trkpt lat="44.1840347" lon="8.1460612"><ele>740.0</ele><time>2026-05-03T12:33:31.145Z</time></trkpt><trkpt lat="44.1840359" lon="8.1462103"><ele>740.2</ele><time>2026-05-03T12:33:32.144Z</time></trkpt><trkpt lat="44.1840361" lon="8.1463624"><ele>740.4</ele><time>2026-05-03T12:33:33.145Z</time></trkpt><trkpt lat="44.1840346" lon="8.1465163"><ele>740.5999999999999</ele><time>2026-05-03T12:33:34.144Z</time></trkpt><trkpt lat="44.1840272" lon="8.1466616"><ele>740.8</ele><time>2026-05-03T12:33:35.145Z</time></trkpt><trkpt lat="44.1840217" lon="8.1468087"><ele>741.0</ele><time>2026-05-03T12:33:36.144Z</time></trkpt><trkpt lat="44.1840132" lon="8.1469621"><ele>741.75</ele><time>2026-05-03T12:33:37.144Z</time></trkpt><trkpt lat="44.1839982" lon="8.1471157"><ele>742.5</ele><time>2026-05-03T12:33:38.144Z</time></trkpt><trkpt lat="44.1839787" lon="8.1472688"><ele>743.25</ele><time>2026-05-03T12:33:39.145Z</time></trkpt><trkpt lat="44.1839566" lon="8.1474254"><ele>744.0</ele><time>2026-05-03T12:33:40.144Z</time></trkpt><trkpt lat="44.1839274" lon="8.147588"><ele>744.25</ele><time>2026-05-03T12:33:41.144Z</time></trkpt><trkpt lat="44.183891" lon="8.1477522"><ele>744.5</ele><time>2026-05-03T12:33:42.145Z</time></trkpt><trkpt lat="44.1838435" lon="8.1479103"><ele>744.75</ele><time>2026-05-03T12:33:43.144Z</time></trkpt><trkpt lat="44.1837963" lon="8.1480653"><ele>745.0</ele><time>2026-05-03T12:33:44.144Z</time></trkpt><trkpt lat="44.1837501" lon="8.1482205"><ele>746.25</ele><time>2026-05-03T12:33:45.144Z</time></trkpt><trkpt lat="44.1837115" lon="8.1483791"><ele>747.5</ele><time>2026-05-03T12:33:46.144Z</time></trkpt><trkpt lat="44.1836798" lon="8.1485426"><ele>748.75</ele><time>2026-05-03T12:33:47.144Z</time></trkpt><trkpt lat="44.1836571" lon="8.1487091"><ele>750.0</ele><time>2026-05-03T12:33:48.144Z</time></trkpt><trkpt lat="44.1836358" lon="8.1488775"><ele>750.0</ele><time>2026-05-03T12:33:49.144Z</time></trkpt><trkpt lat="44.1836106" lon="8.1490494"><ele>750.0</ele><time>2026-05-03T12:33:50.144Z</time></trkpt><trkpt lat="44.1835799" lon="8.1492245"><ele>750.0</ele><time>2026-05-03T12:33:51.144Z</time></trkpt><trkpt lat="44.1835438" lon="8.1493979"><ele>750.0</ele><time>2026-05-03T12:33:52.144Z</time></trkpt><trkpt lat="44.1835041" lon="8.1495649"><ele>750.0</ele><time>2026-05-03T12:33:53.144Z</time></trkpt><trkpt lat="44.1834605" lon="8.1497202"><ele>750.0</ele><time>2026-05-03T12:33:54.144Z</time></trkpt><trkpt lat="44.1834204" lon="8.149862"><ele>750.0</ele><time>2026-05-03T12:33:55.145Z</time></trkpt><trkpt lat="44.1833932" lon="8.1499914"><ele>750.0</ele><time>2026-05-03T12:33:56.144Z</time></trkpt><trkpt lat="44.183392" lon="8.150119"><ele>750.0</ele><time>2026-05-03T12:33:57.144Z</time></trkpt><trkpt lat="44.1834204" lon="8.1502546"><ele>749.5</ele><time>2026-05-03T12:33:58.144Z</time></trkpt><trkpt lat="44.1834762" lon="8.1503907"><ele>749.0</ele><time>2026-05-03T12:33:59.144Z</time></trkpt><trkpt lat="44.1835338" lon="8.150535"><ele>748.5</ele><time>2026-05-03T12:34:00.144Z</time></trkpt><trkpt lat="44.1835816" lon="8.1506802"><ele>748.0</ele><time>2026-05-03T12:34:01.145Z</time></trkpt><trkpt lat="44.1836137" lon="8.1508334"><ele>747.5</ele><time>2026-05-03T12:34:02.144Z</time></trkpt><trkpt lat="44.1836211" lon="8.1509923"><ele>747.0</ele><time>2026-05-03T12:34:03.145Z</time></trkpt><trkpt lat="44.1836041" lon="8.1511542"><ele>746.5</ele><time>2026-05-03T12:34:04.144Z</time></trkpt><trkpt lat="44.1835721" lon="8.1513077"><ele>746.0</ele><time>2026-05-03T12:34:05.144Z</time></trkpt><trkpt lat="44.1835421" lon="8.1514595"><ele>746.25</ele><time>2026-05-03T12:34:06.144Z</time></trkpt><trkpt lat="44.1835132" lon="8.1516194"><ele>746.5</ele><time>2026-05-03T12:34:07.145Z</time></trkpt><trkpt lat="44.1834971" lon="8.1517859"><ele>746.75</ele><time>2026-05-03T12:34:08.144Z</time></trkpt><trkpt lat="44.1834835" lon="8.1519576"><ele>747.0</ele><time>2026-05-03T12:34:09.144Z</time></trkpt><trkpt lat="44.1834612" lon="8.1521336"><ele>747.0</ele><time>2026-05-03T12:34:10.144Z</time></trkpt><trkpt lat="44.1834293" lon="8.1523063"><ele>747.0</ele><time>2026-05-03T12:34:11.144Z</time></trkpt><trkpt lat="44.1833866" lon="8.1524689"><ele>747.0</ele><time>2026-05-03T12:34:12.144Z</time></trkpt><trkpt lat="44.1833231" lon="8.1526131"><ele>747.0</ele><time>2026-05-03T12:34:13.144Z</time></trkpt><trkpt lat="44.1832454" lon="8.1527273"><ele>748.2</ele><time>2026-05-03T12:34:14.145Z</time></trkpt><trkpt lat="44.1831695" lon="8.1528096"><ele>749.4000000000001</ele><time>2026-05-03T12:34:15.144Z</time></trkpt><trkpt lat="44.1830991" lon="8.1528757"><ele>750.5999999999999</ele><time>2026-05-03T12:34:16.144Z</time></trkpt><trkpt lat="44.1830251" lon="8.1529304"><ele>751.8</ele><time>2026-05-03T12:34:17.145Z</time></trkpt><trkpt lat="44.1829344" lon="8.1529663"><ele>753.0</ele><time>2026-05-03T12:34:18.145Z</time></trkpt><trkpt lat="44.1828342" lon="8.1529983"><ele>753.0</ele><time>2026-05-03T12:34:19.144Z</time></trkpt><trkpt lat="44.1827403" lon="8.1530511"><ele>753.0</ele><time>2026-05-03T12:34:20.144Z</time></trkpt><trkpt lat="44.1826516" lon="8.1531172"><ele>753.0</ele><time>2026-05-03T12:34:21.144Z</time></trkpt><trkpt lat="44.182565" lon="8.1531933"><ele>753.0</ele><time>2026-05-03T12:34:22.144Z</time></trkpt><trkpt lat="44.1824778" lon="8.1532723"><ele>753.0</ele><time>2026-05-03T12:34:23.144Z</time></trkpt><trkpt lat="44.1823956" lon="8.1533571"><ele>753.5999999999999</ele><time>2026-05-03T12:34:24.144Z</time></trkpt><trkpt lat="44.1823303" lon="8.1534559"><ele>754.1999999999999</ele><time>2026-05-03T12:34:25.144Z</time></trkpt><trkpt lat="44.1822845" lon="8.1535739"><ele>754.8</ele><time>2026-05-03T12:34:26.144Z</time></trkpt><trkpt lat="44.1822693" lon="8.1537143"><ele>755.4</ele><time>2026-05-03T12:34:27.145Z</time></trkpt><trkpt lat="44.1822734" lon="8.1538698"><ele>756.0</ele><time>2026-05-03T12:34:28.144Z</time></trkpt><trkpt lat="44.182283" lon="8.1540239"><ele>756.1999999999999</ele><time>2026-05-03T12:34:29.144Z</time></trkpt><trkpt lat="44.1822838" lon="8.1541744"><ele>756.4</ele><time>2026-05-03T12:34:30.144Z</time></trkpt><trkpt lat="44.1822719" lon="8.1543241"><ele>756.6</ele><time>2026-05-03T12:34:31.144Z</time></trkpt><trkpt lat="44.1822575" lon="8.1544644"><ele>756.8</ele><time>2026-05-03T12:34:32.144Z</time></trkpt><trkpt lat="44.1822453" lon="8.1545858"><ele>757.0</ele><time>2026-05-03T12:34:33.144Z</time></trkpt><trkpt lat="44.1822325" lon="8.1547122"><ele>757.0</ele><time>2026-05-03T12:34:34.144Z</time></trkpt><trkpt lat="44.1822161" lon="8.1548469"><ele>757.0</ele><time>2026-05-03T12:34:35.144Z</time></trkpt><trkpt lat="44.1821938" lon="8.15499"><ele>757.0</ele><time>2026-05-03T12:34:36.144Z</time></trkpt><trkpt lat="44.1821636" lon="8.155131"><ele>757.0</ele><time>2026-05-03T12:34:37.144Z</time></trkpt><trkpt lat="44.1821284" lon="8.1552534"><ele>757.0</ele><time>2026-05-03T12:34:38.145Z</time></trkpt><trkpt lat="44.1820966" lon="8.1553626"><ele>757.4000000000001</ele><time>2026-05-03T12:34:39.144Z</time></trkpt><trkpt lat="44.1820677" lon="8.1554726"><ele>757.8000000000001</ele><time>2026-05-03T12:34:40.145Z</time></trkpt><trkpt lat="44.1820355" lon="8.155582"><ele>758.2</ele><time>2026-05-03T12:34:41.144Z</time></trkpt><trkpt lat="44.1820009" lon="8.1557011"><ele>758.6</ele><time>2026-05-03T12:34:42.144Z</time></trkpt><trkpt lat="44.1819685" lon="8.1558357"><ele>759.0</ele><time>2026-05-03T12:34:43.144Z</time></trkpt><trkpt lat="44.1819463" lon="8.1559779"><ele>759.2</ele><time>2026-05-03T12:34:44.144Z</time></trkpt><trkpt lat="44.1819395" lon="8.1561265"><ele>759.4000000000001</ele><time>2026-05-03T12:34:45.144Z</time></trkpt><trkpt lat="44.1819479" lon="8.1562798"><ele>759.6</ele><time>2026-05-03T12:34:46.144Z</time></trkpt><trkpt lat="44.1819778" lon="8.1564281"><ele>759.8</ele><time>2026-05-03T12:34:47.144Z</time></trkpt><trkpt lat="44.1820152" lon="8.1565705"><ele>760.0</ele><time>2026-05-03T12:34:48.144Z</time></trkpt><trkpt lat="44.1820488" lon="8.156717"><ele>761.0</ele><time>2026-05-03T12:34:49.144Z</time></trkpt><trkpt lat="44.1820774" lon="8.1568681"><ele>762.0</ele><time>2026-05-03T12:34:50.144Z</time></trkpt><trkpt lat="44.1820707" lon="8.1570205"><ele>763.0</ele><time>2026-05-03T12:34:51.144Z</time></trkpt><trkpt lat="44.1820667" lon="8.1571745"><ele>764.0</ele><time>2026-05-03T12:34:52.144Z</time></trkpt><trkpt lat="44.1820112" lon="8.1573068"><ele>765.0</ele><time>2026-05-03T12:34:53.144Z</time></trkpt><trkpt lat="44.1819499" lon="8.1574339"><ele>765.8</ele><time>2026-05-03T12:34:54.144Z</time></trkpt><trkpt lat="44.1818844" lon="8.157563"><ele>766.6</ele><time>2026-05-03T12:34:55.144Z</time></trkpt><trkpt lat="44.1818308" lon="8.1577033"><ele>767.4000000000001</ele><time>2026-05-03T12:34:56.145Z</time></trkpt><trkpt lat="44.1818241" lon="8.1578422"><ele>768.2</ele><time>2026-05-03T12:34:57.144Z</time></trkpt><trkpt lat="44.1818415" lon="8.1579795"><ele>769.0</ele><time>2026-05-03T12:34:58.144Z</time></trkpt><trkpt lat="44.1818746" lon="8.1581191"><ele>769.2</ele><time>2026-05-03T12:34:59.144Z</time></trkpt><trkpt lat="44.1819398" lon="8.1582359"><ele>769.4000000000001</ele><time>2026-05-03T12:35:00.145Z</time></trkpt><trkpt lat="44.1820027" lon="8.1583372"><ele>769.6</ele><time>2026-05-03T12:35:01.144Z</time></trkpt><trkpt lat="44.1820464" lon="8.158445"><ele>769.8</ele><time>2026-05-03T12:35:02.145Z</time></trkpt><trkpt lat="44.1820692" lon="8.158584"><ele>770.0</ele><time>2026-05-03T12:35:03.144Z</time></trkpt><trkpt lat="44.1820759" lon="8.1587357"><ele>770.0</ele><time>2026-05-03T12:35:04.144Z</time></trkpt><trkpt lat="44.1820809" lon="8.1588949"><ele>770.0</ele><time>2026-05-03T12:35:05.145Z</time></trkpt><trkpt lat="44.1820826" lon="8.1590645"><ele>770.0</ele><time>2026-05-03T12:35:06.144Z</time></trkpt><trkpt lat="44.1820728" lon="8.1592363"><ele>770.0</ele><time>2026-05-03T12:35:07.144Z</time></trkpt><trkpt lat="44.1820618" lon="8.1594"><ele>771.3333333333334</ele><time>2026-05-03T12:35:08.144Z</time></trkpt><trkpt lat="44.1820461" lon="8.1595648"><ele>772.6666666666667</ele><time>2026-05-03T12:35:09.144Z</time></trkpt><trkpt lat="44.1820276" lon="8.1597264"><ele>774.0</ele><time>2026-05-03T12:35:10.144Z</time></trkpt><trkpt lat="44.1819574" lon="8.1600973"><ele>775.4000000000001</ele><time>2026-05-03T12:35:13.057Z</time></trkpt><trkpt lat="44.1819057" lon="8.1602841"><ele>776.8</ele><time>2026-05-03T12:35:14.144Z</time></trkpt><trkpt lat="44.1818674" lon="8.160425"><ele>778.2</ele><time>2026-05-03T12:35:15.144Z</time></trkpt><trkpt lat="44.1818392" lon="8.1605546"><ele>779.5999999999999</ele><time>2026-05-03T12:35:16.145Z</time></trkpt><trkpt lat="44.1818253" lon="8.1606643"><ele>781.0</ele><time>2026-05-03T12:35:17.144Z</time></trkpt><trkpt lat="44.1818243" lon="8.1607657"><ele>783.0</ele><time>2026-05-03T12:35:18.144Z</time></trkpt><trkpt lat="44.18183" lon="8.1608692"><ele>785.0</ele><time>2026-05-03T12:35:19.144Z</time></trkpt><trkpt lat="44.1818802" lon="8.1609702"><ele>787.0</ele><time>2026-05-03T12:35:20.144Z</time></trkpt><trkpt lat="44.181924" lon="8.1610855"><ele>789.0</ele><time>2026-05-03T12:35:21.144Z</time></trkpt><trkpt lat="44.1819731" lon="8.1612074"><ele>791.0</ele><time>2026-05-03T12:35:22.144Z</time></trkpt><trkpt lat="44.1820213" lon="8.1613348"><ele>791.0</ele><time>2026-05-03T12:35:23.144Z</time></trkpt><trkpt lat="44.1820676" lon="8.1614609"><ele>791.0</ele><time>2026-05-03T12:35:24.144Z</time></trkpt><trkpt lat="44.182127" lon="8.1615841"><ele>791.0</ele><time>2026-05-03T12:35:25.144Z</time></trkpt><trkpt lat="44.1821811" lon="8.1617192"><ele>791.0</ele><time>2026-05-03T12:35:26.144Z</time></trkpt><trkpt lat="44.1822261" lon="8.1618442"><ele>791.0</ele><time>2026-05-03T12:35:27.144Z</time></trkpt><trkpt lat="44.1822485" lon="8.1619704"><ele>792.8</ele><time>2026-05-03T12:35:28.144Z</time></trkpt><trkpt lat="44.1822549" lon="8.1621039"><ele>794.5999999999999</ele><time>2026-05-03T12:35:29.144Z</time></trkpt><trkpt lat="44.1822433" lon="8.1622432"><ele>796.4</ele><time>2026-05-03T12:35:30.144Z</time></trkpt><trkpt lat="44.1822301" lon="8.1623831"><ele>798.2</ele><time>2026-05-03T12:35:31.145Z</time></trkpt><trkpt lat="44.1822416" lon="8.162519"><ele>800.0</ele><time>2026-05-03T12:35:32.145Z</time></trkpt><trkpt lat="44.1822635" lon="8.1626416"><ele>800.6666666666667</ele><time>2026-05-03T12:35:33.144Z</time></trkpt><trkpt lat="44.1822793" lon="8.1627475"><ele>801.3333333333334</ele><time>2026-05-03T12:35:34.144Z</time></trkpt><trkpt lat="44.1822866" lon="8.1628569"><ele>802.0</ele><time>2026-05-03T12:35:35.144Z</time></trkpt><trkpt lat="44.1823169" lon="8.1630132"><ele>802.6666666666667</ele><time>2026-05-03T12:35:37.144Z</time></trkpt><trkpt lat="44.1823422" lon="8.1631108"><ele>803.3333333333334</ele><time>2026-05-03T12:35:39.145Z</time></trkpt><trkpt lat="44.182386" lon="8.1632048"><ele>804.0</ele><time>2026-05-03T12:37:23.144Z</time></trkpt><trkpt lat="44.1824243" lon="8.1633177"><ele>804.0</ele><time>2026-05-03T12:37:24.145Z</time></trkpt><trkpt lat="44.1824684" lon="8.1634589"><ele>804.0</ele><time>2026-05-03T12:37:25.144Z</time></trkpt><trkpt lat="44.1825154" lon="8.1636272"><ele>804.0</ele><time>2026-05-03T12:37:26.145Z</time></trkpt><trkpt lat="44.1825718" lon="8.1638017"><ele>804.0</ele><time>2026-05-03T12:37:27.144Z</time></trkpt><trkpt lat="44.1826297" lon="8.1639819"><ele>806.0</ele><time>2026-05-03T12:37:28.144Z</time></trkpt><trkpt lat="44.1826822" lon="8.1641585"><ele>808.0</ele><time>2026-05-03T12:37:29.145Z</time></trkpt><trkpt lat="44.1827439" lon="8.1643146"><ele>810.0</ele><time>2026-05-03T12:37:30.144Z</time></trkpt><trkpt lat="44.1828066" lon="8.1644668"><ele>812.0</ele><time>2026-05-03T12:37:31.145Z</time></trkpt><trkpt lat="44.1828503" lon="8.1645925"><ele>812.0000000000001</ele><time>2026-05-03T12:37:32.145Z</time></trkpt><trkpt lat="44.1828953" lon="8.1647066"><ele>812.0</ele><time>2026-05-03T12:37:33.144Z</time></trkpt><trkpt lat="44.1829136" lon="8.1648266"><ele>812.0</ele><time>2026-05-03T12:37:34.145Z</time></trkpt><trkpt lat="44.1829264" lon="8.1649414"><ele>812.0</ele><time>2026-05-03T12:37:35.144Z</time></trkpt><trkpt lat="44.182926" lon="8.1650603"><ele>812.0000000000001</ele><time>2026-05-03T12:37:36.145Z</time></trkpt><trkpt lat="44.1829296" lon="8.1651847"><ele>812.0</ele><time>2026-05-03T12:37:37.144Z</time></trkpt><trkpt lat="44.182932" lon="8.1653015"><ele>814.0000000000001</ele><time>2026-05-03T12:37:38.144Z</time></trkpt><trkpt lat="44.1829393" lon="8.1654071"><ele>816.0</ele><time>2026-05-03T12:37:39.145Z</time></trkpt><trkpt lat="44.1829491" lon="8.1655204"><ele>818.0</ele><time>2026-05-03T12:37:40.144Z</time></trkpt><trkpt lat="44.1829667" lon="8.1656509"><ele>820.0</ele><time>2026-05-03T12:37:41.144Z</time></trkpt><trkpt lat="44.1829993" lon="8.1657888"><ele>822.0000000000001</ele><time>2026-05-03T12:37:42.144Z</time></trkpt><trkpt lat="44.183019" lon="8.1659077"><ele>824.0</ele><time>2026-05-03T12:37:43.145Z</time></trkpt><trkpt lat="44.1830285" lon="8.1660377"><ele>826.0</ele><time>2026-05-03T12:37:44.144Z</time></trkpt><trkpt lat="44.1830313" lon="8.1661635"><ele>828.0</ele><time>2026-05-03T12:37:45.145Z</time></trkpt><trkpt lat="44.1830369" lon="8.1662733"><ele>830.0</ele><time>2026-05-03T12:37:46.144Z</time></trkpt><trkpt lat="44.1830472" lon="8.1663794"><ele>832.0</ele><time>2026-05-03T12:37:47.144Z</time></trkpt><trkpt lat="44.1830396" lon="8.1665325"><ele>834.0</ele><time>2026-05-03T12:37:49.144Z</time></trkpt><trkpt lat="44.1830043" lon="8.1667078"><ele>834.6666666666666</ele><time>2026-05-03T12:37:51.144Z</time></trkpt><trkpt lat="44.1829744" lon="8.1668241"><ele>835.3333333333333</ele><time>2026-05-03T12:37:52.144Z</time></trkpt><trkpt lat="44.182947" lon="8.1669485"><ele>836.0</ele><time>2026-05-03T12:37:53.144Z</time></trkpt><trkpt lat="44.1829428" lon="8.1670659"><ele>836.6666666666666</ele><time>2026-05-03T12:37:54.144Z</time></trkpt><trkpt lat="44.182943" lon="8.1671829"><ele>837.3333333333333</ele><time>2026-05-03T12:37:55.144Z</time></trkpt><trkpt lat="44.1829484" lon="8.1673062"><ele>838.0</ele><time>2026-05-03T12:37:56.145Z</time></trkpt><trkpt lat="44.1829584" lon="8.1674382"><ele>838.25</ele><time>2026-05-03T12:37:57.145Z</time></trkpt><trkpt lat="44.1829617" lon="8.1675651"><ele>838.5</ele><time>2026-05-03T12:37:58.145Z</time></trkpt><trkpt lat="44.182894" lon="8.1677309"><ele>838.75</ele><time>2026-05-03T12:37:59.145Z</time></trkpt><trkpt lat="44.1828712" lon="8.1678803"><ele>839.0</ele><time>2026-05-03T12:38:00.145Z</time></trkpt><trkpt lat="44.1828409" lon="8.1680477"><ele>840.25</ele><time>2026-05-03T12:38:01.145Z</time></trkpt><trkpt lat="44.1828089" lon="8.168225"><ele>841.5</ele><time>2026-05-03T12:38:02.145Z</time></trkpt><trkpt lat="44.1827612" lon="8.1683664"><ele>842.75</ele><time>2026-05-03T12:38:03.144Z</time></trkpt><trkpt lat="44.1827133" lon="8.1685168"><ele>844.0</ele><time>2026-05-03T12:38:04.144Z</time></trkpt><trkpt lat="44.1826636" lon="8.1686564"><ele>844.0</ele><time>2026-05-03T12:38:05.144Z</time></trkpt><trkpt lat="44.1826191" lon="8.1687866"><ele>844.0</ele><time>2026-05-03T12:38:06.144Z</time></trkpt><trkpt lat="44.1825496" lon="8.1689193"><ele>844.0</ele><time>2026-05-03T12:38:07.144Z</time></trkpt><trkpt lat="44.1824923" lon="8.1690545"><ele>844.0</ele><time>2026-05-03T12:38:08.144Z</time></trkpt><trkpt lat="44.182446" lon="8.1691876"><ele>844.0</ele><time>2026-05-03T12:38:09.145Z</time></trkpt><trkpt lat="44.1824041" lon="8.1693008"><ele>844.9999999999999</ele><time>2026-05-03T12:38:10.144Z</time></trkpt><trkpt lat="44.1823694" lon="8.1693927"><ele>846.0</ele><time>2026-05-03T12:38:11.145Z</time></trkpt><trkpt lat="44.1823304" lon="8.1695063"><ele>847.0</ele><time>2026-05-03T12:38:12.144Z</time></trkpt><trkpt lat="44.1823127" lon="8.1695943"><ele>848.0</ele><time>2026-05-03T12:38:13.144Z</time></trkpt><trkpt lat="44.1823142" lon="8.1697085"><ele>848.9999999999999</ele><time>2026-05-03T12:38:14.144Z</time></trkpt><trkpt lat="44.1822986" lon="8.169826"><ele>850.0</ele><time>2026-05-03T12:38:15.145Z</time></trkpt><trkpt lat="44.1823336" lon="8.1699773"><ele>851.8</ele><time>2026-05-03T12:38:16.144Z</time></trkpt><trkpt lat="44.1823529" lon="8.170119"><ele>853.6</ele><time>2026-05-03T12:38:17.144Z</time></trkpt><trkpt lat="44.1823677" lon="8.1702332"><ele>855.4000000000001</ele><time>2026-05-03T12:38:18.144Z</time></trkpt><trkpt lat="44.1823978" lon="8.170379"><ele>857.2</ele><time>2026-05-03T12:38:19.144Z</time></trkpt><trkpt lat="44.1823986" lon="8.1705019"><ele>859.0</ele><time>2026-05-03T12:38:20.144Z</time></trkpt><trkpt lat="44.1823882" lon="8.170617"><ele>861.0</ele><time>2026-05-03T12:38:21.144Z</time></trkpt><trkpt lat="44.1823754" lon="8.1707196"><ele>863.0000000000001</ele><time>2026-05-03T12:38:22.144Z</time></trkpt><trkpt lat="44.182365" lon="8.1708261"><ele>865.0000000000001</ele><time>2026-05-03T12:38:23.144Z</time></trkpt><trkpt lat="44.1823992" lon="8.1709529"><ele>867.0</ele><time>2026-05-03T12:38:24.146Z</time></trkpt><trkpt lat="44.1824339" lon="8.1711102"><ele>869.0</ele><time>2026-05-03T12:38:25.144Z</time></trkpt><trkpt lat="44.1824497" lon="8.171241"><ele>869.0000000000001</ele><time>2026-05-03T12:38:26.144Z</time></trkpt><trkpt lat="44.1824857" lon="8.1713497"><ele>869.0</ele><time>2026-05-03T12:38:27.144Z</time></trkpt><trkpt lat="44.1825007" lon="8.171459"><ele>869.0</ele><time>2026-05-03T12:38:28.145Z</time></trkpt><trkpt lat="44.1825449" lon="8.1715354"><ele>869.0</ele><time>2026-05-03T12:38:29.144Z</time></trkpt><trkpt lat="44.1825097" lon="8.1716225"><ele>869.0000000000001</ele><time>2026-05-03T12:38:30.144Z</time></trkpt><trkpt lat="44.182501" lon="8.1717758"><ele>869.0</ele><time>2026-05-03T12:38:32.144Z</time></trkpt><trkpt lat="44.1824868" lon="8.1718948"><ele>870.6666666666667</ele><time>2026-05-03T12:38:34.144Z</time></trkpt><trkpt lat="44.1824747" lon="8.172061"><ele>872.3333333333334</ele><time>2026-05-03T12:38:36.145Z</time></trkpt><trkpt lat="44.1824646" lon="8.1721755"><ele>874.0</ele><time>2026-05-03T12:38:37.145Z</time></trkpt><trkpt lat="44.1824624" lon="8.1722933"><ele>875.6666666666667</ele><time>2026-05-03T12:38:38.145Z</time></trkpt><trkpt lat="44.1824264" lon="8.1723654"><ele>877.3333333333334</ele><time>2026-05-03T12:38:39.145Z</time></trkpt><trkpt lat="44.1823661" lon="8.1724406"><ele>879.0</ele><time>2026-05-03T12:38:40.144Z</time></trkpt><trkpt lat="44.1823248" lon="8.1725186"><ele>883.0</ele><time>2026-05-03T12:38:41.144Z</time></trkpt><trkpt lat="44.1822908" lon="8.1726172"><ele>887.0</ele><time>2026-05-03T12:38:42.144Z</time></trkpt><trkpt lat="44.1822559" lon="8.1727484"><ele>891.0</ele><time>2026-05-03T12:38:43.145Z</time></trkpt><trkpt lat="44.1822599" lon="8.1728847"><ele>895.0</ele><time>2026-05-03T12:38:44.145Z</time></trkpt><trkpt lat="44.182268" lon="8.1729854"><ele>899.0</ele><time>2026-05-03T12:38:45.144Z</time></trkpt><trkpt lat="44.1822767" lon="8.1730925"><ele>903.0</ele><time>2026-05-03T12:38:46.144Z</time></trkpt><trkpt lat="44.1822815" lon="8.173207"><ele>903.5</ele><time>2026-05-03T12:38:47.145Z</time></trkpt><trkpt lat="44.1823171" lon="8.1733187"><ele>904.0</ele><time>2026-05-03T12:38:48.144Z</time></trkpt><trkpt lat="44.1823169" lon="8.1734251"><ele>904.5</ele><time>2026-05-03T12:38:49.145Z</time></trkpt><trkpt lat="44.1823353" lon="8.1735147"><ele>905.0</ele><time>2026-05-03T12:38:50.145Z</time></trkpt><trkpt lat="44.1823385" lon="8.1736265"><ele>905.5</ele><time>2026-05-03T12:38:51.145Z</time></trkpt><trkpt lat="44.1823242" lon="8.1737508"><ele>906.0</ele><time>2026-05-03T12:38:52.144Z</time></trkpt><trkpt lat="44.1823458" lon="8.1738789"><ele>903.3333333333334</ele><time>2026-05-03T12:38:53.144Z</time></trkpt><trkpt lat="44.1823637" lon="8.1739992"><ele>900.6666666666667</ele><time>2026-05-03T12:38:54.144Z</time></trkpt><trkpt lat="44.1824194" lon="8.1740959"><ele>898.0</ele><time>2026-05-03T12:38:55.144Z</time></trkpt><trkpt lat="44.182486" lon="8.1742132"><ele>895.3333333333334</ele><time>2026-05-03T12:38:56.146Z</time></trkpt><trkpt lat="44.182517" lon="8.174313"><ele>892.6666666666667</ele><time>2026-05-03T12:38:57.145Z</time></trkpt><trkpt lat="44.18253" lon="8.1744295"><ele>890.0</ele><time>2026-05-03T12:38:58.145Z</time></trkpt><trkpt lat="44.1825486" lon="8.174536"><ele>890.0</ele><time>2026-05-03T12:38:59.145Z</time></trkpt><trkpt lat="44.1825404" lon="8.1747071"><ele>890.0</ele><time>2026-05-03T12:39:01.146Z</time></trkpt><trkpt lat="44.1825276" lon="8.1748153"><ele>890.0</ele><time>2026-05-03T12:39:03.145Z</time></trkpt><trkpt lat="44.1825177" lon="8.1749277"><ele>890.0</ele><time>2026-05-03T12:39:05.145Z</time></trkpt><trkpt lat="44.1825528" lon="8.1750395"><ele>890.0</ele><time>2026-05-03T12:39:07.146Z</time></trkpt><trkpt lat="44.1826035" lon="8.1752172"><ele>890.8333333333334</ele><time>2026-05-03T12:39:09.145Z</time></trkpt><trkpt lat="44.1826351" lon="8.1753162"><ele>891.6666666666667</ele><time>2026-05-03T12:39:10.145Z</time></trkpt><trkpt lat="44.1826675" lon="8.1754184"><ele>892.5</ele><time>2026-05-03T12:39:11.146Z</time></trkpt><trkpt lat="44.1826789" lon="8.1755191"><ele>893.3333333333333</ele><time>2026-05-03T12:39:12.145Z</time></trkpt><trkpt lat="44.1826715" lon="8.175615"><ele>894.1666666666666</ele><time>2026-05-03T12:39:13.145Z</time></trkpt><trkpt lat="44.1826735" lon="8.1757875"><ele>895.0</ele><time>2026-05-03T12:39:15.145Z</time></trkpt><trkpt lat="44.1826928" lon="8.175956"><ele>894.9999999999999</ele><time>2026-05-03T12:39:17.145Z</time></trkpt><trkpt lat="44.1827438" lon="8.1760384"><ele>895.0</ele><time>2026-05-03T12:39:19.145Z</time></trkpt><trkpt lat="44.1828394" lon="8.1760763"><ele>895.0</ele><time>2026-05-03T12:39:21.145Z</time></trkpt><trkpt lat="44.1828817" lon="8.1759491"><ele>895.0</ele><time>2026-05-03T12:39:23.146Z</time></trkpt><trkpt lat="44.1829055" lon="8.1758596"><ele>894.9999999999999</ele><time>2026-05-03T12:39:24.145Z</time></trkpt><trkpt lat="44.1829355" lon="8.1757697"><ele>895.0</ele><time>2026-05-03T12:39:25.145Z</time></trkpt><trkpt lat="44.1829329" lon="8.17568"><ele>894.9999999999999</ele><time>2026-05-03T12:39:26.146Z</time></trkpt><trkpt lat="44.182924" lon="8.1755837"><ele>895.0</ele><time>2026-05-03T12:39:27.145Z</time></trkpt><trkpt lat="44.1829324" lon="8.1754291"><ele>895.0</ele><time>2026-05-03T12:39:29.145Z</time></trkpt><trkpt lat="44.1830015" lon="8.1754292"><ele>895.0</ele><time>2026-05-03T12:39:30.145Z</time></trkpt><trkpt lat="44.1830626" lon="8.1754032"><ele>894.9999999999999</ele><time>2026-05-03T12:39:32.145Z</time></trkpt><trkpt lat="44.1831197" lon="8.1755065"><ele>895.0</ele><time>2026-05-03T12:39:34.145Z</time></trkpt><trkpt lat="44.1831183" lon="8.1755976"><ele>894.9999999999999</ele><time>2026-05-03T12:39:36.145Z</time></trkpt><trkpt lat="44.1830828" lon="8.1756815"><ele>895.0</ele><time>2026-05-03T12:39:38.145Z</time></trkpt><trkpt lat="44.1830674" lon="8.1757695"><ele>895.0</ele><time>2026-05-03T12:39:41.145Z</time></trkpt><trkpt lat="44.1830748" lon="8.1759326"><ele>895.0</ele><time>2026-05-03T12:39:43.145Z</time></trkpt><trkpt lat="44.18309" lon="8.1760527"><ele>894.9999999999999</ele><time>2026-05-03T12:39:45.145Z</time></trkpt><trkpt lat="44.1831366" lon="8.1759411"><ele>895.0</ele><time>2026-05-03T12:39:49.146Z</time></trkpt><trkpt lat="44.1832141" lon="8.1758339"><ele>900.0</ele><time>2026-05-03T12:39:51.145Z</time></trkpt><trkpt lat="44.1832968" lon="8.1757442"><ele>905.0</ele><time>2026-05-03T12:39:53.145Z</time></trkpt><trkpt lat="44.1833657" lon="8.1756859"><ele>910.0</ele><time>2026-05-03T12:39:54.145Z</time></trkpt><trkpt lat="44.1834259" lon="8.1755858"><ele>915.0</ele><time>2026-05-03T12:39:56.145Z</time></trkpt><trkpt lat="44.1834388" lon="8.1757053"><ele>920.0</ele><time>2026-05-03T12:40:02.145Z</time></trkpt><trkpt lat="44.1833542" lon="8.1757858"><ele>920.5000000000001</ele><time>2026-05-03T12:40:04.145Z</time></trkpt><trkpt lat="44.1833666" lon="8.1758785"><ele>921.0</ele><time>2026-05-03T12:40:05.145Z</time></trkpt><trkpt lat="44.1833395" lon="8.1760045"><ele>921.5</ele><time>2026-05-03T12:40:07.145Z</time></trkpt><trkpt lat="44.1833569" lon="8.1761395"><ele>922.0</ele><time>2026-05-03T12:40:09.146Z</time></trkpt><trkpt lat="44.1833677" lon="8.1762418"><ele>922.5000000000001</ele><time>2026-05-03T12:40:10.145Z</time></trkpt><trkpt lat="44.1833906" lon="8.1763364"><ele>923.0</ele><time>2026-05-03T12:40:11.146Z</time></trkpt><trkpt lat="44.1834112" lon="8.1764348"><ele>924.5000000000001</ele><time>2026-05-03T12:40:12.145Z</time></trkpt><trkpt lat="44.1834327" lon="8.1765319"><ele>926.0</ele><time>2026-05-03T12:40:13.145Z</time></trkpt><trkpt lat="44.183453" lon="8.1766255"><ele>927.5</ele><time>2026-05-03T12:40:14.145Z</time></trkpt><trkpt lat="44.1834646" lon="8.1767981"><ele>929.0</ele><time>2026-05-03T12:40:16.145Z</time></trkpt><trkpt lat="44.1834153" lon="8.1768762"><ele>930.5000000000001</ele><time>2026-05-03T12:40:17.146Z</time></trkpt><trkpt lat="44.1833801" lon="8.1769585"><ele>932.0</ele><time>2026-05-03T12:40:18.146Z</time></trkpt><trkpt lat="44.1833288" lon="8.17703"><ele>932.0000000000001</ele><time>2026-05-03T12:40:19.145Z</time></trkpt><trkpt lat="44.1832794" lon="8.1770955"><ele>932.0</ele><time>2026-05-03T12:40:20.145Z</time></trkpt><trkpt lat="44.1832452" lon="8.1771763"><ele>932.0</ele><time>2026-05-03T12:40:21.146Z</time></trkpt><trkpt lat="44.1832109" lon="8.1772702"><ele>932.0</ele><time>2026-05-03T12:40:22.146Z</time></trkpt><trkpt lat="44.1831947" lon="8.1773796"><ele>932.0000000000001</ele><time>2026-05-03T12:40:23.145Z</time></trkpt><trkpt lat="44.1831875" lon="8.1775027"><ele>932.0</ele><time>2026-05-03T12:40:24.146Z</time></trkpt><trkpt lat="44.1831823" lon="8.1776278"><ele>931.6666666666667</ele><time>2026-05-03T12:40:25.145Z</time></trkpt><trkpt lat="44.18317" lon="8.1777445"><ele>931.3333333333334</ele><time>2026-05-03T12:40:26.145Z</time></trkpt><trkpt lat="44.1831529" lon="8.1778463"><ele>931.0</ele><time>2026-05-03T12:40:27.145Z</time></trkpt><trkpt lat="44.1831538" lon="8.1779804"><ele>930.6666666666667</ele><time>2026-05-03T12:40:29.145Z</time></trkpt><trkpt lat="44.1832418" lon="8.1779656"><ele>930.3333333333334</ele><time>2026-05-03T12:40:32.145Z</time></trkpt><trkpt lat="44.1833155" lon="8.1778996"><ele>930.0</ele><time>2026-05-03T12:40:34.145Z</time></trkpt><trkpt lat="44.1833824" lon="8.1777448"><ele>933.0</ele><time>2026-05-03T12:40:36.146Z</time></trkpt><trkpt lat="44.1834279" lon="8.1776736"><ele>936.0</ele><time>2026-05-03T12:40:37.145Z</time></trkpt><trkpt lat="44.1834836" lon="8.1776142"><ele>939.0</ele><time>2026-05-03T12:40:38.145Z</time></trkpt><trkpt lat="44.1835696" lon="8.1775076"><ele>942.0</ele><time>2026-05-03T12:40:40.145Z</time></trkpt><trkpt lat="44.1837004" lon="8.1775412"><ele>945.0</ele><time>2026-05-03T12:40:44.145Z</time></trkpt><trkpt lat="44.1836553" lon="8.1776801"><ele>945.0</ele><time>2026-05-03T12:40:46.145Z</time></trkpt><trkpt lat="44.1835785" lon="8.1777859"><ele>945.0</ele><time>2026-05-03T12:40:48.146Z</time></trkpt><trkpt lat="44.1835212" lon="8.1778932"><ele>945.0</ele><time>2026-05-03T12:40:50.145Z</time></trkpt><trkpt lat="44.1835033" lon="8.1780317"><ele>945.0</ele><time>2026-05-03T12:40:52.146Z</time></trkpt><trkpt lat="44.1834698" lon="8.178181"><ele>945.0</ele><time>2026-05-03T12:40:54.145Z</time></trkpt><trkpt lat="44.1834815" lon="8.1783561"><ele>946.5</ele><time>2026-05-03T12:40:56.146Z</time></trkpt><trkpt lat="44.1834888" lon="8.1784575"><ele>948.0</ele><time>2026-05-03T12:40:57.145Z</time></trkpt><trkpt lat="44.1835014" lon="8.1785692"><ele>949.5</ele><time>2026-05-03T12:40:58.146Z</time></trkpt><trkpt lat="44.1835178" lon="8.1786768"><ele>951.0</ele><time>2026-05-03T12:40:59.145Z</time></trkpt><trkpt lat="44.1835373" lon="8.1787718"><ele>952.5</ele><time>2026-05-03T12:41:00.145Z</time></trkpt><trkpt lat="44.1835563" lon="8.1788706"><ele>954.0</ele><time>2026-05-03T12:41:01.145Z</time></trkpt><trkpt lat="44.1835739" lon="8.1789835"><ele>955.6</ele><time>2026-05-03T12:41:02.145Z</time></trkpt><trkpt lat="44.1836096" lon="8.1790949"><ele>957.2</ele><time>2026-05-03T12:41:03.145Z</time></trkpt><trkpt lat="44.1836562" lon="8.1791942"><ele>958.8000000000001</ele><time>2026-05-03T12:41:04.145Z</time></trkpt><trkpt lat="44.1836992" lon="8.1792727"><ele>960.4000000000001</ele><time>2026-05-03T12:41:05.145Z</time></trkpt><trkpt lat="44.1837638" lon="8.1793454"><ele>962.0</ele><time>2026-05-03T12:41:07.146Z</time></trkpt><trkpt lat="44.1838129" lon="8.1791305"><ele>960.6666666666667</ele><time>2026-05-03T12:41:13.146Z</time></trkpt><trkpt lat="44.1838422" lon="8.1789658"><ele>959.3333333333334</ele><time>2026-05-03T12:41:15.145Z</time></trkpt><trkpt lat="44.1838649" lon="8.1788785"><ele>958.0</ele><time>2026-05-03T12:41:16.146Z</time></trkpt><trkpt lat="44.1838958" lon="8.1787893"><ele>956.6666666666667</ele><time>2026-05-03T12:41:17.145Z</time></trkpt><trkpt lat="44.1839256" lon="8.1787005"><ele>955.3333333333334</ele><time>2026-05-03T12:41:18.145Z</time></trkpt><trkpt lat="44.1839633" lon="8.1786065"><ele>954.0</ele><time>2026-05-03T12:41:19.146Z</time></trkpt><trkpt lat="44.1839999" lon="8.1785012"><ele>957.8000000000001</ele><time>2026-05-03T12:41:20.145Z</time></trkpt><trkpt lat="44.1840413" lon="8.1783899"><ele>961.6000000000001</ele><time>2026-05-03T12:41:21.145Z</time></trkpt><trkpt lat="44.1840875" lon="8.1782934"><ele>965.4</ele><time>2026-05-03T12:41:22.146Z</time></trkpt><trkpt lat="44.1841402" lon="8.1781884"><ele>969.2</ele><time>2026-05-03T12:41:23.145Z</time></trkpt><trkpt lat="44.184199" lon="8.1780722"><ele>973.0</ele><time>2026-05-03T12:41:24.146Z</time></trkpt><trkpt lat="44.1842805" lon="8.1779437"><ele>973.0</ele><time>2026-05-03T12:41:25.145Z</time></trkpt><trkpt lat="44.1843634" lon="8.1778249"><ele>973.0</ele><time>2026-05-03T12:41:26.145Z</time></trkpt><trkpt lat="44.1844449" lon="8.1777174"><ele>973.0</ele><time>2026-05-03T12:41:27.146Z</time></trkpt><trkpt lat="44.1844753" lon="8.1776076"><ele>973.0</ele><time>2026-05-03T12:41:28.145Z</time></trkpt><trkpt lat="44.184494" lon="8.1774929"><ele>973.0</ele><time>2026-05-03T12:41:29.145Z</time></trkpt><trkpt lat="44.1844993" lon="8.1773531"><ele>971.4</ele><time>2026-05-03T12:41:30.146Z</time></trkpt><trkpt lat="44.1845123" lon="8.1772126"><ele>969.8</ele><time>2026-05-03T12:41:31.145Z</time></trkpt><trkpt lat="44.1845417" lon="8.1771081"><ele>968.2</ele><time>2026-05-03T12:41:32.145Z</time></trkpt><trkpt lat="44.1845716" lon="8.1770169"><ele>966.6</ele><time>2026-05-03T12:41:33.145Z</time></trkpt><trkpt lat="44.1846351" lon="8.1770562"><ele>965.0</ele><time>2026-05-03T12:41:36.145Z</time></trkpt><trkpt lat="44.1846453" lon="8.1772439"><ele>966.6</ele><time>2026-05-03T12:41:38.146Z</time></trkpt><trkpt lat="44.1846355" lon="8.1773798"><ele>968.2</ele><time>2026-05-03T12:41:39.145Z</time></trkpt><trkpt lat="44.1846241" lon="8.177516"><ele>969.8</ele><time>2026-05-03T12:41:40.146Z</time></trkpt><trkpt lat="44.1846067" lon="8.1776451"><ele>971.4</ele><time>2026-05-03T12:41:41.145Z</time></trkpt><trkpt lat="44.1845948" lon="8.1777684"><ele>973.0</ele><time>2026-05-03T12:41:42.146Z</time></trkpt><trkpt lat="44.1845943" lon="8.1778919"><ele>972.9999999999999</ele><time>2026-05-03T12:41:43.145Z</time></trkpt><trkpt lat="44.1845875" lon="8.1780125"><ele>973.0</ele><time>2026-05-03T12:41:44.145Z</time></trkpt><trkpt lat="44.1845868" lon="8.1781345"><ele>973.0</ele><time>2026-05-03T12:41:45.145Z</time></trkpt><trkpt lat="44.1845907" lon="8.1782455"><ele>973.0</ele><time>2026-05-03T12:41:46.145Z</time></trkpt><trkpt lat="44.1845861" lon="8.1783626"><ele>972.9999999999999</ele><time>2026-05-03T12:41:47.145Z</time></trkpt><trkpt lat="44.1845846" lon="8.1784962"><ele>973.0</ele><time>2026-05-03T12:41:48.145Z</time></trkpt><trkpt lat="44.1845715" lon="8.1786256"><ele>975.0</ele><time>2026-05-03T12:41:49.145Z</time></trkpt><trkpt lat="44.1845494" lon="8.1787495"><ele>977.0</ele><time>2026-05-03T12:41:50.145Z</time></trkpt><trkpt lat="44.1845303" lon="8.1788775"><ele>979.0</ele><time>2026-05-03T12:41:51.145Z</time></trkpt><trkpt lat="44.1845102" lon="8.1790196"><ele>981.0</ele><time>2026-05-03T12:41:52.146Z</time></trkpt><trkpt lat="44.184505" lon="8.1791683"><ele>983.0</ele><time>2026-05-03T12:41:53.145Z</time></trkpt><trkpt lat="44.1845025" lon="8.1793087"><ele>984.0</ele><time>2026-05-03T12:41:54.145Z</time></trkpt><trkpt lat="44.1845198" lon="8.179451"><ele>985.0</ele><time>2026-05-03T12:41:55.146Z</time></trkpt><trkpt lat="44.1845397" lon="8.1795822"><ele>986.0</ele><time>2026-05-03T12:41:56.145Z</time></trkpt><trkpt lat="44.184552" lon="8.179727"><ele>987.0</ele><time>2026-05-03T12:41:57.145Z</time></trkpt><trkpt lat="44.1845558" lon="8.1798682"><ele>988.0</ele><time>2026-05-03T12:41:58.145Z</time></trkpt><trkpt lat="44.1845446" lon="8.1800052"><ele>988.4</ele><time>2026-05-03T12:41:59.145Z</time></trkpt><trkpt lat="44.1845284" lon="8.1801544"><ele>988.8</ele><time>2026-05-03T12:42:00.145Z</time></trkpt><trkpt lat="44.1845092" lon="8.1803043"><ele>989.2</ele><time>2026-05-03T12:42:01.145Z</time></trkpt><trkpt lat="44.1844723" lon="8.1804486"><ele>989.6</ele><time>2026-05-03T12:42:02.145Z</time></trkpt><trkpt lat="44.1844267" lon="8.1805902"><ele>990.0</ele><time>2026-05-03T12:42:03.145Z</time></trkpt><trkpt lat="44.1843873" lon="8.1807156"><ele>992.0</ele><time>2026-05-03T12:42:04.145Z</time></trkpt><trkpt lat="44.1843501" lon="8.1808199"><ele>994.0</ele><time>2026-05-03T12:42:05.145Z</time></trkpt><trkpt lat="44.1843368" lon="8.1809585"><ele>996.0</ele><time>2026-05-03T12:42:07.145Z</time></trkpt><trkpt lat="44.1844196" lon="8.1809757"><ele>998.0</ele><time>2026-05-03T12:42:11.145Z</time></trkpt><trkpt lat="44.1844935" lon="8.1808314"><ele>1000.0</ele><time>2026-05-03T12:42:13.145Z</time></trkpt><trkpt lat="44.1845559" lon="8.1807422"><ele>998.0</ele><time>2026-05-03T12:42:14.146Z</time></trkpt><trkpt lat="44.1846307" lon="8.1806575"><ele>996.0</ele><time>2026-05-03T12:42:15.145Z</time></trkpt><trkpt lat="44.1847156" lon="8.1805612"><ele>994.0</ele><time>2026-05-03T12:42:16.145Z</time></trkpt><trkpt lat="44.1847922" lon="8.1804576"><ele>992.0</ele><time>2026-05-03T12:42:17.145Z</time></trkpt><trkpt lat="44.1848418" lon="8.1803157"><ele>990.0</ele><time>2026-05-03T12:42:18.146Z</time></trkpt><trkpt lat="44.1848766" lon="8.1801552"><ele>995.6</ele><time>2026-05-03T12:42:19.145Z</time></trkpt><trkpt lat="44.1849045" lon="8.1799854"><ele>1001.2</ele><time>2026-05-03T12:42:20.145Z</time></trkpt><trkpt lat="44.1849367" lon="8.1798255"><ele>1006.8</ele><time>2026-05-03T12:42:21.146Z</time></trkpt><trkpt lat="44.1849697" lon="8.1796887"><ele>1012.4</ele><time>2026-05-03T12:42:22.145Z</time></trkpt><trkpt lat="44.1849922" lon="8.1795794"><ele>1018.0</ele><time>2026-05-03T12:42:23.145Z</time></trkpt><trkpt lat="44.1849978" lon="8.1794886"><ele>1017.9999999999999</ele><time>2026-05-03T12:42:24.145Z</time></trkpt><trkpt lat="44.1850306" lon="8.1793488"><ele>1018.0</ele><time>2026-05-03T12:42:26.146Z</time></trkpt><trkpt lat="44.1850865" lon="8.1794139"><ele>1018.0</ele><time>2026-05-03T12:42:28.145Z</time></trkpt><trkpt lat="44.1850868" lon="8.179502"><ele>1018.0</ele><time>2026-05-03T12:42:29.145Z</time></trkpt><trkpt lat="44.1850786" lon="8.1796143"><ele>1017.9999999999999</ele><time>2026-05-03T12:42:30.145Z</time></trkpt><trkpt lat="44.1850665" lon="8.1797515"><ele>1018.0</ele><time>2026-05-03T12:42:31.145Z</time></trkpt><trkpt lat="44.1850439" lon="8.1799037"><ele>1020.5</ele><time>2026-05-03T12:42:32.145Z</time></trkpt><trkpt lat="44.1850103" lon="8.1800452"><ele>1023.0</ele><time>2026-05-03T12:42:33.145Z</time></trkpt><trkpt lat="44.1849775" lon="8.180195"><ele>1025.5</ele><time>2026-05-03T12:42:34.146Z</time></trkpt><trkpt lat="44.1849551" lon="8.1803606"><ele>1028.0</ele><time>2026-05-03T12:42:35.145Z</time></trkpt><trkpt lat="44.1849428" lon="8.1805361"><ele>1029.4</ele><time>2026-05-03T12:42:36.145Z</time></trkpt><trkpt lat="44.1849216" lon="8.1806941"><ele>1030.8</ele><time>2026-05-03T12:42:37.145Z</time></trkpt><trkpt lat="44.1848895" lon="8.1808414"><ele>1032.2</ele><time>2026-05-03T12:42:38.146Z</time></trkpt><trkpt lat="44.1848561" lon="8.1809942"><ele>1033.6</ele><time>2026-05-03T12:42:39.145Z</time></trkpt><trkpt lat="44.184832" lon="8.1811302"><ele>1035.0</ele><time>2026-05-03T12:42:40.145Z</time></trkpt><trkpt lat="44.1848179" lon="8.1812398"><ele>1035.0</ele><time>2026-05-03T12:42:41.145Z</time></trkpt><trkpt lat="44.1848117" lon="8.1813376"><ele>1035.0</ele><time>2026-05-03T12:42:42.145Z</time></trkpt><trkpt lat="44.184815" lon="8.1814826"><ele>1035.0</ele><time>2026-05-03T12:42:44.145Z</time></trkpt><trkpt lat="44.1849162" lon="8.1813677"><ele>1035.0</ele><time>2026-05-03T12:42:46.145Z</time></trkpt><trkpt lat="44.1849539" lon="8.1812788"><ele>1035.0</ele><time>2026-05-03T12:42:47.146Z</time></trkpt><trkpt lat="44.1849975" lon="8.1811727"><ele>1035.0</ele><time>2026-05-03T12:42:48.146Z</time></trkpt><trkpt lat="44.1850489" lon="8.1810409"><ele>1035.0</ele><time>2026-05-03T12:42:49.145Z</time></trkpt><trkpt lat="44.1851181" lon="8.1809112"><ele>1035.0</ele><time>2026-05-03T12:42:50.146Z</time></trkpt><trkpt lat="44.1851756" lon="8.1807277"><ele>1035.0</ele><time>2026-05-03T12:42:51.145Z</time></trkpt><trkpt lat="44.1852323" lon="8.1805273"><ele>1033.25</ele><time>2026-05-03T12:42:52.145Z</time></trkpt><trkpt lat="44.1852941" lon="8.180341"><ele>1031.5</ele><time>2026-05-03T12:42:53.145Z</time></trkpt><trkpt lat="44.1853624" lon="8.1801673"><ele>1029.75</ele><time>2026-05-03T12:42:54.146Z</time></trkpt><trkpt lat="44.1854357" lon="8.1799996"><ele>1028.0</ele><time>2026-05-03T12:42:55.145Z</time></trkpt><trkpt lat="44.1855108" lon="8.1798507"><ele>1025.5</ele><time>2026-05-03T12:42:56.145Z</time></trkpt><trkpt lat="44.185582" lon="8.1797051"><ele>1023.0</ele><time>2026-05-03T12:42:57.145Z</time></trkpt><trkpt lat="44.185635" lon="8.1795409"><ele>1020.5</ele><time>2026-05-03T12:42:58.145Z</time></trkpt><trkpt lat="44.1856842" lon="8.1793878"><ele>1018.0</ele><time>2026-05-03T12:42:59.145Z</time></trkpt><trkpt lat="44.1857486" lon="8.1792536"><ele>1024.2</ele><time>2026-05-03T12:43:00.147Z</time></trkpt><trkpt lat="44.1858034" lon="8.179127"><ele>1030.4</ele><time>2026-05-03T12:43:01.146Z</time></trkpt><trkpt lat="44.1858487" lon="8.1790106"><ele>1036.6000000000001</ele><time>2026-05-03T12:43:02.145Z</time></trkpt><trkpt lat="44.1858852" lon="8.1788874"><ele>1042.8</ele><time>2026-05-03T12:43:03.145Z</time></trkpt><trkpt lat="44.185876" lon="8.1787526"><ele>1049.0</ele><time>2026-05-03T12:43:05.145Z</time></trkpt><trkpt lat="44.1859081" lon="8.1785941"><ele>1049.0</ele><time>2026-05-03T12:43:12.145Z</time></trkpt><trkpt lat="44.1859497" lon="8.1784327"><ele>1049.0</ele><time>2026-05-03T12:43:14.145Z</time></trkpt><trkpt lat="44.1859734" lon="8.1783239"><ele>1049.0</ele><time>2026-05-03T12:43:15.145Z</time></trkpt><trkpt lat="44.1860044" lon="8.1781631"><ele>1049.0</ele><time>2026-05-03T12:43:16.145Z</time></trkpt><trkpt lat="44.1860202" lon="8.1779954"><ele>1049.0</ele><time>2026-05-03T12:43:17.145Z</time></trkpt><trkpt lat="44.1860331" lon="8.1778431"><ele>1047.6666666666667</ele><time>2026-05-03T12:43:18.146Z</time></trkpt><trkpt lat="44.1860591" lon="8.1777204"><ele>1046.3333333333335</ele><time>2026-05-03T12:43:19.145Z</time></trkpt><trkpt lat="44.1860886" lon="8.177588"><ele>1045.0</ele><time>2026-05-03T12:43:20.145Z</time></trkpt><trkpt lat="44.1861555" lon="8.1775244"><ele>1043.6666666666667</ele><time>2026-05-03T12:43:21.145Z</time></trkpt><trkpt lat="44.1862034" lon="8.1774207"><ele>1042.3333333333333</ele><time>2026-05-03T12:43:22.146Z</time></trkpt><trkpt lat="44.1862727" lon="8.1773612"><ele>1041.0</ele><time>2026-05-03T12:43:23.145Z</time></trkpt><trkpt lat="44.1863308" lon="8.1773029"><ele>1044.1666666666667</ele><time>2026-05-03T12:43:24.145Z</time></trkpt><trkpt lat="44.1864007" lon="8.1772325"><ele>1047.3333333333333</ele><time>2026-05-03T12:43:25.146Z</time></trkpt><trkpt lat="44.1864414" lon="8.1771577"><ele>1050.5</ele><time>2026-05-03T12:43:26.145Z</time></trkpt><trkpt lat="44.186509" lon="8.177086"><ele>1053.6666666666665</ele><time>2026-05-03T12:43:27.145Z</time></trkpt><trkpt lat="44.1865657" lon="8.1770253"><ele>1056.8333333333333</ele><time>2026-05-03T12:43:28.145Z</time></trkpt><trkpt lat="44.1866317" lon="8.1769627"><ele>1060.0</ele><time>2026-05-03T12:43:29.145Z</time></trkpt><trkpt lat="44.1867467" lon="8.1768095"><ele>1060.0</ele><time>2026-05-03T12:43:31.145Z</time></trkpt><trkpt lat="44.1868047" lon="8.1766906"><ele>1060.0</ele><time>2026-05-03T12:43:32.145Z</time></trkpt><trkpt lat="44.186858" lon="8.1765786"><ele>1060.0</ele><time>2026-05-03T12:43:33.145Z</time></trkpt><trkpt lat="44.1869142" lon="8.1764668"><ele>1060.0</ele><time>2026-05-03T12:43:34.145Z</time></trkpt><trkpt lat="44.1869396" lon="8.1763182"><ele>1060.0</ele><time>2026-05-03T12:43:35.145Z</time></trkpt><trkpt lat="44.1869898" lon="8.1761766"><ele>1060.2</ele><time>2026-05-03T12:43:36.145Z</time></trkpt><trkpt lat="44.1870187" lon="8.176042"><ele>1060.4</ele><time>2026-05-03T12:43:37.145Z</time></trkpt><trkpt lat="44.1870367" lon="8.1758973"><ele>1060.6</ele><time>2026-05-03T12:43:38.145Z</time></trkpt><trkpt lat="44.1870532" lon="8.1757421"><ele>1060.8</ele><time>2026-05-03T12:43:39.145Z</time></trkpt><trkpt lat="44.1870332" lon="8.1755906"><ele>1061.0</ele><time>2026-05-03T12:43:40.145Z</time></trkpt><trkpt lat="44.1870174" lon="8.1754589"><ele>1061.0</ele><time>2026-05-03T12:43:41.146Z</time></trkpt><trkpt lat="44.1869543" lon="8.1752997"><ele>1061.0</ele><time>2026-05-03T12:43:42.145Z</time></trkpt><trkpt lat="44.186906" lon="8.1751532"><ele>1061.0</ele><time>2026-05-03T12:43:43.146Z</time></trkpt><trkpt lat="44.1868723" lon="8.17503"><ele>1061.0</ele><time>2026-05-03T12:43:44.145Z</time></trkpt><trkpt lat="44.1868447" lon="8.1749131"><ele>1061.0</ele><time>2026-05-03T12:43:45.146Z</time></trkpt><trkpt lat="44.1868407" lon="8.1748059"><ele>1060.6666666666667</ele><time>2026-05-03T12:43:46.145Z</time></trkpt><trkpt lat="44.1868354" lon="8.1746225"><ele>1060.3333333333335</ele><time>2026-05-03T12:43:48.145Z</time></trkpt><trkpt lat="44.1868274" lon="8.1745256"><ele>1060.0</ele><time>2026-05-03T12:43:49.146Z</time></trkpt><trkpt lat="44.1868695" lon="8.1744261"><ele>1059.6666666666667</ele><time>2026-05-03T12:43:50.145Z</time></trkpt><trkpt lat="44.1869181" lon="8.1743627"><ele>1059.3333333333333</ele><time>2026-05-03T12:43:51.145Z</time></trkpt><trkpt lat="44.1869914" lon="8.1742845"><ele>1059.0</ele><time>2026-05-03T12:43:52.145Z</time></trkpt><trkpt lat="44.1870611" lon="8.1741974"><ele>1059.0</ele><time>2026-05-03T12:43:53.145Z</time></trkpt><trkpt lat="44.1871469" lon="8.1741642"><ele>1059.0</ele><time>2026-05-03T12:43:54.145Z</time></trkpt><trkpt lat="44.1872479" lon="8.1741113"><ele>1059.0</ele><time>2026-05-03T12:43:55.146Z</time></trkpt><trkpt lat="44.1873191" lon="8.1740519"><ele>1059.0</ele><time>2026-05-03T12:43:56.145Z</time></trkpt><trkpt lat="44.1874275" lon="8.1739997"><ele>1059.0</ele><time>2026-05-03T12:43:57.145Z</time></trkpt><trkpt lat="44.1875301" lon="8.1739687"><ele>1060.4</ele><time>2026-05-03T12:43:58.146Z</time></trkpt><trkpt lat="44.1876173" lon="8.1739082"><ele>1061.8000000000002</ele><time>2026-05-03T12:43:59.146Z</time></trkpt><trkpt lat="44.187691" lon="8.1738542"><ele>1063.1999999999998</ele><time>2026-05-03T12:44:00.146Z</time></trkpt><trkpt lat="44.1877815" lon="8.1737738"><ele>1064.6</ele><time>2026-05-03T12:44:01.145Z</time></trkpt><trkpt lat="44.1878561" lon="8.1737011"><ele>1066.0</ele><time>2026-05-03T12:44:02.145Z</time></trkpt><trkpt lat="44.1879386" lon="8.173653"><ele>1066.0</ele><time>2026-05-03T12:44:03.145Z</time></trkpt><trkpt lat="44.188019" lon="8.1735998"><ele>1066.0</ele><time>2026-05-03T12:44:04.146Z</time></trkpt><trkpt lat="44.1881142" lon="8.1735753"><ele>1066.0</ele><time>2026-05-03T12:44:05.145Z</time></trkpt><trkpt lat="44.1882153" lon="8.1735802"><ele>1066.0</ele><time>2026-05-03T12:44:06.146Z</time></trkpt><trkpt lat="44.1883107" lon="8.1735889"><ele>1066.0</ele><time>2026-05-03T12:44:07.145Z</time></trkpt><trkpt lat="44.1884095" lon="8.1735979"><ele>1071.0</ele><time>2026-05-03T12:44:08.145Z</time></trkpt><trkpt lat="44.1885016" lon="8.1736317"><ele>1076.0</ele><time>2026-05-03T12:44:09.146Z</time></trkpt><trkpt lat="44.1885991" lon="8.1736692"><ele>1081.0</ele><time>2026-05-03T12:44:10.146Z</time></trkpt><trkpt lat="44.1886857" lon="8.1736965"><ele>1086.0</ele><time>2026-05-03T12:44:11.145Z</time></trkpt><trkpt lat="44.1887829" lon="8.1737146"><ele>1091.0</ele><time>2026-05-03T12:44:12.145Z</time></trkpt><trkpt lat="44.1888836" lon="8.1737217"><ele>1091.0</ele><time>2026-05-03T12:44:13.146Z</time></trkpt><trkpt lat="44.1889901" lon="8.1737138"><ele>1091.0</ele><time>2026-05-03T12:44:14.145Z</time></trkpt><trkpt lat="44.1891043" lon="8.1736812"><ele>1091.0</ele><time>2026-05-03T12:44:15.145Z</time></trkpt><trkpt lat="44.1892197" lon="8.1736271"><ele>1091.0</ele><time>2026-05-03T12:44:16.146Z</time></trkpt><trkpt lat="44.1893351" lon="8.1735839"><ele>1093.3999999999999</ele><time>2026-05-03T12:44:17.145Z</time></trkpt><trkpt lat="44.189447" lon="8.173547"><ele>1095.8</ele><time>2026-05-03T12:44:18.145Z</time></trkpt><trkpt lat="44.1895497" lon="8.1735311"><ele>1098.1999999999998</ele><time>2026-05-03T12:44:19.146Z</time></trkpt><trkpt lat="44.1896456" lon="8.1735132"><ele>1100.6</ele><time>2026-05-03T12:44:20.145Z</time></trkpt><trkpt lat="44.189722" lon="8.1734707"><ele>1103.0</ele><time>2026-05-03T12:44:21.145Z</time></trkpt><trkpt lat="44.1897973" lon="8.173403"><ele>1102.75</ele><time>2026-05-03T12:44:22.145Z</time></trkpt><trkpt lat="44.1898846" lon="8.1733026"><ele>1102.5</ele><time>2026-05-03T12:44:23.145Z</time></trkpt><trkpt lat="44.1899793" lon="8.1731897"><ele>1102.25</ele><time>2026-05-03T12:44:24.146Z</time></trkpt><trkpt lat="44.190064" lon="8.1730858"><ele>1102.0</ele><time>2026-05-03T12:44:25.145Z</time></trkpt><trkpt lat="44.190143" lon="8.1729814"><ele>1102.0</ele><time>2026-05-03T12:44:26.145Z</time></trkpt><trkpt lat="44.1902187" lon="8.1728723"><ele>1102.0</ele><time>2026-05-03T12:44:27.145Z</time></trkpt><trkpt lat="44.1902786" lon="8.1727356"><ele>1102.0</ele><time>2026-05-03T12:44:28.146Z</time></trkpt><trkpt lat="44.1903265" lon="8.1725945"><ele>1102.0</ele><time>2026-05-03T12:44:29.145Z</time></trkpt><trkpt lat="44.1903793" lon="8.1724613"><ele>1102.0</ele><time>2026-05-03T12:44:30.145Z</time></trkpt><trkpt lat="44.1904449" lon="8.172346"><ele>1099.0</ele><time>2026-05-03T12:44:31.145Z</time></trkpt><trkpt lat="44.1905158" lon="8.1722339"><ele>1096.0</ele><time>2026-05-03T12:44:32.146Z</time></trkpt><trkpt lat="44.1905704" lon="8.1721184"><ele>1093.0</ele><time>2026-05-03T12:44:33.145Z</time></trkpt><trkpt lat="44.1906224" lon="8.1720181"><ele>1090.0</ele><time>2026-05-03T12:44:34.145Z</time></trkpt><trkpt lat="44.1906642" lon="8.171905"><ele>1087.0</ele><time>2026-05-03T12:44:35.145Z</time></trkpt><trkpt lat="44.1906853" lon="8.1717891"><ele>1093.6</ele><time>2026-05-03T12:44:36.145Z</time></trkpt><trkpt lat="44.190684" lon="8.1716597"><ele>1100.2</ele><time>2026-05-03T12:44:37.145Z</time></trkpt><trkpt lat="44.1907283" lon="8.1715486"><ele>1106.8</ele><time>2026-05-03T12:44:38.145Z</time></trkpt><trkpt lat="44.1907917" lon="8.1714371"><ele>1113.4</ele><time>2026-05-03T12:44:39.145Z</time></trkpt><trkpt lat="44.1908685" lon="8.1713446"><ele>1120.0</ele><time>2026-05-03T12:44:40.145Z</time></trkpt><trkpt lat="44.1909327" lon="8.1712229"><ele>1120.0</ele><time>2026-05-03T12:44:41.145Z</time></trkpt><trkpt lat="44.1909744" lon="8.1711185"><ele>1120.0</ele><time>2026-05-03T12:44:42.145Z</time></trkpt><trkpt lat="44.1910329" lon="8.1709981"><ele>1120.0</ele><time>2026-05-03T12:44:43.145Z</time></trkpt><trkpt lat="44.191094" lon="8.1709009"><ele>1120.0</ele><time>2026-05-03T12:44:44.145Z</time></trkpt><trkpt lat="44.1911383" lon="8.1707977"><ele>1120.0</ele><time>2026-05-03T12:44:45.146Z</time></trkpt><trkpt lat="44.1912274" lon="8.1707209"><ele>1118.1666666666665</ele><time>2026-05-03T12:44:46.145Z</time></trkpt><trkpt lat="44.1912775" lon="8.1706414"><ele>1116.3333333333333</ele><time>2026-05-03T12:44:47.145Z</time></trkpt><trkpt lat="44.191331" lon="8.1705363"><ele>1114.5</ele><time>2026-05-03T12:44:48.145Z</time></trkpt><trkpt lat="44.1914" lon="8.1704394"><ele>1112.6666666666667</ele><time>2026-05-03T12:44:49.145Z</time></trkpt><trkpt lat="44.1914513" lon="8.1703485"><ele>1110.8333333333335</ele><time>2026-05-03T12:44:50.145Z</time></trkpt><trkpt lat="44.1914992" lon="8.1702405"><ele>1109.0</ele><time>2026-05-03T12:44:51.145Z</time></trkpt><trkpt lat="44.1915224" lon="8.1701152"><ele>1113.6666666666667</ele><time>2026-05-03T12:44:52.146Z</time></trkpt><trkpt lat="44.1915459" lon="8.169982"><ele>1118.3333333333335</ele><time>2026-05-03T12:44:53.145Z</time></trkpt><trkpt lat="44.1915773" lon="8.1698991"><ele>1123.0</ele><time>2026-05-03T12:44:54.145Z</time></trkpt><trkpt lat="44.1916094" lon="8.1698144"><ele>1127.6666666666667</ele><time>2026-05-03T12:44:55.145Z</time></trkpt><trkpt lat="44.191691" lon="8.1697058"><ele>1132.3333333333333</ele><time>2026-05-03T12:44:57.147Z</time></trkpt><trkpt lat="44.1917374" lon="8.1696366"><ele>1137.0</ele><time>2026-05-03T12:44:58.145Z</time></trkpt><trkpt lat="44.1917992" lon="8.1696108"><ele>1137.0</ele><time>2026-05-03T12:44:59.145Z</time></trkpt><trkpt lat="44.1918678" lon="8.1695527"><ele>1137.0</ele><time>2026-05-03T12:45:00.145Z</time></trkpt><trkpt lat="44.1919344" lon="8.1694876"><ele>1137.0</ele><time>2026-05-03T12:45:01.146Z</time></trkpt><trkpt lat="44.1920114" lon="8.1694246"><ele>1137.0</ele><time>2026-05-03T12:45:02.145Z</time></trkpt><trkpt lat="44.1920784" lon="8.1693446"><ele>1137.0</ele><time>2026-05-03T12:45:03.145Z</time></trkpt><trkpt lat="44.1921604" lon="8.1692689"><ele>1137.0</ele><time>2026-05-03T12:45:04.145Z</time></trkpt><trkpt lat="44.1922624" lon="8.1691894"><ele>1137.0</ele><time>2026-05-03T12:45:05.145Z</time></trkpt><trkpt lat="44.1923295" lon="8.1690959"><ele>1137.0</ele><time>2026-05-03T12:45:06.146Z</time></trkpt><trkpt lat="44.1924155" lon="8.168993"><ele>1137.0</ele><time>2026-05-03T12:45:07.145Z</time></trkpt><trkpt lat="44.1925075" lon="8.1689449"><ele>1137.0</ele><time>2026-05-03T12:45:08.145Z</time></trkpt><trkpt lat="44.192601" lon="8.1689533"><ele>1137.0</ele><time>2026-05-03T12:45:09.145Z</time></trkpt><trkpt lat="44.1926764" lon="8.1689551"><ele>1139.2</ele><time>2026-05-03T12:45:10.146Z</time></trkpt><trkpt lat="44.1927647" lon="8.1689945"><ele>1141.4</ele><time>2026-05-03T12:45:11.145Z</time></trkpt><trkpt lat="44.192838" lon="8.1690263"><ele>1143.6</ele><time>2026-05-03T12:45:12.146Z</time></trkpt><trkpt lat="44.1929176" lon="8.1690442"><ele>1145.8</ele><time>2026-05-03T12:45:13.145Z</time></trkpt><trkpt lat="44.1930362" lon="8.1690919"><ele>1148.0</ele><time>2026-05-03T12:45:14.145Z</time></trkpt><trkpt lat="44.1931385" lon="8.169119"><ele>1148.6</ele><time>2026-05-03T12:45:15.146Z</time></trkpt><trkpt lat="44.193242" lon="8.1691278"><ele>1149.1999999999998</ele><time>2026-05-03T12:45:16.145Z</time></trkpt><trkpt lat="44.1933462" lon="8.1691555"><ele>1149.8</ele><time>2026-05-03T12:45:17.146Z</time></trkpt><trkpt lat="44.1934552" lon="8.1691661"><ele>1150.3999999999999</ele><time>2026-05-03T12:45:18.145Z</time></trkpt><trkpt lat="44.1935643" lon="8.1692064"><ele>1151.0</ele><time>2026-05-03T12:45:19.146Z</time></trkpt><trkpt lat="44.193664" lon="8.1691901"><ele>1151.0</ele><time>2026-05-03T12:45:20.145Z</time></trkpt><trkpt lat="44.1937693" lon="8.1691842"><ele>1151.0</ele><time>2026-05-03T12:45:21.145Z</time></trkpt><trkpt lat="44.1938421" lon="8.1691646"><ele>1151.0</ele><time>2026-05-03T12:45:22.146Z</time></trkpt><trkpt lat="44.1939404" lon="8.1691367"><ele>1151.0</ele><time>2026-05-03T12:45:23.145Z</time></trkpt><trkpt lat="44.1940262" lon="8.1691342"><ele>1151.0</ele><time>2026-05-03T12:45:24.145Z</time></trkpt><trkpt lat="44.1941157" lon="8.1691371"><ele>1149.8</ele><time>2026-05-03T12:45:25.146Z</time></trkpt><trkpt lat="44.19421" lon="8.1691599"><ele>1148.6</ele><time>2026-05-03T12:45:26.145Z</time></trkpt><trkpt lat="44.1943008" lon="8.1691869"><ele>1147.4</ele><time>2026-05-03T12:45:27.145Z</time></trkpt><trkpt lat="44.1944105" lon="8.1692034"><ele>1146.2</ele><time>2026-05-03T12:45:28.145Z</time></trkpt><trkpt lat="44.194542" lon="8.1692353"><ele>1145.0</ele><time>2026-05-03T12:45:29.145Z</time></trkpt><trkpt lat="44.1946793" lon="8.1692724"><ele>1145.0</ele><time>2026-05-03T12:45:30.145Z</time></trkpt><trkpt lat="44.1947874" lon="8.1693032"><ele>1145.0</ele><time>2026-05-03T12:45:31.145Z</time></trkpt><trkpt lat="44.194917" lon="8.1693481"><ele>1145.0</ele><time>2026-05-03T12:45:32.145Z</time></trkpt><trkpt lat="44.1950304" lon="8.1694045"><ele>1145.0</ele><time>2026-05-03T12:45:33.145Z</time></trkpt><trkpt lat="44.1951522" lon="8.1694535"><ele>1144.4</ele><time>2026-05-03T12:45:34.145Z</time></trkpt><trkpt lat="44.1952556" lon="8.1694849"><ele>1143.8</ele><time>2026-05-03T12:45:35.145Z</time></trkpt><trkpt lat="44.1953407" lon="8.169526"><ele>1143.2</ele><time>2026-05-03T12:45:36.146Z</time></trkpt><trkpt lat="44.1954504" lon="8.1696067"><ele>1142.6</ele><time>2026-05-03T12:45:37.145Z</time></trkpt><trkpt lat="44.1955681" lon="8.1696666"><ele>1142.0</ele><time>2026-05-03T12:45:38.146Z</time></trkpt><trkpt lat="44.1956744" lon="8.1697188"><ele>1141.2</ele><time>2026-05-03T12:45:39.145Z</time></trkpt><trkpt lat="44.1957832" lon="8.1697684"><ele>1140.4</ele><time>2026-05-03T12:45:40.145Z</time></trkpt><trkpt lat="44.195857" lon="8.1697398"><ele>1139.6</ele><time>2026-05-03T12:45:41.145Z</time></trkpt><trkpt lat="44.1959579" lon="8.169765"><ele>1138.8</ele><time>2026-05-03T12:45:42.146Z</time></trkpt><trkpt lat="44.1960464" lon="8.169789"><ele>1138.0</ele><time>2026-05-03T12:45:43.146Z</time></trkpt><trkpt lat="44.1961184" lon="8.1697474"><ele>1138.0</ele><time>2026-05-03T12:45:44.145Z</time></trkpt><trkpt lat="44.196194" lon="8.1696876"><ele>1138.0</ele><time>2026-05-03T12:45:45.145Z</time></trkpt><trkpt lat="44.1962873" lon="8.1696346"><ele>1138.0</ele><time>2026-05-03T12:45:46.145Z</time></trkpt><trkpt lat="44.1963524" lon="8.1695749"><ele>1138.0</ele><time>2026-05-03T12:45:47.145Z</time></trkpt><trkpt lat="44.1964588" lon="8.1694668"><ele>1138.0</ele><time>2026-05-03T12:45:48.146Z</time></trkpt><trkpt lat="44.1965557" lon="8.1693517"><ele>1137.0</ele><time>2026-05-03T12:45:49.145Z</time></trkpt><trkpt lat="44.1966213" lon="8.1692476"><ele>1136.0</ele><time>2026-05-03T12:45:50.145Z</time></trkpt><trkpt lat="44.1967185" lon="8.1691485"><ele>1135.0</ele><time>2026-05-03T12:45:51.145Z</time></trkpt><trkpt lat="44.1967915" lon="8.1690621"><ele>1134.0</ele><time>2026-05-03T12:45:52.145Z</time></trkpt><trkpt lat="44.1968736" lon="8.1690099"><ele>1133.0</ele><time>2026-05-03T12:45:53.146Z</time></trkpt><trkpt lat="44.1969482" lon="8.1689718"><ele>1133.0</ele><time>2026-05-03T12:45:54.145Z</time></trkpt><trkpt lat="44.1970249" lon="8.1688897"><ele>1133.0</ele><time>2026-05-03T12:45:55.146Z</time></trkpt><trkpt lat="44.1970938" lon="8.1688115"><ele>1133.0</ele><time>2026-05-03T12:45:56.145Z</time></trkpt><trkpt lat="44.197162" lon="8.1687402"><ele>1133.0</ele><time>2026-05-03T12:45:57.145Z</time></trkpt><trkpt lat="44.1972735" lon="8.1686978"><ele>1133.0</ele><time>2026-05-03T12:45:59.145Z</time></trkpt><trkpt lat="44.1973508" lon="8.1687256"><ele>1137.0</ele><time>2026-05-03T12:46:00.145Z</time></trkpt><trkpt lat="44.1974251" lon="8.1687399"><ele>1141.0</ele><time>2026-05-03T12:46:01.146Z</time></trkpt><trkpt lat="44.1975141" lon="8.1687647"><ele>1145.0</ele><time>2026-05-03T12:46:02.145Z</time></trkpt><trkpt lat="44.1976167" lon="8.1687868"><ele>1149.0</ele><time>2026-05-03T12:46:03.145Z</time></trkpt><trkpt lat="44.1976955" lon="8.1688038"><ele>1153.0</ele><time>2026-05-03T12:46:04.145Z</time></trkpt><trkpt lat="44.197771" lon="8.1688407"><ele>1157.0</ele><time>2026-05-03T12:46:05.145Z</time></trkpt><trkpt lat="44.1978764" lon="8.1688653"><ele>1157.0</ele><time>2026-05-03T12:46:06.146Z</time></trkpt><trkpt lat="44.1979222" lon="8.1689269"><ele>1157.0</ele><time>2026-05-03T12:46:07.146Z</time></trkpt><trkpt lat="44.1980474" lon="8.1690075"><ele>1157.0</ele><time>2026-05-03T12:46:09.145Z</time></trkpt><trkpt lat="44.198146" lon="8.1690202"><ele>1157.0</ele><time>2026-05-03T12:46:10.145Z</time></trkpt><trkpt lat="44.1982144" lon="8.1690056"><ele>1157.0</ele><time>2026-05-03T12:46:11.145Z</time></trkpt><trkpt lat="44.1982942" lon="8.1690065"><ele>1156.8</ele><time>2026-05-03T12:46:12.146Z</time></trkpt><trkpt lat="44.1983862" lon="8.1689813"><ele>1156.6</ele><time>2026-05-03T12:46:13.145Z</time></trkpt><trkpt lat="44.1984931" lon="8.1689464"><ele>1156.3999999999999</ele><time>2026-05-03T12:46:14.145Z</time></trkpt><trkpt lat="44.1985902" lon="8.1689154"><ele>1156.2</ele><time>2026-05-03T12:46:15.145Z</time></trkpt><trkpt lat="44.1986804" lon="8.1688362"><ele>1156.0</ele><time>2026-05-03T12:46:16.146Z</time></trkpt><trkpt lat="44.1987632" lon="8.168792"><ele>1156.0</ele><time>2026-05-03T12:46:17.145Z</time></trkpt><trkpt lat="44.1988446" lon="8.1687464"><ele>1156.0</ele><time>2026-05-03T12:46:18.146Z</time></trkpt><trkpt lat="44.1989261" lon="8.1687003"><ele>1156.0</ele><time>2026-05-03T12:46:19.145Z</time></trkpt><trkpt lat="44.1990333" lon="8.1687117"><ele>1156.0</ele><time>2026-05-03T12:46:20.145Z</time></trkpt><trkpt lat="44.199114" lon="8.1686988"><ele>1156.0</ele><time>2026-05-03T12:46:21.145Z</time></trkpt><trkpt lat="44.1992353" lon="8.168748"><ele>1154.8</ele><time>2026-05-03T12:46:22.146Z</time></trkpt><trkpt lat="44.1993472" lon="8.1687591"><ele>1153.6</ele><time>2026-05-03T12:46:23.146Z</time></trkpt><trkpt lat="44.1994533" lon="8.1687506"><ele>1152.4</ele><time>2026-05-03T12:46:24.145Z</time></trkpt><trkpt lat="44.1995671" lon="8.168732"><ele>1151.2</ele><time>2026-05-03T12:46:25.145Z</time></trkpt><trkpt lat="44.1996819" lon="8.1687223"><ele>1150.0</ele><time>2026-05-03T12:46:26.145Z</time></trkpt><trkpt lat="44.1997858" lon="8.1687221"><ele>1149.6</ele><time>2026-05-03T12:46:27.145Z</time></trkpt><trkpt lat="44.1998738" lon="8.1687379"><ele>1149.2</ele><time>2026-05-03T12:46:28.146Z</time></trkpt><trkpt lat="44.1999762" lon="8.1687778"><ele>1148.8</ele><time>2026-05-03T12:46:29.145Z</time></trkpt><trkpt lat="44.2000674" lon="8.1687893"><ele>1148.4</ele><time>2026-05-03T12:46:30.145Z</time></trkpt><trkpt lat="44.2001516" lon="8.1688302"><ele>1148.0</ele><time>2026-05-03T12:46:31.145Z</time></trkpt><trkpt lat="44.2002693" lon="8.1687996"><ele>1148.0</ele><time>2026-05-03T12:46:32.145Z</time></trkpt><trkpt lat="44.2003774" lon="8.1687746"><ele>1148.0</ele><time>2026-05-03T12:46:33.145Z</time></trkpt><trkpt lat="44.2004939" lon="8.168737"><ele>1148.0</ele><time>2026-05-03T12:46:34.145Z</time></trkpt><trkpt lat="44.2006042" lon="8.168693"><ele>1148.0</ele><time>2026-05-03T12:46:35.145Z</time></trkpt><trkpt lat="44.2006973" lon="8.1686572"><ele>1148.0</ele><time>2026-05-03T12:46:36.146Z</time></trkpt><trkpt lat="44.2007737" lon="8.1686294"><ele>1149.3333333333335</ele><time>2026-05-03T12:46:37.145Z</time></trkpt><trkpt lat="44.2008509" lon="8.1685875"><ele>1150.6666666666667</ele><time>2026-05-03T12:46:38.145Z</time></trkpt><trkpt lat="44.2009663" lon="8.1685208"><ele>1152.0</ele><time>2026-05-03T12:46:40.145Z</time></trkpt><trkpt lat="44.201027" lon="8.1684961"><ele>1153.3333333333333</ele><time>2026-05-03T12:46:41.145Z</time></trkpt><trkpt lat="44.2010919" lon="8.1685238"><ele>1154.6666666666665</ele><time>2026-05-03T12:46:42.145Z</time></trkpt><trkpt lat="44.2011904" lon="8.1685937"><ele>1156.0</ele><time>2026-05-03T12:46:44.145Z</time></trkpt><trkpt lat="44.2012419" lon="8.1687229"><ele>1156.0</ele><time>2026-05-03T12:46:46.145Z</time></trkpt><trkpt lat="44.2012532" lon="8.1688748"><ele>1156.0</ele><time>2026-05-03T12:46:48.145Z</time></trkpt><trkpt lat="44.2012699" lon="8.1689636"><ele>1156.0</ele><time>2026-05-03T12:46:49.145Z</time></trkpt><trkpt lat="44.2012632" lon="8.1691027"><ele>1156.0</ele><time>2026-05-03T12:46:51.145Z</time></trkpt><trkpt lat="44.2012726" lon="8.1692685"><ele>1156.0</ele><time>2026-05-03T12:46:53.146Z</time></trkpt><trkpt lat="44.2012866" lon="8.1693915"><ele>1159.2</ele><time>2026-05-03T12:46:55.145Z</time></trkpt><trkpt lat="44.2013012" lon="8.1695226"><ele>1162.3999999999999</ele><time>2026-05-03T12:46:57.145Z</time></trkpt><trkpt lat="44.2013387" lon="8.1696846"><ele>1165.6</ele><time>2026-05-03T12:46:59.145Z</time></trkpt><trkpt lat="44.2013404" lon="8.1698331"><ele>1168.8</ele><time>2026-05-03T12:47:01.145Z</time></trkpt><trkpt lat="44.201381" lon="8.1699722"><ele>1172.0</ele><time>2026-05-03T12:47:03.145Z</time></trkpt><trkpt lat="44.201424" lon="8.1701021"><ele>1173.0</ele><time>2026-05-03T12:47:05.145Z</time></trkpt><trkpt lat="44.2014969" lon="8.1702117"><ele>1174.0</ele><time>2026-05-03T12:47:07.145Z</time></trkpt><trkpt lat="44.2015484" lon="8.1703003"><ele>1175.0</ele><time>2026-05-03T12:47:08.145Z</time></trkpt><trkpt lat="44.2015953" lon="8.1703781"><ele>1176.0</ele><time>2026-05-03T12:47:09.146Z</time></trkpt><trkpt lat="44.2016396" lon="8.1704486"><ele>1177.0</ele><time>2026-05-03T12:47:10.145Z</time></trkpt><trkpt lat="44.2016929" lon="8.1705124"><ele>1178.0</ele><time>2026-05-03T12:47:11.145Z</time></trkpt><trkpt lat="44.2017904" lon="8.1706019"><ele>1175.8</ele><time>2026-05-03T12:47:13.145Z</time></trkpt><trkpt lat="44.2018837" lon="8.1706542"><ele>1173.6</ele><time>2026-05-03T12:47:15.145Z</time></trkpt><trkpt lat="44.2019337" lon="8.1707112"><ele>1171.4</ele><time>2026-05-03T12:47:16.145Z</time></trkpt><trkpt lat="44.2020022" lon="8.1707592"><ele>1169.2</ele><time>2026-05-03T12:47:17.145Z</time></trkpt><trkpt lat="44.2021026" lon="8.1708723"><ele>1167.0</ele><time>2026-05-03T12:47:19.145Z</time></trkpt><trkpt lat="44.202219" lon="8.1708462"><ele>1167.0</ele><time>2026-05-03T12:47:21.146Z</time></trkpt><trkpt lat="44.2022882" lon="8.1707785"><ele>1167.0</ele><time>2026-05-03T12:47:23.145Z</time></trkpt><trkpt lat="44.202361" lon="8.1707073"><ele>1167.0</ele><time>2026-05-03T12:47:25.145Z</time></trkpt><trkpt lat="44.2024353" lon="8.1706592"><ele>1167.0</ele><time>2026-05-03T12:47:26.145Z</time></trkpt><trkpt lat="44.2025381" lon="8.1706592"><ele>1167.0</ele><time>2026-05-03T12:47:27.145Z</time></trkpt><trkpt lat="44.2025975" lon="8.1706179"><ele>1167.0</ele><time>2026-05-03T12:47:28.145Z</time></trkpt><trkpt lat="44.2026592" lon="8.1705918"><ele>1165.8333333333333</ele><time>2026-05-03T12:47:29.146Z</time></trkpt><trkpt lat="44.2027589" lon="8.1705884"><ele>1164.6666666666667</ele><time>2026-05-03T12:47:30.145Z</time></trkpt><trkpt lat="44.2028393" lon="8.1706814"><ele>1163.5</ele><time>2026-05-03T12:47:32.145Z</time></trkpt><trkpt lat="44.2028944" lon="8.1707407"><ele>1162.3333333333335</ele><time>2026-05-03T12:47:33.146Z</time></trkpt><trkpt lat="44.202936" lon="8.170826"><ele>1161.1666666666667</ele><time>2026-05-03T12:47:34.145Z</time></trkpt><trkpt lat="44.2029612" lon="8.170927"><ele>1160.0</ele><time>2026-05-03T12:47:35.145Z</time></trkpt><trkpt lat="44.2030244" lon="8.1710955"><ele>1160.0</ele><time>2026-05-03T12:47:37.145Z</time></trkpt><trkpt lat="44.2031328" lon="8.1711623"><ele>1160.0</ele><time>2026-05-03T12:47:39.146Z</time></trkpt><trkpt lat="44.2032601" lon="8.1711862"><ele>1160.0</ele><time>2026-05-03T12:47:41.146Z</time></trkpt><trkpt lat="44.2033268" lon="8.1711754"><ele>1160.0</ele><time>2026-05-03T12:47:42.146Z</time></trkpt><trkpt lat="44.2033948" lon="8.171171"><ele>1160.0</ele><time>2026-05-03T12:47:43.145Z</time></trkpt><trkpt lat="44.2034631" lon="8.1711672"><ele>1158.2</ele><time>2026-05-03T12:47:44.145Z</time></trkpt><trkpt lat="44.203552" lon="8.171133"><ele>1156.4</ele><time>2026-05-03T12:47:45.145Z</time></trkpt><trkpt lat="44.2036539" lon="8.1711364"><ele>1154.6</ele><time>2026-05-03T12:47:47.146Z</time></trkpt><trkpt lat="44.2037859" lon="8.1711937"><ele>1152.8</ele><time>2026-05-03T12:47:50.145Z</time></trkpt><trkpt lat="44.2038396" lon="8.1712682"><ele>1151.0</ele><time>2026-05-03T12:47:51.146Z</time></trkpt><trkpt lat="44.2039101" lon="8.1713521"><ele>1151.0</ele><time>2026-05-03T12:47:52.146Z</time></trkpt><trkpt lat="44.2039783" lon="8.1714312"><ele>1151.0</ele><time>2026-05-03T12:47:53.146Z</time></trkpt><trkpt lat="44.2040398" lon="8.1714859"><ele>1151.0</ele><time>2026-05-03T12:47:54.145Z</time></trkpt><trkpt lat="44.2041099" lon="8.1715428"><ele>1151.0</ele><time>2026-05-03T12:47:55.145Z</time></trkpt><trkpt lat="44.20417" lon="8.1715723"><ele>1151.0</ele><time>2026-05-03T12:47:56.145Z</time></trkpt><trkpt lat="44.2042458" lon="8.1716252"><ele>1151.0</ele><time>2026-05-03T12:47:57.145Z</time></trkpt><trkpt lat="44.2043325" lon="8.1716915"><ele>1150.1666666666667</ele><time>2026-05-03T12:47:58.145Z</time></trkpt><trkpt lat="44.204416" lon="8.1717636"><ele>1149.3333333333335</ele><time>2026-05-03T12:47:59.145Z</time></trkpt><trkpt lat="44.2044875" lon="8.1718312"><ele>1148.5</ele><time>2026-05-03T12:48:00.145Z</time></trkpt><trkpt lat="44.2045558" lon="8.1718986"><ele>1147.6666666666667</ele><time>2026-05-03T12:48:01.145Z</time></trkpt><trkpt lat="44.204611" lon="8.1719861"><ele>1146.8333333333333</ele><time>2026-05-03T12:48:02.145Z</time></trkpt><trkpt lat="44.2046875" lon="8.1720614"><ele>1146.0</ele><time>2026-05-03T12:48:03.145Z</time></trkpt><trkpt lat="44.2047409" lon="8.172131"><ele>1146.0</ele><time>2026-05-03T12:48:04.145Z</time></trkpt><trkpt lat="44.2048095" lon="8.1722198"><ele>1146.0</ele><time>2026-05-03T12:48:05.146Z</time></trkpt><trkpt lat="44.2048578" lon="8.1723959"><ele>1146.0</ele><time>2026-05-03T12:48:07.145Z</time></trkpt><trkpt lat="44.204895" lon="8.1724956"><ele>1146.0</ele><time>2026-05-03T12:48:08.145Z</time></trkpt><trkpt lat="44.2049335" lon="8.172606"><ele>1146.0</ele><time>2026-05-03T12:48:09.145Z</time></trkpt><trkpt lat="44.2049599" lon="8.1726919"><ele>1143.6</ele><time>2026-05-03T12:48:10.145Z</time></trkpt><trkpt lat="44.2049999" lon="8.1727601"><ele>1141.1999999999998</ele><time>2026-05-03T12:48:11.146Z</time></trkpt><trkpt lat="44.2050698" lon="8.1728975"><ele>1138.8000000000002</ele><time>2026-05-03T12:48:13.145Z</time></trkpt><trkpt lat="44.2051271" lon="8.1729483"><ele>1136.4</ele><time>2026-05-03T12:48:15.146Z</time></trkpt><trkpt lat="44.2051985" lon="8.1729595"><ele>1134.0</ele><time>2026-05-03T12:48:18.146Z</time></trkpt><trkpt lat="44.2053234" lon="8.1730012"><ele>1134.0</ele><time>2026-05-03T12:48:22.145Z</time></trkpt><trkpt lat="44.2053908" lon="8.1730901"><ele>1134.0</ele><time>2026-05-03T12:48:24.146Z</time></trkpt><trkpt lat="44.2055343" lon="8.1732861"><ele>1134.0</ele><time>2026-05-03T12:48:26.145Z</time></trkpt><trkpt lat="44.2056427" lon="8.1734358"><ele>1134.0</ele><time>2026-05-03T12:48:27.145Z</time></trkpt><trkpt lat="44.2057443" lon="8.1736021"><ele>1133.0</ele><time>2026-05-03T12:48:28.145Z</time></trkpt><trkpt lat="44.2058628" lon="8.1737679"><ele>1132.0</ele><time>2026-05-03T12:48:29.145Z</time></trkpt><trkpt lat="44.2059684" lon="8.1739237"><ele>1131.0</ele><time>2026-05-03T12:48:30.145Z</time></trkpt><trkpt lat="44.2060807" lon="8.1740906"><ele>1131.0</ele><time>2026-05-03T12:48:31.145Z</time></trkpt><trkpt lat="44.2061827" lon="8.174256"><ele>1131.0</ele><time>2026-05-03T12:48:32.146Z</time></trkpt><trkpt lat="44.2062752" lon="8.17441"><ele>1131.0</ele><time>2026-05-03T12:48:33.145Z</time></trkpt><trkpt lat="44.2063419" lon="8.1745355"><ele>1131.0</ele><time>2026-05-03T12:48:34.145Z</time></trkpt><trkpt lat="44.2064118" lon="8.1746385"><ele>1131.0</ele><time>2026-05-03T12:48:35.145Z</time></trkpt><trkpt lat="44.2064842" lon="8.1747267"><ele>1131.0</ele><time>2026-05-03T12:48:36.145Z</time></trkpt><trkpt lat="44.2065491" lon="8.1748011"><ele>1131.0</ele><time>2026-05-03T12:48:37.145Z</time></trkpt><trkpt lat="44.2066185" lon="8.1748776"><ele>1131.0</ele><time>2026-05-03T12:48:38.145Z</time></trkpt><trkpt lat="44.2067079" lon="8.1749539"><ele>1131.0</ele><time>2026-05-03T12:48:39.145Z</time></trkpt><trkpt lat="44.20681" lon="8.1750276"><ele>1131.6</ele><time>2026-05-03T12:48:40.145Z</time></trkpt><trkpt lat="44.2069182" lon="8.1750979"><ele>1132.1999999999998</ele><time>2026-05-03T12:48:41.145Z</time></trkpt><trkpt lat="44.2070198" lon="8.1751652"><ele>1132.8000000000002</ele><time>2026-05-03T12:48:42.146Z</time></trkpt><trkpt lat="44.2071167" lon="8.1752285"><ele>1133.4</ele><time>2026-05-03T12:48:43.145Z</time></trkpt><trkpt lat="44.2072115" lon="8.1753027"><ele>1134.0</ele><time>2026-05-03T12:48:44.145Z</time></trkpt><trkpt lat="44.2072911" lon="8.1753727"><ele>1134.6666666666667</ele><time>2026-05-03T12:48:45.145Z</time></trkpt><trkpt lat="44.2073624" lon="8.1754322"><ele>1135.3333333333333</ele><time>2026-05-03T12:48:46.145Z</time></trkpt><trkpt lat="44.2074367" lon="8.1754842"><ele>1136.0</ele><time>2026-05-03T12:48:47.145Z</time></trkpt><trkpt lat="44.2075201" lon="8.1755327"><ele>1136.6666666666665</ele><time>2026-05-03T12:48:48.145Z</time></trkpt><trkpt lat="44.2076042" lon="8.1755629"><ele>1137.3333333333333</ele><time>2026-05-03T12:48:49.146Z</time></trkpt><trkpt lat="44.2077031" lon="8.1755778"><ele>1138.0</ele><time>2026-05-03T12:48:50.145Z</time></trkpt><trkpt lat="44.2078115" lon="8.1755738"><ele>1138.0</ele><time>2026-05-03T12:48:51.145Z</time></trkpt><trkpt lat="44.2079109" lon="8.1755659"><ele>1138.0</ele><time>2026-05-03T12:48:52.145Z</time></trkpt><trkpt lat="44.2079858" lon="8.1755629"><ele>1138.0</ele><time>2026-05-03T12:48:53.145Z</time></trkpt><trkpt lat="44.2080664" lon="8.1754509"><ele>1138.0</ele><time>2026-05-03T12:48:56.145Z</time></trkpt><trkpt lat="44.2080805" lon="8.1753579"><ele>1138.0</ele><time>2026-05-03T12:48:57.145Z</time></trkpt><trkpt lat="44.2080791" lon="8.1752391"><ele>1138.0</ele><time>2026-05-03T12:48:58.145Z</time></trkpt><trkpt lat="44.208076" lon="8.1751193"><ele>1138.0</ele><time>2026-05-03T12:48:59.146Z</time></trkpt><trkpt lat="44.2080754" lon="8.1750312"><ele>1138.0</ele><time>2026-05-03T12:49:00.145Z</time></trkpt><trkpt lat="44.2080954" lon="8.1748912"><ele>1138.0</ele><time>2026-05-03T12:49:02.145Z</time></trkpt><trkpt lat="44.2081203" lon="8.1747314"><ele>1138.0</ele><time>2026-05-03T12:49:04.146Z</time></trkpt><trkpt lat="44.208099" lon="8.1745498"><ele>1138.0</ele><time>2026-05-03T12:49:06.145Z</time></trkpt><trkpt lat="44.2080508" lon="8.1744488"><ele>1139.4</ele><time>2026-05-03T12:49:07.145Z</time></trkpt><trkpt lat="44.207995" lon="8.1743391"><ele>1140.8</ele><time>2026-05-03T12:49:08.145Z</time></trkpt><trkpt lat="44.2079411" lon="8.1742189"><ele>1142.2</ele><time>2026-05-03T12:49:09.145Z</time></trkpt><trkpt lat="44.2078885" lon="8.174087"><ele>1143.6</ele><time>2026-05-03T12:49:10.145Z</time></trkpt><trkpt lat="44.2078382" lon="8.1739451"><ele>1145.0</ele><time>2026-05-03T12:49:11.145Z</time></trkpt><trkpt lat="44.2077957" lon="8.1738433"><ele>1148.0</ele><time>2026-05-03T12:49:12.145Z</time></trkpt><trkpt lat="44.207764" lon="8.1737522"><ele>1151.0</ele><time>2026-05-03T12:49:13.146Z</time></trkpt><trkpt lat="44.207758" lon="8.1735982"><ele>1154.0</ele><time>2026-05-03T12:49:15.146Z</time></trkpt><trkpt lat="44.2078128" lon="8.1734544"><ele>1157.0</ele><time>2026-05-03T12:49:17.146Z</time></trkpt><trkpt lat="44.2079678" lon="8.1734709"><ele>1157.0</ele><time>2026-05-03T12:49:20.146Z</time></trkpt><trkpt lat="44.2080828" lon="8.1735479"><ele>1157.0</ele><time>2026-05-03T12:49:22.146Z</time></trkpt><trkpt lat="44.2081438" lon="8.1735717"><ele>1157.0</ele><time>2026-05-03T12:49:23.146Z</time></trkpt><trkpt lat="44.2082437" lon="8.1736589"><ele>1157.0</ele><time>2026-05-03T12:49:25.146Z</time></trkpt><trkpt lat="44.2083462" lon="8.1737334"><ele>1157.0</ele><time>2026-05-03T12:49:27.146Z</time></trkpt><trkpt lat="44.2084051" lon="8.1737701"><ele>1157.1666666666667</ele><time>2026-05-03T12:49:28.146Z</time></trkpt><trkpt lat="44.2084805" lon="8.1738382"><ele>1157.3333333333335</ele><time>2026-05-03T12:49:29.146Z</time></trkpt><trkpt lat="44.2085528" lon="8.1738982"><ele>1157.5</ele><time>2026-05-03T12:49:30.146Z</time></trkpt><trkpt lat="44.2086227" lon="8.1739621"><ele>1157.6666666666667</ele><time>2026-05-03T12:49:31.146Z</time></trkpt><trkpt lat="44.208691" lon="8.1740294"><ele>1157.8333333333333</ele><time>2026-05-03T12:49:32.146Z</time></trkpt><trkpt lat="44.2087732" lon="8.1740817"><ele>1158.0</ele><time>2026-05-03T12:49:33.146Z</time></trkpt><trkpt lat="44.2088562" lon="8.1741273"><ele>1158.0</ele><time>2026-05-03T12:49:34.146Z</time></trkpt><trkpt lat="44.208936" lon="8.174177"><ele>1158.0</ele><time>2026-05-03T12:49:35.146Z</time></trkpt><trkpt lat="44.209007" lon="8.1742164"><ele>1158.0</ele><time>2026-05-03T12:49:36.147Z</time></trkpt><trkpt lat="44.2090792" lon="8.1742462"><ele>1158.0</ele><time>2026-05-03T12:49:37.145Z</time></trkpt><trkpt lat="44.2091611" lon="8.1742561"><ele>1158.0</ele><time>2026-05-03T12:49:38.146Z</time></trkpt><trkpt lat="44.209246" lon="8.1742517"><ele>1158.0</ele><time>2026-05-03T12:49:39.147Z</time></trkpt><trkpt lat="44.2093375" lon="8.1742441"><ele>1161.6</ele><time>2026-05-03T12:49:40.147Z</time></trkpt><trkpt lat="44.2094234" lon="8.1742479"><ele>1165.1999999999998</ele><time>2026-05-03T12:49:41.146Z</time></trkpt><trkpt lat="44.209497" lon="8.1742568"><ele>1168.8</ele><time>2026-05-03T12:49:42.146Z</time></trkpt><trkpt lat="44.2095912" lon="8.1742939"><ele>1172.3999999999999</ele><time>2026-05-03T12:49:43.146Z</time></trkpt><trkpt lat="44.2096768" lon="8.1743713"><ele>1176.0</ele><time>2026-05-03T12:49:44.146Z</time></trkpt><trkpt lat="44.2097467" lon="8.1744574"><ele>1176.0</ele><time>2026-05-03T12:49:45.146Z</time></trkpt><trkpt lat="44.2098225" lon="8.1745202"><ele>1176.0</ele><time>2026-05-03T12:49:46.146Z</time></trkpt><trkpt lat="44.2099128" lon="8.1745549"><ele>1176.0</ele><time>2026-05-03T12:49:47.146Z</time></trkpt><trkpt lat="44.2099953" lon="8.1745766"><ele>1176.0</ele><time>2026-05-03T12:49:48.146Z</time></trkpt><trkpt lat="44.2100895" lon="8.1745988"><ele>1176.0</ele><time>2026-05-03T12:49:50.146Z</time></trkpt><trkpt lat="44.2101708" lon="8.1746138"><ele>1176.0</ele><time>2026-05-03T12:49:55.146Z</time></trkpt><trkpt lat="44.2102306" lon="8.1746707"><ele>1179.6</ele><time>2026-05-03T12:49:57.147Z</time></trkpt><trkpt lat="44.2103137" lon="8.1747074"><ele>1183.1999999999998</ele><time>2026-05-03T12:49:59.146Z</time></trkpt><trkpt lat="44.2104072" lon="8.1746031"><ele>1186.8000000000002</ele><time>2026-05-03T12:50:01.146Z</time></trkpt><trkpt lat="44.2104552" lon="8.1745276"><ele>1190.4</ele><time>2026-05-03T12:50:02.146Z</time></trkpt><trkpt lat="44.2104982" lon="8.1743882"><ele>1194.0</ele><time>2026-05-03T12:50:04.146Z</time></trkpt><trkpt lat="44.2105372" lon="8.1742375"><ele>1194.0</ele><time>2026-05-03T12:50:06.146Z</time></trkpt><trkpt lat="44.2106139" lon="8.1742027"><ele>1194.0</ele><time>2026-05-03T12:50:07.147Z</time></trkpt><trkpt lat="44.210694" lon="8.1742098"><ele>1194.0</ele><time>2026-05-03T12:50:08.146Z</time></trkpt><trkpt lat="44.2107698" lon="8.1742138"><ele>1194.0</ele><time>2026-05-03T12:50:09.146Z</time></trkpt><trkpt lat="44.2108444" lon="8.1742693"><ele>1194.0</ele><time>2026-05-03T12:50:10.146Z</time></trkpt><trkpt lat="44.2109267" lon="8.1743447"><ele>1194.0</ele><time>2026-05-03T12:50:11.146Z</time></trkpt><trkpt lat="44.2110277" lon="8.1744136"><ele>1193.8333333333333</ele><time>2026-05-03T12:50:13.146Z</time></trkpt><trkpt lat="44.2110986" lon="8.1744074"><ele>1193.6666666666667</ele><time>2026-05-03T12:50:14.146Z</time></trkpt><trkpt lat="44.211165" lon="8.1743855"><ele>1193.5</ele><time>2026-05-03T12:50:15.146Z</time></trkpt><trkpt lat="44.2112256" lon="8.1743452"><ele>1193.3333333333335</ele><time>2026-05-03T12:50:16.146Z</time></trkpt><trkpt lat="44.2112667" lon="8.1742181"><ele>1193.1666666666667</ele><time>2026-05-03T12:50:17.146Z</time></trkpt><trkpt lat="44.2113184" lon="8.1741262"><ele>1193.0</ele><time>2026-05-03T12:50:18.146Z</time></trkpt><trkpt lat="44.2113714" lon="8.1740058"><ele>1199.6</ele><time>2026-05-03T12:50:20.146Z</time></trkpt><trkpt lat="44.2114453" lon="8.1739405"><ele>1206.1999999999998</ele><time>2026-05-03T12:50:23.147Z</time></trkpt><trkpt lat="44.2115147" lon="8.1738697"><ele>1212.8</ele><time>2026-05-03T12:50:25.146Z</time></trkpt><trkpt lat="44.2116118" lon="8.1739045"><ele>1219.3999999999999</ele><time>2026-05-03T12:50:27.146Z</time></trkpt><trkpt lat="44.2117041" lon="8.1739239"><ele>1226.0</ele><time>2026-05-03T12:50:28.146Z</time></trkpt><trkpt lat="44.2117901" lon="8.1739726"><ele>1226.0</ele><time>2026-05-03T12:50:29.147Z</time></trkpt><trkpt lat="44.211877" lon="8.1740163"><ele>1226.0</ele><time>2026-05-03T12:50:30.146Z</time></trkpt><trkpt lat="44.2119888" lon="8.1740644"><ele>1226.0</ele><time>2026-05-03T12:50:31.146Z</time></trkpt><trkpt lat="44.2120884" lon="8.1741218"><ele>1226.0</ele><time>2026-05-03T12:50:32.146Z</time></trkpt><trkpt lat="44.2121605" lon="8.174118"><ele>1226.0</ele><time>2026-05-03T12:50:33.146Z</time></trkpt><trkpt lat="44.2122967" lon="8.1741383"><ele>1224.0</ele><time>2026-05-03T12:50:35.146Z</time></trkpt><trkpt lat="44.2123598" lon="8.1741378"><ele>1222.0</ele><time>2026-05-03T12:50:36.147Z</time></trkpt><trkpt lat="44.212443" lon="8.1741021"><ele>1220.0</ele><time>2026-05-03T12:50:37.147Z</time></trkpt><trkpt lat="44.2125009" lon="8.1740613"><ele>1218.0</ele><time>2026-05-03T12:50:38.146Z</time></trkpt><trkpt lat="44.2126117" lon="8.1739934"><ele>1216.0</ele><time>2026-05-03T12:50:40.146Z</time></trkpt><trkpt lat="44.2126814" lon="8.1739711"><ele>1214.0</ele><time>2026-05-03T12:50:41.146Z</time></trkpt><trkpt lat="44.2127545" lon="8.1739827"><ele>1214.0</ele><time>2026-05-03T12:50:42.147Z</time></trkpt><trkpt lat="44.212819" lon="8.1739877"><ele>1214.0</ele><time>2026-05-03T12:50:43.146Z</time></trkpt><trkpt lat="44.2128899" lon="8.1740155"><ele>1214.0</ele><time>2026-05-03T12:50:44.146Z</time></trkpt><trkpt lat="44.2129687" lon="8.1740951"><ele>1214.0</ele><time>2026-05-03T12:50:45.146Z</time></trkpt><trkpt lat="44.2130331" lon="8.1741714"><ele>1214.0</ele><time>2026-05-03T12:50:46.146Z</time></trkpt><trkpt lat="44.2130716" lon="8.1742709"><ele>1214.0</ele><time>2026-05-03T12:50:47.146Z</time></trkpt><trkpt lat="44.2131277" lon="8.1743622"><ele>1212.8333333333335</ele><time>2026-05-03T12:50:48.146Z</time></trkpt><trkpt lat="44.2131412" lon="8.1744798"><ele>1211.6666666666667</ele><time>2026-05-03T12:50:49.146Z</time></trkpt><trkpt lat="44.2131731" lon="8.1746389"><ele>1210.5</ele><time>2026-05-03T12:50:50.147Z</time></trkpt><trkpt lat="44.2131678" lon="8.1747392"><ele>1209.3333333333333</ele><time>2026-05-03T12:50:51.146Z</time></trkpt><trkpt lat="44.213172" lon="8.1748641"><ele>1208.1666666666665</ele><time>2026-05-03T12:50:52.146Z</time></trkpt><trkpt lat="44.2131719" lon="8.1749589"><ele>1207.0</ele><time>2026-05-03T12:50:53.146Z</time></trkpt><trkpt lat="44.2131778" lon="8.1750721"><ele>1204.6666666666665</ele><time>2026-05-03T12:50:54.147Z</time></trkpt><trkpt lat="44.2131889" lon="8.1751832"><ele>1202.3333333333333</ele><time>2026-05-03T12:50:55.147Z</time></trkpt><trkpt lat="44.2131843" lon="8.1752979"><ele>1200.0</ele><time>2026-05-03T12:50:56.147Z</time></trkpt><trkpt lat="44.2131914" lon="8.1753968"><ele>1197.6666666666667</ele><time>2026-05-03T12:50:57.146Z</time></trkpt><trkpt lat="44.2132187" lon="8.1755561"><ele>1195.3333333333335</ele><time>2026-05-03T12:50:59.146Z</time></trkpt><trkpt lat="44.2132821" lon="8.1755998"><ele>1193.0</ele><time>2026-05-03T12:51:00.146Z</time></trkpt><trkpt lat="44.2133268" lon="8.1756661"><ele>1190.6666666666667</ele><time>2026-05-03T12:51:01.146Z</time></trkpt><trkpt lat="44.2133913" lon="8.1757319"><ele>1188.3333333333335</ele><time>2026-05-03T12:51:02.146Z</time></trkpt><trkpt lat="44.2134547" lon="8.1758462"><ele>1186.0</ele><time>2026-05-03T12:51:03.146Z</time></trkpt><trkpt lat="44.2135073" lon="8.1759499"><ele>1183.6666666666667</ele><time>2026-05-03T12:51:04.146Z</time></trkpt><trkpt lat="44.2135506" lon="8.1760573"><ele>1181.3333333333333</ele><time>2026-05-03T12:51:05.146Z</time></trkpt><trkpt lat="44.2136053" lon="8.176148"><ele>1179.0</ele><time>2026-05-03T12:51:06.146Z</time></trkpt><trkpt lat="44.2136572" lon="8.1762365"><ele>1179.0</ele><time>2026-05-03T12:51:07.147Z</time></trkpt><trkpt lat="44.2137004" lon="8.1763092"><ele>1179.0</ele><time>2026-05-03T12:51:08.146Z</time></trkpt><trkpt lat="44.2137847" lon="8.1763722"><ele>1179.0</ele><time>2026-05-03T12:51:10.146Z</time></trkpt><trkpt lat="44.2138607" lon="8.1763653"><ele>1179.0</ele><time>2026-05-03T12:51:11.146Z</time></trkpt><trkpt lat="44.2139348" lon="8.1763199"><ele>1179.0</ele><time>2026-05-03T12:51:12.146Z</time></trkpt><trkpt lat="44.2140172" lon="8.1762723"><ele>1179.0</ele><time>2026-05-03T12:51:13.147Z</time></trkpt><trkpt lat="44.2141127" lon="8.1762332"><ele>1180.8</ele><time>2026-05-03T12:51:14.146Z</time></trkpt><trkpt lat="44.2141998" lon="8.1761979"><ele>1182.6000000000001</ele><time>2026-05-03T12:51:15.147Z</time></trkpt><trkpt lat="44.2142859" lon="8.1761752"><ele>1184.4</ele><time>2026-05-03T12:51:16.146Z</time></trkpt><trkpt lat="44.214362" lon="8.1761367"><ele>1186.2</ele><time>2026-05-03T12:51:17.146Z</time></trkpt><trkpt lat="44.2144761" lon="8.1760662"><ele>1188.0</ele><time>2026-05-03T12:51:18.146Z</time></trkpt><trkpt lat="44.2145622" lon="8.1760307"><ele>1188.0</ele><time>2026-05-03T12:51:19.146Z</time></trkpt><trkpt lat="44.2146642" lon="8.1759931"><ele>1188.0</ele><time>2026-05-03T12:51:20.146Z</time></trkpt><trkpt lat="44.2147499" lon="8.1759912"><ele>1188.0</ele><time>2026-05-03T12:51:21.146Z</time></trkpt><trkpt lat="44.2148265" lon="8.1759915"><ele>1188.0</ele><time>2026-05-03T12:51:22.146Z</time></trkpt><trkpt lat="44.2149164" lon="8.1759968"><ele>1188.0</ele><time>2026-05-03T12:51:23.146Z</time></trkpt><trkpt lat="44.2150005" lon="8.175956"><ele>1188.0</ele><time>2026-05-03T12:51:24.146Z</time></trkpt><trkpt lat="44.2150673" lon="8.1759337"><ele>1186.8</ele><time>2026-05-03T12:51:25.147Z</time></trkpt><trkpt lat="44.2151872" lon="8.1758872"><ele>1185.6</ele><time>2026-05-03T12:51:27.146Z</time></trkpt><trkpt lat="44.2152533" lon="8.1758691"><ele>1184.4</ele><time>2026-05-03T12:51:28.146Z</time></trkpt><trkpt lat="44.2153419" lon="8.1758822"><ele>1183.2</ele><time>2026-05-03T12:51:30.146Z</time></trkpt><trkpt lat="44.2154416" lon="8.1759616"><ele>1182.0</ele><time>2026-05-03T12:51:31.146Z</time></trkpt><trkpt lat="44.2155108" lon="8.176083"><ele>1182.0</ele><time>2026-05-03T12:51:32.146Z</time></trkpt><trkpt lat="44.2155857" lon="8.1761782"><ele>1182.0</ele><time>2026-05-03T12:51:33.147Z</time></trkpt><trkpt lat="44.2156337" lon="8.1762742"><ele>1182.0</ele><time>2026-05-03T12:51:34.146Z</time></trkpt><trkpt lat="44.2156743" lon="8.1763742"><ele>1182.0</ele><time>2026-05-03T12:51:35.147Z</time></trkpt><trkpt lat="44.2157271" lon="8.1764782"><ele>1182.0</ele><time>2026-05-03T12:51:36.146Z</time></trkpt><trkpt lat="44.2157707" lon="8.1765763"><ele>1182.0</ele><time>2026-05-03T12:51:37.146Z</time></trkpt><trkpt lat="44.2158269" lon="8.1766736"><ele>1180.1666666666667</ele><time>2026-05-03T12:51:38.146Z</time></trkpt><trkpt lat="44.2158761" lon="8.1767598"><ele>1178.3333333333333</ele><time>2026-05-03T12:51:39.147Z</time></trkpt><trkpt lat="44.2159506" lon="8.1768552"><ele>1176.5</ele><time>2026-05-03T12:51:40.146Z</time></trkpt><trkpt lat="44.2160119" lon="8.1768779"><ele>1174.6666666666665</ele><time>2026-05-03T12:51:41.146Z</time></trkpt><trkpt lat="44.216076" lon="8.1769495"><ele>1172.8333333333333</ele><time>2026-05-03T12:51:42.146Z</time></trkpt><trkpt lat="44.2161575" lon="8.1770427"><ele>1171.0</ele><time>2026-05-03T12:51:44.146Z</time></trkpt><trkpt lat="44.216221" lon="8.1770962"><ele>1171.0</ele><time>2026-05-03T12:51:46.146Z</time></trkpt><trkpt lat="44.2162788" lon="8.1771653"><ele>1171.0</ele><time>2026-05-03T12:51:48.146Z</time></trkpt><trkpt lat="44.2163227" lon="8.1772461"><ele>1171.0</ele><time>2026-05-03T12:51:50.146Z</time></trkpt><trkpt lat="44.21635" lon="8.1773536"><ele>1171.0</ele><time>2026-05-03T12:51:52.147Z</time></trkpt><trkpt lat="44.2163552" lon="8.1775142"><ele>1171.0</ele><time>2026-05-03T12:51:54.146Z</time></trkpt><trkpt lat="44.2163575" lon="8.177621"><ele>1171.0</ele><time>2026-05-03T12:51:55.146Z</time></trkpt><trkpt lat="44.2163573" lon="8.1777368"><ele>1171.0</ele><time>2026-05-03T12:51:56.146Z</time></trkpt><trkpt lat="44.2163905" lon="8.1778862"><ele>1171.0</ele><time>2026-05-03T12:51:58.146Z</time></trkpt><trkpt lat="44.2164783" lon="8.1779391"><ele>1171.0</ele><time>2026-05-03T12:52:00.146Z</time></trkpt><trkpt lat="44.2165441" lon="8.1779788"><ele>1171.0</ele><time>2026-05-03T12:52:01.146Z</time></trkpt><trkpt lat="44.2166108" lon="8.1780235"><ele>1171.0</ele><time>2026-05-03T12:52:02.147Z</time></trkpt><trkpt lat="44.216686" lon="8.1780973"><ele>1171.0</ele><time>2026-05-03T12:52:03.146Z</time></trkpt><trkpt lat="44.2167601" lon="8.1781987"><ele>1171.0</ele><time>2026-05-03T12:52:04.146Z</time></trkpt><trkpt lat="44.2168125" lon="8.1782985"><ele>1171.0</ele><time>2026-05-03T12:52:05.146Z</time></trkpt><trkpt lat="44.2168664" lon="8.1783804"><ele>1171.0</ele><time>2026-05-03T12:52:06.146Z</time></trkpt><trkpt lat="44.2169332" lon="8.1784609"><ele>1171.0</ele><time>2026-05-03T12:52:07.147Z</time></trkpt><trkpt lat="44.217006" lon="8.1785113"><ele>1171.0</ele><time>2026-05-03T12:52:08.146Z</time></trkpt><trkpt lat="44.2170756" lon="8.1785505"><ele>1171.0</ele><time>2026-05-03T12:52:09.146Z</time></trkpt><trkpt lat="44.2171587" lon="8.1786037"><ele>1171.0</ele><time>2026-05-03T12:52:10.147Z</time></trkpt><trkpt lat="44.2172426" lon="8.1786619"><ele>1171.0</ele><time>2026-05-03T12:52:11.146Z</time></trkpt><trkpt lat="44.2173252" lon="8.1787178"><ele>1171.0</ele><time>2026-05-03T12:52:12.146Z</time></trkpt><trkpt lat="44.2173976" lon="8.1787717"><ele>1171.0</ele><time>2026-05-03T12:52:13.146Z</time></trkpt><trkpt lat="44.2174573" lon="8.178816"><ele>1171.0</ele><time>2026-05-03T12:52:14.146Z</time></trkpt><trkpt lat="44.2175261" lon="8.1788598"><ele>1171.0</ele><time>2026-05-03T12:52:15.146Z</time></trkpt><trkpt lat="44.2175967" lon="8.1789001"><ele>1171.1666666666665</ele><time>2026-05-03T12:52:16.146Z</time></trkpt><trkpt lat="44.2176689" lon="8.1789556"><ele>1171.3333333333333</ele><time>2026-05-03T12:52:17.146Z</time></trkpt><trkpt lat="44.2177367" lon="8.1790112"><ele>1171.5</ele><time>2026-05-03T12:52:18.147Z</time></trkpt><trkpt lat="44.2178072" lon="8.1790653"><ele>1171.6666666666667</ele><time>2026-05-03T12:52:19.147Z</time></trkpt><trkpt lat="44.2178686" lon="8.1791229"><ele>1171.8333333333335</ele><time>2026-05-03T12:52:20.146Z</time></trkpt><trkpt lat="44.2179235" lon="8.1791845"><ele>1172.0</ele><time>2026-05-03T12:52:21.147Z</time></trkpt><trkpt lat="44.2179729" lon="8.1792481"><ele>1172.0</ele><time>2026-05-03T12:52:22.146Z</time></trkpt><trkpt lat="44.2180219" lon="8.1793126"><ele>1172.0</ele><time>2026-05-03T12:52:23.146Z</time></trkpt><trkpt lat="44.2180851" lon="8.1793685"><ele>1172.0</ele><time>2026-05-03T12:52:24.146Z</time></trkpt><trkpt lat="44.2181518" lon="8.1794087"><ele>1172.0</ele><time>2026-05-03T12:52:25.148Z</time></trkpt><trkpt lat="44.218224" lon="8.1794346"><ele>1172.0</ele><time>2026-05-03T12:52:26.146Z</time></trkpt><trkpt lat="44.2183034" lon="8.1794723"><ele>1172.0</ele><time>2026-05-03T12:52:27.146Z</time></trkpt><trkpt lat="44.2183861" lon="8.1795343"><ele>1172.0</ele><time>2026-05-03T12:52:28.146Z</time></trkpt><trkpt lat="44.2184601" lon="8.1796025"><ele>1172.0</ele><time>2026-05-03T12:52:29.146Z</time></trkpt><trkpt lat="44.2185266" lon="8.1796725"><ele>1172.0</ele><time>2026-05-03T12:52:30.146Z</time></trkpt><trkpt lat="44.2185955" lon="8.1797449"><ele>1172.0</ele><time>2026-05-03T12:52:31.147Z</time></trkpt><trkpt lat="44.2186582" lon="8.1798126"><ele>1172.0</ele><time>2026-05-03T12:52:32.146Z</time></trkpt><trkpt lat="44.2187154" lon="8.1798722"><ele>1172.0</ele><time>2026-05-03T12:52:33.146Z</time></trkpt><trkpt lat="44.2187807" lon="8.1799532"><ele>1172.0</ele><time>2026-05-03T12:52:34.146Z</time></trkpt><trkpt lat="44.2188412" lon="8.1800372"><ele>1172.0</ele><time>2026-05-03T12:52:35.146Z</time></trkpt><trkpt lat="44.2188992" lon="8.18014"><ele>1172.0</ele><time>2026-05-03T12:52:36.146Z</time></trkpt><trkpt lat="44.2189659" lon="8.1802507"><ele>1172.0</ele><time>2026-05-03T12:52:37.148Z</time></trkpt><trkpt lat="44.2190333" lon="8.1803623"><ele>1172.0</ele><time>2026-05-03T12:52:38.147Z</time></trkpt><trkpt lat="44.2190967" lon="8.1804811"><ele>1175.1666666666667</ele><time>2026-05-03T12:52:39.146Z</time></trkpt><trkpt lat="44.2191564" lon="8.1806046"><ele>1178.3333333333335</ele><time>2026-05-03T12:52:40.146Z</time></trkpt><trkpt lat="44.2192038" lon="8.1807198"><ele>1181.5</ele><time>2026-05-03T12:52:41.146Z</time></trkpt><trkpt lat="44.2192451" lon="8.1808298"><ele>1184.6666666666667</ele><time>2026-05-03T12:52:42.146Z</time></trkpt><trkpt lat="44.2192925" lon="8.1809219"><ele>1187.8333333333333</ele><time>2026-05-03T12:52:43.146Z</time></trkpt><trkpt lat="44.2193464" lon="8.180994"><ele>1191.0</ele><time>2026-05-03T12:52:44.146Z</time></trkpt><trkpt lat="44.219391" lon="8.1810667"><ele>1191.0</ele><time>2026-05-03T12:52:45.146Z</time></trkpt><trkpt lat="44.2194352" lon="8.1812252"><ele>1191.0</ele><time>2026-05-03T12:52:47.146Z</time></trkpt><trkpt lat="44.2194673" lon="8.1813049"><ele>1191.0</ele><time>2026-05-03T12:52:48.146Z</time></trkpt><trkpt lat="44.2195034" lon="8.1813809"><ele>1191.0</ele><time>2026-05-03T12:52:49.146Z</time></trkpt><trkpt lat="44.2195371" lon="8.1814668"><ele>1191.0</ele><time>2026-05-03T12:52:50.146Z</time></trkpt><trkpt lat="44.2195684" lon="8.1815462"><ele>1191.0</ele><time>2026-05-03T12:52:51.146Z</time></trkpt><trkpt lat="44.219604" lon="8.181633"><ele>1190.1666666666667</ele><time>2026-05-03T12:52:52.146Z</time></trkpt><trkpt lat="44.2196448" lon="8.1817258"><ele>1189.3333333333333</ele><time>2026-05-03T12:52:53.146Z</time></trkpt><trkpt lat="44.2196811" lon="8.1818235"><ele>1188.5</ele><time>2026-05-03T12:52:54.146Z</time></trkpt><trkpt lat="44.2197127" lon="8.1819268"><ele>1187.6666666666665</ele><time>2026-05-03T12:52:55.146Z</time></trkpt><trkpt lat="44.2197396" lon="8.1820434"><ele>1186.8333333333333</ele><time>2026-05-03T12:52:56.146Z</time></trkpt><trkpt lat="44.2197634" lon="8.1821556"><ele>1186.0</ele><time>2026-05-03T12:52:57.147Z</time></trkpt><trkpt lat="44.2197987" lon="8.1822553"><ele>1192.8</ele><time>2026-05-03T12:52:58.147Z</time></trkpt><trkpt lat="44.2198414" lon="8.1823502"><ele>1199.6</ele><time>2026-05-03T12:52:59.146Z</time></trkpt><trkpt lat="44.2198841" lon="8.182456"><ele>1206.4</ele><time>2026-05-03T12:53:00.146Z</time></trkpt><trkpt lat="44.2199344" lon="8.182568"><ele>1213.2</ele><time>2026-05-03T12:53:01.146Z</time></trkpt><trkpt lat="44.219983" lon="8.1826785"><ele>1220.0</ele><time>2026-05-03T12:53:02.147Z</time></trkpt><trkpt lat="44.220039" lon="8.1827968"><ele>1220.0</ele><time>2026-05-03T12:53:03.146Z</time></trkpt><trkpt lat="44.2200935" lon="8.1829056"><ele>1220.0</ele><time>2026-05-03T12:53:04.146Z</time></trkpt><trkpt lat="44.2201396" lon="8.1830223"><ele>1220.0</ele><time>2026-05-03T12:53:05.146Z</time></trkpt><trkpt lat="44.2201765" lon="8.1831512"><ele>1220.0</ele><time>2026-05-03T12:53:06.146Z</time></trkpt><trkpt lat="44.2202102" lon="8.18327"><ele>1220.0</ele><time>2026-05-03T12:53:07.146Z</time></trkpt><trkpt lat="44.220234" lon="8.1833838"><ele>1219.3333333333335</ele><time>2026-05-03T12:53:08.146Z</time></trkpt><trkpt lat="44.2202527" lon="8.1834809"><ele>1218.6666666666667</ele><time>2026-05-03T12:53:09.146Z</time></trkpt><trkpt lat="44.2202745" lon="8.1835652"><ele>1218.0</ele><time>2026-05-03T12:53:10.147Z</time></trkpt><trkpt lat="44.220301" lon="8.1836613"><ele>1217.3333333333333</ele><time>2026-05-03T12:53:11.146Z</time></trkpt><trkpt lat="44.2203293" lon="8.1837708"><ele>1216.6666666666665</ele><time>2026-05-03T12:53:12.146Z</time></trkpt><trkpt lat="44.2203833" lon="8.1838727"><ele>1216.0</ele><time>2026-05-03T12:53:13.146Z</time></trkpt><trkpt lat="44.2204617" lon="8.1839628"><ele>1214.2</ele><time>2026-05-03T12:53:14.146Z</time></trkpt><trkpt lat="44.220554" lon="8.1840377"><ele>1212.3999999999999</ele><time>2026-05-03T12:53:15.147Z</time></trkpt><trkpt lat="44.2206342" lon="8.1841032"><ele>1210.6</ele><time>2026-05-03T12:53:16.146Z</time></trkpt><trkpt lat="44.2207094" lon="8.1841793"><ele>1208.8</ele><time>2026-05-03T12:53:17.146Z</time></trkpt><trkpt lat="44.2207939" lon="8.1842623"><ele>1207.0</ele><time>2026-05-03T12:53:18.146Z</time></trkpt><trkpt lat="44.2208784" lon="8.1843298"><ele>1211.5</ele><time>2026-05-03T12:53:19.146Z</time></trkpt><trkpt lat="44.2209611" lon="8.1843723"><ele>1216.0</ele><time>2026-05-03T12:53:20.148Z</time></trkpt><trkpt lat="44.2210455" lon="8.1844171"><ele>1220.5</ele><time>2026-05-03T12:53:21.146Z</time></trkpt><trkpt lat="44.2211331" lon="8.1844698"><ele>1225.0</ele><time>2026-05-03T12:53:22.147Z</time></trkpt><trkpt lat="44.2212215" lon="8.1845244"><ele>1229.5</ele><time>2026-05-03T12:53:23.147Z</time></trkpt><trkpt lat="44.2212848" lon="8.1845694"><ele>1234.0</ele><time>2026-05-03T12:53:24.147Z</time></trkpt><trkpt lat="44.2213999" lon="8.1846444"><ele>1234.0</ele><time>2026-05-03T12:53:26.146Z</time></trkpt><trkpt lat="44.2214672" lon="8.1846891"><ele>1234.0</ele><time>2026-05-03T12:53:27.146Z</time></trkpt><trkpt lat="44.2215174" lon="8.1847449"><ele>1234.0</ele><time>2026-05-03T12:53:28.146Z</time></trkpt><trkpt lat="44.2215623" lon="8.1848109"><ele>1234.0</ele><time>2026-05-03T12:53:29.147Z</time></trkpt><trkpt lat="44.2216121" lon="8.1848697"><ele>1234.0</ele><time>2026-05-03T12:53:30.146Z</time></trkpt><trkpt lat="44.221664" lon="8.1849239"><ele>1234.0</ele><time>2026-05-03T12:53:31.148Z</time></trkpt><trkpt lat="44.2217119" lon="8.1849997"><ele>1234.0</ele><time>2026-05-03T12:53:32.146Z</time></trkpt><trkpt lat="44.2217595" lon="8.1850773"><ele>1232.142857142857</ele><time>2026-05-03T12:53:33.147Z</time></trkpt><trkpt lat="44.2218079" lon="8.1851499"><ele>1230.2857142857142</ele><time>2026-05-03T12:53:34.146Z</time></trkpt><trkpt lat="44.2218479" lon="8.1852184"><ele>1228.4285714285713</ele><time>2026-05-03T12:53:35.146Z</time></trkpt><trkpt lat="44.2218883" lon="8.1852904"><ele>1226.5714285714284</ele><time>2026-05-03T12:53:36.147Z</time></trkpt><trkpt lat="44.2219306" lon="8.1853607"><ele>1224.7142857142858</ele><time>2026-05-03T12:53:37.146Z</time></trkpt><trkpt lat="44.2220111" lon="8.1854746"><ele>1222.8571428571427</ele><time>2026-05-03T12:53:39.146Z</time></trkpt><trkpt lat="44.2220657" lon="8.18552"><ele>1221.0</ele><time>2026-05-03T12:53:40.146Z</time></trkpt><trkpt lat="44.2221718" lon="8.1856479"><ele>1219.3333333333333</ele><time>2026-05-03T12:53:42.146Z</time></trkpt><trkpt lat="44.2222042" lon="8.1857596"><ele>1217.6666666666667</ele><time>2026-05-03T12:53:43.147Z</time></trkpt><trkpt lat="44.2222486" lon="8.1858567"><ele>1216.0</ele><time>2026-05-03T12:53:44.146Z</time></trkpt><trkpt lat="44.2222817" lon="8.1859481"><ele>1214.3333333333335</ele><time>2026-05-03T12:53:45.147Z</time></trkpt><trkpt lat="44.2223257" lon="8.1860252"><ele>1212.6666666666667</ele><time>2026-05-03T12:53:46.146Z</time></trkpt><trkpt lat="44.2223889" lon="8.186102"><ele>1211.0</ele><time>2026-05-03T12:53:47.146Z</time></trkpt><trkpt lat="44.2224322" lon="8.1861757"><ele>1211.0</ele><time>2026-05-03T12:53:48.146Z</time></trkpt><trkpt lat="44.2224863" lon="8.1862433"><ele>1211.0</ele><time>2026-05-03T12:53:49.146Z</time></trkpt><trkpt lat="44.2225527" lon="8.1863089"><ele>1211.0</ele><time>2026-05-03T12:53:50.146Z</time></trkpt><trkpt lat="44.2226172" lon="8.1863686"><ele>1211.0</ele><time>2026-05-03T12:53:51.146Z</time></trkpt><trkpt lat="44.2226731" lon="8.1864417"><ele>1211.0</ele><time>2026-05-03T12:53:52.146Z</time></trkpt><trkpt lat="44.2227357" lon="8.1865209"><ele>1211.0</ele><time>2026-05-03T12:53:53.147Z</time></trkpt><trkpt lat="44.2227842" lon="8.1866037"><ele>1205.5</ele><time>2026-05-03T12:53:54.147Z</time></trkpt><trkpt lat="44.2228295" lon="8.1866663"><ele>1200.0</ele><time>2026-05-03T12:53:55.146Z</time></trkpt><trkpt lat="44.2228741" lon="8.1867565"><ele>1194.5</ele><time>2026-05-03T12:53:56.146Z</time></trkpt><trkpt lat="44.2228986" lon="8.1868439"><ele>1189.0</ele><time>2026-05-03T12:53:57.147Z</time></trkpt><trkpt lat="44.2229114" lon="8.1869433"><ele>1183.5</ele><time>2026-05-03T12:53:58.146Z</time></trkpt><trkpt lat="44.2229337" lon="8.1870892"><ele>1178.0</ele><time>2026-05-03T12:54:00.146Z</time></trkpt><trkpt lat="44.2229786" lon="8.187243"><ele>1173.8</ele><time>2026-05-03T12:54:02.146Z</time></trkpt><trkpt lat="44.2229989" lon="8.1874003"><ele>1169.6</ele><time>2026-05-03T12:54:04.146Z</time></trkpt><trkpt lat="44.223008" lon="8.1874975"><ele>1165.4</ele><time>2026-05-03T12:54:05.147Z</time></trkpt><trkpt lat="44.2229869" lon="8.1875962"><ele>1161.2</ele><time>2026-05-03T12:54:06.147Z</time></trkpt><trkpt lat="44.2229562" lon="8.1877808"><ele>1157.0</ele><time>2026-05-03T12:54:08.147Z</time></trkpt><trkpt lat="44.2229293" lon="8.1879561"><ele>1157.0</ele><time>2026-05-03T12:54:10.146Z</time></trkpt><trkpt lat="44.222918" lon="8.1880619"><ele>1157.0</ele><time>2026-05-03T12:54:11.146Z</time></trkpt><trkpt lat="44.2229053" lon="8.1881552"><ele>1157.0</ele><time>2026-05-03T12:54:12.146Z</time></trkpt><trkpt lat="44.2229168" lon="8.1883276"><ele>1157.0</ele><time>2026-05-03T12:54:14.146Z</time></trkpt><trkpt lat="44.2229046" lon="8.1884292"><ele>1157.0</ele><time>2026-05-03T12:54:15.146Z</time></trkpt><trkpt lat="44.2228928" lon="8.1886133"><ele>1156.3333333333335</ele><time>2026-05-03T12:54:17.146Z</time></trkpt><trkpt lat="44.2229151" lon="8.1887738"><ele>1155.6666666666667</ele><time>2026-05-03T12:54:19.147Z</time></trkpt><trkpt lat="44.2229342" lon="8.1888707"><ele>1155.0</ele><time>2026-05-03T12:54:20.146Z</time></trkpt><trkpt lat="44.2230027" lon="8.1889314"><ele>1154.3333333333333</ele><time>2026-05-03T12:54:22.146Z</time></trkpt><trkpt lat="44.2231087" lon="8.1889662"><ele>1153.6666666666665</ele><time>2026-05-03T12:54:24.146Z</time></trkpt><trkpt lat="44.2231731" lon="8.1889756"><ele>1153.0</ele><time>2026-05-03T12:54:25.146Z</time></trkpt><trkpt lat="44.2232858" lon="8.1890505"><ele>1153.0</ele><time>2026-05-03T12:54:27.146Z</time></trkpt><trkpt lat="44.2233519" lon="8.1891667"><ele>1153.0</ele><time>2026-05-03T12:54:29.146Z</time></trkpt><trkpt lat="44.2234078" lon="8.1892451"><ele>1153.0</ele><time>2026-05-03T12:54:30.147Z</time></trkpt><trkpt lat="44.2234815" lon="8.1894049"><ele>1153.0</ele><time>2026-05-03T12:54:32.147Z</time></trkpt><trkpt lat="44.2234919" lon="8.1895031"><ele>1153.0</ele><time>2026-05-03T12:54:33.146Z</time></trkpt><trkpt lat="44.2235021" lon="8.1896897"><ele>1153.0</ele><time>2026-05-03T12:54:35.146Z</time></trkpt><trkpt lat="44.2234836" lon="8.1897907"><ele>1153.0</ele><time>2026-05-03T12:54:36.146Z</time></trkpt><trkpt lat="44.2234763" lon="8.1899131"><ele>1153.0</ele><time>2026-05-03T12:54:37.146Z</time></trkpt><trkpt lat="44.2234712" lon="8.1900224"><ele>1153.0</ele><time>2026-05-03T12:54:38.146Z</time></trkpt><trkpt lat="44.2234955" lon="8.1901301"><ele>1153.0</ele><time>2026-05-03T12:54:39.147Z</time></trkpt><trkpt lat="44.223527" lon="8.1902362"><ele>1153.0</ele><time>2026-05-03T12:54:40.146Z</time></trkpt><trkpt lat="44.2235591" lon="8.190322"><ele>1150.8333333333333</ele><time>2026-05-03T12:54:41.146Z</time></trkpt><trkpt lat="44.2236109" lon="8.1904177"><ele>1148.6666666666665</ele><time>2026-05-03T12:54:42.146Z</time></trkpt><trkpt lat="44.2236694" lon="8.1904625"><ele>1146.5</ele><time>2026-05-03T12:54:43.147Z</time></trkpt><trkpt lat="44.2237273" lon="8.190573"><ele>1144.3333333333333</ele><time>2026-05-03T12:54:44.147Z</time></trkpt><trkpt lat="44.2237779" lon="8.1906597"><ele>1142.1666666666667</ele><time>2026-05-03T12:54:45.147Z</time></trkpt><trkpt lat="44.2238374" lon="8.1907037"><ele>1140.0</ele><time>2026-05-03T12:54:46.146Z</time></trkpt><trkpt lat="44.223884" lon="8.190766"><ele>1140.0</ele><time>2026-05-03T12:54:47.146Z</time></trkpt><trkpt lat="44.2239276" lon="8.1908497"><ele>1140.0</ele><time>2026-05-03T12:54:48.146Z</time></trkpt><trkpt lat="44.2239762" lon="8.190945"><ele>1140.0</ele><time>2026-05-03T12:54:49.146Z</time></trkpt><trkpt lat="44.2240153" lon="8.1910618"><ele>1140.0</ele><time>2026-05-03T12:54:50.146Z</time></trkpt><trkpt lat="44.2240499" lon="8.1911593"><ele>1140.0</ele><time>2026-05-03T12:54:51.146Z</time></trkpt><trkpt lat="44.2240933" lon="8.1912721"><ele>1140.0</ele><time>2026-05-03T12:54:52.147Z</time></trkpt><trkpt lat="44.2241103" lon="8.1913674"><ele>1140.0</ele><time>2026-05-03T12:54:53.146Z</time></trkpt><trkpt lat="44.224176" lon="8.1915124"><ele>1140.0</ele><time>2026-05-03T12:54:55.147Z</time></trkpt><trkpt lat="44.2242208" lon="8.1915806"><ele>1140.0</ele><time>2026-05-03T12:54:56.147Z</time></trkpt><trkpt lat="44.2243283" lon="8.1916658"><ele>1140.0</ele><time>2026-05-03T12:54:58.146Z</time></trkpt><trkpt lat="44.2244479" lon="8.191789"><ele>1140.0</ele><time>2026-05-03T12:55:00.146Z</time></trkpt><trkpt lat="44.2245174" lon="8.1918653"><ele>1140.0</ele><time>2026-05-03T12:55:01.146Z</time></trkpt><trkpt lat="44.2246078" lon="8.1919612"><ele>1140.0</ele><time>2026-05-03T12:55:02.146Z</time></trkpt><trkpt lat="44.2247189" lon="8.192049"><ele>1140.0</ele><time>2026-05-03T12:55:03.147Z</time></trkpt><trkpt lat="44.2248046" lon="8.192129"><ele>1140.0</ele><time>2026-05-03T12:55:04.147Z</time></trkpt><trkpt lat="44.2248805" lon="8.1921922"><ele>1139.8</ele><time>2026-05-03T12:55:05.146Z</time></trkpt><trkpt lat="44.2249654" lon="8.1922639"><ele>1139.6</ele><time>2026-05-03T12:55:06.146Z</time></trkpt><trkpt lat="44.2250518" lon="8.1923114"><ele>1139.4</ele><time>2026-05-03T12:55:07.146Z</time></trkpt><trkpt lat="44.225127" lon="8.1923695"><ele>1139.2</ele><time>2026-05-03T12:55:08.147Z</time></trkpt><trkpt lat="44.2252066" lon="8.1923562"><ele>1139.0</ele><time>2026-05-03T12:55:09.146Z</time></trkpt><trkpt lat="44.2252998" lon="8.1923738"><ele>1139.0</ele><time>2026-05-03T12:55:10.146Z</time></trkpt><trkpt lat="44.2253957" lon="8.1923768"><ele>1139.0</ele><time>2026-05-03T12:55:11.146Z</time></trkpt><trkpt lat="44.2254928" lon="8.192384"><ele>1139.0</ele><time>2026-05-03T12:55:12.146Z</time></trkpt><trkpt lat="44.225583" lon="8.192368"><ele>1139.0</ele><time>2026-05-03T12:55:13.147Z</time></trkpt><trkpt lat="44.2256951" lon="8.1923761"><ele>1139.0</ele><time>2026-05-03T12:55:14.146Z</time></trkpt><trkpt lat="44.2258016" lon="8.192396"><ele>1138.2</ele><time>2026-05-03T12:55:15.146Z</time></trkpt><trkpt lat="44.2259128" lon="8.1924127"><ele>1137.4</ele><time>2026-05-03T12:55:16.146Z</time></trkpt><trkpt lat="44.2259987" lon="8.1924003"><ele>1136.6</ele><time>2026-05-03T12:55:17.147Z</time></trkpt><trkpt lat="44.2260831" lon="8.1923612"><ele>1135.8</ele><time>2026-05-03T12:55:18.146Z</time></trkpt><trkpt lat="44.2261461" lon="8.1923197"><ele>1135.0</ele><time>2026-05-03T12:55:19.146Z</time></trkpt><trkpt lat="44.2262402" lon="8.1923153"><ele>1135.0</ele><time>2026-05-03T12:55:20.147Z</time></trkpt><trkpt lat="44.2263273" lon="8.1923069"><ele>1135.0</ele><time>2026-05-03T12:55:21.146Z</time></trkpt><trkpt lat="44.2264296" lon="8.1923201"><ele>1135.0</ele><time>2026-05-03T12:55:22.146Z</time></trkpt><trkpt lat="44.2265221" lon="8.1922896"><ele>1135.0</ele><time>2026-05-03T12:55:23.147Z</time></trkpt><trkpt lat="44.2266263" lon="8.1922624"><ele>1135.0</ele><time>2026-05-03T12:55:24.146Z</time></trkpt><trkpt lat="44.2267322" lon="8.1922266"><ele>1135.3333333333333</ele><time>2026-05-03T12:55:25.146Z</time></trkpt><trkpt lat="44.2268154" lon="8.1921959"><ele>1135.6666666666665</ele><time>2026-05-03T12:55:26.146Z</time></trkpt><trkpt lat="44.2269189" lon="8.1921526"><ele>1136.0</ele><time>2026-05-03T12:55:27.146Z</time></trkpt><trkpt lat="44.2270078" lon="8.1921789"><ele>1136.3333333333333</ele><time>2026-05-03T12:55:28.146Z</time></trkpt><trkpt lat="44.2270857" lon="8.1921741"><ele>1136.6666666666667</ele><time>2026-05-03T12:55:29.146Z</time></trkpt><trkpt lat="44.2271624" lon="8.1921718"><ele>1137.0</ele><time>2026-05-03T12:55:30.146Z</time></trkpt><trkpt lat="44.2272302" lon="8.1921736"><ele>1138.0</ele><time>2026-05-03T12:55:31.146Z</time></trkpt><trkpt lat="44.2273151" lon="8.1921606"><ele>1139.0</ele><time>2026-05-03T12:55:32.146Z</time></trkpt><trkpt lat="44.2274026" lon="8.1921308"><ele>1140.0</ele><time>2026-05-03T12:55:33.146Z</time></trkpt><trkpt lat="44.2274806" lon="8.1921024"><ele>1141.0</ele><time>2026-05-03T12:55:34.146Z</time></trkpt><trkpt lat="44.2275427" lon="8.1920378"><ele>1142.0</ele><time>2026-05-03T12:55:35.146Z</time></trkpt><trkpt lat="44.2276083" lon="8.1919755"><ele>1143.0</ele><time>2026-05-03T12:55:36.146Z</time></trkpt><trkpt lat="44.2276749" lon="8.1919199"><ele>1143.0</ele><time>2026-05-03T12:55:37.146Z</time></trkpt><trkpt lat="44.2277298" lon="8.1918681"><ele>1143.0</ele><time>2026-05-03T12:55:38.146Z</time></trkpt><trkpt lat="44.227807" lon="8.1918339"><ele>1143.0</ele><time>2026-05-03T12:55:39.146Z</time></trkpt><trkpt lat="44.2278919" lon="8.1918696"><ele>1143.0</ele><time>2026-05-03T12:55:40.146Z</time></trkpt><trkpt lat="44.2280055" lon="8.1918842"><ele>1143.0</ele><time>2026-05-03T12:55:42.146Z</time></trkpt><trkpt lat="44.2280761" lon="8.1918321"><ele>1143.0</ele><time>2026-05-03T12:55:44.146Z</time></trkpt><trkpt lat="44.2280529" lon="8.1916942"><ele>1143.0</ele><time>2026-05-03T12:55:46.146Z</time></trkpt><trkpt lat="44.2279624" lon="8.1916401"><ele>1143.0</ele><time>2026-05-03T12:55:48.146Z</time></trkpt><trkpt lat="44.2278813" lon="8.1916346"><ele>1143.0</ele><time>2026-05-03T12:55:49.146Z</time></trkpt><trkpt lat="44.2277928" lon="8.1916232"><ele>1143.0</ele><time>2026-05-03T12:55:50.146Z</time></trkpt><trkpt lat="44.2277209" lon="8.1916299"><ele>1143.0</ele><time>2026-05-03T12:55:51.147Z</time></trkpt><trkpt lat="44.2276417" lon="8.191636"><ele>1143.0</ele><time>2026-05-03T12:55:52.146Z</time></trkpt><trkpt lat="44.2275623" lon="8.191646"><ele>1143.0</ele><time>2026-05-03T12:55:53.146Z</time></trkpt><trkpt lat="44.2274824" lon="8.1916423"><ele>1143.0</ele><time>2026-05-03T12:55:54.146Z</time></trkpt><trkpt lat="44.2274051" lon="8.1916536"><ele>1143.0</ele><time>2026-05-03T12:55:55.146Z</time></trkpt><trkpt lat="44.2273135" lon="8.1916615"><ele>1143.0</ele><time>2026-05-03T12:55:56.146Z</time></trkpt><trkpt lat="44.2272283" lon="8.1916658"><ele>1143.0</ele><time>2026-05-03T12:55:57.146Z</time></trkpt><trkpt lat="44.2271524" lon="8.1916527"><ele>1143.0</ele><time>2026-05-03T12:55:58.146Z</time></trkpt><trkpt lat="44.2270796" lon="8.1916464"><ele>1142.0</ele><time>2026-05-03T12:55:59.146Z</time></trkpt><trkpt lat="44.2270073" lon="8.1916613"><ele>1141.0</ele><time>2026-05-03T12:56:00.146Z</time></trkpt><trkpt lat="44.2269277" lon="8.1916781"><ele>1140.0</ele><time>2026-05-03T12:56:01.146Z</time></trkpt><trkpt lat="44.2268431" lon="8.1916749"><ele>1139.0</ele><time>2026-05-03T12:56:02.146Z</time></trkpt><trkpt lat="44.2267597" lon="8.1916627"><ele>1138.0</ele><time>2026-05-03T12:56:03.146Z</time></trkpt><trkpt lat="44.226684" lon="8.1916426"><ele>1137.0</ele><time>2026-05-03T12:56:04.146Z</time></trkpt><trkpt lat="44.2266071" lon="8.1916431"><ele>1136.9999999999998</ele><time>2026-05-03T12:56:05.147Z</time></trkpt><trkpt lat="44.2265344" lon="8.1916305"><ele>1137.0</ele><time>2026-05-03T12:56:06.146Z</time></trkpt><trkpt lat="44.2264716" lon="8.1916375"><ele>1137.0</ele><time>2026-05-03T12:56:07.146Z</time></trkpt><trkpt lat="44.2264073" lon="8.1916575"><ele>1137.0</ele><time>2026-05-03T12:56:08.146Z</time></trkpt><trkpt lat="44.2263353" lon="8.1916748"><ele>1137.0</ele><time>2026-05-03T12:56:09.146Z</time></trkpt><trkpt lat="44.2262653" lon="8.1916754"><ele>1136.9999999999998</ele><time>2026-05-03T12:56:10.146Z</time></trkpt><trkpt lat="44.2261848" lon="8.1916665"><ele>1137.0</ele><time>2026-05-03T12:56:11.146Z</time></trkpt><trkpt lat="44.2260936" lon="8.191644"><ele>1136.6666666666667</ele><time>2026-05-03T12:56:12.146Z</time></trkpt><trkpt lat="44.2260131" lon="8.1916126"><ele>1136.3333333333333</ele><time>2026-05-03T12:56:13.146Z</time></trkpt><trkpt lat="44.2259336" lon="8.191586"><ele>1136.0</ele><time>2026-05-03T12:56:14.146Z</time></trkpt><trkpt lat="44.225861" lon="8.191572"><ele>1135.6666666666665</ele><time>2026-05-03T12:56:15.146Z</time></trkpt><trkpt lat="44.2257377" lon="8.1915312"><ele>1135.3333333333333</ele><time>2026-05-03T12:56:17.146Z</time></trkpt><trkpt lat="44.2256808" lon="8.1914906"><ele>1135.0</ele><time>2026-05-03T12:56:18.146Z</time></trkpt><trkpt lat="44.2256244" lon="8.1914302"><ele>1134.0</ele><time>2026-05-03T12:56:19.146Z</time></trkpt><trkpt lat="44.225565" lon="8.1913555"><ele>1133.0</ele><time>2026-05-03T12:56:20.146Z</time></trkpt><trkpt lat="44.2255113" lon="8.1912737"><ele>1132.0</ele><time>2026-05-03T12:56:21.146Z</time></trkpt><trkpt lat="44.2254604" lon="8.1911865"><ele>1131.0</ele><time>2026-05-03T12:56:22.146Z</time></trkpt><trkpt lat="44.2254194" lon="8.1910991"><ele>1130.0</ele><time>2026-05-03T12:56:23.146Z</time></trkpt><trkpt lat="44.2253845" lon="8.1909996"><ele>1129.0</ele><time>2026-05-03T12:56:24.146Z</time></trkpt><trkpt lat="44.2253515" lon="8.190904"><ele>1129.0</ele><time>2026-05-03T12:56:25.146Z</time></trkpt><trkpt lat="44.2253258" lon="8.190804"><ele>1129.0</ele><time>2026-05-03T12:56:26.146Z</time></trkpt><trkpt lat="44.2253025" lon="8.1906929"><ele>1129.0</ele><time>2026-05-03T12:56:27.146Z</time></trkpt><trkpt lat="44.2252819" lon="8.1905723"><ele>1129.0</ele><time>2026-05-03T12:56:28.147Z</time></trkpt><trkpt lat="44.2252483" lon="8.1904726"><ele>1129.0</ele><time>2026-05-03T12:56:29.147Z</time></trkpt><trkpt lat="44.2252355" lon="8.1903317"><ele>1129.0</ele><time>2026-05-03T12:56:31.146Z</time></trkpt><trkpt lat="44.2252401" lon="8.1902092"><ele>1128.4</ele><time>2026-05-03T12:56:34.146Z</time></trkpt><trkpt lat="44.2253008" lon="8.1901837"><ele>1127.8000000000002</ele><time>2026-05-03T12:57:03.148Z</time></trkpt><trkpt lat="44.225384" lon="8.1902512"><ele>1127.1999999999998</ele><time>2026-05-03T12:57:05.148Z</time></trkpt><trkpt lat="44.225459" lon="8.1903059"><ele>1126.6</ele><time>2026-05-03T12:57:07.148Z</time></trkpt><trkpt lat="44.2255607" lon="8.190329"><ele>1126.0</ele><time>2026-05-03T12:57:09.147Z</time></trkpt><trkpt lat="44.2257002" lon="8.1903573"><ele>1123.0</ele><time>2026-05-03T12:57:11.148Z</time></trkpt><trkpt lat="44.2257835" lon="8.1903804"><ele>1120.0</ele><time>2026-05-03T12:57:12.147Z</time></trkpt><trkpt lat="44.2258592" lon="8.1903999"><ele>1117.0</ele><time>2026-05-03T12:57:13.147Z</time></trkpt><trkpt lat="44.2259801" lon="8.1904527"><ele>1114.0</ele><time>2026-05-03T12:57:14.147Z</time></trkpt><trkpt lat="44.2260653" lon="8.1904719"><ele>1111.0</ele><time>2026-05-03T12:57:15.147Z</time></trkpt><trkpt lat="44.2261565" lon="8.1905055"><ele>1111.0</ele><time>2026-05-03T12:57:16.147Z</time></trkpt><trkpt lat="44.2262351" lon="8.1905047"><ele>1111.0</ele><time>2026-05-03T12:57:17.148Z</time></trkpt><trkpt lat="44.2263255" lon="8.190533"><ele>1111.0</ele><time>2026-05-03T12:57:18.147Z</time></trkpt><trkpt lat="44.2263975" lon="8.1905342"><ele>1111.0</ele><time>2026-05-03T12:57:19.147Z</time></trkpt><trkpt lat="44.2264805" lon="8.1905372"><ele>1111.0</ele><time>2026-05-03T12:57:20.147Z</time></trkpt><trkpt lat="44.22661" lon="8.1904942"><ele>1109.0</ele><time>2026-05-03T12:57:22.147Z</time></trkpt><trkpt lat="44.2266935" lon="8.190475"><ele>1107.0</ele><time>2026-05-03T12:57:23.147Z</time></trkpt><trkpt lat="44.2267827" lon="8.190428"><ele>1105.0</ele><time>2026-05-03T12:57:24.147Z</time></trkpt><trkpt lat="44.2268702" lon="8.1903974"><ele>1103.0</ele><time>2026-05-03T12:57:25.147Z</time></trkpt><trkpt lat="44.2269735" lon="8.1903867"><ele>1101.0</ele><time>2026-05-03T12:57:26.147Z</time></trkpt><trkpt lat="44.2271018" lon="8.1903612"><ele>1101.0</ele><time>2026-05-03T12:57:27.147Z</time></trkpt><trkpt lat="44.2272118" lon="8.1903278"><ele>1101.0</ele><time>2026-05-03T12:57:28.147Z</time></trkpt><trkpt lat="44.2272849" lon="8.1902771"><ele>1101.0</ele><time>2026-05-03T12:57:29.147Z</time></trkpt><trkpt lat="44.2273509" lon="8.1902546"><ele>1101.0</ele><time>2026-05-03T12:57:30.147Z</time></trkpt><trkpt lat="44.227423" lon="8.1902328"><ele>1101.0</ele><time>2026-05-03T12:57:31.147Z</time></trkpt><trkpt lat="44.2275729" lon="8.1901615"><ele>1100.0</ele><time>2026-05-03T12:57:33.147Z</time></trkpt><trkpt lat="44.2276708" lon="8.1901396"><ele>1099.0</ele><time>2026-05-03T12:57:34.147Z</time></trkpt><trkpt lat="44.2277384" lon="8.1900883"><ele>1098.0</ele><time>2026-05-03T12:57:35.147Z</time></trkpt><trkpt lat="44.2278138" lon="8.1900365"><ele>1097.0</ele><time>2026-05-03T12:57:36.148Z</time></trkpt><trkpt lat="44.2279354" lon="8.1900167"><ele>1096.0</ele><time>2026-05-03T12:57:38.148Z</time></trkpt><trkpt lat="44.228012" lon="8.1900656"><ele>1096.0</ele><time>2026-05-03T12:57:39.147Z</time></trkpt><trkpt lat="44.2281379" lon="8.1901477"><ele>1096.0</ele><time>2026-05-03T12:57:41.148Z</time></trkpt><trkpt lat="44.2282108" lon="8.1902019"><ele>1096.0</ele><time>2026-05-03T12:57:42.147Z</time></trkpt><trkpt lat="44.2282921" lon="8.190215"><ele>1096.0</ele><time>2026-05-03T12:57:43.147Z</time></trkpt><trkpt lat="44.2284141" lon="8.1902552"><ele>1096.0</ele><time>2026-05-03T12:57:44.147Z</time></trkpt><trkpt lat="44.2285238" lon="8.1902789"><ele>1094.1666666666665</ele><time>2026-05-03T12:57:45.148Z</time></trkpt><trkpt lat="44.2286209" lon="8.1902926"><ele>1092.3333333333333</ele><time>2026-05-03T12:57:46.148Z</time></trkpt><trkpt lat="44.2286973" lon="8.1903002"><ele>1090.5</ele><time>2026-05-03T12:57:47.147Z</time></trkpt><trkpt lat="44.2287845" lon="8.1903158"><ele>1088.6666666666667</ele><time>2026-05-03T12:57:48.147Z</time></trkpt><trkpt lat="44.2288725" lon="8.1903363"><ele>1086.8333333333335</ele><time>2026-05-03T12:57:49.147Z</time></trkpt><trkpt lat="44.2289426" lon="8.1903589"><ele>1085.0</ele><time>2026-05-03T12:57:50.147Z</time></trkpt><trkpt lat="44.2290122" lon="8.1903949"><ele>1085.1666666666667</ele><time>2026-05-03T12:57:51.147Z</time></trkpt><trkpt lat="44.2290729" lon="8.1904362"><ele>1085.3333333333335</ele><time>2026-05-03T12:57:52.147Z</time></trkpt><trkpt lat="44.2291557" lon="8.1905082"><ele>1085.5</ele><time>2026-05-03T12:57:53.147Z</time></trkpt><trkpt lat="44.2291731" lon="8.1905945"><ele>1085.6666666666667</ele><time>2026-05-03T12:57:54.147Z</time></trkpt><trkpt lat="44.2291813" lon="8.1907113"><ele>1085.8333333333333</ele><time>2026-05-03T12:57:55.147Z</time></trkpt><trkpt lat="44.2291974" lon="8.1908332"><ele>1086.0</ele><time>2026-05-03T12:57:56.147Z</time></trkpt><trkpt lat="44.2291988" lon="8.1909559"><ele>1086.0</ele><time>2026-05-03T12:57:57.147Z</time></trkpt><trkpt lat="44.2292232" lon="8.1910866"><ele>1086.0</ele><time>2026-05-03T12:57:58.147Z</time></trkpt><trkpt lat="44.2292394" lon="8.1912176"><ele>1086.0</ele><time>2026-05-03T12:57:59.147Z</time></trkpt><trkpt lat="44.229259" lon="8.1913473"><ele>1086.0</ele><time>2026-05-03T12:58:00.147Z</time></trkpt><trkpt lat="44.2292726" lon="8.191494"><ele>1086.0</ele><time>2026-05-03T12:58:01.147Z</time></trkpt><trkpt lat="44.2293134" lon="8.1916773"><ele>1087.6</ele><time>2026-05-03T12:58:02.147Z</time></trkpt><trkpt lat="44.2293231" lon="8.1918047"><ele>1089.1999999999998</ele><time>2026-05-03T12:58:03.147Z</time></trkpt><trkpt lat="44.2293659" lon="8.1919293"><ele>1090.8000000000002</ele><time>2026-05-03T12:58:04.147Z</time></trkpt><trkpt lat="44.2294035" lon="8.1920597"><ele>1092.4</ele><time>2026-05-03T12:58:05.147Z</time></trkpt><trkpt lat="44.2294468" lon="8.1921847"><ele>1094.0</ele><time>2026-05-03T12:58:06.148Z</time></trkpt><trkpt lat="44.2294929" lon="8.1923253"><ele>1094.8333333333335</ele><time>2026-05-03T12:58:07.147Z</time></trkpt><trkpt lat="44.2295316" lon="8.1924539"><ele>1095.6666666666667</ele><time>2026-05-03T12:58:08.147Z</time></trkpt><trkpt lat="44.2295712" lon="8.1925719"><ele>1096.5</ele><time>2026-05-03T12:58:09.148Z</time></trkpt><trkpt lat="44.2295853" lon="8.1926774"><ele>1097.3333333333333</ele><time>2026-05-03T12:58:10.147Z</time></trkpt><trkpt lat="44.2296099" lon="8.1927918"><ele>1098.1666666666665</ele><time>2026-05-03T12:58:11.147Z</time></trkpt><trkpt lat="44.2296397" lon="8.1929003"><ele>1099.0</ele><time>2026-05-03T12:58:12.147Z</time></trkpt><trkpt lat="44.2296474" lon="8.1929998"><ele>1099.0</ele><time>2026-05-03T12:58:13.148Z</time></trkpt><trkpt lat="44.2296584" lon="8.1931397"><ele>1099.0</ele><time>2026-05-03T12:58:14.148Z</time></trkpt><trkpt lat="44.2296502" lon="8.1932676"><ele>1099.0</ele><time>2026-05-03T12:58:15.147Z</time></trkpt><trkpt lat="44.229648" lon="8.1933926"><ele>1099.0</ele><time>2026-05-03T12:58:16.147Z</time></trkpt><trkpt lat="44.2296293" lon="8.1935173"><ele>1099.0</ele><time>2026-05-03T12:58:17.147Z</time></trkpt><trkpt lat="44.229615" lon="8.1936559"><ele>1099.0</ele><time>2026-05-03T12:58:18.148Z</time></trkpt><trkpt lat="44.2295992" lon="8.1938025"><ele>1099.0</ele><time>2026-05-03T12:58:19.148Z</time></trkpt><trkpt lat="44.2295825" lon="8.193933"><ele>1099.0</ele><time>2026-05-03T12:58:20.147Z</time></trkpt><trkpt lat="44.2295663" lon="8.1940663"><ele>1099.0</ele><time>2026-05-03T12:58:21.147Z</time></trkpt><trkpt lat="44.229544" lon="8.1941987"><ele>1099.0</ele><time>2026-05-03T12:58:22.147Z</time></trkpt><trkpt lat="44.2295475" lon="8.1943142"><ele>1097.3333333333333</ele><time>2026-05-03T12:58:23.147Z</time></trkpt><trkpt lat="44.2295369" lon="8.194428"><ele>1095.6666666666665</ele><time>2026-05-03T12:58:24.147Z</time></trkpt><trkpt lat="44.2295362" lon="8.1945408"><ele>1094.0</ele><time>2026-05-03T12:58:25.147Z</time></trkpt><trkpt lat="44.2295644" lon="8.1946607"><ele>1092.3333333333333</ele><time>2026-05-03T12:58:26.148Z</time></trkpt><trkpt lat="44.2295822" lon="8.1947852"><ele>1090.6666666666667</ele><time>2026-05-03T12:58:27.147Z</time></trkpt><trkpt lat="44.2296017" lon="8.1948961"><ele>1089.0</ele><time>2026-05-03T12:58:28.147Z</time></trkpt><trkpt lat="44.2296147" lon="8.1950138"><ele>1087.3333333333333</ele><time>2026-05-03T12:58:29.147Z</time></trkpt><trkpt lat="44.2296444" lon="8.1951407"><ele>1085.6666666666667</ele><time>2026-05-03T12:58:30.148Z</time></trkpt><trkpt lat="44.229626" lon="8.1952825"><ele>1084.0</ele><time>2026-05-03T12:58:31.147Z</time></trkpt><trkpt lat="44.2296428" lon="8.1954091"><ele>1082.3333333333335</ele><time>2026-05-03T12:58:32.147Z</time></trkpt><trkpt lat="44.2296604" lon="8.1955209"><ele>1080.6666666666667</ele><time>2026-05-03T12:58:33.147Z</time></trkpt><trkpt lat="44.2296762" lon="8.1956234"><ele>1079.0</ele><time>2026-05-03T12:58:34.148Z</time></trkpt><trkpt lat="44.2297033" lon="8.1957313"><ele>1078.0</ele><time>2026-05-03T12:58:35.147Z</time></trkpt><trkpt lat="44.229724" lon="8.1958581"><ele>1077.0</ele><time>2026-05-03T12:58:36.147Z</time></trkpt><trkpt lat="44.2297602" lon="8.1960054"><ele>1076.0</ele><time>2026-05-03T12:58:37.147Z</time></trkpt><trkpt lat="44.2297851" lon="8.1961274"><ele>1075.0</ele><time>2026-05-03T12:58:38.147Z</time></trkpt><trkpt lat="44.2298059" lon="8.1962373"><ele>1074.0</ele><time>2026-05-03T12:58:39.147Z</time></trkpt><trkpt lat="44.2298434" lon="8.1963534"><ele>1069.1666666666667</ele><time>2026-05-03T12:58:40.147Z</time></trkpt><trkpt lat="44.2298316" lon="8.1964641"><ele>1064.3333333333333</ele><time>2026-05-03T12:58:41.147Z</time></trkpt><trkpt lat="44.2298784" lon="8.1965799"><ele>1059.5</ele><time>2026-05-03T12:58:42.147Z</time></trkpt><trkpt lat="44.229896" lon="8.1966913"><ele>1054.6666666666665</ele><time>2026-05-03T12:58:43.147Z</time></trkpt><trkpt lat="44.2299096" lon="8.1967825"><ele>1049.8333333333333</ele><time>2026-05-03T12:58:44.147Z</time></trkpt><trkpt lat="44.2299336" lon="8.1969182"><ele>1045.0</ele><time>2026-05-03T12:58:45.147Z</time></trkpt><trkpt lat="44.2299432" lon="8.1970469"><ele>1044.3333333333333</ele><time>2026-05-03T12:58:46.147Z</time></trkpt><trkpt lat="44.229948" lon="8.1971403"><ele>1043.6666666666665</ele><time>2026-05-03T12:58:47.148Z</time></trkpt><trkpt lat="44.229913" lon="8.1972382"><ele>1043.0</ele><time>2026-05-03T12:58:48.147Z</time></trkpt><trkpt lat="44.2298831" lon="8.1973845"><ele>1042.3333333333333</ele><time>2026-05-03T12:58:50.148Z</time></trkpt><trkpt lat="44.2299105" lon="8.1974681"><ele>1041.6666666666667</ele><time>2026-05-03T12:58:52.147Z</time></trkpt><trkpt lat="44.2299612" lon="8.1975378"><ele>1041.0</ele><time>2026-05-03T12:58:54.147Z</time></trkpt><trkpt lat="44.2300653" lon="8.1975835"><ele>1040.1666666666667</ele><time>2026-05-03T12:58:56.147Z</time></trkpt><trkpt lat="44.2301581" lon="8.1976095"><ele>1039.3333333333333</ele><time>2026-05-03T12:58:58.148Z</time></trkpt><trkpt lat="44.2302358" lon="8.197621"><ele>1038.5</ele><time>2026-05-03T12:59:00.147Z</time></trkpt><trkpt lat="44.2303241" lon="8.197643"><ele>1037.6666666666665</ele><time>2026-05-03T13:02:12.148Z</time></trkpt><trkpt lat="44.2304207" lon="8.1977198"><ele>1036.8333333333333</ele><time>2026-05-03T13:02:14.147Z</time></trkpt><trkpt lat="44.2304782" lon="8.1977756"><ele>1036.0</ele><time>2026-05-03T13:02:15.147Z</time></trkpt><trkpt lat="44.230536" lon="8.1978317"><ele>1036.0</ele><time>2026-05-03T13:02:16.147Z</time></trkpt><trkpt lat="44.2305868" lon="8.1978846"><ele>1036.0</ele><time>2026-05-03T13:02:17.147Z</time></trkpt><trkpt lat="44.2306869" lon="8.1980104"><ele>1036.0</ele><time>2026-05-03T13:02:19.148Z</time></trkpt><trkpt lat="44.2307522" lon="8.1981021"><ele>1036.0</ele><time>2026-05-03T13:02:20.147Z</time></trkpt><trkpt lat="44.2308102" lon="8.1982077"><ele>1036.0</ele><time>2026-05-03T13:02:21.148Z</time></trkpt><trkpt lat="44.2309029" lon="8.1983428"><ele>1036.5</ele><time>2026-05-03T13:02:22.147Z</time></trkpt><trkpt lat="44.2309746" lon="8.1984615"><ele>1037.0</ele><time>2026-05-03T13:02:23.147Z</time></trkpt><trkpt lat="44.2310351" lon="8.1986024"><ele>1037.5</ele><time>2026-05-03T13:02:24.147Z</time></trkpt><trkpt lat="44.2311265" lon="8.1987397"><ele>1038.0</ele><time>2026-05-03T13:02:25.147Z</time></trkpt><trkpt lat="44.2312312" lon="8.1988712"><ele>1038.0</ele><time>2026-05-03T13:02:26.147Z</time></trkpt><trkpt lat="44.2313387" lon="8.198995"><ele>1038.0</ele><time>2026-05-03T13:02:27.147Z</time></trkpt><trkpt lat="44.231429" lon="8.1991303"><ele>1038.0</ele><time>2026-05-03T13:02:28.148Z</time></trkpt><trkpt lat="44.2314978" lon="8.1992439"><ele>1038.0</ele><time>2026-05-03T13:02:29.148Z</time></trkpt><trkpt lat="44.2315885" lon="8.1993653"><ele>1037.75</ele><time>2026-05-03T13:02:30.148Z</time></trkpt><trkpt lat="44.2316819" lon="8.1994874"><ele>1037.5</ele><time>2026-05-03T13:02:31.147Z</time></trkpt><trkpt lat="44.2317712" lon="8.1996064"><ele>1037.25</ele><time>2026-05-03T13:02:32.147Z</time></trkpt><trkpt lat="44.231854" lon="8.1997207"><ele>1037.0</ele><time>2026-05-03T13:02:33.147Z</time></trkpt><trkpt lat="44.2319381" lon="8.199842"><ele>1033.0</ele><time>2026-05-03T13:02:34.147Z</time></trkpt><trkpt lat="44.2320136" lon="8.1999637"><ele>1029.0</ele><time>2026-05-03T13:02:35.147Z</time></trkpt><trkpt lat="44.2320791" lon="8.2000917"><ele>1025.0</ele><time>2026-05-03T13:02:36.148Z</time></trkpt><trkpt lat="44.23213" lon="8.2002264"><ele>1021.0</ele><time>2026-05-03T13:02:37.148Z</time></trkpt><trkpt lat="44.2321823" lon="8.2003566"><ele>1017.0</ele><time>2026-05-03T13:02:38.147Z</time></trkpt><trkpt lat="44.2322289" lon="8.2005114"><ele>1017.0</ele><time>2026-05-03T13:02:39.147Z</time></trkpt><trkpt lat="44.2322565" lon="8.2006551"><ele>1017.0</ele><time>2026-05-03T13:02:40.147Z</time></trkpt><trkpt lat="44.2322612" lon="8.2008073"><ele>1017.0</ele><time>2026-05-03T13:02:41.147Z</time></trkpt><trkpt lat="44.2322506" lon="8.2009487"><ele>1017.0</ele><time>2026-05-03T13:02:42.149Z</time></trkpt><trkpt lat="44.232225" lon="8.2010836"><ele>1017.0</ele><time>2026-05-03T13:02:43.147Z</time></trkpt><trkpt lat="44.2322021" lon="8.2012163"><ele>1017.8</ele><time>2026-05-03T13:02:44.147Z</time></trkpt><trkpt lat="44.2321889" lon="8.2013469"><ele>1018.6</ele><time>2026-05-03T13:02:45.147Z</time></trkpt><trkpt lat="44.2321954" lon="8.2014783"><ele>1019.3999999999999</ele><time>2026-05-03T13:02:46.147Z</time></trkpt><trkpt lat="44.2322237" lon="8.2015964"><ele>1020.1999999999999</ele><time>2026-05-03T13:02:47.147Z</time></trkpt><trkpt lat="44.2322654" lon="8.2016986"><ele>1021.0</ele><time>2026-05-03T13:02:48.147Z</time></trkpt><trkpt lat="44.2323274" lon="8.2018071"><ele>1021.0</ele><time>2026-05-03T13:02:49.147Z</time></trkpt><trkpt lat="44.2323906" lon="8.2019329"><ele>1021.0</ele><time>2026-05-03T13:02:50.147Z</time></trkpt><trkpt lat="44.2324516" lon="8.202063"><ele>1021.0</ele><time>2026-05-03T13:02:51.147Z</time></trkpt><trkpt lat="44.2325064" lon="8.20221"><ele>1021.0</ele><time>2026-05-03T13:02:52.147Z</time></trkpt><trkpt lat="44.2325569" lon="8.2023619"><ele>1018.8</ele><time>2026-05-03T13:02:53.147Z</time></trkpt><trkpt lat="44.232601" lon="8.2025131"><ele>1016.5999999999999</ele><time>2026-05-03T13:02:54.148Z</time></trkpt><trkpt lat="44.2326359" lon="8.2026645"><ele>1014.4</ele><time>2026-05-03T13:02:55.147Z</time></trkpt><trkpt lat="44.2326669" lon="8.2028044"><ele>1012.2</ele><time>2026-05-03T13:02:56.147Z</time></trkpt><trkpt lat="44.2326789" lon="8.2029579"><ele>1010.0</ele><time>2026-05-03T13:02:57.147Z</time></trkpt><trkpt lat="44.2326369" lon="8.2030983"><ele>1008.4</ele><time>2026-05-03T13:02:58.147Z</time></trkpt><trkpt lat="44.2326008" lon="8.2032417"><ele>1006.8</ele><time>2026-05-03T13:02:59.147Z</time></trkpt><trkpt lat="44.232577" lon="8.203395"><ele>1005.2</ele><time>2026-05-03T13:03:00.148Z</time></trkpt><trkpt lat="44.2325502" lon="8.2035412"><ele>1003.6</ele><time>2026-05-03T13:03:01.147Z</time></trkpt><trkpt lat="44.2325357" lon="8.2036812"><ele>1002.0</ele><time>2026-05-03T13:03:02.147Z</time></trkpt><trkpt lat="44.2325309" lon="8.2038345"><ele>1002.0</ele><time>2026-05-03T13:03:03.147Z</time></trkpt><trkpt lat="44.2325231" lon="8.2039846"><ele>1002.0</ele><time>2026-05-03T13:03:04.147Z</time></trkpt><trkpt lat="44.2325164" lon="8.2041405"><ele>1002.0</ele><time>2026-05-03T13:03:05.148Z</time></trkpt><trkpt lat="44.2325092" lon="8.2042857"><ele>1002.0</ele><time>2026-05-03T13:03:06.147Z</time></trkpt><trkpt lat="44.2324937" lon="8.2044236"><ele>1002.0</ele><time>2026-05-03T13:03:07.147Z</time></trkpt><trkpt lat="44.2324768" lon="8.2045614"><ele>1002.2</ele><time>2026-05-03T13:03:08.147Z</time></trkpt><trkpt lat="44.2324542" lon="8.2046979"><ele>1002.4000000000001</ele><time>2026-05-03T13:03:09.147Z</time></trkpt><trkpt lat="44.2324347" lon="8.2048469"><ele>1002.5999999999999</ele><time>2026-05-03T13:03:10.147Z</time></trkpt><trkpt lat="44.2323993" lon="8.2049971"><ele>1002.8</ele><time>2026-05-03T13:03:11.147Z</time></trkpt><trkpt lat="44.2323749" lon="8.2051501"><ele>1003.0</ele><time>2026-05-03T13:03:12.147Z</time></trkpt><trkpt lat="44.2323506" lon="8.2052973"><ele>1003.0</ele><time>2026-05-03T13:03:13.147Z</time></trkpt><trkpt lat="44.2323156" lon="8.2054352"><ele>1003.0</ele><time>2026-05-03T13:03:14.147Z</time></trkpt><trkpt lat="44.2322849" lon="8.2055734"><ele>1003.0</ele><time>2026-05-03T13:03:15.147Z</time></trkpt><trkpt lat="44.2322565" lon="8.2057161"><ele>1003.0</ele><time>2026-05-03T13:03:16.147Z</time></trkpt><trkpt lat="44.2322266" lon="8.2058552"><ele>1003.0</ele><time>2026-05-03T13:03:17.147Z</time></trkpt><trkpt lat="44.2321976" lon="8.205992"><ele>994.5999999999999</ele><time>2026-05-03T13:03:18.147Z</time></trkpt><trkpt lat="44.232165" lon="8.2061273"><ele>986.1999999999999</ele><time>2026-05-03T13:03:19.147Z</time></trkpt><trkpt lat="44.2321497" lon="8.2062663"><ele>977.8</ele><time>2026-05-03T13:03:20.147Z</time></trkpt><trkpt lat="44.2321466" lon="8.2064047"><ele>969.4</ele><time>2026-05-03T13:03:21.147Z</time></trkpt><trkpt lat="44.2321668" lon="8.206537"><ele>961.0</ele><time>2026-05-03T13:03:22.147Z</time></trkpt><trkpt lat="44.2321841" lon="8.206667"><ele>961.0</ele><time>2026-05-03T13:03:23.147Z</time></trkpt><trkpt lat="44.2322141" lon="8.206798"><ele>960.9999999999999</ele><time>2026-05-03T13:03:24.148Z</time></trkpt><trkpt lat="44.2322311" lon="8.2069339"><ele>960.9999999999999</ele><time>2026-05-03T13:03:25.148Z</time></trkpt><trkpt lat="44.2322414" lon="8.2070655"><ele>961.0</ele><time>2026-05-03T13:03:26.147Z</time></trkpt><trkpt lat="44.2322574" lon="8.2072005"><ele>961.0</ele><time>2026-05-03T13:03:27.147Z</time></trkpt><trkpt lat="44.2322766" lon="8.2073341"><ele>967.0</ele><time>2026-05-03T13:03:28.147Z</time></trkpt><trkpt lat="44.2323083" lon="8.2074628"><ele>972.9999999999999</ele><time>2026-05-03T13:03:29.148Z</time></trkpt><trkpt lat="44.2323694" lon="8.2075649"><ele>978.9999999999999</ele><time>2026-05-03T13:03:30.147Z</time></trkpt><trkpt lat="44.2324488" lon="8.20765"><ele>985.0</ele><time>2026-05-03T13:03:31.147Z</time></trkpt><trkpt lat="44.2325224" lon="8.207741"><ele>991.0</ele><time>2026-05-03T13:03:32.147Z</time></trkpt><trkpt lat="44.232578" lon="8.2078607"><ele>991.0</ele><time>2026-05-03T13:03:33.147Z</time></trkpt><trkpt lat="44.2326063" lon="8.2079909"><ele>990.9999999999999</ele><time>2026-05-03T13:03:34.147Z</time></trkpt><trkpt lat="44.2326345" lon="8.2081158"><ele>990.9999999999999</ele><time>2026-05-03T13:03:35.147Z</time></trkpt><trkpt lat="44.2326448" lon="8.2082582"><ele>991.0</ele><time>2026-05-03T13:03:36.148Z</time></trkpt><trkpt lat="44.2326575" lon="8.20839"><ele>991.0</ele><time>2026-05-03T13:03:37.147Z</time></trkpt><trkpt lat="44.2326659" lon="8.2085315"><ele>988.0</ele><time>2026-05-03T13:03:38.147Z</time></trkpt><trkpt lat="44.2326717" lon="8.2086526"><ele>984.9999999999999</ele><time>2026-05-03T13:03:39.148Z</time></trkpt><trkpt lat="44.2326428" lon="8.208777"><ele>981.9999999999999</ele><time>2026-05-03T13:03:40.147Z</time></trkpt><trkpt lat="44.2326104" lon="8.2089113"><ele>979.0</ele><time>2026-05-03T13:03:41.147Z</time></trkpt><trkpt lat="44.2325689" lon="8.209047"><ele>976.0</ele><time>2026-05-03T13:03:42.148Z</time></trkpt><trkpt lat="44.232529" lon="8.2091819"><ele>975.4</ele><time>2026-05-03T13:03:43.147Z</time></trkpt><trkpt lat="44.2324901" lon="8.2093203"><ele>974.8</ele><time>2026-05-03T13:03:44.147Z</time></trkpt><trkpt lat="44.2324568" lon="8.2094579"><ele>974.1999999999999</ele><time>2026-05-03T13:03:45.147Z</time></trkpt><trkpt lat="44.232429" lon="8.2096011"><ele>973.5999999999999</ele><time>2026-05-03T13:03:46.147Z</time></trkpt><trkpt lat="44.2323953" lon="8.2097467"><ele>973.0</ele><time>2026-05-03T13:03:47.147Z</time></trkpt><trkpt lat="44.2323728" lon="8.2099029"><ele>973.0</ele><time>2026-05-03T13:03:48.147Z</time></trkpt><trkpt lat="44.2323505" lon="8.2100536"><ele>973.0</ele><time>2026-05-03T13:03:49.148Z</time></trkpt><trkpt lat="44.2323243" lon="8.2102148"><ele>973.0</ele><time>2026-05-03T13:03:50.148Z</time></trkpt><trkpt lat="44.2323003" lon="8.210367"><ele>973.0</ele><time>2026-05-03T13:03:51.147Z</time></trkpt><trkpt lat="44.2322719" lon="8.2105252"><ele>963.0</ele><time>2026-05-03T13:03:52.148Z</time></trkpt><trkpt lat="44.2322325" lon="8.2106748"><ele>953.0</ele><time>2026-05-03T13:03:53.147Z</time></trkpt><trkpt lat="44.2321813" lon="8.2108119"><ele>943.0</ele><time>2026-05-03T13:03:54.148Z</time></trkpt><trkpt lat="44.2321246" lon="8.2109421"><ele>933.0</ele><time>2026-05-03T13:03:55.147Z</time></trkpt><trkpt lat="44.2320568" lon="8.21108"><ele>933.0</ele><time>2026-05-03T13:03:56.148Z</time></trkpt><trkpt lat="44.2319887" lon="8.2112253"><ele>933.0</ele><time>2026-05-03T13:03:57.147Z</time></trkpt><trkpt lat="44.2319281" lon="8.2113744"><ele>933.0</ele><time>2026-05-03T13:03:58.147Z</time></trkpt><trkpt lat="44.2318766" lon="8.2115358"><ele>933.0</ele><time>2026-05-03T13:03:59.148Z</time></trkpt><trkpt lat="44.2318332" lon="8.2116992"><ele>936.0</ele><time>2026-05-03T13:04:00.147Z</time></trkpt><trkpt lat="44.2318033" lon="8.2118619"><ele>939.0</ele><time>2026-05-03T13:04:01.147Z</time></trkpt><trkpt lat="44.2317834" lon="8.2120199"><ele>942.0</ele><time>2026-05-03T13:04:02.147Z</time></trkpt><trkpt lat="44.2317711" lon="8.2121794"><ele>945.0</ele><time>2026-05-03T13:04:03.148Z</time></trkpt><trkpt lat="44.2317572" lon="8.2123322"><ele>945.5</ele><time>2026-05-03T13:04:04.147Z</time></trkpt><trkpt lat="44.2317492" lon="8.2124886"><ele>946.0</ele><time>2026-05-03T13:04:05.147Z</time></trkpt><trkpt lat="44.2317445" lon="8.212644"><ele>946.5</ele><time>2026-05-03T13:04:06.147Z</time></trkpt><trkpt lat="44.2317302" lon="8.2128034"><ele>947.0</ele><time>2026-05-03T13:04:07.147Z</time></trkpt><trkpt lat="44.2317089" lon="8.2129633"><ele>947.0</ele><time>2026-05-03T13:04:08.147Z</time></trkpt><trkpt lat="44.2316796" lon="8.2131139"><ele>947.0</ele><time>2026-05-03T13:04:09.147Z</time></trkpt><trkpt lat="44.2316435" lon="8.2132581"><ele>947.0</ele><time>2026-05-03T13:04:10.148Z</time></trkpt><trkpt lat="44.2316144" lon="8.2133982"><ele>947.0</ele><time>2026-05-03T13:04:11.147Z</time></trkpt><trkpt lat="44.2315841" lon="8.2135334"><ele>947.0</ele><time>2026-05-03T13:04:12.148Z</time></trkpt><trkpt lat="44.2315519" lon="8.2136594"><ele>947.6666666666667</ele><time>2026-05-03T13:04:13.147Z</time></trkpt><trkpt lat="44.2315196" lon="8.2137653"><ele>948.3333333333334</ele><time>2026-05-03T13:04:14.147Z</time></trkpt><trkpt lat="44.2314863" lon="8.2138531"><ele>949.0</ele><time>2026-05-03T13:04:15.147Z</time></trkpt><trkpt lat="44.2314258" lon="8.2139592"><ele>949.6666666666667</ele><time>2026-05-03T13:04:17.147Z</time></trkpt><trkpt lat="44.2313773" lon="8.2140273"><ele>950.3333333333334</ele><time>2026-05-03T13:04:22.147Z</time></trkpt><trkpt lat="44.2313327" lon="8.214093"><ele>951.0</ele><time>2026-05-03T13:04:35.147Z</time></trkpt><trkpt lat="44.2312991" lon="8.2142056"><ele>950.6666666666666</ele><time>2026-05-03T13:04:40.147Z</time></trkpt><trkpt lat="44.2313672" lon="8.2142793"><ele>950.3333333333333</ele><time>2026-05-03T13:04:42.147Z</time></trkpt><trkpt lat="44.2314779" lon="8.2143712"><ele>950.0</ele><time>2026-05-03T13:04:44.147Z</time></trkpt><trkpt lat="44.2315304" lon="8.2144231"><ele>949.6666666666666</ele><time>2026-05-03T13:04:45.148Z</time></trkpt><trkpt lat="44.2315926" lon="8.2144856"><ele>949.3333333333333</ele><time>2026-05-03T13:04:46.148Z</time></trkpt><trkpt lat="44.2316581" lon="8.2145646"><ele>949.0</ele><time>2026-05-03T13:04:47.147Z</time></trkpt><trkpt lat="44.2317151" lon="8.2146474"><ele>948.9999999999999</ele><time>2026-05-03T13:04:48.147Z</time></trkpt><trkpt lat="44.2317757" lon="8.2147256"><ele>949.0</ele><time>2026-05-03T13:04:49.147Z</time></trkpt><trkpt lat="44.2318399" lon="8.2148076"><ele>949.0</ele><time>2026-05-03T13:04:50.147Z</time></trkpt><trkpt lat="44.2319053" lon="8.2148949"><ele>949.0</ele><time>2026-05-03T13:04:51.147Z</time></trkpt><trkpt lat="44.2319694" lon="8.2149774"><ele>948.9999999999999</ele><time>2026-05-03T13:04:52.147Z</time></trkpt><trkpt lat="44.2320324" lon="8.2150598"><ele>949.0</ele><time>2026-05-03T13:04:53.147Z</time></trkpt><trkpt lat="44.232095" lon="8.2151419"><ele>947.4000000000001</ele><time>2026-05-03T13:04:54.147Z</time></trkpt><trkpt lat="44.2321535" lon="8.2152129"><ele>945.8000000000001</ele><time>2026-05-03T13:04:55.147Z</time></trkpt><trkpt lat="44.2322042" lon="8.2152782"><ele>944.1999999999999</ele><time>2026-05-03T13:04:56.147Z</time></trkpt><trkpt lat="44.232278" lon="8.2154071"><ele>942.5999999999999</ele><time>2026-05-03T13:04:58.147Z</time></trkpt><trkpt lat="44.232357" lon="8.2155613"><ele>941.0</ele><time>2026-05-03T13:05:00.148Z</time></trkpt><trkpt lat="44.2324105" lon="8.2156399"><ele>942.5999999999999</ele><time>2026-05-03T13:05:01.148Z</time></trkpt><trkpt lat="44.2324631" lon="8.2157306"><ele>944.1999999999999</ele><time>2026-05-03T13:05:02.147Z</time></trkpt><trkpt lat="44.2325095" lon="8.2158192"><ele>945.8000000000001</ele><time>2026-05-03T13:05:03.148Z</time></trkpt><trkpt lat="44.2325644" lon="8.2159312"><ele>947.4000000000001</ele><time>2026-05-03T13:05:04.147Z</time></trkpt><trkpt lat="44.2326005" lon="8.216073"><ele>949.0</ele><time>2026-05-03T13:05:05.147Z</time></trkpt><trkpt lat="44.2326565" lon="8.2162096"><ele>949.0</ele><time>2026-05-03T13:05:06.147Z</time></trkpt><trkpt lat="44.232691" lon="8.2163473"><ele>949.0000000000001</ele><time>2026-05-03T13:05:07.148Z</time></trkpt><trkpt lat="44.2327352" lon="8.2164676"><ele>949.0000000000001</ele><time>2026-05-03T13:05:08.148Z</time></trkpt><trkpt lat="44.2327795" lon="8.2165754"><ele>949.0</ele><time>2026-05-03T13:05:09.147Z</time></trkpt><trkpt lat="44.2328391" lon="8.2167003"><ele>949.0</ele><time>2026-05-03T13:05:10.147Z</time></trkpt><trkpt lat="44.2329138" lon="8.2168128"><ele>950.1666666666666</ele><time>2026-05-03T13:05:11.147Z</time></trkpt><trkpt lat="44.2329835" lon="8.2169055"><ele>951.3333333333333</ele><time>2026-05-03T13:05:12.147Z</time></trkpt><trkpt lat="44.2330406" lon="8.2169877"><ele>952.5</ele><time>2026-05-03T13:05:13.147Z</time></trkpt><trkpt lat="44.2331023" lon="8.2170505"><ele>953.6666666666667</ele><time>2026-05-03T13:05:14.147Z</time></trkpt><trkpt lat="44.2331458" lon="8.2171241"><ele>954.8333333333334</ele><time>2026-05-03T13:05:15.148Z</time></trkpt><trkpt lat="44.2331704" lon="8.217221"><ele>956.0</ele><time>2026-05-03T13:05:16.147Z</time></trkpt><trkpt lat="44.2331932" lon="8.2173368"><ele>953.3333333333334</ele><time>2026-05-03T13:05:17.147Z</time></trkpt><trkpt lat="44.2332089" lon="8.2174608"><ele>950.6666666666667</ele><time>2026-05-03T13:05:18.148Z</time></trkpt><trkpt lat="44.2332237" lon="8.2175791"><ele>948.0</ele><time>2026-05-03T13:05:19.147Z</time></trkpt><trkpt lat="44.2332179" lon="8.2177096"><ele>945.3333333333333</ele><time>2026-05-03T13:05:20.148Z</time></trkpt><trkpt lat="44.2332362" lon="8.2178178"><ele>942.6666666666666</ele><time>2026-05-03T13:05:21.147Z</time></trkpt><trkpt lat="44.2332604" lon="8.21792"><ele>940.0</ele><time>2026-05-03T13:05:22.147Z</time></trkpt><trkpt lat="44.2333063" lon="8.2180417"><ele>936.0</ele><time>2026-05-03T13:05:23.147Z</time></trkpt><trkpt lat="44.2333479" lon="8.2181549"><ele>932.0</ele><time>2026-05-03T13:05:24.148Z</time></trkpt><trkpt lat="44.233393" lon="8.2182599"><ele>928.0</ele><time>2026-05-03T13:05:25.147Z</time></trkpt><trkpt lat="44.2334469" lon="8.2183633"><ele>924.0</ele><time>2026-05-03T13:05:26.148Z</time></trkpt><trkpt lat="44.2335054" lon="8.2184494"><ele>920.0</ele><time>2026-05-03T13:05:27.147Z</time></trkpt><trkpt lat="44.2335619" lon="8.218575"><ele>920.0</ele><time>2026-05-03T13:05:28.147Z</time></trkpt><trkpt lat="44.2336144" lon="8.2186711"><ele>920.0</ele><time>2026-05-03T13:05:29.147Z</time></trkpt><trkpt lat="44.2336616" lon="8.2187822"><ele>920.0</ele><time>2026-05-03T13:05:30.147Z</time></trkpt><trkpt lat="44.2337265" lon="8.2188797"><ele>920.0</ele><time>2026-05-03T13:05:31.147Z</time></trkpt><trkpt lat="44.2338007" lon="8.2189971"><ele>920.0</ele><time>2026-05-03T13:05:32.148Z</time></trkpt><trkpt lat="44.2338784" lon="8.2190826"><ele>920.6</ele><time>2026-05-03T13:05:33.148Z</time></trkpt><trkpt lat="44.2339548" lon="8.2191987"><ele>921.2</ele><time>2026-05-03T13:05:34.147Z</time></trkpt><trkpt lat="44.2340302" lon="8.2192793"><ele>921.8</ele><time>2026-05-03T13:05:35.147Z</time></trkpt><trkpt lat="44.2340828" lon="8.2193965"><ele>922.4</ele><time>2026-05-03T13:05:36.148Z</time></trkpt><trkpt lat="44.234145" lon="8.2195078"><ele>923.0</ele><time>2026-05-03T13:05:37.147Z</time></trkpt><trkpt lat="44.2342127" lon="8.2196105"><ele>923.0</ele><time>2026-05-03T13:05:38.147Z</time></trkpt><trkpt lat="44.2343189" lon="8.2196986"><ele>923.0</ele><time>2026-05-03T13:05:39.147Z</time></trkpt><trkpt lat="44.2344029" lon="8.2197745"><ele>923.0</ele><time>2026-05-03T13:05:40.148Z</time></trkpt><trkpt lat="44.2345194" lon="8.2198637"><ele>923.0</ele><time>2026-05-03T13:05:41.148Z</time></trkpt><trkpt lat="44.2345873" lon="8.2198999"><ele>923.0</ele><time>2026-05-03T13:05:42.148Z</time></trkpt><trkpt lat="44.2346577" lon="8.2199559"><ele>923.4</ele><time>2026-05-03T13:05:43.147Z</time></trkpt><trkpt lat="44.2347456" lon="8.2200577"><ele>923.8</ele><time>2026-05-03T13:05:45.147Z</time></trkpt><trkpt lat="44.2348018" lon="8.2201664"><ele>924.2</ele><time>2026-05-03T13:05:46.147Z</time></trkpt><trkpt lat="44.2348159" lon="8.2203298"><ele>924.6</ele><time>2026-05-03T13:05:47.147Z</time></trkpt><trkpt lat="44.2348264" lon="8.2204937"><ele>925.0</ele><time>2026-05-03T13:05:48.147Z</time></trkpt><trkpt lat="44.2348493" lon="8.2206479"><ele>922.4</ele><time>2026-05-03T13:05:49.147Z</time></trkpt><trkpt lat="44.2348603" lon="8.2207862"><ele>919.8</ele><time>2026-05-03T13:05:50.147Z</time></trkpt><trkpt lat="44.2348737" lon="8.2209393"><ele>917.2</ele><time>2026-05-03T13:05:51.147Z</time></trkpt><trkpt lat="44.2348515" lon="8.22106"><ele>914.6</ele><time>2026-05-03T13:05:52.147Z</time></trkpt><trkpt lat="44.2348404" lon="8.221169"><ele>912.0</ele><time>2026-05-03T13:05:53.147Z</time></trkpt><trkpt lat="44.2348359" lon="8.2212866"><ele>912.0</ele><time>2026-05-03T13:05:54.147Z</time></trkpt><trkpt lat="44.234907" lon="8.2213686"><ele>912.0</ele><time>2026-05-03T13:05:56.147Z</time></trkpt><trkpt lat="44.2349629" lon="8.2214371"><ele>912.0</ele><time>2026-05-03T13:05:57.147Z</time></trkpt><trkpt lat="44.2350229" lon="8.2215304"><ele>912.0</ele><time>2026-05-03T13:05:58.147Z</time></trkpt><trkpt lat="44.2350883" lon="8.2216431"><ele>912.0</ele><time>2026-05-03T13:05:59.147Z</time></trkpt><trkpt lat="44.2351264" lon="8.2217378"><ele>912.0</ele><time>2026-05-03T13:06:00.148Z</time></trkpt><trkpt lat="44.2351822" lon="8.2218851"><ele>907.75</ele><time>2026-05-03T13:06:01.147Z</time></trkpt><trkpt lat="44.2352168" lon="8.2220008"><ele>903.5</ele><time>2026-05-03T13:06:02.147Z</time></trkpt><trkpt lat="44.2352349" lon="8.222182"><ele>899.25</ele><time>2026-05-03T13:06:03.148Z</time></trkpt><trkpt lat="44.2352572" lon="8.2223344"><ele>895.0</ele><time>2026-05-03T13:06:04.147Z</time></trkpt><trkpt lat="44.2352737" lon="8.222523"><ele>891.4</ele><time>2026-05-03T13:06:05.147Z</time></trkpt><trkpt lat="44.2353043" lon="8.2226547"><ele>887.8</ele><time>2026-05-03T13:06:06.147Z</time></trkpt><trkpt lat="44.2353345" lon="8.2228088"><ele>884.2</ele><time>2026-05-03T13:06:07.148Z</time></trkpt><trkpt lat="44.2353722" lon="8.2229526"><ele>880.6</ele><time>2026-05-03T13:06:08.148Z</time></trkpt><trkpt lat="44.2354132" lon="8.2231113"><ele>877.0</ele><time>2026-05-03T13:06:09.148Z</time></trkpt><trkpt lat="44.235479" lon="8.223264"><ele>879.6</ele><time>2026-05-03T13:06:10.147Z</time></trkpt><trkpt lat="44.235531" lon="8.2234191"><ele>882.2</ele><time>2026-05-03T13:06:11.147Z</time></trkpt><trkpt lat="44.2355728" lon="8.2235443"><ele>884.8</ele><time>2026-05-03T13:06:12.147Z</time></trkpt><trkpt lat="44.2356182" lon="8.2236695"><ele>887.4</ele><time>2026-05-03T13:06:13.147Z</time></trkpt><trkpt lat="44.2356848" lon="8.2238182"><ele>890.0</ele><time>2026-05-03T13:06:14.147Z</time></trkpt><trkpt lat="44.2356949" lon="8.2239395"><ele>886.8333333333334</ele><time>2026-05-03T13:06:15.147Z</time></trkpt><trkpt lat="44.2357187" lon="8.2240767"><ele>883.6666666666667</ele><time>2026-05-03T13:06:16.147Z</time></trkpt><trkpt lat="44.2357407" lon="8.2241976"><ele>880.5</ele><time>2026-05-03T13:06:17.147Z</time></trkpt><trkpt lat="44.2357784" lon="8.2242774"><ele>877.3333333333333</ele><time>2026-05-03T13:06:18.147Z</time></trkpt><trkpt lat="44.235821" lon="8.2243789"><ele>874.1666666666666</ele><time>2026-05-03T13:06:19.147Z</time></trkpt><trkpt lat="44.2358908" lon="8.224472"><ele>871.0</ele><time>2026-05-03T13:06:20.147Z</time></trkpt><trkpt lat="44.2359414" lon="8.224545"><ele>871.0</ele><time>2026-05-03T13:06:21.147Z</time></trkpt><trkpt lat="44.2359973" lon="8.2245988"><ele>871.0</ele><time>2026-05-03T13:06:22.147Z</time></trkpt><trkpt lat="44.2360804" lon="8.2245529"><ele>871.0</ele><time>2026-05-03T13:06:23.147Z</time></trkpt><trkpt lat="44.236151" lon="8.2245669"><ele>871.0</ele><time>2026-05-03T13:06:24.147Z</time></trkpt><trkpt lat="44.2362193" lon="8.2245853"><ele>871.0</ele><time>2026-05-03T13:06:25.148Z</time></trkpt><trkpt lat="44.2362819" lon="8.2246298"><ele>871.0</ele><time>2026-05-03T13:06:26.148Z</time></trkpt><trkpt lat="44.2363443" lon="8.2246799"><ele>871.0</ele><time>2026-05-03T13:06:27.147Z</time></trkpt><trkpt lat="44.2364216" lon="8.2247107"><ele>869.1999999999999</ele><time>2026-05-03T13:06:28.147Z</time></trkpt><trkpt lat="44.236528" lon="8.2247312"><ele>867.3999999999999</ele><time>2026-05-03T13:06:29.147Z</time></trkpt><trkpt lat="44.2366171" lon="8.2247657"><ele>865.6</ele><time>2026-05-03T13:06:30.147Z</time></trkpt><trkpt lat="44.236729" lon="8.2247986"><ele>863.8</ele><time>2026-05-03T13:06:31.147Z</time></trkpt><trkpt lat="44.2368361" lon="8.224833"><ele>862.0</ele><time>2026-05-03T13:06:32.147Z</time></trkpt><trkpt lat="44.2369857" lon="8.2248902"><ele>862.0</ele><time>2026-05-03T13:06:34.147Z</time></trkpt><trkpt lat="44.237029" lon="8.2249558"><ele>862.0</ele><time>2026-05-03T13:06:35.147Z</time></trkpt><trkpt lat="44.2369978" lon="8.2251186"><ele>862.0</ele><time>2026-05-03T13:06:36.147Z</time></trkpt><trkpt lat="44.2370406" lon="8.2252533"><ele>862.0</ele><time>2026-05-03T13:06:37.147Z</time></trkpt><trkpt lat="44.2370562" lon="8.2253842"><ele>862.0</ele><time>2026-05-03T13:06:38.147Z</time></trkpt><trkpt lat="44.2371188" lon="8.2255116"><ele>862.75</ele><time>2026-05-03T13:06:39.147Z</time></trkpt><trkpt lat="44.2372232" lon="8.2256563"><ele>863.5</ele><time>2026-05-03T13:06:40.148Z</time></trkpt><trkpt lat="44.2373147" lon="8.2257933"><ele>864.25</ele><time>2026-05-03T13:06:41.147Z</time></trkpt><trkpt lat="44.2373822" lon="8.225923"><ele>865.0</ele><time>2026-05-03T13:06:42.147Z</time></trkpt><trkpt lat="44.237451" lon="8.2260656"><ele>865.0</ele><time>2026-05-03T13:06:43.147Z</time></trkpt><trkpt lat="44.2375074" lon="8.2262202"><ele>865.0</ele><time>2026-05-03T13:06:44.147Z</time></trkpt><trkpt lat="44.2375412" lon="8.2263736"><ele>865.0</ele><time>2026-05-03T13:06:45.147Z</time></trkpt><trkpt lat="44.2375602" lon="8.2265108"><ele>865.0</ele><time>2026-05-03T13:06:46.147Z</time></trkpt><trkpt lat="44.2375585" lon="8.2266698"><ele>860.75</ele><time>2026-05-03T13:06:47.148Z</time></trkpt><trkpt lat="44.2375802" lon="8.2268198"><ele>856.5</ele><time>2026-05-03T13:06:48.147Z</time></trkpt><trkpt lat="44.2375966" lon="8.226971"><ele>852.25</ele><time>2026-05-03T13:06:49.147Z</time></trkpt><trkpt lat="44.2376206" lon="8.2271348"><ele>848.0</ele><time>2026-05-03T13:06:50.147Z</time></trkpt><trkpt lat="44.2376937" lon="8.227287"><ele>845.0</ele><time>2026-05-03T13:06:51.147Z</time></trkpt><trkpt lat="44.2377418" lon="8.2274205"><ele>842.0</ele><time>2026-05-03T13:06:52.147Z</time></trkpt><trkpt lat="44.2377583" lon="8.2275452"><ele>839.0</ele><time>2026-05-03T13:06:53.147Z</time></trkpt><trkpt lat="44.237792" lon="8.2276733"><ele>836.0</ele><time>2026-05-03T13:06:54.147Z</time></trkpt><trkpt lat="44.2378397" lon="8.2278046"><ele>833.0</ele><time>2026-05-03T13:06:55.148Z</time></trkpt><trkpt lat="44.2378726" lon="8.2279373"><ele>833.0000000000001</ele><time>2026-05-03T13:06:56.147Z</time></trkpt><trkpt lat="44.2379055" lon="8.228018"><ele>833.0</ele><time>2026-05-03T13:06:57.147Z</time></trkpt><trkpt lat="44.237928" lon="8.2281175"><ele>833.0</ele><time>2026-05-03T13:06:58.147Z</time></trkpt><trkpt lat="44.2379781" lon="8.2282331"><ele>833.0</ele><time>2026-05-03T13:06:59.147Z</time></trkpt><trkpt lat="44.2380369" lon="8.2283223"><ele>833.0000000000001</ele><time>2026-05-03T13:07:00.147Z</time></trkpt><trkpt lat="44.2380974" lon="8.2283986"><ele>833.0</ele><time>2026-05-03T13:07:01.147Z</time></trkpt><trkpt lat="44.2381854" lon="8.2284699"><ele>835.4</ele><time>2026-05-03T13:07:02.147Z</time></trkpt><trkpt lat="44.2382754" lon="8.228526"><ele>837.8</ele><time>2026-05-03T13:07:03.147Z</time></trkpt><trkpt lat="44.2383581" lon="8.2285985"><ele>840.2</ele><time>2026-05-03T13:07:04.147Z</time></trkpt><trkpt lat="44.2384322" lon="8.22871"><ele>842.6</ele><time>2026-05-03T13:07:05.147Z</time></trkpt><trkpt lat="44.2385007" lon="8.2287966"><ele>845.0</ele><time>2026-05-03T13:07:06.148Z</time></trkpt><trkpt lat="44.2385833" lon="8.2288995"><ele>845.0</ele><time>2026-05-03T13:07:07.147Z</time></trkpt><trkpt lat="44.2386647" lon="8.2289733"><ele>845.0</ele><time>2026-05-03T13:07:08.147Z</time></trkpt><trkpt lat="44.2387253" lon="8.2290565"><ele>845.0</ele><time>2026-05-03T13:07:09.147Z</time></trkpt><trkpt lat="44.2387422" lon="8.2292747"><ele>845.0</ele><time>2026-05-03T13:07:11.148Z</time></trkpt><trkpt lat="44.2387411" lon="8.2294021"><ele>845.0</ele><time>2026-05-03T13:07:12.147Z</time></trkpt><trkpt lat="44.238727" lon="8.2295632"><ele>838.0</ele><time>2026-05-03T13:07:13.147Z</time></trkpt><trkpt lat="44.238707" lon="8.2297237"><ele>831.0</ele><time>2026-05-03T13:07:14.148Z</time></trkpt><trkpt lat="44.2387023" lon="8.2298719"><ele>824.0</ele><time>2026-05-03T13:07:15.147Z</time></trkpt><trkpt lat="44.2386911" lon="8.230026"><ele>817.0</ele><time>2026-05-03T13:07:16.147Z</time></trkpt><trkpt lat="44.2386773" lon="8.2301974"><ele>813.25</ele><time>2026-05-03T13:07:17.148Z</time></trkpt><trkpt lat="44.2386784" lon="8.2303699"><ele>809.5</ele><time>2026-05-03T13:07:18.147Z</time></trkpt><trkpt lat="44.2386754" lon="8.230541"><ele>805.75</ele><time>2026-05-03T13:07:19.147Z</time></trkpt><trkpt lat="44.2386785" lon="8.2307102"><ele>802.0</ele><time>2026-05-03T13:07:20.147Z</time></trkpt><trkpt lat="44.2386762" lon="8.2308517"><ele>802.0</ele><time>2026-05-03T13:07:21.147Z</time></trkpt><trkpt lat="44.2386622" lon="8.2309802"><ele>802.0</ele><time>2026-05-03T13:07:22.147Z</time></trkpt><trkpt lat="44.2386476" lon="8.2311319"><ele>802.0</ele><time>2026-05-03T13:07:23.147Z</time></trkpt><trkpt lat="44.2385549" lon="8.2311519"><ele>802.0</ele><time>2026-05-03T13:07:24.148Z</time></trkpt><trkpt lat="44.2385018" lon="8.2312558"><ele>802.0</ele><time>2026-05-03T13:07:25.147Z</time></trkpt><trkpt lat="44.2384559" lon="8.2313197"><ele>801.9999999999999</ele><time>2026-05-03T13:07:26.148Z</time></trkpt><trkpt lat="44.2383664" lon="8.2313758"><ele>802.0</ele><time>2026-05-03T13:07:27.148Z</time></trkpt><trkpt lat="44.2383033" lon="8.2314219"><ele>802.0</ele><time>2026-05-03T13:07:28.148Z</time></trkpt><trkpt lat="44.2382556" lon="8.2315025"><ele>802.0</ele><time>2026-05-03T13:07:29.147Z</time></trkpt><trkpt lat="44.2381971" lon="8.2315786"><ele>801.9999999999999</ele><time>2026-05-03T13:07:30.147Z</time></trkpt><trkpt lat="44.238169" lon="8.2316943"><ele>802.0</ele><time>2026-05-03T13:07:31.147Z</time></trkpt><trkpt lat="44.2381789" lon="8.2318615"><ele>804.0</ele><time>2026-05-03T13:07:32.147Z</time></trkpt><trkpt lat="44.2381912" lon="8.2319984"><ele>806.0</ele><time>2026-05-03T13:07:33.147Z</time></trkpt><trkpt lat="44.2381981" lon="8.2321754"><ele>808.0</ele><time>2026-05-03T13:07:34.148Z</time></trkpt><trkpt lat="44.2381907" lon="8.2323532"><ele>810.0</ele><time>2026-05-03T13:07:35.148Z</time></trkpt><trkpt lat="44.2381813" lon="8.2324607"><ele>812.0</ele><time>2026-05-03T13:07:36.148Z</time></trkpt><trkpt lat="44.2381718" lon="8.2325944"><ele>803.75</ele><time>2026-05-03T13:07:37.148Z</time></trkpt><trkpt lat="44.2381347" lon="8.2327427"><ele>795.5</ele><time>2026-05-03T13:07:38.148Z</time></trkpt><trkpt lat="44.2380987" lon="8.2328801"><ele>787.25</ele><time>2026-05-03T13:07:39.148Z</time></trkpt><trkpt lat="44.2380403" lon="8.2330336"><ele>779.0</ele><time>2026-05-03T13:07:40.148Z</time></trkpt><trkpt lat="44.2379826" lon="8.2332087"><ele>779.0000000000001</ele><time>2026-05-03T13:07:41.148Z</time></trkpt><trkpt lat="44.2379359" lon="8.2333254"><ele>779.0</ele><time>2026-05-03T13:07:42.148Z</time></trkpt><trkpt lat="44.2378717" lon="8.2334266"><ele>779.0</ele><time>2026-05-03T13:07:43.148Z</time></trkpt><trkpt lat="44.2378183" lon="8.2335288"><ele>779.0</ele><time>2026-05-03T13:07:44.148Z</time></trkpt><trkpt lat="44.2377759" lon="8.2336375"><ele>779.0000000000001</ele><time>2026-05-03T13:07:45.148Z</time></trkpt><trkpt lat="44.2377453" lon="8.2337319"><ele>779.0</ele><time>2026-05-03T13:07:46.149Z</time></trkpt><trkpt lat="44.2377231" lon="8.2338378"><ele>781.0</ele><time>2026-05-03T13:07:47.149Z</time></trkpt><trkpt lat="44.2377046" lon="8.2339828"><ele>783.0</ele><time>2026-05-03T13:07:48.148Z</time></trkpt><trkpt lat="44.2376844" lon="8.2341184"><ele>785.0</ele><time>2026-05-03T13:07:49.148Z</time></trkpt><trkpt lat="44.2376714" lon="8.234267"><ele>787.0</ele><time>2026-05-03T13:07:50.149Z</time></trkpt><trkpt lat="44.237688" lon="8.2344418"><ele>789.0</ele><time>2026-05-03T13:07:51.148Z</time></trkpt><trkpt lat="44.2376877" lon="8.2346244"><ele>789.0</ele><time>2026-05-03T13:07:52.148Z</time></trkpt><trkpt lat="44.2376909" lon="8.234801"><ele>789.0</ele><time>2026-05-03T13:07:53.148Z</time></trkpt><trkpt lat="44.2376798" lon="8.2349586"><ele>789.0</ele><time>2026-05-03T13:07:54.149Z</time></trkpt><trkpt lat="44.2376678" lon="8.235134"><ele>789.0</ele><time>2026-05-03T13:07:55.148Z</time></trkpt><trkpt lat="44.2376489" lon="8.2352688"><ele>788.4000000000001</ele><time>2026-05-03T13:07:56.149Z</time></trkpt><trkpt lat="44.2376593" lon="8.235391"><ele>787.8</ele><time>2026-05-03T13:07:57.149Z</time></trkpt><trkpt lat="44.2376571" lon="8.2355085"><ele>787.2</ele><time>2026-05-03T13:07:58.149Z</time></trkpt><trkpt lat="44.2376886" lon="8.2356279"><ele>786.5999999999999</ele><time>2026-05-03T13:07:59.149Z</time></trkpt><trkpt lat="44.237736" lon="8.2357287"><ele>786.0</ele><time>2026-05-03T13:08:00.148Z</time></trkpt><trkpt lat="44.2378229" lon="8.2358601"><ele>784.0</ele><time>2026-05-03T13:08:01.149Z</time></trkpt><trkpt lat="44.2379449" lon="8.2360096"><ele>782.0</ele><time>2026-05-03T13:08:02.148Z</time></trkpt><trkpt lat="44.2380204" lon="8.2360921"><ele>780.0</ele><time>2026-05-03T13:08:03.149Z</time></trkpt><trkpt lat="44.2380899" lon="8.2361683"><ele>778.0</ele><time>2026-05-03T13:08:04.148Z</time></trkpt><trkpt lat="44.2381825" lon="8.2362544"><ele>778.0</ele><time>2026-05-03T13:08:06.149Z</time></trkpt><trkpt lat="44.2382018" lon="8.236355"><ele>778.0</ele><time>2026-05-03T13:08:08.149Z</time></trkpt><trkpt lat="44.2381045" lon="8.2363581"><ele>778.0</ele><time>2026-05-03T13:08:11.148Z</time></trkpt><trkpt lat="44.2380172" lon="8.2363355"><ele>778.0</ele><time>2026-05-03T13:08:12.149Z</time></trkpt><trkpt lat="44.2379046" lon="8.2362943"><ele>778.0</ele><time>2026-05-03T13:08:13.148Z</time></trkpt><trkpt lat="44.2377978" lon="8.2362273"><ele>778.0</ele><time>2026-05-03T13:08:14.148Z</time></trkpt><trkpt lat="44.2377027" lon="8.2361681"><ele>778.0</ele><time>2026-05-03T13:08:15.148Z</time></trkpt><trkpt lat="44.2376181" lon="8.2361337"><ele>778.0</ele><time>2026-05-03T13:08:16.148Z</time></trkpt><trkpt lat="44.2375351" lon="8.2361069"><ele>778.0</ele><time>2026-05-03T13:08:17.149Z</time></trkpt><trkpt lat="44.2374468" lon="8.2360766"><ele>778.0</ele><time>2026-05-03T13:08:18.148Z</time></trkpt><trkpt lat="44.2373621" lon="8.2360503"><ele>773.3333333333333</ele><time>2026-05-03T13:08:19.148Z</time></trkpt><trkpt lat="44.2372788" lon="8.2360207"><ele>768.6666666666666</ele><time>2026-05-03T13:08:20.148Z</time></trkpt><trkpt lat="44.2371969" lon="8.2359796"><ele>764.0</ele><time>2026-05-03T13:08:21.148Z</time></trkpt><trkpt lat="44.2371215" lon="8.2359273"><ele>759.3333333333333</ele><time>2026-05-03T13:08:22.149Z</time></trkpt><trkpt lat="44.2370576" lon="8.2358629"><ele>754.6666666666666</ele><time>2026-05-03T13:08:23.148Z</time></trkpt><trkpt lat="44.2370188" lon="8.2357784"><ele>750.0</ele><time>2026-05-03T13:08:24.149Z</time></trkpt><trkpt lat="44.2369946" lon="8.2356881"><ele>749.4</ele><time>2026-05-03T13:08:25.148Z</time></trkpt><trkpt lat="44.2369664" lon="8.2355237"><ele>748.8</ele><time>2026-05-03T13:08:27.148Z</time></trkpt><trkpt lat="44.2369265" lon="8.2354439"><ele>748.2</ele><time>2026-05-03T13:08:28.148Z</time></trkpt><trkpt lat="44.2368732" lon="8.2353625"><ele>747.6</ele><time>2026-05-03T13:08:29.148Z</time></trkpt><trkpt lat="44.2368154" lon="8.2352628"><ele>747.0</ele><time>2026-05-03T13:08:30.148Z</time></trkpt><trkpt lat="44.2367695" lon="8.2351441"><ele>747.0</ele><time>2026-05-03T13:08:31.148Z</time></trkpt><trkpt lat="44.2367498" lon="8.235012"><ele>747.0</ele><time>2026-05-03T13:08:32.149Z</time></trkpt><trkpt lat="44.2367405" lon="8.234887"><ele>747.0</ele><time>2026-05-03T13:08:33.149Z</time></trkpt><trkpt lat="44.2367864" lon="8.2347777"><ele>747.0</ele><time>2026-05-03T13:08:34.148Z</time></trkpt><trkpt lat="44.2368203" lon="8.2346782"><ele>747.0</ele><time>2026-05-03T13:08:35.149Z</time></trkpt><trkpt lat="44.2368068" lon="8.2345617"><ele>747.0</ele><time>2026-05-03T13:08:37.148Z</time></trkpt><trkpt lat="44.2367295" lon="8.2345719"><ele>747.0</ele><time>2026-05-03T13:08:39.148Z</time></trkpt><trkpt lat="44.236693" lon="8.2346608"><ele>747.0</ele><time>2026-05-03T13:08:40.148Z</time></trkpt><trkpt lat="44.2366631" lon="8.2347749"><ele>747.0</ele><time>2026-05-03T13:08:41.148Z</time></trkpt><trkpt lat="44.2366369" lon="8.2349141"><ele>747.0</ele><time>2026-05-03T13:08:42.148Z</time></trkpt><trkpt lat="44.2366098" lon="8.2350575"><ele>747.0</ele><time>2026-05-03T13:08:43.148Z</time></trkpt><trkpt lat="44.2365919" lon="8.2351753"><ele>747.0</ele><time>2026-05-03T13:08:44.149Z</time></trkpt><trkpt lat="44.2365822" lon="8.2352833"><ele>747.0</ele><time>2026-05-03T13:08:45.148Z</time></trkpt><trkpt lat="44.236575" lon="8.2353937"><ele>747.0</ele><time>2026-05-03T13:08:46.148Z</time></trkpt><trkpt lat="44.2365601" lon="8.235511"><ele>747.0</ele><time>2026-05-03T13:08:47.149Z</time></trkpt><trkpt lat="44.2365162" lon="8.2355885"><ele>747.0</ele><time>2026-05-03T13:08:48.149Z</time></trkpt><trkpt lat="44.2364555" lon="8.2356452"><ele>747.0</ele><time>2026-05-03T13:08:49.148Z</time></trkpt><trkpt lat="44.2363973" lon="8.2357302"><ele>739.0</ele><time>2026-05-03T13:08:50.148Z</time></trkpt><trkpt lat="44.2363694" lon="8.2358432"><ele>731.0</ele><time>2026-05-03T13:08:51.148Z</time></trkpt><trkpt lat="44.236361" lon="8.2359775"><ele>723.0</ele><time>2026-05-03T13:08:52.148Z</time></trkpt><trkpt lat="44.2363666" lon="8.2361184"><ele>715.0</ele><time>2026-05-03T13:08:53.149Z</time></trkpt><trkpt lat="44.2363732" lon="8.2362701"><ele>707.0</ele><time>2026-05-03T13:08:54.148Z</time></trkpt><trkpt lat="44.2363835" lon="8.2364396"><ele>709.0</ele><time>2026-05-03T13:08:55.148Z</time></trkpt><trkpt lat="44.2363928" lon="8.2366101"><ele>711.0</ele><time>2026-05-03T13:08:56.148Z</time></trkpt><trkpt lat="44.2364108" lon="8.2367585"><ele>713.0</ele><time>2026-05-03T13:08:57.148Z</time></trkpt><trkpt lat="44.2364288" lon="8.2369091"><ele>715.0</ele><time>2026-05-03T13:08:58.149Z</time></trkpt><trkpt lat="44.236461" lon="8.2370581"><ele>717.6666666666667</ele><time>2026-05-03T13:08:59.148Z</time></trkpt><trkpt lat="44.2364924" lon="8.237201"><ele>720.3333333333334</ele><time>2026-05-03T13:09:00.149Z</time></trkpt><trkpt lat="44.2365167" lon="8.2373311"><ele>723.0</ele><time>2026-05-03T13:09:01.148Z</time></trkpt><trkpt lat="44.2365484" lon="8.2374291"><ele>725.6666666666666</ele><time>2026-05-03T13:09:02.148Z</time></trkpt><trkpt lat="44.2365986" lon="8.2375132"><ele>728.3333333333333</ele><time>2026-05-03T13:09:03.148Z</time></trkpt><trkpt lat="44.2366587" lon="8.2375901"><ele>731.0</ele><time>2026-05-03T13:09:04.149Z</time></trkpt><trkpt lat="44.2367255" lon="8.2376443"><ele>731.0</ele><time>2026-05-03T13:09:05.149Z</time></trkpt><trkpt lat="44.2367937" lon="8.2376795"><ele>731.0</ele><time>2026-05-03T13:09:06.148Z</time></trkpt><trkpt lat="44.2368558" lon="8.2377158"><ele>731.0</ele><time>2026-05-03T13:09:07.148Z</time></trkpt><trkpt lat="44.2369166" lon="8.2377392"><ele>731.0</ele><time>2026-05-03T13:09:08.149Z</time></trkpt><trkpt lat="44.2370088" lon="8.2376398"><ele>731.0</ele><time>2026-05-03T13:09:10.149Z</time></trkpt><trkpt lat="44.2370634" lon="8.2375574"><ele>731.0</ele><time>2026-05-03T13:09:11.148Z</time></trkpt><trkpt lat="44.2371167" lon="8.2375075"><ele>731.0</ele><time>2026-05-03T13:09:12.148Z</time></trkpt><trkpt lat="44.2372185" lon="8.2374337"><ele>731.0</ele><time>2026-05-03T13:09:14.148Z</time></trkpt><trkpt lat="44.2371628" lon="8.2375624"><ele>731.0</ele><time>2026-05-03T13:09:18.148Z</time></trkpt><trkpt lat="44.2370891" lon="8.237669"><ele>731.0</ele><time>2026-05-03T13:09:20.149Z</time></trkpt><trkpt lat="44.2370407" lon="8.2378144"><ele>731.0</ele><time>2026-05-03T13:09:22.148Z</time></trkpt><trkpt lat="44.237017" lon="8.2379745"><ele>731.0</ele><time>2026-05-03T13:09:24.149Z</time></trkpt><trkpt lat="44.2369711" lon="8.2380755"><ele>731.0</ele><time>2026-05-03T13:09:26.148Z</time></trkpt><trkpt lat="44.2368909" lon="8.2381511"><ele>731.0</ele><time>2026-05-03T13:09:28.149Z</time></trkpt><trkpt lat="44.2367836" lon="8.2381677"><ele>731.0</ele><time>2026-05-03T13:09:30.148Z</time></trkpt><trkpt lat="44.2366811" lon="8.238263"><ele>731.0</ele><time>2026-05-03T13:09:32.148Z</time></trkpt><trkpt lat="44.2366271" lon="8.2383423"><ele>728.6666666666666</ele><time>2026-05-03T13:09:33.148Z</time></trkpt><trkpt lat="44.2365653" lon="8.2384215"><ele>726.3333333333333</ele><time>2026-05-03T13:09:34.148Z</time></trkpt><trkpt lat="44.2364951" lon="8.2384951"><ele>724.0</ele><time>2026-05-03T13:09:35.148Z</time></trkpt><trkpt lat="44.2364499" lon="8.238587"><ele>721.6666666666666</ele><time>2026-05-03T13:09:36.148Z</time></trkpt><trkpt lat="44.236417" lon="8.2386687"><ele>719.3333333333334</ele><time>2026-05-03T13:09:37.148Z</time></trkpt><trkpt lat="44.2363982" lon="8.2387684"><ele>717.0</ele><time>2026-05-03T13:09:38.148Z</time></trkpt><trkpt lat="44.2363836" lon="8.2388757"><ele>709.4000000000001</ele><time>2026-05-03T13:09:39.148Z</time></trkpt><trkpt lat="44.2363756" lon="8.238978"><ele>701.8000000000001</ele><time>2026-05-03T13:09:40.148Z</time></trkpt><trkpt lat="44.2363811" lon="8.2390968"><ele>694.2</ele><time>2026-05-03T13:09:41.148Z</time></trkpt><trkpt lat="44.2363842" lon="8.2392179"><ele>686.6</ele><time>2026-05-03T13:09:42.148Z</time></trkpt><trkpt lat="44.236384" lon="8.2393749"><ele>679.0</ele><time>2026-05-03T13:09:43.148Z</time></trkpt><trkpt lat="44.2363801" lon="8.2395414"><ele>679.0</ele><time>2026-05-03T13:09:44.148Z</time></trkpt><trkpt lat="44.2363819" lon="8.2396948"><ele>679.0</ele><time>2026-05-03T13:09:45.148Z</time></trkpt><trkpt lat="44.2363867" lon="8.2398366"><ele>679.0</ele><time>2026-05-03T13:09:46.149Z</time></trkpt><trkpt lat="44.2363869" lon="8.2399807"><ele>679.0</ele><time>2026-05-03T13:09:47.149Z</time></trkpt><trkpt lat="44.2363761" lon="8.2401075"><ele>679.0</ele><time>2026-05-03T13:09:48.148Z</time></trkpt><trkpt lat="44.236362" lon="8.2402092"><ele>677.6666666666667</ele><time>2026-05-03T13:09:49.148Z</time></trkpt><trkpt lat="44.2363258" lon="8.2402957"><ele>676.3333333333334</ele><time>2026-05-03T13:09:50.148Z</time></trkpt><trkpt lat="44.2362784" lon="8.2403825"><ele>675.0</ele><time>2026-05-03T13:09:51.148Z</time></trkpt><trkpt lat="44.2362403" lon="8.2404884"><ele>673.6666666666666</ele><time>2026-05-03T13:09:52.148Z</time></trkpt><trkpt lat="44.2362078" lon="8.2406249"><ele>672.3333333333333</ele><time>2026-05-03T13:09:53.149Z</time></trkpt><trkpt lat="44.2361987" lon="8.240773"><ele>671.0</ele><time>2026-05-03T13:09:54.149Z</time></trkpt><trkpt lat="44.2361963" lon="8.2409188"><ele>670.0</ele><time>2026-05-03T13:09:55.148Z</time></trkpt><trkpt lat="44.236185" lon="8.2410577"><ele>669.0</ele><time>2026-05-03T13:09:56.148Z</time></trkpt><trkpt lat="44.2361658" lon="8.2411882"><ele>668.0</ele><time>2026-05-03T13:09:57.148Z</time></trkpt><trkpt lat="44.2361275" lon="8.241293"><ele>667.0</ele><time>2026-05-03T13:09:58.148Z</time></trkpt><trkpt lat="44.2360858" lon="8.2414044"><ele>666.0</ele><time>2026-05-03T13:09:59.148Z</time></trkpt><trkpt lat="44.2360479" lon="8.2415038"><ele>665.5</ele><time>2026-05-03T13:10:00.148Z</time></trkpt><trkpt lat="44.2360109" lon="8.2415983"><ele>665.0</ele><time>2026-05-03T13:10:01.149Z</time></trkpt><trkpt lat="44.2360053" lon="8.2416961"><ele>664.5</ele><time>2026-05-03T13:10:02.148Z</time></trkpt><trkpt lat="44.2360251" lon="8.2417855"><ele>664.0</ele><time>2026-05-03T13:10:03.148Z</time></trkpt><trkpt lat="44.2360747" lon="8.2418856"><ele>663.5</ele><time>2026-05-03T13:10:04.149Z</time></trkpt><trkpt lat="44.2361351" lon="8.2419881"><ele>663.0</ele><time>2026-05-03T13:10:05.149Z</time></trkpt><trkpt lat="44.2362055" lon="8.2420666"><ele>663.0</ele><time>2026-05-03T13:10:06.148Z</time></trkpt><trkpt lat="44.2362843" lon="8.2421216"><ele>663.0</ele><time>2026-05-03T13:10:07.148Z</time></trkpt><trkpt lat="44.2363607" lon="8.2421468"><ele>663.0</ele><time>2026-05-03T13:10:08.148Z</time></trkpt><trkpt lat="44.2364363" lon="8.2421675"><ele>663.0</ele><time>2026-05-03T13:10:09.149Z</time></trkpt><trkpt lat="44.2365127" lon="8.2421858"><ele>663.0</ele><time>2026-05-03T13:10:10.149Z</time></trkpt><trkpt lat="44.2365821" lon="8.2422041"><ele>663.0</ele><time>2026-05-03T13:10:11.15Z</time></trkpt><trkpt lat="44.23665" lon="8.2423057"><ele>661.2</ele><time>2026-05-03T13:10:13.148Z</time></trkpt><trkpt lat="44.2366718" lon="8.2424329"><ele>659.4</ele><time>2026-05-03T13:10:15.148Z</time></trkpt><trkpt lat="44.2366037" lon="8.2424863"><ele>657.6</ele><time>2026-05-03T13:10:16.148Z</time></trkpt><trkpt lat="44.236533" lon="8.2425126"><ele>655.8000000000001</ele><time>2026-05-03T13:10:17.149Z</time></trkpt><trkpt lat="44.2364106" lon="8.242573"><ele>654.0</ele><time>2026-05-03T13:10:18.148Z</time></trkpt><trkpt lat="44.2362898" lon="8.2426305"><ele>654.0</ele><time>2026-05-03T13:10:19.148Z</time></trkpt><trkpt lat="44.2361937" lon="8.2427018"><ele>654.0</ele><time>2026-05-03T13:10:20.148Z</time></trkpt><trkpt lat="44.2361028" lon="8.2427741"><ele>654.0</ele><time>2026-05-03T13:10:21.148Z</time></trkpt><trkpt lat="44.2360293" lon="8.2428303"><ele>654.0</ele><time>2026-05-03T13:10:22.149Z</time></trkpt><trkpt lat="44.235962" lon="8.2428885"><ele>654.0</ele><time>2026-05-03T13:10:23.148Z</time></trkpt><trkpt lat="44.2358908" lon="8.2429671"><ele>654.0</ele><time>2026-05-03T13:10:24.148Z</time></trkpt><trkpt lat="44.2358373" lon="8.2430952"><ele>654.0</ele><time>2026-05-03T13:10:25.148Z</time></trkpt><trkpt lat="44.2358114" lon="8.2432697"><ele>654.0</ele><time>2026-05-03T13:10:26.148Z</time></trkpt><trkpt lat="44.2357899" lon="8.2434364"><ele>654.0</ele><time>2026-05-03T13:10:27.148Z</time></trkpt><trkpt lat="44.2357835" lon="8.2435605"><ele>654.0</ele><time>2026-05-03T13:10:28.149Z</time></trkpt><trkpt lat="44.2357786" lon="8.2436746"><ele>653.2</ele><time>2026-05-03T13:10:29.148Z</time></trkpt><trkpt lat="44.2357889" lon="8.243763"><ele>652.4000000000001</ele><time>2026-05-03T13:10:30.148Z</time></trkpt><trkpt lat="44.2358575" lon="8.2439057"><ele>651.6</ele><time>2026-05-03T13:10:32.148Z</time></trkpt><trkpt lat="44.2359475" lon="8.2439604"><ele>650.8</ele><time>2026-05-03T13:10:33.148Z</time></trkpt><trkpt lat="44.2360481" lon="8.2440184"><ele>650.0</ele><time>2026-05-03T13:10:34.149Z</time></trkpt><trkpt lat="44.2361414" lon="8.2440771"><ele>648.1666666666666</ele><time>2026-05-03T13:10:35.148Z</time></trkpt><trkpt lat="44.2362193" lon="8.2441402"><ele>646.3333333333333</ele><time>2026-05-03T13:10:36.148Z</time></trkpt><trkpt lat="44.2362765" lon="8.2442046"><ele>644.5</ele><time>2026-05-03T13:10:37.148Z</time></trkpt><trkpt lat="44.236321" lon="8.2442851"><ele>642.6666666666666</ele><time>2026-05-03T13:10:38.148Z</time></trkpt><trkpt lat="44.2363512" lon="8.2443677"><ele>640.8333333333334</ele><time>2026-05-03T13:10:39.148Z</time></trkpt><trkpt lat="44.2362628" lon="8.2444571"><ele>639.0</ele><time>2026-05-03T13:10:41.148Z</time></trkpt><trkpt lat="44.2362106" lon="8.2445097"><ele>639.0</ele><time>2026-05-03T13:10:42.149Z</time></trkpt><trkpt lat="44.2361567" lon="8.2445772"><ele>639.0</ele><time>2026-05-03T13:10:43.149Z</time></trkpt><trkpt lat="44.2361093" lon="8.2446698"><ele>639.0</ele><time>2026-05-03T13:10:44.148Z</time></trkpt><trkpt lat="44.2360611" lon="8.244781"><ele>639.0</ele><time>2026-05-03T13:10:45.149Z</time></trkpt><trkpt lat="44.2360077" lon="8.2449023"><ele>639.0</ele><time>2026-05-03T13:10:46.148Z</time></trkpt><trkpt lat="44.2359532" lon="8.2450443"><ele>638.2</ele><time>2026-05-03T13:10:47.148Z</time></trkpt><trkpt lat="44.2359029" lon="8.2451834"><ele>637.4</ele><time>2026-05-03T13:10:48.148Z</time></trkpt><trkpt lat="44.2358495" lon="8.2453058"><ele>636.6</ele><time>2026-05-03T13:10:49.148Z</time></trkpt><trkpt lat="44.2357882" lon="8.2454207"><ele>635.8</ele><time>2026-05-03T13:10:50.148Z</time></trkpt><trkpt lat="44.235728" lon="8.245532"><ele>635.0</ele><time>2026-05-03T13:10:51.149Z</time></trkpt><trkpt lat="44.2356862" lon="8.245632"><ele>635.0</ele><time>2026-05-03T13:10:52.148Z</time></trkpt><trkpt lat="44.2356578" lon="8.2457237"><ele>635.0</ele><time>2026-05-03T13:10:53.148Z</time></trkpt><trkpt lat="44.235631" lon="8.2458256"><ele>635.0</ele><time>2026-05-03T13:10:54.149Z</time></trkpt><trkpt lat="44.2356249" lon="8.2459502"><ele>635.0</ele><time>2026-05-03T13:10:55.148Z</time></trkpt><trkpt lat="44.2356309" lon="8.2460774"><ele>635.0</ele><time>2026-05-03T13:10:56.148Z</time></trkpt><trkpt lat="44.2356413" lon="8.2461809"><ele>635.0</ele><time>2026-05-03T13:10:57.149Z</time></trkpt><trkpt lat="44.2355805" lon="8.2462935"><ele>629.5</ele><time>2026-05-03T13:10:59.149Z</time></trkpt><trkpt lat="44.2354543" lon="8.2463658"><ele>624.0</ele><time>2026-05-03T13:11:01.148Z</time></trkpt><trkpt lat="44.2353435" lon="8.2464124"><ele>618.5</ele><time>2026-05-03T13:11:02.148Z</time></trkpt><trkpt lat="44.23522" lon="8.2464519"><ele>613.0</ele><time>2026-05-03T13:11:03.148Z</time></trkpt><trkpt lat="44.2350999" lon="8.2464852"><ele>613.0</ele><time>2026-05-03T13:11:04.148Z</time></trkpt><trkpt lat="44.2349765" lon="8.2465151"><ele>613.0</ele><time>2026-05-03T13:11:05.148Z</time></trkpt><trkpt lat="44.2348569" lon="8.2465762"><ele>613.0</ele><time>2026-05-03T13:11:06.149Z</time></trkpt><trkpt lat="44.2347329" lon="8.2466378"><ele>613.0</ele><time>2026-05-03T13:11:07.149Z</time></trkpt><trkpt lat="44.2346256" lon="8.2466997"><ele>610.1666666666667</ele><time>2026-05-03T13:11:08.148Z</time></trkpt><trkpt lat="44.2345409" lon="8.2467405"><ele>607.3333333333334</ele><time>2026-05-03T13:11:09.148Z</time></trkpt><trkpt lat="44.2344559" lon="8.2467783"><ele>604.5</ele><time>2026-05-03T13:11:10.148Z</time></trkpt><trkpt lat="44.2343724" lon="8.2468201"><ele>601.6666666666666</ele><time>2026-05-03T13:11:11.148Z</time></trkpt><trkpt lat="44.2342955" lon="8.2468604"><ele>598.8333333333333</ele><time>2026-05-03T13:11:12.148Z</time></trkpt><trkpt lat="44.2342173" lon="8.2468936"><ele>596.0</ele><time>2026-05-03T13:11:13.148Z</time></trkpt><trkpt lat="44.2341312" lon="8.2468943"><ele>596.0</ele><time>2026-05-03T13:11:14.149Z</time></trkpt><trkpt lat="44.234039" lon="8.2468726"><ele>596.0</ele><time>2026-05-03T13:11:15.148Z</time></trkpt><trkpt lat="44.2339537" lon="8.2468469"><ele>596.0</ele><time>2026-05-03T13:11:16.148Z</time></trkpt><trkpt lat="44.2338715" lon="8.2468235"><ele>596.0</ele><time>2026-05-03T13:11:17.149Z</time></trkpt><trkpt lat="44.2337964" lon="8.2468175"><ele>596.0</ele><time>2026-05-03T13:11:18.148Z</time></trkpt><trkpt lat="44.233686" lon="8.2468822"><ele>593.0</ele><time>2026-05-03T13:11:20.148Z</time></trkpt><trkpt lat="44.2336307" lon="8.2470309"><ele>590.0</ele><time>2026-05-03T13:11:22.148Z</time></trkpt><trkpt lat="44.2336098" lon="8.2472405"><ele>587.0</ele><time>2026-05-03T13:11:24.149Z</time></trkpt><trkpt lat="44.2336033" lon="8.2473941"><ele>584.0</ele><time>2026-05-03T13:11:25.148Z</time></trkpt><trkpt lat="44.2335976" lon="8.2475368"><ele>583.8</ele><time>2026-05-03T13:11:26.149Z</time></trkpt><trkpt lat="44.2335733" lon="8.2476678"><ele>583.5999999999999</ele><time>2026-05-03T13:11:27.149Z</time></trkpt><trkpt lat="44.2335415" lon="8.2478067"><ele>583.4</ele><time>2026-05-03T13:11:28.148Z</time></trkpt><trkpt lat="44.233511" lon="8.247947"><ele>583.1999999999999</ele><time>2026-05-03T13:11:29.148Z</time></trkpt><trkpt lat="44.2334877" lon="8.2480803"><ele>583.0</ele><time>2026-05-03T13:11:30.148Z</time></trkpt><trkpt lat="44.2334792" lon="8.2482163"><ele>582.4</ele><time>2026-05-03T13:11:31.149Z</time></trkpt><trkpt lat="44.2334792" lon="8.2483655"><ele>581.8</ele><time>2026-05-03T13:11:32.148Z</time></trkpt><trkpt lat="44.2334951" lon="8.2485112"><ele>581.2</ele><time>2026-05-03T13:11:33.149Z</time></trkpt><trkpt lat="44.233508" lon="8.2486506"><ele>580.6</ele><time>2026-05-03T13:11:34.148Z</time></trkpt><trkpt lat="44.2335225" lon="8.2487924"><ele>580.0</ele><time>2026-05-03T13:11:35.148Z</time></trkpt><trkpt lat="44.2335474" lon="8.2489372"><ele>578.8333333333334</ele><time>2026-05-03T13:11:36.148Z</time></trkpt><trkpt lat="44.2335797" lon="8.2490556"><ele>577.6666666666667</ele><time>2026-05-03T13:11:37.149Z</time></trkpt><trkpt lat="44.233619" lon="8.2491607"><ele>576.5</ele><time>2026-05-03T13:11:38.149Z</time></trkpt><trkpt lat="44.2336541" lon="8.2492726"><ele>575.3333333333334</ele><time>2026-05-03T13:11:39.148Z</time></trkpt><trkpt lat="44.2336774" lon="8.2493823"><ele>574.1666666666666</ele><time>2026-05-03T13:11:40.148Z</time></trkpt><trkpt lat="44.2336942" lon="8.2494814"><ele>573.0</ele><time>2026-05-03T13:11:41.148Z</time></trkpt><trkpt lat="44.2336909" lon="8.2495697"><ele>573.0</ele><time>2026-05-03T13:11:42.148Z</time></trkpt><trkpt lat="44.2336063" lon="8.2496318"><ele>573.0</ele><time>2026-05-03T13:11:44.148Z</time></trkpt><trkpt lat="44.2334911" lon="8.2495642"><ele>573.0</ele><time>2026-05-03T13:11:46.148Z</time></trkpt><trkpt lat="44.2334158" lon="8.2494929"><ele>573.0</ele><time>2026-05-03T13:11:47.148Z</time></trkpt><trkpt lat="44.2333302" lon="8.2494339"><ele>573.0</ele><time>2026-05-03T13:11:48.148Z</time></trkpt><trkpt lat="44.233256" lon="8.2494193"><ele>573.0</ele><time>2026-05-03T13:11:49.149Z</time></trkpt><trkpt lat="44.2331874" lon="8.2494276"><ele>573.0</ele><time>2026-05-03T13:11:50.148Z</time></trkpt><trkpt lat="44.2331175" lon="8.2494823"><ele>573.0</ele><time>2026-05-03T13:11:51.149Z</time></trkpt><trkpt lat="44.2330444" lon="8.2495627"><ele>573.0</ele><time>2026-05-03T13:11:52.149Z</time></trkpt><trkpt lat="44.2329634" lon="8.2496232"><ele>573.0</ele><time>2026-05-03T13:11:53.148Z</time></trkpt><trkpt lat="44.2328789" lon="8.2496428"><ele>573.0</ele><time>2026-05-03T13:11:54.148Z</time></trkpt><trkpt lat="44.2327944" lon="8.2496242"><ele>570.3333333333334</ele><time>2026-05-03T13:11:55.148Z</time></trkpt><trkpt lat="44.2327192" lon="8.249561"><ele>567.6666666666666</ele><time>2026-05-03T13:11:56.149Z</time></trkpt><trkpt lat="44.232652" lon="8.2494845"><ele>565.0</ele><time>2026-05-03T13:11:57.148Z</time></trkpt><trkpt lat="44.2325798" lon="8.2494045"><ele>562.3333333333333</ele><time>2026-05-03T13:11:58.148Z</time></trkpt><trkpt lat="44.2325243" lon="8.2493198"><ele>559.6666666666666</ele><time>2026-05-03T13:11:59.148Z</time></trkpt><trkpt lat="44.2324813" lon="8.2492457"><ele>557.0</ele><time>2026-05-03T13:12:00.148Z</time></trkpt><trkpt lat="44.2323728" lon="8.2491892"><ele>555.0</ele><time>2026-05-03T13:12:02.149Z</time></trkpt><trkpt lat="44.2323001" lon="8.2492193"><ele>553.0</ele><time>2026-05-03T13:12:03.148Z</time></trkpt><trkpt lat="44.2322179" lon="8.2492604"><ele>551.0</ele><time>2026-05-03T13:12:04.148Z</time></trkpt><trkpt lat="44.2321354" lon="8.2492984"><ele>549.0</ele><time>2026-05-03T13:12:05.148Z</time></trkpt><trkpt lat="44.2320563" lon="8.2493456"><ele>547.0</ele><time>2026-05-03T13:12:06.148Z</time></trkpt><trkpt lat="44.2319885" lon="8.249433"><ele>545.0</ele><time>2026-05-03T13:12:07.148Z</time></trkpt><trkpt lat="44.2319233" lon="8.2495529"><ele>545.0</ele><time>2026-05-03T13:12:08.148Z</time></trkpt><trkpt lat="44.2318556" lon="8.249695"><ele>545.0</ele><time>2026-05-03T13:12:09.148Z</time></trkpt><trkpt lat="44.2317824" lon="8.2498506"><ele>545.0</ele><time>2026-05-03T13:12:10.149Z</time></trkpt><trkpt lat="44.2316952" lon="8.2499949"><ele>545.0</ele><time>2026-05-03T13:12:11.148Z</time></trkpt><trkpt lat="44.2315923" lon="8.2501251"><ele>543.8333333333333</ele><time>2026-05-03T13:12:12.148Z</time></trkpt><trkpt lat="44.231519" lon="8.2502492"><ele>542.6666666666666</ele><time>2026-05-03T13:12:13.149Z</time></trkpt><trkpt lat="44.2314568" lon="8.2503193"><ele>541.5</ele><time>2026-05-03T13:12:14.148Z</time></trkpt><trkpt lat="44.2313959" lon="8.2503766"><ele>540.3333333333334</ele><time>2026-05-03T13:12:15.148Z</time></trkpt><trkpt lat="44.2313299" lon="8.2503781"><ele>539.1666666666667</ele><time>2026-05-03T13:12:16.149Z</time></trkpt><trkpt lat="44.2312512" lon="8.2503338"><ele>538.0</ele><time>2026-05-03T13:12:17.148Z</time></trkpt><trkpt lat="44.2311926" lon="8.250289"><ele>536.0</ele><time>2026-05-03T13:12:18.148Z</time></trkpt><trkpt lat="44.2311038" lon="8.2501437"><ele>534.0</ele><time>2026-05-03T13:12:20.148Z</time></trkpt><trkpt lat="44.2310872" lon="8.2499534"><ele>532.0</ele><time>2026-05-03T13:12:21.148Z</time></trkpt><trkpt lat="44.2310528" lon="8.2498157"><ele>530.0</ele><time>2026-05-03T13:12:22.148Z</time></trkpt><trkpt lat="44.2310338" lon="8.2496639"><ele>530.0</ele><time>2026-05-03T13:12:23.148Z</time></trkpt><trkpt lat="44.2309718" lon="8.2495162"><ele>530.0</ele><time>2026-05-03T13:12:24.148Z</time></trkpt><trkpt lat="44.2309384" lon="8.2493893"><ele>530.0</ele><time>2026-05-03T13:12:25.148Z</time></trkpt><trkpt lat="44.2308924" lon="8.2492346"><ele>530.0</ele><time>2026-05-03T13:12:26.148Z</time></trkpt><trkpt lat="44.2308483" lon="8.2491121"><ele>530.0</ele><time>2026-05-03T13:12:27.148Z</time></trkpt><trkpt lat="44.2308107" lon="8.2490141"><ele>531.4</ele><time>2026-05-03T13:12:28.149Z</time></trkpt><trkpt lat="44.2307362" lon="8.2489202"><ele>532.8</ele><time>2026-05-03T13:12:29.148Z</time></trkpt><trkpt lat="44.2306658" lon="8.2488534"><ele>534.2</ele><time>2026-05-03T13:12:30.148Z</time></trkpt><trkpt lat="44.2305805" lon="8.2487834"><ele>535.6</ele><time>2026-05-03T13:12:31.148Z</time></trkpt><trkpt lat="44.2304795" lon="8.2488026"><ele>537.0</ele><time>2026-05-03T13:12:32.149Z</time></trkpt><trkpt lat="44.2303713" lon="8.2487849"><ele>533.25</ele><time>2026-05-03T13:12:33.148Z</time></trkpt><trkpt lat="44.2302485" lon="8.2487742"><ele>529.5</ele><time>2026-05-03T13:12:34.148Z</time></trkpt><trkpt lat="44.2301269" lon="8.2487738"><ele>525.75</ele><time>2026-05-03T13:12:35.149Z</time></trkpt><trkpt lat="44.2300107" lon="8.2487587"><ele>522.0</ele><time>2026-05-03T13:12:36.148Z</time></trkpt><trkpt lat="44.2299125" lon="8.2487375"><ele>520.4</ele><time>2026-05-03T13:12:37.148Z</time></trkpt><trkpt lat="44.2298024" lon="8.248727"><ele>518.8000000000001</ele><time>2026-05-03T13:12:38.148Z</time></trkpt><trkpt lat="44.2296946" lon="8.2487194"><ele>517.2</ele><time>2026-05-03T13:12:39.148Z</time></trkpt><trkpt lat="44.2295951" lon="8.2486873"><ele>515.6</ele><time>2026-05-03T13:12:40.148Z</time></trkpt><trkpt lat="44.2294994" lon="8.2486699"><ele>514.0</ele><time>2026-05-03T13:12:41.148Z</time></trkpt><trkpt lat="44.229376" lon="8.2486689"><ele>514.0</ele><time>2026-05-03T13:12:42.149Z</time></trkpt><trkpt lat="44.229262" lon="8.2486415"><ele>514.0</ele><time>2026-05-03T13:12:43.149Z</time></trkpt><trkpt lat="44.229151" lon="8.2486262"><ele>514.0</ele><time>2026-05-03T13:12:44.148Z</time></trkpt><trkpt lat="44.2290655" lon="8.2485997"><ele>514.0</ele><time>2026-05-03T13:12:45.149Z</time></trkpt><trkpt lat="44.2289665" lon="8.2486006"><ele>514.0</ele><time>2026-05-03T13:12:46.149Z</time></trkpt><trkpt lat="44.2288763" lon="8.2485996"><ele>510.50000000000006</ele><time>2026-05-03T13:12:47.148Z</time></trkpt><trkpt lat="44.2287856" lon="8.2485941"><ele>507.0</ele><time>2026-05-03T13:12:48.149Z</time></trkpt><trkpt lat="44.228682" lon="8.2485868"><ele>503.5</ele><time>2026-05-03T13:12:49.148Z</time></trkpt><trkpt lat="44.2285995" lon="8.2485815"><ele>500.0</ele><time>2026-05-03T13:12:50.148Z</time></trkpt><trkpt lat="44.228512" lon="8.2485534"><ele>496.50000000000006</ele><time>2026-05-03T13:12:51.148Z</time></trkpt><trkpt lat="44.2284445" lon="8.2485233"><ele>493.0</ele><time>2026-05-03T13:12:52.148Z</time></trkpt><trkpt lat="44.2283857" lon="8.2484792"><ele>493.0</ele><time>2026-05-03T13:12:53.148Z</time></trkpt><trkpt lat="44.2283218" lon="8.2484399"><ele>492.99999999999994</ele><time>2026-05-03T13:12:54.148Z</time></trkpt><trkpt lat="44.2282515" lon="8.2485382"><ele>492.99999999999994</ele><time>2026-05-03T13:12:56.148Z</time></trkpt><trkpt lat="44.2282612" lon="8.2486719"><ele>493.0</ele><time>2026-05-03T13:12:58.148Z</time></trkpt><trkpt lat="44.2283898" lon="8.2487982"><ele>493.0</ele><time>2026-05-03T13:13:00.148Z</time></trkpt><trkpt lat="44.2284896" lon="8.2489099"><ele>492.33333333333337</ele><time>2026-05-03T13:13:01.149Z</time></trkpt><trkpt lat="44.2285623" lon="8.2489983"><ele>491.6666666666667</ele><time>2026-05-03T13:13:02.148Z</time></trkpt><trkpt lat="44.2286252" lon="8.2490982"><ele>491.0</ele><time>2026-05-03T13:13:03.149Z</time></trkpt><trkpt lat="44.2286728" lon="8.2491984"><ele>490.33333333333337</ele><time>2026-05-03T13:13:04.148Z</time></trkpt><trkpt lat="44.2287105" lon="8.2493076"><ele>489.6666666666667</ele><time>2026-05-03T13:13:05.148Z</time></trkpt><trkpt lat="44.2287576" lon="8.2493798"><ele>489.0</ele><time>2026-05-03T13:13:06.148Z</time></trkpt><trkpt lat="44.2288259" lon="8.2494267"><ele>489.0</ele><time>2026-05-03T13:13:07.148Z</time></trkpt><trkpt lat="44.228902" lon="8.2494712"><ele>489.0</ele><time>2026-05-03T13:13:08.148Z</time></trkpt><trkpt lat="44.2290058" lon="8.2495632"><ele>489.0</ele><time>2026-05-03T13:13:09.148Z</time></trkpt><trkpt lat="44.2290771" lon="8.2496323"><ele>489.0</ele><time>2026-05-03T13:13:10.148Z</time></trkpt><trkpt lat="44.229136" lon="8.2497101"><ele>489.0</ele><time>2026-05-03T13:13:11.148Z</time></trkpt><trkpt lat="44.2291945" lon="8.2497822"><ele>489.4</ele><time>2026-05-03T13:13:12.148Z</time></trkpt><trkpt lat="44.2292259" lon="8.2498915"><ele>489.79999999999995</ele><time>2026-05-03T13:13:13.148Z</time></trkpt><trkpt lat="44.2292563" lon="8.2499915"><ele>490.20000000000005</ele><time>2026-05-03T13:13:14.149Z</time></trkpt><trkpt lat="44.229266" lon="8.2501268"><ele>490.6</ele><time>2026-05-03T13:13:15.148Z</time></trkpt><trkpt lat="44.2292864" lon="8.2502708"><ele>491.0</ele><time>2026-05-03T13:13:16.148Z</time></trkpt><trkpt lat="44.2293203" lon="8.2504308"><ele>491.0</ele><time>2026-05-03T13:13:17.148Z</time></trkpt><trkpt lat="44.2293348" lon="8.2505588"><ele>491.0</ele><time>2026-05-03T13:13:18.148Z</time></trkpt><trkpt lat="44.2293827" lon="8.2506851"><ele>491.0</ele><time>2026-05-03T13:13:19.149Z</time></trkpt><trkpt lat="44.2294102" lon="8.2508173"><ele>491.0</ele><time>2026-05-03T13:13:20.148Z</time></trkpt><trkpt lat="44.2294677" lon="8.2509254"><ele>491.0</ele><time>2026-05-03T13:13:21.149Z</time></trkpt><trkpt lat="44.2294918" lon="8.2510297"><ele>488.6</ele><time>2026-05-03T13:13:22.148Z</time></trkpt><trkpt lat="44.2295357" lon="8.2511448"><ele>486.20000000000005</ele><time>2026-05-03T13:13:23.148Z</time></trkpt><trkpt lat="44.2295743" lon="8.251311"><ele>483.79999999999995</ele><time>2026-05-03T13:13:25.148Z</time></trkpt><trkpt lat="44.2295434" lon="8.2514366"><ele>481.4</ele><time>2026-05-03T13:13:27.148Z</time></trkpt><trkpt lat="44.2294664" lon="8.2514191"><ele>479.0</ele><time>2026-05-03T13:13:29.148Z</time></trkpt><trkpt lat="44.2294042" lon="8.2512814"><ele>479.0</ele><time>2026-05-03T13:13:31.149Z</time></trkpt><trkpt lat="44.2293705" lon="8.2511969"><ele>479.0</ele><time>2026-05-03T13:13:32.148Z</time></trkpt><trkpt lat="44.2292679" lon="8.2511473"><ele>479.0</ele><time>2026-05-03T13:13:34.148Z</time></trkpt><trkpt lat="44.2291487" lon="8.2511722"><ele>479.0</ele><time>2026-05-03T13:13:35.148Z</time></trkpt><trkpt lat="44.2290365" lon="8.2512022"><ele>479.0</ele><time>2026-05-03T13:13:36.148Z</time></trkpt><trkpt lat="44.2289456" lon="8.2512388"><ele>475.4</ele><time>2026-05-03T13:13:37.148Z</time></trkpt><trkpt lat="44.2288771" lon="8.2512906"><ele>471.79999999999995</ele><time>2026-05-03T13:13:38.149Z</time></trkpt><trkpt lat="44.2287842" lon="8.2513377"><ele>468.20000000000005</ele><time>2026-05-03T13:13:39.148Z</time></trkpt><trkpt lat="44.2286808" lon="8.2514035"><ele>464.6</ele><time>2026-05-03T13:13:40.148Z</time></trkpt><trkpt lat="44.2285951" lon="8.2514613"><ele>461.0</ele><time>2026-05-03T13:13:41.148Z</time></trkpt><trkpt lat="44.2285332" lon="8.2515366"><ele>459.66666666666663</ele><time>2026-05-03T13:13:42.148Z</time></trkpt><trkpt lat="44.2284793" lon="8.2516362"><ele>458.3333333333333</ele><time>2026-05-03T13:13:43.148Z</time></trkpt><trkpt lat="44.2284297" lon="8.2517071"><ele>457.0</ele><time>2026-05-03T13:13:44.148Z</time></trkpt><trkpt lat="44.2283526" lon="8.2517322"><ele>455.66666666666663</ele><time>2026-05-03T13:13:45.148Z</time></trkpt><trkpt lat="44.2282837" lon="8.2517304"><ele>454.3333333333333</ele><time>2026-05-03T13:13:46.148Z</time></trkpt><trkpt lat="44.228209" lon="8.251698"><ele>453.0</ele><time>2026-05-03T13:13:47.148Z</time></trkpt><trkpt lat="44.2281382" lon="8.2516354"><ele>449.5</ele><time>2026-05-03T13:13:48.148Z</time></trkpt><trkpt lat="44.2280909" lon="8.2515766"><ele>446.0</ele><time>2026-05-03T13:13:49.148Z</time></trkpt><trkpt lat="44.2279989" lon="8.2515126"><ele>442.5</ele><time>2026-05-03T13:13:51.148Z</time></trkpt><trkpt lat="44.2279163" lon="8.2515497"><ele>439.0</ele><time>2026-05-03T13:13:53.148Z</time></trkpt><trkpt lat="44.2279262" lon="8.2516754"><ele>435.5</ele><time>2026-05-03T13:13:55.148Z</time></trkpt><trkpt lat="44.2279644" lon="8.251778"><ele>432.0</ele><time>2026-05-03T13:13:56.148Z</time></trkpt><trkpt lat="44.2280139" lon="8.251876"><ele>432.0</ele><time>2026-05-03T13:13:57.148Z</time></trkpt><trkpt lat="44.2280605" lon="8.2519948"><ele>432.00000000000006</ele><time>2026-05-03T13:13:58.148Z</time></trkpt><trkpt lat="44.2280992" lon="8.2521205"><ele>432.00000000000006</ele><time>2026-05-03T13:13:59.148Z</time></trkpt><trkpt lat="44.2281414" lon="8.2522377"><ele>432.0</ele><time>2026-05-03T13:14:00.148Z</time></trkpt><trkpt lat="44.2281738" lon="8.2523499"><ele>432.0</ele><time>2026-05-03T13:14:01.148Z</time></trkpt><trkpt lat="44.2282238" lon="8.2524286"><ele>432.5</ele><time>2026-05-03T13:14:02.148Z</time></trkpt><trkpt lat="44.2283133" lon="8.2524486"><ele>433.0</ele><time>2026-05-03T13:14:03.148Z</time></trkpt><trkpt lat="44.2283818" lon="8.2524905"><ele>433.5</ele><time>2026-05-03T13:14:04.148Z</time></trkpt><trkpt lat="44.2284484" lon="8.2524682"><ele>434.0</ele><time>2026-05-03T13:14:05.148Z</time></trkpt><trkpt lat="44.2285405" lon="8.2524889"><ele>434.5</ele><time>2026-05-03T13:14:06.148Z</time></trkpt><trkpt lat="44.2286137" lon="8.2525025"><ele>435.0</ele><time>2026-05-03T13:14:07.148Z</time></trkpt><trkpt lat="44.2286476" lon="8.2523815"><ele>435.0</ele><time>2026-05-03T13:14:08.148Z</time></trkpt><trkpt lat="44.2287394" lon="8.2522882"><ele>435.0</ele><time>2026-05-03T13:14:10.148Z</time></trkpt><trkpt lat="44.2288814" lon="8.2524667"><ele>435.0</ele><time>2026-05-03T13:14:14.149Z</time></trkpt><trkpt lat="44.2288182" lon="8.2527372"><ele>435.0</ele><time>2026-05-03T13:14:16.148Z</time></trkpt><trkpt lat="44.2288039" lon="8.2529033"><ele>435.0</ele><time>2026-05-03T13:14:17.149Z</time></trkpt><trkpt lat="44.2287418" lon="8.2529623"><ele>435.0</ele><time>2026-05-03T13:14:18.149Z</time></trkpt><trkpt lat="44.2286589" lon="8.2530235"><ele>435.0</ele><time>2026-05-03T13:14:19.148Z</time></trkpt><trkpt lat="44.228574" lon="8.2530923"><ele>435.0</ele><time>2026-05-03T13:14:20.148Z</time></trkpt><trkpt lat="44.2284729" lon="8.253168"><ele>433.4</ele><time>2026-05-03T13:14:21.148Z</time></trkpt><trkpt lat="44.2283933" lon="8.2532453"><ele>431.8</ele><time>2026-05-03T13:14:22.149Z</time></trkpt><trkpt lat="44.2282929" lon="8.253306"><ele>430.20000000000005</ele><time>2026-05-03T13:14:23.148Z</time></trkpt><trkpt lat="44.2282028" lon="8.2534248"><ele>428.6</ele><time>2026-05-03T13:14:24.149Z</time></trkpt><trkpt lat="44.2281204" lon="8.2535077"><ele>427.0</ele><time>2026-05-03T13:14:25.149Z</time></trkpt><trkpt lat="44.2280469" lon="8.2535827"><ele>421.8</ele><time>2026-05-03T13:14:26.148Z</time></trkpt><trkpt lat="44.2279751" lon="8.2536639"><ele>416.6</ele><time>2026-05-03T13:14:27.149Z</time></trkpt><trkpt lat="44.2278894" lon="8.2537371"><ele>411.40000000000003</ele><time>2026-05-03T13:14:28.15Z</time></trkpt><trkpt lat="44.2278053" lon="8.2538149"><ele>406.20000000000005</ele><time>2026-05-03T13:14:29.148Z</time></trkpt><trkpt lat="44.2277441" lon="8.2538921"><ele>401.0</ele><time>2026-05-03T13:14:30.148Z</time></trkpt><trkpt lat="44.2276767" lon="8.2539673"><ele>400.6</ele><time>2026-05-03T13:14:31.148Z</time></trkpt><trkpt lat="44.2276479" lon="8.2540898"><ele>400.20000000000005</ele><time>2026-05-03T13:14:32.149Z</time></trkpt><trkpt lat="44.2276001" lon="8.2541967"><ele>399.79999999999995</ele><time>2026-05-03T13:14:33.148Z</time></trkpt><trkpt lat="44.2275762" lon="8.2543618"><ele>399.4</ele><time>2026-05-03T13:14:34.148Z</time></trkpt><trkpt lat="44.227546" lon="8.2545014"><ele>399.0</ele><time>2026-05-03T13:14:35.148Z</time></trkpt><trkpt lat="44.2275299" lon="8.2546547"><ele>400.4</ele><time>2026-05-03T13:14:36.148Z</time></trkpt><trkpt lat="44.2274998" lon="8.2547878"><ele>401.79999999999995</ele><time>2026-05-03T13:14:37.148Z</time></trkpt><trkpt lat="44.2274721" lon="8.2549174"><ele>403.20000000000005</ele><time>2026-05-03T13:14:38.149Z</time></trkpt><trkpt lat="44.2274307" lon="8.2550715"><ele>404.6</ele><time>2026-05-03T13:14:40.149Z</time></trkpt><trkpt lat="44.2273588" lon="8.2551499"><ele>406.0</ele><time>2026-05-03T13:14:42.148Z</time></trkpt><trkpt lat="44.227301" lon="8.2550631"><ele>406.00000000000006</ele><time>2026-05-03T13:14:45.148Z</time></trkpt><trkpt lat="44.2273243" lon="8.2548834"><ele>406.0</ele><time>2026-05-03T13:14:47.148Z</time></trkpt><trkpt lat="44.2273612" lon="8.2547867"><ele>406.0</ele><time>2026-05-03T13:14:48.148Z</time></trkpt><trkpt lat="44.2273941" lon="8.2546905"><ele>406.0</ele><time>2026-05-03T13:14:49.148Z</time></trkpt><trkpt lat="44.227426" lon="8.2546006"><ele>406.00000000000006</ele><time>2026-05-03T13:14:50.148Z</time></trkpt><trkpt lat="44.227379" lon="8.2545043"><ele>406.0</ele><time>2026-05-03T13:14:52.148Z</time></trkpt><trkpt lat="44.2273168" lon="8.2545796"><ele>397.8</ele><time>2026-05-03T13:14:54.148Z</time></trkpt><trkpt lat="44.2272579" lon="8.254722"><ele>389.6</ele><time>2026-05-03T13:14:55.148Z</time></trkpt><trkpt lat="44.2272102" lon="8.2548385"><ele>381.4</ele><time>2026-05-03T13:14:56.148Z</time></trkpt><trkpt lat="44.2271454" lon="8.254944"><ele>373.2</ele><time>2026-05-03T13:14:57.148Z</time></trkpt><trkpt lat="44.2271145" lon="8.2550392"><ele>365.0</ele><time>2026-05-03T13:14:58.148Z</time></trkpt><trkpt lat="44.2270648" lon="8.2551425"><ele>365.0</ele><time>2026-05-03T13:14:59.149Z</time></trkpt><trkpt lat="44.2270105" lon="8.2552416"><ele>365.0</ele><time>2026-05-03T13:15:00.148Z</time></trkpt><trkpt lat="44.2269588" lon="8.255319"><ele>365.0</ele><time>2026-05-03T13:15:01.148Z</time></trkpt><trkpt lat="44.2268982" lon="8.2553785"><ele>365.0</ele><time>2026-05-03T13:15:02.149Z</time></trkpt><trkpt lat="44.2267878" lon="8.2554837"><ele>365.0</ele><time>2026-05-03T13:15:04.146Z</time></trkpt><trkpt lat="44.2267272" lon="8.2555801"><ele>366.83333333333337</ele><time>2026-05-03T13:15:05.148Z</time></trkpt><trkpt lat="44.2266731" lon="8.2556706"><ele>368.6666666666667</ele><time>2026-05-03T13:15:06.148Z</time></trkpt><trkpt lat="44.226607" lon="8.2557736"><ele>370.5</ele><time>2026-05-03T13:15:07.148Z</time></trkpt><trkpt lat="44.2265456" lon="8.2558635"><ele>372.3333333333333</ele><time>2026-05-03T13:15:08.149Z</time></trkpt><trkpt lat="44.2265038" lon="8.2559344"><ele>374.16666666666663</ele><time>2026-05-03T13:15:09.148Z</time></trkpt><trkpt lat="44.2264354" lon="8.2560441"><ele>376.0</ele><time>2026-05-03T13:15:11.148Z</time></trkpt><trkpt lat="44.2263844" lon="8.2561387"><ele>375.85714285714283</ele><time>2026-05-03T13:15:52.148Z</time></trkpt><trkpt lat="44.2263882" lon="8.2562402"><ele>375.71428571428567</ele><time>2026-05-03T13:17:05.149Z</time></trkpt><trkpt lat="44.226428" lon="8.2563186"><ele>375.57142857142856</ele><time>2026-05-03T13:17:06.148Z</time></trkpt><trkpt lat="44.2264692" lon="8.2564015"><ele>375.42857142857144</ele><time>2026-05-03T13:17:07.148Z</time></trkpt><trkpt lat="44.2265209" lon="8.256484"><ele>375.2857142857143</ele><time>2026-05-03T13:17:08.149Z</time></trkpt><trkpt lat="44.2265706" lon="8.2565687"><ele>375.14285714285717</ele><time>2026-05-03T13:17:09.148Z</time></trkpt><trkpt lat="44.2266107" lon="8.2566615"><ele>375.0</ele><time>2026-05-03T13:17:10.148Z</time></trkpt><trkpt lat="44.2266419" lon="8.2567552"><ele>375.0</ele><time>2026-05-03T13:17:11.148Z</time></trkpt><trkpt lat="44.2266628" lon="8.256855"><ele>375.0</ele><time>2026-05-03T13:17:12.148Z</time></trkpt><trkpt lat="44.2266939" lon="8.2569516"><ele>375.0</ele><time>2026-05-03T13:17:13.148Z</time></trkpt><trkpt lat="44.2267249" lon="8.2570498"><ele>375.0</ele><time>2026-05-03T13:17:14.148Z</time></trkpt><trkpt lat="44.226762" lon="8.2571366"><ele>375.0</ele><time>2026-05-03T13:17:15.148Z</time></trkpt><trkpt lat="44.2268238" lon="8.2571974"><ele>375.0</ele><time>2026-05-03T13:17:16.148Z</time></trkpt><trkpt lat="44.2268886" lon="8.2572353"><ele>375.0</ele><time>2026-05-03T13:17:17.148Z</time></trkpt><trkpt lat="44.2270088" lon="8.2572656"><ele>373.8333333333333</ele><time>2026-05-03T13:17:19.148Z</time></trkpt><trkpt lat="44.2270701" lon="8.2572896"><ele>372.6666666666667</ele><time>2026-05-03T13:17:20.148Z</time></trkpt><trkpt lat="44.2271414" lon="8.2573276"><ele>371.5</ele><time>2026-05-03T13:17:21.148Z</time></trkpt><trkpt lat="44.2272048" lon="8.2573763"><ele>370.33333333333337</ele><time>2026-05-03T13:17:22.148Z</time></trkpt><trkpt lat="44.2272722" lon="8.257427"><ele>369.1666666666667</ele><time>2026-05-03T13:17:23.148Z</time></trkpt><trkpt lat="44.2273992" lon="8.2574316"><ele>368.0</ele><time>2026-05-03T13:17:25.148Z</time></trkpt><trkpt lat="44.2274611" lon="8.2574072"><ele>368.0</ele><time>2026-05-03T13:17:26.148Z</time></trkpt><trkpt lat="44.2275387" lon="8.2573029"><ele>368.0</ele><time>2026-05-03T13:17:28.148Z</time></trkpt><trkpt lat="44.2276527" lon="8.2572631"><ele>368.0</ele><time>2026-05-03T13:17:30.148Z</time></trkpt><trkpt lat="44.2277218" lon="8.2572726"><ele>368.0</ele><time>2026-05-03T13:17:31.149Z</time></trkpt><trkpt lat="44.2277944" lon="8.257266"><ele>368.0</ele><time>2026-05-03T13:17:32.148Z</time></trkpt><trkpt lat="44.2278745" lon="8.2572919"><ele>368.0</ele><time>2026-05-03T13:17:33.148Z</time></trkpt><trkpt lat="44.2279527" lon="8.2573183"><ele>368.0</ele><time>2026-05-03T13:17:34.148Z</time></trkpt><trkpt lat="44.2280432" lon="8.2573407"><ele>368.0</ele><time>2026-05-03T13:17:35.149Z</time></trkpt><trkpt lat="44.2281349" lon="8.2573672"><ele>368.0</ele><time>2026-05-03T13:17:36.149Z</time></trkpt><trkpt lat="44.2282257" lon="8.2573996"><ele>368.0</ele><time>2026-05-03T13:17:37.148Z</time></trkpt><trkpt lat="44.2283065" lon="8.2574568"><ele>368.6666666666667</ele><time>2026-05-03T13:17:38.148Z</time></trkpt><trkpt lat="44.2283791" lon="8.2575182"><ele>369.33333333333337</ele><time>2026-05-03T13:17:39.149Z</time></trkpt><trkpt lat="44.2284489" lon="8.2575818"><ele>370.0</ele><time>2026-05-03T13:17:40.148Z</time></trkpt><trkpt lat="44.2285145" lon="8.2576638"><ele>370.6666666666667</ele><time>2026-05-03T13:17:41.148Z</time></trkpt><trkpt lat="44.2285776" lon="8.2577501"><ele>371.3333333333333</ele><time>2026-05-03T13:17:42.148Z</time></trkpt><trkpt lat="44.2286237" lon="8.2578377"><ele>372.0</ele><time>2026-05-03T13:17:43.149Z</time></trkpt><trkpt lat="44.2286742" lon="8.2579449"><ele>372.0</ele><time>2026-05-03T13:17:44.148Z</time></trkpt><trkpt lat="44.2287285" lon="8.2580323"><ele>372.0</ele><time>2026-05-03T13:17:45.148Z</time></trkpt><trkpt lat="44.228784" lon="8.2581022"><ele>372.0</ele><time>2026-05-03T13:17:46.149Z</time></trkpt><trkpt lat="44.2288655" lon="8.2581536"><ele>372.0</ele><time>2026-05-03T13:17:47.148Z</time></trkpt><trkpt lat="44.2289448" lon="8.2581992"><ele>372.0</ele><time>2026-05-03T13:17:48.148Z</time></trkpt><trkpt lat="44.2290253" lon="8.2582377"><ele>372.0</ele><time>2026-05-03T13:17:49.149Z</time></trkpt><trkpt lat="44.2291217" lon="8.2582501"><ele>369.8333333333333</ele><time>2026-05-03T13:17:50.148Z</time></trkpt><trkpt lat="44.2292108" lon="8.2582294"><ele>367.6666666666667</ele><time>2026-05-03T13:17:51.148Z</time></trkpt><trkpt lat="44.2292995" lon="8.2581907"><ele>365.5</ele><time>2026-05-03T13:17:52.148Z</time></trkpt><trkpt lat="44.2293902" lon="8.2581444"><ele>363.33333333333337</ele><time>2026-05-03T13:17:53.149Z</time></trkpt><trkpt lat="44.2294738" lon="8.258116"><ele>361.1666666666667</ele><time>2026-05-03T13:17:54.148Z</time></trkpt><trkpt lat="44.2295516" lon="8.2580874"><ele>359.0</ele><time>2026-05-03T13:17:55.148Z</time></trkpt><trkpt lat="44.2296294" lon="8.25811"><ele>359.0</ele><time>2026-05-03T13:17:56.148Z</time></trkpt><trkpt lat="44.2297025" lon="8.2581679"><ele>359.0</ele><time>2026-05-03T13:17:57.148Z</time></trkpt><trkpt lat="44.2297804" lon="8.2582327"><ele>359.0</ele><time>2026-05-03T13:17:58.148Z</time></trkpt><trkpt lat="44.2298463" lon="8.258289"><ele>359.0</ele><time>2026-05-03T13:17:59.149Z</time></trkpt><trkpt lat="44.2298785" lon="8.2583725"><ele>359.0</ele><time>2026-05-03T13:18:00.148Z</time></trkpt><trkpt lat="44.2298708" lon="8.2584671"><ele>359.0</ele><time>2026-05-03T13:18:01.148Z</time></trkpt><trkpt lat="44.2298561" lon="8.2585619"><ele>359.79999999999995</ele><time>2026-05-03T13:18:02.148Z</time></trkpt><trkpt lat="44.2298519" lon="8.2586918"><ele>360.59999999999997</ele><time>2026-05-03T13:18:03.148Z</time></trkpt><trkpt lat="44.2298845" lon="8.2588158"><ele>361.4</ele><time>2026-05-03T13:18:04.148Z</time></trkpt><trkpt lat="44.2299353" lon="8.2589372"><ele>362.2</ele><time>2026-05-03T13:18:05.148Z</time></trkpt><trkpt lat="44.229992" lon="8.2590575"><ele>363.0</ele><time>2026-05-03T13:18:06.149Z</time></trkpt><trkpt lat="44.2300262" lon="8.2592076"><ele>363.0</ele><time>2026-05-03T13:18:07.148Z</time></trkpt><trkpt lat="44.2300558" lon="8.2593567"><ele>363.0</ele><time>2026-05-03T13:18:08.148Z</time></trkpt><trkpt lat="44.230093" lon="8.2594839"><ele>363.0</ele><time>2026-05-03T13:18:09.148Z</time></trkpt><trkpt lat="44.2301398" lon="8.2595983"><ele>363.0</ele><time>2026-05-03T13:18:10.148Z</time></trkpt><trkpt lat="44.2301777" lon="8.2597012"><ele>363.0</ele><time>2026-05-03T13:18:11.148Z</time></trkpt><trkpt lat="44.2301962" lon="8.259797"><ele>362.1666666666667</ele><time>2026-05-03T13:18:12.149Z</time></trkpt><trkpt lat="44.2301796" lon="8.2598914"><ele>361.3333333333333</ele><time>2026-05-03T13:18:13.148Z</time></trkpt><trkpt lat="44.2301473" lon="8.2599779"><ele>360.5</ele><time>2026-05-03T13:18:14.149Z</time></trkpt><trkpt lat="44.2301118" lon="8.2600743"><ele>359.66666666666663</ele><time>2026-05-03T13:18:15.148Z</time></trkpt><trkpt lat="44.2300646" lon="8.2601726"><ele>358.8333333333333</ele><time>2026-05-03T13:18:16.148Z</time></trkpt><trkpt lat="44.2299967" lon="8.2602456"><ele>358.0</ele><time>2026-05-03T13:18:17.148Z</time></trkpt><trkpt lat="44.2299096" lon="8.2602823"><ele>358.0</ele><time>2026-05-03T13:18:18.148Z</time></trkpt><trkpt lat="44.229818" lon="8.2602745"><ele>358.0</ele><time>2026-05-03T13:18:19.148Z</time></trkpt><trkpt lat="44.2297191" lon="8.2602279"><ele>358.0</ele><time>2026-05-03T13:18:20.148Z</time></trkpt><trkpt lat="44.2296157" lon="8.2601631"><ele>358.0</ele><time>2026-05-03T13:18:21.148Z</time></trkpt><trkpt lat="44.2295069" lon="8.2601143"><ele>358.0</ele><time>2026-05-03T13:18:22.149Z</time></trkpt><trkpt lat="44.2293899" lon="8.260109"><ele>356.59999999999997</ele><time>2026-05-03T13:18:23.148Z</time></trkpt><trkpt lat="44.2292879" lon="8.260111"><ele>355.2</ele><time>2026-05-03T13:18:24.148Z</time></trkpt><trkpt lat="44.2291775" lon="8.2601014"><ele>353.8</ele><time>2026-05-03T13:18:25.148Z</time></trkpt><trkpt lat="44.2290775" lon="8.2600863"><ele>352.4</ele><time>2026-05-03T13:18:26.148Z</time></trkpt><trkpt lat="44.2289828" lon="8.2600452"><ele>351.0</ele><time>2026-05-03T13:18:27.148Z</time></trkpt><trkpt lat="44.2288922" lon="8.2600026"><ele>348.6</ele><time>2026-05-03T13:18:28.148Z</time></trkpt><trkpt lat="44.2288182" lon="8.2599514"><ele>346.20000000000005</ele><time>2026-05-03T13:18:29.148Z</time></trkpt><trkpt lat="44.2287267" lon="8.259918"><ele>343.79999999999995</ele><time>2026-05-03T13:18:30.148Z</time></trkpt><trkpt lat="44.2286282" lon="8.2598734"><ele>341.4</ele><time>2026-05-03T13:18:31.148Z</time></trkpt><trkpt lat="44.2285397" lon="8.2598214"><ele>339.0</ele><time>2026-05-03T13:18:32.149Z</time></trkpt><trkpt lat="44.2284586" lon="8.2597591"><ele>339.0</ele><time>2026-05-03T13:18:33.148Z</time></trkpt><trkpt lat="44.2283774" lon="8.2596597"><ele>339.0</ele><time>2026-05-03T13:18:34.148Z</time></trkpt><trkpt lat="44.2282912" lon="8.259582"><ele>339.0</ele><time>2026-05-03T13:18:35.149Z</time></trkpt><trkpt lat="44.2281831" lon="8.2594954"><ele>339.0</ele><time>2026-05-03T13:18:36.149Z</time></trkpt><trkpt lat="44.2280751" lon="8.2594211"><ele>339.6</ele><time>2026-05-03T13:18:37.149Z</time></trkpt><trkpt lat="44.2279703" lon="8.2593347"><ele>340.2</ele><time>2026-05-03T13:18:38.149Z</time></trkpt><trkpt lat="44.2278605" lon="8.2593229"><ele>340.8</ele><time>2026-05-03T13:18:39.148Z</time></trkpt><trkpt lat="44.2277507" lon="8.2592903"><ele>341.40000000000003</ele><time>2026-05-03T13:18:40.148Z</time></trkpt><trkpt lat="44.2276552" lon="8.2592956"><ele>342.0</ele><time>2026-05-03T13:18:41.149Z</time></trkpt><trkpt lat="44.227551" lon="8.2592968"><ele>342.0</ele><time>2026-05-03T13:18:42.148Z</time></trkpt><trkpt lat="44.2274584" lon="8.2593092"><ele>342.0</ele><time>2026-05-03T13:18:43.149Z</time></trkpt><trkpt lat="44.227361" lon="8.2593279"><ele>342.0</ele><time>2026-05-03T13:18:44.149Z</time></trkpt><trkpt lat="44.2272733" lon="8.2593461"><ele>342.0</ele><time>2026-05-03T13:18:45.148Z</time></trkpt><trkpt lat="44.227202" lon="8.2594719"><ele>342.0</ele><time>2026-05-03T13:18:46.148Z</time></trkpt><trkpt lat="44.2271165" lon="8.2595479"><ele>342.40000000000003</ele><time>2026-05-03T13:18:47.148Z</time></trkpt><trkpt lat="44.2270307" lon="8.2596403"><ele>342.8</ele><time>2026-05-03T13:18:48.148Z</time></trkpt><trkpt lat="44.2269383" lon="8.2597322"><ele>343.2</ele><time>2026-05-03T13:18:49.148Z</time></trkpt><trkpt lat="44.226858" lon="8.2598304"><ele>343.6</ele><time>2026-05-03T13:18:50.149Z</time></trkpt><trkpt lat="44.2267787" lon="8.2599209"><ele>344.0</ele><time>2026-05-03T13:18:51.149Z</time></trkpt><trkpt lat="44.226705" lon="8.2600085"><ele>344.0</ele><time>2026-05-03T13:18:52.148Z</time></trkpt><trkpt lat="44.226649" lon="8.2600946"><ele>344.0</ele><time>2026-05-03T13:18:53.148Z</time></trkpt><trkpt lat="44.2266072" lon="8.2601991"><ele>344.0</ele><time>2026-05-03T13:18:54.148Z</time></trkpt><trkpt lat="44.2265746" lon="8.2603259"><ele>344.0</ele><time>2026-05-03T13:18:55.148Z</time></trkpt><trkpt lat="44.2265491" lon="8.2604595"><ele>344.0</ele><time>2026-05-03T13:18:56.149Z</time></trkpt><trkpt lat="44.22652" lon="8.2605934"><ele>346.6</ele><time>2026-05-03T13:18:57.148Z</time></trkpt><trkpt lat="44.226493" lon="8.2607252"><ele>349.2</ele><time>2026-05-03T13:18:58.149Z</time></trkpt><trkpt lat="44.2264707" lon="8.2608545"><ele>351.8</ele><time>2026-05-03T13:18:59.148Z</time></trkpt><trkpt lat="44.2264504" lon="8.2609662"><ele>354.40000000000003</ele><time>2026-05-03T13:19:00.148Z</time></trkpt><trkpt lat="44.2264398" lon="8.2611339"><ele>357.0</ele><time>2026-05-03T13:19:02.148Z</time></trkpt><trkpt lat="44.2264635" lon="8.261227"><ele>351.8</ele><time>2026-05-03T13:19:03.149Z</time></trkpt><trkpt lat="44.2264723" lon="8.2613497"><ele>346.6</ele><time>2026-05-03T13:19:04.148Z</time></trkpt><trkpt lat="44.2264552" lon="8.2614995"><ele>341.40000000000003</ele><time>2026-05-03T13:19:05.148Z</time></trkpt><trkpt lat="44.2264362" lon="8.2616519"><ele>336.20000000000005</ele><time>2026-05-03T13:19:06.148Z</time></trkpt><trkpt lat="44.2264303" lon="8.261787"><ele>331.0</ele><time>2026-05-03T13:19:07.148Z</time></trkpt><trkpt lat="44.2264388" lon="8.2619126"><ele>331.0</ele><time>2026-05-03T13:19:08.148Z</time></trkpt><trkpt lat="44.2264591" lon="8.2620349"><ele>331.0</ele><time>2026-05-03T13:19:09.148Z</time></trkpt><trkpt lat="44.2264594" lon="8.2621637"><ele>331.0</ele><time>2026-05-03T13:19:10.148Z</time></trkpt><trkpt lat="44.2264295" lon="8.2623006"><ele>331.0</ele><time>2026-05-03T13:19:11.148Z</time></trkpt><trkpt lat="44.2263834" lon="8.2624391"><ele>331.0</ele><time>2026-05-03T13:19:12.148Z</time></trkpt><trkpt lat="44.2263278" lon="8.262566"><ele>333.66666666666663</ele><time>2026-05-03T13:19:13.148Z</time></trkpt><trkpt lat="44.2262721" lon="8.2626728"><ele>336.3333333333333</ele><time>2026-05-03T13:19:14.149Z</time></trkpt><trkpt lat="44.2262135" lon="8.2627613"><ele>339.0</ele><time>2026-05-03T13:19:15.148Z</time></trkpt><trkpt lat="44.2261568" lon="8.2628447"><ele>341.6666666666667</ele><time>2026-05-03T13:19:16.149Z</time></trkpt><trkpt lat="44.2261077" lon="8.2629257"><ele>344.33333333333337</ele><time>2026-05-03T13:19:17.15Z</time></trkpt><trkpt lat="44.2260785" lon="8.2630554"><ele>347.0</ele><time>2026-05-03T13:19:19.149Z</time></trkpt><trkpt lat="44.2261569" lon="8.2631442"><ele>349.40000000000003</ele><time>2026-05-03T13:19:21.15Z</time></trkpt><trkpt lat="44.2262396" lon="8.2631945"><ele>351.8</ele><time>2026-05-03T13:19:23.149Z</time></trkpt><trkpt lat="44.2262521" lon="8.2633911"><ele>354.2</ele><time>2026-05-03T13:19:25.149Z</time></trkpt><trkpt lat="44.2262369" lon="8.2635177"><ele>356.6</ele><time>2026-05-03T13:19:26.149Z</time></trkpt><trkpt lat="44.2262373" lon="8.2636346"><ele>359.0</ele><time>2026-05-03T13:19:27.15Z</time></trkpt><trkpt lat="44.22624" lon="8.2637619"><ele>359.0</ele><time>2026-05-03T13:19:28.149Z</time></trkpt><trkpt lat="44.2262516" lon="8.2638716"><ele>359.0</ele><time>2026-05-03T13:19:29.149Z</time></trkpt><trkpt lat="44.2263531" lon="8.2639746"><ele>359.0</ele><time>2026-05-03T13:19:31.149Z</time></trkpt><trkpt lat="44.2264298" lon="8.2639869"><ele>359.0</ele><time>2026-05-03T13:19:32.15Z</time></trkpt><trkpt lat="44.226505" lon="8.2640152"><ele>359.0</ele><time>2026-05-03T13:19:33.149Z</time></trkpt><trkpt lat="44.2265659" lon="8.2640755"><ele>359.0</ele><time>2026-05-03T13:19:34.149Z</time></trkpt><trkpt lat="44.2266143" lon="8.2641412"><ele>363.4</ele><time>2026-05-03T13:19:35.149Z</time></trkpt><trkpt lat="44.2266756" lon="8.2642213"><ele>367.79999999999995</ele><time>2026-05-03T13:19:37.149Z</time></trkpt><trkpt lat="44.226748" lon="8.2642503"><ele>372.20000000000005</ele><time>2026-05-03T13:19:39.149Z</time></trkpt><trkpt lat="44.2268381" lon="8.2641207"><ele>376.6</ele><time>2026-05-03T13:19:41.149Z</time></trkpt><trkpt lat="44.2268617" lon="8.264013"><ele>381.0</ele><time>2026-05-03T13:19:42.149Z</time></trkpt><trkpt lat="44.2268747" lon="8.2638843"><ele>381.0</ele><time>2026-05-03T13:19:43.149Z</time></trkpt><trkpt lat="44.226893" lon="8.2637547"><ele>381.0</ele><time>2026-05-03T13:19:44.151Z</time></trkpt><trkpt lat="44.2269279" lon="8.263645"><ele>381.0</ele><time>2026-05-03T13:19:45.149Z</time></trkpt><trkpt lat="44.22698" lon="8.263581"><ele>381.0</ele><time>2026-05-03T13:19:46.149Z</time></trkpt><trkpt lat="44.2270412" lon="8.263554"><ele>381.0</ele><time>2026-05-03T13:19:47.15Z</time></trkpt><trkpt lat="44.2271022" lon="8.2635945"><ele>381.0</ele><time>2026-05-03T13:19:48.149Z</time></trkpt><trkpt lat="44.2271561" lon="8.2636492"><ele>381.0</ele><time>2026-05-03T13:19:49.149Z</time></trkpt><trkpt lat="44.2272054" lon="8.2638172"><ele>381.0</ele><time>2026-05-03T13:19:51.149Z</time></trkpt><trkpt lat="44.2272074" lon="8.2639308"><ele>381.0</ele><time>2026-05-03T13:19:52.149Z</time></trkpt><trkpt lat="44.2272018" lon="8.2640449"><ele>381.0</ele><time>2026-05-03T13:19:53.149Z</time></trkpt><trkpt lat="44.2271704" lon="8.2641629"><ele>381.0</ele><time>2026-05-03T13:19:54.149Z</time></trkpt><trkpt lat="44.2271482" lon="8.2642759"><ele>381.0</ele><time>2026-05-03T13:19:55.149Z</time></trkpt><trkpt lat="44.2272104" lon="8.2643374"><ele>381.0</ele><time>2026-05-03T13:19:56.15Z</time></trkpt><trkpt lat="44.227331" lon="8.2643821"><ele>385.6666666666667</ele><time>2026-05-03T13:19:58.15Z</time></trkpt><trkpt lat="44.2274075" lon="8.26438"><ele>390.33333333333337</ele><time>2026-05-03T13:19:59.149Z</time></trkpt><trkpt lat="44.2274718" lon="8.2643791"><ele>395.0</ele><time>2026-05-03T13:20:00.15Z</time></trkpt><trkpt lat="44.2275423" lon="8.264358"><ele>399.6666666666667</ele><time>2026-05-03T13:20:02.149Z</time></trkpt><trkpt lat="44.2276188" lon="8.2642778"><ele>404.33333333333337</ele><time>2026-05-03T13:20:04.15Z</time></trkpt><trkpt lat="44.2276634" lon="8.2642"><ele>409.0</ele><time>2026-05-03T13:20:05.149Z</time></trkpt><trkpt lat="44.2276901" lon="8.264103"><ele>409.00000000000006</ele><time>2026-05-03T13:20:06.149Z</time></trkpt><trkpt lat="44.2277088" lon="8.2640101"><ele>409.0</ele><time>2026-05-03T13:20:07.149Z</time></trkpt><trkpt lat="44.2277392" lon="8.2639299"><ele>409.0</ele><time>2026-05-03T13:20:08.149Z</time></trkpt><trkpt lat="44.2277719" lon="8.2637747"><ele>409.0</ele><time>2026-05-03T13:20:10.149Z</time></trkpt><trkpt lat="44.2277785" lon="8.2636784"><ele>409.00000000000006</ele><time>2026-05-03T13:20:11.149Z</time></trkpt><trkpt lat="44.2278352" lon="8.2635281"><ele>409.0</ele><time>2026-05-03T13:20:13.149Z</time></trkpt><trkpt lat="44.2278881" lon="8.263478"><ele>409.4</ele><time>2026-05-03T13:20:14.149Z</time></trkpt><trkpt lat="44.2279411" lon="8.2634297"><ele>409.79999999999995</ele><time>2026-05-03T13:20:15.15Z</time></trkpt><trkpt lat="44.2280535" lon="8.2633653"><ele>410.20000000000005</ele><time>2026-05-03T13:20:17.149Z</time></trkpt><trkpt lat="44.2281711" lon="8.2633307"><ele>410.6</ele><time>2026-05-03T13:20:19.149Z</time></trkpt><trkpt lat="44.2282797" lon="8.2632764"><ele>411.0</ele><time>2026-05-03T13:20:21.149Z</time></trkpt><trkpt lat="44.2283541" lon="8.2631593"><ele>415.6</ele><time>2026-05-03T13:20:23.15Z</time></trkpt><trkpt lat="44.2284008" lon="8.2630563"><ele>420.20000000000005</ele><time>2026-05-03T13:20:25.149Z</time></trkpt><trkpt lat="44.2284809" lon="8.2630296"><ele>424.79999999999995</ele><time>2026-05-03T13:20:27.149Z</time></trkpt><trkpt lat="44.2285787" lon="8.2630658"><ele>429.4</ele><time>2026-05-03T13:20:29.15Z</time></trkpt><trkpt lat="44.2286664" lon="8.2631965"><ele>434.0</ele><time>2026-05-03T13:20:31.15Z</time></trkpt><trkpt lat="44.2287407" lon="8.2633023"><ele>434.0</ele><time>2026-05-03T13:20:33.15Z</time></trkpt><trkpt lat="44.2287993" lon="8.2634317"><ele>434.0</ele><time>2026-05-03T13:20:35.149Z</time></trkpt><trkpt lat="44.2288793" lon="8.2635599"><ele>434.0</ele><time>2026-05-03T13:20:37.149Z</time></trkpt><trkpt lat="44.2289415" lon="8.2636682"><ele>434.0</ele><time>2026-05-03T13:20:39.15Z</time></trkpt><trkpt lat="44.2289903" lon="8.2637262"><ele>434.0</ele><time>2026-05-03T13:20:41.149Z</time></trkpt><trkpt lat="44.2290885" lon="8.2636266"><ele>438.4</ele><time>2026-05-03T13:20:44.149Z</time></trkpt><trkpt lat="44.229139" lon="8.2634571"><ele>442.79999999999995</ele><time>2026-05-03T13:20:47.149Z</time></trkpt><trkpt lat="44.2291731" lon="8.2633425"><ele>447.20000000000005</ele><time>2026-05-03T13:20:48.15Z</time></trkpt><trkpt lat="44.2292103" lon="8.2632321"><ele>451.6</ele><time>2026-05-03T13:20:49.149Z</time></trkpt><trkpt lat="44.2292433" lon="8.2631446"><ele>456.0</ele><time>2026-05-03T13:20:50.149Z</time></trkpt><trkpt lat="44.229307" lon="8.2629948"><ele>456.0</ele><time>2026-05-03T13:20:52.149Z</time></trkpt><trkpt lat="44.2293369" lon="8.2629033"><ele>456.0</ele><time>2026-05-03T13:20:53.15Z</time></trkpt><trkpt lat="44.2293684" lon="8.2628234"><ele>456.0</ele><time>2026-05-03T13:20:54.15Z</time></trkpt><trkpt lat="44.2294597" lon="8.2627354"><ele>456.0</ele><time>2026-05-03T13:20:56.149Z</time></trkpt><trkpt lat="44.2295718" lon="8.2627278"><ele>456.0</ele><time>2026-05-03T13:20:58.149Z</time></trkpt><trkpt lat="44.2296737" lon="8.2627759"><ele>456.0</ele><time>2026-05-03T13:21:00.149Z</time></trkpt><trkpt lat="44.2297258" lon="8.2628297"><ele>456.0</ele><time>2026-05-03T13:21:01.149Z</time></trkpt><trkpt lat="44.2297812" lon="8.2629012"><ele>456.0</ele><time>2026-05-03T13:21:02.149Z</time></trkpt><trkpt lat="44.2298388" lon="8.262993"><ele>456.0</ele><time>2026-05-03T13:21:03.149Z</time></trkpt><trkpt lat="44.2298948" lon="8.2630889"><ele>456.0</ele><time>2026-05-03T13:21:04.149Z</time></trkpt><trkpt lat="44.2299508" lon="8.263178"><ele>456.0</ele><time>2026-05-03T13:21:05.149Z</time></trkpt><trkpt lat="44.2300058" lon="8.2632579"><ele>459.0</ele><time>2026-05-03T13:21:06.149Z</time></trkpt><trkpt lat="44.2300656" lon="8.2633424"><ele>462.0</ele><time>2026-05-03T13:21:07.149Z</time></trkpt><trkpt lat="44.2301107" lon="8.2634236"><ele>465.0</ele><time>2026-05-03T13:21:08.151Z</time></trkpt><trkpt lat="44.2301629" lon="8.2635585"><ele>468.0</ele><time>2026-05-03T13:21:10.149Z</time></trkpt><trkpt lat="44.2301836" lon="8.2637002"><ele>471.0</ele><time>2026-05-03T13:21:12.149Z</time></trkpt><trkpt lat="44.2301967" lon="8.2638499"><ele>471.0</ele><time>2026-05-03T13:21:14.15Z</time></trkpt><trkpt lat="44.2301968" lon="8.2639405"><ele>471.0</ele><time>2026-05-03T13:21:15.149Z</time></trkpt><trkpt lat="44.2301711" lon="8.2640859"><ele>471.0</ele><time>2026-05-03T13:21:17.15Z</time></trkpt><trkpt lat="44.2301212" lon="8.2642104"><ele>471.0</ele><time>2026-05-03T13:21:19.149Z</time></trkpt><trkpt lat="44.2300487" lon="8.2643334"><ele>471.0</ele><time>2026-05-03T13:21:21.149Z</time></trkpt><trkpt lat="44.2300071" lon="8.2644136"><ele>472.8</ele><time>2026-05-03T13:21:22.149Z</time></trkpt><trkpt lat="44.2299766" lon="8.2645018"><ele>474.6</ele><time>2026-05-03T13:21:23.149Z</time></trkpt><trkpt lat="44.2299602" lon="8.2646583"><ele>476.4</ele><time>2026-05-03T13:21:25.15Z</time></trkpt><trkpt lat="44.2299684" lon="8.2648548"><ele>478.2</ele><time>2026-05-03T13:21:27.149Z</time></trkpt><trkpt lat="44.2299795" lon="8.2649732"><ele>480.0</ele><time>2026-05-03T13:21:28.149Z</time></trkpt><trkpt lat="44.2299969" lon="8.2650867"><ele>480.8571428571429</ele><time>2026-05-03T13:21:29.15Z</time></trkpt><trkpt lat="44.2300191" lon="8.2651862"><ele>481.71428571428567</ele><time>2026-05-03T13:21:30.149Z</time></trkpt><trkpt lat="44.230047" lon="8.2652786"><ele>482.57142857142856</ele><time>2026-05-03T13:21:31.149Z</time></trkpt><trkpt lat="44.2300739" lon="8.2653586"><ele>483.42857142857144</ele><time>2026-05-03T13:21:32.149Z</time></trkpt><trkpt lat="44.2300918" lon="8.2654481"><ele>484.28571428571433</ele><time>2026-05-03T13:21:33.15Z</time></trkpt><trkpt lat="44.2300916" lon="8.2655404"><ele>485.1428571428571</ele><time>2026-05-03T13:21:34.149Z</time></trkpt><trkpt lat="44.2300826" lon="8.2656281"><ele>486.0</ele><time>2026-05-03T13:21:35.149Z</time></trkpt><trkpt lat="44.2300754" lon="8.2657269"><ele>487.2857142857143</ele><time>2026-05-03T13:21:36.149Z</time></trkpt><trkpt lat="44.2300748" lon="8.2658374"><ele>488.57142857142856</ele><time>2026-05-03T13:21:37.149Z</time></trkpt><trkpt lat="44.2300863" lon="8.2659353"><ele>489.85714285714283</ele><time>2026-05-03T13:21:38.149Z</time></trkpt><trkpt lat="44.2301129" lon="8.2660207"><ele>491.1428571428571</ele><time>2026-05-03T13:21:39.149Z</time></trkpt><trkpt lat="44.2301399" lon="8.2661058"><ele>492.42857142857144</ele><time>2026-05-03T13:21:40.149Z</time></trkpt><trkpt lat="44.2301737" lon="8.2661933"><ele>493.71428571428567</ele><time>2026-05-03T13:21:41.15Z</time></trkpt><trkpt lat="44.2302315" lon="8.2662826"><ele>494.99999999999994</ele><time>2026-05-03T13:21:42.149Z</time></trkpt><trkpt lat="44.2302862" lon="8.2663546"><ele>497.0</ele><time>2026-05-03T13:21:43.149Z</time></trkpt><trkpt lat="44.2303769" lon="8.2664566"><ele>499.0</ele><time>2026-05-03T13:21:45.149Z</time></trkpt><trkpt lat="44.2304661" lon="8.2665648"><ele>501.0</ele><time>2026-05-03T13:21:47.149Z</time></trkpt><trkpt lat="44.2305151" lon="8.2667076"><ele>503.0</ele><time>2026-05-03T13:21:49.149Z</time></trkpt><trkpt lat="44.2305188" lon="8.2667964"><ele>505.0</ele><time>2026-05-03T13:21:50.149Z</time></trkpt><trkpt lat="44.2305275" lon="8.2669475"><ele>505.00000000000006</ele><time>2026-05-03T13:21:52.149Z</time></trkpt><trkpt lat="44.2305555" lon="8.2670278"><ele>505.0</ele><time>2026-05-03T13:21:53.149Z</time></trkpt><trkpt lat="44.2305954" lon="8.2670987"><ele>505.0</ele><time>2026-05-03T13:21:54.15Z</time></trkpt><trkpt lat="44.2306788" lon="8.2671593"><ele>505.0</ele><time>2026-05-03T13:21:56.15Z</time></trkpt><trkpt lat="44.2307799" lon="8.2671228"><ele>505.00000000000006</ele><time>2026-05-03T13:21:58.149Z</time></trkpt><trkpt lat="44.2308797" lon="8.2671009"><ele>505.0</ele><time>2026-05-03T13:22:00.149Z</time></trkpt><trkpt lat="44.2309433" lon="8.2670824"><ele>507.8</ele><time>2026-05-03T13:22:01.149Z</time></trkpt><trkpt lat="44.2310561" lon="8.2670997"><ele>510.6</ele><time>2026-05-03T13:22:03.149Z</time></trkpt><trkpt lat="44.2311377" lon="8.2671088"><ele>513.4</ele><time>2026-05-03T13:22:05.149Z</time></trkpt><trkpt lat="44.2312576" lon="8.2670862"><ele>516.2</ele><time>2026-05-03T13:22:07.149Z</time></trkpt><trkpt lat="44.2313211" lon="8.2670819"><ele>519.0</ele><time>2026-05-03T13:22:08.149Z</time></trkpt><trkpt lat="44.2314156" lon="8.2670758"><ele>521.5</ele><time>2026-05-03T13:22:10.15Z</time></trkpt><trkpt lat="44.2314823" lon="8.2670913"><ele>524.0</ele><time>2026-05-03T13:22:11.15Z</time></trkpt><trkpt lat="44.2315617" lon="8.2671006"><ele>526.5</ele><time>2026-05-03T13:22:12.149Z</time></trkpt><trkpt lat="44.2316367" lon="8.2670955"><ele>529.0</ele><time>2026-05-03T13:22:13.15Z</time></trkpt><trkpt lat="44.2317082" lon="8.2670754"><ele>531.5</ele><time>2026-05-03T13:22:14.149Z</time></trkpt><trkpt lat="44.2317739" lon="8.2670474"><ele>534.0</ele><time>2026-05-03T13:22:15.15Z</time></trkpt><trkpt lat="44.231876" lon="8.2669836"><ele>534.0</ele><time>2026-05-03T13:22:17.149Z</time></trkpt><trkpt lat="44.2319602" lon="8.2669868"><ele>534.0</ele><time>2026-05-03T13:22:19.15Z</time></trkpt><trkpt lat="44.232038" lon="8.2669919"><ele>534.0</ele><time>2026-05-03T13:22:21.149Z</time></trkpt><trkpt lat="44.2321698" lon="8.2669846"><ele>534.0</ele><time>2026-05-03T13:22:23.149Z</time></trkpt><trkpt lat="44.2322554" lon="8.2669713"><ele>534.0</ele><time>2026-05-03T13:22:24.149Z</time></trkpt><trkpt lat="44.2323499" lon="8.2669569"><ele>536.3333333333334</ele><time>2026-05-03T13:22:25.149Z</time></trkpt><trkpt lat="44.2324257" lon="8.2669412"><ele>538.6666666666666</ele><time>2026-05-03T13:22:26.149Z</time></trkpt><trkpt lat="44.2324932" lon="8.266924"><ele>541.0</ele><time>2026-05-03T13:22:27.149Z</time></trkpt><trkpt lat="44.2325976" lon="8.2668912"><ele>543.3333333333333</ele><time>2026-05-03T13:22:29.15Z</time></trkpt><trkpt lat="44.2326562" lon="8.2668154"><ele>545.6666666666666</ele><time>2026-05-03T13:22:31.149Z</time></trkpt><trkpt lat="44.2326166" lon="8.2666799"><ele>548.0</ele><time>2026-05-03T13:22:33.149Z</time></trkpt><trkpt lat="44.2325803" lon="8.2665657"><ele>548.0</ele><time>2026-05-03T13:22:35.149Z</time></trkpt><trkpt lat="44.2325729" lon="8.2664549"><ele>548.0</ele><time>2026-05-03T13:22:37.149Z</time></trkpt><trkpt lat="44.2325827" lon="8.2663537"><ele>548.0</ele><time>2026-05-03T13:22:38.149Z</time></trkpt><trkpt lat="44.2326221" lon="8.2662615"><ele>548.0</ele><time>2026-05-03T13:22:39.15Z</time></trkpt><trkpt lat="44.2326687" lon="8.2661952"><ele>548.0</ele><time>2026-05-03T13:22:40.149Z</time></trkpt><trkpt lat="44.2327185" lon="8.2661289"><ele>548.0</ele><time>2026-05-03T13:22:41.149Z</time></trkpt><trkpt lat="44.2327735" lon="8.2660315"><ele>545.6</ele><time>2026-05-03T13:22:42.15Z</time></trkpt><trkpt lat="44.2328199" lon="8.2659489"><ele>543.1999999999999</ele><time>2026-05-03T13:22:43.149Z</time></trkpt><trkpt lat="44.2328918" lon="8.2658256"><ele>540.8</ele><time>2026-05-03T13:22:45.15Z</time></trkpt><trkpt lat="44.2329867" lon="8.2657027"><ele>538.4</ele><time>2026-05-03T13:22:47.149Z</time></trkpt><trkpt lat="44.2330356" lon="8.2656316"><ele>536.0</ele><time>2026-05-03T13:22:48.149Z</time></trkpt><trkpt lat="44.233082" lon="8.2655537"><ele>534.5714285714286</ele><time>2026-05-03T13:22:49.149Z</time></trkpt><trkpt lat="44.2331244" lon="8.2654757"><ele>533.1428571428571</ele><time>2026-05-03T13:22:50.15Z</time></trkpt><trkpt lat="44.2331721" lon="8.2654032"><ele>531.7142857142857</ele><time>2026-05-03T13:22:51.149Z</time></trkpt><trkpt lat="44.2332173" lon="8.2653341"><ele>530.2857142857142</ele><time>2026-05-03T13:22:52.149Z</time></trkpt><trkpt lat="44.2332621" lon="8.2652649"><ele>528.8571428571428</ele><time>2026-05-03T13:22:53.15Z</time></trkpt><trkpt lat="44.233317" lon="8.2651996"><ele>527.4285714285714</ele><time>2026-05-03T13:22:54.15Z</time></trkpt><trkpt lat="44.2333745" lon="8.2651521"><ele>526.0</ele><time>2026-05-03T13:22:55.149Z</time></trkpt><trkpt lat="44.2334374" lon="8.2651297"><ele>529.0</ele><time>2026-05-03T13:22:56.149Z</time></trkpt><trkpt lat="44.2335014" lon="8.2651039"><ele>532.0</ele><time>2026-05-03T13:22:57.15Z</time></trkpt><trkpt lat="44.2335576" lon="8.2650643"><ele>535.0</ele><time>2026-05-03T13:22:58.149Z</time></trkpt><trkpt lat="44.2336534" lon="8.2649669"><ele>538.0</ele><time>2026-05-03T13:23:00.149Z</time></trkpt><trkpt lat="44.2337628" lon="8.2648651"><ele>541.0</ele><time>2026-05-03T13:23:02.149Z</time></trkpt><trkpt lat="44.2338401" lon="8.2647385"><ele>541.0</ele><time>2026-05-03T13:23:04.149Z</time></trkpt><trkpt lat="44.2339376" lon="8.2647206"><ele>541.0</ele><time>2026-05-03T13:23:06.149Z</time></trkpt><trkpt lat="44.2340128" lon="8.2646992"><ele>541.0</ele><time>2026-05-03T13:23:08.149Z</time></trkpt><trkpt lat="44.2341002" lon="8.2646207"><ele>541.0</ele><time>2026-05-03T13:23:10.15Z</time></trkpt><trkpt lat="44.2341822" lon="8.2644949"><ele>541.0</ele><time>2026-05-03T13:23:12.15Z</time></trkpt><trkpt lat="44.234245" lon="8.2644174"><ele>544.4</ele><time>2026-05-03T13:23:14.149Z</time></trkpt><trkpt lat="44.2343078" lon="8.2643347"><ele>547.8</ele><time>2026-05-03T13:23:16.149Z</time></trkpt><trkpt lat="44.2343525" lon="8.2642718"><ele>551.1999999999999</ele><time>2026-05-03T13:23:17.149Z</time></trkpt><trkpt lat="44.234403" lon="8.2642085"><ele>554.6</ele><time>2026-05-03T13:23:18.149Z</time></trkpt><trkpt lat="44.2345054" lon="8.264118"><ele>558.0</ele><time>2026-05-03T13:23:20.149Z</time></trkpt><trkpt lat="44.2346203" lon="8.2640823"><ele>558.0</ele><time>2026-05-03T13:23:22.149Z</time></trkpt><trkpt lat="44.2347252" lon="8.2640378"><ele>558.0</ele><time>2026-05-03T13:23:24.15Z</time></trkpt><trkpt lat="44.2347827" lon="8.2639813"><ele>558.0</ele><time>2026-05-03T13:23:26.149Z</time></trkpt><trkpt lat="44.2348848" lon="8.2638864"><ele>558.0</ele><time>2026-05-03T13:23:28.15Z</time></trkpt><trkpt lat="44.2349553" lon="8.2638365"><ele>558.0</ele><time>2026-05-03T13:23:29.15Z</time></trkpt><trkpt lat="44.2350184" lon="8.2637754"><ele>559.0</ele><time>2026-05-03T13:23:30.149Z</time></trkpt><trkpt lat="44.2351174" lon="8.2636818"><ele>560.0</ele><time>2026-05-03T13:23:32.149Z</time></trkpt><trkpt lat="44.2351837" lon="8.2636011"><ele>561.0</ele><time>2026-05-03T13:23:34.149Z</time></trkpt><trkpt lat="44.2352226" lon="8.2635177"><ele>562.0</ele><time>2026-05-03T13:23:38.15Z</time></trkpt><trkpt lat="44.2352047" lon="8.2633598"><ele>563.0</ele><time>2026-05-03T13:26:34.149Z</time></trkpt><trkpt lat="44.2352385" lon="8.2632618"><ele>563.0</ele><time>2026-05-03T13:26:37.149Z</time></trkpt><trkpt lat="44.2352667" lon="8.2631312"><ele>563.0</ele><time>2026-05-03T13:26:40.149Z</time></trkpt><trkpt lat="44.2352994" lon="8.2630446"><ele>563.0</ele><time>2026-05-03T13:26:42.15Z</time></trkpt><trkpt lat="44.2353379" lon="8.2629645"><ele>563.0</ele><time>2026-05-03T13:26:44.15Z</time></trkpt><trkpt lat="44.2353814" lon="8.2628648"><ele>563.0</ele><time>2026-05-03T13:26:46.149Z</time></trkpt><trkpt lat="44.2354461" lon="8.2628013"><ele>563.0</ele><time>2026-05-03T13:26:48.149Z</time></trkpt><trkpt lat="44.2355375" lon="8.2627602"><ele>564.1999999999999</ele><time>2026-05-03T13:26:50.15Z</time></trkpt><trkpt lat="44.2356342" lon="8.2627248"><ele>565.4</ele><time>2026-05-03T13:26:52.149Z</time></trkpt><trkpt lat="44.2356909" lon="8.2626707"><ele>566.5999999999999</ele><time>2026-05-03T13:26:53.149Z</time></trkpt><trkpt lat="44.2357736" lon="8.2626045"><ele>567.8</ele><time>2026-05-03T13:26:55.149Z</time></trkpt><trkpt lat="44.2358677" lon="8.2625353"><ele>569.0</ele><time>2026-05-03T13:26:57.149Z</time></trkpt><trkpt lat="44.235967" lon="8.2625258"><ele>569.0</ele><time>2026-05-03T13:26:59.149Z</time></trkpt><trkpt lat="44.2360823" lon="8.2625027"><ele>569.0</ele><time>2026-05-03T13:27:01.149Z</time></trkpt><trkpt lat="44.2362412" lon="8.2625283"><ele>569.0</ele><time>2026-05-03T13:27:06.149Z</time></trkpt><trkpt lat="44.2364606" lon="8.2624882"><ele>572.6</ele><time>2026-05-03T13:27:10.149Z</time></trkpt><trkpt lat="44.2365324" lon="8.2624461"><ele>576.2</ele><time>2026-05-03T13:27:11.149Z</time></trkpt><trkpt lat="44.2365954" lon="8.2624108"><ele>579.8000000000001</ele><time>2026-05-03T13:27:12.149Z</time></trkpt><trkpt lat="44.2366892" lon="8.262353"><ele>583.4</ele><time>2026-05-03T13:27:14.149Z</time></trkpt><trkpt lat="44.2367957" lon="8.2623028"><ele>587.0</ele><time>2026-05-03T13:27:16.149Z</time></trkpt><trkpt lat="44.2368937" lon="8.2622555"><ele>587.0</ele><time>2026-05-03T13:27:18.149Z</time></trkpt><trkpt lat="44.2369733" lon="8.2622881"><ele>587.0</ele><time>2026-05-03T13:27:20.149Z</time></trkpt><trkpt lat="44.2370567" lon="8.262371"><ele>587.0</ele><time>2026-05-03T13:27:22.149Z</time></trkpt><trkpt lat="44.2371561" lon="8.2623968"><ele>587.0</ele><time>2026-05-03T13:27:24.149Z</time></trkpt><trkpt lat="44.2372699" lon="8.2624017"><ele>587.0</ele><time>2026-05-03T13:27:26.149Z</time></trkpt><trkpt lat="44.2373791" lon="8.2623943"><ele>588.0</ele><time>2026-05-03T13:27:28.149Z</time></trkpt><trkpt lat="44.2375115" lon="8.2623689"><ele>589.0</ele><time>2026-05-03T13:27:30.149Z</time></trkpt><trkpt lat="44.2375795" lon="8.2623481"><ele>590.0</ele><time>2026-05-03T13:27:31.149Z</time></trkpt><trkpt lat="44.2376549" lon="8.2623499"><ele>591.0</ele><time>2026-05-03T13:27:33.149Z</time></trkpt><trkpt lat="44.2377768" lon="8.2623649"><ele>592.0</ele><time>2026-05-03T13:27:52.149Z</time></trkpt><trkpt lat="44.2378549" lon="8.2623628"><ele>592.0</ele><time>2026-05-03T13:27:53.149Z</time></trkpt><trkpt lat="44.2379571" lon="8.2623873"><ele>592.0</ele><time>2026-05-03T13:27:55.15Z</time></trkpt><trkpt lat="44.2380848" lon="8.2624234"><ele>592.0</ele><time>2026-05-03T13:27:57.149Z</time></trkpt><trkpt lat="44.2382177" lon="8.2625035"><ele>592.0</ele><time>2026-05-03T13:28:01.149Z</time></trkpt><trkpt lat="44.2382322" lon="8.2625908"><ele>592.0</ele><time>2026-05-03T13:28:03.149Z</time></trkpt><trkpt lat="44.2382889" lon="8.2626735"><ele>591.2</ele><time>2026-05-03T13:28:05.149Z</time></trkpt><trkpt lat="44.2383735" lon="8.2627788"><ele>590.4000000000001</ele><time>2026-05-03T13:28:07.149Z</time></trkpt><trkpt lat="44.2384436" lon="8.2628711"><ele>589.5999999999999</ele><time>2026-05-03T13:28:09.149Z</time></trkpt><trkpt lat="44.2385162" lon="8.2629909"><ele>588.8</ele><time>2026-05-03T13:28:11.149Z</time></trkpt><trkpt lat="44.2385908" lon="8.2630643"><ele>588.0</ele><time>2026-05-03T13:28:13.151Z</time></trkpt><trkpt lat="44.2385389" lon="8.2629511"><ele>588.0</ele><time>2026-05-03T13:30:22.149Z</time></trkpt><trkpt lat="44.2384767" lon="8.2628533"><ele>588.0</ele><time>2026-05-03T13:30:23.149Z</time></trkpt><trkpt lat="44.2384247" lon="8.2627819"><ele>588.0</ele><time>2026-05-03T13:30:24.15Z</time></trkpt><trkpt lat="44.2383773" lon="8.2627036"><ele>588.0</ele><time>2026-05-03T13:30:25.149Z</time></trkpt><trkpt lat="44.2383367" lon="8.2626258"><ele>588.0</ele><time>2026-05-03T13:30:26.149Z</time></trkpt><trkpt lat="44.2383205" lon="8.2625178"><ele>588.0</ele><time>2026-05-03T13:30:28.149Z</time></trkpt><trkpt lat="44.238283" lon="8.2624447"><ele>588.0</ele><time>2026-05-03T13:30:32.15Z</time></trkpt><trkpt lat="44.2381992" lon="8.2624514"><ele>588.0</ele><time>2026-05-03T13:31:51.149Z</time></trkpt><trkpt lat="44.2381328" lon="8.2624646"><ele>588.0</ele><time>2026-05-03T13:31:53.149Z</time></trkpt><trkpt lat="44.2380669" lon="8.2624298"><ele>588.0</ele><time>2026-05-03T13:31:54.149Z</time></trkpt><trkpt lat="44.2379506" lon="8.2624007"><ele>588.0</ele><time>2026-05-03T13:31:56.149Z</time></trkpt><trkpt lat="44.237848" lon="8.2623821"><ele>588.0</ele><time>2026-05-03T13:31:58.15Z</time></trkpt><trkpt lat="44.2377417" lon="8.2623962"><ele>587.8333333333334</ele><time>2026-05-03T13:32:00.149Z</time></trkpt><trkpt lat="44.2376713" lon="8.2624174"><ele>587.6666666666666</ele><time>2026-05-03T13:32:01.15Z</time></trkpt><trkpt lat="44.2376033" lon="8.262422"><ele>587.5</ele><time>2026-05-03T13:32:02.15Z</time></trkpt><trkpt lat="44.2375314" lon="8.2624203"><ele>587.3333333333333</ele><time>2026-05-03T13:32:03.149Z</time></trkpt><trkpt lat="44.2373834" lon="8.2624107"><ele>587.1666666666666</ele><time>2026-05-03T13:32:05.149Z</time></trkpt><trkpt lat="44.2372953" lon="8.2623997"><ele>587.0</ele><time>2026-05-03T13:32:06.149Z</time></trkpt><trkpt lat="44.237199" lon="8.2623531"><ele>587.0</ele><time>2026-05-03T13:32:08.149Z</time></trkpt><trkpt lat="44.2371414" lon="8.2623136"><ele>587.0</ele><time>2026-05-03T13:32:09.15Z</time></trkpt><trkpt lat="44.2370836" lon="8.2622661"><ele>587.0</ele><time>2026-05-03T13:32:10.149Z</time></trkpt><trkpt lat="44.2370225" lon="8.2622247"><ele>587.0</ele><time>2026-05-03T13:32:11.149Z</time></trkpt><trkpt lat="44.2369518" lon="8.2622504"><ele>587.0</ele><time>2026-05-03T13:32:13.15Z</time></trkpt><trkpt lat="44.2368293" lon="8.2622797"><ele>587.0</ele><time>2026-05-03T13:32:15.149Z</time></trkpt><trkpt lat="44.2367689" lon="8.2623331"><ele>587.0</ele><time>2026-05-03T13:32:16.149Z</time></trkpt><trkpt lat="44.2367141" lon="8.2623806"><ele>587.0</ele><time>2026-05-03T13:32:17.15Z</time></trkpt><trkpt lat="44.236627" lon="8.2624187"><ele>587.0</ele><time>2026-05-03T13:32:19.149Z</time></trkpt><trkpt lat="44.2365627" lon="8.2624465"><ele>587.0</ele><time>2026-05-03T13:32:21.149Z</time></trkpt><trkpt lat="44.2364861" lon="8.2624596"><ele>587.0</ele><time>2026-05-03T13:32:23.149Z</time></trkpt><trkpt lat="44.236386" lon="8.2624287"><ele>587.0</ele><time>2026-05-03T13:32:25.149Z</time></trkpt><trkpt lat="44.2362999" lon="8.2623966"><ele>583.4</ele><time>2026-05-03T13:32:26.149Z</time></trkpt><trkpt lat="44.2362064" lon="8.2623739"><ele>579.8000000000001</ele><time>2026-05-03T13:32:28.149Z</time></trkpt><trkpt lat="44.2361088" lon="8.2623834"><ele>576.2</ele><time>2026-05-03T13:32:30.149Z</time></trkpt><trkpt lat="44.2360175" lon="8.2624244"><ele>572.6</ele><time>2026-05-03T13:32:32.149Z</time></trkpt><trkpt lat="44.2359611" lon="8.2624644"><ele>569.0</ele><time>2026-05-03T13:32:33.149Z</time></trkpt><trkpt lat="44.2358565" lon="8.2625334"><ele>569.0</ele><time>2026-05-03T13:32:35.149Z</time></trkpt><trkpt lat="44.2357578" lon="8.2626065"><ele>569.0</ele><time>2026-05-03T13:32:37.149Z</time></trkpt><trkpt lat="44.2356816" lon="8.2626695"><ele>569.0</ele><time>2026-05-03T13:32:39.149Z</time></trkpt><trkpt lat="44.235629" lon="8.2627472"><ele>569.0</ele><time>2026-05-03T13:32:41.149Z</time></trkpt><trkpt lat="44.2355639" lon="8.262846"><ele>569.0</ele><time>2026-05-03T13:32:43.149Z</time></trkpt><trkpt lat="44.2355165" lon="8.2629328"><ele>567.8</ele><time>2026-05-03T13:32:45.149Z</time></trkpt><trkpt lat="44.2354596" lon="8.2630744"><ele>566.5999999999999</ele><time>2026-05-03T13:32:47.15Z</time></trkpt><trkpt lat="44.2354212" lon="8.2632126"><ele>565.4</ele><time>2026-05-03T13:32:49.149Z</time></trkpt><trkpt lat="44.2353635" lon="8.2633138"><ele>564.1999999999999</ele><time>2026-05-03T13:32:51.149Z</time></trkpt><trkpt lat="44.2353171" lon="8.2633785"><ele>563.0</ele><time>2026-05-03T13:32:54.149Z</time></trkpt><trkpt lat="44.2352562" lon="8.2634828"><ele>563.0</ele><time>2026-05-03T13:32:56.149Z</time></trkpt><trkpt lat="44.2351782" lon="8.2635618"><ele>563.0</ele><time>2026-05-03T13:32:58.149Z</time></trkpt><trkpt lat="44.2350992" lon="8.2636394"><ele>563.0</ele><time>2026-05-03T13:33:00.149Z</time></trkpt><trkpt lat="44.2350127" lon="8.2636993"><ele>563.0</ele><time>2026-05-03T13:33:02.149Z</time></trkpt><trkpt lat="44.2349146" lon="8.2637498"><ele>563.0</ele><time>2026-05-03T13:33:04.15Z</time></trkpt><trkpt lat="44.2348323" lon="8.2638378"><ele>561.75</ele><time>2026-05-03T13:33:06.149Z</time></trkpt><trkpt lat="44.2347599" lon="8.2639448"><ele>560.5</ele><time>2026-05-03T13:33:08.149Z</time></trkpt><trkpt lat="44.2346747" lon="8.2640397"><ele>559.25</ele><time>2026-05-03T13:33:10.149Z</time></trkpt><trkpt lat="44.2345574" lon="8.2641639"><ele>558.0</ele><time>2026-05-03T13:33:12.149Z</time></trkpt><trkpt lat="44.2344776" lon="8.2642481"><ele>558.0</ele><time>2026-05-03T13:33:14.15Z</time></trkpt><trkpt lat="44.2343901" lon="8.2643642"><ele>558.0</ele><time>2026-05-03T13:33:16.149Z</time></trkpt><trkpt lat="44.2343259" lon="8.2643876"><ele>558.0</ele><time>2026-05-03T13:33:17.149Z</time></trkpt><trkpt lat="44.2342378" lon="8.2644196"><ele>558.0</ele><time>2026-05-03T13:33:19.149Z</time></trkpt><trkpt lat="44.234166" lon="8.2644678"><ele>558.0</ele><time>2026-05-03T13:33:21.149Z</time></trkpt><trkpt lat="44.2340908" lon="8.264529"><ele>558.0</ele><time>2026-05-03T13:33:23.149Z</time></trkpt><trkpt lat="44.2340122" lon="8.2646415"><ele>558.0</ele><time>2026-05-03T13:33:25.149Z</time></trkpt><trkpt lat="44.2339352" lon="8.264745"><ele>558.0</ele><time>2026-05-03T13:33:27.149Z</time></trkpt><trkpt lat="44.2338577" lon="8.2648139"><ele>558.0</ele><time>2026-05-03T13:33:29.149Z</time></trkpt><trkpt lat="44.2337712" lon="8.264855"><ele>558.0</ele><time>2026-05-03T13:33:31.149Z</time></trkpt><trkpt lat="44.2337049" lon="8.2648696"><ele>558.0</ele><time>2026-05-03T13:33:34.149Z</time></trkpt><trkpt lat="44.2336414" lon="8.2648883"><ele>558.0</ele><time>2026-05-03T13:33:41.149Z</time></trkpt><trkpt lat="44.2335894" lon="8.2649513"><ele>558.0</ele><time>2026-05-03T13:34:08.149Z</time></trkpt><trkpt lat="44.2335298" lon="8.2650143"><ele>558.0</ele><time>2026-05-03T13:34:10.149Z</time></trkpt><trkpt lat="44.2334547" lon="8.26509"><ele>558.0</ele><time>2026-05-03T13:34:12.149Z</time></trkpt><trkpt lat="44.2333537" lon="8.2651411"><ele>558.0</ele><time>2026-05-03T13:34:14.149Z</time></trkpt><trkpt lat="44.2332705" lon="8.2652332"><ele>558.0</ele><time>2026-05-03T13:34:16.149Z</time></trkpt><trkpt lat="44.2331827" lon="8.2653247"><ele>558.0</ele><time>2026-05-03T13:34:18.149Z</time></trkpt><trkpt lat="44.2331099" lon="8.2654097"><ele>558.0</ele><time>2026-05-03T13:34:20.149Z</time></trkpt><trkpt lat="44.2331858" lon="8.2653454"><ele>558.0</ele><time>2026-05-03T13:34:22.119Z</time></trkpt><trkpt lat="44.2331071" lon="8.2654278"><ele>558.0</ele><time>2026-05-03T13:34:24.15Z</time></trkpt><trkpt lat="44.2330556" lon="8.2655045"><ele>558.0</ele><time>2026-05-03T13:34:25.149Z</time></trkpt><trkpt lat="44.2329863" lon="8.2656281"><ele>553.6</ele><time>2026-05-03T13:34:26.149Z</time></trkpt><trkpt lat="44.2329106" lon="8.2657635"><ele>549.1999999999999</ele><time>2026-05-03T13:34:27.149Z</time></trkpt><trkpt lat="44.2328277" lon="8.2658705"><ele>544.8</ele><time>2026-05-03T13:34:28.149Z</time></trkpt><trkpt lat="44.2327652" lon="8.2659512"><ele>540.4</ele><time>2026-05-03T13:34:29.149Z</time></trkpt><trkpt lat="44.2327282" lon="8.2660261"><ele>536.0</ele><time>2026-05-03T13:34:30.149Z</time></trkpt><trkpt lat="44.232687" lon="8.2661567"><ele>536.0</ele><time>2026-05-03T13:34:32.149Z</time></trkpt><trkpt lat="44.2326958" lon="8.2662758"><ele>536.0</ele><time>2026-05-03T13:34:34.149Z</time></trkpt><trkpt lat="44.232719" lon="8.2663857"><ele>536.0</ele><time>2026-05-03T13:34:37.06Z</time></trkpt><trkpt lat="44.2327275" lon="8.2664833"><ele>536.0</ele><time>2026-05-03T13:34:40.119Z</time></trkpt><trkpt lat="44.2327202" lon="8.2665993"><ele>536.0</ele><time>2026-05-03T13:34:42.149Z</time></trkpt><trkpt lat="44.2326459" lon="8.2666647"><ele>536.0</ele><time>2026-05-03T13:34:45.149Z</time></trkpt><trkpt lat="44.2325577" lon="8.266696"><ele>535.6666666666666</ele><time>2026-05-03T13:34:47.149Z</time></trkpt><trkpt lat="44.2324624" lon="8.2667136"><ele>535.3333333333333</ele><time>2026-05-03T13:34:49.149Z</time></trkpt><trkpt lat="44.2323933" lon="8.2667761"><ele>535.0</ele><time>2026-05-03T13:34:50.15Z</time></trkpt><trkpt lat="44.2323086" lon="8.2668157"><ele>534.6666666666666</ele><time>2026-05-03T13:34:52.15Z</time></trkpt><trkpt lat="44.2322424" lon="8.2668243"><ele>534.3333333333334</ele><time>2026-05-03T13:34:53.149Z</time></trkpt><trkpt lat="44.2321598" lon="8.2668236"><ele>534.0</ele><time>2026-05-03T13:34:54.15Z</time></trkpt><trkpt lat="44.2320592" lon="8.2667939"><ele>534.0</ele><time>2026-05-03T13:34:56.149Z</time></trkpt><trkpt lat="44.2319481" lon="8.2667958"><ele>534.0</ele><time>2026-05-03T13:34:58.149Z</time></trkpt><trkpt lat="44.2318569" lon="8.2668398"><ele>534.0</ele><time>2026-05-03T13:35:01.149Z</time></trkpt><trkpt lat="44.2317883" lon="8.2668539"><ele>534.0</ele><time>2026-05-03T13:35:03.149Z</time></trkpt><trkpt lat="44.2317018" lon="8.2668375"><ele>534.0</ele><time>2026-05-03T13:35:05.15Z</time></trkpt><trkpt lat="44.2316321" lon="8.2668242"><ele>534.0</ele><time>2026-05-03T13:35:06.149Z</time></trkpt><trkpt lat="44.2315225" lon="8.2668705"><ele>531.5</ele><time>2026-05-03T13:35:08.149Z</time></trkpt><trkpt lat="44.2314268" lon="8.2669086"><ele>529.0</ele><time>2026-05-03T13:35:10.149Z</time></trkpt><trkpt lat="44.2313412" lon="8.2669129"><ele>526.5</ele><time>2026-05-03T13:35:12.149Z</time></trkpt><trkpt lat="44.2312647" lon="8.2669503"><ele>524.0</ele><time>2026-05-03T13:35:14.149Z</time></trkpt><trkpt lat="44.2312087" lon="8.2669919"><ele>521.5</ele><time>2026-05-03T13:35:19.149Z</time></trkpt><trkpt lat="44.2311388" lon="8.2670142"><ele>519.0</ele><time>2026-05-03T13:35:32.149Z</time></trkpt><trkpt lat="44.2310471" lon="8.2670549"><ele>519.0</ele><time>2026-05-03T13:35:34.149Z</time></trkpt><trkpt lat="44.2309733" lon="8.2671009"><ele>519.0</ele><time>2026-05-03T13:35:36.149Z</time></trkpt><trkpt lat="44.2309205" lon="8.2671751"><ele>519.0</ele><time>2026-05-03T13:35:38.149Z</time></trkpt><trkpt lat="44.2308537" lon="8.2672013"><ele>519.0</ele><time>2026-05-03T13:35:40.149Z</time></trkpt><trkpt lat="44.2307746" lon="8.2671459"><ele>519.0</ele><time>2026-05-03T13:35:42.149Z</time></trkpt><trkpt lat="44.2307058" lon="8.2670765"><ele>519.0</ele><time>2026-05-03T13:35:44.149Z</time></trkpt><trkpt lat="44.230781" lon="8.267047"><ele>519.0</ele><time>2026-05-03T13:35:45.17Z</time></trkpt><trkpt lat="44.2307165" lon="8.2669826"><ele>519.0</ele><time>2026-05-03T13:35:47.149Z</time></trkpt><trkpt lat="44.2306727" lon="8.2669164"><ele>519.0</ele><time>2026-05-03T13:35:49.139Z</time></trkpt><trkpt lat="44.2305726" lon="8.2668882"><ele>519.0</ele><time>2026-05-03T13:35:51.15Z</time></trkpt><trkpt lat="44.230514" lon="8.2668373"><ele>519.0</ele><time>2026-05-03T13:35:54.149Z</time></trkpt><trkpt lat="44.2304151" lon="8.2668382"><ele>519.0</ele><time>2026-05-03T13:36:29.149Z</time></trkpt><trkpt lat="44.2303725" lon="8.2669303"><ele>518.3333333333334</ele><time>2026-05-03T13:36:31.15Z</time></trkpt><trkpt lat="44.2303248" lon="8.2670067"><ele>517.6666666666666</ele><time>2026-05-03T13:36:33.149Z</time></trkpt><trkpt lat="44.2302974" lon="8.2671241"><ele>517.0</ele><time>2026-05-03T13:36:35.149Z</time></trkpt><trkpt lat="44.2302766" lon="8.2672276"><ele>516.3333333333333</ele><time>2026-05-03T13:36:37.149Z</time></trkpt><trkpt lat="44.2302559" lon="8.2673514"><ele>515.6666666666666</ele><time>2026-05-03T13:36:39.149Z</time></trkpt><trkpt lat="44.2302392" lon="8.2674733"><ele>515.0</ele><time>2026-05-03T13:36:41.149Z</time></trkpt><trkpt lat="44.2302209" lon="8.2675644"><ele>515.0</ele><time>2026-05-03T13:36:43.149Z</time></trkpt><trkpt lat="44.2302082" lon="8.2676884"><ele>515.0</ele><time>2026-05-03T13:36:45.149Z</time></trkpt><trkpt lat="44.2301634" lon="8.2677675"><ele>515.0</ele><time>2026-05-03T13:36:49.149Z</time></trkpt><trkpt lat="44.230116" lon="8.2678318"><ele>515.0</ele><time>2026-05-03T13:36:54.149Z</time></trkpt><trkpt lat="44.2300884" lon="8.2679137"><ele>515.0</ele><time>2026-05-03T13:36:58.149Z</time></trkpt><trkpt lat="44.2300676" lon="8.2677757"><ele>515.0</ele><time>2026-05-03T13:38:50.149Z</time></trkpt><trkpt lat="44.2301" lon="8.2676232"><ele>515.0</ele><time>2026-05-03T13:38:52.149Z</time></trkpt><trkpt lat="44.2301125" lon="8.2674853"><ele>515.0</ele><time>2026-05-03T13:38:54.149Z</time></trkpt><trkpt lat="44.2301202" lon="8.2673976"><ele>515.0</ele><time>2026-05-03T13:38:55.15Z</time></trkpt><trkpt lat="44.2301469" lon="8.267294"><ele>515.0</ele><time>2026-05-03T13:38:56.149Z</time></trkpt><trkpt lat="44.2301946" lon="8.2671341"><ele>515.0</ele><time>2026-05-03T13:38:58.149Z</time></trkpt><trkpt lat="44.230248" lon="8.2670754"><ele>515.0</ele><time>2026-05-03T13:38:59.149Z</time></trkpt><trkpt lat="44.2302909" lon="8.2669896"><ele>513.3333333333333</ele><time>2026-05-03T13:39:00.15Z</time></trkpt><trkpt lat="44.2303684" lon="8.2668877"><ele>511.66666666666663</ele><time>2026-05-03T13:39:02.149Z</time></trkpt><trkpt lat="44.2303642" lon="8.2667593"><ele>510.0</ele><time>2026-05-03T13:39:04.15Z</time></trkpt><trkpt lat="44.2302977" lon="8.2666652"><ele>508.33333333333337</ele><time>2026-05-03T13:39:07.149Z</time></trkpt><trkpt lat="44.230223" lon="8.2666082"><ele>506.6666666666667</ele><time>2026-05-03T13:39:10.149Z</time></trkpt><trkpt lat="44.2301719" lon="8.2665562"><ele>505.0</ele><time>2026-05-03T13:39:12.149Z</time></trkpt><trkpt lat="44.2301184" lon="8.2664416"><ele>503.0</ele><time>2026-05-03T13:39:25.149Z</time></trkpt><trkpt lat="44.2301046" lon="8.2662803"><ele>501.0</ele><time>2026-05-03T13:39:27.149Z</time></trkpt><trkpt lat="44.2300967" lon="8.2661651"><ele>499.0</ele><time>2026-05-03T13:39:28.149Z</time></trkpt><trkpt lat="44.2300936" lon="8.2660363"><ele>497.0</ele><time>2026-05-03T13:39:29.149Z</time></trkpt><trkpt lat="44.2300937" lon="8.2659483"><ele>495.0</ele><time>2026-05-03T13:39:30.149Z</time></trkpt><trkpt lat="44.230069" lon="8.2657918"><ele>494.99999999999994</ele><time>2026-05-03T13:39:32.15Z</time></trkpt><trkpt lat="44.2300346" lon="8.2656997"><ele>495.0</ele><time>2026-05-03T13:39:33.149Z</time></trkpt><trkpt lat="44.2300002" lon="8.2655964"><ele>494.99999999999994</ele><time>2026-05-03T13:39:34.15Z</time></trkpt><trkpt lat="44.2299744" lon="8.2655124"><ele>494.99999999999994</ele><time>2026-05-03T13:39:35.149Z</time></trkpt><trkpt lat="44.2299617" lon="8.2654077"><ele>495.0</ele><time>2026-05-03T13:39:36.149Z</time></trkpt><trkpt lat="44.2299412" lon="8.2653114"><ele>494.99999999999994</ele><time>2026-05-03T13:39:37.149Z</time></trkpt><trkpt lat="44.2299332" lon="8.265221"><ele>494.99999999999994</ele><time>2026-05-03T13:39:38.15Z</time></trkpt><trkpt lat="44.2299218" lon="8.2650486"><ele>493.5</ele><time>2026-05-03T13:39:40.149Z</time></trkpt><trkpt lat="44.229922" lon="8.2649586"><ele>492.0</ele><time>2026-05-03T13:39:41.149Z</time></trkpt><trkpt lat="44.2299432" lon="8.2648696"><ele>490.5</ele><time>2026-05-03T13:39:42.149Z</time></trkpt><trkpt lat="44.2299912" lon="8.2647869"><ele>489.0</ele><time>2026-05-03T13:39:43.149Z</time></trkpt><trkpt lat="44.2300207" lon="8.2647046"><ele>487.5</ele><time>2026-05-03T13:39:44.149Z</time></trkpt><trkpt lat="44.2300862" lon="8.264558"><ele>486.0</ele><time>2026-05-03T13:39:46.149Z</time></trkpt><trkpt lat="44.2301201" lon="8.2644788"><ele>485.0</ele><time>2026-05-03T13:39:47.149Z</time></trkpt><trkpt lat="44.2301416" lon="8.2643794"><ele>484.0</ele><time>2026-05-03T13:39:48.149Z</time></trkpt><trkpt lat="44.2301754" lon="8.2642792"><ele>483.0</ele><time>2026-05-03T13:39:49.149Z</time></trkpt><trkpt lat="44.2301924" lon="8.2641936"><ele>482.0</ele><time>2026-05-03T13:39:50.149Z</time></trkpt><trkpt lat="44.2302192" lon="8.2640155"><ele>481.0</ele><time>2026-05-03T13:39:52.149Z</time></trkpt><trkpt lat="44.2302242" lon="8.2639153"><ele>480.0</ele><time>2026-05-03T13:39:53.149Z</time></trkpt><trkpt lat="44.2302206" lon="8.2637376"><ele>478.5</ele><time>2026-05-03T13:39:55.149Z</time></trkpt><trkpt lat="44.2302125" lon="8.2636315"><ele>477.0</ele><time>2026-05-03T13:39:56.149Z</time></trkpt><trkpt lat="44.2301772" lon="8.2635326"><ele>475.5</ele><time>2026-05-03T13:39:57.149Z</time></trkpt><trkpt lat="44.2301502" lon="8.2634496"><ele>474.0</ele><time>2026-05-03T13:39:58.149Z</time></trkpt><trkpt lat="44.2301146" lon="8.2633518"><ele>472.5</ele><time>2026-05-03T13:39:59.149Z</time></trkpt><trkpt lat="44.2300583" lon="8.2632677"><ele>471.0</ele><time>2026-05-03T13:40:00.151Z</time></trkpt><trkpt lat="44.2300049" lon="8.2631872"><ele>468.0</ele><time>2026-05-03T13:40:01.15Z</time></trkpt><trkpt lat="44.2299471" lon="8.2630919"><ele>465.0</ele><time>2026-05-03T13:40:02.149Z</time></trkpt><trkpt lat="44.2299024" lon="8.2630293"><ele>462.0</ele><time>2026-05-03T13:40:03.15Z</time></trkpt><trkpt lat="44.2298543" lon="8.2629471"><ele>459.0</ele><time>2026-05-03T13:40:04.15Z</time></trkpt><trkpt lat="44.2298072" lon="8.2628691"><ele>456.0</ele><time>2026-05-03T13:40:05.149Z</time></trkpt><trkpt lat="44.2296841" lon="8.2627502"><ele>456.0</ele><time>2026-05-03T13:40:07.149Z</time></trkpt><trkpt lat="44.2296255" lon="8.2627037"><ele>456.0</ele><time>2026-05-03T13:40:08.149Z</time></trkpt><trkpt lat="44.2295565" lon="8.2626339"><ele>456.0</ele><time>2026-05-03T13:40:09.15Z</time></trkpt><trkpt lat="44.2294839" lon="8.2626547"><ele>456.0</ele><time>2026-05-03T13:40:10.15Z</time></trkpt><trkpt lat="44.2293921" lon="8.2627053"><ele>456.0</ele><time>2026-05-03T13:40:12.15Z</time></trkpt><trkpt lat="44.2293189" lon="8.2628325"><ele>456.0</ele><time>2026-05-03T13:40:14.15Z</time></trkpt><trkpt lat="44.2292739" lon="8.262938"><ele>456.0</ele><time>2026-05-03T13:40:15.15Z</time></trkpt><trkpt lat="44.2292493" lon="8.2630308"><ele>456.0</ele><time>2026-05-03T13:40:16.15Z</time></trkpt><trkpt lat="44.2292208" lon="8.263137"><ele>456.0</ele><time>2026-05-03T13:40:17.15Z</time></trkpt><trkpt lat="44.229184" lon="8.2632492"><ele>456.0</ele><time>2026-05-03T13:40:18.15Z</time></trkpt><trkpt lat="44.2291674" lon="8.2633513"><ele>456.0</ele><time>2026-05-03T13:40:19.151Z</time></trkpt><trkpt lat="44.2291565" lon="8.2634404"><ele>456.0</ele><time>2026-05-03T13:40:20.151Z</time></trkpt><trkpt lat="44.2291445" lon="8.2635617"><ele>457.20000000000005</ele><time>2026-05-03T13:40:22.15Z</time></trkpt><trkpt lat="44.2291031" lon="8.2636574"><ele>458.40000000000003</ele><time>2026-05-03T13:40:24.15Z</time></trkpt><trkpt lat="44.2290222" lon="8.2636786"><ele>459.6</ele><time>2026-05-03T13:40:26.15Z</time></trkpt><trkpt lat="44.2289839" lon="8.2635947"><ele>460.8</ele><time>2026-05-03T13:40:29.15Z</time></trkpt><trkpt lat="44.2288908" lon="8.2634043"><ele>462.0</ele><time>2026-05-03T13:40:32.15Z</time></trkpt><trkpt lat="44.2288215" lon="8.2632566"><ele>456.6</ele><time>2026-05-03T13:40:34.15Z</time></trkpt><trkpt lat="44.228753" lon="8.2631453"><ele>451.20000000000005</ele><time>2026-05-03T13:40:36.15Z</time></trkpt><trkpt lat="44.2286891" lon="8.263039"><ele>445.8</ele><time>2026-05-03T13:40:38.151Z</time></trkpt><trkpt lat="44.2286256" lon="8.2629969"><ele>440.4</ele><time>2026-05-03T13:40:39.151Z</time></trkpt><trkpt lat="44.228578" lon="8.2629367"><ele>435.0</ele><time>2026-05-03T13:40:40.151Z</time></trkpt><trkpt lat="44.2284531" lon="8.2629561"><ele>435.0</ele><time>2026-05-03T13:40:42.15Z</time></trkpt><trkpt lat="44.2283879" lon="8.2630118"><ele>435.0</ele><time>2026-05-03T13:40:44.15Z</time></trkpt><trkpt lat="44.2283421" lon="8.2631567"><ele>435.0</ele><time>2026-05-03T13:40:46.151Z</time></trkpt><trkpt lat="44.2282639" lon="8.2632749"><ele>435.0</ele><time>2026-05-03T13:40:48.15Z</time></trkpt><trkpt lat="44.2281982" lon="8.2632515"><ele>435.0</ele><time>2026-05-03T13:40:49.15Z</time></trkpt><trkpt lat="44.2281215" lon="8.2632544"><ele>430.2</ele><time>2026-05-03T13:40:50.15Z</time></trkpt><trkpt lat="44.2280202" lon="8.2632835"><ele>425.4</ele><time>2026-05-03T13:40:52.15Z</time></trkpt><trkpt lat="44.2279273" lon="8.2633564"><ele>420.6</ele><time>2026-05-03T13:40:54.151Z</time></trkpt><trkpt lat="44.2278577" lon="8.2634712"><ele>415.8</ele><time>2026-05-03T13:40:56.15Z</time></trkpt><trkpt lat="44.2278049" lon="8.2636204"><ele>411.0</ele><time>2026-05-03T13:40:58.15Z</time></trkpt><trkpt lat="44.2277775" lon="8.2637726"><ele>411.0</ele><time>2026-05-03T13:41:00.15Z</time></trkpt><trkpt lat="44.2277203" lon="8.2639126"><ele>411.0</ele><time>2026-05-03T13:41:02.151Z</time></trkpt><trkpt lat="44.227661" lon="8.2640865"><ele>411.0</ele><time>2026-05-03T13:41:04.151Z</time></trkpt><trkpt lat="44.227649" lon="8.2642173"><ele>411.0</ele><time>2026-05-03T13:41:06.15Z</time></trkpt><trkpt lat="44.2276073" lon="8.2643108"><ele>411.0</ele><time>2026-05-03T13:41:09.15Z</time></trkpt><trkpt lat="44.2275158" lon="8.2644106"><ele>410.6</ele><time>2026-05-03T13:42:45.151Z</time></trkpt><trkpt lat="44.2274004" lon="8.2643929"><ele>410.20000000000005</ele><time>2026-05-03T13:42:46.15Z</time></trkpt><trkpt lat="44.2273183" lon="8.2643958"><ele>409.79999999999995</ele><time>2026-05-03T13:42:47.15Z</time></trkpt><trkpt lat="44.2271997" lon="8.2643382"><ele>409.4</ele><time>2026-05-03T13:42:49.15Z</time></trkpt><trkpt lat="44.227159" lon="8.2642531"><ele>409.0</ele><time>2026-05-03T13:42:50.15Z</time></trkpt><trkpt lat="44.2271472" lon="8.2640671"><ele>404.50000000000006</ele><time>2026-05-03T13:42:52.151Z</time></trkpt><trkpt lat="44.2271595" lon="8.263964"><ele>400.0</ele><time>2026-05-03T13:42:53.15Z</time></trkpt><trkpt lat="44.2271741" lon="8.2638724"><ele>395.5</ele><time>2026-05-03T13:42:54.15Z</time></trkpt><trkpt lat="44.2271645" lon="8.2636878"><ele>391.0</ele><time>2026-05-03T13:42:56.15Z</time></trkpt><trkpt lat="44.2271115" lon="8.263629"><ele>386.5</ele><time>2026-05-03T13:42:57.15Z</time></trkpt><trkpt lat="44.2270489" lon="8.2635829"><ele>382.0</ele><time>2026-05-03T13:42:58.151Z</time></trkpt><trkpt lat="44.2269988" lon="8.2635275"><ele>382.0</ele><time>2026-05-03T13:42:59.15Z</time></trkpt><trkpt lat="44.226932" lon="8.2635524"><ele>382.0</ele><time>2026-05-03T13:43:00.15Z</time></trkpt><trkpt lat="44.2268368" lon="8.2637209"><ele>382.0</ele><time>2026-05-03T13:43:02.15Z</time></trkpt><trkpt lat="44.22687" lon="8.2638993"><ele>382.0</ele><time>2026-05-03T13:43:03.15Z</time></trkpt><trkpt lat="44.2268555" lon="8.2640143"><ele>382.0</ele><time>2026-05-03T13:43:04.15Z</time></trkpt><trkpt lat="44.2268483" lon="8.2641061"><ele>382.0</ele><time>2026-05-03T13:43:05.15Z</time></trkpt><trkpt lat="44.226784" lon="8.264222"><ele>382.0</ele><time>2026-05-03T13:43:07.152Z</time></trkpt><trkpt lat="44.2267064" lon="8.2642314"><ele>382.0</ele><time>2026-05-03T13:43:08.15Z</time></trkpt><trkpt lat="44.2266607" lon="8.2640889"><ele>382.0</ele><time>2026-05-03T13:43:09.15Z</time></trkpt><trkpt lat="44.2265967" lon="8.2640399"><ele>382.0</ele><time>2026-05-03T13:43:10.15Z</time></trkpt><trkpt lat="44.2265245" lon="8.2639828"><ele>378.16666666666663</ele><time>2026-05-03T13:43:11.15Z</time></trkpt><trkpt lat="44.226447" lon="8.2639321"><ele>374.3333333333333</ele><time>2026-05-03T13:43:12.15Z</time></trkpt><trkpt lat="44.2263832" lon="8.263914"><ele>370.5</ele><time>2026-05-03T13:43:13.15Z</time></trkpt><trkpt lat="44.226319" lon="8.2638989"><ele>366.6666666666667</ele><time>2026-05-03T13:43:14.15Z</time></trkpt><trkpt lat="44.2262357" lon="8.2638117"><ele>362.83333333333337</ele><time>2026-05-03T13:43:16.151Z</time></trkpt><trkpt lat="44.2262408" lon="8.2636707"><ele>359.0</ele><time>2026-05-03T13:43:17.151Z</time></trkpt><trkpt lat="44.22624" lon="8.2635616"><ele>359.0</ele><time>2026-05-03T13:43:18.15Z</time></trkpt><trkpt lat="44.2262424" lon="8.2634512"><ele>359.0</ele><time>2026-05-03T13:43:19.15Z</time></trkpt><trkpt lat="44.2262445" lon="8.2633555"><ele>359.0</ele><time>2026-05-03T13:43:20.15Z</time></trkpt><trkpt lat="44.226257" lon="8.263197"><ele>359.0</ele><time>2026-05-03T13:43:22.151Z</time></trkpt><trkpt lat="44.2261781" lon="8.2631149"><ele>359.0</ele><time>2026-05-03T13:43:24.15Z</time></trkpt><trkpt lat="44.2261102" lon="8.2630357"><ele>359.0</ele><time>2026-05-03T13:43:26.15Z</time></trkpt><trkpt lat="44.2261386" lon="8.2628838"><ele>356.6</ele><time>2026-05-03T13:43:28.15Z</time></trkpt><trkpt lat="44.2261835" lon="8.2627999"><ele>354.2</ele><time>2026-05-03T13:43:29.15Z</time></trkpt><trkpt lat="44.2262323" lon="8.2627026"><ele>351.8</ele><time>2026-05-03T13:43:30.151Z</time></trkpt><trkpt lat="44.2262861" lon="8.2625978"><ele>349.40000000000003</ele><time>2026-05-03T13:43:31.15Z</time></trkpt><trkpt lat="44.2263401" lon="8.2624787"><ele>347.0</ele><time>2026-05-03T13:43:32.15Z</time></trkpt><trkpt lat="44.2263891" lon="8.2623518"><ele>343.8</ele><time>2026-05-03T13:43:33.151Z</time></trkpt><trkpt lat="44.2264243" lon="8.2622179"><ele>340.6</ele><time>2026-05-03T13:43:34.15Z</time></trkpt><trkpt lat="44.2264408" lon="8.262077"><ele>337.40000000000003</ele><time>2026-05-03T13:43:35.151Z</time></trkpt><trkpt lat="44.2264393" lon="8.2619389"><ele>334.20000000000005</ele><time>2026-05-03T13:43:36.15Z</time></trkpt><trkpt lat="44.2264236" lon="8.2618062"><ele>331.0</ele><time>2026-05-03T13:43:37.15Z</time></trkpt><trkpt lat="44.2264243" lon="8.2616708"><ele>331.0</ele><time>2026-05-03T13:43:38.15Z</time></trkpt><trkpt lat="44.2264357" lon="8.2615367"><ele>331.0</ele><time>2026-05-03T13:43:39.151Z</time></trkpt><trkpt lat="44.2264432" lon="8.2614123"><ele>331.0</ele><time>2026-05-03T13:43:40.15Z</time></trkpt><trkpt lat="44.2264512" lon="8.2613149"><ele>331.0</ele><time>2026-05-03T13:43:41.15Z</time></trkpt><trkpt lat="44.226452" lon="8.2611793"><ele>331.0</ele><time>2026-05-03T13:43:43.15Z</time></trkpt><trkpt lat="44.2263779" lon="8.2611737"><ele>331.0</ele><time>2026-05-03T13:43:46.15Z</time></trkpt><trkpt lat="44.2263813" lon="8.2613222"><ele>331.0</ele><time>2026-05-03T13:43:48.15Z</time></trkpt><trkpt lat="44.2263898" lon="8.2614278"><ele>331.0</ele><time>2026-05-03T13:43:49.15Z</time></trkpt><trkpt lat="44.2263608" lon="8.2615448"><ele>331.0</ele><time>2026-05-03T13:43:50.15Z</time></trkpt><trkpt lat="44.2263272" lon="8.261655"><ele>331.0</ele><time>2026-05-03T13:43:51.15Z</time></trkpt><trkpt lat="44.2263223" lon="8.2617727"><ele>331.0</ele><time>2026-05-03T13:43:52.15Z</time></trkpt><trkpt lat="44.2263306" lon="8.2618811"><ele>331.0</ele><time>2026-05-03T13:43:53.15Z</time></trkpt><trkpt lat="44.2263291" lon="8.2619959"><ele>331.0</ele><time>2026-05-03T13:43:54.15Z</time></trkpt><trkpt lat="44.2263055" lon="8.2620982"><ele>331.0</ele><time>2026-05-03T13:43:55.15Z</time></trkpt><trkpt lat="44.2262512" lon="8.2621864"><ele>331.0</ele><time>2026-05-03T13:43:56.15Z</time></trkpt><trkpt lat="44.226176" lon="8.2622446"><ele>331.0</ele><time>2026-05-03T13:43:57.151Z</time></trkpt><trkpt lat="44.2260902" lon="8.2622927"><ele>331.0</ele><time>2026-05-03T13:43:58.15Z</time></trkpt><trkpt lat="44.225982" lon="8.2623336"><ele>330.4</ele><time>2026-05-03T13:43:59.15Z</time></trkpt><trkpt lat="44.2258867" lon="8.262301"><ele>329.8</ele><time>2026-05-03T13:44:00.15Z</time></trkpt><trkpt lat="44.2257862" lon="8.2623052"><ele>329.2</ele><time>2026-05-03T13:44:01.15Z</time></trkpt><trkpt lat="44.2256777" lon="8.2623026"><ele>328.59999999999997</ele><time>2026-05-03T13:44:02.151Z</time></trkpt><trkpt lat="44.22557" lon="8.2623034"><ele>328.0</ele><time>2026-05-03T13:44:03.15Z</time></trkpt><trkpt lat="44.2254674" lon="8.2623146"><ele>328.0</ele><time>2026-05-03T13:44:04.15Z</time></trkpt><trkpt lat="44.2253557" lon="8.2623616"><ele>328.0</ele><time>2026-05-03T13:44:05.15Z</time></trkpt><trkpt lat="44.2252731" lon="8.2624235"><ele>328.0</ele><time>2026-05-03T13:44:06.151Z</time></trkpt><trkpt lat="44.2251864" lon="8.2625351"><ele>328.0</ele><time>2026-05-03T13:44:07.151Z</time></trkpt><trkpt lat="44.2250862" lon="8.2625705"><ele>328.0</ele><time>2026-05-03T13:44:08.15Z</time></trkpt><trkpt lat="44.2249847" lon="8.2626316"><ele>328.0</ele><time>2026-05-03T13:44:09.15Z</time></trkpt><trkpt lat="44.224896" lon="8.2626729"><ele>328.0</ele><time>2026-05-03T13:44:10.151Z</time></trkpt><trkpt lat="44.2248008" lon="8.2626842"><ele>328.0</ele><time>2026-05-03T13:44:11.15Z</time></trkpt><trkpt lat="44.2247065" lon="8.2626978"><ele>328.0</ele><time>2026-05-03T13:44:12.15Z</time></trkpt><trkpt lat="44.2246287" lon="8.2627462"><ele>328.0</ele><time>2026-05-03T13:44:13.15Z</time></trkpt><trkpt lat="44.2245758" lon="8.2628126"><ele>328.0</ele><time>2026-05-03T13:44:14.15Z</time></trkpt><trkpt lat="44.2245461" lon="8.2629023"><ele>325.8333333333333</ele><time>2026-05-03T13:44:15.15Z</time></trkpt><trkpt lat="44.2245262" lon="8.2629921"><ele>323.66666666666663</ele><time>2026-05-03T13:44:16.15Z</time></trkpt><trkpt lat="44.224517" lon="8.2630969"><ele>321.5</ele><time>2026-05-03T13:44:17.15Z</time></trkpt><trkpt lat="44.2245112" lon="8.2632028"><ele>319.3333333333333</ele><time>2026-05-03T13:44:18.151Z</time></trkpt><trkpt lat="44.2245196" lon="8.2633205"><ele>317.1666666666667</ele><time>2026-05-03T13:44:19.15Z</time></trkpt><trkpt lat="44.2245378" lon="8.263437"><ele>315.0</ele><time>2026-05-03T13:44:20.15Z</time></trkpt><trkpt lat="44.2245651" lon="8.2635535"><ele>315.0</ele><time>2026-05-03T13:44:21.15Z</time></trkpt><trkpt lat="44.2246035" lon="8.2636702"><ele>315.0</ele><time>2026-05-03T13:44:22.15Z</time></trkpt><trkpt lat="44.2246521" lon="8.263774"><ele>315.0</ele><time>2026-05-03T13:44:23.15Z</time></trkpt><trkpt lat="44.2247004" lon="8.2638729"><ele>315.0</ele><time>2026-05-03T13:44:24.15Z</time></trkpt><trkpt lat="44.224747" lon="8.2639708"><ele>315.0</ele><time>2026-05-03T13:44:25.151Z</time></trkpt><trkpt lat="44.2247941" lon="8.2640824"><ele>315.0</ele><time>2026-05-03T13:44:26.15Z</time></trkpt><trkpt lat="44.2248234" lon="8.2641956"><ele>318.0</ele><time>2026-05-03T13:44:27.151Z</time></trkpt><trkpt lat="44.224833" lon="8.2643107"><ele>321.0</ele><time>2026-05-03T13:44:28.151Z</time></trkpt><trkpt lat="44.2248502" lon="8.2644271"><ele>324.0</ele><time>2026-05-03T13:44:29.15Z</time></trkpt><trkpt lat="44.2249014" lon="8.2645301"><ele>327.0</ele><time>2026-05-03T13:44:30.15Z</time></trkpt><trkpt lat="44.2249656" lon="8.2646258"><ele>330.0</ele><time>2026-05-03T13:44:31.15Z</time></trkpt><trkpt lat="44.2250445" lon="8.2647169"><ele>328.0</ele><time>2026-05-03T13:44:32.15Z</time></trkpt><trkpt lat="44.2251319" lon="8.2647931"><ele>326.0</ele><time>2026-05-03T13:44:33.151Z</time></trkpt><trkpt lat="44.2252251" lon="8.2648538"><ele>324.0</ele><time>2026-05-03T13:44:34.15Z</time></trkpt><trkpt lat="44.2253075" lon="8.2649285"><ele>322.0</ele><time>2026-05-03T13:44:35.151Z</time></trkpt><trkpt lat="44.2253864" lon="8.265011"><ele>320.0</ele><time>2026-05-03T13:44:36.15Z</time></trkpt><trkpt lat="44.2254623" lon="8.2651039"><ele>320.0</ele><time>2026-05-03T13:44:37.15Z</time></trkpt><trkpt lat="44.2255381" lon="8.2651877"><ele>320.0</ele><time>2026-05-03T13:44:38.15Z</time></trkpt><trkpt lat="44.2255886" lon="8.2652737"><ele>320.0</ele><time>2026-05-03T13:44:39.15Z</time></trkpt><trkpt lat="44.2255862" lon="8.2653804"><ele>320.0</ele><time>2026-05-03T13:44:40.15Z</time></trkpt><trkpt lat="44.2255583" lon="8.2654617"><ele>320.0</ele><time>2026-05-03T13:44:41.15Z</time></trkpt><trkpt lat="44.2254992" lon="8.265529"><ele>320.0</ele><time>2026-05-03T13:44:42.15Z</time></trkpt><trkpt lat="44.2254362" lon="8.2656023"><ele>319.4</ele><time>2026-05-03T13:44:43.15Z</time></trkpt><trkpt lat="44.2253347" lon="8.2656744"><ele>318.8</ele><time>2026-05-03T13:44:44.15Z</time></trkpt><trkpt lat="44.2252473" lon="8.2657513"><ele>318.2</ele><time>2026-05-03T13:44:45.151Z</time></trkpt><trkpt lat="44.2251602" lon="8.2658331"><ele>317.6</ele><time>2026-05-03T13:44:46.15Z</time></trkpt><trkpt lat="44.2250794" lon="8.2659149"><ele>317.0</ele><time>2026-05-03T13:44:47.151Z</time></trkpt><trkpt lat="44.2249981" lon="8.2660065"><ele>317.0</ele><time>2026-05-03T13:44:48.15Z</time></trkpt><trkpt lat="44.2249255" lon="8.2660936"><ele>317.0</ele><time>2026-05-03T13:44:49.15Z</time></trkpt><trkpt lat="44.2248543" lon="8.2661941"><ele>317.0</ele><time>2026-05-03T13:44:50.151Z</time></trkpt><trkpt lat="44.2247919" lon="8.2662917"><ele>317.0</ele><time>2026-05-03T13:44:51.15Z</time></trkpt><trkpt lat="44.2247507" lon="8.2664021"><ele>317.0</ele><time>2026-05-03T13:44:52.15Z</time></trkpt><trkpt lat="44.224739" lon="8.2665073"><ele>314.6666666666667</ele><time>2026-05-03T13:44:53.15Z</time></trkpt><trkpt lat="44.2247385" lon="8.2666035"><ele>312.33333333333337</ele><time>2026-05-03T13:44:54.15Z</time></trkpt><trkpt lat="44.2247665" lon="8.2667029"><ele>310.0</ele><time>2026-05-03T13:44:55.15Z</time></trkpt><trkpt lat="44.224788" lon="8.2667896"><ele>307.6666666666667</ele><time>2026-05-03T13:44:56.15Z</time></trkpt><trkpt lat="44.2247948" lon="8.2668881"><ele>305.3333333333333</ele><time>2026-05-03T13:44:57.152Z</time></trkpt><trkpt lat="44.2247641" lon="8.2669686"><ele>303.0</ele><time>2026-05-03T13:44:58.15Z</time></trkpt><trkpt lat="44.2246353" lon="8.2670276"><ele>303.0</ele><time>2026-05-03T13:45:00.151Z</time></trkpt><trkpt lat="44.224551" lon="8.2670207"><ele>303.0</ele><time>2026-05-03T13:45:01.15Z</time></trkpt><trkpt lat="44.2244523" lon="8.2670083"><ele>303.0</ele><time>2026-05-03T13:45:02.15Z</time></trkpt><trkpt lat="44.2243542" lon="8.2670186"><ele>303.0</ele><time>2026-05-03T13:45:03.15Z</time></trkpt><trkpt lat="44.2242664" lon="8.2670624"><ele>303.0</ele><time>2026-05-03T13:45:04.151Z</time></trkpt><trkpt lat="44.2241928" lon="8.2671342"><ele>303.0</ele><time>2026-05-03T13:45:05.15Z</time></trkpt><trkpt lat="44.2241182" lon="8.2672002"><ele>303.0</ele><time>2026-05-03T13:45:06.15Z</time></trkpt><trkpt lat="44.2240361" lon="8.2672693"><ele>303.0</ele><time>2026-05-03T13:45:07.15Z</time></trkpt><trkpt lat="44.2239576" lon="8.2673358"><ele>303.0</ele><time>2026-05-03T13:45:08.15Z</time></trkpt><trkpt lat="44.2238814" lon="8.2674134"><ele>303.0</ele><time>2026-05-03T13:45:09.15Z</time></trkpt><trkpt lat="44.223802" lon="8.2674985"><ele>303.2</ele><time>2026-05-03T13:45:10.15Z</time></trkpt><trkpt lat="44.2237667" lon="8.267636"><ele>303.4</ele><time>2026-05-03T13:45:11.151Z</time></trkpt><trkpt lat="44.2237024" lon="8.267736"><ele>303.59999999999997</ele><time>2026-05-03T13:45:12.15Z</time></trkpt><trkpt lat="44.2236193" lon="8.2678164"><ele>303.8</ele><time>2026-05-03T13:45:13.15Z</time></trkpt><trkpt lat="44.2235264" lon="8.2678772"><ele>304.0</ele><time>2026-05-03T13:45:14.15Z</time></trkpt><trkpt lat="44.2234304" lon="8.2679349"><ele>304.0</ele><time>2026-05-03T13:45:15.152Z</time></trkpt><trkpt lat="44.2233403" lon="8.2679986"><ele>304.0</ele><time>2026-05-03T13:45:16.15Z</time></trkpt><trkpt lat="44.223239" lon="8.2680635"><ele>304.0</ele><time>2026-05-03T13:45:17.15Z</time></trkpt><trkpt lat="44.2231414" lon="8.2681296"><ele>304.0</ele><time>2026-05-03T13:45:18.15Z</time></trkpt><trkpt lat="44.223049" lon="8.2681795"><ele>304.0</ele><time>2026-05-03T13:45:19.15Z</time></trkpt><trkpt lat="44.2229513" lon="8.2681948"><ele>302.59999999999997</ele><time>2026-05-03T13:45:20.15Z</time></trkpt><trkpt lat="44.2228578" lon="8.2681716"><ele>301.2</ele><time>2026-05-03T13:45:21.15Z</time></trkpt><trkpt lat="44.2227708" lon="8.2681342"><ele>299.79999999999995</ele><time>2026-05-03T13:45:22.15Z</time></trkpt><trkpt lat="44.2226814" lon="8.2681048"><ele>298.4</ele><time>2026-05-03T13:45:23.151Z</time></trkpt><trkpt lat="44.2225937" lon="8.2681174"><ele>297.0</ele><time>2026-05-03T13:45:24.15Z</time></trkpt><trkpt lat="44.222509" lon="8.2681528"><ele>296.3333333333333</ele><time>2026-05-03T13:45:25.15Z</time></trkpt><trkpt lat="44.222425" lon="8.2681924"><ele>295.6666666666667</ele><time>2026-05-03T13:45:26.15Z</time></trkpt><trkpt lat="44.2223485" lon="8.2682592"><ele>295.0</ele><time>2026-05-03T13:45:27.151Z</time></trkpt><trkpt lat="44.2222814" lon="8.2683367"><ele>294.33333333333337</ele><time>2026-05-03T13:45:28.151Z</time></trkpt><trkpt lat="44.222227" lon="8.2684269"><ele>293.6666666666667</ele><time>2026-05-03T13:45:29.15Z</time></trkpt><trkpt lat="44.2221868" lon="8.2685305"><ele>293.0</ele><time>2026-05-03T13:45:30.15Z</time></trkpt><trkpt lat="44.2221554" lon="8.2686338"><ele>293.0</ele><time>2026-05-03T13:45:31.15Z</time></trkpt><trkpt lat="44.2221386" lon="8.2687423"><ele>293.0</ele><time>2026-05-03T13:45:32.151Z</time></trkpt><trkpt lat="44.2221445" lon="8.2688551"><ele>293.0</ele><time>2026-05-03T13:45:34.15Z</time></trkpt><trkpt lat="44.2222072" lon="8.268897"><ele>293.0</ele><time>2026-05-03T13:45:36.15Z</time></trkpt><trkpt lat="44.222343" lon="8.2689868"><ele>293.0</ele><time>2026-05-03T13:45:38.15Z</time></trkpt><trkpt lat="44.2224144" lon="8.2690426"><ele>298.6</ele><time>2026-05-03T13:45:39.15Z</time></trkpt><trkpt lat="44.2224707" lon="8.2691271"><ele>304.20000000000005</ele><time>2026-05-03T13:45:40.15Z</time></trkpt><trkpt lat="44.2225507" lon="8.2691988"><ele>309.8</ele><time>2026-05-03T13:45:41.15Z</time></trkpt><trkpt lat="44.2226185" lon="8.2693072"><ele>315.40000000000003</ele><time>2026-05-03T13:45:42.15Z</time></trkpt><trkpt lat="44.2226475" lon="8.2693873"><ele>321.0</ele><time>2026-05-03T13:45:43.15Z</time></trkpt><trkpt lat="44.2227264" lon="8.269508"><ele>320.99999999999994</ele><time>2026-05-03T13:45:45.15Z</time></trkpt><trkpt lat="44.222804" lon="8.2695418"><ele>321.0</ele><time>2026-05-03T13:45:46.15Z</time></trkpt><trkpt lat="44.2228733" lon="8.2695235"><ele>321.0</ele><time>2026-05-03T13:45:47.15Z</time></trkpt><trkpt lat="44.2229287" lon="8.2694738"><ele>321.0</ele><time>2026-05-03T13:45:48.151Z</time></trkpt><trkpt lat="44.2229551" lon="8.2693912"><ele>321.0</ele><time>2026-05-03T13:45:49.15Z</time></trkpt><trkpt lat="44.2229642" lon="8.2692986"><ele>320.99999999999994</ele><time>2026-05-03T13:45:50.15Z</time></trkpt><trkpt lat="44.2229914" lon="8.2692085"><ele>321.0</ele><time>2026-05-03T13:45:51.15Z</time></trkpt><trkpt lat="44.2230487" lon="8.2691466"><ele>321.0</ele><time>2026-05-03T13:45:52.15Z</time></trkpt><trkpt lat="44.2231302" lon="8.2691304"><ele>321.0</ele><time>2026-05-03T13:45:53.15Z</time></trkpt><trkpt lat="44.2232135" lon="8.2691239"><ele>321.0</ele><time>2026-05-03T13:45:54.15Z</time></trkpt><trkpt lat="44.2232968" lon="8.2691124"><ele>321.0</ele><time>2026-05-03T13:45:55.15Z</time></trkpt><trkpt lat="44.2233759" lon="8.2690894"><ele>321.0</ele><time>2026-05-03T13:45:56.15Z</time></trkpt><trkpt lat="44.2234526" lon="8.2691521"><ele>321.0</ele><time>2026-05-03T13:45:58.15Z</time></trkpt><trkpt lat="44.2234286" lon="8.2693071"><ele>324.1666666666667</ele><time>2026-05-03T13:46:00.151Z</time></trkpt><trkpt lat="44.2233906" lon="8.269391"><ele>327.3333333333333</ele><time>2026-05-03T13:46:01.15Z</time></trkpt><trkpt lat="44.223355" lon="8.2694857"><ele>330.5</ele><time>2026-05-03T13:46:02.15Z</time></trkpt><trkpt lat="44.223336" lon="8.2695876"><ele>333.66666666666663</ele><time>2026-05-03T13:46:03.15Z</time></trkpt><trkpt lat="44.2233193" lon="8.2697038"><ele>336.8333333333333</ele><time>2026-05-03T13:46:04.15Z</time></trkpt><trkpt lat="44.2233138" lon="8.2698178"><ele>340.0</ele><time>2026-05-03T13:46:05.15Z</time></trkpt><trkpt lat="44.2233045" lon="8.269934"><ele>341.8333333333333</ele><time>2026-05-03T13:46:06.15Z</time></trkpt><trkpt lat="44.2232837" lon="8.2700528"><ele>343.66666666666663</ele><time>2026-05-03T13:46:07.15Z</time></trkpt><trkpt lat="44.223271" lon="8.2701728"><ele>345.5</ele><time>2026-05-03T13:46:08.15Z</time></trkpt><trkpt lat="44.2232485" lon="8.2702855"><ele>347.3333333333333</ele><time>2026-05-03T13:46:09.151Z</time></trkpt><trkpt lat="44.2232239" lon="8.2703791"><ele>349.1666666666667</ele><time>2026-05-03T13:46:10.15Z</time></trkpt><trkpt lat="44.2232148" lon="8.2705263"><ele>351.0</ele><time>2026-05-03T13:46:12.151Z</time></trkpt><trkpt lat="44.2232682" lon="8.2706381"><ele>351.8333333333333</ele><time>2026-05-03T13:46:14.15Z</time></trkpt><trkpt lat="44.2233478" lon="8.2707634"><ele>352.6666666666667</ele><time>2026-05-03T13:46:16.15Z</time></trkpt><trkpt lat="44.2233581" lon="8.2708646"><ele>353.5</ele><time>2026-05-03T13:46:17.15Z</time></trkpt><trkpt lat="44.2233589" lon="8.2709686"><ele>354.33333333333337</ele><time>2026-05-03T13:46:18.151Z</time></trkpt><trkpt lat="44.2233513" lon="8.271088"><ele>355.1666666666667</ele><time>2026-05-03T13:46:19.15Z</time></trkpt><trkpt lat="44.2233564" lon="8.2712125"><ele>356.0</ele><time>2026-05-03T13:46:20.15Z</time></trkpt><trkpt lat="44.2233763" lon="8.27134"><ele>355.83333333333337</ele><time>2026-05-03T13:46:21.15Z</time></trkpt><trkpt lat="44.2233965" lon="8.2714551"><ele>355.6666666666667</ele><time>2026-05-03T13:46:22.15Z</time></trkpt><trkpt lat="44.2234216" lon="8.2715664"><ele>355.5</ele><time>2026-05-03T13:46:23.15Z</time></trkpt><trkpt lat="44.2234455" lon="8.2716729"><ele>355.3333333333333</ele><time>2026-05-03T13:46:24.15Z</time></trkpt><trkpt lat="44.2234701" lon="8.2717671"><ele>355.16666666666663</ele><time>2026-05-03T13:46:25.15Z</time></trkpt><trkpt lat="44.2234896" lon="8.2718526"><ele>355.0</ele><time>2026-05-03T13:46:26.151Z</time></trkpt><trkpt lat="44.2236155" lon="8.2719328"><ele>355.0</ele><time>2026-05-03T13:46:28.15Z</time></trkpt><trkpt lat="44.2237078" lon="8.2719573"><ele>355.0</ele><time>2026-05-03T13:46:29.15Z</time></trkpt><trkpt lat="44.2237906" lon="8.2719845"><ele>355.0</ele><time>2026-05-03T13:46:30.15Z</time></trkpt><trkpt lat="44.2238902" lon="8.2720176"><ele>355.0</ele><time>2026-05-03T13:46:31.15Z</time></trkpt><trkpt lat="44.2239817" lon="8.2720389"><ele>355.0</ele><time>2026-05-03T13:46:32.15Z</time></trkpt><trkpt lat="44.2240445" lon="8.2720516"><ele>355.0</ele><time>2026-05-03T13:46:33.15Z</time></trkpt><trkpt lat="44.2240965" lon="8.2719941"><ele>359.8</ele><time>2026-05-03T13:46:36.15Z</time></trkpt><trkpt lat="44.2241891" lon="8.2719508"><ele>364.6</ele><time>2026-05-03T13:47:39.15Z</time></trkpt><trkpt lat="44.2242816" lon="8.2719271"><ele>369.4</ele><time>2026-05-03T13:47:41.15Z</time></trkpt><trkpt lat="44.2243681" lon="8.2719655"><ele>374.2</ele><time>2026-05-03T13:47:43.15Z</time></trkpt><trkpt lat="44.2244405" lon="8.2720064"><ele>379.0</ele><time>2026-05-03T13:47:45.151Z</time></trkpt><trkpt lat="44.2243536" lon="8.2722014"><ele>379.5714285714286</ele><time>2026-05-03T13:47:47.15Z</time></trkpt><trkpt lat="44.2243049" lon="8.2722758"><ele>380.14285714285717</ele><time>2026-05-03T13:47:48.15Z</time></trkpt><trkpt lat="44.2242683" lon="8.2723652"><ele>380.7142857142857</ele><time>2026-05-03T13:47:49.15Z</time></trkpt><trkpt lat="44.2242361" lon="8.2724556"><ele>381.28571428571433</ele><time>2026-05-03T13:47:50.151Z</time></trkpt><trkpt lat="44.2241968" lon="8.2725405"><ele>381.85714285714283</ele><time>2026-05-03T13:47:51.15Z</time></trkpt><trkpt lat="44.2241583" lon="8.2726313"><ele>382.42857142857144</ele><time>2026-05-03T13:47:52.15Z</time></trkpt><trkpt lat="44.224142" lon="8.2727172"><ele>383.0</ele><time>2026-05-03T13:47:53.15Z</time></trkpt><trkpt lat="44.2241071" lon="8.2727928"><ele>383.0</ele><time>2026-05-03T13:47:54.15Z</time></trkpt><trkpt lat="44.2240787" lon="8.2728819"><ele>383.0</ele><time>2026-05-03T13:47:55.15Z</time></trkpt><trkpt lat="44.2240483" lon="8.2729778"><ele>383.0</ele><time>2026-05-03T13:47:56.151Z</time></trkpt><trkpt lat="44.223987" lon="8.2730175"><ele>383.0</ele><time>2026-05-03T13:47:57.15Z</time></trkpt><trkpt lat="44.2238905" lon="8.2731203"><ele>383.0</ele><time>2026-05-03T13:47:59.15Z</time></trkpt><trkpt lat="44.2238588" lon="8.2732938"><ele>381.33333333333337</ele><time>2026-05-03T13:48:01.15Z</time></trkpt><trkpt lat="44.223883" lon="8.2734759"><ele>379.6666666666667</ele><time>2026-05-03T13:48:03.15Z</time></trkpt><trkpt lat="44.2238996" lon="8.2735628"><ele>378.0</ele><time>2026-05-03T13:48:04.15Z</time></trkpt><trkpt lat="44.2239221" lon="8.2736539"><ele>376.3333333333333</ele><time>2026-05-03T13:48:05.15Z</time></trkpt><trkpt lat="44.2239601" lon="8.273736"><ele>374.66666666666663</ele><time>2026-05-03T13:48:06.151Z</time></trkpt><trkpt lat="44.2240399" lon="8.2738068"><ele>373.0</ele><time>2026-05-03T13:48:08.15Z</time></trkpt><trkpt lat="44.2241087" lon="8.2737304"><ele>377.5</ele><time>2026-05-03T13:48:09.151Z</time></trkpt><trkpt lat="44.2241778" lon="8.2736762"><ele>382.0</ele><time>2026-05-03T13:48:10.151Z</time></trkpt><trkpt lat="44.2242383" lon="8.2736236"><ele>386.5</ele><time>2026-05-03T13:48:11.15Z</time></trkpt><trkpt lat="44.2243099" lon="8.2735661"><ele>391.0</ele><time>2026-05-03T13:48:12.15Z</time></trkpt><trkpt lat="44.2243678" lon="8.2734921"><ele>395.50000000000006</ele><time>2026-05-03T13:48:13.15Z</time></trkpt><trkpt lat="44.224418" lon="8.2734296"><ele>400.0</ele><time>2026-05-03T13:48:14.151Z</time></trkpt><trkpt lat="44.2245086" lon="8.2733899"><ele>400.00000000000006</ele><time>2026-05-03T13:48:16.151Z</time></trkpt><trkpt lat="44.2245536" lon="8.2734962"><ele>400.0</ele><time>2026-05-03T13:48:18.151Z</time></trkpt><trkpt lat="44.2245663" lon="8.273644"><ele>400.0</ele><time>2026-05-03T13:48:20.151Z</time></trkpt><trkpt lat="44.2245776" lon="8.2737396"><ele>400.0</ele><time>2026-05-03T13:48:21.151Z</time></trkpt><trkpt lat="44.224639" lon="8.2738567"><ele>400.00000000000006</ele><time>2026-05-03T13:48:23.151Z</time></trkpt><trkpt lat="44.2246969" lon="8.2739046"><ele>400.0</ele><time>2026-05-03T13:48:24.15Z</time></trkpt><trkpt lat="44.2247758" lon="8.2739236"><ele>403.83333333333337</ele><time>2026-05-03T13:48:25.15Z</time></trkpt><trkpt lat="44.2248404" lon="8.2739375"><ele>407.6666666666667</ele><time>2026-05-03T13:48:26.15Z</time></trkpt><trkpt lat="44.2249194" lon="8.2739335"><ele>411.5</ele><time>2026-05-03T13:48:27.151Z</time></trkpt><trkpt lat="44.2249975" lon="8.2739181"><ele>415.33333333333337</ele><time>2026-05-03T13:48:28.15Z</time></trkpt><trkpt lat="44.2250769" lon="8.273896"><ele>419.1666666666667</ele><time>2026-05-03T13:48:29.151Z</time></trkpt><trkpt lat="44.2251557" lon="8.2738761"><ele>423.0</ele><time>2026-05-03T13:48:30.15Z</time></trkpt><trkpt lat="44.2252314" lon="8.2738526"><ele>423.0</ele><time>2026-05-03T13:48:31.15Z</time></trkpt><trkpt lat="44.2253109" lon="8.2738313"><ele>423.0</ele><time>2026-05-03T13:48:32.151Z</time></trkpt><trkpt lat="44.2253952" lon="8.2738197"><ele>423.0</ele><time>2026-05-03T13:48:33.15Z</time></trkpt><trkpt lat="44.2254819" lon="8.2738275"><ele>423.0</ele><time>2026-05-03T13:48:34.151Z</time></trkpt><trkpt lat="44.2255731" lon="8.2738545"><ele>423.0</ele><time>2026-05-03T13:48:35.15Z</time></trkpt><trkpt lat="44.2256677" lon="8.2738713"><ele>423.0</ele><time>2026-05-03T13:48:36.151Z</time></trkpt><trkpt lat="44.2257634" lon="8.2738626"><ele>425.6666666666667</ele><time>2026-05-03T13:48:37.15Z</time></trkpt><trkpt lat="44.2258557" lon="8.2738448"><ele>428.33333333333337</ele><time>2026-05-03T13:48:38.15Z</time></trkpt><trkpt lat="44.2259425" lon="8.2738276"><ele>431.0</ele><time>2026-05-03T13:48:39.15Z</time></trkpt><trkpt lat="44.2260257" lon="8.273817"><ele>433.6666666666667</ele><time>2026-05-03T13:48:40.151Z</time></trkpt><trkpt lat="44.2261123" lon="8.2738095"><ele>436.33333333333337</ele><time>2026-05-03T13:48:41.15Z</time></trkpt><trkpt lat="44.2262017" lon="8.2737996"><ele>439.0</ele><time>2026-05-03T13:48:42.15Z</time></trkpt><trkpt lat="44.2262971" lon="8.2737924"><ele>439.0</ele><time>2026-05-03T13:48:43.15Z</time></trkpt><trkpt lat="44.2263986" lon="8.2737846"><ele>439.0</ele><time>2026-05-03T13:48:44.151Z</time></trkpt><trkpt lat="44.2264987" lon="8.2737694"><ele>439.0</ele><time>2026-05-03T13:48:45.15Z</time></trkpt><trkpt lat="44.2266014" lon="8.2737496"><ele>439.0</ele><time>2026-05-03T13:48:46.15Z</time></trkpt><trkpt lat="44.2267081" lon="8.2737337"><ele>439.0</ele><time>2026-05-03T13:48:47.151Z</time></trkpt><trkpt lat="44.2268182" lon="8.2737244"><ele>443.25</ele><time>2026-05-03T13:48:48.15Z</time></trkpt><trkpt lat="44.2269339" lon="8.2737195"><ele>447.5</ele><time>2026-05-03T13:48:49.15Z</time></trkpt><trkpt lat="44.2270581" lon="8.2737288"><ele>451.75</ele><time>2026-05-03T13:48:50.15Z</time></trkpt><trkpt lat="44.2271776" lon="8.2737399"><ele>456.0</ele><time>2026-05-03T13:48:51.151Z</time></trkpt><trkpt lat="44.2272873" lon="8.2737378"><ele>459.0</ele><time>2026-05-03T13:48:52.15Z</time></trkpt><trkpt lat="44.2273869" lon="8.2737327"><ele>462.0</ele><time>2026-05-03T13:48:53.15Z</time></trkpt><trkpt lat="44.2274743" lon="8.2737306"><ele>465.0</ele><time>2026-05-03T13:48:54.15Z</time></trkpt><trkpt lat="44.2275563" lon="8.2737352"><ele>468.0</ele><time>2026-05-03T13:48:55.151Z</time></trkpt><trkpt lat="44.2276362" lon="8.2737449"><ele>471.0</ele><time>2026-05-03T13:48:56.15Z</time></trkpt><trkpt lat="44.2277023" lon="8.273745"><ele>474.0</ele><time>2026-05-03T13:48:57.15Z</time></trkpt><trkpt lat="44.2278197" lon="8.27372"><ele>474.0</ele><time>2026-05-03T13:48:59.15Z</time></trkpt><trkpt lat="44.2279159" lon="8.2736773"><ele>474.0</ele><time>2026-05-03T13:49:01.15Z</time></trkpt><trkpt lat="44.2279727" lon="8.2736287"><ele>474.0</ele><time>2026-05-03T13:49:05.15Z</time></trkpt><trkpt lat="44.2280613" lon="8.2735763"><ele>474.0</ele><time>2026-05-03T13:49:26.151Z</time></trkpt><trkpt lat="44.2281369" lon="8.2735604"><ele>474.0</ele><time>2026-05-03T13:49:28.15Z</time></trkpt><trkpt lat="44.228209" lon="8.2735685"><ele>474.0</ele><time>2026-05-03T13:49:30.15Z</time></trkpt><trkpt lat="44.228286" lon="8.2735954"><ele>473.0</ele><time>2026-05-03T13:49:33.15Z</time></trkpt><trkpt lat="44.2283565" lon="8.273609"><ele>472.0</ele><time>2026-05-03T13:49:35.15Z</time></trkpt><trkpt lat="44.2284143" lon="8.2736823"><ele>471.0</ele><time>2026-05-03T13:49:37.151Z</time></trkpt><trkpt lat="44.2284742" lon="8.2738347"><ele>470.0</ele><time>2026-05-03T13:49:39.151Z</time></trkpt><trkpt lat="44.2285088" lon="8.2739097"><ele>469.0</ele><time>2026-05-03T13:49:40.15Z</time></trkpt><trkpt lat="44.2285843" lon="8.274038"><ele>469.00000000000006</ele><time>2026-05-03T13:49:42.15Z</time></trkpt><trkpt lat="44.2286546" lon="8.2741449"><ele>469.0</ele><time>2026-05-03T13:49:44.151Z</time></trkpt><trkpt lat="44.2287198" lon="8.2742242"><ele>469.0</ele><time>2026-05-03T13:49:47.151Z</time></trkpt><trkpt lat="44.2287906" lon="8.2742661"><ele>469.0</ele><time>2026-05-03T13:49:49.151Z</time></trkpt><trkpt lat="44.2288474" lon="8.274308"><ele>469.00000000000006</ele><time>2026-05-03T13:49:51.152Z</time></trkpt><trkpt lat="44.2289108" lon="8.2743435"><ele>469.0</ele><time>2026-05-03T13:49:52.15Z</time></trkpt><trkpt lat="44.2289826" lon="8.2743789"><ele>474.0</ele><time>2026-05-03T13:49:53.15Z</time></trkpt><trkpt lat="44.229061" lon="8.2744092"><ele>479.0</ele><time>2026-05-03T13:49:54.15Z</time></trkpt><trkpt lat="44.229152" lon="8.2744597"><ele>484.0</ele><time>2026-05-03T13:49:55.151Z</time></trkpt><trkpt lat="44.2292321" lon="8.2745314"><ele>489.0</ele><time>2026-05-03T13:49:56.15Z</time></trkpt><trkpt lat="44.2293101" lon="8.274596"><ele>494.0</ele><time>2026-05-03T13:49:57.151Z</time></trkpt><trkpt lat="44.2293914" lon="8.2746521"><ele>493.99999999999994</ele><time>2026-05-03T13:49:58.15Z</time></trkpt><trkpt lat="44.2294683" lon="8.274709"><ele>494.0</ele><time>2026-05-03T13:49:59.151Z</time></trkpt><trkpt lat="44.2295374" lon="8.2747758"><ele>494.0</ele><time>2026-05-03T13:50:00.15Z</time></trkpt><trkpt lat="44.2296005" lon="8.2748442"><ele>494.0</ele><time>2026-05-03T13:50:01.151Z</time></trkpt><trkpt lat="44.2296612" lon="8.2748851"><ele>493.99999999999994</ele><time>2026-05-03T13:50:02.151Z</time></trkpt><trkpt lat="44.2297256" lon="8.2749302"><ele>494.0</ele><time>2026-05-03T13:50:03.15Z</time></trkpt><trkpt lat="44.2297971" lon="8.2749755"><ele>495.66666666666663</ele><time>2026-05-03T13:50:04.15Z</time></trkpt><trkpt lat="44.2298683" lon="8.2750174"><ele>497.3333333333333</ele><time>2026-05-03T13:50:05.15Z</time></trkpt><trkpt lat="44.2299286" lon="8.2750546"><ele>499.0</ele><time>2026-05-03T13:50:06.151Z</time></trkpt><trkpt lat="44.2299846" lon="8.2750973"><ele>500.66666666666663</ele><time>2026-05-03T13:50:07.151Z</time></trkpt><trkpt lat="44.2300897" lon="8.2751867"><ele>502.3333333333333</ele><time>2026-05-03T13:50:09.15Z</time></trkpt><trkpt lat="44.2301474" lon="8.2752316"><ele>504.0</ele><time>2026-05-03T13:50:10.151Z</time></trkpt><trkpt lat="44.2302128" lon="8.2752673"><ele>504.0</ele><time>2026-05-03T13:50:11.15Z</time></trkpt><trkpt lat="44.2303265" lon="8.2753198"><ele>504.0</ele><time>2026-05-03T13:50:13.15Z</time></trkpt><trkpt lat="44.2304183" lon="8.2754069"><ele>504.0</ele><time>2026-05-03T13:50:15.15Z</time></trkpt><trkpt lat="44.2304341" lon="8.2755138"><ele>504.0</ele><time>2026-05-03T13:50:16.15Z</time></trkpt><trkpt lat="44.2304509" lon="8.2756145"><ele>504.0</ele><time>2026-05-03T13:50:17.15Z</time></trkpt><trkpt lat="44.2304683" lon="8.2757261"><ele>500.6666666666667</ele><time>2026-05-03T13:50:18.15Z</time></trkpt><trkpt lat="44.2304822" lon="8.2758357"><ele>497.33333333333337</ele><time>2026-05-03T13:50:19.151Z</time></trkpt><trkpt lat="44.230511" lon="8.2759492"><ele>494.0</ele><time>2026-05-03T13:50:20.15Z</time></trkpt><trkpt lat="44.2305468" lon="8.2760567"><ele>490.6666666666667</ele><time>2026-05-03T13:50:21.15Z</time></trkpt><trkpt lat="44.2305711" lon="8.2761676"><ele>487.33333333333337</ele><time>2026-05-03T13:50:22.15Z</time></trkpt><trkpt lat="44.2305754" lon="8.2762737"><ele>484.0</ele><time>2026-05-03T13:50:23.15Z</time></trkpt><trkpt lat="44.2305826" lon="8.2763851"><ele>482.00000000000006</ele><time>2026-05-03T13:50:24.15Z</time></trkpt><trkpt lat="44.2306017" lon="8.2764867"><ele>480.0</ele><time>2026-05-03T13:50:25.15Z</time></trkpt><trkpt lat="44.2306334" lon="8.2765791"><ele>478.0</ele><time>2026-05-03T13:50:26.15Z</time></trkpt><trkpt lat="44.2306614" lon="8.2766895"><ele>476.0</ele><time>2026-05-03T13:50:27.15Z</time></trkpt><trkpt lat="44.2306751" lon="8.2767977"><ele>474.00000000000006</ele><time>2026-05-03T13:50:28.151Z</time></trkpt><trkpt lat="44.2306811" lon="8.2769142"><ele>472.0</ele><time>2026-05-03T13:50:29.151Z</time></trkpt><trkpt lat="44.2306847" lon="8.2770467"><ele>485.6666666666667</ele><time>2026-05-03T13:50:30.15Z</time></trkpt><trkpt lat="44.2306767" lon="8.2774445"><ele>499.33333333333337</ele><time>2026-05-03T13:50:33.15Z</time></trkpt><trkpt lat="44.2306637" lon="8.2775592"><ele>513.0</ele><time>2026-05-03T13:50:34.151Z</time></trkpt><trkpt lat="44.2306687" lon="8.2776771"><ele>513.0</ele><time>2026-05-03T13:50:35.15Z</time></trkpt><trkpt lat="44.2306876" lon="8.2778024"><ele>513.0</ele><time>2026-05-03T13:50:36.15Z</time></trkpt><trkpt lat="44.2307078" lon="8.2779427"><ele>513.0</ele><time>2026-05-03T13:50:37.151Z</time></trkpt><trkpt lat="44.2307243" lon="8.2780725"><ele>513.0</ele><time>2026-05-03T13:50:38.15Z</time></trkpt><trkpt lat="44.2307393" lon="8.2781976"><ele>513.0</ele><time>2026-05-03T13:50:39.15Z</time></trkpt><trkpt lat="44.2307517" lon="8.2783366"><ele>514.1999999999999</ele><time>2026-05-03T13:50:40.151Z</time></trkpt><trkpt lat="44.2307525" lon="8.2784804"><ele>515.4</ele><time>2026-05-03T13:50:41.15Z</time></trkpt><trkpt lat="44.2307416" lon="8.2786173"><ele>516.5999999999999</ele><time>2026-05-03T13:50:42.15Z</time></trkpt><trkpt lat="44.2307154" lon="8.2787451"><ele>517.8</ele><time>2026-05-03T13:50:43.15Z</time></trkpt><trkpt lat="44.2306828" lon="8.2788657"><ele>519.0</ele><time>2026-05-03T13:50:44.15Z</time></trkpt><trkpt lat="44.2306596" lon="8.2789629"><ele>520.0</ele><time>2026-05-03T13:50:45.151Z</time></trkpt><trkpt lat="44.2306542" lon="8.279057"><ele>521.0</ele><time>2026-05-03T13:50:46.15Z</time></trkpt><trkpt lat="44.2306552" lon="8.2791653"><ele>522.0</ele><time>2026-05-03T13:50:47.15Z</time></trkpt><trkpt lat="44.2306564" lon="8.2792884"><ele>523.0</ele><time>2026-05-03T13:50:48.15Z</time></trkpt><trkpt lat="44.2306536" lon="8.2794067"><ele>524.0</ele><time>2026-05-03T13:50:49.15Z</time></trkpt><trkpt lat="44.2306506" lon="8.2795051"><ele>525.0</ele><time>2026-05-03T13:50:50.151Z</time></trkpt><trkpt lat="44.2306534" lon="8.2796131"><ele>525.0</ele><time>2026-05-03T13:50:51.15Z</time></trkpt><trkpt lat="44.2306652" lon="8.2797201"><ele>525.0</ele><time>2026-05-03T13:50:52.15Z</time></trkpt><trkpt lat="44.2307005" lon="8.2798498"><ele>525.0</ele><time>2026-05-03T13:50:54.151Z</time></trkpt><trkpt lat="44.2307746" lon="8.2799035"><ele>525.0</ele><time>2026-05-03T13:50:56.151Z</time></trkpt><trkpt lat="44.2308348" lon="8.2799429"><ele>525.0</ele><time>2026-05-03T13:52:06.15Z</time></trkpt><trkpt lat="44.2308566" lon="8.279812"><ele>525.0</ele><time>2026-05-03T13:52:09.15Z</time></trkpt><trkpt lat="44.230862" lon="8.2796859"><ele>525.0</ele><time>2026-05-03T13:52:11.15Z</time></trkpt><trkpt lat="44.2308724" lon="8.279589"><ele>525.0</ele><time>2026-05-03T13:52:12.15Z</time></trkpt><trkpt lat="44.2308786" lon="8.2794598"><ele>525.0</ele><time>2026-05-03T13:52:14.15Z</time></trkpt><trkpt lat="44.2308752" lon="8.2793206"><ele>525.0</ele><time>2026-05-03T13:52:16.15Z</time></trkpt><trkpt lat="44.2309156" lon="8.279206"><ele>525.0</ele><time>2026-05-03T13:52:18.15Z</time></trkpt><trkpt lat="44.2309918" lon="8.279075"><ele>525.0</ele><time>2026-05-03T13:52:20.15Z</time></trkpt><trkpt lat="44.2310945" lon="8.2789691"><ele>525.0</ele><time>2026-05-03T13:52:22.15Z</time></trkpt><trkpt lat="44.2311377" lon="8.2788935"><ele>525.0</ele><time>2026-05-03T13:52:23.15Z</time></trkpt><trkpt lat="44.2311962" lon="8.2787134"><ele>525.0</ele><time>2026-05-03T13:52:25.15Z</time></trkpt><trkpt lat="44.2312405" lon="8.2786272"><ele>525.0</ele><time>2026-05-03T13:52:26.15Z</time></trkpt><trkpt lat="44.2312801" lon="8.2785362"><ele>524.0</ele><time>2026-05-03T13:52:27.15Z</time></trkpt><trkpt lat="44.2313112" lon="8.2784446"><ele>523.0</ele><time>2026-05-03T13:52:28.15Z</time></trkpt><trkpt lat="44.2313592" lon="8.2783253"><ele>522.0</ele><time>2026-05-03T13:52:29.151Z</time></trkpt><trkpt lat="44.2313936" lon="8.2782189"><ele>521.0</ele><time>2026-05-03T13:52:30.151Z</time></trkpt><trkpt lat="44.231437" lon="8.2780968"><ele>520.0</ele><time>2026-05-03T13:52:31.151Z</time></trkpt><trkpt lat="44.2314569" lon="8.2779856"><ele>519.0</ele><time>2026-05-03T13:52:32.15Z</time></trkpt><trkpt lat="44.231481" lon="8.2778834"><ele>523.6666666666666</ele><time>2026-05-03T13:52:33.15Z</time></trkpt><trkpt lat="44.231499" lon="8.277778"><ele>528.3333333333334</ele><time>2026-05-03T13:52:34.15Z</time></trkpt><trkpt lat="44.2315351" lon="8.2776716"><ele>533.0</ele><time>2026-05-03T13:52:35.151Z</time></trkpt><trkpt lat="44.2315647" lon="8.2775433"><ele>537.6666666666667</ele><time>2026-05-03T13:52:36.15Z</time></trkpt><trkpt lat="44.2316007" lon="8.2774305"><ele>542.3333333333334</ele><time>2026-05-03T13:52:37.151Z</time></trkpt><trkpt lat="44.2316386" lon="8.2773235"><ele>547.0</ele><time>2026-05-03T13:52:38.15Z</time></trkpt><trkpt lat="44.2316817" lon="8.2772083"><ele>547.0</ele><time>2026-05-03T13:52:39.15Z</time></trkpt><trkpt lat="44.2317221" lon="8.2770578"><ele>547.0</ele><time>2026-05-03T13:52:40.15Z</time></trkpt><trkpt lat="44.231748" lon="8.2769334"><ele>547.0</ele><time>2026-05-03T13:52:41.15Z</time></trkpt><trkpt lat="44.2317725" lon="8.2768113"><ele>547.0</ele><time>2026-05-03T13:52:42.15Z</time></trkpt><trkpt lat="44.231805" lon="8.2767028"><ele>547.0</ele><time>2026-05-03T13:52:43.15Z</time></trkpt><trkpt lat="44.2318841" lon="8.2765977"><ele>547.0</ele><time>2026-05-03T13:52:45.15Z</time></trkpt><trkpt lat="44.2319709" lon="8.2765655"><ele>547.0</ele><time>2026-05-03T13:52:47.15Z</time></trkpt><trkpt lat="44.2320268" lon="8.2765092"><ele>547.0</ele><time>2026-05-03T13:52:50.151Z</time></trkpt><trkpt lat="44.2320074" lon="8.276346"><ele>547.0</ele><time>2026-05-03T13:52:53.15Z</time></trkpt><trkpt lat="44.2319951" lon="8.2761409"><ele>547.0</ele><time>2026-05-03T13:52:55.15Z</time></trkpt><trkpt lat="44.2319852" lon="8.2760323"><ele>547.8333333333334</ele><time>2026-05-03T13:52:56.15Z</time></trkpt><trkpt lat="44.2319879" lon="8.2759177"><ele>548.6666666666667</ele><time>2026-05-03T13:52:57.15Z</time></trkpt><trkpt lat="44.231963" lon="8.2758185"><ele>549.5</ele><time>2026-05-03T13:52:58.15Z</time></trkpt><trkpt lat="44.2319412" lon="8.2756915"><ele>550.3333333333334</ele><time>2026-05-03T13:52:59.151Z</time></trkpt><trkpt lat="44.2318936" lon="8.2755629"><ele>551.1666666666666</ele><time>2026-05-03T13:53:00.15Z</time></trkpt><trkpt lat="44.2318655" lon="8.2754617"><ele>552.0</ele><time>2026-05-03T13:53:01.15Z</time></trkpt><trkpt lat="44.2318628" lon="8.2753491"><ele>554.0</ele><time>2026-05-03T13:53:02.15Z</time></trkpt><trkpt lat="44.2319361" lon="8.2752951"><ele>556.0</ele><time>2026-05-03T13:53:03.15Z</time></trkpt><trkpt lat="44.2319378" lon="8.275176"><ele>558.0</ele><time>2026-05-03T13:53:06.151Z</time></trkpt><trkpt lat="44.2318714" lon="8.2750999"><ele>560.0</ele><time>2026-05-03T13:53:08.15Z</time></trkpt><trkpt lat="44.2318026" lon="8.2749812"><ele>562.0</ele><time>2026-05-03T13:53:10.151Z</time></trkpt><trkpt lat="44.2317767" lon="8.2748718"><ele>564.0</ele><time>2026-05-03T13:53:11.15Z</time></trkpt><trkpt lat="44.2317468" lon="8.274762"><ele>567.1666666666666</ele><time>2026-05-03T13:53:12.15Z</time></trkpt><trkpt lat="44.2317022" lon="8.2746573"><ele>570.3333333333334</ele><time>2026-05-03T13:53:13.15Z</time></trkpt><trkpt lat="44.2316299" lon="8.2745005"><ele>573.5</ele><time>2026-05-03T13:53:15.15Z</time></trkpt><trkpt lat="44.231609" lon="8.2744067"><ele>576.6666666666667</ele><time>2026-05-03T13:53:16.151Z</time></trkpt><trkpt lat="44.2315681" lon="8.2743107"><ele>579.8333333333334</ele><time>2026-05-03T13:53:17.15Z</time></trkpt><trkpt lat="44.2315602" lon="8.2742074"><ele>583.0</ele><time>2026-05-03T13:53:18.15Z</time></trkpt><trkpt lat="44.2315583" lon="8.2741147"><ele>583.0</ele><time>2026-05-03T13:53:19.15Z</time></trkpt><trkpt lat="44.2315359" lon="8.2739978"><ele>583.0</ele><time>2026-05-03T13:53:20.15Z</time></trkpt><trkpt lat="44.2314755" lon="8.2738115"><ele>583.0</ele><time>2026-05-03T13:53:22.15Z</time></trkpt><trkpt lat="44.231462" lon="8.2737091"><ele>583.0</ele><time>2026-05-03T13:53:23.15Z</time></trkpt><trkpt lat="44.2314643" lon="8.273577"><ele>583.0</ele><time>2026-05-03T13:53:24.15Z</time></trkpt><trkpt lat="44.2314845" lon="8.27344"><ele>585.5</ele><time>2026-05-03T13:53:25.15Z</time></trkpt><trkpt lat="44.231483" lon="8.2733087"><ele>588.0</ele><time>2026-05-03T13:53:26.15Z</time></trkpt><trkpt lat="44.2314953" lon="8.2731957"><ele>590.5</ele><time>2026-05-03T13:53:27.15Z</time></trkpt><trkpt lat="44.2315058" lon="8.2730753"><ele>593.0</ele><time>2026-05-03T13:53:28.15Z</time></trkpt><trkpt lat="44.2315379" lon="8.2729654"><ele>595.5</ele><time>2026-05-03T13:53:29.151Z</time></trkpt><trkpt lat="44.2315691" lon="8.2728501"><ele>598.0</ele><time>2026-05-03T13:53:30.15Z</time></trkpt><trkpt lat="44.2315845" lon="8.272739"><ele>599.1666666666667</ele><time>2026-05-03T13:53:31.15Z</time></trkpt><trkpt lat="44.2315874" lon="8.2726365"><ele>600.3333333333334</ele><time>2026-05-03T13:53:32.15Z</time></trkpt><trkpt lat="44.2315672" lon="8.2725145"><ele>601.5</ele><time>2026-05-03T13:53:33.151Z</time></trkpt><trkpt lat="44.2315575" lon="8.2724049"><ele>602.6666666666666</ele><time>2026-05-03T13:53:34.15Z</time></trkpt><trkpt lat="44.2315431" lon="8.2723055"><ele>603.8333333333333</ele><time>2026-05-03T13:53:35.15Z</time></trkpt><trkpt lat="44.23158" lon="8.2721676"><ele>605.0</ele><time>2026-05-03T13:53:37.151Z</time></trkpt><trkpt lat="44.2316477" lon="8.2720123"><ele>605.0</ele><time>2026-05-03T13:53:39.15Z</time></trkpt><trkpt lat="44.231707" lon="8.2719397"><ele>605.0</ele><time>2026-05-03T13:53:40.15Z</time></trkpt><trkpt lat="44.231766" lon="8.2718894"><ele>605.0</ele><time>2026-05-03T13:53:41.15Z</time></trkpt><trkpt lat="44.2318211" lon="8.2717998"><ele>605.0</ele><time>2026-05-03T13:53:42.15Z</time></trkpt><trkpt lat="44.2318646" lon="8.2716952"><ele>605.0</ele><time>2026-05-03T13:53:43.15Z</time></trkpt><trkpt lat="44.2319303" lon="8.2716055"><ele>605.0</ele><time>2026-05-03T13:53:44.15Z</time></trkpt><trkpt lat="44.2319822" lon="8.271491"><ele>604.4</ele><time>2026-05-03T13:53:45.15Z</time></trkpt><trkpt lat="44.2320412" lon="8.2713866"><ele>603.8</ele><time>2026-05-03T13:53:46.15Z</time></trkpt><trkpt lat="44.2320989" lon="8.2712786"><ele>603.2</ele><time>2026-05-03T13:53:47.151Z</time></trkpt><trkpt lat="44.232156" lon="8.2711775"><ele>602.6</ele><time>2026-05-03T13:53:48.151Z</time></trkpt><trkpt lat="44.2322125" lon="8.2710764"><ele>602.0</ele><time>2026-05-03T13:53:49.15Z</time></trkpt><trkpt lat="44.2322824" lon="8.2710018"><ele>607.6</ele><time>2026-05-03T13:53:50.15Z</time></trkpt><trkpt lat="44.2323586" lon="8.2709431"><ele>613.2</ele><time>2026-05-03T13:53:51.15Z</time></trkpt><trkpt lat="44.2324336" lon="8.2708787"><ele>618.8</ele><time>2026-05-03T13:53:52.15Z</time></trkpt><trkpt lat="44.232487" lon="8.2708041"><ele>624.4</ele><time>2026-05-03T13:53:53.151Z</time></trkpt><trkpt lat="44.2325725" lon="8.2707197"><ele>630.0</ele><time>2026-05-03T13:53:55.151Z</time></trkpt><trkpt lat="44.2326973" lon="8.2706883"><ele>630.0</ele><time>2026-05-03T13:53:57.15Z</time></trkpt><trkpt lat="44.2327659" lon="8.2706845"><ele>630.0</ele><time>2026-05-03T13:53:58.15Z</time></trkpt><trkpt lat="44.2328835" lon="8.2706192"><ele>630.0</ele><time>2026-05-03T13:54:00.151Z</time></trkpt><trkpt lat="44.2329481" lon="8.2705575"><ele>630.0</ele><time>2026-05-03T13:54:01.15Z</time></trkpt><trkpt lat="44.2330101" lon="8.2704933"><ele>630.0</ele><time>2026-05-03T13:54:02.15Z</time></trkpt><trkpt lat="44.2330565" lon="8.2704209"><ele>630.0</ele><time>2026-05-03T13:54:03.15Z</time></trkpt><trkpt lat="44.2330907" lon="8.2703332"><ele>631.5714285714286</ele><time>2026-05-03T13:54:04.15Z</time></trkpt><trkpt lat="44.2331326" lon="8.2702474"><ele>633.1428571428571</ele><time>2026-05-03T13:54:05.15Z</time></trkpt><trkpt lat="44.2331882" lon="8.2701759"><ele>634.7142857142858</ele><time>2026-05-03T13:54:06.15Z</time></trkpt><trkpt lat="44.2332544" lon="8.2701241"><ele>636.2857142857142</ele><time>2026-05-03T13:54:07.15Z</time></trkpt><trkpt lat="44.2333229" lon="8.2700884"><ele>637.8571428571429</ele><time>2026-05-03T13:54:08.151Z</time></trkpt><trkpt lat="44.2333899" lon="8.2700603"><ele>639.4285714285714</ele><time>2026-05-03T13:54:09.15Z</time></trkpt><trkpt lat="44.2334597" lon="8.2700284"><ele>641.0</ele><time>2026-05-03T13:54:10.15Z</time></trkpt><trkpt lat="44.2335267" lon="8.2699919"><ele>641.0</ele><time>2026-05-03T13:54:11.15Z</time></trkpt><trkpt lat="44.233593" lon="8.2699469"><ele>641.0</ele><time>2026-05-03T13:54:13.15Z</time></trkpt><trkpt lat="44.2336533" lon="8.2699176"><ele>641.0</ele><time>2026-05-03T13:54:15.151Z</time></trkpt><trkpt lat="44.2336534" lon="8.2698254"><ele>641.0</ele><time>2026-05-03T13:54:50.15Z</time></trkpt><trkpt lat="44.2335734" lon="8.269854"><ele>641.0</ele><time>2026-05-03T13:55:53.15Z</time></trkpt><trkpt lat="44.2335315" lon="8.2699303"><ele>641.0</ele><time>2026-05-03T13:55:54.15Z</time></trkpt><trkpt lat="44.2334759" lon="8.2700878"><ele>641.0</ele><time>2026-05-03T13:55:56.151Z</time></trkpt><trkpt lat="44.2334397" lon="8.270191"><ele>641.0</ele><time>2026-05-03T13:55:57.15Z</time></trkpt><trkpt lat="44.2334182" lon="8.2703467"><ele>641.0</ele><time>2026-05-03T13:55:58.15Z</time></trkpt><trkpt lat="44.233361" lon="8.2704768"><ele>641.0</ele><time>2026-05-03T13:55:59.151Z</time></trkpt><trkpt lat="44.2333197" lon="8.2705624"><ele>641.0</ele><time>2026-05-03T13:56:00.15Z</time></trkpt><trkpt lat="44.2332757" lon="8.2707235"><ele>644.0</ele><time>2026-05-03T13:56:02.15Z</time></trkpt><trkpt lat="44.2332481" lon="8.270825"><ele>647.0</ele><time>2026-05-03T13:56:03.151Z</time></trkpt><trkpt lat="44.2332263" lon="8.2709151"><ele>650.0</ele><time>2026-05-03T13:56:04.151Z</time></trkpt><trkpt lat="44.2332117" lon="8.2710659"><ele>653.0</ele><time>2026-05-03T13:56:06.15Z</time></trkpt><trkpt lat="44.2332186" lon="8.271217"><ele>656.0</ele><time>2026-05-03T13:56:08.151Z</time></trkpt><trkpt lat="44.2332346" lon="8.2713915"><ele>657.5</ele><time>2026-05-03T13:56:10.15Z</time></trkpt><trkpt lat="44.2332564" lon="8.2715053"><ele>659.0</ele><time>2026-05-03T13:56:11.15Z</time></trkpt><trkpt lat="44.2332529" lon="8.2716326"><ele>660.5</ele><time>2026-05-03T13:56:12.15Z</time></trkpt><trkpt lat="44.2332498" lon="8.2717398"><ele>662.0</ele><time>2026-05-03T13:56:13.15Z</time></trkpt><trkpt lat="44.2332641" lon="8.2718392"><ele>663.5</ele><time>2026-05-03T13:56:14.151Z</time></trkpt><trkpt lat="44.2333127" lon="8.2719951"><ele>665.0</ele><time>2026-05-03T13:56:16.15Z</time></trkpt><trkpt lat="44.2333437" lon="8.2720803"><ele>665.0</ele><time>2026-05-03T13:56:17.15Z</time></trkpt><trkpt lat="44.2333725" lon="8.2721683"><ele>665.0</ele><time>2026-05-03T13:56:18.15Z</time></trkpt><trkpt lat="44.2334301" lon="8.2722528"><ele>665.0</ele><time>2026-05-03T13:56:19.15Z</time></trkpt><trkpt lat="44.2334404" lon="8.2723426"><ele>665.0</ele><time>2026-05-03T13:56:20.15Z</time></trkpt><trkpt lat="44.2334618" lon="8.2724774"><ele>665.0</ele><time>2026-05-03T13:56:21.15Z</time></trkpt><trkpt lat="44.2334784" lon="8.2726153"><ele>665.0</ele><time>2026-05-03T13:56:22.15Z</time></trkpt><trkpt lat="44.2334931" lon="8.2727162"><ele>665.6</ele><time>2026-05-03T13:56:23.15Z</time></trkpt><trkpt lat="44.2335405" lon="8.2728568"><ele>666.2</ele><time>2026-05-03T13:56:25.15Z</time></trkpt><trkpt lat="44.2335759" lon="8.272954"><ele>666.8</ele><time>2026-05-03T13:56:26.15Z</time></trkpt><trkpt lat="44.2336639" lon="8.2730664"><ele>667.4</ele><time>2026-05-03T13:56:28.15Z</time></trkpt><trkpt lat="44.2337291" lon="8.2731036"><ele>668.0</ele><time>2026-05-03T13:56:29.15Z</time></trkpt><trkpt lat="44.2337997" lon="8.2731343"><ele>666.5999999999999</ele><time>2026-05-03T13:56:30.15Z</time></trkpt><trkpt lat="44.2338622" lon="8.2731822"><ele>665.1999999999999</ele><time>2026-05-03T13:56:31.151Z</time></trkpt><trkpt lat="44.2339111" lon="8.2732494"><ele>663.8</ele><time>2026-05-03T13:56:32.15Z</time></trkpt><trkpt lat="44.233985" lon="8.2733843"><ele>662.4</ele><time>2026-05-03T13:56:34.151Z</time></trkpt><trkpt lat="44.2340491" lon="8.2734879"><ele>661.0</ele><time>2026-05-03T13:56:36.15Z</time></trkpt><trkpt lat="44.2341288" lon="8.2735544"><ele>664.3333333333334</ele><time>2026-05-03T13:56:38.15Z</time></trkpt><trkpt lat="44.234181" lon="8.2736505"><ele>667.6666666666667</ele><time>2026-05-03T13:56:40.15Z</time></trkpt><trkpt lat="44.2341939" lon="8.2738031"><ele>671.0</ele><time>2026-05-03T13:56:42.15Z</time></trkpt><trkpt lat="44.2342117" lon="8.27389"><ele>674.3333333333334</ele><time>2026-05-03T13:56:43.15Z</time></trkpt><trkpt lat="44.2342446" lon="8.274006"><ele>677.6666666666666</ele><time>2026-05-03T13:56:44.15Z</time></trkpt><trkpt lat="44.2342808" lon="8.2741247"><ele>681.0</ele><time>2026-05-03T13:56:45.15Z</time></trkpt><trkpt lat="44.2343161" lon="8.2742588"><ele>681.0</ele><time>2026-05-03T13:56:46.15Z</time></trkpt><trkpt lat="44.2343512" lon="8.2743975"><ele>681.0</ele><time>2026-05-03T13:56:47.15Z</time></trkpt><trkpt lat="44.2343821" lon="8.2745169"><ele>681.0</ele><time>2026-05-03T13:56:48.151Z</time></trkpt><trkpt lat="44.2344132" lon="8.2746342"><ele>681.0</ele><time>2026-05-03T13:56:49.15Z</time></trkpt><trkpt lat="44.2344355" lon="8.2747564"><ele>681.0</ele><time>2026-05-03T13:56:50.15Z</time></trkpt><trkpt lat="44.2344581" lon="8.274869"><ele>680.5714285714287</ele><time>2026-05-03T13:56:51.15Z</time></trkpt><trkpt lat="44.2344758" lon="8.2749665"><ele>680.1428571428571</ele><time>2026-05-03T13:56:52.15Z</time></trkpt><trkpt lat="44.2344836" lon="8.2750649"><ele>679.7142857142858</ele><time>2026-05-03T13:56:53.151Z</time></trkpt><trkpt lat="44.234504" lon="8.2751508"><ele>679.2857142857143</ele><time>2026-05-03T13:56:54.151Z</time></trkpt><trkpt lat="44.2345391" lon="8.2752322"><ele>678.8571428571429</ele><time>2026-05-03T13:56:55.15Z</time></trkpt><trkpt lat="44.2345695" lon="8.2753144"><ele>678.4285714285714</ele><time>2026-05-03T13:56:56.15Z</time></trkpt><trkpt lat="44.2345968" lon="8.2754109"><ele>678.0</ele><time>2026-05-03T13:56:57.15Z</time></trkpt><trkpt lat="44.2346142" lon="8.2754978"><ele>677.8</ele><time>2026-05-03T13:56:58.15Z</time></trkpt><trkpt lat="44.2346577" lon="8.2756517"><ele>677.5999999999999</ele><time>2026-05-03T13:57:00.15Z</time></trkpt><trkpt lat="44.2346834" lon="8.2757399"><ele>677.4000000000001</ele><time>2026-05-03T13:57:01.15Z</time></trkpt><trkpt lat="44.2347165" lon="8.2758963"><ele>677.2</ele><time>2026-05-03T13:57:03.15Z</time></trkpt><trkpt lat="44.2347153" lon="8.2760519"><ele>677.0</ele><time>2026-05-03T13:57:05.15Z</time></trkpt><trkpt lat="44.2347492" lon="8.2762389"><ele>677.0</ele><time>2026-05-03T13:57:07.15Z</time></trkpt><trkpt lat="44.2347679" lon="8.2763415"><ele>677.0</ele><time>2026-05-03T13:57:08.15Z</time></trkpt><trkpt lat="44.234782" lon="8.2765034"><ele>677.0</ele><time>2026-05-03T13:57:10.15Z</time></trkpt><trkpt lat="44.2348237" lon="8.2766317"><ele>677.0</ele><time>2026-05-03T13:57:12.15Z</time></trkpt><trkpt lat="44.2348819" lon="8.2767764"><ele>677.0</ele><time>2026-05-03T13:57:14.15Z</time></trkpt><trkpt lat="44.2349133" lon="8.2768562"><ele>682.3333333333333</ele><time>2026-05-03T13:57:15.151Z</time></trkpt><trkpt lat="44.2349435" lon="8.2770224"><ele>687.6666666666666</ele><time>2026-05-03T13:57:17.15Z</time></trkpt><trkpt lat="44.2349696" lon="8.2771033"><ele>693.0</ele><time>2026-05-03T13:57:18.151Z</time></trkpt><trkpt lat="44.2350023" lon="8.2771803"><ele>698.3333333333334</ele><time>2026-05-03T13:57:19.15Z</time></trkpt><trkpt lat="44.2350413" lon="8.2772563"><ele>703.6666666666667</ele><time>2026-05-03T13:57:20.151Z</time></trkpt><trkpt lat="44.2351235" lon="8.2773775"><ele>709.0</ele><time>2026-05-03T13:57:22.15Z</time></trkpt><trkpt lat="44.2352187" lon="8.2774376"><ele>709.0</ele><time>2026-05-03T13:57:24.15Z</time></trkpt><trkpt lat="44.2353203" lon="8.2774952"><ele>709.0</ele><time>2026-05-03T13:57:26.15Z</time></trkpt><trkpt lat="44.235383" lon="8.2775237"><ele>709.0</ele><time>2026-05-03T13:57:27.15Z</time></trkpt><trkpt lat="44.2354511" lon="8.2775471"><ele>709.0</ele><time>2026-05-03T13:57:28.151Z</time></trkpt><trkpt lat="44.2355227" lon="8.2775692"><ele>709.0</ele><time>2026-05-03T13:57:29.151Z</time></trkpt><trkpt lat="44.235591" lon="8.2775959"><ele>709.0</ele><time>2026-05-03T13:57:30.15Z</time></trkpt><trkpt lat="44.2356527" lon="8.2776235"><ele>714.8000000000001</ele><time>2026-05-03T13:57:31.15Z</time></trkpt><trkpt lat="44.2357224" lon="8.2776472"><ele>720.6</ele><time>2026-05-03T13:57:32.15Z</time></trkpt><trkpt lat="44.2358178" lon="8.2776873"><ele>726.4</ele><time>2026-05-03T13:57:33.15Z</time></trkpt><trkpt lat="44.2359103" lon="8.2777227"><ele>732.2</ele><time>2026-05-03T13:57:34.15Z</time></trkpt><trkpt lat="44.2360027" lon="8.2777425"><ele>738.0</ele><time>2026-05-03T13:57:35.151Z</time></trkpt><trkpt lat="44.2360981" lon="8.2777673"><ele>738.0</ele><time>2026-05-03T13:57:36.15Z</time></trkpt><trkpt lat="44.236194" lon="8.2777839"><ele>738.0</ele><time>2026-05-03T13:57:37.15Z</time></trkpt><trkpt lat="44.236276" lon="8.2777845"><ele>738.0</ele><time>2026-05-03T13:57:38.151Z</time></trkpt><trkpt lat="44.2363488" lon="8.2777844"><ele>738.0</ele><time>2026-05-03T13:57:39.15Z</time></trkpt><trkpt lat="44.2364647" lon="8.2778224"><ele>738.0</ele><time>2026-05-03T13:57:41.15Z</time></trkpt><trkpt lat="44.2365268" lon="8.2778491"><ele>738.0</ele><time>2026-05-03T13:57:42.15Z</time></trkpt><trkpt lat="44.2365903" lon="8.2778721"><ele>742.0</ele><time>2026-05-03T13:57:43.151Z</time></trkpt><trkpt lat="44.2366645" lon="8.2778777"><ele>746.0</ele><time>2026-05-03T13:57:44.15Z</time></trkpt><trkpt lat="44.2367404" lon="8.2778825"><ele>750.0</ele><time>2026-05-03T13:57:45.15Z</time></trkpt><trkpt lat="44.2368165" lon="8.2778911"><ele>754.0</ele><time>2026-05-03T13:57:46.15Z</time></trkpt><trkpt lat="44.2368952" lon="8.2779071"><ele>758.0</ele><time>2026-05-03T13:57:47.15Z</time></trkpt><trkpt lat="44.2369823" lon="8.2779092"><ele>762.0</ele><time>2026-05-03T13:57:48.15Z</time></trkpt><trkpt lat="44.2370668" lon="8.277924"><ele>762.0</ele><time>2026-05-03T13:57:49.15Z</time></trkpt><trkpt lat="44.2371397" lon="8.2779475"><ele>762.0</ele><time>2026-05-03T13:57:50.151Z</time></trkpt><trkpt lat="44.237214" lon="8.2779864"><ele>762.0</ele><time>2026-05-03T13:57:51.15Z</time></trkpt><trkpt lat="44.2372918" lon="8.2780224"><ele>762.0</ele><time>2026-05-03T13:57:52.15Z</time></trkpt><trkpt lat="44.2373744" lon="8.2780476"><ele>762.0</ele><time>2026-05-03T13:57:53.151Z</time></trkpt><trkpt lat="44.2374656" lon="8.2780838"><ele>762.0</ele><time>2026-05-03T13:57:54.151Z</time></trkpt><trkpt lat="44.2375489" lon="8.2781248"><ele>757.8</ele><time>2026-05-03T13:57:55.151Z</time></trkpt><trkpt lat="44.2376299" lon="8.2781655"><ele>753.6</ele><time>2026-05-03T13:57:56.15Z</time></trkpt><trkpt lat="44.2377017" lon="8.2782062"><ele>749.4</ele><time>2026-05-03T13:57:57.15Z</time></trkpt><trkpt lat="44.2378094" lon="8.2782197"><ele>745.1999999999999</ele><time>2026-05-03T13:57:59.15Z</time></trkpt><trkpt lat="44.2378941" lon="8.2782516"><ele>741.0</ele><time>2026-05-03T13:58:01.151Z</time></trkpt><trkpt lat="44.2379823" lon="8.2783382"><ele>741.0</ele><time>2026-05-03T13:58:03.15Z</time></trkpt><trkpt lat="44.2380346" lon="8.2783963"><ele>741.0</ele><time>2026-05-03T13:58:04.15Z</time></trkpt><trkpt lat="44.2381255" lon="8.2784881"><ele>741.0</ele><time>2026-05-03T13:58:06.15Z</time></trkpt><trkpt lat="44.2382324" lon="8.2785169"><ele>741.0</ele><time>2026-05-03T13:58:08.15Z</time></trkpt><trkpt lat="44.2383611" lon="8.2785116"><ele>741.0</ele><time>2026-05-03T13:58:10.151Z</time></trkpt><trkpt lat="44.2384248" lon="8.2785271"><ele>746.1999999999999</ele><time>2026-05-03T13:58:11.15Z</time></trkpt><trkpt lat="44.2385504" lon="8.2785557"><ele>751.4</ele><time>2026-05-03T13:58:13.15Z</time></trkpt><trkpt lat="44.2386299" lon="8.2785998"><ele>756.6</ele><time>2026-05-03T13:58:14.15Z</time></trkpt><trkpt lat="44.2387033" lon="8.278651"><ele>761.8</ele><time>2026-05-03T13:58:15.15Z</time></trkpt><trkpt lat="44.2387709" lon="8.2787216"><ele>767.0</ele><time>2026-05-03T13:58:16.15Z</time></trkpt><trkpt lat="44.2388407" lon="8.2787884"><ele>767.0</ele><time>2026-05-03T13:58:17.15Z</time></trkpt><trkpt lat="44.2389027" lon="8.2788441"><ele>767.0</ele><time>2026-05-03T13:58:18.15Z</time></trkpt><trkpt lat="44.2389577" lon="8.278888"><ele>767.0</ele><time>2026-05-03T13:58:19.15Z</time></trkpt><trkpt lat="44.2390114" lon="8.2789389"><ele>767.0</ele><time>2026-05-03T13:58:20.15Z</time></trkpt><trkpt lat="44.23912" lon="8.2790089"><ele>767.0</ele><time>2026-05-03T13:58:22.151Z</time></trkpt><trkpt lat="44.2391989" lon="8.2790529"><ele>767.0</ele><time>2026-05-03T13:58:23.151Z</time></trkpt><trkpt lat="44.2392781" lon="8.2791073"><ele>767.0</ele><time>2026-05-03T13:58:24.15Z</time></trkpt><trkpt lat="44.2393547" lon="8.279157"><ele>767.0</ele><time>2026-05-03T13:58:25.15Z</time></trkpt><trkpt lat="44.2394792" lon="8.2792352"><ele>767.0</ele><time>2026-05-03T13:58:27.15Z</time></trkpt><trkpt lat="44.2395579" lon="8.2792733"><ele>767.0</ele><time>2026-05-03T13:58:28.151Z</time></trkpt><trkpt lat="44.239636" lon="8.2793213"><ele>767.0</ele><time>2026-05-03T13:58:29.151Z</time></trkpt><trkpt lat="44.2397152" lon="8.2793658"><ele>767.0</ele><time>2026-05-03T13:58:30.15Z</time></trkpt><trkpt lat="44.2397904" lon="8.2793941"><ele>767.0</ele><time>2026-05-03T13:58:31.15Z</time></trkpt><trkpt lat="44.2398535" lon="8.2794049"><ele>767.0</ele><time>2026-05-03T13:58:32.15Z</time></trkpt><trkpt lat="44.2399514" lon="8.2794482"><ele>767.0</ele><time>2026-05-03T13:58:34.151Z</time></trkpt><trkpt lat="44.240048" lon="8.2795642"><ele>767.0</ele><time>2026-05-03T13:58:36.15Z</time></trkpt><trkpt lat="44.2400665" lon="8.2796908"><ele>768.0</ele><time>2026-05-03T13:58:37.15Z</time></trkpt><trkpt lat="44.2400817" lon="8.2798161"><ele>769.0</ele><time>2026-05-03T13:58:38.15Z</time></trkpt><trkpt lat="44.2400961" lon="8.2799417"><ele>770.0</ele><time>2026-05-03T13:58:39.151Z</time></trkpt><trkpt lat="44.2401078" lon="8.2800483"><ele>771.0</ele><time>2026-05-03T13:58:40.151Z</time></trkpt><trkpt lat="44.2401068" lon="8.2801376"><ele>772.0000000000001</ele><time>2026-05-03T13:58:41.151Z</time></trkpt><trkpt lat="44.2401079" lon="8.2802569"><ele>773.0</ele><time>2026-05-03T13:58:43.15Z</time></trkpt><trkpt lat="44.2402079" lon="8.2803709"><ele>773.0000000000001</ele><time>2026-05-03T13:58:45.15Z</time></trkpt><trkpt lat="44.2402652" lon="8.2804349"><ele>773.0</ele><time>2026-05-03T13:58:46.151Z</time></trkpt><trkpt lat="44.2403187" lon="8.2805216"><ele>773.0</ele><time>2026-05-03T13:58:47.15Z</time></trkpt><trkpt lat="44.2403581" lon="8.2805954"><ele>773.0</ele><time>2026-05-03T13:58:48.15Z</time></trkpt><trkpt lat="44.2403942" lon="8.2806676"><ele>773.0000000000001</ele><time>2026-05-03T13:58:49.152Z</time></trkpt><trkpt lat="44.2404757" lon="8.2807758"><ele>773.0</ele><time>2026-05-03T13:58:51.15Z</time></trkpt><trkpt lat="44.2405675" lon="8.2808095"><ele>775.3333333333334</ele><time>2026-05-03T13:58:53.15Z</time></trkpt><trkpt lat="44.240641" lon="8.2807992"><ele>777.6666666666667</ele><time>2026-05-03T13:58:54.15Z</time></trkpt><trkpt lat="44.2407454" lon="8.2808267"><ele>780.0</ele><time>2026-05-03T13:58:56.15Z</time></trkpt><trkpt lat="44.24081" lon="8.2808517"><ele>782.3333333333333</ele><time>2026-05-03T13:58:57.15Z</time></trkpt><trkpt lat="44.2408911" lon="8.2808407"><ele>784.6666666666666</ele><time>2026-05-03T13:58:58.15Z</time></trkpt><trkpt lat="44.2409958" lon="8.2808809"><ele>787.0</ele><time>2026-05-03T13:59:00.151Z</time></trkpt><trkpt lat="44.2411571" lon="8.280917"><ele>787.0</ele><time>2026-05-03T13:59:03.15Z</time></trkpt><trkpt lat="44.2412381" lon="8.2809721"><ele>787.0</ele><time>2026-05-03T13:59:04.15Z</time></trkpt><trkpt lat="44.2413475" lon="8.2810131"><ele>787.0</ele><time>2026-05-03T13:59:06.15Z</time></trkpt><trkpt lat="44.2414084" lon="8.2810401"><ele>787.0</ele><time>2026-05-03T13:59:07.15Z</time></trkpt><trkpt lat="44.2415197" lon="8.2810847"><ele>787.0</ele><time>2026-05-03T13:59:09.15Z</time></trkpt><trkpt lat="44.2415824" lon="8.2811257"><ele>788.9999999999999</ele><time>2026-05-03T13:59:10.151Z</time></trkpt><trkpt lat="44.2416528" lon="8.2811385"><ele>791.0</ele><time>2026-05-03T13:59:11.15Z</time></trkpt><trkpt lat="44.2417131" lon="8.2811695"><ele>793.0</ele><time>2026-05-03T13:59:12.152Z</time></trkpt><trkpt lat="44.241769" lon="8.28121"><ele>795.0</ele><time>2026-05-03T13:59:13.15Z</time></trkpt><trkpt lat="44.2418473" lon="8.281235"><ele>796.9999999999999</ele><time>2026-05-03T13:59:14.15Z</time></trkpt><trkpt lat="44.2419518" lon="8.2812894"><ele>799.0</ele><time>2026-05-03T13:59:16.15Z</time></trkpt><trkpt lat="44.2420257" lon="8.281378"><ele>793.6</ele><time>2026-05-03T13:59:18.15Z</time></trkpt><trkpt lat="44.2420119" lon="8.281483"><ele>788.2</ele><time>2026-05-03T13:59:20.151Z</time></trkpt><trkpt lat="44.2419516" lon="8.2815529"><ele>782.8000000000001</ele><time>2026-05-03T13:59:22.15Z</time></trkpt><trkpt lat="44.241874" lon="8.2816183"><ele>777.4000000000001</ele><time>2026-05-03T13:59:24.15Z</time></trkpt><trkpt lat="44.2418064" lon="8.2817141"><ele>772.0</ele><time>2026-05-03T13:59:26.15Z</time></trkpt><trkpt lat="44.2417112" lon="8.2818156"><ele>771.9999999999999</ele><time>2026-05-03T13:59:28.15Z</time></trkpt><trkpt lat="44.2416541" lon="8.2818627"><ele>772.0</ele><time>2026-05-03T13:59:29.15Z</time></trkpt><trkpt lat="44.2415826" lon="8.2819477"><ele>772.0</ele><time>2026-05-03T13:59:30.151Z</time></trkpt><trkpt lat="44.2415261" lon="8.2820206"><ele>772.0</ele><time>2026-05-03T13:59:31.15Z</time></trkpt><trkpt lat="44.2414732" lon="8.282091"><ele>771.9999999999999</ele><time>2026-05-03T13:59:32.151Z</time></trkpt><trkpt lat="44.2414354" lon="8.282174"><ele>772.0</ele><time>2026-05-03T13:59:33.151Z</time></trkpt><trkpt lat="44.2413938" lon="8.28227"><ele>767.4000000000001</ele><time>2026-05-03T13:59:35.15Z</time></trkpt><trkpt lat="44.2413501" lon="8.2823605"><ele>762.8000000000001</ele><time>2026-05-03T14:01:07.151Z</time></trkpt><trkpt lat="44.2413094" lon="8.2824414"><ele>758.2</ele><time>2026-05-03T14:01:09.151Z</time></trkpt><trkpt lat="44.2412272" lon="8.2826002"><ele>753.6</ele><time>2026-05-03T14:01:11.152Z</time></trkpt><trkpt lat="44.2411839" lon="8.2827038"><ele>749.0</ele><time>2026-05-03T14:01:12.151Z</time></trkpt><trkpt lat="44.2411487" lon="8.2828102"><ele>749.0</ele><time>2026-05-03T14:01:13.151Z</time></trkpt><trkpt lat="44.2410977" lon="8.2829077"><ele>749.0</ele><time>2026-05-03T14:01:14.151Z</time></trkpt><trkpt lat="44.2410448" lon="8.2829961"><ele>749.0</ele><time>2026-05-03T14:01:15.151Z</time></trkpt><trkpt lat="44.2409901" lon="8.2830899"><ele>749.0</ele><time>2026-05-03T14:01:16.151Z</time></trkpt><trkpt lat="44.2409464" lon="8.2831971"><ele>749.0</ele><time>2026-05-03T14:01:17.151Z</time></trkpt><trkpt lat="44.2409025" lon="8.2832991"><ele>749.0</ele><time>2026-05-03T14:01:18.151Z</time></trkpt><trkpt lat="44.2408522" lon="8.2833965"><ele>750.6666666666666</ele><time>2026-05-03T14:01:19.152Z</time></trkpt><trkpt lat="44.2407946" lon="8.2834755"><ele>752.3333333333333</ele><time>2026-05-03T14:01:20.152Z</time></trkpt><trkpt lat="44.2407229" lon="8.2835374"><ele>754.0</ele><time>2026-05-03T14:01:21.151Z</time></trkpt><trkpt lat="44.2406481" lon="8.2835836"><ele>755.6666666666666</ele><time>2026-05-03T14:01:22.151Z</time></trkpt><trkpt lat="44.2405716" lon="8.283644"><ele>757.3333333333334</ele><time>2026-05-03T14:01:23.151Z</time></trkpt><trkpt lat="44.2405015" lon="8.2837182"><ele>759.0</ele><time>2026-05-03T14:01:24.152Z</time></trkpt><trkpt lat="44.2404402" lon="8.2838185"><ele>756.1666666666666</ele><time>2026-05-03T14:01:25.151Z</time></trkpt><trkpt lat="44.2403816" lon="8.2839052"><ele>753.3333333333334</ele><time>2026-05-03T14:01:26.151Z</time></trkpt><trkpt lat="44.2403284" lon="8.2839959"><ele>750.5</ele><time>2026-05-03T14:01:27.151Z</time></trkpt><trkpt lat="44.2402705" lon="8.2840821"><ele>747.6666666666667</ele><time>2026-05-03T14:01:28.152Z</time></trkpt><trkpt lat="44.2402183" lon="8.2841707"><ele>744.8333333333334</ele><time>2026-05-03T14:01:29.152Z</time></trkpt><trkpt lat="44.2401797" lon="8.2842679"><ele>742.0</ele><time>2026-05-03T14:01:30.152Z</time></trkpt><trkpt lat="44.2401326" lon="8.2843615"><ele>742.0</ele><time>2026-05-03T14:01:31.151Z</time></trkpt><trkpt lat="44.2400775" lon="8.2844536"><ele>742.0</ele><time>2026-05-03T14:01:32.151Z</time></trkpt><trkpt lat="44.2400209" lon="8.2845593"><ele>742.0</ele><time>2026-05-03T14:01:33.152Z</time></trkpt><trkpt lat="44.2399637" lon="8.2846723"><ele>742.0</ele><time>2026-05-03T14:01:34.151Z</time></trkpt><trkpt lat="44.2399104" lon="8.2848001"><ele>742.0</ele><time>2026-05-03T14:01:35.151Z</time></trkpt><trkpt lat="44.2398579" lon="8.2849384"><ele>739.0</ele><time>2026-05-03T14:01:36.151Z</time></trkpt><trkpt lat="44.2398034" lon="8.2850751"><ele>736.0</ele><time>2026-05-03T14:01:37.152Z</time></trkpt><trkpt lat="44.239756" lon="8.2851952"><ele>733.0</ele><time>2026-05-03T14:01:38.151Z</time></trkpt><trkpt lat="44.2397112" lon="8.2853221"><ele>730.0</ele><time>2026-05-03T14:01:39.152Z</time></trkpt><trkpt lat="44.239694" lon="8.2854407"><ele>727.0</ele><time>2026-05-03T14:01:40.151Z</time></trkpt><trkpt lat="44.2396834" lon="8.2855543"><ele>727.8333333333334</ele><time>2026-05-03T14:01:41.151Z</time></trkpt><trkpt lat="44.2396918" lon="8.2856558"><ele>728.6666666666667</ele><time>2026-05-03T14:01:42.151Z</time></trkpt><trkpt lat="44.2397062" lon="8.2857543"><ele>729.5</ele><time>2026-05-03T14:01:43.151Z</time></trkpt><trkpt lat="44.2397479" lon="8.2858572"><ele>730.3333333333334</ele><time>2026-05-03T14:01:44.151Z</time></trkpt><trkpt lat="44.2397822" lon="8.2859534"><ele>731.1666666666666</ele><time>2026-05-03T14:01:45.151Z</time></trkpt><trkpt lat="44.2398176" lon="8.2860584"><ele>732.0</ele><time>2026-05-03T14:01:46.151Z</time></trkpt><trkpt lat="44.2398472" lon="8.2861753"><ele>738.6</ele><time>2026-05-03T14:01:47.151Z</time></trkpt><trkpt lat="44.2398776" lon="8.2863128"><ele>745.2</ele><time>2026-05-03T14:01:48.152Z</time></trkpt><trkpt lat="44.2399015" lon="8.2864627"><ele>751.8</ele><time>2026-05-03T14:01:49.151Z</time></trkpt><trkpt lat="44.2399213" lon="8.2866071"><ele>758.4</ele><time>2026-05-03T14:01:50.151Z</time></trkpt><trkpt lat="44.2399354" lon="8.2867484"><ele>765.0</ele><time>2026-05-03T14:01:51.151Z</time></trkpt><trkpt lat="44.2399454" lon="8.2868883"><ele>765.0</ele><time>2026-05-03T14:01:52.152Z</time></trkpt><trkpt lat="44.2399554" lon="8.2870316"><ele>765.0</ele><time>2026-05-03T14:01:53.151Z</time></trkpt><trkpt lat="44.2399702" lon="8.287168"><ele>765.0</ele><time>2026-05-03T14:01:54.151Z</time></trkpt><trkpt lat="44.2399908" lon="8.287306"><ele>765.0</ele><time>2026-05-03T14:01:55.151Z</time></trkpt><trkpt lat="44.2400136" lon="8.2874489"><ele>765.0</ele><time>2026-05-03T14:01:56.151Z</time></trkpt><trkpt lat="44.2400404" lon="8.2875861"><ele>764.8</ele><time>2026-05-03T14:01:57.152Z</time></trkpt><trkpt lat="44.2400729" lon="8.2877162"><ele>764.6</ele><time>2026-05-03T14:01:58.152Z</time></trkpt><trkpt lat="44.2400898" lon="8.2878428"><ele>764.4000000000001</ele><time>2026-05-03T14:01:59.152Z</time></trkpt><trkpt lat="44.2400978" lon="8.2879706"><ele>764.2</ele><time>2026-05-03T14:02:00.152Z</time></trkpt><trkpt lat="44.240096" lon="8.2881037"><ele>764.0</ele><time>2026-05-03T14:02:01.151Z</time></trkpt><trkpt lat="44.2400843" lon="8.2882414"><ele>764.0</ele><time>2026-05-03T14:02:02.151Z</time></trkpt><trkpt lat="44.2400578" lon="8.2883737"><ele>764.0</ele><time>2026-05-03T14:02:03.151Z</time></trkpt><trkpt lat="44.2400328" lon="8.2885167"><ele>764.0</ele><time>2026-05-03T14:02:04.151Z</time></trkpt><trkpt lat="44.2400105" lon="8.2886653"><ele>764.0</ele><time>2026-05-03T14:02:05.151Z</time></trkpt><trkpt lat="44.2399908" lon="8.2888193"><ele>764.0</ele><time>2026-05-03T14:02:06.151Z</time></trkpt><trkpt lat="44.2399757" lon="8.2889743"><ele>764.6666666666666</ele><time>2026-05-03T14:02:07.152Z</time></trkpt><trkpt lat="44.2399622" lon="8.2891168"><ele>765.3333333333333</ele><time>2026-05-03T14:02:08.152Z</time></trkpt><trkpt lat="44.2399592" lon="8.2892481"><ele>766.0</ele><time>2026-05-03T14:02:09.151Z</time></trkpt><trkpt lat="44.2399699" lon="8.2893597"><ele>766.6666666666666</ele><time>2026-05-03T14:02:10.151Z</time></trkpt><trkpt lat="44.2399933" lon="8.2894632"><ele>767.3333333333334</ele><time>2026-05-03T14:02:11.151Z</time></trkpt><trkpt lat="44.2400326" lon="8.2895688"><ele>768.0</ele><time>2026-05-03T14:02:12.152Z</time></trkpt><trkpt lat="44.2400914" lon="8.2896876"><ele>767.0</ele><time>2026-05-03T14:02:13.151Z</time></trkpt><trkpt lat="44.2401415" lon="8.2898216"><ele>766.0</ele><time>2026-05-03T14:02:14.151Z</time></trkpt><trkpt lat="44.2401829" lon="8.2899701"><ele>765.0</ele><time>2026-05-03T14:02:15.151Z</time></trkpt><trkpt lat="44.2402133" lon="8.2901241"><ele>764.0</ele><time>2026-05-03T14:02:16.151Z</time></trkpt><trkpt lat="44.2402381" lon="8.2902808"><ele>764.0</ele><time>2026-05-03T14:02:17.151Z</time></trkpt><trkpt lat="44.2402668" lon="8.2904286"><ele>764.0</ele><time>2026-05-03T14:02:18.151Z</time></trkpt><trkpt lat="44.2403025" lon="8.2905651"><ele>764.0</ele><time>2026-05-03T14:02:19.151Z</time></trkpt><trkpt lat="44.240338" lon="8.2906889"><ele>764.0</ele><time>2026-05-03T14:02:20.151Z</time></trkpt><trkpt lat="44.2403721" lon="8.2908078"><ele>764.0</ele><time>2026-05-03T14:02:21.151Z</time></trkpt><trkpt lat="44.2404193" lon="8.2909195"><ele>763.6</ele><time>2026-05-03T14:02:22.151Z</time></trkpt><trkpt lat="44.2404869" lon="8.2910174"><ele>763.2</ele><time>2026-05-03T14:02:23.151Z</time></trkpt><trkpt lat="44.240561" lon="8.2910994"><ele>762.8000000000001</ele><time>2026-05-03T14:02:24.152Z</time></trkpt><trkpt lat="44.2406447" lon="8.2911666"><ele>762.4000000000001</ele><time>2026-05-03T14:02:25.151Z</time></trkpt><trkpt lat="44.2407312" lon="8.2912121"><ele>762.0</ele><time>2026-05-03T14:02:26.152Z</time></trkpt><trkpt lat="44.2408074" lon="8.2912388"><ele>764.8333333333334</ele><time>2026-05-03T14:02:27.151Z</time></trkpt><trkpt lat="44.24088" lon="8.2912382"><ele>767.6666666666667</ele><time>2026-05-03T14:02:28.151Z</time></trkpt><trkpt lat="44.2409531" lon="8.2912055"><ele>770.5</ele><time>2026-05-03T14:02:29.152Z</time></trkpt><trkpt lat="44.2410284" lon="8.2911451"><ele>773.3333333333334</ele><time>2026-05-03T14:02:30.152Z</time></trkpt><trkpt lat="44.2411031" lon="8.2910674"><ele>776.1666666666667</ele><time>2026-05-03T14:02:31.151Z</time></trkpt><trkpt lat="44.2411828" lon="8.2909823"><ele>779.0</ele><time>2026-05-03T14:02:32.152Z</time></trkpt><trkpt lat="44.241272" lon="8.2909129"><ele>779.0</ele><time>2026-05-03T14:02:33.152Z</time></trkpt><trkpt lat="44.241361" lon="8.2908556"><ele>779.0</ele><time>2026-05-03T14:02:34.151Z</time></trkpt><trkpt lat="44.2414531" lon="8.2908102"><ele>779.0</ele><time>2026-05-03T14:02:35.151Z</time></trkpt><trkpt lat="44.2415433" lon="8.2907703"><ele>779.0</ele><time>2026-05-03T14:02:36.152Z</time></trkpt><trkpt lat="44.2416377" lon="8.2907386"><ele>779.0</ele><time>2026-05-03T14:02:37.151Z</time></trkpt><trkpt lat="44.2417438" lon="8.2907114"><ele>778.0</ele><time>2026-05-03T14:02:38.151Z</time></trkpt><trkpt lat="44.241853" lon="8.2906841"><ele>777.0</ele><time>2026-05-03T14:02:39.151Z</time></trkpt><trkpt lat="44.2419622" lon="8.2906623"><ele>776.0</ele><time>2026-05-03T14:02:40.151Z</time></trkpt><trkpt lat="44.2420708" lon="8.2906495"><ele>775.0</ele><time>2026-05-03T14:02:41.151Z</time></trkpt><trkpt lat="44.242174" lon="8.2906344"><ele>774.0</ele><time>2026-05-03T14:02:42.151Z</time></trkpt><trkpt lat="44.2422677" lon="8.2906071"><ele>779.2</ele><time>2026-05-03T14:02:43.151Z</time></trkpt><trkpt lat="44.2423501" lon="8.2905664"><ele>784.4000000000001</ele><time>2026-05-03T14:02:44.152Z</time></trkpt><trkpt lat="44.242426" lon="8.290509"><ele>789.6</ele><time>2026-05-03T14:02:45.151Z</time></trkpt><trkpt lat="44.2424991" lon="8.2904352"><ele>794.8</ele><time>2026-05-03T14:02:46.151Z</time></trkpt><trkpt lat="44.2425766" lon="8.2903532"><ele>800.0</ele><time>2026-05-03T14:02:47.151Z</time></trkpt><trkpt lat="44.2426532" lon="8.2902657"><ele>800.0</ele><time>2026-05-03T14:02:48.151Z</time></trkpt><trkpt lat="44.242736" lon="8.2901717"><ele>800.0</ele><time>2026-05-03T14:02:49.152Z</time></trkpt><trkpt lat="44.242822" lon="8.2900769"><ele>800.0</ele><time>2026-05-03T14:02:50.151Z</time></trkpt><trkpt lat="44.2429063" lon="8.2899914"><ele>800.0</ele><time>2026-05-03T14:02:51.151Z</time></trkpt><trkpt lat="44.2429854" lon="8.2899024"><ele>800.0</ele><time>2026-05-03T14:02:52.151Z</time></trkpt><trkpt lat="44.2430667" lon="8.2898057"><ele>800.4</ele><time>2026-05-03T14:02:53.152Z</time></trkpt><trkpt lat="44.243148" lon="8.2897162"><ele>800.8</ele><time>2026-05-03T14:02:54.151Z</time></trkpt><trkpt lat="44.2432291" lon="8.2896208"><ele>801.2</ele><time>2026-05-03T14:02:55.152Z</time></trkpt><trkpt lat="44.2433075" lon="8.2895266"><ele>801.6</ele><time>2026-05-03T14:02:56.151Z</time></trkpt><trkpt lat="44.2433807" lon="8.2894343"><ele>802.0</ele><time>2026-05-03T14:02:57.151Z</time></trkpt><trkpt lat="44.2434601" lon="8.2893304"><ele>802.0</ele><time>2026-05-03T14:02:58.151Z</time></trkpt><trkpt lat="44.2435462" lon="8.2892307"><ele>802.0</ele><time>2026-05-03T14:02:59.151Z</time></trkpt><trkpt lat="44.2436332" lon="8.2891283"><ele>802.0</ele><time>2026-05-03T14:03:00.152Z</time></trkpt><trkpt lat="44.2437175" lon="8.2890251"><ele>802.0</ele><time>2026-05-03T14:03:01.151Z</time></trkpt><trkpt lat="44.2437908" lon="8.2889377"><ele>802.0</ele><time>2026-05-03T14:03:02.151Z</time></trkpt><trkpt lat="44.2438795" lon="8.288853"><ele>803.0</ele><time>2026-05-03T14:03:03.152Z</time></trkpt><trkpt lat="44.2439653" lon="8.288764"><ele>804.0</ele><time>2026-05-03T14:03:04.151Z</time></trkpt><trkpt lat="44.2440614" lon="8.2886717"><ele>805.0</ele><time>2026-05-03T14:03:05.151Z</time></trkpt><trkpt lat="44.2441676" lon="8.2885797"><ele>806.0</ele><time>2026-05-03T14:03:06.152Z</time></trkpt><trkpt lat="44.2442684" lon="8.2884973"><ele>806.0</ele><time>2026-05-03T14:03:07.151Z</time></trkpt><trkpt lat="44.2443705" lon="8.2884118"><ele>806.0</ele><time>2026-05-03T14:03:08.151Z</time></trkpt><trkpt lat="44.244474" lon="8.2883469"><ele>806.0</ele><time>2026-05-03T14:03:09.152Z</time></trkpt><trkpt lat="44.2445815" lon="8.2882742"><ele>806.0</ele><time>2026-05-03T14:03:10.151Z</time></trkpt><trkpt lat="44.2446972" lon="8.2882034"><ele>809.25</ele><time>2026-05-03T14:03:11.151Z</time></trkpt><trkpt lat="44.2448134" lon="8.2881414"><ele>812.5</ele><time>2026-05-03T14:03:12.152Z</time></trkpt><trkpt lat="44.2449213" lon="8.2880897"><ele>815.75</ele><time>2026-05-03T14:03:13.151Z</time></trkpt><trkpt lat="44.2450223" lon="8.2880418"><ele>819.0</ele><time>2026-05-03T14:03:14.151Z</time></trkpt><trkpt lat="44.2451274" lon="8.2880016"><ele>819.0</ele><time>2026-05-03T14:03:15.151Z</time></trkpt><trkpt lat="44.2452333" lon="8.2879563"><ele>819.0</ele><time>2026-05-03T14:03:16.151Z</time></trkpt><trkpt lat="44.2453349" lon="8.287873"><ele>819.0</ele><time>2026-05-03T14:03:17.151Z</time></trkpt><trkpt lat="44.2454334" lon="8.2877752"><ele>819.0</ele><time>2026-05-03T14:03:18.151Z</time></trkpt><trkpt lat="44.2455369" lon="8.2876882"><ele>814.8000000000001</ele><time>2026-05-03T14:03:19.151Z</time></trkpt><trkpt lat="44.2456325" lon="8.2876141"><ele>810.6</ele><time>2026-05-03T14:03:20.151Z</time></trkpt><trkpt lat="44.2457262" lon="8.2875455"><ele>806.4</ele><time>2026-05-03T14:03:21.151Z</time></trkpt><trkpt lat="44.2458164" lon="8.2874778"><ele>802.2</ele><time>2026-05-03T14:03:22.151Z</time></trkpt><trkpt lat="44.2458994" lon="8.2874052"><ele>798.0</ele><time>2026-05-03T14:03:23.152Z</time></trkpt><trkpt lat="44.2459799" lon="8.2873198"><ele>804.2</ele><time>2026-05-03T14:03:24.151Z</time></trkpt><trkpt lat="44.246059" lon="8.2872343"><ele>810.4</ele><time>2026-05-03T14:03:25.151Z</time></trkpt><trkpt lat="44.2461391" lon="8.2871589"><ele>816.6</ele><time>2026-05-03T14:03:26.152Z</time></trkpt><trkpt lat="44.2462268" lon="8.2871076"><ele>822.8000000000001</ele><time>2026-05-03T14:03:27.151Z</time></trkpt><trkpt lat="44.2463158" lon="8.2870842"><ele>829.0</ele><time>2026-05-03T14:03:28.151Z</time></trkpt><trkpt lat="44.2464029" lon="8.2870762"><ele>828.4999999999999</ele><time>2026-05-03T14:03:29.151Z</time></trkpt><trkpt lat="44.2464893" lon="8.2870789"><ele>828.0</ele><time>2026-05-03T14:03:30.152Z</time></trkpt><trkpt lat="44.2465711" lon="8.2870967"><ele>827.5</ele><time>2026-05-03T14:03:31.151Z</time></trkpt><trkpt lat="44.2466449" lon="8.2871546"><ele>827.0</ele><time>2026-05-03T14:03:32.151Z</time></trkpt><trkpt lat="44.2467246" lon="8.2871801"><ele>826.4999999999999</ele><time>2026-05-03T14:03:33.151Z</time></trkpt><trkpt lat="44.2468037" lon="8.2871847"><ele>826.0</ele><time>2026-05-03T14:03:34.152Z</time></trkpt><trkpt lat="44.2468817" lon="8.2871637"><ele>826.0</ele><time>2026-05-03T14:03:35.151Z</time></trkpt><trkpt lat="44.2469707" lon="8.2871238"><ele>826.0</ele><time>2026-05-03T14:03:36.152Z</time></trkpt><trkpt lat="44.2470886" lon="8.2871036"><ele>826.0</ele><time>2026-05-03T14:03:37.152Z</time></trkpt><trkpt lat="44.247204" lon="8.2870866"><ele>826.0</ele><time>2026-05-03T14:03:38.152Z</time></trkpt><trkpt lat="44.2473053" lon="8.2870825"><ele>826.0</ele><time>2026-05-03T14:03:39.152Z</time></trkpt><trkpt lat="44.2474036" lon="8.2870877"><ele>823.4999999999999</ele><time>2026-05-03T14:03:40.151Z</time></trkpt><trkpt lat="44.2474897" lon="8.2870771"><ele>821.0</ele><time>2026-05-03T14:03:41.151Z</time></trkpt><trkpt lat="44.2475605" lon="8.2870451"><ele>818.5</ele><time>2026-05-03T14:03:42.151Z</time></trkpt><trkpt lat="44.2476243" lon="8.2869887"><ele>816.0</ele><time>2026-05-03T14:03:43.151Z</time></trkpt><trkpt lat="44.2476884" lon="8.2869195"><ele>813.4999999999999</ele><time>2026-05-03T14:03:44.152Z</time></trkpt><trkpt lat="44.24776" lon="8.2868344"><ele>811.0</ele><time>2026-05-03T14:03:45.151Z</time></trkpt><trkpt lat="44.2478222" lon="8.2867333"><ele>811.0</ele><time>2026-05-03T14:03:46.152Z</time></trkpt><trkpt lat="44.2478939" lon="8.2866153"><ele>811.0</ele><time>2026-05-03T14:03:47.151Z</time></trkpt><trkpt lat="44.2479638" lon="8.2864949"><ele>811.0</ele><time>2026-05-03T14:03:48.152Z</time></trkpt><trkpt lat="44.2480341" lon="8.2863855"><ele>811.0</ele><time>2026-05-03T14:03:49.151Z</time></trkpt><trkpt lat="44.2481057" lon="8.286292"><ele>811.0</ele><time>2026-05-03T14:03:50.151Z</time></trkpt><trkpt lat="44.2481728" lon="8.2862193"><ele>810.8333333333333</ele><time>2026-05-03T14:03:51.152Z</time></trkpt><trkpt lat="44.2482414" lon="8.2861644"><ele>810.6666666666666</ele><time>2026-05-03T14:03:52.151Z</time></trkpt><trkpt lat="44.2483168" lon="8.2861314"><ele>810.5</ele><time>2026-05-03T14:03:53.151Z</time></trkpt><trkpt lat="44.2483996" lon="8.2861093"><ele>810.3333333333333</ele><time>2026-05-03T14:03:54.151Z</time></trkpt><trkpt lat="44.248486" lon="8.2860658"><ele>810.1666666666666</ele><time>2026-05-03T14:03:55.151Z</time></trkpt><trkpt lat="44.2485748" lon="8.2860062"><ele>810.0</ele><time>2026-05-03T14:03:56.151Z</time></trkpt><trkpt lat="44.2486564" lon="8.2859162"><ele>810.0</ele><time>2026-05-03T14:03:57.151Z</time></trkpt><trkpt lat="44.2487268" lon="8.2857985"><ele>810.0</ele><time>2026-05-03T14:03:58.152Z</time></trkpt><trkpt lat="44.2487861" lon="8.2856725"><ele>810.0</ele><time>2026-05-03T14:03:59.151Z</time></trkpt><trkpt lat="44.2488255" lon="8.285538"><ele>810.0</ele><time>2026-05-03T14:04:00.151Z</time></trkpt><trkpt lat="44.2488533" lon="8.2854066"><ele>810.0</ele><time>2026-05-03T14:04:01.152Z</time></trkpt><trkpt lat="44.248888" lon="8.2853017"><ele>811.5</ele><time>2026-05-03T14:04:02.151Z</time></trkpt><trkpt lat="44.2489304" lon="8.2852195"><ele>813.0</ele><time>2026-05-03T14:04:03.151Z</time></trkpt><trkpt lat="44.2489908" lon="8.2851745"><ele>814.5</ele><time>2026-05-03T14:04:04.151Z</time></trkpt><trkpt lat="44.2490667" lon="8.2851564"><ele>816.0</ele><time>2026-05-03T14:04:05.151Z</time></trkpt><trkpt lat="44.2491539" lon="8.2851658"><ele>817.5</ele><time>2026-05-03T14:04:06.151Z</time></trkpt><trkpt lat="44.2492348" lon="8.2852012"><ele>819.0</ele><time>2026-05-03T14:04:07.151Z</time></trkpt><trkpt lat="44.2492879" lon="8.285272"><ele>819.0</ele><time>2026-05-03T14:04:08.151Z</time></trkpt><trkpt lat="44.2493335" lon="8.2853494"><ele>819.0</ele><time>2026-05-03T14:04:09.151Z</time></trkpt><trkpt lat="44.2493593" lon="8.2854683"><ele>819.0</ele><time>2026-05-03T14:04:10.151Z</time></trkpt><trkpt lat="44.2493833" lon="8.2855954"><ele>819.0</ele><time>2026-05-03T14:04:11.152Z</time></trkpt><trkpt lat="44.2494326" lon="8.2856987"><ele>819.0</ele><time>2026-05-03T14:04:12.151Z</time></trkpt><trkpt lat="44.2495073" lon="8.2857848"><ele>819.0</ele><time>2026-05-03T14:04:13.151Z</time></trkpt><trkpt lat="44.2496016" lon="8.285865"><ele>817.4000000000001</ele><time>2026-05-03T14:04:14.151Z</time></trkpt><trkpt lat="44.2497047" lon="8.2859334"><ele>815.8</ele><time>2026-05-03T14:04:15.151Z</time></trkpt><trkpt lat="44.2497969" lon="8.2859716"><ele>814.2</ele><time>2026-05-03T14:04:16.151Z</time></trkpt><trkpt lat="44.2498818" lon="8.2859718"><ele>812.5999999999999</ele><time>2026-05-03T14:04:17.152Z</time></trkpt><trkpt lat="44.2499788" lon="8.2859381"><ele>811.0</ele><time>2026-05-03T14:04:18.151Z</time></trkpt><trkpt lat="44.2500871" lon="8.2858951"><ele>811.0</ele><time>2026-05-03T14:04:19.152Z</time></trkpt><trkpt lat="44.250188" lon="8.2858732"><ele>811.0</ele><time>2026-05-03T14:04:20.151Z</time></trkpt><trkpt lat="44.2502808" lon="8.2858718"><ele>811.0</ele><time>2026-05-03T14:04:21.151Z</time></trkpt><trkpt lat="44.2503679" lon="8.2858953"><ele>811.0</ele><time>2026-05-03T14:04:22.151Z</time></trkpt><trkpt lat="44.2504474" lon="8.28596"><ele>811.0</ele><time>2026-05-03T14:04:23.152Z</time></trkpt><trkpt lat="44.2505204" lon="8.2860506"><ele>811.0</ele><time>2026-05-03T14:04:24.151Z</time></trkpt><trkpt lat="44.2505886" lon="8.2861544"><ele>811.0</ele><time>2026-05-03T14:04:25.151Z</time></trkpt><trkpt lat="44.2506595" lon="8.2862513"><ele>811.0</ele><time>2026-05-03T14:04:26.152Z</time></trkpt><trkpt lat="44.2507293" lon="8.2863397"><ele>811.0</ele><time>2026-05-03T14:04:27.152Z</time></trkpt><trkpt lat="44.2508022" lon="8.2864176"><ele>811.0</ele><time>2026-05-03T14:04:28.151Z</time></trkpt><trkpt lat="44.2508872" lon="8.2864456"><ele>812.8</ele><time>2026-05-03T14:04:29.151Z</time></trkpt><trkpt lat="44.250977" lon="8.2864576"><ele>814.5999999999999</ele><time>2026-05-03T14:04:30.151Z</time></trkpt><trkpt lat="44.2510671" lon="8.2864622"><ele>816.4</ele><time>2026-05-03T14:04:31.152Z</time></trkpt><trkpt lat="44.2511788" lon="8.2864429"><ele>818.2</ele><time>2026-05-03T14:04:32.151Z</time></trkpt><trkpt lat="44.2512897" lon="8.2864193"><ele>820.0</ele><time>2026-05-03T14:04:33.152Z</time></trkpt><trkpt lat="44.2513956" lon="8.2864022"><ele>818.8</ele><time>2026-05-03T14:04:34.151Z</time></trkpt><trkpt lat="44.2514855" lon="8.2864386"><ele>817.6</ele><time>2026-05-03T14:04:35.151Z</time></trkpt><trkpt lat="44.2515709" lon="8.2864912"><ele>816.4000000000001</ele><time>2026-05-03T14:04:36.151Z</time></trkpt><trkpt lat="44.2516571" lon="8.2865814"><ele>815.2</ele><time>2026-05-03T14:04:37.151Z</time></trkpt><trkpt lat="44.2517441" lon="8.2866818"><ele>814.0</ele><time>2026-05-03T14:04:38.151Z</time></trkpt><trkpt lat="44.2518442" lon="8.286788"><ele>814.0</ele><time>2026-05-03T14:04:39.151Z</time></trkpt><trkpt lat="44.2519436" lon="8.2868852"><ele>814.0</ele><time>2026-05-03T14:04:40.152Z</time></trkpt><trkpt lat="44.2520462" lon="8.2869677"><ele>814.0</ele><time>2026-05-03T14:04:41.151Z</time></trkpt><trkpt lat="44.2521556" lon="8.2870519"><ele>814.0</ele><time>2026-05-03T14:04:42.151Z</time></trkpt><trkpt lat="44.2522722" lon="8.2871483"><ele>814.0</ele><time>2026-05-03T14:04:43.151Z</time></trkpt><trkpt lat="44.2523794" lon="8.2872641"><ele>814.0</ele><time>2026-05-03T14:04:44.152Z</time></trkpt><trkpt lat="44.2524746" lon="8.2873914"><ele>814.0</ele><time>2026-05-03T14:04:45.151Z</time></trkpt><trkpt lat="44.2525459" lon="8.2875255"><ele>814.0</ele><time>2026-05-03T14:04:46.151Z</time></trkpt><trkpt lat="44.2526123" lon="8.2876545"><ele>814.0</ele><time>2026-05-03T14:04:47.152Z</time></trkpt><trkpt lat="44.2526982" lon="8.2877747"><ele>814.0</ele><time>2026-05-03T14:04:48.151Z</time></trkpt><trkpt lat="44.2528104" lon="8.2878892"><ele>814.0</ele><time>2026-05-03T14:04:49.152Z</time></trkpt><trkpt lat="44.2529272" lon="8.2879927"><ele>814.0</ele><time>2026-05-03T14:04:50.151Z</time></trkpt><trkpt lat="44.2530328" lon="8.2880874"><ele>813.5</ele><time>2026-05-03T14:04:51.151Z</time></trkpt><trkpt lat="44.253137" lon="8.2881803"><ele>813.0</ele><time>2026-05-03T14:04:52.152Z</time></trkpt><trkpt lat="44.2532466" lon="8.2882306"><ele>812.5</ele><time>2026-05-03T14:04:53.151Z</time></trkpt><trkpt lat="44.2533606" lon="8.2882787"><ele>812.0</ele><time>2026-05-03T14:04:54.151Z</time></trkpt><trkpt lat="44.2534741" lon="8.2883181"><ele>812.0</ele><time>2026-05-03T14:04:55.151Z</time></trkpt><trkpt lat="44.2535859" lon="8.2883618"><ele>812.0</ele><time>2026-05-03T14:04:56.151Z</time></trkpt><trkpt lat="44.2536886" lon="8.2883935"><ele>812.0</ele><time>2026-05-03T14:04:57.151Z</time></trkpt><trkpt lat="44.2537929" lon="8.2884178"><ele>812.0</ele><time>2026-05-03T14:04:58.152Z</time></trkpt><trkpt lat="44.2538913" lon="8.2884283"><ele>812.0</ele><time>2026-05-03T14:04:59.151Z</time></trkpt><trkpt lat="44.2539828" lon="8.2884136"><ele>813.8333333333334</ele><time>2026-05-03T14:05:00.152Z</time></trkpt><trkpt lat="44.2540611" lon="8.2883671"><ele>815.6666666666667</ele><time>2026-05-03T14:05:01.151Z</time></trkpt><trkpt lat="44.2541303" lon="8.2883356"><ele>817.5</ele><time>2026-05-03T14:05:02.151Z</time></trkpt><trkpt lat="44.2542075" lon="8.2883506"><ele>819.3333333333333</ele><time>2026-05-03T14:05:03.151Z</time></trkpt><trkpt lat="44.2543001" lon="8.2884725"><ele>821.1666666666666</ele><time>2026-05-03T14:05:05.152Z</time></trkpt><trkpt lat="44.2543329" lon="8.2885785"><ele>823.0</ele><time>2026-05-03T14:05:06.151Z</time></trkpt><trkpt lat="44.2543486" lon="8.2887003"><ele>823.0</ele><time>2026-05-03T14:05:07.151Z</time></trkpt><trkpt lat="44.254357" lon="8.2888245"><ele>823.0</ele><time>2026-05-03T14:05:08.151Z</time></trkpt><trkpt lat="44.2543712" lon="8.2889567"><ele>823.0</ele><time>2026-05-03T14:05:09.151Z</time></trkpt><trkpt lat="44.2544059" lon="8.2890907"><ele>823.0</ele><time>2026-05-03T14:05:10.152Z</time></trkpt><trkpt lat="44.2544467" lon="8.2892227"><ele>823.0</ele><time>2026-05-03T14:05:11.151Z</time></trkpt><trkpt lat="44.2544876" lon="8.2893502"><ele>820.0</ele><time>2026-05-03T14:05:12.151Z</time></trkpt><trkpt lat="44.2545487" lon="8.2894576"><ele>817.0</ele><time>2026-05-03T14:05:13.151Z</time></trkpt><trkpt lat="44.2545912" lon="8.2895849"><ele>814.0</ele><time>2026-05-03T14:05:14.151Z</time></trkpt><trkpt lat="44.2546269" lon="8.2897221"><ele>811.0</ele><time>2026-05-03T14:05:15.153Z</time></trkpt><trkpt lat="44.2546423" lon="8.2898462"><ele>808.0</ele><time>2026-05-03T14:05:16.151Z</time></trkpt><trkpt lat="44.2546633" lon="8.2899676"><ele>806.2</ele><time>2026-05-03T14:05:17.151Z</time></trkpt><trkpt lat="44.2547026" lon="8.2900914"><ele>804.4</ele><time>2026-05-03T14:05:18.151Z</time></trkpt><trkpt lat="44.2547604" lon="8.2901938"><ele>802.6</ele><time>2026-05-03T14:05:19.151Z</time></trkpt><trkpt lat="44.2548102" lon="8.2902903"><ele>800.8000000000001</ele><time>2026-05-03T14:05:20.152Z</time></trkpt><trkpt lat="44.2548413" lon="8.2904057"><ele>799.0</ele><time>2026-05-03T14:05:21.151Z</time></trkpt><trkpt lat="44.2548324" lon="8.2905338"><ele>797.8000000000001</ele><time>2026-05-03T14:05:22.152Z</time></trkpt><trkpt lat="44.2548205" lon="8.2906683"><ele>796.6</ele><time>2026-05-03T14:05:23.151Z</time></trkpt><trkpt lat="44.2548122" lon="8.2908048"><ele>795.4</ele><time>2026-05-03T14:05:24.152Z</time></trkpt><trkpt lat="44.2548038" lon="8.29097"><ele>794.2</ele><time>2026-05-03T14:05:25.152Z</time></trkpt><trkpt lat="44.2547946" lon="8.2911298"><ele>793.0</ele><time>2026-05-03T14:05:26.151Z</time></trkpt><trkpt lat="44.2547862" lon="8.2913018"><ele>793.5</ele><time>2026-05-03T14:05:27.151Z</time></trkpt><trkpt lat="44.2547861" lon="8.291496"><ele>794.0</ele><time>2026-05-03T14:05:28.151Z</time></trkpt><trkpt lat="44.2547653" lon="8.291684"><ele>794.5</ele><time>2026-05-03T14:05:29.151Z</time></trkpt><trkpt lat="44.2547478" lon="8.2918734"><ele>795.0</ele><time>2026-05-03T14:05:30.151Z</time></trkpt><trkpt lat="44.2547504" lon="8.2920449"><ele>795.0</ele><time>2026-05-03T14:05:31.151Z</time></trkpt><trkpt lat="44.2547592" lon="8.2922046"><ele>795.0</ele><time>2026-05-03T14:05:32.152Z</time></trkpt><trkpt lat="44.2547776" lon="8.2923684"><ele>795.0</ele><time>2026-05-03T14:05:33.151Z</time></trkpt><trkpt lat="44.254809" lon="8.2925365"><ele>795.0</ele><time>2026-05-03T14:05:34.152Z</time></trkpt><trkpt lat="44.2548526" lon="8.2927039"><ele>799.0</ele><time>2026-05-03T14:05:35.151Z</time></trkpt><trkpt lat="44.254893" lon="8.2928525"><ele>803.0</ele><time>2026-05-03T14:05:36.151Z</time></trkpt><trkpt lat="44.2549211" lon="8.2929877"><ele>807.0</ele><time>2026-05-03T14:05:37.151Z</time></trkpt><trkpt lat="44.2549272" lon="8.2931134"><ele>811.0</ele><time>2026-05-03T14:05:38.151Z</time></trkpt><trkpt lat="44.254914" lon="8.2932311"><ele>815.0</ele><time>2026-05-03T14:05:39.151Z</time></trkpt><trkpt lat="44.2548987" lon="8.2933523"><ele>815.0000000000001</ele><time>2026-05-03T14:05:40.151Z</time></trkpt><trkpt lat="44.2549002" lon="8.2934755"><ele>815.0</ele><time>2026-05-03T14:05:41.151Z</time></trkpt><trkpt lat="44.2549276" lon="8.2935557"><ele>815.0</ele><time>2026-05-03T14:05:42.151Z</time></trkpt><trkpt lat="44.2549909" lon="8.2935976"><ele>815.0</ele><time>2026-05-03T14:05:43.152Z</time></trkpt><trkpt lat="44.25506" lon="8.2936341"><ele>815.0000000000001</ele><time>2026-05-03T14:05:44.151Z</time></trkpt><trkpt lat="44.2551683" lon="8.2936305"><ele>815.0</ele><time>2026-05-03T14:05:45.151Z</time></trkpt><trkpt lat="44.2552733" lon="8.2936216"><ele>815.0</ele><time>2026-05-03T14:05:46.151Z</time></trkpt><trkpt lat="44.2553656" lon="8.2936201"><ele>815.0</ele><time>2026-05-03T14:05:47.151Z</time></trkpt><trkpt lat="44.2554454" lon="8.2936406"><ele>815.0</ele><time>2026-05-03T14:05:48.152Z</time></trkpt><trkpt lat="44.2555106" lon="8.2936866"><ele>815.0</ele><time>2026-05-03T14:05:49.151Z</time></trkpt><trkpt lat="44.255557" lon="8.2937623"><ele>815.0</ele><time>2026-05-03T14:05:50.152Z</time></trkpt><trkpt lat="44.2555817" lon="8.2938463"><ele>815.0</ele><time>2026-05-03T14:05:51.152Z</time></trkpt><trkpt lat="44.2555825" lon="8.2939377"><ele>815.0</ele><time>2026-05-03T14:05:52.151Z</time></trkpt><trkpt lat="44.2555593" lon="8.2940364"><ele>813.6</ele><time>2026-05-03T14:05:53.152Z</time></trkpt><trkpt lat="44.2555215" lon="8.2941236"><ele>812.2</ele><time>2026-05-03T14:05:54.152Z</time></trkpt><trkpt lat="44.2554846" lon="8.2942253"><ele>810.8</ele><time>2026-05-03T14:05:55.151Z</time></trkpt><trkpt lat="44.2554459" lon="8.2943485"><ele>809.4</ele><time>2026-05-03T14:05:56.152Z</time></trkpt><trkpt lat="44.2554167" lon="8.294479"><ele>808.0</ele><time>2026-05-03T14:05:57.151Z</time></trkpt><trkpt lat="44.2553859" lon="8.2946205"><ele>807.0</ele><time>2026-05-03T14:05:58.151Z</time></trkpt><trkpt lat="44.2553678" lon="8.2947609"><ele>806.0</ele><time>2026-05-03T14:05:59.152Z</time></trkpt><trkpt lat="44.2553547" lon="8.2948929"><ele>805.0</ele><time>2026-05-03T14:06:00.151Z</time></trkpt><trkpt lat="44.2553697" lon="8.295045"><ele>804.0</ele><time>2026-05-03T14:06:01.151Z</time></trkpt><trkpt lat="44.2553826" lon="8.2951984"><ele>803.0</ele><time>2026-05-03T14:06:02.151Z</time></trkpt><trkpt lat="44.2553812" lon="8.2953821"><ele>803.0</ele><time>2026-05-03T14:06:03.151Z</time></trkpt><trkpt lat="44.2553878" lon="8.2955451"><ele>803.0</ele><time>2026-05-03T14:06:04.151Z</time></trkpt><trkpt lat="44.2553942" lon="8.295676"><ele>803.0</ele><time>2026-05-03T14:06:05.151Z</time></trkpt><trkpt lat="44.2554133" lon="8.2958126"><ele>803.0</ele><time>2026-05-03T14:06:06.152Z</time></trkpt><trkpt lat="44.2554452" lon="8.2959351"><ele>803.0</ele><time>2026-05-03T14:06:07.151Z</time></trkpt><trkpt lat="44.2554932" lon="8.2960455"><ele>801.75</ele><time>2026-05-03T14:06:08.151Z</time></trkpt><trkpt lat="44.2555556" lon="8.2961666"><ele>800.5</ele><time>2026-05-03T14:06:09.152Z</time></trkpt><trkpt lat="44.2556242" lon="8.2962895"><ele>799.25</ele><time>2026-05-03T14:06:10.152Z</time></trkpt><trkpt lat="44.2556913" lon="8.2964341"><ele>798.0</ele><time>2026-05-03T14:06:11.151Z</time></trkpt><trkpt lat="44.2557476" lon="8.2965909"><ele>805.5</ele><time>2026-05-03T14:06:12.151Z</time></trkpt><trkpt lat="44.2558072" lon="8.2967445"><ele>813.0</ele><time>2026-05-03T14:06:13.151Z</time></trkpt><trkpt lat="44.2558727" lon="8.2968807"><ele>820.5</ele><time>2026-05-03T14:06:14.151Z</time></trkpt><trkpt lat="44.2559447" lon="8.2969907"><ele>828.0</ele><time>2026-05-03T14:06:15.152Z</time></trkpt><trkpt lat="44.256025" lon="8.2971013"><ele>828.0</ele><time>2026-05-03T14:06:16.151Z</time></trkpt><trkpt lat="44.2560863" lon="8.2972147"><ele>828.0</ele><time>2026-05-03T14:06:17.151Z</time></trkpt><trkpt lat="44.256128" lon="8.2973418"><ele>828.0</ele><time>2026-05-03T14:06:18.151Z</time></trkpt><trkpt lat="44.2561405" lon="8.2974925"><ele>828.0</ele><time>2026-05-03T14:06:19.151Z</time></trkpt><trkpt lat="44.2561486" lon="8.2976444"><ele>828.0</ele><time>2026-05-03T14:06:20.151Z</time></trkpt><trkpt lat="44.2561668" lon="8.297797"><ele>825.2</ele><time>2026-05-03T14:06:21.151Z</time></trkpt><trkpt lat="44.2561921" lon="8.297951"><ele>822.4</ele><time>2026-05-03T14:06:22.151Z</time></trkpt><trkpt lat="44.2562335" lon="8.2980877"><ele>819.6</ele><time>2026-05-03T14:06:23.151Z</time></trkpt><trkpt lat="44.2562752" lon="8.2982218"><ele>816.8000000000001</ele><time>2026-05-03T14:06:24.151Z</time></trkpt><trkpt lat="44.2563189" lon="8.2983423"><ele>814.0</ele><time>2026-05-03T14:06:25.151Z</time></trkpt><trkpt lat="44.2563636" lon="8.2984774"><ele>813.1666666666666</ele><time>2026-05-03T14:06:26.152Z</time></trkpt><trkpt lat="44.2563969" lon="8.2986115"><ele>812.3333333333333</ele><time>2026-05-03T14:06:27.152Z</time></trkpt><trkpt lat="44.2564063" lon="8.2987321"><ele>811.5</ele><time>2026-05-03T14:06:28.151Z</time></trkpt><trkpt lat="44.2563986" lon="8.2988498"><ele>810.6666666666667</ele><time>2026-05-03T14:06:29.152Z</time></trkpt><trkpt lat="44.2563891" lon="8.2989475"><ele>809.8333333333334</ele><time>2026-05-03T14:06:30.151Z</time></trkpt><trkpt lat="44.2563859" lon="8.299036"><ele>809.0</ele><time>2026-05-03T14:06:32.151Z</time></trkpt><trkpt lat="44.2564017" lon="8.2991527"><ele>808.0</ele><time>2026-05-03T14:07:16.151Z</time></trkpt><trkpt lat="44.2563205" lon="8.299367"><ele>807.0</ele><time>2026-05-03T14:07:18.151Z</time></trkpt><trkpt lat="44.2562404" lon="8.2995911"><ele>806.0</ele><time>2026-05-03T14:07:19.151Z</time></trkpt><trkpt lat="44.2561735" lon="8.2997944"><ele>807.5999999999999</ele><time>2026-05-03T14:07:20.151Z</time></trkpt><trkpt lat="44.2561125" lon="8.2999449"><ele>809.2</ele><time>2026-05-03T14:07:21.152Z</time></trkpt><trkpt lat="44.2560626" lon="8.3000531"><ele>810.8</ele><time>2026-05-03T14:07:22.151Z</time></trkpt><trkpt lat="44.2560083" lon="8.3001555"><ele>812.4000000000001</ele><time>2026-05-03T14:07:23.151Z</time></trkpt><trkpt lat="44.2559498" lon="8.3002576"><ele>814.0</ele><time>2026-05-03T14:07:24.151Z</time></trkpt><trkpt lat="44.255889" lon="8.3003548"><ele>813.9999999999999</ele><time>2026-05-03T14:07:25.152Z</time></trkpt><trkpt lat="44.2558234" lon="8.3004358"><ele>814.0</ele><time>2026-05-03T14:07:26.151Z</time></trkpt><trkpt lat="44.2557614" lon="8.3005155"><ele>814.0</ele><time>2026-05-03T14:07:27.151Z</time></trkpt><trkpt lat="44.2557002" lon="8.3006036"><ele>814.0</ele><time>2026-05-03T14:07:28.151Z</time></trkpt><trkpt lat="44.2556621" lon="8.3006944"><ele>813.9999999999999</ele><time>2026-05-03T14:07:29.152Z</time></trkpt><trkpt lat="44.255635" lon="8.300812"><ele>814.0</ele><time>2026-05-03T14:07:30.151Z</time></trkpt><trkpt lat="44.2556092" lon="8.300942"><ele>813.6</ele><time>2026-05-03T14:07:31.151Z</time></trkpt><trkpt lat="44.2555708" lon="8.3010675"><ele>813.2</ele><time>2026-05-03T14:07:32.152Z</time></trkpt><trkpt lat="44.2555261" lon="8.3012044"><ele>812.8000000000001</ele><time>2026-05-03T14:07:33.151Z</time></trkpt><trkpt lat="44.2554756" lon="8.3013317"><ele>812.4000000000001</ele><time>2026-05-03T14:07:34.151Z</time></trkpt><trkpt lat="44.2554257" lon="8.3014525"><ele>812.0</ele><time>2026-05-03T14:07:35.152Z</time></trkpt><trkpt lat="44.2553786" lon="8.3015432"><ele>812.0</ele><time>2026-05-03T14:07:36.151Z</time></trkpt><trkpt lat="44.2553106" lon="8.3016231"><ele>812.0</ele><time>2026-05-03T14:07:37.151Z</time></trkpt><trkpt lat="44.2552382" lon="8.3017075"><ele>812.0</ele><time>2026-05-03T14:07:38.152Z</time></trkpt><trkpt lat="44.2551626" lon="8.3017736"><ele>812.0</ele><time>2026-05-03T14:07:39.151Z</time></trkpt><trkpt lat="44.2550892" lon="8.3018659"><ele>812.0</ele><time>2026-05-03T14:07:40.151Z</time></trkpt><trkpt lat="44.2550138" lon="8.3019555"><ele>812.0000000000001</ele><time>2026-05-03T14:07:41.151Z</time></trkpt><trkpt lat="44.2549495" lon="8.3020595"><ele>812.0</ele><time>2026-05-03T14:07:42.152Z</time></trkpt><trkpt lat="44.2548914" lon="8.3021474"><ele>812.0</ele><time>2026-05-03T14:07:43.151Z</time></trkpt><trkpt lat="44.254833" lon="8.3022261"><ele>812.0</ele><time>2026-05-03T14:07:44.151Z</time></trkpt><trkpt lat="44.2547779" lon="8.3023099"><ele>812.0000000000001</ele><time>2026-05-03T14:07:45.151Z</time></trkpt><trkpt lat="44.2547438" lon="8.3024001"><ele>812.0</ele><time>2026-05-03T14:07:46.151Z</time></trkpt><trkpt lat="44.2547276" lon="8.3025838"><ele>811.2</ele><time>2026-05-03T14:07:48.151Z</time></trkpt><trkpt lat="44.2547332" lon="8.3026961"><ele>810.4000000000001</ele><time>2026-05-03T14:07:49.151Z</time></trkpt><trkpt lat="44.2547386" lon="8.3028102"><ele>809.5999999999999</ele><time>2026-05-03T14:07:50.152Z</time></trkpt><trkpt lat="44.2547284" lon="8.3029431"><ele>808.8</ele><time>2026-05-03T14:07:51.151Z</time></trkpt><trkpt lat="44.254696" lon="8.3030813"><ele>808.0</ele><time>2026-05-03T14:07:52.151Z</time></trkpt><trkpt lat="44.2546553" lon="8.3031932"><ele>808.0</ele><time>2026-05-03T14:07:53.152Z</time></trkpt><trkpt lat="44.2546009" lon="8.3032815"><ele>808.0</ele><time>2026-05-03T14:07:54.152Z</time></trkpt><trkpt lat="44.2545475" lon="8.3033814"><ele>808.0</ele><time>2026-05-03T14:07:55.151Z</time></trkpt><trkpt lat="44.2544775" lon="8.303503"><ele>808.0</ele><time>2026-05-03T14:07:56.151Z</time></trkpt><trkpt lat="44.2544174" lon="8.3036311"><ele>808.0</ele><time>2026-05-03T14:07:57.152Z</time></trkpt><trkpt lat="44.2543686" lon="8.3037546"><ele>808.0</ele><time>2026-05-03T14:07:58.151Z</time></trkpt><trkpt lat="44.2543304" lon="8.30388"><ele>808.0</ele><time>2026-05-03T14:07:59.151Z</time></trkpt><trkpt lat="44.2543011" lon="8.3040119"><ele>808.0</ele><time>2026-05-03T14:08:00.152Z</time></trkpt><trkpt lat="44.2542753" lon="8.3041504"><ele>808.0</ele><time>2026-05-03T14:08:01.151Z</time></trkpt><trkpt lat="44.2542664" lon="8.304286"><ele>808.0</ele><time>2026-05-03T14:08:02.151Z</time></trkpt><trkpt lat="44.2542694" lon="8.3044157"><ele>808.5714285714286</ele><time>2026-05-03T14:08:03.151Z</time></trkpt><trkpt lat="44.2542745" lon="8.3045297"><ele>809.1428571428571</ele><time>2026-05-03T14:08:04.151Z</time></trkpt><trkpt lat="44.2542783" lon="8.304629"><ele>809.7142857142858</ele><time>2026-05-03T14:08:05.151Z</time></trkpt><trkpt lat="44.2542767" lon="8.3047244"><ele>810.2857142857142</ele><time>2026-05-03T14:08:06.151Z</time></trkpt><trkpt lat="44.2542751" lon="8.3048187"><ele>810.8571428571429</ele><time>2026-05-03T14:08:07.151Z</time></trkpt><trkpt lat="44.2542784" lon="8.3049178"><ele>811.4285714285714</ele><time>2026-05-03T14:08:08.151Z</time></trkpt><trkpt lat="44.2542971" lon="8.305003"><ele>812.0</ele><time>2026-05-03T14:08:09.151Z</time></trkpt><trkpt lat="44.2543331" lon="8.3051382"><ele>812.0</ele><time>2026-05-03T14:08:11.152Z</time></trkpt><trkpt lat="44.2543773" lon="8.3052976"><ele>812.0</ele><time>2026-05-03T14:08:13.152Z</time></trkpt><trkpt lat="44.2544061" lon="8.3054034"><ele>812.0</ele><time>2026-05-03T14:08:14.151Z</time></trkpt><trkpt lat="44.2544347" lon="8.305524"><ele>812.0</ele><time>2026-05-03T14:08:15.151Z</time></trkpt><trkpt lat="44.2544644" lon="8.3056437"><ele>812.0</ele><time>2026-05-03T14:08:16.151Z</time></trkpt><trkpt lat="44.2545059" lon="8.3057801"><ele>811.1666666666667</ele><time>2026-05-03T14:08:17.151Z</time></trkpt><trkpt lat="44.2545383" lon="8.3059086"><ele>810.3333333333334</ele><time>2026-05-03T14:08:18.152Z</time></trkpt><trkpt lat="44.2545573" lon="8.3060325"><ele>809.5</ele><time>2026-05-03T14:08:19.152Z</time></trkpt><trkpt lat="44.2545809" lon="8.3061336"><ele>808.6666666666667</ele><time>2026-05-03T14:08:20.152Z</time></trkpt><trkpt lat="44.2545875" lon="8.306242"><ele>807.8333333333334</ele><time>2026-05-03T14:08:21.152Z</time></trkpt><trkpt lat="44.2545873" lon="8.3063498"><ele>807.0</ele><time>2026-05-03T14:08:22.151Z</time></trkpt><trkpt lat="44.2545772" lon="8.3064498"><ele>806.3333333333334</ele><time>2026-05-03T14:08:23.151Z</time></trkpt><trkpt lat="44.2545557" lon="8.3065586"><ele>805.6666666666667</ele><time>2026-05-03T14:08:24.152Z</time></trkpt><trkpt lat="44.2545391" lon="8.3066509"><ele>805.0</ele><time>2026-05-03T14:08:25.151Z</time></trkpt><trkpt lat="44.2545438" lon="8.3067522"><ele>804.3333333333334</ele><time>2026-05-03T14:08:26.151Z</time></trkpt><trkpt lat="44.2545685" lon="8.3068504"><ele>803.6666666666667</ele><time>2026-05-03T14:08:27.151Z</time></trkpt><trkpt lat="44.2546062" lon="8.3069523"><ele>803.0</ele><time>2026-05-03T14:08:28.151Z</time></trkpt><trkpt lat="44.2546573" lon="8.307046"><ele>803.0</ele><time>2026-05-03T14:08:29.152Z</time></trkpt><trkpt lat="44.2547329" lon="8.3071031"><ele>803.0</ele><time>2026-05-03T14:08:30.151Z</time></trkpt><trkpt lat="44.254826" lon="8.3071495"><ele>803.0</ele><time>2026-05-03T14:08:31.151Z</time></trkpt><trkpt lat="44.2549344" lon="8.3072117"><ele>803.0</ele><time>2026-05-03T14:08:32.151Z</time></trkpt><trkpt lat="44.2550279" lon="8.3072952"><ele>803.0</ele><time>2026-05-03T14:08:33.151Z</time></trkpt><trkpt lat="44.2550877" lon="8.3074"><ele>804.4</ele><time>2026-05-03T14:08:34.151Z</time></trkpt><trkpt lat="44.255139" lon="8.307513"><ele>805.8</ele><time>2026-05-03T14:08:35.151Z</time></trkpt><trkpt lat="44.2551958" lon="8.3076351"><ele>807.2</ele><time>2026-05-03T14:08:36.151Z</time></trkpt><trkpt lat="44.2552701" lon="8.3077503"><ele>808.6</ele><time>2026-05-03T14:08:37.151Z</time></trkpt><trkpt lat="44.2553437" lon="8.3078377"><ele>810.0</ele><time>2026-05-03T14:08:38.152Z</time></trkpt><trkpt lat="44.2554328" lon="8.3079137"><ele>810.0</ele><time>2026-05-03T14:08:39.152Z</time></trkpt><trkpt lat="44.2555256" lon="8.3079817"><ele>810.0</ele><time>2026-05-03T14:08:40.152Z</time></trkpt><trkpt lat="44.255626" lon="8.3080518"><ele>810.0</ele><time>2026-05-03T14:08:41.152Z</time></trkpt><trkpt lat="44.2557409" lon="8.3081274"><ele>810.0</ele><time>2026-05-03T14:08:42.151Z</time></trkpt><trkpt lat="44.2558621" lon="8.308205"><ele>810.5</ele><time>2026-05-03T14:08:43.151Z</time></trkpt><trkpt lat="44.2559809" lon="8.3082914"><ele>811.0</ele><time>2026-05-03T14:08:44.152Z</time></trkpt><trkpt lat="44.2560899" lon="8.3083714"><ele>811.5</ele><time>2026-05-03T14:08:45.152Z</time></trkpt><trkpt lat="44.2561838" lon="8.3084568"><ele>812.0</ele><time>2026-05-03T14:08:46.151Z</time></trkpt><trkpt lat="44.2562617" lon="8.3085496"><ele>812.0000000000001</ele><time>2026-05-03T14:08:47.151Z</time></trkpt><trkpt lat="44.2563172" lon="8.3086466"><ele>812.0</ele><time>2026-05-03T14:08:48.151Z</time></trkpt><trkpt lat="44.2563615" lon="8.3087521"><ele>812.0</ele><time>2026-05-03T14:08:49.151Z</time></trkpt><trkpt lat="44.256411" lon="8.3088624"><ele>812.0</ele><time>2026-05-03T14:08:50.151Z</time></trkpt><trkpt lat="44.2564551" lon="8.3089558"><ele>812.0000000000001</ele><time>2026-05-03T14:08:51.151Z</time></trkpt><trkpt lat="44.2565175" lon="8.3090422"><ele>812.0</ele><time>2026-05-03T14:08:52.151Z</time></trkpt><trkpt lat="44.2565945" lon="8.3091069"><ele>811.8</ele><time>2026-05-03T14:08:53.152Z</time></trkpt><trkpt lat="44.2566766" lon="8.3091552"><ele>811.6</ele><time>2026-05-03T14:08:54.152Z</time></trkpt><trkpt lat="44.2567731" lon="8.309201"><ele>811.4</ele><time>2026-05-03T14:08:55.151Z</time></trkpt><trkpt lat="44.2568676" lon="8.3092603"><ele>811.1999999999999</ele><time>2026-05-03T14:08:56.152Z</time></trkpt><trkpt lat="44.2569664" lon="8.3093463"><ele>811.0</ele><time>2026-05-03T14:08:57.152Z</time></trkpt><trkpt lat="44.2570687" lon="8.3094505"><ele>811.0</ele><time>2026-05-03T14:08:58.151Z</time></trkpt><trkpt lat="44.2571659" lon="8.3095509"><ele>811.0</ele><time>2026-05-03T14:08:59.151Z</time></trkpt><trkpt lat="44.2572647" lon="8.3096389"><ele>811.0</ele><time>2026-05-03T14:09:00.151Z</time></trkpt><trkpt lat="44.2573586" lon="8.3097229"><ele>811.0</ele><time>2026-05-03T14:09:01.153Z</time></trkpt><trkpt lat="44.2574622" lon="8.3097833"><ele>810.1999999999999</ele><time>2026-05-03T14:09:02.151Z</time></trkpt><trkpt lat="44.2575654" lon="8.3098367"><ele>809.4</ele><time>2026-05-03T14:09:03.151Z</time></trkpt><trkpt lat="44.2576563" lon="8.3099091"><ele>808.6</ele><time>2026-05-03T14:09:04.151Z</time></trkpt><trkpt lat="44.2577374" lon="8.3099883"><ele>807.8</ele><time>2026-05-03T14:09:05.152Z</time></trkpt><trkpt lat="44.257818" lon="8.3100546"><ele>807.0</ele><time>2026-05-03T14:09:06.152Z</time></trkpt><trkpt lat="44.2578855" lon="8.3101485"><ele>807.0</ele><time>2026-05-03T14:09:07.151Z</time></trkpt><trkpt lat="44.257957" lon="8.310229"><ele>807.0</ele><time>2026-05-03T14:09:08.151Z</time></trkpt><trkpt lat="44.2580272" lon="8.3102935"><ele>807.0</ele><time>2026-05-03T14:09:09.152Z</time></trkpt><trkpt lat="44.2581023" lon="8.3103294"><ele>807.0</ele><time>2026-05-03T14:09:10.151Z</time></trkpt><trkpt lat="44.2581794" lon="8.3103588"><ele>807.0</ele><time>2026-05-03T14:09:11.151Z</time></trkpt><trkpt lat="44.2582614" lon="8.3103416"><ele>807.0</ele><time>2026-05-03T14:09:12.151Z</time></trkpt><trkpt lat="44.2583548" lon="8.3103154"><ele>808.6</ele><time>2026-05-03T14:09:13.151Z</time></trkpt><trkpt lat="44.2584617" lon="8.3102851"><ele>810.2</ele><time>2026-05-03T14:09:14.151Z</time></trkpt><trkpt lat="44.2585564" lon="8.310261"><ele>811.8</ele><time>2026-05-03T14:09:15.151Z</time></trkpt><trkpt lat="44.2586477" lon="8.3102453"><ele>813.4</ele><time>2026-05-03T14:09:16.151Z</time></trkpt><trkpt lat="44.2587656" lon="8.3102332"><ele>815.0</ele><time>2026-05-03T14:09:17.151Z</time></trkpt><trkpt lat="44.2588865" lon="8.3102216"><ele>813.6666666666667</ele><time>2026-05-03T14:09:18.151Z</time></trkpt><trkpt lat="44.2589959" lon="8.310191"><ele>812.3333333333334</ele><time>2026-05-03T14:09:19.151Z</time></trkpt><trkpt lat="44.2590965" lon="8.3101689"><ele>811.0</ele><time>2026-05-03T14:09:20.151Z</time></trkpt><trkpt lat="44.2591871" lon="8.3101417"><ele>809.6666666666667</ele><time>2026-05-03T14:09:21.151Z</time></trkpt><trkpt lat="44.2592573" lon="8.3101289"><ele>808.3333333333334</ele><time>2026-05-03T14:09:22.151Z</time></trkpt><trkpt lat="44.2593248" lon="8.3101329"><ele>807.0</ele><time>2026-05-03T14:09:23.151Z</time></trkpt><trkpt lat="44.2593981" lon="8.310154"><ele>807.0</ele><time>2026-05-03T14:09:24.152Z</time></trkpt><trkpt lat="44.2594638" lon="8.3101856"><ele>807.0</ele><time>2026-05-03T14:09:25.151Z</time></trkpt><trkpt lat="44.2595249" lon="8.3102226"><ele>807.0</ele><time>2026-05-03T14:09:26.151Z</time></trkpt><trkpt lat="44.2596117" lon="8.3103168"><ele>807.0</ele><time>2026-05-03T14:09:28.151Z</time></trkpt><trkpt lat="44.2596342" lon="8.3104069"><ele>807.0</ele><time>2026-05-03T14:10:19.151Z</time></trkpt><trkpt lat="44.2597027" lon="8.3105093"><ele>807.0</ele><time>2026-05-03T14:10:21.151Z</time></trkpt><trkpt lat="44.2597548" lon="8.3106798"><ele>807.2857142857143</ele><time>2026-05-03T14:10:23.151Z</time></trkpt><trkpt lat="44.2597714" lon="8.3107868"><ele>807.5714285714286</ele><time>2026-05-03T14:10:24.151Z</time></trkpt><trkpt lat="44.259782" lon="8.3108924"><ele>807.8571428571429</ele><time>2026-05-03T14:10:25.152Z</time></trkpt><trkpt lat="44.2597874" lon="8.3109974"><ele>808.1428571428571</ele><time>2026-05-03T14:10:26.151Z</time></trkpt><trkpt lat="44.2597923" lon="8.3111014"><ele>808.4285714285714</ele><time>2026-05-03T14:10:27.152Z</time></trkpt><trkpt lat="44.2597843" lon="8.3111993"><ele>808.7142857142858</ele><time>2026-05-03T14:10:28.151Z</time></trkpt><trkpt lat="44.2597628" lon="8.3112919"><ele>809.0</ele><time>2026-05-03T14:10:29.152Z</time></trkpt><trkpt lat="44.2597419" lon="8.3113892"><ele>805.0</ele><time>2026-05-03T14:10:30.151Z</time></trkpt><trkpt lat="44.2596673" lon="8.3117728"><ele>801.0</ele><time>2026-05-03T14:10:33.151Z</time></trkpt><trkpt lat="44.2596458" lon="8.3118971"><ele>797.0</ele><time>2026-05-03T14:10:34.151Z</time></trkpt><trkpt lat="44.2596136" lon="8.3120463"><ele>797.0</ele><time>2026-05-03T14:10:35.151Z</time></trkpt><trkpt lat="44.259597" lon="8.3121908"><ele>797.0</ele><time>2026-05-03T14:10:36.151Z</time></trkpt><trkpt lat="44.2595747" lon="8.3123255"><ele>797.0</ele><time>2026-05-03T14:10:37.151Z</time></trkpt><trkpt lat="44.2595624" lon="8.312461"><ele>797.0</ele><time>2026-05-03T14:10:38.151Z</time></trkpt><trkpt lat="44.2595509" lon="8.3126059"><ele>797.0</ele><time>2026-05-03T14:10:39.151Z</time></trkpt><trkpt lat="44.2595415" lon="8.312751"><ele>796.8</ele><time>2026-05-03T14:10:40.151Z</time></trkpt><trkpt lat="44.2595231" lon="8.3128658"><ele>796.6</ele><time>2026-05-03T14:10:41.151Z</time></trkpt><trkpt lat="44.2595097" lon="8.3130297"><ele>796.4</ele><time>2026-05-03T14:10:42.151Z</time></trkpt><trkpt lat="44.2594991" lon="8.3131509"><ele>796.1999999999999</ele><time>2026-05-03T14:10:43.151Z</time></trkpt><trkpt lat="44.259496" lon="8.313285"><ele>796.0</ele><time>2026-05-03T14:10:44.151Z</time></trkpt><trkpt lat="44.259484" lon="8.3134303"><ele>796.0</ele><time>2026-05-03T14:10:45.151Z</time></trkpt><trkpt lat="44.2594723" lon="8.3135693"><ele>796.0</ele><time>2026-05-03T14:10:46.151Z</time></trkpt><trkpt lat="44.2594577" lon="8.3137303"><ele>796.0</ele><time>2026-05-03T14:10:47.151Z</time></trkpt><trkpt lat="44.2594371" lon="8.3138827"><ele>796.0</ele><time>2026-05-03T14:10:48.151Z</time></trkpt><trkpt lat="44.2594195" lon="8.3139971"><ele>796.0</ele><time>2026-05-03T14:10:49.151Z</time></trkpt><trkpt lat="44.259407" lon="8.3141243"><ele>795.8333333333333</ele><time>2026-05-03T14:10:50.152Z</time></trkpt><trkpt lat="44.2594068" lon="8.3142146"><ele>795.6666666666666</ele><time>2026-05-03T14:10:51.151Z</time></trkpt><trkpt lat="44.2594146" lon="8.314367"><ele>795.5</ele><time>2026-05-03T14:10:53.151Z</time></trkpt><trkpt lat="44.2594024" lon="8.314512"><ele>795.3333333333333</ele><time>2026-05-03T14:10:55.153Z</time></trkpt><trkpt lat="44.2594262" lon="8.3146008"><ele>795.1666666666666</ele><time>2026-05-03T14:10:56.152Z</time></trkpt><trkpt lat="44.2594884" lon="8.3146936"><ele>795.0</ele><time>2026-05-03T14:10:57.151Z</time></trkpt><trkpt lat="44.2595048" lon="8.3148074"><ele>793.8</ele><time>2026-05-03T14:10:58.151Z</time></trkpt><trkpt lat="44.2595615" lon="8.3148641"><ele>792.6</ele><time>2026-05-03T14:10:59.151Z</time></trkpt><trkpt lat="44.2596253" lon="8.3149714"><ele>791.4000000000001</ele><time>2026-05-03T14:11:01.151Z</time></trkpt><trkpt lat="44.2596846" lon="8.3151026"><ele>790.2</ele><time>2026-05-03T14:11:03.151Z</time></trkpt><trkpt lat="44.2597413" lon="8.3152144"><ele>789.0</ele><time>2026-05-03T14:11:05.151Z</time></trkpt><trkpt lat="44.2597884" lon="8.3153533"><ele>786.8000000000001</ele><time>2026-05-03T14:11:07.152Z</time></trkpt><trkpt lat="44.259788" lon="8.3155"><ele>784.6</ele><time>2026-05-03T14:11:09.151Z</time></trkpt><trkpt lat="44.2597779" lon="8.3156294"><ele>782.4</ele><time>2026-05-03T14:11:11.151Z</time></trkpt><trkpt lat="44.2597418" lon="8.3157481"><ele>780.2</ele><time>2026-05-03T14:11:13.151Z</time></trkpt><trkpt lat="44.259719" lon="8.315876"><ele>778.0</ele><time>2026-05-03T14:11:15.151Z</time></trkpt><trkpt lat="44.2597173" lon="8.3160336"><ele>777.9999999999999</ele><time>2026-05-03T14:11:17.151Z</time></trkpt><trkpt lat="44.2596995" lon="8.3161309"><ele>778.0</ele><time>2026-05-03T14:11:18.152Z</time></trkpt><trkpt lat="44.2596854" lon="8.3162292"><ele>778.0</ele><time>2026-05-03T14:11:19.151Z</time></trkpt><trkpt lat="44.2596712" lon="8.3163319"><ele>778.0</ele><time>2026-05-03T14:11:20.151Z</time></trkpt><trkpt lat="44.2596568" lon="8.3164277"><ele>777.9999999999999</ele><time>2026-05-03T14:11:21.151Z</time></trkpt><trkpt lat="44.2596362" lon="8.3165476"><ele>778.0</ele><time>2026-05-03T14:11:22.151Z</time></trkpt><trkpt lat="44.2596193" lon="8.3166568"><ele>777.8333333333333</ele><time>2026-05-03T14:11:23.152Z</time></trkpt><trkpt lat="44.2595822" lon="8.3167627"><ele>777.6666666666666</ele><time>2026-05-03T14:11:24.151Z</time></trkpt><trkpt lat="44.2595404" lon="8.3168751"><ele>777.5</ele><time>2026-05-03T14:11:25.151Z</time></trkpt><trkpt lat="44.2594906" lon="8.3169763"><ele>777.3333333333333</ele><time>2026-05-03T14:11:26.151Z</time></trkpt><trkpt lat="44.2594885" lon="8.3170894"><ele>777.1666666666666</ele><time>2026-05-03T14:11:27.152Z</time></trkpt><trkpt lat="44.2594916" lon="8.3172"><ele>777.0</ele><time>2026-05-03T14:11:28.151Z</time></trkpt><trkpt lat="44.25949" lon="8.3173121"><ele>777.5</ele><time>2026-05-03T14:11:29.151Z</time></trkpt><trkpt lat="44.2594751" lon="8.3174192"><ele>778.0</ele><time>2026-05-03T14:11:30.151Z</time></trkpt><trkpt lat="44.2594493" lon="8.3175217"><ele>778.5</ele><time>2026-05-03T14:11:31.151Z</time></trkpt><trkpt lat="44.2594006" lon="8.3176316"><ele>779.0</ele><time>2026-05-03T14:11:32.151Z</time></trkpt><trkpt lat="44.2593364" lon="8.3177222"><ele>779.5</ele><time>2026-05-03T14:11:33.151Z</time></trkpt><trkpt lat="44.2592852" lon="8.3178147"><ele>780.0</ele><time>2026-05-03T14:11:34.151Z</time></trkpt><trkpt lat="44.2592268" lon="8.3178856"><ele>780.0</ele><time>2026-05-03T14:11:35.152Z</time></trkpt><trkpt lat="44.2591879" lon="8.3179808"><ele>780.0</ele><time>2026-05-03T14:11:36.152Z</time></trkpt><trkpt lat="44.2591183" lon="8.3181339"><ele>780.0</ele><time>2026-05-03T14:11:38.151Z</time></trkpt><trkpt lat="44.2590963" lon="8.3182437"><ele>780.0</ele><time>2026-05-03T14:11:39.151Z</time></trkpt><trkpt lat="44.2590603" lon="8.3183455"><ele>780.0</ele><time>2026-05-03T14:11:40.151Z</time></trkpt><trkpt lat="44.2590351" lon="8.3184465"><ele>780.0</ele><time>2026-05-03T14:11:41.151Z</time></trkpt><trkpt lat="44.2589994" lon="8.3185534"><ele>777.3333333333334</ele><time>2026-05-03T14:11:42.152Z</time></trkpt><trkpt lat="44.2589427" lon="8.3186398"><ele>774.6666666666666</ele><time>2026-05-03T14:11:43.151Z</time></trkpt><trkpt lat="44.2588853" lon="8.3187252"><ele>772.0</ele><time>2026-05-03T14:11:44.151Z</time></trkpt><trkpt lat="44.2588299" lon="8.3188111"><ele>769.3333333333333</ele><time>2026-05-03T14:11:45.151Z</time></trkpt><trkpt lat="44.2587482" lon="8.3188461"><ele>766.6666666666666</ele><time>2026-05-03T14:11:46.151Z</time></trkpt><trkpt lat="44.2586875" lon="8.3189254"><ele>764.0</ele><time>2026-05-03T14:11:47.151Z</time></trkpt><trkpt lat="44.2585896" lon="8.318989"><ele>764.0</ele><time>2026-05-03T14:11:48.152Z</time></trkpt><trkpt lat="44.2585133" lon="8.319055"><ele>764.0</ele><time>2026-05-03T14:11:49.151Z</time></trkpt><trkpt lat="44.2584165" lon="8.3191315"><ele>764.0</ele><time>2026-05-03T14:11:50.151Z</time></trkpt><trkpt lat="44.258369" lon="8.3192238"><ele>764.0</ele><time>2026-05-03T14:11:51.151Z</time></trkpt><trkpt lat="44.2582991" lon="8.3193253"><ele>764.0</ele><time>2026-05-03T14:11:52.151Z</time></trkpt><trkpt lat="44.2582763" lon="8.3194276"><ele>764.0</ele><time>2026-05-03T14:11:53.152Z</time></trkpt><trkpt lat="44.2582459" lon="8.3195289"><ele>764.0</ele><time>2026-05-03T14:11:54.151Z</time></trkpt><trkpt lat="44.2581899" lon="8.3196513"><ele>764.0</ele><time>2026-05-03T14:11:55.152Z</time></trkpt><trkpt lat="44.2581238" lon="8.3197704"><ele>764.0</ele><time>2026-05-03T14:11:56.151Z</time></trkpt><trkpt lat="44.2580649" lon="8.319877"><ele>764.0</ele><time>2026-05-03T14:11:57.151Z</time></trkpt><trkpt lat="44.2580061" lon="8.3199659"><ele>760.5</ele><time>2026-05-03T14:11:58.151Z</time></trkpt><trkpt lat="44.2579489" lon="8.320049"><ele>757.0</ele><time>2026-05-03T14:11:59.151Z</time></trkpt><trkpt lat="44.2578703" lon="8.320197"><ele>753.5</ele><time>2026-05-03T14:12:01.151Z</time></trkpt><trkpt lat="44.2578281" lon="8.3202756"><ele>750.0</ele><time>2026-05-03T14:12:02.151Z</time></trkpt><trkpt lat="44.2577773" lon="8.3203413"><ele>746.5</ele><time>2026-05-03T14:12:03.152Z</time></trkpt><trkpt lat="44.2577331" lon="8.3204381"><ele>743.0</ele><time>2026-05-03T14:12:04.151Z</time></trkpt><trkpt lat="44.2576852" lon="8.320535"><ele>745.8</ele><time>2026-05-03T14:12:05.152Z</time></trkpt><trkpt lat="44.2576331" lon="8.3206573"><ele>748.5999999999999</ele><time>2026-05-03T14:12:06.151Z</time></trkpt><trkpt lat="44.2575906" lon="8.3207906"><ele>751.4000000000001</ele><time>2026-05-03T14:12:07.152Z</time></trkpt><trkpt lat="44.2575328" lon="8.320915"><ele>754.2</ele><time>2026-05-03T14:12:08.151Z</time></trkpt><trkpt lat="44.2574951" lon="8.3210595"><ele>757.0</ele><time>2026-05-03T14:12:09.151Z</time></trkpt><trkpt lat="44.2574533" lon="8.321179"><ele>757.0</ele><time>2026-05-03T14:12:10.151Z</time></trkpt><trkpt lat="44.2573901" lon="8.3212993"><ele>757.0</ele><time>2026-05-03T14:12:11.151Z</time></trkpt><trkpt lat="44.2573384" lon="8.3214118"><ele>757.0</ele><time>2026-05-03T14:12:12.151Z</time></trkpt><trkpt lat="44.2572935" lon="8.3215517"><ele>757.0</ele><time>2026-05-03T14:12:13.151Z</time></trkpt><trkpt lat="44.2572476" lon="8.3216783"><ele>757.0</ele><time>2026-05-03T14:12:14.152Z</time></trkpt><trkpt lat="44.25719" lon="8.3217823"><ele>754.3333333333334</ele><time>2026-05-03T14:12:15.151Z</time></trkpt><trkpt lat="44.2571513" lon="8.3218831"><ele>751.6666666666667</ele><time>2026-05-03T14:12:16.151Z</time></trkpt><trkpt lat="44.257133" lon="8.3219956"><ele>749.0</ele><time>2026-05-03T14:12:17.151Z</time></trkpt><trkpt lat="44.2570756" lon="8.3220851"><ele>746.3333333333334</ele><time>2026-05-03T14:12:18.152Z</time></trkpt><trkpt lat="44.2570099" lon="8.3221919"><ele>743.6666666666666</ele><time>2026-05-03T14:12:19.151Z</time></trkpt><trkpt lat="44.2569549" lon="8.3222841"><ele>741.0</ele><time>2026-05-03T14:12:20.151Z</time></trkpt><trkpt lat="44.2569015" lon="8.3223546"><ele>741.0</ele><time>2026-05-03T14:12:21.152Z</time></trkpt><trkpt lat="44.2568485" lon="8.3224307"><ele>741.0</ele><time>2026-05-03T14:12:22.152Z</time></trkpt><trkpt lat="44.2567953" lon="8.3224857"><ele>741.0</ele><time>2026-05-03T14:12:23.152Z</time></trkpt><trkpt lat="44.2566897" lon="8.3226002"><ele>741.0</ele><time>2026-05-03T14:12:25.151Z</time></trkpt><trkpt lat="44.2566038" lon="8.3226872"><ele>741.0</ele><time>2026-05-03T14:12:27.151Z</time></trkpt><trkpt lat="44.2565551" lon="8.3227654"><ele>741.0</ele><time>2026-05-03T14:12:28.151Z</time></trkpt><trkpt lat="44.2565042" lon="8.3228274"><ele>741.0</ele><time>2026-05-03T14:12:29.151Z</time></trkpt><trkpt lat="44.2564516" lon="8.3229058"><ele>741.0</ele><time>2026-05-03T14:12:30.151Z</time></trkpt><trkpt lat="44.256392" lon="8.3229783"><ele>741.0</ele><time>2026-05-03T14:12:31.151Z</time></trkpt><trkpt lat="44.2563255" lon="8.3230231"><ele>741.0</ele><time>2026-05-03T14:12:32.151Z</time></trkpt><trkpt lat="44.2562548" lon="8.3230636"><ele>741.0</ele><time>2026-05-03T14:12:33.151Z</time></trkpt><trkpt lat="44.2561803" lon="8.3230961"><ele>738.5</ele><time>2026-05-03T14:12:34.151Z</time></trkpt><trkpt lat="44.256116" lon="8.323101"><ele>736.0</ele><time>2026-05-03T14:12:35.151Z</time></trkpt><trkpt lat="44.2560507" lon="8.3231131"><ele>733.5</ele><time>2026-05-03T14:12:36.151Z</time></trkpt><trkpt lat="44.2559735" lon="8.3231454"><ele>731.0</ele><time>2026-05-03T14:12:37.151Z</time></trkpt><trkpt lat="44.2558988" lon="8.3231918"><ele>728.5</ele><time>2026-05-03T14:12:38.151Z</time></trkpt><trkpt lat="44.2558133" lon="8.3232425"><ele>726.0</ele><time>2026-05-03T14:12:39.151Z</time></trkpt><trkpt lat="44.2557281" lon="8.3233026"><ele>726.0</ele><time>2026-05-03T14:12:40.151Z</time></trkpt><trkpt lat="44.2556637" lon="8.3233578"><ele>726.0</ele><time>2026-05-03T14:12:41.151Z</time></trkpt><trkpt lat="44.2555843" lon="8.3234115"><ele>726.0</ele><time>2026-05-03T14:12:42.151Z</time></trkpt><trkpt lat="44.2555233" lon="8.3235149"><ele>726.0</ele><time>2026-05-03T14:12:43.152Z</time></trkpt><trkpt lat="44.2554664" lon="8.3235954"><ele>726.0</ele><time>2026-05-03T14:12:44.151Z</time></trkpt><trkpt lat="44.2554426" lon="8.3237052"><ele>726.0</ele><time>2026-05-03T14:12:45.151Z</time></trkpt><trkpt lat="44.255446" lon="8.3238199"><ele>722.1666666666666</ele><time>2026-05-03T14:12:46.152Z</time></trkpt><trkpt lat="44.2554799" lon="8.3239473"><ele>718.3333333333334</ele><time>2026-05-03T14:12:47.151Z</time></trkpt><trkpt lat="44.2554913" lon="8.32405"><ele>714.5</ele><time>2026-05-03T14:12:48.151Z</time></trkpt><trkpt lat="44.2555174" lon="8.3241411"><ele>710.6666666666667</ele><time>2026-05-03T14:12:49.151Z</time></trkpt><trkpt lat="44.2555401" lon="8.3242456"><ele>706.8333333333334</ele><time>2026-05-03T14:12:50.151Z</time></trkpt><trkpt lat="44.2555524" lon="8.3243528"><ele>703.0</ele><time>2026-05-03T14:12:51.151Z</time></trkpt><trkpt lat="44.255555" lon="8.3244545"><ele>703.0</ele><time>2026-05-03T14:12:52.151Z</time></trkpt><trkpt lat="44.2555684" lon="8.3245494"><ele>703.0</ele><time>2026-05-03T14:12:53.151Z</time></trkpt><trkpt lat="44.2555596" lon="8.3246586"><ele>703.0</ele><time>2026-05-03T14:12:54.151Z</time></trkpt><trkpt lat="44.2555873" lon="8.3247385"><ele>703.0</ele><time>2026-05-03T14:12:55.152Z</time></trkpt><trkpt lat="44.2556012" lon="8.3248385"><ele>703.0</ele><time>2026-05-03T14:12:56.151Z</time></trkpt><trkpt lat="44.255615" lon="8.3249298"><ele>703.0</ele><time>2026-05-03T14:12:57.151Z</time></trkpt><trkpt lat="44.255652" lon="8.3250244"><ele>703.0</ele><time>2026-05-03T14:12:58.151Z</time></trkpt><trkpt lat="44.2556834" lon="8.3251489"><ele>703.0</ele><time>2026-05-03T14:12:59.151Z</time></trkpt><trkpt lat="44.2557409" lon="8.3252646"><ele>703.0</ele><time>2026-05-03T14:13:00.151Z</time></trkpt><trkpt lat="44.2558133" lon="8.3253825"><ele>703.0</ele><time>2026-05-03T14:13:01.151Z</time></trkpt><trkpt lat="44.2558766" lon="8.3255003"><ele>703.0</ele><time>2026-05-03T14:13:02.151Z</time></trkpt><trkpt lat="44.2559233" lon="8.3256242"><ele>703.0</ele><time>2026-05-03T14:13:03.151Z</time></trkpt><trkpt lat="44.2559829" lon="8.3257334"><ele>703.0</ele><time>2026-05-03T14:13:04.151Z</time></trkpt><trkpt lat="44.2560294" lon="8.3258179"><ele>703.0</ele><time>2026-05-03T14:13:05.151Z</time></trkpt><trkpt lat="44.2560756" lon="8.3259121"><ele>703.0</ele><time>2026-05-03T14:13:06.152Z</time></trkpt><trkpt lat="44.2561115" lon="8.3259904"><ele>703.0</ele><time>2026-05-03T14:13:07.152Z</time></trkpt><trkpt lat="44.2561419" lon="8.3260923"><ele>703.0</ele><time>2026-05-03T14:13:08.152Z</time></trkpt><trkpt lat="44.2561497" lon="8.3262082"><ele>703.0</ele><time>2026-05-03T14:13:09.152Z</time></trkpt><trkpt lat="44.2561396" lon="8.3263175"><ele>700.8</ele><time>2026-05-03T14:13:10.152Z</time></trkpt><trkpt lat="44.2561144" lon="8.3264206"><ele>698.5999999999999</ele><time>2026-05-03T14:13:11.152Z</time></trkpt><trkpt lat="44.2561111" lon="8.3265149"><ele>696.4000000000001</ele><time>2026-05-03T14:13:12.152Z</time></trkpt><trkpt lat="44.2561149" lon="8.3266701"><ele>694.2</ele><time>2026-05-03T14:13:13.152Z</time></trkpt><trkpt lat="44.2561383" lon="8.3268008"><ele>692.0</ele><time>2026-05-03T14:13:14.152Z</time></trkpt><trkpt lat="44.2561546" lon="8.3269382"><ele>692.0</ele><time>2026-05-03T14:13:15.152Z</time></trkpt><trkpt lat="44.2562006" lon="8.3270415"><ele>692.0</ele><time>2026-05-03T14:13:16.153Z</time></trkpt><trkpt lat="44.2562278" lon="8.3271764"><ele>692.0</ele><time>2026-05-03T14:13:17.153Z</time></trkpt><trkpt lat="44.2562794" lon="8.3272681"><ele>692.0</ele><time>2026-05-03T14:13:18.152Z</time></trkpt><trkpt lat="44.2563173" lon="8.3273545"><ele>692.0</ele><time>2026-05-03T14:13:19.152Z</time></trkpt><trkpt lat="44.2563717" lon="8.3274433"><ele>692.0</ele><time>2026-05-03T14:13:20.152Z</time></trkpt><trkpt lat="44.256437" lon="8.3275438"><ele>694.2</ele><time>2026-05-03T14:13:21.152Z</time></trkpt><trkpt lat="44.2564547" lon="8.3276966"><ele>696.4000000000001</ele><time>2026-05-03T14:13:22.152Z</time></trkpt><trkpt lat="44.256475" lon="8.3278298"><ele>698.5999999999999</ele><time>2026-05-03T14:13:23.152Z</time></trkpt><trkpt lat="44.2564685" lon="8.3279579"><ele>700.8</ele><time>2026-05-03T14:13:24.152Z</time></trkpt><trkpt lat="44.2564738" lon="8.3280862"><ele>703.0</ele><time>2026-05-03T14:13:25.152Z</time></trkpt><trkpt lat="44.2564586" lon="8.3282045"><ele>698.4</ele><time>2026-05-03T14:13:26.153Z</time></trkpt><trkpt lat="44.2564319" lon="8.3283417"><ele>693.8</ele><time>2026-05-03T14:13:27.152Z</time></trkpt><trkpt lat="44.2563993" lon="8.3284612"><ele>689.2</ele><time>2026-05-03T14:13:28.152Z</time></trkpt><trkpt lat="44.2563953" lon="8.3285756"><ele>684.6</ele><time>2026-05-03T14:13:29.154Z</time></trkpt><trkpt lat="44.2563624" lon="8.3287019"><ele>680.0</ele><time>2026-05-03T14:13:30.153Z</time></trkpt><trkpt lat="44.2563434" lon="8.3288268"><ele>679.0</ele><time>2026-05-03T14:13:31.152Z</time></trkpt><trkpt lat="44.256336" lon="8.3289189"><ele>678.0</ele><time>2026-05-03T14:13:32.152Z</time></trkpt><trkpt lat="44.2563009" lon="8.3290394"><ele>677.0</ele><time>2026-05-03T14:13:33.152Z</time></trkpt><trkpt lat="44.2562794" lon="8.3291488"><ele>676.0</ele><time>2026-05-03T14:13:34.153Z</time></trkpt><trkpt lat="44.2562463" lon="8.3292542"><ele>675.0</ele><time>2026-05-03T14:13:35.152Z</time></trkpt><trkpt lat="44.2562026" lon="8.3293658"><ele>674.0</ele><time>2026-05-03T14:13:36.152Z</time></trkpt><trkpt lat="44.2561504" lon="8.3294702"><ele>674.0</ele><time>2026-05-03T14:13:37.152Z</time></trkpt><trkpt lat="44.2560966" lon="8.3295501"><ele>674.0</ele><time>2026-05-03T14:13:38.152Z</time></trkpt><trkpt lat="44.2560424" lon="8.3296338"><ele>674.0</ele><time>2026-05-03T14:13:39.153Z</time></trkpt><trkpt lat="44.2559844" lon="8.3297201"><ele>674.0</ele><time>2026-05-03T14:13:40.152Z</time></trkpt><trkpt lat="44.2559408" lon="8.3298148"><ele>674.0</ele><time>2026-05-03T14:13:41.153Z</time></trkpt><trkpt lat="44.2558938" lon="8.3299206"><ele>674.0</ele><time>2026-05-03T14:13:42.152Z</time></trkpt><trkpt lat="44.2558487" lon="8.3300105"><ele>674.0</ele><time>2026-05-03T14:13:43.152Z</time></trkpt><trkpt lat="44.2558218" lon="8.3301305"><ele>674.0</ele><time>2026-05-03T14:13:44.152Z</time></trkpt><trkpt lat="44.2557991" lon="8.3302422"><ele>674.0</ele><time>2026-05-03T14:13:45.152Z</time></trkpt><trkpt lat="44.2557809" lon="8.3303459"><ele>674.0</ele><time>2026-05-03T14:13:46.153Z</time></trkpt><trkpt lat="44.255747" lon="8.3304349"><ele>674.0</ele><time>2026-05-03T14:13:47.152Z</time></trkpt><trkpt lat="44.2557021" lon="8.3305243"><ele>674.0</ele><time>2026-05-03T14:13:48.152Z</time></trkpt><trkpt lat="44.2556678" lon="8.3306313"><ele>674.0</ele><time>2026-05-03T14:13:49.152Z</time></trkpt><trkpt lat="44.2556309" lon="8.3307329"><ele>674.0</ele><time>2026-05-03T14:13:50.153Z</time></trkpt><trkpt lat="44.2555991" lon="8.3308345"><ele>674.0</ele><time>2026-05-03T14:13:51.153Z</time></trkpt><trkpt lat="44.2555836" lon="8.3309584"><ele>674.0</ele><time>2026-05-03T14:13:52.153Z</time></trkpt><trkpt lat="44.2556095" lon="8.3311066"><ele>674.0</ele><time>2026-05-03T14:13:53.153Z</time></trkpt><trkpt lat="44.2556704" lon="8.331225"><ele>674.0</ele><time>2026-05-03T14:13:54.152Z</time></trkpt><trkpt lat="44.2556951" lon="8.3313233"><ele>674.0</ele><time>2026-05-03T14:13:55.152Z</time></trkpt><trkpt lat="44.2557303" lon="8.3314567"><ele>674.0</ele><time>2026-05-03T14:13:56.153Z</time></trkpt><trkpt lat="44.2557668" lon="8.3315551"><ele>674.0</ele><time>2026-05-03T14:13:57.152Z</time></trkpt><trkpt lat="44.2558186" lon="8.3316573"><ele>674.0</ele><time>2026-05-03T14:13:58.152Z</time></trkpt><trkpt lat="44.25587" lon="8.3317431"><ele>674.0</ele><time>2026-05-03T14:13:59.153Z</time></trkpt><trkpt lat="44.2559351" lon="8.3317717"><ele>672.3333333333333</ele><time>2026-05-03T14:14:00.153Z</time></trkpt><trkpt lat="44.2560419" lon="8.3317563"><ele>670.6666666666666</ele><time>2026-05-03T14:14:02.152Z</time></trkpt><trkpt lat="44.2561178" lon="8.3317281"><ele>669.0</ele><time>2026-05-03T14:14:03.153Z</time></trkpt><trkpt lat="44.2561955" lon="8.3316921"><ele>667.3333333333334</ele><time>2026-05-03T14:14:04.152Z</time></trkpt><trkpt lat="44.2562709" lon="8.3316422"><ele>665.6666666666667</ele><time>2026-05-03T14:14:05.152Z</time></trkpt><trkpt lat="44.2563407" lon="8.3315517"><ele>664.0</ele><time>2026-05-03T14:14:06.152Z</time></trkpt><trkpt lat="44.2563954" lon="8.331503"><ele>662.8333333333334</ele><time>2026-05-03T14:14:07.152Z</time></trkpt><trkpt lat="44.2564614" lon="8.3314492"><ele>661.6666666666667</ele><time>2026-05-03T14:14:08.152Z</time></trkpt><trkpt lat="44.2565161" lon="8.3313995"><ele>660.5</ele><time>2026-05-03T14:15:35.152Z</time></trkpt><trkpt lat="44.2565899" lon="8.3313054"><ele>659.3333333333334</ele><time>2026-05-03T14:15:51.152Z</time></trkpt><trkpt lat="44.2566355" lon="8.3312394"><ele>658.1666666666666</ele><time>2026-05-03T14:15:52.152Z</time></trkpt><trkpt lat="44.2567305" lon="8.3311583"><ele>657.0</ele><time>2026-05-03T14:15:54.152Z</time></trkpt><trkpt lat="44.2568304" lon="8.3311053"><ele>660.2</ele><time>2026-05-03T14:15:56.152Z</time></trkpt><trkpt lat="44.2569355" lon="8.331042"><ele>663.4000000000001</ele><time>2026-05-03T14:15:58.153Z</time></trkpt><trkpt lat="44.2570118" lon="8.3309974"><ele>666.5999999999999</ele><time>2026-05-03T14:15:59.152Z</time></trkpt><trkpt lat="44.2570983" lon="8.3309566"><ele>669.8</ele><time>2026-05-03T14:16:00.153Z</time></trkpt><trkpt lat="44.2571805" lon="8.3309332"><ele>673.0</ele><time>2026-05-03T14:16:01.152Z</time></trkpt><trkpt lat="44.2572706" lon="8.3309299"><ele>671.4</ele><time>2026-05-03T14:16:02.152Z</time></trkpt><trkpt lat="44.2573808" lon="8.3309404"><ele>669.8</ele><time>2026-05-03T14:16:03.153Z</time></trkpt><trkpt lat="44.2575042" lon="8.330953"><ele>668.2</ele><time>2026-05-03T14:16:04.153Z</time></trkpt><trkpt lat="44.2576212" lon="8.3309538"><ele>666.6</ele><time>2026-05-03T14:16:05.152Z</time></trkpt><trkpt lat="44.2577168" lon="8.330949"><ele>665.0</ele><time>2026-05-03T14:16:06.152Z</time></trkpt><trkpt lat="44.2578015" lon="8.330954"><ele>665.0</ele><time>2026-05-03T14:16:07.152Z</time></trkpt><trkpt lat="44.2578838" lon="8.3309788"><ele>665.0</ele><time>2026-05-03T14:16:08.153Z</time></trkpt><trkpt lat="44.2579643" lon="8.3310083"><ele>665.0</ele><time>2026-05-03T14:16:09.152Z</time></trkpt><trkpt lat="44.2580397" lon="8.3310554"><ele>665.0</ele><time>2026-05-03T14:16:10.152Z</time></trkpt><trkpt lat="44.2581128" lon="8.3311371"><ele>665.0</ele><time>2026-05-03T14:16:11.152Z</time></trkpt><trkpt lat="44.2581893" lon="8.3312205"><ele>665.0</ele><time>2026-05-03T14:16:12.152Z</time></trkpt><trkpt lat="44.2582679" lon="8.3312986"><ele>667.2</ele><time>2026-05-03T14:16:13.153Z</time></trkpt><trkpt lat="44.2583487" lon="8.3313797"><ele>669.4</ele><time>2026-05-03T14:16:14.152Z</time></trkpt><trkpt lat="44.2584406" lon="8.331464"><ele>671.5999999999999</ele><time>2026-05-03T14:16:15.152Z</time></trkpt><trkpt lat="44.2585349" lon="8.3315379"><ele>673.8</ele><time>2026-05-03T14:16:16.152Z</time></trkpt><trkpt lat="44.2586335" lon="8.3315862"><ele>676.0</ele><time>2026-05-03T14:16:17.152Z</time></trkpt><trkpt lat="44.2587347" lon="8.3316258"><ele>673.0</ele><time>2026-05-03T14:16:18.152Z</time></trkpt><trkpt lat="44.2588384" lon="8.3316809"><ele>670.0</ele><time>2026-05-03T14:16:19.152Z</time></trkpt><trkpt lat="44.258936" lon="8.331735"><ele>667.0</ele><time>2026-05-03T14:16:20.152Z</time></trkpt><trkpt lat="44.259027" lon="8.3317613"><ele>664.0</ele><time>2026-05-03T14:16:21.152Z</time></trkpt><trkpt lat="44.2591115" lon="8.3317642"><ele>661.0</ele><time>2026-05-03T14:16:22.152Z</time></trkpt><trkpt lat="44.2591916" lon="8.3317477"><ele>661.0</ele><time>2026-05-03T14:16:23.152Z</time></trkpt><trkpt lat="44.2592773" lon="8.3317219"><ele>661.0</ele><time>2026-05-03T14:16:24.152Z</time></trkpt><trkpt lat="44.259375" lon="8.3317278"><ele>661.0</ele><time>2026-05-03T14:16:25.153Z</time></trkpt><trkpt lat="44.2594789" lon="8.331762"><ele>661.0</ele><time>2026-05-03T14:16:26.153Z</time></trkpt><trkpt lat="44.2595767" lon="8.3317996"><ele>661.0</ele><time>2026-05-03T14:16:27.153Z</time></trkpt><trkpt lat="44.2596685" lon="8.3318296"><ele>661.0</ele><time>2026-05-03T14:16:28.152Z</time></trkpt><trkpt lat="44.2597506" lon="8.3318634"><ele>661.0</ele><time>2026-05-03T14:16:29.152Z</time></trkpt><trkpt lat="44.2598246" lon="8.3319002"><ele>661.0</ele><time>2026-05-03T14:16:30.152Z</time></trkpt><trkpt lat="44.2598919" lon="8.3319089"><ele>661.0</ele><time>2026-05-03T14:16:31.152Z</time></trkpt><trkpt lat="44.2599544" lon="8.3318951"><ele>661.0</ele><time>2026-05-03T14:16:32.152Z</time></trkpt><trkpt lat="44.2600141" lon="8.3318605"><ele>661.0</ele><time>2026-05-03T14:16:33.152Z</time></trkpt><trkpt lat="44.2600808" lon="8.3317888"><ele>661.0</ele><time>2026-05-03T14:16:34.153Z</time></trkpt><trkpt lat="44.2601667" lon="8.3316877"><ele>660.0</ele><time>2026-05-03T14:16:35.152Z</time></trkpt><trkpt lat="44.2602539" lon="8.3315898"><ele>659.0</ele><time>2026-05-03T14:16:36.152Z</time></trkpt><trkpt lat="44.260346" lon="8.3315203"><ele>658.0</ele><time>2026-05-03T14:16:37.153Z</time></trkpt><trkpt lat="44.2604405" lon="8.3314719"><ele>657.0</ele><time>2026-05-03T14:16:38.152Z</time></trkpt><trkpt lat="44.2605352" lon="8.3314533"><ele>656.0</ele><time>2026-05-03T14:16:39.152Z</time></trkpt><trkpt lat="44.2606237" lon="8.3314574"><ele>655.1666666666666</ele><time>2026-05-03T14:16:40.152Z</time></trkpt><trkpt lat="44.2607116" lon="8.3314873"><ele>654.3333333333333</ele><time>2026-05-03T14:16:41.152Z</time></trkpt><trkpt lat="44.2607965" lon="8.3315383"><ele>653.5</ele><time>2026-05-03T14:16:42.153Z</time></trkpt><trkpt lat="44.2608802" lon="8.3315781"><ele>652.6666666666666</ele><time>2026-05-03T14:16:43.152Z</time></trkpt><trkpt lat="44.2609628" lon="8.3315863"><ele>651.8333333333334</ele><time>2026-05-03T14:16:44.152Z</time></trkpt><trkpt lat="44.2610487" lon="8.331576"><ele>651.0</ele><time>2026-05-03T14:16:45.153Z</time></trkpt><trkpt lat="44.2611332" lon="8.3315625"><ele>651.0</ele><time>2026-05-03T14:16:46.152Z</time></trkpt><trkpt lat="44.2612045" lon="8.3315352"><ele>651.0</ele><time>2026-05-03T14:16:47.152Z</time></trkpt><trkpt lat="44.2612792" lon="8.3314935"><ele>651.0</ele><time>2026-05-03T14:16:48.152Z</time></trkpt><trkpt lat="44.2613513" lon="8.3313858"><ele>651.0</ele><time>2026-05-03T14:16:49.153Z</time></trkpt><trkpt lat="44.2614347" lon="8.3312356"><ele>651.0</ele><time>2026-05-03T14:16:50.152Z</time></trkpt><trkpt lat="44.2615106" lon="8.3310754"><ele>650.75</ele><time>2026-05-03T14:16:51.153Z</time></trkpt><trkpt lat="44.2615877" lon="8.3309286"><ele>650.5</ele><time>2026-05-03T14:16:52.153Z</time></trkpt><trkpt lat="44.2616654" lon="8.3307864"><ele>650.25</ele><time>2026-05-03T14:16:53.152Z</time></trkpt><trkpt lat="44.2617343" lon="8.3306531"><ele>650.0</ele><time>2026-05-03T14:16:54.152Z</time></trkpt><trkpt lat="44.2617912" lon="8.3305362"><ele>652.0</ele><time>2026-05-03T14:16:55.152Z</time></trkpt><trkpt lat="44.2618319" lon="8.3304209"><ele>654.0</ele><time>2026-05-03T14:16:56.153Z</time></trkpt><trkpt lat="44.2618634" lon="8.3302965"><ele>656.0</ele><time>2026-05-03T14:16:57.152Z</time></trkpt><trkpt lat="44.2618923" lon="8.3301548"><ele>658.0</ele><time>2026-05-03T14:16:58.153Z</time></trkpt><trkpt lat="44.2619149" lon="8.3300077"><ele>660.0</ele><time>2026-05-03T14:16:59.153Z</time></trkpt><trkpt lat="44.2619429" lon="8.329868"><ele>663.0</ele><time>2026-05-03T14:17:00.152Z</time></trkpt><trkpt lat="44.2619728" lon="8.3297163"><ele>666.0</ele><time>2026-05-03T14:17:01.153Z</time></trkpt><trkpt lat="44.2619995" lon="8.3295664"><ele>669.0</ele><time>2026-05-03T14:17:02.153Z</time></trkpt><trkpt lat="44.2620188" lon="8.329424"><ele>672.0</ele><time>2026-05-03T14:17:03.152Z</time></trkpt><trkpt lat="44.2620369" lon="8.329271"><ele>675.0</ele><time>2026-05-03T14:17:04.152Z</time></trkpt><trkpt lat="44.2620494" lon="8.329118"><ele>675.0</ele><time>2026-05-03T14:17:05.152Z</time></trkpt><trkpt lat="44.2620545" lon="8.3289895"><ele>675.0</ele><time>2026-05-03T14:17:06.152Z</time></trkpt><trkpt lat="44.2620666" lon="8.3288962"><ele>675.0</ele><time>2026-05-03T14:17:07.152Z</time></trkpt><trkpt lat="44.2621052" lon="8.3288221"><ele>675.0</ele><time>2026-05-03T14:17:08.152Z</time></trkpt><trkpt lat="44.2621556" lon="8.3287323"><ele>675.0</ele><time>2026-05-03T14:17:09.152Z</time></trkpt><trkpt lat="44.2622179" lon="8.3286416"><ele>675.0</ele><time>2026-05-03T14:17:10.152Z</time></trkpt><trkpt lat="44.2622794" lon="8.3285432"><ele>673.6666666666666</ele><time>2026-05-03T14:17:11.152Z</time></trkpt><trkpt lat="44.2623556" lon="8.3284588"><ele>672.3333333333334</ele><time>2026-05-03T14:17:12.153Z</time></trkpt><trkpt lat="44.2624156" lon="8.3283893"><ele>671.0</ele><time>2026-05-03T14:17:13.152Z</time></trkpt><trkpt lat="44.2624729" lon="8.3283197"><ele>669.6666666666667</ele><time>2026-05-03T14:17:14.152Z</time></trkpt><trkpt lat="44.2625038" lon="8.3282115"><ele>668.3333333333334</ele><time>2026-05-03T14:17:15.152Z</time></trkpt><trkpt lat="44.262514" lon="8.3280935"><ele>667.0</ele><time>2026-05-03T14:17:16.152Z</time></trkpt><trkpt lat="44.2625196" lon="8.3279788"><ele>667.0</ele><time>2026-05-03T14:17:17.152Z</time></trkpt><trkpt lat="44.2625339" lon="8.3278485"><ele>667.0</ele><time>2026-05-03T14:17:18.152Z</time></trkpt><trkpt lat="44.2625534" lon="8.3277251"><ele>667.0</ele><time>2026-05-03T14:17:19.152Z</time></trkpt><trkpt lat="44.2625792" lon="8.3276061"><ele>667.0</ele><time>2026-05-03T14:17:20.152Z</time></trkpt><trkpt lat="44.2626224" lon="8.3275074"><ele>667.0</ele><time>2026-05-03T14:17:21.152Z</time></trkpt><trkpt lat="44.2626673" lon="8.3274128"><ele>667.0</ele><time>2026-05-03T14:17:22.153Z</time></trkpt><trkpt lat="44.2627042" lon="8.3273045"><ele>670.0</ele><time>2026-05-03T14:17:23.152Z</time></trkpt><trkpt lat="44.2627372" lon="8.3271999"><ele>673.0</ele><time>2026-05-03T14:17:24.152Z</time></trkpt><trkpt lat="44.2627668" lon="8.3270943"><ele>676.0</ele><time>2026-05-03T14:17:25.152Z</time></trkpt><trkpt lat="44.2628333" lon="8.327005"><ele>679.0</ele><time>2026-05-03T14:17:26.153Z</time></trkpt><trkpt lat="44.2629216" lon="8.3269373"><ele>682.0</ele><time>2026-05-03T14:17:27.152Z</time></trkpt><trkpt lat="44.2630269" lon="8.3268939"><ele>679.75</ele><time>2026-05-03T14:17:28.152Z</time></trkpt><trkpt lat="44.2631601" lon="8.3268554"><ele>677.5</ele><time>2026-05-03T14:17:29.152Z</time></trkpt><trkpt lat="44.2632833" lon="8.3268304"><ele>675.25</ele><time>2026-05-03T14:17:30.152Z</time></trkpt><trkpt lat="44.2633947" lon="8.3268063"><ele>673.0</ele><time>2026-05-03T14:17:31.152Z</time></trkpt><trkpt lat="44.2634961" lon="8.3267708"><ele>673.0</ele><time>2026-05-03T14:17:32.152Z</time></trkpt><trkpt lat="44.2635816" lon="8.3267485"><ele>673.0</ele><time>2026-05-03T14:17:33.152Z</time></trkpt><trkpt lat="44.2636603" lon="8.3267396"><ele>673.0</ele><time>2026-05-03T14:17:34.152Z</time></trkpt><trkpt lat="44.2637374" lon="8.3267612"><ele>673.0</ele><time>2026-05-03T14:17:35.153Z</time></trkpt><trkpt lat="44.2638284" lon="8.3267801"><ele>673.0</ele><time>2026-05-03T14:17:36.152Z</time></trkpt><trkpt lat="44.2639231" lon="8.3267858"><ele>673.0</ele><time>2026-05-03T14:17:37.152Z</time></trkpt><trkpt lat="44.2640232" lon="8.3267967"><ele>673.4</ele><time>2026-05-03T14:17:38.152Z</time></trkpt><trkpt lat="44.2641298" lon="8.3268168"><ele>673.8</ele><time>2026-05-03T14:17:39.152Z</time></trkpt><trkpt lat="44.2642357" lon="8.3268302"><ele>674.2</ele><time>2026-05-03T14:17:40.153Z</time></trkpt><trkpt lat="44.264344" lon="8.3268444"><ele>674.6</ele><time>2026-05-03T14:17:41.152Z</time></trkpt><trkpt lat="44.2644443" lon="8.3268547"><ele>675.0</ele><time>2026-05-03T14:17:42.152Z</time></trkpt><trkpt lat="44.2645265" lon="8.3268537"><ele>675.0</ele><time>2026-05-03T14:17:43.152Z</time></trkpt><trkpt lat="44.2646009" lon="8.3268355"><ele>675.0</ele><time>2026-05-03T14:17:44.152Z</time></trkpt><trkpt lat="44.2646945" lon="8.3267838"><ele>675.0</ele><time>2026-05-03T14:17:45.153Z</time></trkpt><trkpt lat="44.2647902" lon="8.3267244"><ele>675.0</ele><time>2026-05-03T14:17:46.153Z</time></trkpt><trkpt lat="44.2648875" lon="8.3266668"><ele>675.0</ele><time>2026-05-03T14:17:47.153Z</time></trkpt><trkpt lat="44.2649791" lon="8.3266298"><ele>675.1666666666666</ele><time>2026-05-03T14:17:48.152Z</time></trkpt><trkpt lat="44.2650689" lon="8.3266008"><ele>675.3333333333334</ele><time>2026-05-03T14:17:49.152Z</time></trkpt><trkpt lat="44.2651353" lon="8.3265722"><ele>675.5</ele><time>2026-05-03T14:17:50.152Z</time></trkpt><trkpt lat="44.2652051" lon="8.3265336"><ele>675.6666666666667</ele><time>2026-05-03T14:17:51.152Z</time></trkpt><trkpt lat="44.2652622" lon="8.3264546"><ele>675.8333333333334</ele><time>2026-05-03T14:17:52.152Z</time></trkpt><trkpt lat="44.265313" lon="8.3263738"><ele>676.0</ele><time>2026-05-03T14:17:53.152Z</time></trkpt><trkpt lat="44.265372" lon="8.3263073"><ele>676.0</ele><time>2026-05-03T14:17:54.152Z</time></trkpt><trkpt lat="44.2654269" lon="8.326252"><ele>676.0</ele><time>2026-05-03T14:17:55.153Z</time></trkpt><trkpt lat="44.2654946" lon="8.3261231"><ele>676.0</ele><time>2026-05-03T14:17:57.152Z</time></trkpt><trkpt lat="44.265481" lon="8.3259362"><ele>676.0</ele><time>2026-05-03T14:17:59.153Z</time></trkpt><trkpt lat="44.2654461" lon="8.3258261"><ele>676.0</ele><time>2026-05-03T14:18:00.152Z</time></trkpt><trkpt lat="44.2654123" lon="8.3257335"><ele>676.0</ele><time>2026-05-03T14:18:01.152Z</time></trkpt><trkpt lat="44.265374" lon="8.325646"><ele>676.0</ele><time>2026-05-03T14:18:02.152Z</time></trkpt><trkpt lat="44.2653473" lon="8.3255523"><ele>676.0</ele><time>2026-05-03T14:18:03.152Z</time></trkpt><trkpt lat="44.265334" lon="8.3254551"><ele>676.0</ele><time>2026-05-03T14:18:04.152Z</time></trkpt><trkpt lat="44.2653517" lon="8.3253422"><ele>676.0</ele><time>2026-05-03T14:18:05.152Z</time></trkpt><trkpt lat="44.2653822" lon="8.3252334"><ele>676.0</ele><time>2026-05-03T14:18:06.152Z</time></trkpt><trkpt lat="44.2654157" lon="8.3251299"><ele>678.1666666666667</ele><time>2026-05-03T14:18:07.153Z</time></trkpt><trkpt lat="44.2654714" lon="8.3250327"><ele>680.3333333333334</ele><time>2026-05-03T14:18:08.152Z</time></trkpt><trkpt lat="44.2655451" lon="8.3249452"><ele>682.5</ele><time>2026-05-03T14:18:09.152Z</time></trkpt><trkpt lat="44.2656089" lon="8.3248617"><ele>684.6666666666666</ele><time>2026-05-03T14:18:10.153Z</time></trkpt><trkpt lat="44.2656586" lon="8.3247776"><ele>686.8333333333333</ele><time>2026-05-03T14:18:11.152Z</time></trkpt><trkpt lat="44.2656974" lon="8.324696"><ele>689.0</ele><time>2026-05-03T14:18:12.153Z</time></trkpt><trkpt lat="44.2657873" lon="8.3246098"><ele>689.5</ele><time>2026-05-03T14:18:14.152Z</time></trkpt><trkpt lat="44.2659165" lon="8.3246138"><ele>690.0</ele><time>2026-05-03T14:18:16.152Z</time></trkpt><trkpt lat="44.2660025" lon="8.324635"><ele>690.5</ele><time>2026-05-03T14:18:17.152Z</time></trkpt><trkpt lat="44.2660873" lon="8.3246579"><ele>691.0</ele><time>2026-05-03T14:18:18.152Z</time></trkpt><trkpt lat="44.2661569" lon="8.3246742"><ele>691.5</ele><time>2026-05-03T14:18:19.152Z</time></trkpt><trkpt lat="44.2662205" lon="8.3246753"><ele>692.0</ele><time>2026-05-03T14:18:20.152Z</time></trkpt><trkpt lat="44.266283" lon="8.3246633"><ele>692.0</ele><time>2026-05-03T14:18:21.152Z</time></trkpt><trkpt lat="44.2663465" lon="8.3246422"><ele>692.0</ele><time>2026-05-03T14:18:22.152Z</time></trkpt><trkpt lat="44.2664094" lon="8.3246238"><ele>692.0</ele><time>2026-05-03T14:18:23.152Z</time></trkpt><trkpt lat="44.2664785" lon="8.3246122"><ele>692.0</ele><time>2026-05-03T14:18:24.152Z</time></trkpt><trkpt lat="44.2665548" lon="8.3246033"><ele>692.0</ele><time>2026-05-03T14:18:25.152Z</time></trkpt><trkpt lat="44.2666078" lon="8.3246532"><ele>692.0</ele><time>2026-05-03T14:18:26.152Z</time></trkpt><trkpt lat="44.266657" lon="8.3247088"><ele>692.0</ele><time>2026-05-03T14:18:27.152Z</time></trkpt><trkpt lat="44.2666888" lon="8.3248541"><ele>686.6</ele><time>2026-05-03T14:18:29.152Z</time></trkpt><trkpt lat="44.266742" lon="8.3250015"><ele>681.2</ele><time>2026-05-03T14:18:31.152Z</time></trkpt><trkpt lat="44.266796" lon="8.3250864"><ele>675.8</ele><time>2026-05-03T14:18:32.152Z</time></trkpt><trkpt lat="44.2668561" lon="8.3251831"><ele>670.4</ele><time>2026-05-03T14:18:33.152Z</time></trkpt><trkpt lat="44.2669182" lon="8.3252896"><ele>665.0</ele><time>2026-05-03T14:18:34.152Z</time></trkpt><trkpt lat="44.266994" lon="8.3253656"><ele>665.0</ele><time>2026-05-03T14:18:35.152Z</time></trkpt><trkpt lat="44.2670733" lon="8.3254292"><ele>665.0</ele><time>2026-05-03T14:18:36.153Z</time></trkpt><trkpt lat="44.2671699" lon="8.3254322"><ele>665.0</ele><time>2026-05-03T14:18:37.152Z</time></trkpt><trkpt lat="44.2672555" lon="8.3254056"><ele>665.0</ele><time>2026-05-03T14:18:38.152Z</time></trkpt><trkpt lat="44.2673329" lon="8.3253554"><ele>665.0</ele><time>2026-05-03T14:18:39.152Z</time></trkpt><trkpt lat="44.2674142" lon="8.3252861"><ele>665.4</ele><time>2026-05-03T14:18:40.152Z</time></trkpt><trkpt lat="44.2674944" lon="8.3252088"><ele>665.8</ele><time>2026-05-03T14:18:41.152Z</time></trkpt><trkpt lat="44.2675588" lon="8.3251157"><ele>666.2</ele><time>2026-05-03T14:18:42.152Z</time></trkpt><trkpt lat="44.2676055" lon="8.3250141"><ele>666.6</ele><time>2026-05-03T14:18:43.153Z</time></trkpt><trkpt lat="44.2676627" lon="8.3248816"><ele>667.0</ele><time>2026-05-03T14:18:45.152Z</time></trkpt><trkpt lat="44.2677337" lon="8.3247876"><ele>671.6</ele><time>2026-05-03T14:18:47.152Z</time></trkpt><trkpt lat="44.267801" lon="8.3246721"><ele>676.2</ele><time>2026-05-03T14:18:49.152Z</time></trkpt><trkpt lat="44.2678755" lon="8.3245537"><ele>680.8</ele><time>2026-05-03T14:18:51.152Z</time></trkpt><trkpt lat="44.2679195" lon="8.3244723"><ele>685.4</ele><time>2026-05-03T14:18:52.152Z</time></trkpt><trkpt lat="44.2679656" lon="8.3243822"><ele>690.0</ele><time>2026-05-03T14:18:53.154Z</time></trkpt><trkpt lat="44.2679835" lon="8.3242431"><ele>690.0</ele><time>2026-05-03T14:18:54.153Z</time></trkpt><trkpt lat="44.2680159" lon="8.3241274"><ele>690.0</ele><time>2026-05-03T14:18:55.152Z</time></trkpt><trkpt lat="44.2680861" lon="8.324076"><ele>690.0</ele><time>2026-05-03T14:18:56.152Z</time></trkpt><trkpt lat="44.268139" lon="8.324023"><ele>690.0</ele><time>2026-05-03T14:18:57.153Z</time></trkpt><trkpt lat="44.2682053" lon="8.3240122"><ele>690.0</ele><time>2026-05-03T14:18:58.152Z</time></trkpt><trkpt lat="44.268273" lon="8.3240087"><ele>690.0</ele><time>2026-05-03T14:18:59.152Z</time></trkpt><trkpt lat="44.2683361" lon="8.3239966"><ele>690.0</ele><time>2026-05-03T14:19:00.153Z</time></trkpt><trkpt lat="44.2684137" lon="8.3239499"><ele>690.1666666666666</ele><time>2026-05-03T14:19:01.152Z</time></trkpt><trkpt lat="44.2684942" lon="8.3238762"><ele>690.3333333333334</ele><time>2026-05-03T14:19:02.153Z</time></trkpt><trkpt lat="44.2685591" lon="8.3238126"><ele>690.5</ele><time>2026-05-03T14:19:03.153Z</time></trkpt><trkpt lat="44.2686145" lon="8.32374"><ele>690.6666666666667</ele><time>2026-05-03T14:19:04.153Z</time></trkpt><trkpt lat="44.2687351" lon="8.3236865"><ele>690.8333333333334</ele><time>2026-05-03T14:19:06.152Z</time></trkpt><trkpt lat="44.2687991" lon="8.3236698"><ele>691.0</ele><time>2026-05-03T14:19:07.152Z</time></trkpt><trkpt lat="44.2688907" lon="8.3237806"><ele>689.5714285714286</ele><time>2026-05-03T14:19:09.152Z</time></trkpt><trkpt lat="44.2689551" lon="8.3237851"><ele>688.1428571428571</ele><time>2026-05-03T14:19:10.152Z</time></trkpt><trkpt lat="44.2690231" lon="8.3238021"><ele>686.7142857142858</ele><time>2026-05-03T14:19:11.152Z</time></trkpt><trkpt lat="44.2690928" lon="8.3238338"><ele>685.2857142857142</ele><time>2026-05-03T14:19:12.152Z</time></trkpt><trkpt lat="44.2691582" lon="8.3238595"><ele>683.8571428571429</ele><time>2026-05-03T14:19:13.152Z</time></trkpt><trkpt lat="44.2692232" lon="8.3238503"><ele>682.4285714285714</ele><time>2026-05-03T14:19:14.152Z</time></trkpt><trkpt lat="44.2692743" lon="8.3237869"><ele>681.0</ele><time>2026-05-03T14:19:15.153Z</time></trkpt><trkpt lat="44.2693071" lon="8.3237094"><ele>681.0</ele><time>2026-05-03T14:19:16.152Z</time></trkpt><trkpt lat="44.2693776" lon="8.3235619"><ele>681.0</ele><time>2026-05-03T14:19:18.152Z</time></trkpt><trkpt lat="44.2694771" lon="8.3235154"><ele>681.0</ele><time>2026-05-03T14:19:20.152Z</time></trkpt><trkpt lat="44.2695687" lon="8.3235405"><ele>681.0</ele><time>2026-05-03T14:19:22.152Z</time></trkpt><trkpt lat="44.2696104" lon="8.3236377"><ele>681.0</ele><time>2026-05-03T14:19:23.152Z</time></trkpt><trkpt lat="44.2696824" lon="8.3237361"><ele>678.4</ele><time>2026-05-03T14:19:24.153Z</time></trkpt><trkpt lat="44.2697305" lon="8.323907"><ele>675.8</ele><time>2026-05-03T14:19:25.152Z</time></trkpt><trkpt lat="44.2698027" lon="8.3240533"><ele>673.1999999999999</ele><time>2026-05-03T14:19:26.152Z</time></trkpt><trkpt lat="44.2698696" lon="8.3241266"><ele>670.5999999999999</ele><time>2026-05-03T14:19:27.152Z</time></trkpt><trkpt lat="44.2699275" lon="8.3241793"><ele>668.0</ele><time>2026-05-03T14:19:28.152Z</time></trkpt><trkpt lat="44.2700709" lon="8.3242333"><ele>668.0</ele><time>2026-05-03T14:19:30.153Z</time></trkpt><trkpt lat="44.2701708" lon="8.3242399"><ele>668.0</ele><time>2026-05-03T14:19:31.152Z</time></trkpt><trkpt lat="44.2702706" lon="8.3243327"><ele>668.0</ele><time>2026-05-03T14:19:32.153Z</time></trkpt><trkpt lat="44.2703362" lon="8.3244178"><ele>668.0</ele><time>2026-05-03T14:19:33.152Z</time></trkpt><trkpt lat="44.2704129" lon="8.3245152"><ele>668.0</ele><time>2026-05-03T14:19:34.152Z</time></trkpt><trkpt lat="44.2704897" lon="8.3246108"><ele>668.0</ele><time>2026-05-03T14:19:35.153Z</time></trkpt><trkpt lat="44.2705796" lon="8.3246793"><ele>668.0</ele><time>2026-05-03T14:19:36.152Z</time></trkpt><trkpt lat="44.2706628" lon="8.3247919"><ele>668.0</ele><time>2026-05-03T14:19:37.153Z</time></trkpt><trkpt lat="44.2707425" lon="8.3249097"><ele>668.0</ele><time>2026-05-03T14:19:38.152Z</time></trkpt><trkpt lat="44.2708138" lon="8.3249912"><ele>668.0</ele><time>2026-05-03T14:19:39.152Z</time></trkpt><trkpt lat="44.2708734" lon="8.3250474"><ele>666.6666666666666</ele><time>2026-05-03T14:19:40.152Z</time></trkpt><trkpt lat="44.2709469" lon="8.3250845"><ele>665.3333333333333</ele><time>2026-05-03T14:19:41.153Z</time></trkpt><trkpt lat="44.2710381" lon="8.3250784"><ele>664.0</ele><time>2026-05-03T14:19:42.152Z</time></trkpt><trkpt lat="44.2711229" lon="8.3250912"><ele>662.6666666666666</ele><time>2026-05-03T14:19:43.153Z</time></trkpt><trkpt lat="44.271212" lon="8.3250565"><ele>661.3333333333334</ele><time>2026-05-03T14:19:44.152Z</time></trkpt><trkpt lat="44.2712967" lon="8.3250212"><ele>660.0</ele><time>2026-05-03T14:19:45.152Z</time></trkpt><trkpt lat="44.271387" lon="8.3249947"><ele>662.0</ele><time>2026-05-03T14:19:46.153Z</time></trkpt><trkpt lat="44.2714895" lon="8.3249912"><ele>664.0</ele><time>2026-05-03T14:19:47.152Z</time></trkpt><trkpt lat="44.271593" lon="8.3250077"><ele>666.0</ele><time>2026-05-03T14:19:48.152Z</time></trkpt><trkpt lat="44.271689" lon="8.3250282"><ele>668.0</ele><time>2026-05-03T14:19:49.152Z</time></trkpt><trkpt lat="44.2717867" lon="8.3250619"><ele>670.0</ele><time>2026-05-03T14:19:50.152Z</time></trkpt><trkpt lat="44.2718832" lon="8.3250974"><ele>670.0</ele><time>2026-05-03T14:19:51.153Z</time></trkpt><trkpt lat="44.271973" lon="8.3251446"><ele>670.0</ele><time>2026-05-03T14:19:52.152Z</time></trkpt><trkpt lat="44.2720634" lon="8.3252124"><ele>670.0</ele><time>2026-05-03T14:19:53.153Z</time></trkpt><trkpt lat="44.2721428" lon="8.3252917"><ele>670.0</ele><time>2026-05-03T14:19:54.152Z</time></trkpt><trkpt lat="44.2722134" lon="8.3254004"><ele>670.0</ele><time>2026-05-03T14:19:55.152Z</time></trkpt><trkpt lat="44.2722987" lon="8.3255179"><ele>669.25</ele><time>2026-05-03T14:19:56.152Z</time></trkpt><trkpt lat="44.272383" lon="8.3256444"><ele>668.5</ele><time>2026-05-03T14:19:57.152Z</time></trkpt><trkpt lat="44.2724633" lon="8.3257565"><ele>667.75</ele><time>2026-05-03T14:19:58.152Z</time></trkpt><trkpt lat="44.272543" lon="8.3258638"><ele>667.0</ele><time>2026-05-03T14:19:59.153Z</time></trkpt><trkpt lat="44.2726241" lon="8.3259839"><ele>667.0</ele><time>2026-05-03T14:20:00.152Z</time></trkpt><trkpt lat="44.2727138" lon="8.3260615"><ele>667.0</ele><time>2026-05-03T14:20:01.152Z</time></trkpt><trkpt lat="44.2727879" lon="8.3261538"><ele>667.0</ele><time>2026-05-03T14:20:02.153Z</time></trkpt><trkpt lat="44.2728368" lon="8.3262625"><ele>667.0</ele><time>2026-05-03T14:20:03.152Z</time></trkpt><trkpt lat="44.2728656" lon="8.3263738"><ele>667.0</ele><time>2026-05-03T14:20:04.152Z</time></trkpt><trkpt lat="44.2729018" lon="8.3264776"><ele>668.5</ele><time>2026-05-03T14:20:05.152Z</time></trkpt><trkpt lat="44.2729448" lon="8.3265626"><ele>670.0</ele><time>2026-05-03T14:20:06.152Z</time></trkpt><trkpt lat="44.273" lon="8.3266376"><ele>671.5</ele><time>2026-05-03T14:20:07.152Z</time></trkpt><trkpt lat="44.2730673" lon="8.3266909"><ele>673.0</ele><time>2026-05-03T14:20:08.152Z</time></trkpt><trkpt lat="44.2731439" lon="8.3267642"><ele>674.5</ele><time>2026-05-03T14:20:09.152Z</time></trkpt><trkpt lat="44.2732182" lon="8.3268555"><ele>676.0</ele><time>2026-05-03T14:20:10.152Z</time></trkpt><trkpt lat="44.2732899" lon="8.326931"><ele>676.0</ele><time>2026-05-03T14:20:11.152Z</time></trkpt><trkpt lat="44.2733706" lon="8.3269893"><ele>676.0</ele><time>2026-05-03T14:20:12.153Z</time></trkpt><trkpt lat="44.2734622" lon="8.3270196"><ele>676.0</ele><time>2026-05-03T14:20:13.153Z</time></trkpt><trkpt lat="44.2735466" lon="8.3270507"><ele>676.0</ele><time>2026-05-03T14:20:14.152Z</time></trkpt><trkpt lat="44.2736537" lon="8.3270701"><ele>676.0</ele><time>2026-05-03T14:20:15.153Z</time></trkpt><trkpt lat="44.2737625" lon="8.3270716"><ele>676.0</ele><time>2026-05-03T14:20:16.152Z</time></trkpt><trkpt lat="44.2738582" lon="8.327064"><ele>676.0</ele><time>2026-05-03T14:20:17.152Z</time></trkpt><trkpt lat="44.2739605" lon="8.3270594"><ele>676.0</ele><time>2026-05-03T14:20:18.152Z</time></trkpt><trkpt lat="44.2740712" lon="8.3270593"><ele>676.0</ele><time>2026-05-03T14:20:19.153Z</time></trkpt><trkpt lat="44.2741509" lon="8.3269929"><ele>676.0</ele><time>2026-05-03T14:20:20.152Z</time></trkpt><trkpt lat="44.274246" lon="8.3268474"><ele>677.0</ele><time>2026-05-03T14:20:21.152Z</time></trkpt><trkpt lat="44.2743471" lon="8.3267693"><ele>678.0</ele><time>2026-05-03T14:20:22.152Z</time></trkpt><trkpt lat="44.2744306" lon="8.3266901"><ele>679.0</ele><time>2026-05-03T14:20:23.152Z</time></trkpt><trkpt lat="44.2745185" lon="8.3266622"><ele>680.0</ele><time>2026-05-03T14:20:24.152Z</time></trkpt><trkpt lat="44.2746028" lon="8.3266314"><ele>681.0</ele><time>2026-05-03T14:20:25.153Z</time></trkpt><trkpt lat="44.2746869" lon="8.3266222"><ele>680.3333333333334</ele><time>2026-05-03T14:20:26.152Z</time></trkpt><trkpt lat="44.2747781" lon="8.3266852"><ele>679.6666666666666</ele><time>2026-05-03T14:20:27.152Z</time></trkpt><trkpt lat="44.2748588" lon="8.3267118"><ele>679.0</ele><time>2026-05-03T14:20:28.152Z</time></trkpt><trkpt lat="44.2749347" lon="8.3267585"><ele>678.3333333333333</ele><time>2026-05-03T14:20:29.153Z</time></trkpt><trkpt lat="44.2750117" lon="8.326809"><ele>677.6666666666666</ele><time>2026-05-03T14:20:30.153Z</time></trkpt><trkpt lat="44.2750859" lon="8.326809"><ele>677.0</ele><time>2026-05-03T14:20:31.152Z</time></trkpt><trkpt lat="44.2751511" lon="8.3268306"><ele>677.0</ele><time>2026-05-03T14:20:32.152Z</time></trkpt><trkpt lat="44.275232" lon="8.3268391"><ele>677.0</ele><time>2026-05-03T14:20:33.152Z</time></trkpt><trkpt lat="44.2753422" lon="8.3268208"><ele>677.0</ele><time>2026-05-03T14:20:34.152Z</time></trkpt><trkpt lat="44.2754584" lon="8.3268461"><ele>677.0</ele><time>2026-05-03T14:20:35.153Z</time></trkpt><trkpt lat="44.2755528" lon="8.326859"><ele>677.0</ele><time>2026-05-03T14:20:36.152Z</time></trkpt><trkpt lat="44.2756322" lon="8.326846"><ele>677.3333333333333</ele><time>2026-05-03T14:20:37.152Z</time></trkpt><trkpt lat="44.275721" lon="8.3268509"><ele>677.6666666666666</ele><time>2026-05-03T14:20:38.152Z</time></trkpt><trkpt lat="44.2758056" lon="8.3268654"><ele>678.0</ele><time>2026-05-03T14:20:39.152Z</time></trkpt><trkpt lat="44.2758933" lon="8.3268686"><ele>678.3333333333334</ele><time>2026-05-03T14:20:40.153Z</time></trkpt><trkpt lat="44.2759674" lon="8.326877"><ele>678.6666666666667</ele><time>2026-05-03T14:20:41.152Z</time></trkpt><trkpt lat="44.2760335" lon="8.3269049"><ele>679.0</ele><time>2026-05-03T14:20:42.152Z</time></trkpt><trkpt lat="44.2760977" lon="8.3269289"><ele>679.0</ele><time>2026-05-03T14:20:43.152Z</time></trkpt><trkpt lat="44.2761738" lon="8.3269639"><ele>679.0</ele><time>2026-05-03T14:20:44.152Z</time></trkpt><trkpt lat="44.276268" lon="8.3270011"><ele>679.0</ele><time>2026-05-03T14:20:45.152Z</time></trkpt><trkpt lat="44.2763622" lon="8.3270402"><ele>679.0</ele><time>2026-05-03T14:20:46.152Z</time></trkpt><trkpt lat="44.2764497" lon="8.3270731"><ele>679.0</ele><time>2026-05-03T14:20:47.152Z</time></trkpt><trkpt lat="44.2765556" lon="8.3270664"><ele>680.0</ele><time>2026-05-03T14:20:48.152Z</time></trkpt><trkpt lat="44.2766726" lon="8.3270819"><ele>681.0</ele><time>2026-05-03T14:20:49.152Z</time></trkpt><trkpt lat="44.2767817" lon="8.3270958"><ele>682.0</ele><time>2026-05-03T14:20:50.153Z</time></trkpt><trkpt lat="44.2768938" lon="8.3270816"><ele>683.0</ele><time>2026-05-03T14:20:51.153Z</time></trkpt><trkpt lat="44.2769775" lon="8.3270811"><ele>684.0</ele><time>2026-05-03T14:20:52.152Z</time></trkpt><trkpt lat="44.2770671" lon="8.3270705"><ele>684.0</ele><time>2026-05-03T14:20:53.152Z</time></trkpt><trkpt lat="44.2771421" lon="8.3270533"><ele>684.0</ele><time>2026-05-03T14:20:54.152Z</time></trkpt><trkpt lat="44.2772382" lon="8.3270192"><ele>684.0</ele><time>2026-05-03T14:20:55.152Z</time></trkpt><trkpt lat="44.2773114" lon="8.3270064"><ele>684.0</ele><time>2026-05-03T14:20:56.152Z</time></trkpt><trkpt lat="44.2773927" lon="8.3270184"><ele>684.0</ele><time>2026-05-03T14:20:57.153Z</time></trkpt><trkpt lat="44.2774643" lon="8.3270268"><ele>684.0</ele><time>2026-05-03T14:20:58.152Z</time></trkpt><trkpt lat="44.2774909" lon="8.3271488"><ele>681.4285714285713</ele><time>2026-05-03T14:20:59.153Z</time></trkpt><trkpt lat="44.2775318" lon="8.3272444"><ele>678.8571428571429</ele><time>2026-05-03T14:21:00.152Z</time></trkpt><trkpt lat="44.27757" lon="8.3273353"><ele>676.2857142857142</ele><time>2026-05-03T14:21:01.152Z</time></trkpt><trkpt lat="44.2776221" lon="8.3273952"><ele>673.7142857142857</ele><time>2026-05-03T14:21:02.152Z</time></trkpt><trkpt lat="44.2776616" lon="8.3274746"><ele>671.1428571428571</ele><time>2026-05-03T14:21:03.152Z</time></trkpt><trkpt lat="44.2777328" lon="8.3274726"><ele>668.5714285714286</ele><time>2026-05-03T14:21:04.153Z</time></trkpt><trkpt lat="44.2778027" lon="8.3275009"><ele>666.0</ele><time>2026-05-03T14:21:05.152Z</time></trkpt><trkpt lat="44.2778597" lon="8.327565"><ele>666.0</ele><time>2026-05-03T14:21:06.152Z</time></trkpt><trkpt lat="44.2778952" lon="8.3276576"><ele>666.0</ele><time>2026-05-03T14:21:07.153Z</time></trkpt><trkpt lat="44.2779335" lon="8.3277652"><ele>666.0</ele><time>2026-05-03T14:21:08.152Z</time></trkpt><trkpt lat="44.2779784" lon="8.3278538"><ele>666.0</ele><time>2026-05-03T14:21:09.152Z</time></trkpt><trkpt lat="44.2780357" lon="8.3279353"><ele>666.0</ele><time>2026-05-03T14:21:10.153Z</time></trkpt><trkpt lat="44.2781079" lon="8.3280166"><ele>666.0</ele><time>2026-05-03T14:21:11.152Z</time></trkpt><trkpt lat="44.2781839" lon="8.3281011"><ele>666.6666666666666</ele><time>2026-05-03T14:21:12.152Z</time></trkpt><trkpt lat="44.2782469" lon="8.3281923"><ele>667.3333333333334</ele><time>2026-05-03T14:21:13.152Z</time></trkpt><trkpt lat="44.2783113" lon="8.3282871"><ele>668.0</ele><time>2026-05-03T14:21:14.152Z</time></trkpt><trkpt lat="44.278335" lon="8.3283847"><ele>668.6666666666667</ele><time>2026-05-03T14:21:15.153Z</time></trkpt><trkpt lat="44.2783701" lon="8.3284626"><ele>669.3333333333334</ele><time>2026-05-03T14:21:16.152Z</time></trkpt><trkpt lat="44.2784277" lon="8.3285219"><ele>670.0</ele><time>2026-05-03T14:21:17.153Z</time></trkpt><trkpt lat="44.2784895" lon="8.3285616"><ele>670.0</ele><time>2026-05-03T14:21:18.152Z</time></trkpt><trkpt lat="44.2785577" lon="8.3285792"><ele>670.0</ele><time>2026-05-03T14:21:19.152Z</time></trkpt><trkpt lat="44.2786244" lon="8.3286115"><ele>670.0</ele><time>2026-05-03T14:21:20.153Z</time></trkpt><trkpt lat="44.2786864" lon="8.3286654"><ele>670.0</ele><time>2026-05-03T14:21:21.153Z</time></trkpt><trkpt lat="44.2787537" lon="8.328729"><ele>670.0</ele><time>2026-05-03T14:21:22.152Z</time></trkpt><trkpt lat="44.278831" lon="8.3287795"><ele>670.0</ele><time>2026-05-03T14:21:23.153Z</time></trkpt><trkpt lat="44.278933" lon="8.3288192"><ele>670.6666666666667</ele><time>2026-05-03T14:21:24.152Z</time></trkpt><trkpt lat="44.2790239" lon="8.3288386"><ele>671.3333333333334</ele><time>2026-05-03T14:21:25.153Z</time></trkpt><trkpt lat="44.279116" lon="8.3288437"><ele>672.0</ele><time>2026-05-03T14:21:26.152Z</time></trkpt><trkpt lat="44.2792018" lon="8.3288378"><ele>672.6666666666666</ele><time>2026-05-03T14:21:27.152Z</time></trkpt><trkpt lat="44.2792835" lon="8.3288571"><ele>673.3333333333333</ele><time>2026-05-03T14:21:28.154Z</time></trkpt><trkpt lat="44.2793584" lon="8.3288995"><ele>674.0</ele><time>2026-05-03T14:21:29.152Z</time></trkpt><trkpt lat="44.2794359" lon="8.3289632"><ele>673.0</ele><time>2026-05-03T14:21:30.152Z</time></trkpt><trkpt lat="44.2795113" lon="8.3290437"><ele>672.0</ele><time>2026-05-03T14:21:31.153Z</time></trkpt><trkpt lat="44.2795947" lon="8.3291267"><ele>671.0</ele><time>2026-05-03T14:21:32.152Z</time></trkpt><trkpt lat="44.2796763" lon="8.3292096"><ele>670.0</ele><time>2026-05-03T14:21:33.152Z</time></trkpt><trkpt lat="44.2797474" lon="8.3292848"><ele>669.0</ele><time>2026-05-03T14:21:34.152Z</time></trkpt><trkpt lat="44.2798088" lon="8.3293584"><ele>669.0</ele><time>2026-05-03T14:21:35.152Z</time></trkpt><trkpt lat="44.279873" lon="8.3294024"><ele>669.0</ele><time>2026-05-03T14:21:36.153Z</time></trkpt><trkpt lat="44.279942" lon="8.3294211"><ele>669.0</ele><time>2026-05-03T14:21:37.152Z</time></trkpt><trkpt lat="44.2800098" lon="8.3294157"><ele>669.0</ele><time>2026-05-03T14:21:38.152Z</time></trkpt><trkpt lat="44.2800762" lon="8.3293719"><ele>669.0</ele><time>2026-05-03T14:21:39.152Z</time></trkpt><trkpt lat="44.2801518" lon="8.3293134"><ele>669.0</ele><time>2026-05-03T14:21:40.152Z</time></trkpt><trkpt lat="44.2802297" lon="8.3292664"><ele>669.0</ele><time>2026-05-03T14:21:41.153Z</time></trkpt><trkpt lat="44.280306" lon="8.3292287"><ele>669.0</ele><time>2026-05-03T14:21:42.152Z</time></trkpt><trkpt lat="44.2803902" lon="8.3292646"><ele>669.0</ele><time>2026-05-03T14:21:43.152Z</time></trkpt><trkpt lat="44.280468" lon="8.329297"><ele>669.0</ele><time>2026-05-03T14:21:44.153Z</time></trkpt><trkpt lat="44.2805585" lon="8.3293397"><ele>669.0</ele><time>2026-05-03T14:21:45.153Z</time></trkpt><trkpt lat="44.2806464" lon="8.3293879"><ele>669.0</ele><time>2026-05-03T14:21:46.152Z</time></trkpt><trkpt lat="44.2807482" lon="8.3294032"><ele>670.8333333333334</ele><time>2026-05-03T14:21:47.152Z</time></trkpt><trkpt lat="44.2808464" lon="8.3294056"><ele>672.6666666666666</ele><time>2026-05-03T14:21:48.152Z</time></trkpt><trkpt lat="44.280934" lon="8.3294269"><ele>674.5</ele><time>2026-05-03T14:21:49.152Z</time></trkpt><trkpt lat="44.2810079" lon="8.3294501"><ele>676.3333333333333</ele><time>2026-05-03T14:21:50.153Z</time></trkpt><trkpt lat="44.2810926" lon="8.3294946"><ele>678.1666666666666</ele><time>2026-05-03T14:21:51.153Z</time></trkpt><trkpt lat="44.2811628" lon="8.3295318"><ele>680.0</ele><time>2026-05-03T14:21:52.152Z</time></trkpt><trkpt lat="44.2812386" lon="8.3295747"><ele>680.0</ele><time>2026-05-03T14:21:53.152Z</time></trkpt><trkpt lat="44.2813168" lon="8.3296067"><ele>680.0</ele><time>2026-05-03T14:21:54.152Z</time></trkpt><trkpt lat="44.2813891" lon="8.329612"><ele>680.0</ele><time>2026-05-03T14:21:55.152Z</time></trkpt><trkpt lat="44.2814689" lon="8.3295949"><ele>680.0</ele><time>2026-05-03T14:21:56.152Z</time></trkpt><trkpt lat="44.2815406" lon="8.3295601"><ele>680.0</ele><time>2026-05-03T14:21:57.152Z</time></trkpt><trkpt lat="44.2816753" lon="8.3295155"><ele>680.0</ele><time>2026-05-03T14:21:59.152Z</time></trkpt><trkpt lat="44.2817395" lon="8.3294902"><ele>678.6666666666666</ele><time>2026-05-03T14:22:00.152Z</time></trkpt><trkpt lat="44.2818079" lon="8.3294531"><ele>677.3333333333333</ele><time>2026-05-03T14:22:01.152Z</time></trkpt><trkpt lat="44.2818837" lon="8.3294225"><ele>676.0</ele><time>2026-05-03T14:22:02.153Z</time></trkpt><trkpt lat="44.2819582" lon="8.3293859"><ele>674.6666666666666</ele><time>2026-05-03T14:22:03.152Z</time></trkpt><trkpt lat="44.2820441" lon="8.3293506"><ele>673.3333333333334</ele><time>2026-05-03T14:22:04.153Z</time></trkpt><trkpt lat="44.2821192" lon="8.3293128"><ele>672.0</ele><time>2026-05-03T14:22:05.152Z</time></trkpt><trkpt lat="44.2821973" lon="8.3292914"><ele>670.6</ele><time>2026-05-03T14:22:06.153Z</time></trkpt><trkpt lat="44.2823191" lon="8.3292137"><ele>669.2</ele><time>2026-05-03T14:22:08.152Z</time></trkpt><trkpt lat="44.2823972" lon="8.3291496"><ele>667.8</ele><time>2026-05-03T14:22:09.152Z</time></trkpt><trkpt lat="44.2824723" lon="8.3290797"><ele>666.4</ele><time>2026-05-03T14:22:10.152Z</time></trkpt><trkpt lat="44.2825511" lon="8.3290134"><ele>665.0</ele><time>2026-05-03T14:22:11.152Z</time></trkpt><trkpt lat="44.2826287" lon="8.3289665"><ele>665.0</ele><time>2026-05-03T14:22:12.152Z</time></trkpt><trkpt lat="44.2827081" lon="8.3289162"><ele>665.0</ele><time>2026-05-03T14:22:13.152Z</time></trkpt><trkpt lat="44.2827665" lon="8.328845"><ele>665.0</ele><time>2026-05-03T14:22:14.152Z</time></trkpt><trkpt lat="44.2828407" lon="8.3287619"><ele>665.0</ele><time>2026-05-03T14:22:15.152Z</time></trkpt><trkpt lat="44.2829072" lon="8.328698"><ele>665.0</ele><time>2026-05-03T14:22:16.153Z</time></trkpt><trkpt lat="44.2829808" lon="8.328637"><ele>665.0</ele><time>2026-05-03T14:22:17.152Z</time></trkpt><trkpt lat="44.2830637" lon="8.3285898"><ele>662.5</ele><time>2026-05-03T14:22:18.152Z</time></trkpt><trkpt lat="44.2831414" lon="8.3285332"><ele>660.0</ele><time>2026-05-03T14:22:19.152Z</time></trkpt><trkpt lat="44.2832124" lon="8.3284774"><ele>657.5</ele><time>2026-05-03T14:22:20.152Z</time></trkpt><trkpt lat="44.2832806" lon="8.3284182"><ele>655.0</ele><time>2026-05-03T14:22:21.152Z</time></trkpt><trkpt lat="44.2833369" lon="8.3283571"><ele>652.5</ele><time>2026-05-03T14:22:22.153Z</time></trkpt><trkpt lat="44.2834187" lon="8.3283134"><ele>650.0</ele><time>2026-05-03T14:22:23.152Z</time></trkpt><trkpt lat="44.283512" lon="8.3282964"><ele>650.0</ele><time>2026-05-03T14:22:24.153Z</time></trkpt><trkpt lat="44.2835859" lon="8.3282951"><ele>650.0</ele><time>2026-05-03T14:22:25.152Z</time></trkpt><trkpt lat="44.2836506" lon="8.3283196"><ele>650.0</ele><time>2026-05-03T14:22:26.152Z</time></trkpt><trkpt lat="44.2837227" lon="8.3283537"><ele>650.0</ele><time>2026-05-03T14:22:27.153Z</time></trkpt><trkpt lat="44.2837565" lon="8.3284279"><ele>650.0</ele><time>2026-05-03T14:22:28.153Z</time></trkpt><trkpt lat="44.2837601" lon="8.3285564"><ele>650.0</ele><time>2026-05-03T14:22:29.152Z</time></trkpt><trkpt lat="44.2837814" lon="8.3286518"><ele>650.0</ele><time>2026-05-03T14:22:30.152Z</time></trkpt><trkpt lat="44.283874" lon="8.3286829"><ele>651.1428571428571</ele><time>2026-05-03T14:22:32.153Z</time></trkpt><trkpt lat="44.2839387" lon="8.3286147"><ele>652.2857142857143</ele><time>2026-05-03T14:22:34.152Z</time></trkpt><trkpt lat="44.2839792" lon="8.32853"><ele>653.4285714285714</ele><time>2026-05-03T14:22:35.153Z</time></trkpt><trkpt lat="44.2840125" lon="8.328444"><ele>654.5714285714286</ele><time>2026-05-03T14:22:36.152Z</time></trkpt><trkpt lat="44.2840385" lon="8.3283444"><ele>655.7142857142858</ele><time>2026-05-03T14:22:37.152Z</time></trkpt><trkpt lat="44.2840523" lon="8.3282496"><ele>656.8571428571429</ele><time>2026-05-03T14:22:38.152Z</time></trkpt><trkpt lat="44.2840738" lon="8.3281609"><ele>658.0</ele><time>2026-05-03T14:22:39.152Z</time></trkpt><trkpt lat="44.2841148" lon="8.3280824"><ele>653.1999999999999</ele><time>2026-05-03T14:22:40.152Z</time></trkpt><trkpt lat="44.2841681" lon="8.3280078"><ele>648.4</ele><time>2026-05-03T14:22:41.152Z</time></trkpt><trkpt lat="44.2842318" lon="8.3279378"><ele>643.5999999999999</ele><time>2026-05-03T14:22:42.152Z</time></trkpt><trkpt lat="44.284329" lon="8.3278642"><ele>638.8</ele><time>2026-05-03T14:22:43.152Z</time></trkpt><trkpt lat="44.2844388" lon="8.3277817"><ele>634.0</ele><time>2026-05-03T14:22:44.152Z</time></trkpt><trkpt lat="44.2845424" lon="8.3276847"><ele>634.0</ele><time>2026-05-03T14:22:45.152Z</time></trkpt><trkpt lat="44.2846359" lon="8.3275928"><ele>634.0</ele><time>2026-05-03T14:22:46.152Z</time></trkpt><trkpt lat="44.2847318" lon="8.3275103"><ele>634.0</ele><time>2026-05-03T14:22:47.152Z</time></trkpt><trkpt lat="44.2848244" lon="8.3274457"><ele>634.0</ele><time>2026-05-03T14:22:48.152Z</time></trkpt><trkpt lat="44.284907" lon="8.3273693"><ele>634.0</ele><time>2026-05-03T14:22:49.152Z</time></trkpt><trkpt lat="44.2849814" lon="8.3272817"><ele>631.5</ele><time>2026-05-03T14:22:50.152Z</time></trkpt><trkpt lat="44.2850467" lon="8.3271916"><ele>629.0</ele><time>2026-05-03T14:22:51.152Z</time></trkpt><trkpt lat="44.2851017" lon="8.3270992"><ele>626.5</ele><time>2026-05-03T14:22:52.152Z</time></trkpt><trkpt lat="44.2851652" lon="8.3270224"><ele>624.0</ele><time>2026-05-03T14:22:53.152Z</time></trkpt><trkpt lat="44.2852292" lon="8.3269571"><ele>621.5</ele><time>2026-05-03T14:22:54.153Z</time></trkpt><trkpt lat="44.2853055" lon="8.3269257"><ele>619.0</ele><time>2026-05-03T14:22:55.152Z</time></trkpt><trkpt lat="44.2853829" lon="8.326899"><ele>619.0</ele><time>2026-05-03T14:22:56.152Z</time></trkpt><trkpt lat="44.285477" lon="8.3268753"><ele>619.0</ele><time>2026-05-03T14:22:57.152Z</time></trkpt><trkpt lat="44.2855766" lon="8.3268592"><ele>619.0</ele><time>2026-05-03T14:22:58.152Z</time></trkpt><trkpt lat="44.2856692" lon="8.3268487"><ele>619.0</ele><time>2026-05-03T14:22:59.152Z</time></trkpt><trkpt lat="44.2857578" lon="8.3268479"><ele>619.0</ele><time>2026-05-03T14:23:00.152Z</time></trkpt><trkpt lat="44.2858406" lon="8.3268533"><ele>620.1666666666667</ele><time>2026-05-03T14:23:01.153Z</time></trkpt><trkpt lat="44.285921" lon="8.3268641"><ele>621.3333333333334</ele><time>2026-05-03T14:23:02.152Z</time></trkpt><trkpt lat="44.2860029" lon="8.3268699"><ele>622.5</ele><time>2026-05-03T14:23:03.153Z</time></trkpt><trkpt lat="44.2860806" lon="8.3268722"><ele>623.6666666666666</ele><time>2026-05-03T14:23:04.152Z</time></trkpt><trkpt lat="44.2861551" lon="8.3268664"><ele>624.8333333333333</ele><time>2026-05-03T14:23:05.153Z</time></trkpt><trkpt lat="44.286239" lon="8.3268169"><ele>626.0</ele><time>2026-05-03T14:23:06.152Z</time></trkpt><trkpt lat="44.2862999" lon="8.3267639"><ele>626.0</ele><time>2026-05-03T14:23:07.153Z</time></trkpt><trkpt lat="44.2863459" lon="8.3266836"><ele>626.0</ele><time>2026-05-03T14:23:08.152Z</time></trkpt><trkpt lat="44.2863808" lon="8.3265202"><ele>626.0</ele><time>2026-05-03T14:23:10.152Z</time></trkpt><trkpt lat="44.2863287" lon="8.3263691"><ele>626.0</ele><time>2026-05-03T14:23:12.152Z</time></trkpt><trkpt lat="44.2862793" lon="8.326269"><ele>626.0</ele><time>2026-05-03T14:23:13.153Z</time></trkpt><trkpt lat="44.2862326" lon="8.326163"><ele>622.8</ele><time>2026-05-03T14:23:14.153Z</time></trkpt><trkpt lat="44.28618" lon="8.3260633"><ele>619.6</ele><time>2026-05-03T14:23:15.153Z</time></trkpt><trkpt lat="44.286117" lon="8.3259913"><ele>616.4</ele><time>2026-05-03T14:23:16.152Z</time></trkpt><trkpt lat="44.2860629" lon="8.3259158"><ele>613.2</ele><time>2026-05-03T14:23:17.152Z</time></trkpt><trkpt lat="44.2860005" lon="8.3258434"><ele>610.0</ele><time>2026-05-03T14:23:18.152Z</time></trkpt><trkpt lat="44.2859427" lon="8.325687"><ele>610.0</ele><time>2026-05-03T14:23:20.152Z</time></trkpt><trkpt lat="44.2859587" lon="8.3255925"><ele>610.0</ele><time>2026-05-03T14:23:21.152Z</time></trkpt><trkpt lat="44.2859875" lon="8.3254918"><ele>610.0</ele><time>2026-05-03T14:23:22.152Z</time></trkpt><trkpt lat="44.2860062" lon="8.3253917"><ele>610.0</ele><time>2026-05-03T14:23:23.152Z</time></trkpt><trkpt lat="44.286015" lon="8.3252744"><ele>610.0</ele><time>2026-05-03T14:23:24.152Z</time></trkpt><trkpt lat="44.2860103" lon="8.3251693"><ele>610.0</ele><time>2026-05-03T14:23:25.152Z</time></trkpt><trkpt lat="44.2860047" lon="8.3250763"><ele>610.0</ele><time>2026-05-03T14:23:26.152Z</time></trkpt><trkpt lat="44.2860304" lon="8.3249826"><ele>608.2</ele><time>2026-05-03T14:23:27.152Z</time></trkpt><trkpt lat="44.2861055" lon="8.3248224"><ele>606.4</ele><time>2026-05-03T14:23:29.152Z</time></trkpt><trkpt lat="44.2861703" lon="8.3247466"><ele>604.6</ele><time>2026-05-03T14:23:30.152Z</time></trkpt><trkpt lat="44.2862414" lon="8.3246697"><ele>602.8</ele><time>2026-05-03T14:23:31.152Z</time></trkpt><trkpt lat="44.2863237" lon="8.3246165"><ele>601.0</ele><time>2026-05-03T14:23:32.152Z</time></trkpt><trkpt lat="44.2864101" lon="8.3245706"><ele>599.6</ele><time>2026-05-03T14:23:33.152Z</time></trkpt><trkpt lat="44.2865154" lon="8.3245281"><ele>598.2</ele><time>2026-05-03T14:23:34.152Z</time></trkpt><trkpt lat="44.2866028" lon="8.3244788"><ele>596.8</ele><time>2026-05-03T14:23:35.152Z</time></trkpt><trkpt lat="44.2866983" lon="8.3244446"><ele>595.4</ele><time>2026-05-03T14:23:36.152Z</time></trkpt><trkpt lat="44.2867787" lon="8.3244775"><ele>594.0</ele><time>2026-05-03T14:23:37.152Z</time></trkpt><trkpt lat="44.2868563" lon="8.3244784"><ele>594.0</ele><time>2026-05-03T14:23:38.152Z</time></trkpt><trkpt lat="44.2869385" lon="8.3245366"><ele>594.0</ele><time>2026-05-03T14:23:39.152Z</time></trkpt><trkpt lat="44.286995" lon="8.3245976"><ele>594.0</ele><time>2026-05-03T14:23:40.152Z</time></trkpt><trkpt lat="44.2870623" lon="8.3246959"><ele>594.0</ele><time>2026-05-03T14:23:41.153Z</time></trkpt><trkpt lat="44.2871373" lon="8.324653"><ele>594.0</ele><time>2026-05-03T14:23:43.152Z</time></trkpt><trkpt lat="44.2871805" lon="8.3245121"><ele>594.0</ele><time>2026-05-03T14:23:45.152Z</time></trkpt><trkpt lat="44.2871704" lon="8.3244158"><ele>594.0</ele><time>2026-05-03T14:23:46.152Z</time></trkpt><trkpt lat="44.2871416" lon="8.3242998"><ele>594.0</ele><time>2026-05-03T14:23:47.152Z</time></trkpt><trkpt lat="44.2871161" lon="8.3241806"><ele>594.0</ele><time>2026-05-03T14:23:48.153Z</time></trkpt><trkpt lat="44.2870972" lon="8.3240529"><ele>594.0</ele><time>2026-05-03T14:23:49.152Z</time></trkpt><trkpt lat="44.287082" lon="8.3239345"><ele>594.0</ele><time>2026-05-03T14:23:50.152Z</time></trkpt><trkpt lat="44.2870639" lon="8.3238191"><ele>592.5</ele><time>2026-05-03T14:23:51.152Z</time></trkpt><trkpt lat="44.2870391" lon="8.3236998"><ele>591.0</ele><time>2026-05-03T14:23:52.153Z</time></trkpt><trkpt lat="44.2870199" lon="8.3235781"><ele>589.5</ele><time>2026-05-03T14:23:53.152Z</time></trkpt><trkpt lat="44.2870016" lon="8.3234668"><ele>588.0</ele><time>2026-05-03T14:23:54.152Z</time></trkpt><trkpt lat="44.2869879" lon="8.3233644"><ele>586.5</ele><time>2026-05-03T14:23:55.152Z</time></trkpt><trkpt lat="44.2869916" lon="8.3232667"><ele>585.0</ele><time>2026-05-03T14:23:56.153Z</time></trkpt><trkpt lat="44.2870116" lon="8.3231626"><ele>584.0</ele><time>2026-05-03T14:23:57.152Z</time></trkpt><trkpt lat="44.2870412" lon="8.323055"><ele>583.0</ele><time>2026-05-03T14:23:58.152Z</time></trkpt><trkpt lat="44.2870602" lon="8.3229339"><ele>582.0</ele><time>2026-05-03T14:23:59.153Z</time></trkpt><trkpt lat="44.2870676" lon="8.3228165"><ele>581.0</ele><time>2026-05-03T14:24:00.152Z</time></trkpt><trkpt lat="44.2870809" lon="8.3226997"><ele>580.0</ele><time>2026-05-03T14:24:01.152Z</time></trkpt><trkpt lat="44.2870971" lon="8.3225734"><ele>579.0</ele><time>2026-05-03T14:24:02.153Z</time></trkpt><trkpt lat="44.2871327" lon="8.3224415"><ele>579.0</ele><time>2026-05-03T14:24:03.152Z</time></trkpt><trkpt lat="44.28717" lon="8.3223159"><ele>579.0</ele><time>2026-05-03T14:24:04.153Z</time></trkpt><trkpt lat="44.2872076" lon="8.3222064"><ele>579.0</ele><time>2026-05-03T14:24:05.152Z</time></trkpt><trkpt lat="44.2872414" lon="8.3221112"><ele>579.0</ele><time>2026-05-03T14:24:06.152Z</time></trkpt><trkpt lat="44.2872763" lon="8.3220081"><ele>579.0</ele><time>2026-05-03T14:24:07.152Z</time></trkpt><trkpt lat="44.2873211" lon="8.3219143"><ele>579.0</ele><time>2026-05-03T14:24:08.153Z</time></trkpt><trkpt lat="44.2873694" lon="8.3218414"><ele>578.2</ele><time>2026-05-03T14:24:09.154Z</time></trkpt><trkpt lat="44.2874401" lon="8.3217857"><ele>577.4</ele><time>2026-05-03T14:24:10.153Z</time></trkpt><trkpt lat="44.287529" lon="8.3217434"><ele>576.6</ele><time>2026-05-03T14:24:11.153Z</time></trkpt><trkpt lat="44.287628" lon="8.3217003"><ele>575.8</ele><time>2026-05-03T14:24:12.153Z</time></trkpt><trkpt lat="44.2877333" lon="8.3216647"><ele>575.0</ele><time>2026-05-03T14:24:13.153Z</time></trkpt><trkpt lat="44.2878375" lon="8.3216372"><ele>575.0</ele><time>2026-05-03T14:24:14.154Z</time></trkpt><trkpt lat="44.287932" lon="8.3216167"><ele>575.0</ele><time>2026-05-03T14:24:15.153Z</time></trkpt><trkpt lat="44.2880266" lon="8.3216142"><ele>575.0</ele><time>2026-05-03T14:24:16.153Z</time></trkpt><trkpt lat="44.2881162" lon="8.3216261"><ele>575.0</ele><time>2026-05-03T14:24:17.153Z</time></trkpt><trkpt lat="44.2882095" lon="8.3216433"><ele>575.0</ele><time>2026-05-03T14:24:18.153Z</time></trkpt><trkpt lat="44.2883076" lon="8.3216655"><ele>574.6</ele><time>2026-05-03T14:24:19.154Z</time></trkpt><trkpt lat="44.2884035" lon="8.3216852"><ele>574.2</ele><time>2026-05-03T14:24:20.153Z</time></trkpt><trkpt lat="44.2884962" lon="8.3217023"><ele>573.8</ele><time>2026-05-03T14:24:21.153Z</time></trkpt><trkpt lat="44.2885889" lon="8.3217271"><ele>573.4</ele><time>2026-05-03T14:24:22.154Z</time></trkpt><trkpt lat="44.288675" lon="8.321739"><ele>573.0</ele><time>2026-05-03T14:24:23.153Z</time></trkpt><trkpt lat="44.288758" lon="8.3217508"><ele>573.0</ele><time>2026-05-03T14:24:24.153Z</time></trkpt><trkpt lat="44.2888375" lon="8.321755"><ele>573.0</ele><time>2026-05-03T14:24:25.153Z</time></trkpt><trkpt lat="44.2889137" lon="8.3217455"><ele>573.0</ele><time>2026-05-03T14:24:26.154Z</time></trkpt><trkpt lat="44.2889862" lon="8.3217257"><ele>573.0</ele><time>2026-05-03T14:24:27.153Z</time></trkpt><trkpt lat="44.2890563" lon="8.3217234"><ele>573.0</ele><time>2026-05-03T14:24:28.153Z</time></trkpt><trkpt lat="44.2891214" lon="8.3217385"><ele>573.0</ele><time>2026-05-03T14:24:29.153Z</time></trkpt><trkpt lat="44.2892" lon="8.3217721"><ele>573.0</ele><time>2026-05-03T14:24:30.153Z</time></trkpt><trkpt lat="44.2892879" lon="8.3217896"><ele>572.1666666666666</ele><time>2026-05-03T14:24:31.153Z</time></trkpt><trkpt lat="44.2893811" lon="8.321784"><ele>571.3333333333334</ele><time>2026-05-03T14:24:32.154Z</time></trkpt><trkpt lat="44.2894581" lon="8.3217829"><ele>570.5</ele><time>2026-05-03T14:24:33.154Z</time></trkpt><trkpt lat="44.2895233" lon="8.3217742"><ele>569.6666666666667</ele><time>2026-05-03T14:24:34.154Z</time></trkpt><trkpt lat="44.289597" lon="8.3217683"><ele>568.8333333333334</ele><time>2026-05-03T14:24:35.154Z</time></trkpt><trkpt lat="44.2896873" lon="8.321761"><ele>568.0</ele><time>2026-05-03T14:24:36.153Z</time></trkpt><trkpt lat="44.2897605" lon="8.3217504"><ele>568.0</ele><time>2026-05-03T14:24:37.153Z</time></trkpt><trkpt lat="44.2898474" lon="8.3217349"><ele>568.0</ele><time>2026-05-03T14:24:38.154Z</time></trkpt><trkpt lat="44.289928" lon="8.321707"><ele>568.0</ele><time>2026-05-03T14:24:39.153Z</time></trkpt><trkpt lat="44.2900031" lon="8.3216542"><ele>568.0</ele><time>2026-05-03T14:24:40.153Z</time></trkpt><trkpt lat="44.290072" lon="8.3215728"><ele>568.0</ele><time>2026-05-03T14:24:41.153Z</time></trkpt><trkpt lat="44.2901392" lon="8.3214691"><ele>568.0</ele><time>2026-05-03T14:24:42.153Z</time></trkpt><trkpt lat="44.2902098" lon="8.3213859"><ele>567.0</ele><time>2026-05-03T14:24:43.153Z</time></trkpt><trkpt lat="44.2902837" lon="8.3213129"><ele>566.0</ele><time>2026-05-03T14:24:44.153Z</time></trkpt><trkpt lat="44.2903546" lon="8.3212575"><ele>565.0</ele><time>2026-05-03T14:24:45.153Z</time></trkpt><trkpt lat="44.290435" lon="8.3212207"><ele>564.0</ele><time>2026-05-03T14:24:46.153Z</time></trkpt><trkpt lat="44.2905257" lon="8.3212061"><ele>563.0</ele><time>2026-05-03T14:24:47.154Z</time></trkpt><trkpt lat="44.2906158" lon="8.3212308"><ele>562.0</ele><time>2026-05-03T14:24:48.153Z</time></trkpt><trkpt lat="44.290692" lon="8.3212666"><ele>562.0</ele><time>2026-05-03T14:24:49.154Z</time></trkpt><trkpt lat="44.2907607" lon="8.3213321"><ele>562.0</ele><time>2026-05-03T14:24:50.153Z</time></trkpt><trkpt lat="44.2908248" lon="8.3214087"><ele>562.0</ele><time>2026-05-03T14:24:51.153Z</time></trkpt><trkpt lat="44.2908828" lon="8.3214865"><ele>562.0</ele><time>2026-05-03T14:24:52.153Z</time></trkpt><trkpt lat="44.2909353" lon="8.3215464"><ele>562.0</ele><time>2026-05-03T14:24:53.154Z</time></trkpt><trkpt lat="44.2909877" lon="8.3216187"><ele>562.0</ele><time>2026-05-03T14:24:55.154Z</time></trkpt><trkpt lat="44.2910449" lon="8.3216657"><ele>562.0</ele><time>2026-05-03T14:29:13.154Z</time></trkpt><trkpt lat="44.2909621" lon="8.3215671"><ele>562.0</ele><time>2026-05-03T14:29:17.153Z</time></trkpt><trkpt lat="44.2907571" lon="8.3213777"><ele>562.0</ele><time>2026-05-03T14:29:21.061Z</time></trkpt><trkpt lat="44.2906657" lon="8.3213179"><ele>562.0</ele><time>2026-05-03T14:29:22.154Z</time></trkpt><trkpt lat="44.2905952" lon="8.3212961"><ele>562.0</ele><time>2026-05-03T14:29:23.153Z</time></trkpt><trkpt lat="44.2904807" lon="8.3212708"><ele>562.0</ele><time>2026-05-03T14:29:25.154Z</time></trkpt><trkpt lat="44.2904055" lon="8.321287"><ele>562.0</ele><time>2026-05-03T14:29:26.154Z</time></trkpt><trkpt lat="44.2903099" lon="8.3213299"><ele>562.0</ele><time>2026-05-03T14:29:28.153Z</time></trkpt><trkpt lat="44.2903918" lon="8.3212162"><ele>562.0</ele><time>2026-05-03T14:29:43.154Z</time></trkpt><trkpt lat="44.290474" lon="8.3211923"><ele>562.0</ele><time>2026-05-03T14:29:44.153Z</time></trkpt><trkpt lat="44.290557" lon="8.3211877"><ele>562.0</ele><time>2026-05-03T14:29:45.153Z</time></trkpt><trkpt lat="44.2906403" lon="8.3212124"><ele>562.0</ele><time>2026-05-03T14:29:46.153Z</time></trkpt><trkpt lat="44.2907176" lon="8.3212765"><ele>562.0</ele><time>2026-05-03T14:29:47.154Z</time></trkpt><trkpt lat="44.290808" lon="8.32138"><ele>561.6</ele><time>2026-05-03T14:29:48.154Z</time></trkpt><trkpt lat="44.2908914" lon="8.3214789"><ele>561.2</ele><time>2026-05-03T14:29:49.153Z</time></trkpt><trkpt lat="44.2909651" lon="8.3215732"><ele>560.8</ele><time>2026-05-03T14:29:50.153Z</time></trkpt><trkpt lat="44.2910212" lon="8.3216296"><ele>560.4</ele><time>2026-05-03T14:29:51.153Z</time></trkpt><trkpt lat="44.2910827" lon="8.3216616"><ele>560.0</ele><time>2026-05-03T14:29:52.153Z</time></trkpt><trkpt lat="44.2912152" lon="8.3217098"><ele>560.0</ele><time>2026-05-03T14:29:54.153Z</time></trkpt><trkpt lat="44.2913248" lon="8.3217308"><ele>560.0</ele><time>2026-05-03T14:29:55.153Z</time></trkpt><trkpt lat="44.2914362" lon="8.3217742"><ele>560.0</ele><time>2026-05-03T14:29:56.154Z</time></trkpt><trkpt lat="44.2915245" lon="8.3218129"><ele>560.0</ele><time>2026-05-03T14:29:57.155Z</time></trkpt><trkpt lat="44.2916138" lon="8.321847"><ele>560.0</ele><time>2026-05-03T14:29:59.153Z</time></trkpt><trkpt lat="44.2915512" lon="8.3218575"><ele>560.0</ele><time>2026-05-03T14:30:06.153Z</time></trkpt><trkpt lat="44.2914727" lon="8.3217969"><ele>560.0</ele><time>2026-05-03T14:30:08.153Z</time></trkpt><trkpt lat="44.2913845" lon="8.3217456"><ele>560.0</ele><time>2026-05-03T14:30:10.153Z</time></trkpt><trkpt lat="44.2913088" lon="8.3217034"><ele>560.0</ele><time>2026-05-03T14:30:12.155Z</time></trkpt><trkpt lat="44.2912461" lon="8.321683"><ele>560.0</ele><time>2026-05-03T14:30:14.154Z</time></trkpt><trkpt lat="44.2911789" lon="8.3216725"><ele>560.0</ele><time>2026-05-03T14:30:16.153Z</time></trkpt><trkpt lat="44.2911106" lon="8.3216483"><ele>560.0</ele><time>2026-05-03T14:30:18.153Z</time></trkpt><trkpt lat="44.2910205" lon="8.3216445"><ele>560.0</ele><time>2026-05-03T14:30:21.153Z</time></trkpt><trkpt lat="44.2911007" lon="8.3216631"><ele>560.0</ele><time>2026-05-03T14:30:28.153Z</time></trkpt><trkpt lat="44.2911911" lon="8.3216907"><ele>560.0</ele><time>2026-05-03T14:30:31.153Z</time></trkpt><trkpt lat="44.2913218" lon="8.321694"><ele>560.0</ele><time>2026-05-03T14:30:34.153Z</time></trkpt><trkpt lat="44.2914033" lon="8.3217219"><ele>559.2</ele><time>2026-05-03T14:30:37.153Z</time></trkpt><trkpt lat="44.2914859" lon="8.3217472"><ele>558.4</ele><time>2026-05-03T14:36:01.153Z</time></trkpt><trkpt lat="44.2916059" lon="8.3218114"><ele>557.6</ele><time>2026-05-03T14:36:03.153Z</time></trkpt><trkpt lat="44.2917065" lon="8.3218619"><ele>556.8</ele><time>2026-05-03T14:36:05.153Z</time></trkpt><trkpt lat="44.2917651" lon="8.3219053"><ele>556.0</ele><time>2026-05-03T14:36:08.153Z</time></trkpt><trkpt lat="44.2918274" lon="8.3219526"><ele>556.0</ele><time>2026-05-03T14:36:12.154Z</time></trkpt><trkpt lat="44.2918888" lon="8.322006"><ele>556.0</ele><time>2026-05-03T14:38:19.153Z</time></trkpt><trkpt lat="44.2920051" lon="8.3220987"><ele>556.0</ele><time>2026-05-03T14:38:21.153Z</time></trkpt><trkpt lat="44.2920681" lon="8.3221447"><ele>556.0</ele><time>2026-05-03T14:38:22.154Z</time></trkpt><trkpt lat="44.2921418" lon="8.3221881"><ele>556.0</ele><time>2026-05-03T14:38:23.153Z</time></trkpt><trkpt lat="44.2922177" lon="8.322228"><ele>556.0</ele><time>2026-05-03T14:38:24.154Z</time></trkpt><trkpt lat="44.2922999" lon="8.3222681"><ele>555.5</ele><time>2026-05-03T14:38:25.153Z</time></trkpt><trkpt lat="44.2923766" lon="8.3223096"><ele>555.0</ele><time>2026-05-03T14:38:26.154Z</time></trkpt><trkpt lat="44.2924516" lon="8.3223341"><ele>554.5</ele><time>2026-05-03T14:38:27.153Z</time></trkpt><trkpt lat="44.2925373" lon="8.3223452"><ele>554.0</ele><time>2026-05-03T14:38:28.153Z</time></trkpt><trkpt lat="44.292626" lon="8.3223496"><ele>553.5</ele><time>2026-05-03T14:38:29.154Z</time></trkpt><trkpt lat="44.2927152" lon="8.322341"><ele>553.0</ele><time>2026-05-03T14:38:30.153Z</time></trkpt><trkpt lat="44.2928071" lon="8.3223271"><ele>553.0</ele><time>2026-05-03T14:38:31.153Z</time></trkpt><trkpt lat="44.2929008" lon="8.3223027"><ele>553.0</ele><time>2026-05-03T14:38:32.153Z</time></trkpt><trkpt lat="44.2930012" lon="8.3222769"><ele>553.0</ele><time>2026-05-03T14:38:33.154Z</time></trkpt><trkpt lat="44.2931088" lon="8.3222522"><ele>553.0</ele><time>2026-05-03T14:38:34.153Z</time></trkpt><trkpt lat="44.2932116" lon="8.3222239"><ele>553.0</ele><time>2026-05-03T14:38:35.153Z</time></trkpt><trkpt lat="44.2933124" lon="8.322206"><ele>557.4</ele><time>2026-05-03T14:38:36.153Z</time></trkpt><trkpt lat="44.2934248" lon="8.3221824"><ele>561.8</ele><time>2026-05-03T14:38:37.154Z</time></trkpt><trkpt lat="44.2935341" lon="8.3221597"><ele>566.2</ele><time>2026-05-03T14:38:38.153Z</time></trkpt><trkpt lat="44.2936394" lon="8.3221221"><ele>570.6</ele><time>2026-05-03T14:38:39.153Z</time></trkpt><trkpt lat="44.2937423" lon="8.3220775"><ele>575.0</ele><time>2026-05-03T14:38:40.154Z</time></trkpt><trkpt lat="44.2938378" lon="8.322039"><ele>571.6</ele><time>2026-05-03T14:38:41.153Z</time></trkpt><trkpt lat="44.2939322" lon="8.3220244"><ele>568.2</ele><time>2026-05-03T14:38:42.153Z</time></trkpt><trkpt lat="44.2940306" lon="8.3220104"><ele>564.8</ele><time>2026-05-03T14:38:43.153Z</time></trkpt><trkpt lat="44.2941233" lon="8.321999"><ele>561.4</ele><time>2026-05-03T14:38:44.153Z</time></trkpt><trkpt lat="44.294212" lon="8.3220001"><ele>558.0</ele><time>2026-05-03T14:38:45.154Z</time></trkpt><trkpt lat="44.2942982" lon="8.3219979"><ele>558.0</ele><time>2026-05-03T14:38:46.153Z</time></trkpt><trkpt lat="44.2943829" lon="8.3219909"><ele>558.0</ele><time>2026-05-03T14:38:47.153Z</time></trkpt><trkpt lat="44.2944757" lon="8.3219793"><ele>558.0</ele><time>2026-05-03T14:38:48.154Z</time></trkpt><trkpt lat="44.2945562" lon="8.3219451"><ele>558.0</ele><time>2026-05-03T14:38:49.153Z</time></trkpt><trkpt lat="44.2946464" lon="8.3219077"><ele>558.0</ele><time>2026-05-03T14:38:50.154Z</time></trkpt><trkpt lat="44.2947289" lon="8.3218709"><ele>558.0</ele><time>2026-05-03T14:38:51.153Z</time></trkpt><trkpt lat="44.2948171" lon="8.321847"><ele>558.3333333333334</ele><time>2026-05-03T14:38:52.153Z</time></trkpt><trkpt lat="44.2949026" lon="8.321839"><ele>558.6666666666666</ele><time>2026-05-03T14:38:53.153Z</time></trkpt><trkpt lat="44.2949778" lon="8.32186"><ele>559.0</ele><time>2026-05-03T14:38:54.154Z</time></trkpt><trkpt lat="44.2950549" lon="8.3218967"><ele>559.3333333333333</ele><time>2026-05-03T14:38:55.154Z</time></trkpt><trkpt lat="44.2951149" lon="8.3219327"><ele>559.6666666666666</ele><time>2026-05-03T14:38:56.153Z</time></trkpt><trkpt lat="44.2951601" lon="8.3220064"><ele>560.0</ele><time>2026-05-03T14:38:57.153Z</time></trkpt><trkpt lat="44.2952074" lon="8.3220997"><ele>560.0</ele><time>2026-05-03T14:38:58.153Z</time></trkpt><trkpt lat="44.2952611" lon="8.322184"><ele>560.0</ele><time>2026-05-03T14:38:59.153Z</time></trkpt><trkpt lat="44.2953068" lon="8.3222763"><ele>560.0</ele><time>2026-05-03T14:39:00.153Z</time></trkpt><trkpt lat="44.2953552" lon="8.322384"><ele>560.0</ele><time>2026-05-03T14:39:01.153Z</time></trkpt><trkpt lat="44.29541" lon="8.3224852"><ele>560.0</ele><time>2026-05-03T14:39:02.153Z</time></trkpt><trkpt lat="44.2954738" lon="8.3225478"><ele>560.0</ele><time>2026-05-03T14:39:03.153Z</time></trkpt><trkpt lat="44.2955554" lon="8.3226204"><ele>559.6666666666666</ele><time>2026-05-03T14:39:04.153Z</time></trkpt><trkpt lat="44.2956255" lon="8.3226833"><ele>559.3333333333333</ele><time>2026-05-03T14:39:05.154Z</time></trkpt><trkpt lat="44.2956898" lon="8.3227346"><ele>559.0</ele><time>2026-05-03T14:39:06.153Z</time></trkpt><trkpt lat="44.2957603" lon="8.3227487"><ele>558.6666666666666</ele><time>2026-05-03T14:39:07.153Z</time></trkpt><trkpt lat="44.295844" lon="8.3227449"><ele>558.3333333333334</ele><time>2026-05-03T14:39:08.153Z</time></trkpt><trkpt lat="44.2959349" lon="8.3227286"><ele>558.0</ele><time>2026-05-03T14:39:09.153Z</time></trkpt><trkpt lat="44.296015" lon="8.3227015"><ele>558.0</ele><time>2026-05-03T14:39:10.153Z</time></trkpt><trkpt lat="44.2961009" lon="8.3226613"><ele>558.0</ele><time>2026-05-03T14:39:11.153Z</time></trkpt><trkpt lat="44.2961588" lon="8.3225581"><ele>558.0</ele><time>2026-05-03T14:39:12.153Z</time></trkpt><trkpt lat="44.2962151" lon="8.3224495"><ele>558.0</ele><time>2026-05-03T14:39:13.154Z</time></trkpt><trkpt lat="44.2962636" lon="8.3223272"><ele>558.0</ele><time>2026-05-03T14:39:14.154Z</time></trkpt><trkpt lat="44.296317" lon="8.322219"><ele>556.4</ele><time>2026-05-03T14:39:15.154Z</time></trkpt><trkpt lat="44.296367" lon="8.3221563"><ele>554.8</ele><time>2026-05-03T14:39:16.153Z</time></trkpt><trkpt lat="44.296482" lon="8.3221149"><ele>553.2</ele><time>2026-05-03T14:39:18.153Z</time></trkpt><trkpt lat="44.2965832" lon="8.3221602"><ele>551.6</ele><time>2026-05-03T14:39:20.153Z</time></trkpt><trkpt lat="44.2966818" lon="8.3222902"><ele>550.0</ele><time>2026-05-03T14:39:22.153Z</time></trkpt><trkpt lat="44.2967289" lon="8.3223872"><ele>550.0</ele><time>2026-05-03T14:39:23.154Z</time></trkpt><trkpt lat="44.2967856" lon="8.3224819"><ele>550.0</ele><time>2026-05-03T14:39:24.153Z</time></trkpt><trkpt lat="44.2968264" lon="8.3225726"><ele>550.0</ele><time>2026-05-03T14:39:25.153Z</time></trkpt><trkpt lat="44.2968729" lon="8.3226392"><ele>550.0</ele><time>2026-05-03T14:39:26.153Z</time></trkpt><trkpt lat="44.2969234" lon="8.3227001"><ele>550.0</ele><time>2026-05-03T14:39:27.153Z</time></trkpt><trkpt lat="44.2970161" lon="8.3227744"><ele>550.0</ele><time>2026-05-03T14:39:29.153Z</time></trkpt><trkpt lat="44.2971144" lon="8.3227436"><ele>550.0</ele><time>2026-05-03T14:39:31.153Z</time></trkpt><trkpt lat="44.2971854" lon="8.3227015"><ele>550.0</ele><time>2026-05-03T14:39:32.153Z</time></trkpt><trkpt lat="44.2972581" lon="8.3226892"><ele>550.0</ele><time>2026-05-03T14:39:33.154Z</time></trkpt><trkpt lat="44.2973575" lon="8.3227881"><ele>550.0</ele><time>2026-05-03T14:39:35.153Z</time></trkpt><trkpt lat="44.2973908" lon="8.3229879"><ele>550.0</ele><time>2026-05-03T14:39:37.153Z</time></trkpt><trkpt lat="44.2974117" lon="8.3231171"><ele>549.6666666666667</ele><time>2026-05-03T14:39:38.154Z</time></trkpt><trkpt lat="44.297453" lon="8.3232375"><ele>549.3333333333334</ele><time>2026-05-03T14:39:39.153Z</time></trkpt><trkpt lat="44.2974825" lon="8.3233564"><ele>549.0</ele><time>2026-05-03T14:39:40.153Z</time></trkpt><trkpt lat="44.2975122" lon="8.3234662"><ele>548.6666666666666</ele><time>2026-05-03T14:39:41.154Z</time></trkpt><trkpt lat="44.297545" lon="8.3235634"><ele>548.3333333333333</ele><time>2026-05-03T14:39:42.153Z</time></trkpt><trkpt lat="44.2976238" lon="8.3236405"><ele>548.0</ele><time>2026-05-03T14:39:43.154Z</time></trkpt><trkpt lat="44.2976895" lon="8.323723"><ele>548.0</ele><time>2026-05-03T14:39:44.153Z</time></trkpt><trkpt lat="44.2978024" lon="8.3237491"><ele>548.0</ele><time>2026-05-03T14:39:45.154Z</time></trkpt><trkpt lat="44.2978814" lon="8.3238076"><ele>548.0</ele><time>2026-05-03T14:39:46.154Z</time></trkpt><trkpt lat="44.2979825" lon="8.3238143"><ele>548.0</ele><time>2026-05-03T14:39:47.153Z</time></trkpt><trkpt lat="44.2980714" lon="8.3238333"><ele>548.0</ele><time>2026-05-03T14:39:48.153Z</time></trkpt><trkpt lat="44.2981835" lon="8.3238491"><ele>545.1999999999999</ele><time>2026-05-03T14:39:49.153Z</time></trkpt><trkpt lat="44.298292" lon="8.3238485"><ele>542.4</ele><time>2026-05-03T14:39:50.153Z</time></trkpt><trkpt lat="44.298398" lon="8.3238718"><ele>539.5999999999999</ele><time>2026-05-03T14:39:51.154Z</time></trkpt><trkpt lat="44.2984968" lon="8.3239149"><ele>536.8</ele><time>2026-05-03T14:39:52.153Z</time></trkpt><trkpt lat="44.2985888" lon="8.3239575"><ele>534.0</ele><time>2026-05-03T14:39:53.153Z</time></trkpt><trkpt lat="44.2986843" lon="8.323988"><ele>534.0</ele><time>2026-05-03T14:39:54.154Z</time></trkpt><trkpt lat="44.2987843" lon="8.324009"><ele>534.0</ele><time>2026-05-03T14:39:55.153Z</time></trkpt><trkpt lat="44.2988882" lon="8.3240272"><ele>534.0</ele><time>2026-05-03T14:39:56.153Z</time></trkpt><trkpt lat="44.2989815" lon="8.32405"><ele>534.0</ele><time>2026-05-03T14:39:57.153Z</time></trkpt><trkpt lat="44.2990845" lon="8.3241069"><ele>534.0</ele><time>2026-05-03T14:39:58.153Z</time></trkpt><trkpt lat="44.2991803" lon="8.3241469"><ele>534.0</ele><time>2026-05-03T14:39:59.153Z</time></trkpt><trkpt lat="44.2992552" lon="8.3242439"><ele>534.0</ele><time>2026-05-03T14:40:00.154Z</time></trkpt><trkpt lat="44.2993303" lon="8.324321"><ele>534.0</ele><time>2026-05-03T14:40:01.153Z</time></trkpt><trkpt lat="44.2993939" lon="8.3243865"><ele>534.0</ele><time>2026-05-03T14:40:02.153Z</time></trkpt><trkpt lat="44.2994724" lon="8.3244354"><ele>534.0</ele><time>2026-05-03T14:40:03.154Z</time></trkpt><trkpt lat="44.2995492" lon="8.3244285"><ele>534.0</ele><time>2026-05-03T14:40:04.154Z</time></trkpt><trkpt lat="44.2996322" lon="8.3244207"><ele>534.0</ele><time>2026-05-03T14:40:05.153Z</time></trkpt><trkpt lat="44.2997082" lon="8.3243932"><ele>534.0</ele><time>2026-05-03T14:40:06.153Z</time></trkpt><trkpt lat="44.2997751" lon="8.3243301"><ele>534.0</ele><time>2026-05-03T14:40:07.153Z</time></trkpt><trkpt lat="44.2998352" lon="8.3242596"><ele>534.0</ele><time>2026-05-03T14:40:08.153Z</time></trkpt><trkpt lat="44.2998874" lon="8.3241866"><ele>534.0</ele><time>2026-05-03T14:40:09.153Z</time></trkpt><trkpt lat="44.2999629" lon="8.3241032"><ele>534.0</ele><time>2026-05-03T14:40:11.153Z</time></trkpt><trkpt lat="44.300042" lon="8.3241494"><ele>532.8571428571429</ele><time>2026-05-03T14:40:13.153Z</time></trkpt><trkpt lat="44.3000644" lon="8.3242321"><ele>531.7142857142858</ele><time>2026-05-03T14:40:14.153Z</time></trkpt><trkpt lat="44.3000744" lon="8.3243333"><ele>530.5714285714286</ele><time>2026-05-03T14:40:15.153Z</time></trkpt><trkpt lat="44.3000842" lon="8.3244226"><ele>529.4285714285714</ele><time>2026-05-03T14:40:16.153Z</time></trkpt><trkpt lat="44.3000609" lon="8.324517"><ele>528.2857142857142</ele><time>2026-05-03T14:40:17.153Z</time></trkpt><trkpt lat="44.3000267" lon="8.3246115"><ele>527.1428571428571</ele><time>2026-05-03T14:40:18.153Z</time></trkpt><trkpt lat="44.3000037" lon="8.3246985"><ele>526.0</ele><time>2026-05-03T14:40:19.153Z</time></trkpt><trkpt lat="44.3000166" lon="8.3248053"><ele>526.0</ele><time>2026-05-03T14:40:20.153Z</time></trkpt><trkpt lat="44.3000301" lon="8.3249105"><ele>526.0</ele><time>2026-05-03T14:40:21.154Z</time></trkpt><trkpt lat="44.3000701" lon="8.3250011"><ele>526.0</ele><time>2026-05-03T14:40:22.153Z</time></trkpt><trkpt lat="44.3001786" lon="8.3251274"><ele>526.0</ele><time>2026-05-03T14:40:23.153Z</time></trkpt><trkpt lat="44.3002354" lon="8.3252455"><ele>526.0</ele><time>2026-05-03T14:40:24.153Z</time></trkpt><trkpt lat="44.3002917" lon="8.3253546"><ele>526.0</ele><time>2026-05-03T14:40:25.154Z</time></trkpt><trkpt lat="44.300327" lon="8.325451"><ele>526.0</ele><time>2026-05-03T14:40:26.153Z</time></trkpt><trkpt lat="44.3003472" lon="8.3255527"><ele>526.0</ele><time>2026-05-03T14:40:27.153Z</time></trkpt><trkpt lat="44.3003578" lon="8.3256451"><ele>526.0</ele><time>2026-05-03T14:40:28.153Z</time></trkpt><trkpt lat="44.3003555" lon="8.3257567"><ele>526.0</ele><time>2026-05-03T14:40:29.153Z</time></trkpt><trkpt lat="44.3003658" lon="8.3258478"><ele>526.0</ele><time>2026-05-03T14:40:30.153Z</time></trkpt><trkpt lat="44.3004151" lon="8.325982"><ele>527.6</ele><time>2026-05-03T14:40:32.153Z</time></trkpt><trkpt lat="44.3004934" lon="8.3259647"><ele>529.2</ele><time>2026-05-03T14:40:33.153Z</time></trkpt><trkpt lat="44.3005573" lon="8.3259885"><ele>530.8</ele><time>2026-05-03T14:40:34.153Z</time></trkpt><trkpt lat="44.3006627" lon="8.3260232"><ele>532.4</ele><time>2026-05-03T14:40:35.153Z</time></trkpt><trkpt lat="44.3007533" lon="8.3260672"><ele>534.0</ele><time>2026-05-03T14:40:36.153Z</time></trkpt><trkpt lat="44.3008456" lon="8.3261229"><ele>534.0</ele><time>2026-05-03T14:40:37.153Z</time></trkpt><trkpt lat="44.3009572" lon="8.3261617"><ele>534.0</ele><time>2026-05-03T14:40:38.154Z</time></trkpt><trkpt lat="44.301053" lon="8.3262265"><ele>534.0</ele><time>2026-05-03T14:40:39.154Z</time></trkpt><trkpt lat="44.3011494" lon="8.3262867"><ele>534.0</ele><time>2026-05-03T14:40:40.153Z</time></trkpt><trkpt lat="44.3012308" lon="8.3263416"><ele>534.0</ele><time>2026-05-03T14:40:41.153Z</time></trkpt><trkpt lat="44.3012934" lon="8.326381"><ele>533.3333333333334</ele><time>2026-05-03T14:40:42.153Z</time></trkpt><trkpt lat="44.3013714" lon="8.3263962"><ele>532.6666666666666</ele><time>2026-05-03T14:40:43.153Z</time></trkpt><trkpt lat="44.3014353" lon="8.326374"><ele>532.0</ele><time>2026-05-03T14:40:44.153Z</time></trkpt><trkpt lat="44.3015124" lon="8.3263705"><ele>531.3333333333333</ele><time>2026-05-03T14:40:45.153Z</time></trkpt><trkpt lat="44.3016162" lon="8.3263058"><ele>530.6666666666666</ele><time>2026-05-03T14:40:46.154Z</time></trkpt><trkpt lat="44.3016996" lon="8.3262638"><ele>530.0</ele><time>2026-05-03T14:40:47.154Z</time></trkpt><trkpt lat="44.3017954" lon="8.3262039"><ele>530.0</ele><time>2026-05-03T14:40:48.153Z</time></trkpt><trkpt lat="44.3018762" lon="8.3261375"><ele>530.0</ele><time>2026-05-03T14:40:49.153Z</time></trkpt><trkpt lat="44.3019695" lon="8.3260606"><ele>530.0</ele><time>2026-05-03T14:40:50.153Z</time></trkpt><trkpt lat="44.3020426" lon="8.3260067"><ele>530.0</ele><time>2026-05-03T14:40:51.153Z</time></trkpt><trkpt lat="44.3021161" lon="8.3259605"><ele>530.0</ele><time>2026-05-03T14:40:52.154Z</time></trkpt><trkpt lat="44.3021989" lon="8.3259369"><ele>529.5</ele><time>2026-05-03T14:40:53.153Z</time></trkpt><trkpt lat="44.3022815" lon="8.3259226"><ele>529.0</ele><time>2026-05-03T14:40:54.153Z</time></trkpt><trkpt lat="44.3023607" lon="8.3259201"><ele>528.5</ele><time>2026-05-03T14:40:55.153Z</time></trkpt><trkpt lat="44.3024337" lon="8.3259401"><ele>528.0</ele><time>2026-05-03T14:40:56.153Z</time></trkpt><trkpt lat="44.3025012" lon="8.325978"><ele>527.5</ele><time>2026-05-03T14:40:57.154Z</time></trkpt><trkpt lat="44.3025966" lon="8.3260528"><ele>527.0</ele><time>2026-05-03T14:40:58.153Z</time></trkpt><trkpt lat="44.3026711" lon="8.3260828"><ele>527.0</ele><time>2026-05-03T14:40:59.154Z</time></trkpt><trkpt lat="44.3027565" lon="8.3261371"><ele>527.0</ele><time>2026-05-03T14:41:00.153Z</time></trkpt><trkpt lat="44.3028435" lon="8.3262"><ele>527.0</ele><time>2026-05-03T14:41:01.153Z</time></trkpt><trkpt lat="44.3029281" lon="8.3262509"><ele>527.0</ele><time>2026-05-03T14:41:02.153Z</time></trkpt><trkpt lat="44.3029963" lon="8.3262976"><ele>527.0</ele><time>2026-05-03T14:41:03.153Z</time></trkpt><trkpt lat="44.3030782" lon="8.3263273"><ele>527.0</ele><time>2026-05-03T14:41:04.153Z</time></trkpt><trkpt lat="44.3031705" lon="8.3263346"><ele>527.0</ele><time>2026-05-03T14:41:05.153Z</time></trkpt><trkpt lat="44.3032683" lon="8.3263421"><ele>527.0</ele><time>2026-05-03T14:41:06.153Z</time></trkpt><trkpt lat="44.3033676" lon="8.3263172"><ele>527.0</ele><time>2026-05-03T14:41:07.153Z</time></trkpt><trkpt lat="44.3034541" lon="8.3262912"><ele>527.0</ele><time>2026-05-03T14:41:08.154Z</time></trkpt><trkpt lat="44.3035508" lon="8.3262034"><ele>527.0</ele><time>2026-05-03T14:41:09.153Z</time></trkpt><trkpt lat="44.3036486" lon="8.3261425"><ele>527.0</ele><time>2026-05-03T14:41:10.153Z</time></trkpt><trkpt lat="44.3037138" lon="8.3260714"><ele>527.0</ele><time>2026-05-03T14:41:11.154Z</time></trkpt><trkpt lat="44.3037986" lon="8.3260177"><ele>527.0</ele><time>2026-05-03T14:41:12.153Z</time></trkpt><trkpt lat="44.3038771" lon="8.326002"><ele>527.0</ele><time>2026-05-03T14:41:13.154Z</time></trkpt><trkpt lat="44.30395" lon="8.3259747"><ele>527.0</ele><time>2026-05-03T14:41:14.153Z</time></trkpt><trkpt lat="44.3040363" lon="8.3259159"><ele>527.0</ele><time>2026-05-03T14:41:15.153Z</time></trkpt><trkpt lat="44.304123" lon="8.3258492"><ele>524.6666666666666</ele><time>2026-05-03T14:41:16.153Z</time></trkpt><trkpt lat="44.304202" lon="8.3257893"><ele>522.3333333333333</ele><time>2026-05-03T14:41:17.153Z</time></trkpt><trkpt lat="44.304269" lon="8.325753"><ele>520.0</ele><time>2026-05-03T14:41:18.154Z</time></trkpt><trkpt lat="44.3043324" lon="8.3257065"><ele>517.6666666666666</ele><time>2026-05-03T14:41:19.153Z</time></trkpt><trkpt lat="44.3043983" lon="8.3256863"><ele>515.3333333333334</ele><time>2026-05-03T14:41:20.153Z</time></trkpt><trkpt lat="44.3044883" lon="8.3256887"><ele>513.0</ele><time>2026-05-03T14:41:21.153Z</time></trkpt><trkpt lat="44.3045871" lon="8.3257161"><ele>513.0</ele><time>2026-05-03T14:41:22.154Z</time></trkpt><trkpt lat="44.3046624" lon="8.3257395"><ele>513.0</ele><time>2026-05-03T14:41:23.153Z</time></trkpt><trkpt lat="44.3047549" lon="8.3257707"><ele>513.0</ele><time>2026-05-03T14:41:24.153Z</time></trkpt><trkpt lat="44.3048279" lon="8.3258011"><ele>513.0</ele><time>2026-05-03T14:41:25.153Z</time></trkpt><trkpt lat="44.3049266" lon="8.3258467"><ele>513.0</ele><time>2026-05-03T14:41:26.153Z</time></trkpt><trkpt lat="44.305042" lon="8.3258416"><ele>511.2</ele><time>2026-05-03T14:41:27.153Z</time></trkpt><trkpt lat="44.3051512" lon="8.3258374"><ele>509.4</ele><time>2026-05-03T14:41:28.153Z</time></trkpt><trkpt lat="44.3052482" lon="8.3258085"><ele>507.59999999999997</ele><time>2026-05-03T14:41:29.154Z</time></trkpt><trkpt lat="44.3053552" lon="8.3257859"><ele>505.79999999999995</ele><time>2026-05-03T14:41:30.153Z</time></trkpt><trkpt lat="44.3054372" lon="8.3256687"><ele>504.0</ele><time>2026-05-03T14:41:31.153Z</time></trkpt><trkpt lat="44.3055309" lon="8.3255913"><ele>503.0</ele><time>2026-05-03T14:41:32.153Z</time></trkpt><trkpt lat="44.3056155" lon="8.3255011"><ele>502.0</ele><time>2026-05-03T14:41:33.154Z</time></trkpt><trkpt lat="44.3057039" lon="8.325384"><ele>501.0</ele><time>2026-05-03T14:41:34.153Z</time></trkpt><trkpt lat="44.3057912" lon="8.3252788"><ele>500.0</ele><time>2026-05-03T14:41:35.153Z</time></trkpt><trkpt lat="44.3058698" lon="8.325156"><ele>500.0</ele><time>2026-05-03T14:41:36.154Z</time></trkpt><trkpt lat="44.3059422" lon="8.3250259"><ele>500.0</ele><time>2026-05-03T14:41:37.153Z</time></trkpt><trkpt lat="44.306007" lon="8.3248897"><ele>500.0</ele><time>2026-05-03T14:41:38.154Z</time></trkpt><trkpt lat="44.3060542" lon="8.3247758"><ele>500.0</ele><time>2026-05-03T14:41:39.153Z</time></trkpt><trkpt lat="44.3061114" lon="8.3246712"><ele>500.0</ele><time>2026-05-03T14:41:40.153Z</time></trkpt><trkpt lat="44.3061583" lon="8.3245554"><ele>499.99999999999994</ele><time>2026-05-03T14:41:41.153Z</time></trkpt><trkpt lat="44.3062122" lon="8.3244926"><ele>500.0</ele><time>2026-05-03T14:41:42.153Z</time></trkpt><trkpt lat="44.306282" lon="8.3244114"><ele>500.0</ele><time>2026-05-03T14:41:43.153Z</time></trkpt><trkpt lat="44.3063674" lon="8.3243705"><ele>500.0</ele><time>2026-05-03T14:41:44.154Z</time></trkpt><trkpt lat="44.3064589" lon="8.3243572"><ele>499.99999999999994</ele><time>2026-05-03T14:41:45.153Z</time></trkpt><trkpt lat="44.3065527" lon="8.3243769"><ele>500.0</ele><time>2026-05-03T14:41:46.153Z</time></trkpt><trkpt lat="44.3066518" lon="8.3244271"><ele>500.0</ele><time>2026-05-03T14:41:47.154Z</time></trkpt><trkpt lat="44.3067449" lon="8.3244655"><ele>500.0</ele><time>2026-05-03T14:41:48.153Z</time></trkpt><trkpt lat="44.3068397" lon="8.324496"><ele>500.0</ele><time>2026-05-03T14:41:49.153Z</time></trkpt><trkpt lat="44.3069313" lon="8.3245174"><ele>500.0</ele><time>2026-05-03T14:41:50.153Z</time></trkpt><trkpt lat="44.3070338" lon="8.3245179"><ele>500.0</ele><time>2026-05-03T14:41:51.153Z</time></trkpt><trkpt lat="44.3071293" lon="8.3244851"><ele>500.0</ele><time>2026-05-03T14:41:52.153Z</time></trkpt><trkpt lat="44.307234" lon="8.3244427"><ele>500.0</ele><time>2026-05-03T14:41:53.154Z</time></trkpt><trkpt lat="44.3073292" lon="8.3244128"><ele>500.0</ele><time>2026-05-03T14:41:54.153Z</time></trkpt><trkpt lat="44.3074307" lon="8.3243887"><ele>500.0</ele><time>2026-05-03T14:41:55.154Z</time></trkpt><trkpt lat="44.3075369" lon="8.3243783"><ele>500.0</ele><time>2026-05-03T14:41:56.153Z</time></trkpt><trkpt lat="44.3076231" lon="8.3243725"><ele>499.66666666666663</ele><time>2026-05-03T14:41:57.153Z</time></trkpt><trkpt lat="44.3077124" lon="8.3243851"><ele>499.3333333333333</ele><time>2026-05-03T14:41:58.153Z</time></trkpt><trkpt lat="44.3077999" lon="8.3244102"><ele>499.0</ele><time>2026-05-03T14:41:59.153Z</time></trkpt><trkpt lat="44.3078958" lon="8.3244389"><ele>498.66666666666663</ele><time>2026-05-03T14:42:00.154Z</time></trkpt><trkpt lat="44.3079602" lon="8.3244897"><ele>498.3333333333333</ele><time>2026-05-03T14:42:01.153Z</time></trkpt><trkpt lat="44.3080207" lon="8.3245396"><ele>498.0</ele><time>2026-05-03T14:42:02.153Z</time></trkpt><trkpt lat="44.308089" lon="8.3246398"><ele>494.2</ele><time>2026-05-03T14:42:04.153Z</time></trkpt><trkpt lat="44.3081603" lon="8.3247811"><ele>490.4</ele><time>2026-05-03T14:42:06.153Z</time></trkpt><trkpt lat="44.3082133" lon="8.3248607"><ele>486.59999999999997</ele><time>2026-05-03T14:42:07.153Z</time></trkpt><trkpt lat="44.3082824" lon="8.3249244"><ele>482.79999999999995</ele><time>2026-05-03T14:42:08.153Z</time></trkpt><trkpt lat="44.3083718" lon="8.3250162"><ele>479.0</ele><time>2026-05-03T14:42:09.153Z</time></trkpt><trkpt lat="44.3084412" lon="8.3251242"><ele>478.99999999999994</ele><time>2026-05-03T14:42:10.153Z</time></trkpt><trkpt lat="44.3084997" lon="8.3252395"><ele>479.0</ele><time>2026-05-03T14:42:11.153Z</time></trkpt><trkpt lat="44.3085602" lon="8.3253412"><ele>479.0</ele><time>2026-05-03T14:42:12.153Z</time></trkpt><trkpt lat="44.3086159" lon="8.3254358"><ele>479.0</ele><time>2026-05-03T14:42:13.153Z</time></trkpt><trkpt lat="44.3086378" lon="8.3255276"><ele>478.99999999999994</ele><time>2026-05-03T14:42:14.153Z</time></trkpt><trkpt lat="44.3086869" lon="8.3256157"><ele>479.0</ele><time>2026-05-03T14:42:15.154Z</time></trkpt><trkpt lat="44.3087896" lon="8.3257154"><ele>478.4</ele><time>2026-05-03T14:42:17.154Z</time></trkpt><trkpt lat="44.3088992" lon="8.325755"><ele>477.79999999999995</ele><time>2026-05-03T14:42:19.153Z</time></trkpt><trkpt lat="44.3090239" lon="8.3258028"><ele>477.20000000000005</ele><time>2026-05-03T14:42:21.154Z</time></trkpt><trkpt lat="44.3090843" lon="8.325834"><ele>476.6</ele><time>2026-05-03T14:42:22.153Z</time></trkpt><trkpt lat="44.3091939" lon="8.3258584"><ele>476.0</ele><time>2026-05-03T14:42:24.153Z</time></trkpt><trkpt lat="44.3092794" lon="8.3259079"><ele>476.0</ele><time>2026-05-03T14:42:26.154Z</time></trkpt><trkpt lat="44.309381" lon="8.3259224"><ele>476.0</ele><time>2026-05-03T14:42:28.153Z</time></trkpt><trkpt lat="44.3094791" lon="8.3259358"><ele>476.0</ele><time>2026-05-03T14:42:30.153Z</time></trkpt><trkpt lat="44.3095555" lon="8.3259124"><ele>476.0</ele><time>2026-05-03T14:42:32.153Z</time></trkpt><trkpt lat="44.309646" lon="8.3258214"><ele>476.0</ele><time>2026-05-03T14:42:35.153Z</time></trkpt><trkpt lat="44.3097284" lon="8.3257499"><ele>474.6</ele><time>2026-05-03T14:42:37.153Z</time></trkpt><trkpt lat="44.3098235" lon="8.3256264"><ele>473.20000000000005</ele><time>2026-05-03T14:42:39.153Z</time></trkpt><trkpt lat="44.3098881" lon="8.325526"><ele>471.79999999999995</ele><time>2026-05-03T14:42:40.153Z</time></trkpt><trkpt lat="44.3099468" lon="8.3254391"><ele>470.4</ele><time>2026-05-03T14:42:41.153Z</time></trkpt><trkpt lat="44.3100045" lon="8.3253677"><ele>469.0</ele><time>2026-05-03T14:42:42.153Z</time></trkpt><trkpt lat="44.3100648" lon="8.3252934"><ele>469.00000000000006</ele><time>2026-05-03T14:42:43.153Z</time></trkpt><trkpt lat="44.310128" lon="8.3252891"><ele>469.0</ele><time>2026-05-03T14:42:44.153Z</time></trkpt><trkpt lat="44.3102382" lon="8.3253029"><ele>469.0</ele><time>2026-05-03T14:42:46.153Z</time></trkpt><trkpt lat="44.3103005" lon="8.3253574"><ele>469.0</ele><time>2026-05-03T14:42:47.153Z</time></trkpt><trkpt lat="44.3103689" lon="8.3254582"><ele>469.00000000000006</ele><time>2026-05-03T14:42:48.153Z</time></trkpt><trkpt lat="44.3104416" lon="8.3255433"><ele>469.0</ele><time>2026-05-03T14:42:49.153Z</time></trkpt><trkpt lat="44.3105159" lon="8.3256371"><ele>467.0</ele><time>2026-05-03T14:42:50.154Z</time></trkpt><trkpt lat="44.3105937" lon="8.3257332"><ele>465.0</ele><time>2026-05-03T14:42:51.153Z</time></trkpt><trkpt lat="44.3106802" lon="8.3258385"><ele>463.0</ele><time>2026-05-03T14:42:52.153Z</time></trkpt><trkpt lat="44.3107664" lon="8.3259459"><ele>461.0</ele><time>2026-05-03T14:42:53.154Z</time></trkpt><trkpt lat="44.3108455" lon="8.3260509"><ele>459.0</ele><time>2026-05-03T14:42:54.153Z</time></trkpt><trkpt lat="44.310921" lon="8.3261578"><ele>459.0</ele><time>2026-05-03T14:42:55.153Z</time></trkpt><trkpt lat="44.3110014" lon="8.326264"><ele>459.0</ele><time>2026-05-03T14:42:56.153Z</time></trkpt><trkpt lat="44.3110778" lon="8.3263504"><ele>459.0</ele><time>2026-05-03T14:42:57.153Z</time></trkpt><trkpt lat="44.3111669" lon="8.3264287"><ele>459.0</ele><time>2026-05-03T14:42:58.153Z</time></trkpt><trkpt lat="44.3112664" lon="8.3264793"><ele>459.0</ele><time>2026-05-03T14:42:59.154Z</time></trkpt><trkpt lat="44.3113701" lon="8.326511"><ele>458.0</ele><time>2026-05-03T14:43:00.153Z</time></trkpt><trkpt lat="44.3114877" lon="8.3265246"><ele>457.0</ele><time>2026-05-03T14:43:01.153Z</time></trkpt><trkpt lat="44.3115962" lon="8.3265317"><ele>456.0</ele><time>2026-05-03T14:43:02.153Z</time></trkpt><trkpt lat="44.3117183" lon="8.3265423"><ele>455.0</ele><time>2026-05-03T14:43:03.153Z</time></trkpt><trkpt lat="44.3118395" lon="8.3265543"><ele>455.0</ele><time>2026-05-03T14:43:04.153Z</time></trkpt><trkpt lat="44.3119585" lon="8.3265759"><ele>455.0</ele><time>2026-05-03T14:43:05.153Z</time></trkpt><trkpt lat="44.3120719" lon="8.3266002"><ele>455.0</ele><time>2026-05-03T14:43:06.153Z</time></trkpt><trkpt lat="44.3121913" lon="8.326614"><ele>455.0</ele><time>2026-05-03T14:43:07.153Z</time></trkpt><trkpt lat="44.3123179" lon="8.326632"><ele>454.25</ele><time>2026-05-03T14:43:08.153Z</time></trkpt><trkpt lat="44.3124445" lon="8.3266448"><ele>453.5</ele><time>2026-05-03T14:43:09.153Z</time></trkpt><trkpt lat="44.3125501" lon="8.3266627"><ele>452.75</ele><time>2026-05-03T14:43:10.153Z</time></trkpt><trkpt lat="44.3126586" lon="8.3266967"><ele>452.0</ele><time>2026-05-03T14:43:11.153Z</time></trkpt><trkpt lat="44.312765" lon="8.3267425"><ele>452.0</ele><time>2026-05-03T14:43:12.153Z</time></trkpt><trkpt lat="44.3128721" lon="8.326802"><ele>452.00000000000006</ele><time>2026-05-03T14:43:13.154Z</time></trkpt><trkpt lat="44.3129712" lon="8.3268525"><ele>452.00000000000006</ele><time>2026-05-03T14:43:14.153Z</time></trkpt><trkpt lat="44.3130663" lon="8.3268992"><ele>452.0</ele><time>2026-05-03T14:43:15.153Z</time></trkpt><trkpt lat="44.3131521" lon="8.3269422"><ele>452.0</ele><time>2026-05-03T14:43:16.153Z</time></trkpt><trkpt lat="44.3132358" lon="8.3270033"><ele>451.20000000000005</ele><time>2026-05-03T14:43:17.153Z</time></trkpt><trkpt lat="44.3133173" lon="8.3270575"><ele>450.40000000000003</ele><time>2026-05-03T14:43:18.154Z</time></trkpt><trkpt lat="44.3133898" lon="8.3271448"><ele>449.59999999999997</ele><time>2026-05-03T14:43:19.154Z</time></trkpt><trkpt lat="44.3134693" lon="8.3271985"><ele>448.79999999999995</ele><time>2026-05-03T14:43:20.153Z</time></trkpt><trkpt lat="44.313559" lon="8.327253"><ele>448.0</ele><time>2026-05-03T14:43:21.153Z</time></trkpt><trkpt lat="44.3136795" lon="8.3272974"><ele>448.0</ele><time>2026-05-03T14:43:22.153Z</time></trkpt><trkpt lat="44.3137909" lon="8.3273237"><ele>448.0</ele><time>2026-05-03T14:43:23.153Z</time></trkpt><trkpt lat="44.3139175" lon="8.3273472"><ele>448.0</ele><time>2026-05-03T14:43:24.153Z</time></trkpt><trkpt lat="44.3140512" lon="8.3273588"><ele>448.0</ele><time>2026-05-03T14:43:25.153Z</time></trkpt><trkpt lat="44.314175" lon="8.3273874"><ele>447.2</ele><time>2026-05-03T14:43:26.153Z</time></trkpt><trkpt lat="44.3142779" lon="8.3274153"><ele>446.4</ele><time>2026-05-03T14:43:27.153Z</time></trkpt><trkpt lat="44.3143695" lon="8.3274522"><ele>445.59999999999997</ele><time>2026-05-03T14:43:28.153Z</time></trkpt><trkpt lat="44.3144586" lon="8.3275184"><ele>444.79999999999995</ele><time>2026-05-03T14:43:29.153Z</time></trkpt><trkpt lat="44.314542" lon="8.3275964"><ele>444.0</ele><time>2026-05-03T14:43:30.153Z</time></trkpt><trkpt lat="44.3146326" lon="8.327665"><ele>444.0</ele><time>2026-05-03T14:43:31.154Z</time></trkpt><trkpt lat="44.3147235" lon="8.3277331"><ele>444.0</ele><time>2026-05-03T14:43:32.153Z</time></trkpt><trkpt lat="44.3148106" lon="8.3277954"><ele>444.0</ele><time>2026-05-03T14:43:33.154Z</time></trkpt><trkpt lat="44.314901" lon="8.3278608"><ele>444.0</ele><time>2026-05-03T14:43:34.153Z</time></trkpt><trkpt lat="44.314991" lon="8.3279517"><ele>444.0</ele><time>2026-05-03T14:43:35.153Z</time></trkpt><trkpt lat="44.3150797" lon="8.3280492"><ele>445.2</ele><time>2026-05-03T14:43:36.154Z</time></trkpt><trkpt lat="44.3151736" lon="8.3281565"><ele>446.4</ele><time>2026-05-03T14:43:37.153Z</time></trkpt><trkpt lat="44.3152569" lon="8.3282487"><ele>447.6</ele><time>2026-05-03T14:43:38.153Z</time></trkpt><trkpt lat="44.3153269" lon="8.328331"><ele>448.8</ele><time>2026-05-03T14:43:39.153Z</time></trkpt><trkpt lat="44.315401" lon="8.328424"><ele>450.0</ele><time>2026-05-03T14:43:40.154Z</time></trkpt><trkpt lat="44.3154763" lon="8.3285071"><ele>450.0</ele><time>2026-05-03T14:43:41.154Z</time></trkpt><trkpt lat="44.3155341" lon="8.3285614"><ele>450.0</ele><time>2026-05-03T14:43:42.153Z</time></trkpt><trkpt lat="44.3156182" lon="8.3286215"><ele>450.0</ele><time>2026-05-03T14:43:43.153Z</time></trkpt><trkpt lat="44.3157236" lon="8.32859"><ele>450.0</ele><time>2026-05-03T14:43:44.153Z</time></trkpt><trkpt lat="44.3158259" lon="8.3285706"><ele>450.0</ele><time>2026-05-03T14:43:45.153Z</time></trkpt><trkpt lat="44.315935" lon="8.3285265"><ele>448.75</ele><time>2026-05-03T14:43:46.153Z</time></trkpt><trkpt lat="44.3160469" lon="8.3284656"><ele>447.5</ele><time>2026-05-03T14:43:47.153Z</time></trkpt><trkpt lat="44.3161676" lon="8.3283764"><ele>446.25</ele><time>2026-05-03T14:43:48.153Z</time></trkpt><trkpt lat="44.3162949" lon="8.3282799"><ele>445.0</ele><time>2026-05-03T14:43:49.153Z</time></trkpt><trkpt lat="44.3163982" lon="8.3282033"><ele>444.2</ele><time>2026-05-03T14:43:50.154Z</time></trkpt><trkpt lat="44.3165121" lon="8.3281296"><ele>443.4</ele><time>2026-05-03T14:43:51.153Z</time></trkpt><trkpt lat="44.3166145" lon="8.3280809"><ele>442.6</ele><time>2026-05-03T14:43:52.153Z</time></trkpt><trkpt lat="44.3167095" lon="8.328045"><ele>441.8</ele><time>2026-05-03T14:43:53.153Z</time></trkpt><trkpt lat="44.3168222" lon="8.3280315"><ele>441.0</ele><time>2026-05-03T14:43:54.154Z</time></trkpt><trkpt lat="44.3169277" lon="8.3280332"><ele>439.0</ele><time>2026-05-03T14:43:55.153Z</time></trkpt><trkpt lat="44.3170486" lon="8.3279924"><ele>437.0</ele><time>2026-05-03T14:43:56.153Z</time></trkpt><trkpt lat="44.3171602" lon="8.3279478"><ele>435.0</ele><time>2026-05-03T14:43:57.154Z</time></trkpt><trkpt lat="44.3172812" lon="8.3278992"><ele>433.0</ele><time>2026-05-03T14:43:58.153Z</time></trkpt><trkpt lat="44.3173976" lon="8.3278395"><ele>433.0</ele><time>2026-05-03T14:43:59.153Z</time></trkpt><trkpt lat="44.317513" lon="8.3277724"><ele>433.0</ele><time>2026-05-03T14:44:00.153Z</time></trkpt><trkpt lat="44.3176182" lon="8.3277027"><ele>433.0</ele><time>2026-05-03T14:44:01.154Z</time></trkpt><trkpt lat="44.3177018" lon="8.327611"><ele>433.0</ele><time>2026-05-03T14:44:02.153Z</time></trkpt><trkpt lat="44.3177678" lon="8.3274928"><ele>433.0</ele><time>2026-05-03T14:44:03.153Z</time></trkpt><trkpt lat="44.3178492" lon="8.327376"><ele>433.0</ele><time>2026-05-03T14:44:04.153Z</time></trkpt><trkpt lat="44.3179453" lon="8.3272601"><ele>433.0</ele><time>2026-05-03T14:44:05.154Z</time></trkpt><trkpt lat="44.3180258" lon="8.3271183"><ele>433.0</ele><time>2026-05-03T14:44:06.153Z</time></trkpt><trkpt lat="44.3181346" lon="8.3269679"><ele>433.25</ele><time>2026-05-03T14:44:07.153Z</time></trkpt><trkpt lat="44.3182111" lon="8.326827"><ele>433.5</ele><time>2026-05-03T14:44:08.153Z</time></trkpt><trkpt lat="44.3183163" lon="8.3267276"><ele>433.75</ele><time>2026-05-03T14:44:09.153Z</time></trkpt><trkpt lat="44.3184071" lon="8.3266287"><ele>434.0</ele><time>2026-05-03T14:44:10.154Z</time></trkpt><trkpt lat="44.3184884" lon="8.3265694"><ele>434.0</ele><time>2026-05-03T14:44:11.153Z</time></trkpt><trkpt lat="44.3185905" lon="8.3265151"><ele>434.0</ele><time>2026-05-03T14:44:12.153Z</time></trkpt><trkpt lat="44.3186987" lon="8.3265297"><ele>434.0</ele><time>2026-05-03T14:44:13.153Z</time></trkpt><trkpt lat="44.318814" lon="8.3265308"><ele>434.0</ele><time>2026-05-03T14:44:14.153Z</time></trkpt><trkpt lat="44.3189064" lon="8.3265421"><ele>434.0</ele><time>2026-05-03T14:44:15.153Z</time></trkpt><trkpt lat="44.3189856" lon="8.3266128"><ele>432.66666666666663</ele><time>2026-05-03T14:44:16.153Z</time></trkpt><trkpt lat="44.3190679" lon="8.326641"><ele>431.3333333333333</ele><time>2026-05-03T14:44:17.153Z</time></trkpt><trkpt lat="44.3191535" lon="8.3266406"><ele>430.0</ele><time>2026-05-03T14:44:18.153Z</time></trkpt><trkpt lat="44.3192284" lon="8.3266385"><ele>428.66666666666663</ele><time>2026-05-03T14:44:19.154Z</time></trkpt><trkpt lat="44.319318" lon="8.3265969"><ele>427.3333333333333</ele><time>2026-05-03T14:44:20.153Z</time></trkpt><trkpt lat="44.3194087" lon="8.3265349"><ele>426.0</ele><time>2026-05-03T14:44:21.153Z</time></trkpt><trkpt lat="44.3195077" lon="8.3264687"><ele>425.25</ele><time>2026-05-03T14:44:22.153Z</time></trkpt><trkpt lat="44.3195715" lon="8.3263348"><ele>424.5</ele><time>2026-05-03T14:44:23.153Z</time></trkpt><trkpt lat="44.3196516" lon="8.3262296"><ele>423.75</ele><time>2026-05-03T14:44:24.153Z</time></trkpt><trkpt lat="44.3197347" lon="8.326106"><ele>423.0</ele><time>2026-05-03T14:44:25.153Z</time></trkpt><trkpt lat="44.3197886" lon="8.3259791"><ele>423.0</ele><time>2026-05-03T14:44:26.153Z</time></trkpt><trkpt lat="44.3198499" lon="8.3258451"><ele>423.0</ele><time>2026-05-03T14:44:27.153Z</time></trkpt><trkpt lat="44.3199281" lon="8.3257318"><ele>423.0</ele><time>2026-05-03T14:44:28.154Z</time></trkpt><trkpt lat="44.3200131" lon="8.32561"><ele>423.0</ele><time>2026-05-03T14:44:29.154Z</time></trkpt><trkpt lat="44.3200979" lon="8.3254988"><ele>425.2</ele><time>2026-05-03T14:44:30.153Z</time></trkpt><trkpt lat="44.3201781" lon="8.3254171"><ele>427.4</ele><time>2026-05-03T14:44:31.153Z</time></trkpt><trkpt lat="44.3202568" lon="8.3253396"><ele>429.59999999999997</ele><time>2026-05-03T14:44:32.153Z</time></trkpt><trkpt lat="44.3203398" lon="8.3252801"><ele>431.79999999999995</ele><time>2026-05-03T14:44:33.153Z</time></trkpt><trkpt lat="44.3204289" lon="8.3252417"><ele>434.0</ele><time>2026-05-03T14:44:34.154Z</time></trkpt><trkpt lat="44.3205257" lon="8.325225"><ele>431.2</ele><time>2026-05-03T14:44:35.153Z</time></trkpt><trkpt lat="44.3206302" lon="8.3252191"><ele>428.4</ele><time>2026-05-03T14:44:36.153Z</time></trkpt><trkpt lat="44.3207263" lon="8.3252333"><ele>425.6</ele><time>2026-05-03T14:44:37.153Z</time></trkpt><trkpt lat="44.3208452" lon="8.325247"><ele>422.8</ele><time>2026-05-03T14:44:38.153Z</time></trkpt><trkpt lat="44.3209466" lon="8.3252162"><ele>420.0</ele><time>2026-05-03T14:44:39.153Z</time></trkpt><trkpt lat="44.3210508" lon="8.3251812"><ele>420.0</ele><time>2026-05-03T14:44:40.153Z</time></trkpt><trkpt lat="44.3211485" lon="8.3251508"><ele>420.0</ele><time>2026-05-03T14:44:41.153Z</time></trkpt><trkpt lat="44.3212235" lon="8.3250519"><ele>420.0</ele><time>2026-05-03T14:44:42.154Z</time></trkpt><trkpt lat="44.3212994" lon="8.3249811"><ele>420.0</ele><time>2026-05-03T14:44:43.153Z</time></trkpt><trkpt lat="44.3213838" lon="8.3249413"><ele>420.0</ele><time>2026-05-03T14:44:44.153Z</time></trkpt><trkpt lat="44.3214523" lon="8.3249002"><ele>420.6</ele><time>2026-05-03T14:44:45.153Z</time></trkpt><trkpt lat="44.3215416" lon="8.3248571"><ele>421.2</ele><time>2026-05-03T14:44:46.154Z</time></trkpt><trkpt lat="44.321647" lon="8.3248194"><ele>421.79999999999995</ele><time>2026-05-03T14:44:47.153Z</time></trkpt><trkpt lat="44.3217378" lon="8.3247658"><ele>422.4</ele><time>2026-05-03T14:44:48.153Z</time></trkpt><trkpt lat="44.3218292" lon="8.3247169"><ele>423.0</ele><time>2026-05-03T14:44:49.154Z</time></trkpt><trkpt lat="44.321906" lon="8.3246601"><ele>421.0</ele><time>2026-05-03T14:44:50.153Z</time></trkpt><trkpt lat="44.3219735" lon="8.324606"><ele>419.0</ele><time>2026-05-03T14:44:51.153Z</time></trkpt><trkpt lat="44.3220312" lon="8.3245586"><ele>417.0</ele><time>2026-05-03T14:44:52.153Z</time></trkpt><trkpt lat="44.322103" lon="8.3245083"><ele>415.0</ele><time>2026-05-03T14:44:54.153Z</time></trkpt><trkpt lat="44.3221671" lon="8.3244868"><ele>413.0</ele><time>2026-05-03T14:45:46.154Z</time></trkpt><trkpt lat="44.3222965" lon="8.3245571"><ele>411.0</ele><time>2026-05-03T14:45:48.153Z</time></trkpt><trkpt lat="44.3223783" lon="8.3245789"><ele>411.0</ele><time>2026-05-03T14:45:49.153Z</time></trkpt><trkpt lat="44.3224842" lon="8.3245746"><ele>411.0</ele><time>2026-05-03T14:45:50.155Z</time></trkpt><trkpt lat="44.3225874" lon="8.3245343"><ele>411.0</ele><time>2026-05-03T14:45:51.153Z</time></trkpt><trkpt lat="44.3226866" lon="8.3244673"><ele>411.0</ele><time>2026-05-03T14:45:52.153Z</time></trkpt><trkpt lat="44.3227802" lon="8.3243859"><ele>411.0</ele><time>2026-05-03T14:45:53.153Z</time></trkpt><trkpt lat="44.3228772" lon="8.3242972"><ele>411.0</ele><time>2026-05-03T14:45:54.153Z</time></trkpt><trkpt lat="44.3229754" lon="8.3242053"><ele>411.0</ele><time>2026-05-03T14:45:55.153Z</time></trkpt><trkpt lat="44.3230714" lon="8.3241112"><ele>411.0</ele><time>2026-05-03T14:45:56.154Z</time></trkpt><trkpt lat="44.3231656" lon="8.3240383"><ele>411.0</ele><time>2026-05-03T14:45:57.153Z</time></trkpt><trkpt lat="44.3232637" lon="8.3239836"><ele>411.0</ele><time>2026-05-03T14:45:58.153Z</time></trkpt><trkpt lat="44.3233658" lon="8.3239479"><ele>411.0</ele><time>2026-05-03T14:45:59.153Z</time></trkpt><trkpt lat="44.3234645" lon="8.3239437"><ele>411.0</ele><time>2026-05-03T14:46:00.153Z</time></trkpt><trkpt lat="44.3235629" lon="8.3239906"><ele>411.0</ele><time>2026-05-03T14:46:01.153Z</time></trkpt><trkpt lat="44.323656" lon="8.3240897"><ele>411.0</ele><time>2026-05-03T14:46:02.153Z</time></trkpt><trkpt lat="44.3237337" lon="8.3242192"><ele>411.0</ele><time>2026-05-03T14:46:03.154Z</time></trkpt><trkpt lat="44.3237926" lon="8.3243672"><ele>411.0</ele><time>2026-05-03T14:46:04.153Z</time></trkpt><trkpt lat="44.3238369" lon="8.324541"><ele>411.0</ele><time>2026-05-03T14:46:05.153Z</time></trkpt><trkpt lat="44.3238714" lon="8.324725"><ele>411.0</ele><time>2026-05-03T14:46:06.153Z</time></trkpt><trkpt lat="44.3238995" lon="8.3249193"><ele>411.0</ele><time>2026-05-03T14:46:07.153Z</time></trkpt><trkpt lat="44.323929" lon="8.3251111"><ele>410.75</ele><time>2026-05-03T14:46:08.153Z</time></trkpt><trkpt lat="44.3239549" lon="8.3252992"><ele>410.5</ele><time>2026-05-03T14:46:09.154Z</time></trkpt><trkpt lat="44.3239816" lon="8.3254825"><ele>410.25</ele><time>2026-05-03T14:46:10.153Z</time></trkpt><trkpt lat="44.3240074" lon="8.3256657"><ele>410.0</ele><time>2026-05-03T14:46:11.153Z</time></trkpt><trkpt lat="44.3240324" lon="8.3258413"><ele>410.0</ele><time>2026-05-03T14:46:12.153Z</time></trkpt><trkpt lat="44.3240529" lon="8.3260109"><ele>410.0</ele><time>2026-05-03T14:46:13.153Z</time></trkpt><trkpt lat="44.3240776" lon="8.3261747"><ele>410.0</ele><time>2026-05-03T14:46:14.153Z</time></trkpt><trkpt lat="44.3241001" lon="8.3263274"><ele>410.0</ele><time>2026-05-03T14:46:15.153Z</time></trkpt><trkpt lat="44.3241321" lon="8.3264789"><ele>413.25</ele><time>2026-05-03T14:46:16.153Z</time></trkpt><trkpt lat="44.3241778" lon="8.3266348"><ele>416.5</ele><time>2026-05-03T14:46:17.153Z</time></trkpt><trkpt lat="44.324254" lon="8.3267751"><ele>419.75</ele><time>2026-05-03T14:46:18.153Z</time></trkpt><trkpt lat="44.3243533" lon="8.3268963"><ele>423.0</ele><time>2026-05-03T14:46:19.153Z</time></trkpt><trkpt lat="44.3244814" lon="8.326994"><ele>423.0</ele><time>2026-05-03T14:46:20.153Z</time></trkpt><trkpt lat="44.3246295" lon="8.3270082"><ele>423.0</ele><time>2026-05-03T14:46:21.153Z</time></trkpt><trkpt lat="44.3247694" lon="8.3270367"><ele>423.0</ele><time>2026-05-03T14:46:22.153Z</time></trkpt><trkpt lat="44.3249001" lon="8.3270649"><ele>423.0</ele><time>2026-05-03T14:46:23.153Z</time></trkpt><trkpt lat="44.3250329" lon="8.3270818"><ele>419.75</ele><time>2026-05-03T14:46:24.154Z</time></trkpt><trkpt lat="44.3251596" lon="8.3271018"><ele>416.5</ele><time>2026-05-03T14:46:25.153Z</time></trkpt><trkpt lat="44.3252913" lon="8.3271272"><ele>413.25</ele><time>2026-05-03T14:46:26.153Z</time></trkpt><trkpt lat="44.3254182" lon="8.3271572"><ele>410.0</ele><time>2026-05-03T14:46:27.153Z</time></trkpt><trkpt lat="44.3255478" lon="8.3272121"><ele>409.0</ele><time>2026-05-03T14:46:28.153Z</time></trkpt><trkpt lat="44.3256757" lon="8.3272726"><ele>408.0</ele><time>2026-05-03T14:46:29.153Z</time></trkpt><trkpt lat="44.3257975" lon="8.32735"><ele>407.0</ele><time>2026-05-03T14:46:30.153Z</time></trkpt><trkpt lat="44.3259175" lon="8.3274407"><ele>406.0</ele><time>2026-05-03T14:46:31.153Z</time></trkpt><trkpt lat="44.3260322" lon="8.3275465"><ele>406.0</ele><time>2026-05-03T14:46:32.153Z</time></trkpt><trkpt lat="44.3261324" lon="8.327669"><ele>406.0</ele><time>2026-05-03T14:46:33.153Z</time></trkpt><trkpt lat="44.326207" lon="8.327826"><ele>406.0</ele><time>2026-05-03T14:46:34.153Z</time></trkpt><trkpt lat="44.3262586" lon="8.3280071"><ele>406.0</ele><time>2026-05-03T14:46:35.153Z</time></trkpt><trkpt lat="44.3262858" lon="8.3282097"><ele>406.25</ele><time>2026-05-03T14:46:36.153Z</time></trkpt><trkpt lat="44.3262991" lon="8.328411"><ele>406.5</ele><time>2026-05-03T14:46:37.153Z</time></trkpt><trkpt lat="44.3263079" lon="8.3286135"><ele>406.75</ele><time>2026-05-03T14:46:38.153Z</time></trkpt><trkpt lat="44.3263127" lon="8.3288146"><ele>407.0</ele><time>2026-05-03T14:46:39.153Z</time></trkpt><trkpt lat="44.3263242" lon="8.3290156"><ele>407.0</ele><time>2026-05-03T14:46:40.153Z</time></trkpt><trkpt lat="44.3263461" lon="8.3292224"><ele>407.0</ele><time>2026-05-03T14:46:41.153Z</time></trkpt><trkpt lat="44.3263775" lon="8.3294331"><ele>407.0</ele><time>2026-05-03T14:46:42.153Z</time></trkpt><trkpt lat="44.326413" lon="8.3296394"><ele>404.75</ele><time>2026-05-03T14:46:43.153Z</time></trkpt><trkpt lat="44.3264562" lon="8.3298446"><ele>402.5</ele><time>2026-05-03T14:46:44.153Z</time></trkpt><trkpt lat="44.326498" lon="8.3300361"><ele>400.25</ele><time>2026-05-03T14:46:45.153Z</time></trkpt><trkpt lat="44.3265448" lon="8.330231"><ele>398.0</ele><time>2026-05-03T14:46:46.153Z</time></trkpt><trkpt lat="44.3265988" lon="8.3304236"><ele>399.0</ele><time>2026-05-03T14:46:47.153Z</time></trkpt><trkpt lat="44.3266589" lon="8.3306131"><ele>400.0</ele><time>2026-05-03T14:46:48.153Z</time></trkpt><trkpt lat="44.3267328" lon="8.3308077"><ele>401.0</ele><time>2026-05-03T14:46:49.153Z</time></trkpt><trkpt lat="44.3268129" lon="8.3309968"><ele>401.0</ele><time>2026-05-03T14:46:50.153Z</time></trkpt><trkpt lat="44.3268903" lon="8.3311875"><ele>401.0</ele><time>2026-05-03T14:46:51.154Z</time></trkpt><trkpt lat="44.3269672" lon="8.3313754"><ele>401.0</ele><time>2026-05-03T14:46:52.153Z</time></trkpt><trkpt lat="44.3270451" lon="8.3315706"><ele>401.25</ele><time>2026-05-03T14:46:53.153Z</time></trkpt><trkpt lat="44.3271088" lon="8.3317611"><ele>401.5</ele><time>2026-05-03T14:46:54.153Z</time></trkpt><trkpt lat="44.3271633" lon="8.3319532"><ele>401.75</ele><time>2026-05-03T14:46:55.153Z</time></trkpt><trkpt lat="44.3272094" lon="8.3321441"><ele>402.0</ele><time>2026-05-03T14:46:56.153Z</time></trkpt><trkpt lat="44.327251" lon="8.3323408"><ele>401.25</ele><time>2026-05-03T14:46:57.154Z</time></trkpt><trkpt lat="44.3272864" lon="8.3325294"><ele>400.5</ele><time>2026-05-03T14:46:58.153Z</time></trkpt><trkpt lat="44.3273193" lon="8.3327102"><ele>399.75</ele><time>2026-05-03T14:46:59.153Z</time></trkpt><trkpt lat="44.3273476" lon="8.3328862"><ele>399.0</ele><time>2026-05-03T14:47:00.153Z</time></trkpt><trkpt lat="44.3273652" lon="8.3330573"><ele>399.0</ele><time>2026-05-03T14:47:01.153Z</time></trkpt><trkpt lat="44.3273717" lon="8.3332298"><ele>399.0</ele><time>2026-05-03T14:47:02.153Z</time></trkpt><trkpt lat="44.3273753" lon="8.3334077"><ele>399.0</ele><time>2026-05-03T14:47:03.154Z</time></trkpt><trkpt lat="44.3273777" lon="8.333582"><ele>399.0</ele><time>2026-05-03T14:47:04.154Z</time></trkpt><trkpt lat="44.3273855" lon="8.333775"><ele>401.0</ele><time>2026-05-03T14:47:05.153Z</time></trkpt><trkpt lat="44.3274044" lon="8.3339704"><ele>403.0</ele><time>2026-05-03T14:47:06.153Z</time></trkpt><trkpt lat="44.3274523" lon="8.3341615"><ele>405.0</ele><time>2026-05-03T14:47:07.153Z</time></trkpt><trkpt lat="44.3275244" lon="8.3343357"><ele>407.0</ele><time>2026-05-03T14:47:08.153Z</time></trkpt><trkpt lat="44.3276263" lon="8.3344653"><ele>407.0</ele><time>2026-05-03T14:47:09.153Z</time></trkpt><trkpt lat="44.3277518" lon="8.3345706"><ele>407.0</ele><time>2026-05-03T14:47:10.153Z</time></trkpt><trkpt lat="44.3278851" lon="8.3346607"><ele>407.0</ele><time>2026-05-03T14:47:11.153Z</time></trkpt><trkpt lat="44.3280278" lon="8.3347511"><ele>407.3333333333333</ele><time>2026-05-03T14:47:12.153Z</time></trkpt><trkpt lat="44.328169" lon="8.3348408"><ele>407.66666666666663</ele><time>2026-05-03T14:47:13.153Z</time></trkpt><trkpt lat="44.3283129" lon="8.3349317"><ele>408.0</ele><time>2026-05-03T14:47:14.153Z</time></trkpt><trkpt lat="44.328447" lon="8.3350262"><ele>408.0</ele><time>2026-05-03T14:47:15.154Z</time></trkpt><trkpt lat="44.3285911" lon="8.3351176"><ele>408.0</ele><time>2026-05-03T14:47:16.153Z</time></trkpt><trkpt lat="44.328738" lon="8.3352121"><ele>408.0</ele><time>2026-05-03T14:47:17.154Z</time></trkpt><trkpt lat="44.3288845" lon="8.3353088"><ele>407.5</ele><time>2026-05-03T14:47:18.153Z</time></trkpt><trkpt lat="44.3290251" lon="8.335389"><ele>407.0</ele><time>2026-05-03T14:47:19.153Z</time></trkpt><trkpt lat="44.3291556" lon="8.3354594"><ele>406.5</ele><time>2026-05-03T14:47:20.153Z</time></trkpt><trkpt lat="44.3293032" lon="8.3354308"><ele>406.0</ele><time>2026-05-03T14:47:21.153Z</time></trkpt><trkpt lat="44.3294545" lon="8.3354289"><ele>406.0</ele><time>2026-05-03T14:47:22.153Z</time></trkpt><trkpt lat="44.3295978" lon="8.3353193"><ele>406.0</ele><time>2026-05-03T14:47:23.153Z</time></trkpt><trkpt lat="44.3297565" lon="8.3352701"><ele>406.0</ele><time>2026-05-03T14:47:24.153Z</time></trkpt><trkpt lat="44.3299097" lon="8.3352069"><ele>408.25</ele><time>2026-05-03T14:47:25.154Z</time></trkpt><trkpt lat="44.3300534" lon="8.3351422"><ele>410.5</ele><time>2026-05-03T14:47:26.153Z</time></trkpt><trkpt lat="44.3301948" lon="8.3350824"><ele>412.75</ele><time>2026-05-03T14:47:27.153Z</time></trkpt><trkpt lat="44.3303336" lon="8.3350145"><ele>415.0</ele><time>2026-05-03T14:47:28.153Z</time></trkpt><trkpt lat="44.3304701" lon="8.334931"><ele>414.0</ele><time>2026-05-03T14:47:29.153Z</time></trkpt><trkpt lat="44.3306036" lon="8.3348344"><ele>413.0</ele><time>2026-05-03T14:47:30.153Z</time></trkpt><trkpt lat="44.3307285" lon="8.3347213"><ele>412.0</ele><time>2026-05-03T14:47:31.154Z</time></trkpt><trkpt lat="44.3308537" lon="8.3346054"><ele>411.0</ele><time>2026-05-03T14:47:32.153Z</time></trkpt><trkpt lat="44.3309726" lon="8.3344835"><ele>411.0</ele><time>2026-05-03T14:47:33.153Z</time></trkpt><trkpt lat="44.3310899" lon="8.3343595"><ele>411.0</ele><time>2026-05-03T14:47:34.154Z</time></trkpt><trkpt lat="44.331196" lon="8.3342285"><ele>411.0</ele><time>2026-05-03T14:47:35.153Z</time></trkpt><trkpt lat="44.3312969" lon="8.3340937"><ele>411.0</ele><time>2026-05-03T14:47:36.153Z</time></trkpt><trkpt lat="44.3313925" lon="8.3339654"><ele>412.25</ele><time>2026-05-03T14:47:37.154Z</time></trkpt><trkpt lat="44.3314889" lon="8.3338351"><ele>413.5</ele><time>2026-05-03T14:47:38.153Z</time></trkpt><trkpt lat="44.3315813" lon="8.3336987"><ele>414.75</ele><time>2026-05-03T14:47:39.153Z</time></trkpt><trkpt lat="44.3316761" lon="8.3335685"><ele>416.0</ele><time>2026-05-03T14:47:40.153Z</time></trkpt><trkpt lat="44.3317707" lon="8.3334419"><ele>416.0</ele><time>2026-05-03T14:47:41.154Z</time></trkpt><trkpt lat="44.3318631" lon="8.3333184"><ele>416.0</ele><time>2026-05-03T14:47:42.153Z</time></trkpt><trkpt lat="44.3319493" lon="8.3332024"><ele>416.0</ele><time>2026-05-03T14:47:43.153Z</time></trkpt><trkpt lat="44.3320352" lon="8.3330828"><ele>416.0</ele><time>2026-05-03T14:47:44.154Z</time></trkpt><trkpt lat="44.3321166" lon="8.3329631"><ele>413.8</ele><time>2026-05-03T14:47:45.153Z</time></trkpt><trkpt lat="44.3321925" lon="8.3328548"><ele>411.6</ele><time>2026-05-03T14:47:46.153Z</time></trkpt><trkpt lat="44.332274" lon="8.3327729"><ele>409.4</ele><time>2026-05-03T14:47:47.153Z</time></trkpt><trkpt lat="44.3323607" lon="8.3327392"><ele>407.2</ele><time>2026-05-03T14:47:48.153Z</time></trkpt><trkpt lat="44.3324513" lon="8.3327513"><ele>405.0</ele><time>2026-05-03T14:47:49.153Z</time></trkpt><trkpt lat="44.3325354" lon="8.3328059"><ele>410.0</ele><time>2026-05-03T14:47:50.153Z</time></trkpt><trkpt lat="44.3326282" lon="8.3328833"><ele>415.0</ele><time>2026-05-03T14:47:51.153Z</time></trkpt><trkpt lat="44.3327251" lon="8.3329342"><ele>420.0</ele><time>2026-05-03T14:47:52.153Z</time></trkpt><trkpt lat="44.3328339" lon="8.3329665"><ele>425.0</ele><time>2026-05-03T14:47:53.153Z</time></trkpt><trkpt lat="44.332959" lon="8.3329532"><ele>430.0</ele><time>2026-05-03T14:47:54.153Z</time></trkpt><trkpt lat="44.3330819" lon="8.3329472"><ele>431.5</ele><time>2026-05-03T14:47:55.153Z</time></trkpt><trkpt lat="44.333208" lon="8.3329388"><ele>433.0</ele><time>2026-05-03T14:47:56.153Z</time></trkpt><trkpt lat="44.3333416" lon="8.3328573"><ele>434.5</ele><time>2026-05-03T14:47:57.153Z</time></trkpt><trkpt lat="44.3334664" lon="8.3327798"><ele>436.0</ele><time>2026-05-03T14:47:58.154Z</time></trkpt><trkpt lat="44.3336009" lon="8.3326988"><ele>436.0</ele><time>2026-05-03T14:47:59.153Z</time></trkpt><trkpt lat="44.333734" lon="8.3326298"><ele>436.0</ele><time>2026-05-03T14:48:00.153Z</time></trkpt><trkpt lat="44.3338646" lon="8.3325674"><ele>436.0</ele><time>2026-05-03T14:48:01.153Z</time></trkpt><trkpt lat="44.3339955" lon="8.3325125"><ele>436.0</ele><time>2026-05-03T14:48:02.154Z</time></trkpt><trkpt lat="44.3341231" lon="8.3324594"><ele>431.75</ele><time>2026-05-03T14:48:03.154Z</time></trkpt><trkpt lat="44.3342478" lon="8.3324095"><ele>427.5</ele><time>2026-05-03T14:48:04.154Z</time></trkpt><trkpt lat="44.3343725" lon="8.3323598"><ele>423.25</ele><time>2026-05-03T14:48:05.153Z</time></trkpt><trkpt lat="44.3344936" lon="8.3323228"><ele>419.0</ele><time>2026-05-03T14:48:06.153Z</time></trkpt><trkpt lat="44.3346188" lon="8.3322936"><ele>416.0</ele><time>2026-05-03T14:48:07.153Z</time></trkpt><trkpt lat="44.3347383" lon="8.3322601"><ele>413.0</ele><time>2026-05-03T14:48:08.154Z</time></trkpt><trkpt lat="44.3348573" lon="8.3322308"><ele>410.0</ele><time>2026-05-03T14:48:09.154Z</time></trkpt><trkpt lat="44.3349745" lon="8.3322037"><ele>407.0</ele><time>2026-05-03T14:48:10.153Z</time></trkpt><trkpt lat="44.3350913" lon="8.3321782"><ele>407.0</ele><time>2026-05-03T14:48:11.153Z</time></trkpt><trkpt lat="44.3352088" lon="8.3321569"><ele>407.0</ele><time>2026-05-03T14:48:12.153Z</time></trkpt><trkpt lat="44.3353249" lon="8.332152"><ele>407.0</ele><time>2026-05-03T14:48:13.153Z</time></trkpt><trkpt lat="44.3354393" lon="8.3321793"><ele>407.0</ele><time>2026-05-03T14:48:14.153Z</time></trkpt><trkpt lat="44.3355441" lon="8.3322322"><ele>404.8</ele><time>2026-05-03T14:48:15.153Z</time></trkpt><trkpt lat="44.3356302" lon="8.332313"><ele>402.6</ele><time>2026-05-03T14:48:16.154Z</time></trkpt><trkpt lat="44.3356746" lon="8.332418"><ele>400.40000000000003</ele><time>2026-05-03T14:48:17.153Z</time></trkpt><trkpt lat="44.3356792" lon="8.3325398"><ele>398.20000000000005</ele><time>2026-05-03T14:48:18.153Z</time></trkpt><trkpt lat="44.3356593" lon="8.3326713"><ele>396.0</ele><time>2026-05-03T14:48:19.153Z</time></trkpt><trkpt lat="44.3356328" lon="8.3328138"><ele>396.0</ele><time>2026-05-03T14:48:20.153Z</time></trkpt><trkpt lat="44.3356051" lon="8.3329688"><ele>396.0</ele><time>2026-05-03T14:48:21.153Z</time></trkpt><trkpt lat="44.3355753" lon="8.3331338"><ele>396.0</ele><time>2026-05-03T14:48:22.153Z</time></trkpt><trkpt lat="44.3355434" lon="8.3333091"><ele>396.0</ele><time>2026-05-03T14:48:23.153Z</time></trkpt><trkpt lat="44.3355114" lon="8.3334927"><ele>399.5</ele><time>2026-05-03T14:48:24.153Z</time></trkpt><trkpt lat="44.3354772" lon="8.3336857"><ele>403.0</ele><time>2026-05-03T14:48:25.154Z</time></trkpt><trkpt lat="44.3354404" lon="8.3338907"><ele>406.5</ele><time>2026-05-03T14:48:26.153Z</time></trkpt><trkpt lat="44.3354019" lon="8.3340983"><ele>410.0</ele><time>2026-05-03T14:48:27.154Z</time></trkpt><trkpt lat="44.3353644" lon="8.3342958"><ele>410.0</ele><time>2026-05-03T14:48:28.153Z</time></trkpt><trkpt lat="44.3353294" lon="8.3344834"><ele>410.0</ele><time>2026-05-03T14:48:29.154Z</time></trkpt><trkpt lat="44.3352961" lon="8.3346582"><ele>410.0</ele><time>2026-05-03T14:48:30.153Z</time></trkpt><trkpt lat="44.3352678" lon="8.3348321"><ele>410.0</ele><time>2026-05-03T14:48:31.153Z</time></trkpt><trkpt lat="44.335238" lon="8.3350044"><ele>409.5</ele><time>2026-05-03T14:48:32.153Z</time></trkpt><trkpt lat="44.3352078" lon="8.3351764"><ele>409.0</ele><time>2026-05-03T14:48:33.154Z</time></trkpt><trkpt lat="44.3351751" lon="8.3353502"><ele>408.5</ele><time>2026-05-03T14:48:34.153Z</time></trkpt><trkpt lat="44.335138" lon="8.3355253"><ele>408.0</ele><time>2026-05-03T14:48:35.154Z</time></trkpt><trkpt lat="44.3350978" lon="8.3357007"><ele>407.0</ele><time>2026-05-03T14:48:36.153Z</time></trkpt><trkpt lat="44.3350566" lon="8.3358771"><ele>406.0</ele><time>2026-05-03T14:48:37.153Z</time></trkpt><trkpt lat="44.335019" lon="8.3360569"><ele>405.0</ele><time>2026-05-03T14:48:38.153Z</time></trkpt><trkpt lat="44.334991" lon="8.336243"><ele>404.0</ele><time>2026-05-03T14:48:39.153Z</time></trkpt><trkpt lat="44.3349858" lon="8.3364322"><ele>403.75</ele><time>2026-05-03T14:48:40.153Z</time></trkpt><trkpt lat="44.3349995" lon="8.3366231"><ele>403.5</ele><time>2026-05-03T14:48:41.153Z</time></trkpt><trkpt lat="44.3350414" lon="8.3368107"><ele>403.25</ele><time>2026-05-03T14:48:42.153Z</time></trkpt><trkpt lat="44.3350904" lon="8.3369928"><ele>403.0</ele><time>2026-05-03T14:48:43.154Z</time></trkpt><trkpt lat="44.3351244" lon="8.337174"><ele>405.5</ele><time>2026-05-03T14:48:44.153Z</time></trkpt><trkpt lat="44.3351294" lon="8.3373568"><ele>408.0</ele><time>2026-05-03T14:48:45.153Z</time></trkpt><trkpt lat="44.3351147" lon="8.3375424"><ele>410.5</ele><time>2026-05-03T14:48:46.153Z</time></trkpt><trkpt lat="44.3350955" lon="8.3377159"><ele>413.0</ele><time>2026-05-03T14:48:47.153Z</time></trkpt><trkpt lat="44.3350793" lon="8.3378766"><ele>413.0</ele><time>2026-05-03T14:48:48.153Z</time></trkpt><trkpt lat="44.3350705" lon="8.3380295"><ele>413.0</ele><time>2026-05-03T14:48:49.153Z</time></trkpt><trkpt lat="44.3350709" lon="8.3381716"><ele>413.0</ele><time>2026-05-03T14:48:50.153Z</time></trkpt><trkpt lat="44.3350993" lon="8.3382988"><ele>413.0</ele><time>2026-05-03T14:48:51.154Z</time></trkpt><trkpt lat="44.3351522" lon="8.3384081"><ele>413.0</ele><time>2026-05-03T14:48:52.153Z</time></trkpt><trkpt lat="44.3352155" lon="8.3384961"><ele>414.0</ele><time>2026-05-03T14:48:53.154Z</time></trkpt><trkpt lat="44.3353013" lon="8.3385208"><ele>415.0</ele><time>2026-05-03T14:48:54.154Z</time></trkpt><trkpt lat="44.335399" lon="8.3384863"><ele>416.0</ele><time>2026-05-03T14:48:55.153Z</time></trkpt><trkpt lat="44.3354794" lon="8.3384505"><ele>417.0</ele><time>2026-05-03T14:48:56.154Z</time></trkpt><trkpt lat="44.3355524" lon="8.3384298"><ele>418.0</ele><time>2026-05-03T14:48:57.153Z</time></trkpt><trkpt lat="44.3356589" lon="8.3384325"><ele>415.79999999999995</ele><time>2026-05-03T14:48:59.154Z</time></trkpt><trkpt lat="44.3357332" lon="8.3384586"><ele>413.6</ele><time>2026-05-03T14:49:02.153Z</time></trkpt><trkpt lat="44.3357865" lon="8.338548"><ele>411.4</ele><time>2026-05-03T14:49:31.153Z</time></trkpt><trkpt lat="44.3357964" lon="8.3386417"><ele>409.20000000000005</ele><time>2026-05-03T14:49:32.153Z</time></trkpt><trkpt lat="44.3357994" lon="8.3388303"><ele>407.0</ele><time>2026-05-03T14:49:34.153Z</time></trkpt><trkpt lat="44.335797" lon="8.3389554"><ele>407.0</ele><time>2026-05-03T14:49:35.154Z</time></trkpt><trkpt lat="44.3358013" lon="8.3391032"><ele>407.0</ele><time>2026-05-03T14:49:36.153Z</time></trkpt><trkpt lat="44.3358059" lon="8.3392642"><ele>407.0</ele><time>2026-05-03T14:49:37.154Z</time></trkpt><trkpt lat="44.3358147" lon="8.3394583"><ele>407.0</ele><time>2026-05-03T14:49:38.153Z</time></trkpt><trkpt lat="44.335812" lon="8.339639"><ele>407.75</ele><time>2026-05-03T14:49:39.153Z</time></trkpt><trkpt lat="44.3358032" lon="8.3398287"><ele>408.5</ele><time>2026-05-03T14:49:40.153Z</time></trkpt><trkpt lat="44.3358006" lon="8.3400285"><ele>409.25</ele><time>2026-05-03T14:49:41.153Z</time></trkpt><trkpt lat="44.3357895" lon="8.340231"><ele>410.0</ele><time>2026-05-03T14:49:42.153Z</time></trkpt><trkpt lat="44.3357636" lon="8.340418"><ele>409.75</ele><time>2026-05-03T14:49:43.154Z</time></trkpt><trkpt lat="44.3357185" lon="8.340606"><ele>409.5</ele><time>2026-05-03T14:49:44.154Z</time></trkpt><trkpt lat="44.3356713" lon="8.3407916"><ele>409.25</ele><time>2026-05-03T14:49:45.153Z</time></trkpt><trkpt lat="44.3356183" lon="8.3409932"><ele>409.0</ele><time>2026-05-03T14:49:46.154Z</time></trkpt><trkpt lat="44.3355662" lon="8.3411957"><ele>411.5</ele><time>2026-05-03T14:49:47.154Z</time></trkpt><trkpt lat="44.3355173" lon="8.3413976"><ele>414.0</ele><time>2026-05-03T14:49:48.153Z</time></trkpt><trkpt lat="44.3354697" lon="8.3415879"><ele>416.5</ele><time>2026-05-03T14:49:49.153Z</time></trkpt><trkpt lat="44.3354288" lon="8.3417686"><ele>419.0</ele><time>2026-05-03T14:49:50.153Z</time></trkpt><trkpt lat="44.3353908" lon="8.3419457"><ele>419.0</ele><time>2026-05-03T14:49:51.153Z</time></trkpt><trkpt lat="44.3353474" lon="8.3421174"><ele>419.0</ele><time>2026-05-03T14:49:52.154Z</time></trkpt><trkpt lat="44.3353024" lon="8.3422856"><ele>419.0</ele><time>2026-05-03T14:49:53.153Z</time></trkpt><trkpt lat="44.3352536" lon="8.3424598"><ele>419.0</ele><time>2026-05-03T14:49:54.154Z</time></trkpt><trkpt lat="44.3351987" lon="8.3426422"><ele>418.25</ele><time>2026-05-03T14:49:55.153Z</time></trkpt><trkpt lat="44.3351386" lon="8.3428244"><ele>417.5</ele><time>2026-05-03T14:49:56.153Z</time></trkpt><trkpt lat="44.3350725" lon="8.3430084"><ele>416.75</ele><time>2026-05-03T14:49:57.153Z</time></trkpt><trkpt lat="44.334997" lon="8.3431978"><ele>416.0</ele><time>2026-05-03T14:49:58.153Z</time></trkpt><trkpt lat="44.3349127" lon="8.3433616"><ele>416.25</ele><time>2026-05-03T14:49:59.154Z</time></trkpt><trkpt lat="44.3348209" lon="8.3435143"><ele>416.5</ele><time>2026-05-03T14:50:00.154Z</time></trkpt><trkpt lat="44.334732" lon="8.3436509"><ele>416.75</ele><time>2026-05-03T14:50:01.153Z</time></trkpt><trkpt lat="44.3346459" lon="8.3437908"><ele>417.0</ele><time>2026-05-03T14:50:02.153Z</time></trkpt><trkpt lat="44.3345627" lon="8.3439329"><ele>417.0</ele><time>2026-05-03T14:50:03.153Z</time></trkpt><trkpt lat="44.3344753" lon="8.3440721"><ele>417.0</ele><time>2026-05-03T14:50:04.153Z</time></trkpt><trkpt lat="44.3343788" lon="8.3442119"><ele>417.0</ele><time>2026-05-03T14:50:05.153Z</time></trkpt><trkpt lat="44.3342843" lon="8.3443667"><ele>417.0</ele><time>2026-05-03T14:50:06.153Z</time></trkpt><trkpt lat="44.3341829" lon="8.3445243"><ele>417.0</ele><time>2026-05-03T14:50:07.153Z</time></trkpt><trkpt lat="44.3340792" lon="8.3446853"><ele>417.0</ele><time>2026-05-03T14:50:08.153Z</time></trkpt><trkpt lat="44.3339733" lon="8.3448559"><ele>417.0</ele><time>2026-05-03T14:50:09.153Z</time></trkpt><trkpt lat="44.3338707" lon="8.3450328"><ele>418.66666666666663</ele><time>2026-05-03T14:50:10.153Z</time></trkpt><trkpt lat="44.3337655" lon="8.3452027"><ele>420.3333333333333</ele><time>2026-05-03T14:50:11.153Z</time></trkpt><trkpt lat="44.3336567" lon="8.3453709"><ele>422.0</ele><time>2026-05-03T14:50:12.153Z</time></trkpt><trkpt lat="44.3335475" lon="8.3455403"><ele>421.3333333333333</ele><time>2026-05-03T14:50:13.153Z</time></trkpt><trkpt lat="44.3334379" lon="8.345703"><ele>420.66666666666663</ele><time>2026-05-03T14:50:14.153Z</time></trkpt><trkpt lat="44.3333307" lon="8.3458637"><ele>420.0</ele><time>2026-05-03T14:50:15.153Z</time></trkpt><trkpt lat="44.3332253" lon="8.3460263"><ele>420.0</ele><time>2026-05-03T14:50:16.154Z</time></trkpt><trkpt lat="44.3331226" lon="8.3461842"><ele>420.0</ele><time>2026-05-03T14:50:17.153Z</time></trkpt><trkpt lat="44.3330191" lon="8.3463383"><ele>420.0</ele><time>2026-05-03T14:50:18.153Z</time></trkpt><trkpt lat="44.3329245" lon="8.3464922"><ele>420.0</ele><time>2026-05-03T14:50:19.153Z</time></trkpt><trkpt lat="44.3328245" lon="8.3466464"><ele>422.33333333333337</ele><time>2026-05-03T14:50:20.154Z</time></trkpt><trkpt lat="44.3327253" lon="8.346804"><ele>424.6666666666667</ele><time>2026-05-03T14:50:21.153Z</time></trkpt><trkpt lat="44.3326212" lon="8.3469603"><ele>427.0</ele><time>2026-05-03T14:50:22.154Z</time></trkpt><trkpt lat="44.3325227" lon="8.3471219"><ele>427.0</ele><time>2026-05-03T14:50:23.153Z</time></trkpt><trkpt lat="44.3324233" lon="8.3472894"><ele>427.0</ele><time>2026-05-03T14:50:24.153Z</time></trkpt><trkpt lat="44.3323218" lon="8.3474482"><ele>427.0</ele><time>2026-05-03T14:50:25.153Z</time></trkpt><trkpt lat="44.3322304" lon="8.3476041"><ele>429.0</ele><time>2026-05-03T14:50:26.154Z</time></trkpt><trkpt lat="44.3321326" lon="8.3477444"><ele>431.0</ele><time>2026-05-03T14:50:27.153Z</time></trkpt><trkpt lat="44.3320445" lon="8.3478768"><ele>433.0</ele><time>2026-05-03T14:50:28.154Z</time></trkpt><trkpt lat="44.331958" lon="8.3480082"><ele>435.0</ele><time>2026-05-03T14:50:29.153Z</time></trkpt><trkpt lat="44.331877" lon="8.3481409"><ele>435.0</ele><time>2026-05-03T14:50:30.154Z</time></trkpt><trkpt lat="44.3317962" lon="8.3482712"><ele>435.0</ele><time>2026-05-03T14:50:31.153Z</time></trkpt><trkpt lat="44.331736" lon="8.3484193"><ele>435.0</ele><time>2026-05-03T14:50:32.153Z</time></trkpt><trkpt lat="44.331688" lon="8.3485532"><ele>435.0</ele><time>2026-05-03T14:50:33.153Z</time></trkpt><trkpt lat="44.3316571" lon="8.3486884"><ele>435.0</ele><time>2026-05-03T14:50:34.153Z</time></trkpt><trkpt lat="44.3316358" lon="8.3488298"><ele>435.0</ele><time>2026-05-03T14:50:35.154Z</time></trkpt><trkpt lat="44.3316312" lon="8.3489777"><ele>435.0</ele><time>2026-05-03T14:50:36.154Z</time></trkpt><trkpt lat="44.331641" lon="8.3491202"><ele>435.0</ele><time>2026-05-03T14:50:37.154Z</time></trkpt><trkpt lat="44.3316703" lon="8.3492508"><ele>435.0</ele><time>2026-05-03T14:50:38.153Z</time></trkpt><trkpt lat="44.3317244" lon="8.3493765"><ele>435.25</ele><time>2026-05-03T14:50:39.153Z</time></trkpt><trkpt lat="44.3317982" lon="8.3494952"><ele>435.5</ele><time>2026-05-03T14:50:40.153Z</time></trkpt><trkpt lat="44.3318722" lon="8.3496151"><ele>435.75</ele><time>2026-05-03T14:50:41.153Z</time></trkpt><trkpt lat="44.3319534" lon="8.3497366"><ele>436.0</ele><time>2026-05-03T14:50:42.154Z</time></trkpt><trkpt lat="44.3320293" lon="8.3498435"><ele>437.6666666666667</ele><time>2026-05-03T14:50:43.153Z</time></trkpt><trkpt lat="44.3321001" lon="8.3499395"><ele>439.33333333333337</ele><time>2026-05-03T14:50:44.153Z</time></trkpt><trkpt lat="44.3321633" lon="8.3500157"><ele>441.0</ele><time>2026-05-03T14:50:45.154Z</time></trkpt><trkpt lat="44.3322391" lon="8.350116"><ele>442.66666666666663</ele><time>2026-05-03T14:50:47.155Z</time></trkpt><trkpt lat="44.3322802" lon="8.3501866"><ele>444.3333333333333</ele><time>2026-05-03T14:51:35.154Z</time></trkpt><trkpt lat="44.3323343" lon="8.3502625"><ele>446.0</ele><time>2026-05-03T14:51:36.154Z</time></trkpt><trkpt lat="44.332464" lon="8.3504714"><ele>447.75</ele><time>2026-05-03T14:51:38.154Z</time></trkpt><trkpt lat="44.3325339" lon="8.3505964"><ele>449.5</ele><time>2026-05-03T14:51:39.154Z</time></trkpt><trkpt lat="44.3325991" lon="8.3507289"><ele>451.25</ele><time>2026-05-03T14:51:40.154Z</time></trkpt><trkpt lat="44.3326388" lon="8.3508916"><ele>453.0</ele><time>2026-05-03T14:51:41.154Z</time></trkpt><trkpt lat="44.332612" lon="8.35109"><ele>453.0</ele><time>2026-05-03T14:51:42.154Z</time></trkpt><trkpt lat="44.3326222" lon="8.351274"><ele>453.0</ele><time>2026-05-03T14:51:43.154Z</time></trkpt><trkpt lat="44.3326224" lon="8.3514543"><ele>453.0</ele><time>2026-05-03T14:51:44.154Z</time></trkpt><trkpt lat="44.3326235" lon="8.3516388"><ele>453.0</ele><time>2026-05-03T14:51:45.154Z</time></trkpt><trkpt lat="44.3327154" lon="8.3531655"><ele>452.33333333333337</ele><time>2026-05-03T14:51:53.154Z</time></trkpt><trkpt lat="44.332822" lon="8.3533531"><ele>451.6666666666667</ele><time>2026-05-03T14:51:54.155Z</time></trkpt><trkpt lat="44.332937" lon="8.3534908"><ele>451.0</ele><time>2026-05-03T14:51:55.154Z</time></trkpt><trkpt lat="44.333067" lon="8.3535845"><ele>447.0</ele><time>2026-05-03T14:51:56.155Z</time></trkpt><trkpt lat="44.3331809" lon="8.3537181"><ele>443.0</ele><time>2026-05-03T14:51:57.154Z</time></trkpt><trkpt lat="44.3333224" lon="8.353825"><ele>439.0</ele><time>2026-05-03T14:51:58.154Z</time></trkpt><trkpt lat="44.3334529" lon="8.3539557"><ele>433.6666666666667</ele><time>2026-05-03T14:51:59.154Z</time></trkpt><trkpt lat="44.3335984" lon="8.354061"><ele>428.33333333333337</ele><time>2026-05-03T14:52:00.154Z</time></trkpt><trkpt lat="44.3337476" lon="8.3541711"><ele>423.0</ele><time>2026-05-03T14:52:01.154Z</time></trkpt><trkpt lat="44.3338961" lon="8.3543012"><ele>423.0</ele><time>2026-05-03T14:52:02.155Z</time></trkpt><trkpt lat="44.334034" lon="8.3544299"><ele>423.0</ele><time>2026-05-03T14:52:03.154Z</time></trkpt><trkpt lat="44.3341562" lon="8.3545833"><ele>423.0</ele><time>2026-05-03T14:52:04.154Z</time></trkpt><trkpt lat="44.3342453" lon="8.3547429"><ele>420.0</ele><time>2026-05-03T14:52:05.154Z</time></trkpt><trkpt lat="44.334313" lon="8.3549261"><ele>417.0</ele><time>2026-05-03T14:52:06.154Z</time></trkpt><trkpt lat="44.3343676" lon="8.3551215"><ele>414.0</ele><time>2026-05-03T14:52:07.154Z</time></trkpt><trkpt lat="44.3344234" lon="8.3553378"><ele>409.33333333333337</ele><time>2026-05-03T14:52:08.154Z</time></trkpt><trkpt lat="44.3344746" lon="8.3555525"><ele>404.6666666666667</ele><time>2026-05-03T14:52:09.154Z</time></trkpt><trkpt lat="44.3345256" lon="8.3557751"><ele>400.0</ele><time>2026-05-03T14:52:10.154Z</time></trkpt><trkpt lat="44.3345724" lon="8.3559955"><ele>400.0</ele><time>2026-05-03T14:52:11.155Z</time></trkpt><trkpt lat="44.3346242" lon="8.3562227"><ele>400.0</ele><time>2026-05-03T14:52:12.154Z</time></trkpt><trkpt lat="44.3346812" lon="8.3564525"><ele>400.0</ele><time>2026-05-03T14:52:13.154Z</time></trkpt><trkpt lat="44.3347323" lon="8.3566904"><ele>401.0</ele><time>2026-05-03T14:52:14.154Z</time></trkpt><trkpt lat="44.3347861" lon="8.3569305"><ele>402.0</ele><time>2026-05-03T14:52:15.155Z</time></trkpt><trkpt lat="44.3348412" lon="8.3571649"><ele>403.0</ele><time>2026-05-03T14:52:16.154Z</time></trkpt><trkpt lat="44.3348904" lon="8.3573932"><ele>403.0</ele><time>2026-05-03T14:52:17.154Z</time></trkpt><trkpt lat="44.3349405" lon="8.3576169"><ele>403.0</ele><time>2026-05-03T14:52:18.155Z</time></trkpt><trkpt lat="44.3349887" lon="8.3578346"><ele>403.0</ele><time>2026-05-03T14:52:19.154Z</time></trkpt><trkpt lat="44.335017" lon="8.3580336"><ele>402.2</ele><time>2026-05-03T14:52:20.154Z</time></trkpt><trkpt lat="44.3350262" lon="8.3582099"><ele>401.4</ele><time>2026-05-03T14:52:21.154Z</time></trkpt><trkpt lat="44.3350207" lon="8.3583646"><ele>400.59999999999997</ele><time>2026-05-03T14:52:22.154Z</time></trkpt><trkpt lat="44.3350013" lon="8.358486"><ele>399.79999999999995</ele><time>2026-05-03T14:52:23.154Z</time></trkpt><trkpt lat="44.3349791" lon="8.3586051"><ele>399.0</ele><time>2026-05-03T14:52:24.154Z</time></trkpt><trkpt lat="44.3349522" lon="8.3587205"><ele>399.0</ele><time>2026-05-03T14:52:25.155Z</time></trkpt><trkpt lat="44.3349294" lon="8.3588515"><ele>399.0</ele><time>2026-05-03T14:52:26.154Z</time></trkpt><trkpt lat="44.3349018" lon="8.3589975"><ele>399.0</ele><time>2026-05-03T14:52:27.154Z</time></trkpt><trkpt lat="44.3348715" lon="8.3591635"><ele>399.0</ele><time>2026-05-03T14:52:28.155Z</time></trkpt><trkpt lat="44.3348315" lon="8.3593396"><ele>399.75</ele><time>2026-05-03T14:52:29.154Z</time></trkpt><trkpt lat="44.3347888" lon="8.359512"><ele>400.5</ele><time>2026-05-03T14:52:30.154Z</time></trkpt><trkpt lat="44.334742" lon="8.3596913"><ele>401.25</ele><time>2026-05-03T14:52:31.155Z</time></trkpt><trkpt lat="44.334697" lon="8.3598837"><ele>402.0</ele><time>2026-05-03T14:52:32.154Z</time></trkpt><trkpt lat="44.3346573" lon="8.3600839"><ele>396.0</ele><time>2026-05-03T14:52:33.155Z</time></trkpt><trkpt lat="44.3346214" lon="8.3602843"><ele>390.0</ele><time>2026-05-03T14:52:34.154Z</time></trkpt><trkpt lat="44.3346085" lon="8.3604941"><ele>384.0</ele><time>2026-05-03T14:52:35.154Z</time></trkpt><trkpt lat="44.3346244" lon="8.3607124"><ele>384.0</ele><time>2026-05-03T14:52:36.155Z</time></trkpt><trkpt lat="44.334666" lon="8.3609372"><ele>384.0</ele><time>2026-05-03T14:52:37.154Z</time></trkpt><trkpt lat="44.334722" lon="8.3611681"><ele>384.0</ele><time>2026-05-03T14:52:38.154Z</time></trkpt><trkpt lat="44.3347805" lon="8.3613973"><ele>389.66666666666663</ele><time>2026-05-03T14:52:39.155Z</time></trkpt><trkpt lat="44.3348389" lon="8.3616454"><ele>395.3333333333333</ele><time>2026-05-03T14:52:40.154Z</time></trkpt><trkpt lat="44.3348953" lon="8.3618935"><ele>401.0</ele><time>2026-05-03T14:52:41.154Z</time></trkpt><trkpt lat="44.3349479" lon="8.3621337"><ele>395.0</ele><time>2026-05-03T14:52:42.154Z</time></trkpt><trkpt lat="44.3350049" lon="8.3623751"><ele>389.0</ele><time>2026-05-03T14:52:43.154Z</time></trkpt><trkpt lat="44.3350676" lon="8.3626236"><ele>383.0</ele><time>2026-05-03T14:52:44.155Z</time></trkpt><trkpt lat="44.3351365" lon="8.362871"><ele>379.33333333333337</ele><time>2026-05-03T14:52:45.154Z</time></trkpt><trkpt lat="44.3351982" lon="8.3631346"><ele>375.6666666666667</ele><time>2026-05-03T14:52:46.155Z</time></trkpt><trkpt lat="44.3352458" lon="8.3633966"><ele>372.0</ele><time>2026-05-03T14:52:47.154Z</time></trkpt><trkpt lat="44.3352742" lon="8.3636555"><ele>370.0</ele><time>2026-05-03T14:52:48.155Z</time></trkpt><trkpt lat="44.335253" lon="8.3639111"><ele>368.0</ele><time>2026-05-03T14:52:49.155Z</time></trkpt><trkpt lat="44.3351944" lon="8.3641534"><ele>366.0</ele><time>2026-05-03T14:52:50.154Z</time></trkpt><trkpt lat="44.3351274" lon="8.3643948"><ele>366.0</ele><time>2026-05-03T14:52:51.155Z</time></trkpt><trkpt lat="44.3350645" lon="8.3646375"><ele>366.0</ele><time>2026-05-03T14:52:52.154Z</time></trkpt><trkpt lat="44.3350227" lon="8.3648841"><ele>366.0</ele><time>2026-05-03T14:52:53.155Z</time></trkpt><trkpt lat="44.3350109" lon="8.3651354"><ele>366.6666666666667</ele><time>2026-05-03T14:52:54.154Z</time></trkpt><trkpt lat="44.335031" lon="8.365383"><ele>367.33333333333337</ele><time>2026-05-03T14:52:55.155Z</time></trkpt><trkpt lat="44.3351115" lon="8.3656088"><ele>368.0</ele><time>2026-05-03T14:52:56.154Z</time></trkpt><trkpt lat="44.3352251" lon="8.3658124"><ele>368.0</ele><time>2026-05-03T14:52:57.154Z</time></trkpt><trkpt lat="44.3352984" lon="8.3660433"><ele>368.0</ele><time>2026-05-03T14:52:58.156Z</time></trkpt><trkpt lat="44.3353355" lon="8.3662962"><ele>368.0</ele><time>2026-05-03T14:52:59.154Z</time></trkpt><trkpt lat="44.3353461" lon="8.3665567"><ele>362.33333333333337</ele><time>2026-05-03T14:53:00.154Z</time></trkpt><trkpt lat="44.3353408" lon="8.3668209"><ele>356.6666666666667</ele><time>2026-05-03T14:53:01.154Z</time></trkpt><trkpt lat="44.33534" lon="8.3670921"><ele>351.0</ele><time>2026-05-03T14:53:02.154Z</time></trkpt><trkpt lat="44.3353601" lon="8.3673557"><ele>349.3333333333333</ele><time>2026-05-03T14:53:03.154Z</time></trkpt><trkpt lat="44.3354068" lon="8.367619"><ele>347.66666666666663</ele><time>2026-05-03T14:53:04.154Z</time></trkpt><trkpt lat="44.3354819" lon="8.3678653"><ele>346.0</ele><time>2026-05-03T14:53:05.154Z</time></trkpt><trkpt lat="44.3355882" lon="8.3680898"><ele>350.3333333333333</ele><time>2026-05-03T14:53:06.154Z</time></trkpt><trkpt lat="44.3357148" lon="8.3682817"><ele>354.6666666666667</ele><time>2026-05-03T14:53:07.155Z</time></trkpt><trkpt lat="44.3358674" lon="8.3684446"><ele>359.0</ele><time>2026-05-03T14:53:08.154Z</time></trkpt><trkpt lat="44.3360343" lon="8.3685646"><ele>359.0</ele><time>2026-05-03T14:53:09.154Z</time></trkpt><trkpt lat="44.3362051" lon="8.3686677"><ele>359.0</ele><time>2026-05-03T14:53:10.155Z</time></trkpt><trkpt lat="44.3363603" lon="8.368796"><ele>359.0</ele><time>2026-05-03T14:53:11.154Z</time></trkpt><trkpt lat="44.3364898" lon="8.3689535"><ele>356.33333333333337</ele><time>2026-05-03T14:53:12.154Z</time></trkpt><trkpt lat="44.3365883" lon="8.3691346"><ele>353.6666666666667</ele><time>2026-05-03T14:53:13.154Z</time></trkpt><trkpt lat="44.3366691" lon="8.3693341"><ele>351.0</ele><time>2026-05-03T14:53:14.155Z</time></trkpt><trkpt lat="44.3367256" lon="8.3695486"><ele>349.3333333333333</ele><time>2026-05-03T14:53:15.155Z</time></trkpt><trkpt lat="44.3367478" lon="8.3697717"><ele>347.66666666666663</ele><time>2026-05-03T14:53:16.154Z</time></trkpt><trkpt lat="44.3367259" lon="8.3700002"><ele>346.0</ele><time>2026-05-03T14:53:17.154Z</time></trkpt><trkpt lat="44.3366636" lon="8.3702144"><ele>346.0</ele><time>2026-05-03T14:53:18.154Z</time></trkpt><trkpt lat="44.3365733" lon="8.3704155"><ele>346.0</ele><time>2026-05-03T14:53:19.154Z</time></trkpt><trkpt lat="44.3364699" lon="8.3706145"><ele>346.0</ele><time>2026-05-03T14:53:20.154Z</time></trkpt><trkpt lat="44.3363712" lon="8.3708201"><ele>342.66666666666663</ele><time>2026-05-03T14:53:21.154Z</time></trkpt><trkpt lat="44.336279" lon="8.3710344"><ele>339.3333333333333</ele><time>2026-05-03T14:53:22.154Z</time></trkpt><trkpt lat="44.3361959" lon="8.3712486"><ele>336.0</ele><time>2026-05-03T14:53:23.154Z</time></trkpt><trkpt lat="44.3361245" lon="8.3714615"><ele>336.0</ele><time>2026-05-03T14:53:24.155Z</time></trkpt><trkpt lat="44.3360675" lon="8.3716719"><ele>336.0</ele><time>2026-05-03T14:53:25.154Z</time></trkpt><trkpt lat="44.3360194" lon="8.3718789"><ele>336.0</ele><time>2026-05-03T14:53:26.154Z</time></trkpt><trkpt lat="44.33598" lon="8.3720808"><ele>337.0</ele><time>2026-05-03T14:53:27.154Z</time></trkpt><trkpt lat="44.3359488" lon="8.372284"><ele>338.0</ele><time>2026-05-03T14:53:28.154Z</time></trkpt><trkpt lat="44.3359232" lon="8.3724836"><ele>339.0</ele><time>2026-05-03T14:53:29.155Z</time></trkpt><trkpt lat="44.3359029" lon="8.372679"><ele>340.0</ele><time>2026-05-03T14:53:30.154Z</time></trkpt><trkpt lat="44.3358864" lon="8.3728655"><ele>341.25</ele><time>2026-05-03T14:53:31.155Z</time></trkpt><trkpt lat="44.3358733" lon="8.3730418"><ele>342.5</ele><time>2026-05-03T14:53:32.154Z</time></trkpt><trkpt lat="44.3358617" lon="8.3732084"><ele>343.75</ele><time>2026-05-03T14:53:33.154Z</time></trkpt><trkpt lat="44.3358523" lon="8.3733654"><ele>345.0</ele><time>2026-05-03T14:53:34.154Z</time></trkpt><trkpt lat="44.3358445" lon="8.3735156"><ele>345.0</ele><time>2026-05-03T14:53:35.154Z</time></trkpt><trkpt lat="44.3358311" lon="8.3736607"><ele>345.0</ele><time>2026-05-03T14:53:36.154Z</time></trkpt><trkpt lat="44.335805" lon="8.3737938"><ele>345.0</ele><time>2026-05-03T14:53:37.154Z</time></trkpt><trkpt lat="44.3357566" lon="8.3739112"><ele>345.0</ele><time>2026-05-03T14:53:38.154Z</time></trkpt><trkpt lat="44.3356809" lon="8.3740017"><ele>345.0</ele><time>2026-05-03T14:53:39.155Z</time></trkpt><trkpt lat="44.3355965" lon="8.3740585"><ele>346.0</ele><time>2026-05-03T14:53:40.154Z</time></trkpt><trkpt lat="44.3355092" lon="8.3740802"><ele>347.0</ele><time>2026-05-03T14:53:41.154Z</time></trkpt><trkpt lat="44.3354246" lon="8.3740765"><ele>348.0</ele><time>2026-05-03T14:53:42.154Z</time></trkpt><trkpt lat="44.3353346" lon="8.3740645"><ele>349.0</ele><time>2026-05-03T14:53:43.155Z</time></trkpt><trkpt lat="44.3352516" lon="8.3740634"><ele>350.0</ele><time>2026-05-03T14:53:44.154Z</time></trkpt><trkpt lat="44.3351823" lon="8.374077"><ele>351.0</ele><time>2026-05-03T14:53:45.154Z</time></trkpt><trkpt lat="44.3351152" lon="8.3741022"><ele>351.0</ele><time>2026-05-03T14:53:46.154Z</time></trkpt><trkpt lat="44.3350269" lon="8.3741786"><ele>351.0</ele><time>2026-05-03T14:53:48.154Z</time></trkpt><trkpt lat="44.3349756" lon="8.3742561"><ele>351.0</ele><time>2026-05-03T14:53:50.154Z</time></trkpt><trkpt lat="44.3349478" lon="8.3743784"><ele>351.0</ele><time>2026-05-03T14:53:52.154Z</time></trkpt><trkpt lat="44.3349424" lon="8.3744751"><ele>351.0</ele><time>2026-05-03T14:53:53.154Z</time></trkpt><trkpt lat="44.334944" lon="8.3746037"><ele>351.0</ele><time>2026-05-03T14:53:54.154Z</time></trkpt><trkpt lat="44.3349501" lon="8.3747553"><ele>350.5</ele><time>2026-05-03T14:53:55.154Z</time></trkpt><trkpt lat="44.3349341" lon="8.3751851"><ele>350.0</ele><time>2026-05-03T14:53:58.077Z</time></trkpt><trkpt lat="44.3348844" lon="8.3754914"><ele>350.0</ele><time>2026-05-03T14:53:59.155Z</time></trkpt><trkpt lat="44.3348498" lon="8.3756789"><ele>350.0</ele><time>2026-05-03T14:54:00.154Z</time></trkpt><trkpt lat="44.3348106" lon="8.3758682"><ele>350.0</ele><time>2026-05-03T14:54:01.154Z</time></trkpt><trkpt lat="44.334766" lon="8.3760347"><ele>350.0</ele><time>2026-05-03T14:54:02.155Z</time></trkpt><trkpt lat="44.3347267" lon="8.3762047"><ele>347.25</ele><time>2026-05-03T14:54:03.154Z</time></trkpt><trkpt lat="44.3346889" lon="8.3763671"><ele>344.5</ele><time>2026-05-03T14:54:04.154Z</time></trkpt><trkpt lat="44.3346357" lon="8.3765168"><ele>341.75</ele><time>2026-05-03T14:54:05.154Z</time></trkpt><trkpt lat="44.3346009" lon="8.3766713"><ele>339.0</ele><time>2026-05-03T14:54:06.154Z</time></trkpt><trkpt lat="44.3345811" lon="8.3768234"><ele>339.0</ele><time>2026-05-03T14:54:07.154Z</time></trkpt><trkpt lat="44.3345746" lon="8.3769664"><ele>339.0</ele><time>2026-05-03T14:54:08.155Z</time></trkpt><trkpt lat="44.334585" lon="8.377109"><ele>339.0</ele><time>2026-05-03T14:54:09.155Z</time></trkpt><trkpt lat="44.3346009" lon="8.3772556"><ele>339.0</ele><time>2026-05-03T14:54:10.155Z</time></trkpt><trkpt lat="44.3346234" lon="8.3774197"><ele>339.0</ele><time>2026-05-03T14:54:11.154Z</time></trkpt><trkpt lat="44.3346335" lon="8.3776013"><ele>337.5</ele><time>2026-05-03T14:54:12.154Z</time></trkpt><trkpt lat="44.3346446" lon="8.3777894"><ele>336.0</ele><time>2026-05-03T14:54:13.154Z</time></trkpt><trkpt lat="44.3346629" lon="8.3779763"><ele>334.5</ele><time>2026-05-03T14:54:14.154Z</time></trkpt><trkpt lat="44.3346844" lon="8.3781514"><ele>333.0</ele><time>2026-05-03T14:54:15.154Z</time></trkpt><trkpt lat="44.3346953" lon="8.3783219"><ele>334.0</ele><time>2026-05-03T14:54:16.154Z</time></trkpt><trkpt lat="44.3346914" lon="8.3784895"><ele>335.0</ele><time>2026-05-03T14:54:17.154Z</time></trkpt><trkpt lat="44.334672" lon="8.3786508"><ele>336.0</ele><time>2026-05-03T14:54:18.154Z</time></trkpt><trkpt lat="44.3346308" lon="8.3788093"><ele>337.0</ele><time>2026-05-03T14:54:19.154Z</time></trkpt><trkpt lat="44.3345689" lon="8.3789731"><ele>337.0</ele><time>2026-05-03T14:54:20.154Z</time></trkpt><trkpt lat="44.3345062" lon="8.3791344"><ele>337.0</ele><time>2026-05-03T14:54:21.154Z</time></trkpt><trkpt lat="44.3344351" lon="8.379274"><ele>337.0</ele><time>2026-05-03T14:54:22.154Z</time></trkpt><trkpt lat="44.3343573" lon="8.3793955"><ele>337.0</ele><time>2026-05-03T14:54:23.154Z</time></trkpt><trkpt lat="44.3342776" lon="8.3794815"><ele>337.0</ele><time>2026-05-03T14:54:24.155Z</time></trkpt><trkpt lat="44.3342012" lon="8.3795494"><ele>337.0</ele><time>2026-05-03T14:54:25.154Z</time></trkpt><trkpt lat="44.3341246" lon="8.3795964"><ele>337.0</ele><time>2026-05-03T14:54:26.154Z</time></trkpt><trkpt lat="44.3340491" lon="8.3796248"><ele>337.0</ele><time>2026-05-03T14:54:27.154Z</time></trkpt><trkpt lat="44.3339775" lon="8.3796638"><ele>337.0</ele><time>2026-05-03T14:54:28.155Z</time></trkpt><trkpt lat="44.3339037" lon="8.3797042"><ele>337.0</ele><time>2026-05-03T14:54:29.154Z</time></trkpt><trkpt lat="44.3338335" lon="8.3797597"><ele>335.5</ele><time>2026-05-03T14:54:30.155Z</time></trkpt><trkpt lat="44.3337766" lon="8.3798333"><ele>334.0</ele><time>2026-05-03T14:54:31.154Z</time></trkpt><trkpt lat="44.3337254" lon="8.3799229"><ele>332.5</ele><time>2026-05-03T14:54:32.154Z</time></trkpt><trkpt lat="44.3336914" lon="8.3800193"><ele>331.0</ele><time>2026-05-03T14:54:33.154Z</time></trkpt><trkpt lat="44.3336522" lon="8.3801391"><ele>329.5</ele><time>2026-05-03T14:54:34.154Z</time></trkpt><trkpt lat="44.3336103" lon="8.3802654"><ele>328.0</ele><time>2026-05-03T14:54:35.155Z</time></trkpt><trkpt lat="44.3335665" lon="8.3803784"><ele>328.0</ele><time>2026-05-03T14:54:36.154Z</time></trkpt><trkpt lat="44.3335259" lon="8.3804959"><ele>328.0</ele><time>2026-05-03T14:54:37.154Z</time></trkpt><trkpt lat="44.3334844" lon="8.3806185"><ele>328.0</ele><time>2026-05-03T14:54:38.154Z</time></trkpt><trkpt lat="44.3334433" lon="8.3807482"><ele>328.0</ele><time>2026-05-03T14:54:39.155Z</time></trkpt><trkpt lat="44.3333949" lon="8.3808966"><ele>328.0</ele><time>2026-05-03T14:54:40.154Z</time></trkpt><trkpt lat="44.3333314" lon="8.3810815"><ele>331.25</ele><time>2026-05-03T14:54:41.154Z</time></trkpt><trkpt lat="44.3332586" lon="8.381246"><ele>334.5</ele><time>2026-05-03T14:54:42.155Z</time></trkpt><trkpt lat="44.3331753" lon="8.3813799"><ele>337.75</ele><time>2026-05-03T14:54:43.155Z</time></trkpt><trkpt lat="44.3330792" lon="8.3814807"><ele>341.0</ele><time>2026-05-03T14:54:44.154Z</time></trkpt><trkpt lat="44.3329753" lon="8.3815477"><ele>341.25</ele><time>2026-05-03T14:54:45.154Z</time></trkpt><trkpt lat="44.332864" lon="8.3815845"><ele>341.5</ele><time>2026-05-03T14:54:46.154Z</time></trkpt><trkpt lat="44.3327482" lon="8.3815904"><ele>341.75</ele><time>2026-05-03T14:54:47.154Z</time></trkpt><trkpt lat="44.3326332" lon="8.3815935"><ele>342.0</ele><time>2026-05-03T14:54:48.154Z</time></trkpt><trkpt lat="44.332528" lon="8.3816084"><ele>342.0</ele><time>2026-05-03T14:54:49.154Z</time></trkpt><trkpt lat="44.3324397" lon="8.3816393"><ele>342.0</ele><time>2026-05-03T14:54:50.154Z</time></trkpt><trkpt lat="44.3323587" lon="8.3816772"><ele>342.0</ele><time>2026-05-03T14:54:51.155Z</time></trkpt><trkpt lat="44.3322878" lon="8.3817328"><ele>342.0</ele><time>2026-05-03T14:54:52.154Z</time></trkpt><trkpt lat="44.332226" lon="8.3818089"><ele>342.0</ele><time>2026-05-03T14:54:53.155Z</time></trkpt><trkpt lat="44.3321968" lon="8.3819219"><ele>342.0</ele><time>2026-05-03T14:54:54.154Z</time></trkpt><trkpt lat="44.3321871" lon="8.3820398"><ele>340.20000000000005</ele><time>2026-05-03T14:54:55.155Z</time></trkpt><trkpt lat="44.3321941" lon="8.3821816"><ele>338.4</ele><time>2026-05-03T14:54:56.154Z</time></trkpt><trkpt lat="44.3322022" lon="8.3823204"><ele>336.6</ele><time>2026-05-03T14:54:57.154Z</time></trkpt><trkpt lat="44.3322045" lon="8.382457"><ele>334.79999999999995</ele><time>2026-05-03T14:54:58.155Z</time></trkpt><trkpt lat="44.3322042" lon="8.3825975"><ele>333.0</ele><time>2026-05-03T14:54:59.154Z</time></trkpt><trkpt lat="44.3321823" lon="8.3827307"><ele>331.0</ele><time>2026-05-03T14:55:00.154Z</time></trkpt><trkpt lat="44.3321492" lon="8.3828431"><ele>329.0</ele><time>2026-05-03T14:55:01.154Z</time></trkpt><trkpt lat="44.332114" lon="8.3829509"><ele>327.0</ele><time>2026-05-03T14:55:02.154Z</time></trkpt><trkpt lat="44.3320732" lon="8.3830507"><ele>325.0</ele><time>2026-05-03T14:55:03.155Z</time></trkpt><trkpt lat="44.3320486" lon="8.383152"><ele>323.0</ele><time>2026-05-03T14:55:04.154Z</time></trkpt><trkpt lat="44.3320303" lon="8.3832558"><ele>321.0</ele><time>2026-05-03T14:55:05.154Z</time></trkpt><trkpt lat="44.3320115" lon="8.3833763"><ele>321.0</ele><time>2026-05-03T14:55:06.154Z</time></trkpt><trkpt lat="44.3320024" lon="8.3834943"><ele>321.0</ele><time>2026-05-03T14:55:07.154Z</time></trkpt><trkpt lat="44.3320002" lon="8.3836105"><ele>321.0</ele><time>2026-05-03T14:55:08.154Z</time></trkpt><trkpt lat="44.3320075" lon="8.3837296"><ele>321.0</ele><time>2026-05-03T14:55:09.154Z</time></trkpt><trkpt lat="44.332018" lon="8.3838604"><ele>321.0</ele><time>2026-05-03T14:55:10.154Z</time></trkpt><trkpt lat="44.3320301" lon="8.3839914"><ele>321.0</ele><time>2026-05-03T14:55:11.154Z</time></trkpt><trkpt lat="44.3320395" lon="8.3841242"><ele>321.0</ele><time>2026-05-03T14:55:12.154Z</time></trkpt><trkpt lat="44.3320569" lon="8.3842541"><ele>321.0</ele><time>2026-05-03T14:55:13.155Z</time></trkpt><trkpt lat="44.3320757" lon="8.3843578"><ele>321.0</ele><time>2026-05-03T14:55:14.154Z</time></trkpt><trkpt lat="44.3321066" lon="8.3844823"><ele>321.0</ele><time>2026-05-03T14:55:15.155Z</time></trkpt><trkpt lat="44.3321489" lon="8.3846277"><ele>321.0</ele><time>2026-05-03T14:55:16.155Z</time></trkpt><trkpt lat="44.3322021" lon="8.3847721"><ele>323.5</ele><time>2026-05-03T14:55:17.154Z</time></trkpt><trkpt lat="44.3322641" lon="8.3849156"><ele>326.0</ele><time>2026-05-03T14:55:18.154Z</time></trkpt><trkpt lat="44.3323258" lon="8.3850652"><ele>328.5</ele><time>2026-05-03T14:55:19.154Z</time></trkpt><trkpt lat="44.3323805" lon="8.3852334"><ele>331.0</ele><time>2026-05-03T14:55:20.154Z</time></trkpt><trkpt lat="44.3324219" lon="8.3854347"><ele>327.66666666666663</ele><time>2026-05-03T14:55:21.154Z</time></trkpt><trkpt lat="44.3324483" lon="8.3856652"><ele>324.3333333333333</ele><time>2026-05-03T14:55:22.154Z</time></trkpt><trkpt lat="44.3324569" lon="8.3859082"><ele>321.0</ele><time>2026-05-03T14:55:23.154Z</time></trkpt><trkpt lat="44.3324557" lon="8.3861547"><ele>320.0</ele><time>2026-05-03T14:55:24.154Z</time></trkpt><trkpt lat="44.3324491" lon="8.3864124"><ele>319.0</ele><time>2026-05-03T14:55:25.154Z</time></trkpt><trkpt lat="44.3324421" lon="8.3866783"><ele>318.0</ele><time>2026-05-03T14:55:26.155Z</time></trkpt><trkpt lat="44.3324233" lon="8.3869532"><ele>317.3333333333333</ele><time>2026-05-03T14:55:27.154Z</time></trkpt><trkpt lat="44.3324063" lon="8.3872331"><ele>316.66666666666663</ele><time>2026-05-03T14:55:28.154Z</time></trkpt><trkpt lat="44.3323809" lon="8.3875153"><ele>316.0</ele><time>2026-05-03T14:55:29.154Z</time></trkpt><trkpt lat="44.3323598" lon="8.3877955"><ele>314.66666666666663</ele><time>2026-05-03T14:55:30.154Z</time></trkpt><trkpt lat="44.3323396" lon="8.3880761"><ele>313.3333333333333</ele><time>2026-05-03T14:55:31.154Z</time></trkpt><trkpt lat="44.3323141" lon="8.3883584"><ele>312.0</ele><time>2026-05-03T14:55:32.154Z</time></trkpt><trkpt lat="44.3322863" lon="8.3886329"><ele>309.6666666666667</ele><time>2026-05-03T14:55:33.154Z</time></trkpt><trkpt lat="44.3322584" lon="8.3888981"><ele>307.33333333333337</ele><time>2026-05-03T14:55:34.154Z</time></trkpt><trkpt lat="44.3322216" lon="8.3891552"><ele>305.0</ele><time>2026-05-03T14:55:35.154Z</time></trkpt><trkpt lat="44.3321857" lon="8.3894155"><ele>300.33333333333337</ele><time>2026-05-03T14:55:36.155Z</time></trkpt><trkpt lat="44.3321474" lon="8.3896783"><ele>295.6666666666667</ele><time>2026-05-03T14:55:37.154Z</time></trkpt><trkpt lat="44.3321076" lon="8.3899467"><ele>291.0</ele><time>2026-05-03T14:55:38.155Z</time></trkpt><trkpt lat="44.3320584" lon="8.3902182"><ele>291.0</ele><time>2026-05-03T14:55:39.154Z</time></trkpt><trkpt lat="44.3320025" lon="8.3904886"><ele>291.0</ele><time>2026-05-03T14:55:40.155Z</time></trkpt><trkpt lat="44.3319365" lon="8.3907569"><ele>291.0</ele><time>2026-05-03T14:55:41.154Z</time></trkpt><trkpt lat="44.3318754" lon="8.3910317"><ele>289.6666666666667</ele><time>2026-05-03T14:55:42.154Z</time></trkpt><trkpt lat="44.3318164" lon="8.3913091"><ele>288.33333333333337</ele><time>2026-05-03T14:55:43.154Z</time></trkpt><trkpt lat="44.331759" lon="8.3915855"><ele>287.0</ele><time>2026-05-03T14:55:44.154Z</time></trkpt><trkpt lat="44.3317044" lon="8.3918598"><ele>286.6666666666667</ele><time>2026-05-03T14:55:45.154Z</time></trkpt><trkpt lat="44.3316533" lon="8.3921362"><ele>286.3333333333333</ele><time>2026-05-03T14:55:46.154Z</time></trkpt><trkpt lat="44.3316025" lon="8.3924123"><ele>286.0</ele><time>2026-05-03T14:55:47.154Z</time></trkpt><trkpt lat="44.3315519" lon="8.3926918"><ele>284.66666666666663</ele><time>2026-05-03T14:55:48.154Z</time></trkpt><trkpt lat="44.3315012" lon="8.392973"><ele>283.3333333333333</ele><time>2026-05-03T14:55:49.154Z</time></trkpt><trkpt lat="44.3314502" lon="8.3932522"><ele>282.0</ele><time>2026-05-03T14:55:50.154Z</time></trkpt><trkpt lat="44.3313986" lon="8.3935263"><ele>282.0</ele><time>2026-05-03T14:55:51.154Z</time></trkpt><trkpt lat="44.3313424" lon="8.3937949"><ele>282.0</ele><time>2026-05-03T14:55:52.155Z</time></trkpt><trkpt lat="44.3312764" lon="8.3940616"><ele>282.0</ele><time>2026-05-03T14:55:53.154Z</time></trkpt><trkpt lat="44.3311892" lon="8.3943163"><ele>282.0</ele><time>2026-05-03T14:55:54.155Z</time></trkpt><trkpt lat="44.3310813" lon="8.3945582"><ele>282.0</ele><time>2026-05-03T14:55:55.154Z</time></trkpt><trkpt lat="44.3309744" lon="8.3947913"><ele>282.0</ele><time>2026-05-03T14:55:56.154Z</time></trkpt><trkpt lat="44.3308729" lon="8.3950224"><ele>280.6666666666667</ele><time>2026-05-03T14:55:57.154Z</time></trkpt><trkpt lat="44.3307794" lon="8.3952596"><ele>279.33333333333337</ele><time>2026-05-03T14:55:58.154Z</time></trkpt><trkpt lat="44.3307522" lon="8.3955013"><ele>278.0</ele><time>2026-05-03T14:55:59.154Z</time></trkpt><trkpt lat="44.3307722" lon="8.3957488"><ele>276.33333333333337</ele><time>2026-05-03T14:56:00.154Z</time></trkpt><trkpt lat="44.330801" lon="8.3959941"><ele>274.6666666666667</ele><time>2026-05-03T14:56:01.154Z</time></trkpt><trkpt lat="44.3308504" lon="8.3961938"><ele>273.0</ele><time>2026-05-03T14:56:02.154Z</time></trkpt><trkpt lat="44.3309216" lon="8.3963816"><ele>271.75</ele><time>2026-05-03T14:56:03.155Z</time></trkpt><trkpt lat="44.3310309" lon="8.3965268"><ele>270.5</ele><time>2026-05-03T14:56:04.154Z</time></trkpt><trkpt lat="44.3311703" lon="8.396588"><ele>269.25</ele><time>2026-05-03T14:56:05.155Z</time></trkpt><trkpt lat="44.331278" lon="8.3967149"><ele>268.0</ele><time>2026-05-03T14:56:06.154Z</time></trkpt><trkpt lat="44.3313588" lon="8.396869"><ele>268.0</ele><time>2026-05-03T14:56:07.154Z</time></trkpt><trkpt lat="44.3313894" lon="8.397063"><ele>268.0</ele><time>2026-05-03T14:56:08.154Z</time></trkpt><trkpt lat="44.331369" lon="8.3972848"><ele>268.0</ele><time>2026-05-03T14:56:09.154Z</time></trkpt><trkpt lat="44.331315" lon="8.3974999"><ele>267.3333333333333</ele><time>2026-05-03T14:56:10.154Z</time></trkpt><trkpt lat="44.3312328" lon="8.3976825"><ele>266.6666666666667</ele><time>2026-05-03T14:56:11.154Z</time></trkpt><trkpt lat="44.3311181" lon="8.3978282"><ele>266.0</ele><time>2026-05-03T14:56:12.154Z</time></trkpt><trkpt lat="44.3309839" lon="8.3979341"><ele>264.5</ele><time>2026-05-03T14:56:13.154Z</time></trkpt><trkpt lat="44.3308615" lon="8.398048"><ele>263.0</ele><time>2026-05-03T14:56:14.154Z</time></trkpt><trkpt lat="44.330777" lon="8.3982113"><ele>261.5</ele><time>2026-05-03T14:56:15.154Z</time></trkpt><trkpt lat="44.3307284" lon="8.3984173"><ele>260.0</ele><time>2026-05-03T14:56:16.155Z</time></trkpt><trkpt lat="44.3307039" lon="8.3986591"><ele>258.6666666666667</ele><time>2026-05-03T14:56:17.154Z</time></trkpt><trkpt lat="44.3306888" lon="8.398912"><ele>257.3333333333333</ele><time>2026-05-03T14:56:18.154Z</time></trkpt><trkpt lat="44.3306791" lon="8.399165"><ele>256.0</ele><time>2026-05-03T14:56:19.154Z</time></trkpt><trkpt lat="44.3306845" lon="8.3994133"><ele>256.0</ele><time>2026-05-03T14:56:20.155Z</time></trkpt><trkpt lat="44.330698" lon="8.3996543"><ele>256.0</ele><time>2026-05-03T14:56:21.155Z</time></trkpt><trkpt lat="44.3307407" lon="8.3998875"><ele>256.0</ele><time>2026-05-03T14:56:22.155Z</time></trkpt><trkpt lat="44.3308489" lon="8.4000925"><ele>256.3333333333333</ele><time>2026-05-03T14:56:23.154Z</time></trkpt><trkpt lat="44.3309614" lon="8.4002939"><ele>256.6666666666667</ele><time>2026-05-03T14:56:24.154Z</time></trkpt><trkpt lat="44.3310809" lon="8.4005019"><ele>257.0</ele><time>2026-05-03T14:56:25.155Z</time></trkpt><trkpt lat="44.3312091" lon="8.4006944"><ele>257.0</ele><time>2026-05-03T14:56:26.154Z</time></trkpt><trkpt lat="44.3313456" lon="8.4008962"><ele>257.0</ele><time>2026-05-03T14:56:27.154Z</time></trkpt><trkpt lat="44.331474" lon="8.4011035"><ele>257.0</ele><time>2026-05-03T14:56:28.154Z</time></trkpt><trkpt lat="44.3315823" lon="8.4012928"><ele>252.0</ele><time>2026-05-03T14:56:29.154Z</time></trkpt><trkpt lat="44.3316966" lon="8.4014634"><ele>247.0</ele><time>2026-05-03T14:56:30.154Z</time></trkpt><trkpt lat="44.3317811" lon="8.4016446"><ele>242.0</ele><time>2026-05-03T14:56:31.154Z</time></trkpt><trkpt lat="44.3318525" lon="8.4018458"><ele>242.0</ele><time>2026-05-03T14:56:32.154Z</time></trkpt><trkpt lat="44.331894" lon="8.4020672"><ele>242.0</ele><time>2026-05-03T14:56:33.154Z</time></trkpt><trkpt lat="44.3319138" lon="8.4022789"><ele>242.0</ele><time>2026-05-03T14:56:34.154Z</time></trkpt><trkpt lat="44.3318989" lon="8.4025046"><ele>241.33333333333334</ele><time>2026-05-03T14:56:35.154Z</time></trkpt><trkpt lat="44.331856" lon="8.4027299"><ele>240.66666666666669</ele><time>2026-05-03T14:56:36.154Z</time></trkpt><trkpt lat="44.3317783" lon="8.4029479"><ele>240.0</ele><time>2026-05-03T14:56:37.154Z</time></trkpt><trkpt lat="44.3317005" lon="8.4031595"><ele>239.0</ele><time>2026-05-03T14:56:38.154Z</time></trkpt><trkpt lat="44.3315901" lon="8.403387"><ele>238.0</ele><time>2026-05-03T14:56:39.154Z</time></trkpt><trkpt lat="44.3314972" lon="8.4036175"><ele>237.0</ele><time>2026-05-03T14:56:40.154Z</time></trkpt><trkpt lat="44.3313991" lon="8.4038595"><ele>237.66666666666669</ele><time>2026-05-03T14:56:41.154Z</time></trkpt><trkpt lat="44.3312923" lon="8.4040951"><ele>238.33333333333334</ele><time>2026-05-03T14:56:42.154Z</time></trkpt><trkpt lat="44.3311845" lon="8.4043221"><ele>239.0</ele><time>2026-05-03T14:56:43.154Z</time></trkpt><trkpt lat="44.3310766" lon="8.4045618"><ele>237.0</ele><time>2026-05-03T14:56:44.154Z</time></trkpt><trkpt lat="44.3309723" lon="8.4048005"><ele>235.0</ele><time>2026-05-03T14:56:45.155Z</time></trkpt><trkpt lat="44.3308698" lon="8.4050246"><ele>233.0</ele><time>2026-05-03T14:56:46.154Z</time></trkpt><trkpt lat="44.3307688" lon="8.4052478"><ele>233.0</ele><time>2026-05-03T14:56:47.154Z</time></trkpt><trkpt lat="44.3306753" lon="8.4054706"><ele>233.0</ele><time>2026-05-03T14:56:48.154Z</time></trkpt><trkpt lat="44.3305919" lon="8.4056825"><ele>233.0</ele><time>2026-05-03T14:56:49.154Z</time></trkpt><trkpt lat="44.3304995" lon="8.4058801"><ele>234.66666666666669</ele><time>2026-05-03T14:56:50.154Z</time></trkpt><trkpt lat="44.3304193" lon="8.4060743"><ele>236.33333333333331</ele><time>2026-05-03T14:56:51.154Z</time></trkpt><trkpt lat="44.3303407" lon="8.4062603"><ele>238.0</ele><time>2026-05-03T14:56:52.154Z</time></trkpt><trkpt lat="44.3302581" lon="8.406436"><ele>235.0</ele><time>2026-05-03T14:56:53.155Z</time></trkpt><trkpt lat="44.3301608" lon="8.4065668"><ele>232.0</ele><time>2026-05-03T14:56:54.154Z</time></trkpt><trkpt lat="44.3300545" lon="8.4066375"><ele>229.0</ele><time>2026-05-03T14:56:55.154Z</time></trkpt><trkpt lat="44.3299463" lon="8.4067211"><ele>226.0</ele><time>2026-05-03T14:56:56.155Z</time></trkpt><trkpt lat="44.3297887" lon="8.4065739"><ele>228.0</ele><time>2026-05-03T14:56:57.154Z</time></trkpt><trkpt lat="44.3296553" lon="8.4065736"><ele>230.0</ele><time>2026-05-03T14:56:58.154Z</time></trkpt><trkpt lat="44.3295334" lon="8.4065955"><ele>232.0</ele><time>2026-05-03T14:56:59.154Z</time></trkpt><trkpt lat="44.3294355" lon="8.4066815"><ele>234.0</ele><time>2026-05-03T14:57:00.154Z</time></trkpt><trkpt lat="44.3293371" lon="8.4067726"><ele>234.0</ele><time>2026-05-03T14:57:01.154Z</time></trkpt><trkpt lat="44.329308" lon="8.4070323"><ele>234.0</ele><time>2026-05-03T14:57:02.154Z</time></trkpt><trkpt lat="44.3292698" lon="8.4072307"><ele>234.0</ele><time>2026-05-03T14:57:03.155Z</time></trkpt><trkpt lat="44.3291781" lon="8.4074317"><ele>233.66666666666669</ele><time>2026-05-03T14:57:04.154Z</time></trkpt><trkpt lat="44.3290633" lon="8.4076092"><ele>233.33333333333334</ele><time>2026-05-03T14:57:05.154Z</time></trkpt><trkpt lat="44.3289593" lon="8.4077771"><ele>233.0</ele><time>2026-05-03T14:57:06.154Z</time></trkpt><trkpt lat="44.3288108" lon="8.4078752"><ele>227.66666666666669</ele><time>2026-05-03T14:57:07.155Z</time></trkpt><trkpt lat="44.3287117" lon="8.4080477"><ele>222.33333333333331</ele><time>2026-05-03T14:57:08.154Z</time></trkpt><trkpt lat="44.3286002" lon="8.4082087"><ele>217.0</ele><time>2026-05-03T14:57:09.154Z</time></trkpt><trkpt lat="44.3285273" lon="8.4084161"><ele>217.0</ele><time>2026-05-03T14:57:10.155Z</time></trkpt><trkpt lat="44.3285056" lon="8.4086445"><ele>217.0</ele><time>2026-05-03T14:57:11.155Z</time></trkpt><trkpt lat="44.3286371" lon="8.4089217"><ele>217.0</ele><time>2026-05-03T14:57:12.154Z</time></trkpt><trkpt lat="44.3285925" lon="8.4091512"><ele>216.33333333333331</ele><time>2026-05-03T14:57:13.154Z</time></trkpt><trkpt lat="44.3285384" lon="8.409365"><ele>215.66666666666669</ele><time>2026-05-03T14:57:14.154Z</time></trkpt><trkpt lat="44.328488" lon="8.4095691"><ele>215.0</ele><time>2026-05-03T14:57:15.154Z</time></trkpt><trkpt lat="44.3284524" lon="8.4097748"><ele>213.66666666666669</ele><time>2026-05-03T14:57:16.155Z</time></trkpt><trkpt lat="44.3284189" lon="8.4100082"><ele>212.33333333333331</ele><time>2026-05-03T14:57:17.154Z</time></trkpt><trkpt lat="44.3284162" lon="8.4102178"><ele>211.0</ele><time>2026-05-03T14:57:18.154Z</time></trkpt><trkpt lat="44.3286474" lon="8.4103074"><ele>211.0</ele><time>2026-05-03T14:57:19.154Z</time></trkpt><trkpt lat="44.3287316" lon="8.4104901"><ele>211.0</ele><time>2026-05-03T14:57:20.154Z</time></trkpt><trkpt lat="44.3288205" lon="8.4106551"><ele>211.0</ele><time>2026-05-03T14:57:21.155Z</time></trkpt><trkpt lat="44.3288856" lon="8.410816"><ele>211.0</ele><time>2026-05-03T14:57:22.154Z</time></trkpt><trkpt lat="44.3289288" lon="8.4109801"><ele>208.75</ele><time>2026-05-03T14:57:23.154Z</time></trkpt><trkpt lat="44.3289185" lon="8.4111381"><ele>206.5</ele><time>2026-05-03T14:57:24.155Z</time></trkpt><trkpt lat="44.3288663" lon="8.4112853"><ele>204.25</ele><time>2026-05-03T14:57:25.155Z</time></trkpt><trkpt lat="44.32877" lon="8.4114036"><ele>202.0</ele><time>2026-05-03T14:57:26.154Z</time></trkpt><trkpt lat="44.3286393" lon="8.4114815"><ele>201.0</ele><time>2026-05-03T14:57:27.154Z</time></trkpt><trkpt lat="44.3284848" lon="8.4115473"><ele>200.0</ele><time>2026-05-03T14:57:28.154Z</time></trkpt><trkpt lat="44.3283303" lon="8.4116354"><ele>199.0</ele><time>2026-05-03T14:57:29.154Z</time></trkpt><trkpt lat="44.3281761" lon="8.4117627"><ele>197.66666666666666</ele><time>2026-05-03T14:57:30.154Z</time></trkpt><trkpt lat="44.3280298" lon="8.4118909"><ele>196.33333333333331</ele><time>2026-05-03T14:57:31.154Z</time></trkpt><trkpt lat="44.3278774" lon="8.4120541"><ele>195.0</ele><time>2026-05-03T14:57:32.154Z</time></trkpt><trkpt lat="44.3277314" lon="8.4122071"><ele>195.0</ele><time>2026-05-03T14:57:33.155Z</time></trkpt><trkpt lat="44.3275716" lon="8.4123484"><ele>195.0</ele><time>2026-05-03T14:57:34.154Z</time></trkpt><trkpt lat="44.3274057" lon="8.4124561"><ele>195.0</ele><time>2026-05-03T14:57:35.154Z</time></trkpt><trkpt lat="44.3272492" lon="8.412539"><ele>193.0</ele><time>2026-05-03T14:57:36.154Z</time></trkpt><trkpt lat="44.3271178" lon="8.4126624"><ele>191.0</ele><time>2026-05-03T14:57:37.154Z</time></trkpt><trkpt lat="44.3270249" lon="8.4128273"><ele>189.0</ele><time>2026-05-03T14:57:38.154Z</time></trkpt><trkpt lat="44.3269555" lon="8.4130062"><ele>189.0</ele><time>2026-05-03T14:57:39.155Z</time></trkpt><trkpt lat="44.3268785" lon="8.4132012"><ele>189.0</ele><time>2026-05-03T14:57:40.154Z</time></trkpt><trkpt lat="44.3267749" lon="8.4133711"><ele>189.0</ele><time>2026-05-03T14:57:41.154Z</time></trkpt><trkpt lat="44.3266442" lon="8.4135075"><ele>189.0</ele><time>2026-05-03T14:57:42.155Z</time></trkpt><trkpt lat="44.3265181" lon="8.4136467"><ele>189.0</ele><time>2026-05-03T14:57:43.154Z</time></trkpt><trkpt lat="44.326409" lon="8.4138168"><ele>189.0</ele><time>2026-05-03T14:57:44.154Z</time></trkpt><trkpt lat="44.3262955" lon="8.4140062"><ele>188.33333333333334</ele><time>2026-05-03T14:57:45.155Z</time></trkpt><trkpt lat="44.3261826" lon="8.4142069"><ele>187.66666666666669</ele><time>2026-05-03T14:57:46.154Z</time></trkpt><trkpt lat="44.3261715" lon="8.4144759"><ele>187.0</ele><time>2026-05-03T14:57:47.154Z</time></trkpt><trkpt lat="44.3261657" lon="8.4147412"><ele>184.66666666666669</ele><time>2026-05-03T14:57:48.154Z</time></trkpt><trkpt lat="44.326133" lon="8.4149947"><ele>182.33333333333334</ele><time>2026-05-03T14:57:49.154Z</time></trkpt><trkpt lat="44.3260863" lon="8.415241"><ele>180.0</ele><time>2026-05-03T14:57:50.155Z</time></trkpt><trkpt lat="44.3260467" lon="8.4154634"><ele>180.25</ele><time>2026-05-03T14:57:51.154Z</time></trkpt><trkpt lat="44.3260142" lon="8.4156678"><ele>180.5</ele><time>2026-05-03T14:57:52.154Z</time></trkpt><trkpt lat="44.3259812" lon="8.4158651"><ele>180.75</ele><time>2026-05-03T14:57:53.154Z</time></trkpt><trkpt lat="44.3259473" lon="8.416062"><ele>181.0</ele><time>2026-05-03T14:57:54.154Z</time></trkpt><trkpt lat="44.3259136" lon="8.4162588"><ele>182.66666666666669</ele><time>2026-05-03T14:57:55.154Z</time></trkpt><trkpt lat="44.3258827" lon="8.4164617"><ele>184.33333333333334</ele><time>2026-05-03T14:57:56.154Z</time></trkpt><trkpt lat="44.3258516" lon="8.4166652"><ele>186.0</ele><time>2026-05-03T14:57:57.154Z</time></trkpt><trkpt lat="44.3258143" lon="8.4168729"><ele>186.0</ele><time>2026-05-03T14:57:58.154Z</time></trkpt><trkpt lat="44.3257524" lon="8.4170624"><ele>186.0</ele><time>2026-05-03T14:57:59.155Z</time></trkpt><trkpt lat="44.3256462" lon="8.4172172"><ele>186.0</ele><time>2026-05-03T14:58:00.154Z</time></trkpt><trkpt lat="44.3255169" lon="8.4173251"><ele>183.5</ele><time>2026-05-03T14:58:01.154Z</time></trkpt><trkpt lat="44.3253869" lon="8.4173922"><ele>181.0</ele><time>2026-05-03T14:58:02.154Z</time></trkpt><trkpt lat="44.3252713" lon="8.417481"><ele>178.5</ele><time>2026-05-03T14:58:03.155Z</time></trkpt><trkpt lat="44.3251838" lon="8.4176085"><ele>176.0</ele><time>2026-05-03T14:58:04.155Z</time></trkpt><trkpt lat="44.3251416" lon="8.4177789"><ele>176.0</ele><time>2026-05-03T14:58:05.154Z</time></trkpt><trkpt lat="44.3251411" lon="8.4179801"><ele>176.0</ele><time>2026-05-03T14:58:06.154Z</time></trkpt><trkpt lat="44.3251626" lon="8.4181843"><ele>176.0</ele><time>2026-05-03T14:58:07.154Z</time></trkpt><trkpt lat="44.325196" lon="8.4183989"><ele>176.0</ele><time>2026-05-03T14:58:08.154Z</time></trkpt><trkpt lat="44.3252527" lon="8.4186029"><ele>175.0</ele><time>2026-05-03T14:58:09.154Z</time></trkpt><trkpt lat="44.3253398" lon="8.4187921"><ele>174.0</ele><time>2026-05-03T14:58:10.154Z</time></trkpt><trkpt lat="44.3254296" lon="8.4189812"><ele>173.0</ele><time>2026-05-03T14:58:11.154Z</time></trkpt><trkpt lat="44.3255117" lon="8.4191886"><ele>170.66666666666666</ele><time>2026-05-03T14:58:12.154Z</time></trkpt><trkpt lat="44.3255584" lon="8.4194175"><ele>168.33333333333334</ele><time>2026-05-03T14:58:13.154Z</time></trkpt><trkpt lat="44.3255792" lon="8.4196575"><ele>166.0</ele><time>2026-05-03T14:58:14.155Z</time></trkpt><trkpt lat="44.325596" lon="8.4199015"><ele>167.33333333333334</ele><time>2026-05-03T14:58:15.154Z</time></trkpt><trkpt lat="44.3255996" lon="8.4201516"><ele>168.66666666666666</ele><time>2026-05-03T14:58:16.155Z</time></trkpt><trkpt lat="44.3255795" lon="8.4204065"><ele>170.0</ele><time>2026-05-03T14:58:17.155Z</time></trkpt><trkpt lat="44.3255383" lon="8.4206541"><ele>170.0</ele><time>2026-05-03T14:58:18.155Z</time></trkpt><trkpt lat="44.3254811" lon="8.4208985"><ele>170.0</ele><time>2026-05-03T14:58:19.155Z</time></trkpt><trkpt lat="44.3254194" lon="8.4211427"><ele>170.0</ele><time>2026-05-03T14:58:20.155Z</time></trkpt><trkpt lat="44.3253539" lon="8.4213874"><ele>168.33333333333331</ele><time>2026-05-03T14:58:21.155Z</time></trkpt><trkpt lat="44.3252909" lon="8.4216347"><ele>166.66666666666666</ele><time>2026-05-03T14:58:22.156Z</time></trkpt><trkpt lat="44.3252264" lon="8.4218778"><ele>165.0</ele><time>2026-05-03T14:58:23.156Z</time></trkpt><trkpt lat="44.3251595" lon="8.4221135"><ele>164.0</ele><time>2026-05-03T14:58:24.155Z</time></trkpt><trkpt lat="44.3250727" lon="8.4223445"><ele>163.0</ele><time>2026-05-03T14:58:25.155Z</time></trkpt><trkpt lat="44.3249872" lon="8.4225694"><ele>162.0</ele><time>2026-05-03T14:58:26.155Z</time></trkpt><trkpt lat="44.3249063" lon="8.4227909"><ele>163.33333333333334</ele><time>2026-05-03T14:58:27.155Z</time></trkpt><trkpt lat="44.3248186" lon="8.4230127"><ele>164.66666666666669</ele><time>2026-05-03T14:58:28.157Z</time></trkpt><trkpt lat="44.3247211" lon="8.4232242"><ele>166.0</ele><time>2026-05-03T14:58:29.156Z</time></trkpt><trkpt lat="44.3246317" lon="8.4234306"><ele>166.0</ele><time>2026-05-03T14:58:30.156Z</time></trkpt><trkpt lat="44.3245642" lon="8.4236542"><ele>166.0</ele><time>2026-05-03T14:58:31.155Z</time></trkpt><trkpt lat="44.324511" lon="8.4238784"><ele>166.0</ele><time>2026-05-03T14:58:32.156Z</time></trkpt><trkpt lat="44.3244691" lon="8.4241203"><ele>163.66666666666669</ele><time>2026-05-03T14:58:33.155Z</time></trkpt><trkpt lat="44.324461" lon="8.4243606"><ele>161.33333333333334</ele><time>2026-05-03T14:58:34.155Z</time></trkpt><trkpt lat="44.3244338" lon="8.4246043"><ele>159.0</ele><time>2026-05-03T14:58:35.156Z</time></trkpt><trkpt lat="44.3244254" lon="8.4248544"><ele>159.0</ele><time>2026-05-03T14:58:36.155Z</time></trkpt><trkpt lat="44.3244057" lon="8.4250854"><ele>159.0</ele><time>2026-05-03T14:58:37.155Z</time></trkpt><trkpt lat="44.3243751" lon="8.425315"><ele>159.0</ele><time>2026-05-03T14:58:38.155Z</time></trkpt><trkpt lat="44.3243214" lon="8.4255379"><ele>158.66666666666666</ele><time>2026-05-03T14:58:39.155Z</time></trkpt><trkpt lat="44.3242388" lon="8.4257402"><ele>158.33333333333331</ele><time>2026-05-03T14:58:40.156Z</time></trkpt><trkpt lat="44.3241379" lon="8.4259331"><ele>158.0</ele><time>2026-05-03T14:58:41.155Z</time></trkpt><trkpt lat="44.3240317" lon="8.4261222"><ele>158.0</ele><time>2026-05-03T14:58:42.155Z</time></trkpt><trkpt lat="44.3239089" lon="8.4263107"><ele>158.0</ele><time>2026-05-03T14:58:43.155Z</time></trkpt><trkpt lat="44.3237909" lon="8.4264955"><ele>158.0</ele><time>2026-05-03T14:58:44.155Z</time></trkpt><trkpt lat="44.3236739" lon="8.4266724"><ele>158.0</ele><time>2026-05-03T14:58:45.155Z</time></trkpt><trkpt lat="44.3235603" lon="8.4268383"><ele>158.0</ele><time>2026-05-03T14:58:46.156Z</time></trkpt><trkpt lat="44.3234564" lon="8.4270125"><ele>158.0</ele><time>2026-05-03T14:58:47.155Z</time></trkpt><trkpt lat="44.3234165" lon="8.4272088"><ele>156.66666666666666</ele><time>2026-05-03T14:58:48.155Z</time></trkpt><trkpt lat="44.3233975" lon="8.4274128"><ele>155.33333333333334</ele><time>2026-05-03T14:58:49.155Z</time></trkpt><trkpt lat="44.323403" lon="8.4276208"><ele>154.0</ele><time>2026-05-03T14:58:50.155Z</time></trkpt><trkpt lat="44.3234402" lon="8.4278383"><ele>153.66666666666669</ele><time>2026-05-03T14:58:51.155Z</time></trkpt><trkpt lat="44.3234907" lon="8.4280604"><ele>153.33333333333334</ele><time>2026-05-03T14:58:52.155Z</time></trkpt><trkpt lat="44.3235668" lon="8.428278"><ele>153.0</ele><time>2026-05-03T14:58:53.155Z</time></trkpt><trkpt lat="44.3236568" lon="8.4284688"><ele>153.0</ele><time>2026-05-03T14:58:54.155Z</time></trkpt><trkpt lat="44.323756" lon="8.4286447"><ele>153.0</ele><time>2026-05-03T14:58:55.155Z</time></trkpt><trkpt lat="44.3238522" lon="8.4288062"><ele>153.0</ele><time>2026-05-03T14:58:56.155Z</time></trkpt><trkpt lat="44.3239393" lon="8.428959"><ele>151.0</ele><time>2026-05-03T14:58:57.155Z</time></trkpt><trkpt lat="44.3240267" lon="8.4291064"><ele>149.0</ele><time>2026-05-03T14:58:58.156Z</time></trkpt><trkpt lat="44.3241338" lon="8.4292375"><ele>147.0</ele><time>2026-05-03T14:58:59.155Z</time></trkpt><trkpt lat="44.3242492" lon="8.4293512"><ele>145.0</ele><time>2026-05-03T14:59:00.155Z</time></trkpt><trkpt lat="44.3243799" lon="8.429442"><ele>145.0</ele><time>2026-05-03T14:59:01.155Z</time></trkpt><trkpt lat="44.3245183" lon="8.429525"><ele>145.0</ele><time>2026-05-03T14:59:02.155Z</time></trkpt><trkpt lat="44.3246601" lon="8.429604"><ele>145.0</ele><time>2026-05-03T14:59:03.155Z</time></trkpt><trkpt lat="44.3247985" lon="8.429685"><ele>144.5</ele><time>2026-05-03T14:59:04.156Z</time></trkpt><trkpt lat="44.3249376" lon="8.4297724"><ele>144.0</ele><time>2026-05-03T14:59:05.155Z</time></trkpt><trkpt lat="44.325071" lon="8.4298717"><ele>143.5</ele><time>2026-05-03T14:59:06.155Z</time></trkpt><trkpt lat="44.3251785" lon="8.4300048"><ele>143.0</ele><time>2026-05-03T14:59:07.155Z</time></trkpt><trkpt lat="44.3252757" lon="8.4301371"><ele>143.0</ele><time>2026-05-03T14:59:08.155Z</time></trkpt><trkpt lat="44.3253546" lon="8.4302847"><ele>143.0</ele><time>2026-05-03T14:59:09.155Z</time></trkpt><trkpt lat="44.3254076" lon="8.4304459"><ele>143.0</ele><time>2026-05-03T14:59:10.156Z</time></trkpt><trkpt lat="44.3254261" lon="8.4306137"><ele>143.0</ele><time>2026-05-03T14:59:11.155Z</time></trkpt><trkpt lat="44.325419" lon="8.4307869"><ele>143.0</ele><time>2026-05-03T14:59:12.155Z</time></trkpt><trkpt lat="44.3253958" lon="8.4309567"><ele>143.0</ele><time>2026-05-03T14:59:13.155Z</time></trkpt><trkpt lat="44.3253669" lon="8.4311353"><ele>143.0</ele><time>2026-05-03T14:59:14.155Z</time></trkpt><trkpt lat="44.3253387" lon="8.4313166"><ele>143.0</ele><time>2026-05-03T14:59:15.155Z</time></trkpt><trkpt lat="44.3253034" lon="8.4314995"><ele>143.25</ele><time>2026-05-03T14:59:16.155Z</time></trkpt><trkpt lat="44.3252585" lon="8.4316839"><ele>143.5</ele><time>2026-05-03T14:59:17.155Z</time></trkpt><trkpt lat="44.3252159" lon="8.4318663"><ele>143.75</ele><time>2026-05-03T14:59:18.155Z</time></trkpt><trkpt lat="44.3251692" lon="8.4320457"><ele>144.0</ele><time>2026-05-03T14:59:19.155Z</time></trkpt><trkpt lat="44.325099" lon="8.4322089"><ele>143.25</ele><time>2026-05-03T14:59:20.156Z</time></trkpt><trkpt lat="44.3250183" lon="8.4323669"><ele>142.5</ele><time>2026-05-03T14:59:21.155Z</time></trkpt><trkpt lat="44.3249227" lon="8.4325208"><ele>141.75</ele><time>2026-05-03T14:59:22.156Z</time></trkpt><trkpt lat="44.324828" lon="8.4326652"><ele>141.0</ele><time>2026-05-03T14:59:23.155Z</time></trkpt><trkpt lat="44.3247394" lon="8.4328088"><ele>142.25</ele><time>2026-05-03T14:59:24.155Z</time></trkpt><trkpt lat="44.324649" lon="8.4329461"><ele>143.5</ele><time>2026-05-03T14:59:25.156Z</time></trkpt><trkpt lat="44.324569" lon="8.4330757"><ele>144.75</ele><time>2026-05-03T14:59:26.155Z</time></trkpt><trkpt lat="44.3244998" lon="8.4332084"><ele>146.0</ele><time>2026-05-03T14:59:27.156Z</time></trkpt><trkpt lat="44.3244483" lon="8.4333501"><ele>146.0</ele><time>2026-05-03T14:59:28.155Z</time></trkpt><trkpt lat="44.3244273" lon="8.433515"><ele>146.0</ele><time>2026-05-03T14:59:29.155Z</time></trkpt><trkpt lat="44.3244237" lon="8.4336895"><ele>146.0</ele><time>2026-05-03T14:59:30.155Z</time></trkpt><trkpt lat="44.3244535" lon="8.4338638"><ele>146.0</ele><time>2026-05-03T14:59:31.155Z</time></trkpt><trkpt lat="44.324517" lon="8.4340132"><ele>146.25</ele><time>2026-05-03T14:59:32.155Z</time></trkpt><trkpt lat="44.3246144" lon="8.434145"><ele>146.5</ele><time>2026-05-03T14:59:33.155Z</time></trkpt><trkpt lat="44.3247143" lon="8.4342757"><ele>146.75</ele><time>2026-05-03T14:59:34.155Z</time></trkpt><trkpt lat="44.3248114" lon="8.4344165"><ele>147.0</ele><time>2026-05-03T14:59:35.155Z</time></trkpt><trkpt lat="44.3249106" lon="8.4345554"><ele>144.75</ele><time>2026-05-03T14:59:36.155Z</time></trkpt><trkpt lat="44.3250072" lon="8.4346927"><ele>142.5</ele><time>2026-05-03T14:59:37.156Z</time></trkpt><trkpt lat="44.3250865" lon="8.4348331"><ele>140.25</ele><time>2026-05-03T14:59:38.156Z</time></trkpt><trkpt lat="44.3251494" lon="8.4349834"><ele>138.0</ele><time>2026-05-03T14:59:39.155Z</time></trkpt><trkpt lat="44.3251906" lon="8.4351481"><ele>138.0</ele><time>2026-05-03T14:59:40.155Z</time></trkpt><trkpt lat="44.3252009" lon="8.4353201"><ele>138.0</ele><time>2026-05-03T14:59:41.155Z</time></trkpt><trkpt lat="44.3251825" lon="8.4354882"><ele>138.0</ele><time>2026-05-03T14:59:42.155Z</time></trkpt><trkpt lat="44.3251383" lon="8.4356562"><ele>138.0</ele><time>2026-05-03T14:59:43.155Z</time></trkpt><trkpt lat="44.3250794" lon="8.4358178"><ele>137.0</ele><time>2026-05-03T14:59:44.156Z</time></trkpt><trkpt lat="44.3250162" lon="8.4359841"><ele>136.0</ele><time>2026-05-03T14:59:45.155Z</time></trkpt><trkpt lat="44.3249551" lon="8.4361404"><ele>135.0</ele><time>2026-05-03T14:59:46.155Z</time></trkpt><trkpt lat="44.3249114" lon="8.4362976"><ele>134.0</ele><time>2026-05-03T14:59:47.156Z</time></trkpt><trkpt lat="44.3249018" lon="8.4364511"><ele>134.0</ele><time>2026-05-03T14:59:48.155Z</time></trkpt><trkpt lat="44.3249309" lon="8.4365885"><ele>134.0</ele><time>2026-05-03T14:59:49.156Z</time></trkpt><trkpt lat="44.3249785" lon="8.4367404"><ele>134.0</ele><time>2026-05-03T14:59:50.155Z</time></trkpt><trkpt lat="44.3251029" lon="8.4368383"><ele>134.0</ele><time>2026-05-03T14:59:51.155Z</time></trkpt><trkpt lat="44.3252125" lon="8.4369592"><ele>134.0</ele><time>2026-05-03T14:59:52.155Z</time></trkpt><trkpt lat="44.3253219" lon="8.4370704"><ele>134.0</ele><time>2026-05-03T14:59:53.156Z</time></trkpt><trkpt lat="44.3254114" lon="8.437222"><ele>134.0</ele><time>2026-05-03T14:59:54.155Z</time></trkpt><trkpt lat="44.3254896" lon="8.4374255"><ele>134.0</ele><time>2026-05-03T14:59:55.156Z</time></trkpt><trkpt lat="44.325546" lon="8.4376615"><ele>136.0</ele><time>2026-05-03T14:59:56.155Z</time></trkpt><trkpt lat="44.3255979" lon="8.4379303"><ele>138.0</ele><time>2026-05-03T14:59:57.155Z</time></trkpt><trkpt lat="44.3256565" lon="8.4382155"><ele>140.0</ele><time>2026-05-03T14:59:58.155Z</time></trkpt><trkpt lat="44.3257168" lon="8.4385028"><ele>139.0</ele><time>2026-05-03T14:59:59.155Z</time></trkpt><trkpt lat="44.3257849" lon="8.4388135"><ele>138.0</ele><time>2026-05-03T15:00:00.156Z</time></trkpt><trkpt lat="44.3258567" lon="8.4391366"><ele>138.0</ele><time>2026-05-03T15:00:01.155Z</time></trkpt><trkpt lat="44.3259287" lon="8.439473"><ele>138.0</ele><time>2026-05-03T15:00:02.155Z</time></trkpt><trkpt lat="44.3260029" lon="8.4397918"><ele>137.0</ele><time>2026-05-03T15:00:03.155Z</time></trkpt><trkpt lat="44.3260877" lon="8.4400919"><ele>136.0</ele><time>2026-05-03T15:00:04.155Z</time></trkpt><trkpt lat="44.3261758" lon="8.4403863"><ele>137.66666666666669</ele><time>2026-05-03T15:00:05.155Z</time></trkpt><trkpt lat="44.3262743" lon="8.440671"><ele>139.33333333333334</ele><time>2026-05-03T15:00:06.155Z</time></trkpt><trkpt lat="44.3263737" lon="8.4409476"><ele>141.0</ele><time>2026-05-03T15:00:07.155Z</time></trkpt><trkpt lat="44.326475" lon="8.4412103"><ele>135.66666666666666</ele><time>2026-05-03T15:00:08.156Z</time></trkpt><trkpt lat="44.3265687" lon="8.441454"><ele>130.33333333333331</ele><time>2026-05-03T15:00:09.155Z</time></trkpt><trkpt lat="44.3266118" lon="8.4417199"><ele>125.0</ele><time>2026-05-03T15:00:10.155Z</time></trkpt><trkpt lat="44.3266418" lon="8.4419522"><ele>125.0</ele><time>2026-05-03T15:00:11.155Z</time></trkpt><trkpt lat="44.3266366" lon="8.4421883"><ele>125.0</ele><time>2026-05-03T15:00:12.155Z</time></trkpt><trkpt lat="44.3265908" lon="8.4424044"><ele>125.0</ele><time>2026-05-03T15:00:13.155Z</time></trkpt><trkpt lat="44.3265337" lon="8.4426023"><ele>125.0</ele><time>2026-05-03T15:00:14.155Z</time></trkpt><trkpt lat="44.3264852" lon="8.4428061"><ele>125.0</ele><time>2026-05-03T15:00:15.155Z</time></trkpt><trkpt lat="44.3264723" lon="8.4429955"><ele>125.0</ele><time>2026-05-03T15:00:16.155Z</time></trkpt><trkpt lat="44.3265055" lon="8.4431649"><ele>125.0</ele><time>2026-05-03T15:00:17.156Z</time></trkpt><trkpt lat="44.3265584" lon="8.4433249"><ele>123.33333333333333</ele><time>2026-05-03T15:00:18.156Z</time></trkpt><trkpt lat="44.3267226" lon="8.443434"><ele>121.66666666666666</ele><time>2026-05-03T15:00:19.156Z</time></trkpt><trkpt lat="44.3269827" lon="8.4434254"><ele>120.0</ele><time>2026-05-03T15:00:20.156Z</time></trkpt><trkpt lat="44.3270916" lon="8.4435629"><ele>120.0</ele><time>2026-05-03T15:00:21.156Z</time></trkpt><trkpt lat="44.3271692" lon="8.4437398"><ele>120.0</ele><time>2026-05-03T15:00:22.155Z</time></trkpt><trkpt lat="44.3272218" lon="8.4439494"><ele>120.0</ele><time>2026-05-03T15:00:23.156Z</time></trkpt><trkpt lat="44.3272751" lon="8.4441612"><ele>119.0</ele><time>2026-05-03T15:00:24.155Z</time></trkpt><trkpt lat="44.3273254" lon="8.4443685"><ele>118.0</ele><time>2026-05-03T15:00:25.155Z</time></trkpt><trkpt lat="44.3273669" lon="8.4445709"><ele>117.0</ele><time>2026-05-03T15:00:26.156Z</time></trkpt><trkpt lat="44.3273767" lon="8.4447706"><ele>117.0</ele><time>2026-05-03T15:00:27.156Z</time></trkpt><trkpt lat="44.3273437" lon="8.4449724"><ele>117.0</ele><time>2026-05-03T15:00:28.155Z</time></trkpt><trkpt lat="44.3272849" lon="8.4451776"><ele>117.0</ele><time>2026-05-03T15:00:29.156Z</time></trkpt><trkpt lat="44.3272197" lon="8.4453938"><ele>117.66666666666666</ele><time>2026-05-03T15:00:30.155Z</time></trkpt><trkpt lat="44.3271452" lon="8.4456117"><ele>118.33333333333333</ele><time>2026-05-03T15:00:31.155Z</time></trkpt><trkpt lat="44.3270729" lon="8.4458286"><ele>119.0</ele><time>2026-05-03T15:00:32.155Z</time></trkpt><trkpt lat="44.3270139" lon="8.4460674"><ele>116.0</ele><time>2026-05-03T15:00:33.155Z</time></trkpt><trkpt lat="44.3269783" lon="8.4463133"><ele>113.0</ele><time>2026-05-03T15:00:34.155Z</time></trkpt><trkpt lat="44.326964" lon="8.4465708"><ele>110.0</ele><time>2026-05-03T15:00:35.155Z</time></trkpt><trkpt lat="44.3269723" lon="8.4468284"><ele>110.0</ele><time>2026-05-03T15:00:36.155Z</time></trkpt><trkpt lat="44.3269851" lon="8.4470852"><ele>110.0</ele><time>2026-05-03T15:00:37.155Z</time></trkpt><trkpt lat="44.3269916" lon="8.4473528"><ele>110.0</ele><time>2026-05-03T15:00:38.155Z</time></trkpt><trkpt lat="44.3269936" lon="8.4476143"><ele>108.0</ele><time>2026-05-03T15:00:39.155Z</time></trkpt><trkpt lat="44.3269953" lon="8.447872"><ele>106.0</ele><time>2026-05-03T15:00:40.156Z</time></trkpt><trkpt lat="44.3268928" lon="8.4480932"><ele>104.0</ele><time>2026-05-03T15:00:41.156Z</time></trkpt><trkpt lat="44.3268205" lon="8.4483216"><ele>102.0</ele><time>2026-05-03T15:00:42.155Z</time></trkpt><trkpt lat="44.3267423" lon="8.448551"><ele>100.0</ele><time>2026-05-03T15:00:43.155Z</time></trkpt><trkpt lat="44.3266481" lon="8.448781"><ele>98.0</ele><time>2026-05-03T15:00:44.156Z</time></trkpt><trkpt lat="44.3265536" lon="8.4490091"><ele>98.0</ele><time>2026-05-03T15:00:45.156Z</time></trkpt><trkpt lat="44.3264598" lon="8.4492294"><ele>98.0</ele><time>2026-05-03T15:00:46.155Z</time></trkpt><trkpt lat="44.3263821" lon="8.4494363"><ele>98.0</ele><time>2026-05-03T15:00:47.155Z</time></trkpt><trkpt lat="44.3263311" lon="8.4496438"><ele>97.33333333333333</ele><time>2026-05-03T15:00:48.155Z</time></trkpt><trkpt lat="44.3263329" lon="8.4498788"><ele>96.66666666666666</ele><time>2026-05-03T15:00:49.155Z</time></trkpt><trkpt lat="44.3263829" lon="8.4501044"><ele>96.0</ele><time>2026-05-03T15:00:50.155Z</time></trkpt><trkpt lat="44.326461" lon="8.4503134"><ele>94.66666666666667</ele><time>2026-05-03T15:00:51.156Z</time></trkpt><trkpt lat="44.3265168" lon="8.4505266"><ele>93.33333333333334</ele><time>2026-05-03T15:00:52.155Z</time></trkpt><trkpt lat="44.3265397" lon="8.4507606"><ele>92.0</ele><time>2026-05-03T15:00:53.155Z</time></trkpt><trkpt lat="44.326535" lon="8.4509922"><ele>92.0</ele><time>2026-05-03T15:00:54.155Z</time></trkpt><trkpt lat="44.3265124" lon="8.451235"><ele>92.0</ele><time>2026-05-03T15:00:55.155Z</time></trkpt><trkpt lat="44.3264873" lon="8.4514835"><ele>92.0</ele><time>2026-05-03T15:00:56.155Z</time></trkpt><trkpt lat="44.32646" lon="8.4517342"><ele>91.33333333333334</ele><time>2026-05-03T15:00:57.155Z</time></trkpt><trkpt lat="44.3264266" lon="8.4519951"><ele>90.66666666666667</ele><time>2026-05-03T15:00:58.155Z</time></trkpt><trkpt lat="44.3263919" lon="8.4522597"><ele>90.0</ele><time>2026-05-03T15:00:59.155Z</time></trkpt><trkpt lat="44.3263596" lon="8.4525291"><ele>91.66666666666667</ele><time>2026-05-03T15:01:00.155Z</time></trkpt><trkpt lat="44.3263249" lon="8.4528099"><ele>93.33333333333334</ele><time>2026-05-03T15:01:01.156Z</time></trkpt><trkpt lat="44.3262902" lon="8.4530758"><ele>95.0</ele><time>2026-05-03T15:01:02.155Z</time></trkpt><trkpt lat="44.3262546" lon="8.4533366"><ele>95.0</ele><time>2026-05-03T15:01:03.155Z</time></trkpt><trkpt lat="44.3262162" lon="8.4535874"><ele>95.0</ele><time>2026-05-03T15:01:04.155Z</time></trkpt><trkpt lat="44.3261768" lon="8.4538383"><ele>95.0</ele><time>2026-05-03T15:01:05.156Z</time></trkpt><trkpt lat="44.3261197" lon="8.454081"><ele>92.0</ele><time>2026-05-03T15:01:06.155Z</time></trkpt><trkpt lat="44.3260447" lon="8.4543079"><ele>89.0</ele><time>2026-05-03T15:01:07.155Z</time></trkpt><trkpt lat="44.3259573" lon="8.4545355"><ele>86.0</ele><time>2026-05-03T15:01:08.155Z</time></trkpt><trkpt lat="44.3258626" lon="8.454755"><ele>85.0</ele><time>2026-05-03T15:01:09.155Z</time></trkpt><trkpt lat="44.3257681" lon="8.4549753"><ele>84.0</ele><time>2026-05-03T15:01:10.155Z</time></trkpt><trkpt lat="44.3256711" lon="8.455203"><ele>83.0</ele><time>2026-05-03T15:01:11.155Z</time></trkpt><trkpt lat="44.3255754" lon="8.4554294"><ele>85.66666666666667</ele><time>2026-05-03T15:01:12.155Z</time></trkpt><trkpt lat="44.3254807" lon="8.4556495"><ele>88.33333333333333</ele><time>2026-05-03T15:01:13.156Z</time></trkpt><trkpt lat="44.3253948" lon="8.4558683"><ele>91.0</ele><time>2026-05-03T15:01:14.155Z</time></trkpt><trkpt lat="44.3253465" lon="8.4561042"><ele>87.33333333333333</ele><time>2026-05-03T15:01:15.155Z</time></trkpt><trkpt lat="44.3253127" lon="8.4563401"><ele>83.66666666666667</ele><time>2026-05-03T15:01:16.155Z</time></trkpt><trkpt lat="44.32529" lon="8.4565764"><ele>80.0</ele><time>2026-05-03T15:01:17.155Z</time></trkpt><trkpt lat="44.3252559" lon="8.4568054"><ele>80.0</ele><time>2026-05-03T15:01:18.156Z</time></trkpt><trkpt lat="44.3252013" lon="8.4570181"><ele>80.0</ele><time>2026-05-03T15:01:19.155Z</time></trkpt><trkpt lat="44.3251274" lon="8.4571953"><ele>80.0</ele><time>2026-05-03T15:01:20.155Z</time></trkpt><trkpt lat="44.3250409" lon="8.4573563"><ele>77.0</ele><time>2026-05-03T15:01:21.156Z</time></trkpt><trkpt lat="44.3249551" lon="8.4575257"><ele>74.0</ele><time>2026-05-03T15:01:22.156Z</time></trkpt><trkpt lat="44.3248851" lon="8.457717"><ele>71.0</ele><time>2026-05-03T15:01:23.156Z</time></trkpt><trkpt lat="44.324819" lon="8.4579308"><ele>72.0</ele><time>2026-05-03T15:01:24.155Z</time></trkpt><trkpt lat="44.3247615" lon="8.4581634"><ele>73.0</ele><time>2026-05-03T15:01:25.155Z</time></trkpt><trkpt lat="44.3246968" lon="8.4583829"><ele>74.0</ele><time>2026-05-03T15:01:26.155Z</time></trkpt><trkpt lat="44.324616" lon="8.4585837"><ele>71.5</ele><time>2026-05-03T15:01:27.155Z</time></trkpt><trkpt lat="44.3245115" lon="8.4587471"><ele>69.0</ele><time>2026-05-03T15:01:28.155Z</time></trkpt><trkpt lat="44.3243917" lon="8.4588546"><ele>66.5</ele><time>2026-05-03T15:01:29.155Z</time></trkpt><trkpt lat="44.3242526" lon="8.4589069"><ele>64.0</ele><time>2026-05-03T15:01:30.155Z</time></trkpt><trkpt lat="44.3241187" lon="8.4589368"><ele>62.666666666666664</ele><time>2026-05-03T15:01:31.155Z</time></trkpt><trkpt lat="44.3239618" lon="8.4589678"><ele>61.33333333333333</ele><time>2026-05-03T15:01:32.155Z</time></trkpt><trkpt lat="44.3237944" lon="8.4589917"><ele>60.0</ele><time>2026-05-03T15:01:33.156Z</time></trkpt><trkpt lat="44.3236289" lon="8.4590049"><ele>57.0</ele><time>2026-05-03T15:01:34.156Z</time></trkpt><trkpt lat="44.3234535" lon="8.4590112"><ele>54.0</ele><time>2026-05-03T15:01:35.155Z</time></trkpt><trkpt lat="44.3232814" lon="8.4590189"><ele>51.0</ele><time>2026-05-03T15:01:36.155Z</time></trkpt><trkpt lat="44.3231231" lon="8.4590301"><ele>51.66666666666667</ele><time>2026-05-03T15:01:37.156Z</time></trkpt><trkpt lat="44.3229765" lon="8.4591117"><ele>52.333333333333336</ele><time>2026-05-03T15:01:38.155Z</time></trkpt><trkpt lat="44.3228311" lon="8.4591855"><ele>53.0</ele><time>2026-05-03T15:01:39.155Z</time></trkpt><trkpt lat="44.3227607" lon="8.4593961"><ele>53.0</ele><time>2026-05-03T15:01:40.156Z</time></trkpt><trkpt lat="44.3226741" lon="8.4595778"><ele>53.0</ele><time>2026-05-03T15:01:41.155Z</time></trkpt><trkpt lat="44.3226048" lon="8.4597744"><ele>53.0</ele><time>2026-05-03T15:01:42.155Z</time></trkpt><trkpt lat="44.3225794" lon="8.4599744"><ele>50.25</ele><time>2026-05-03T15:01:43.155Z</time></trkpt><trkpt lat="44.3225596" lon="8.4601814"><ele>47.5</ele><time>2026-05-03T15:01:44.155Z</time></trkpt><trkpt lat="44.3226004" lon="8.4603757"><ele>44.75</ele><time>2026-05-03T15:01:45.155Z</time></trkpt><trkpt lat="44.3226886" lon="8.4605173"><ele>42.0</ele><time>2026-05-03T15:01:46.155Z</time></trkpt><trkpt lat="44.3226841" lon="8.4606894"><ele>41.25</ele><time>2026-05-03T15:01:47.155Z</time></trkpt><trkpt lat="44.3226337" lon="8.4608474"><ele>40.5</ele><time>2026-05-03T15:01:48.156Z</time></trkpt><trkpt lat="44.3225429" lon="8.4609813"><ele>39.75</ele><time>2026-05-03T15:01:49.156Z</time></trkpt><trkpt lat="44.3224207" lon="8.4610875"><ele>39.0</ele><time>2026-05-03T15:01:50.155Z</time></trkpt><trkpt lat="44.3222849" lon="8.4611956"><ele>40.333333333333336</ele><time>2026-05-03T15:01:51.156Z</time></trkpt><trkpt lat="44.322129" lon="8.4613149"><ele>41.66666666666667</ele><time>2026-05-03T15:01:52.155Z</time></trkpt><trkpt lat="44.321969" lon="8.4614396"><ele>43.0</ele><time>2026-05-03T15:01:53.155Z</time></trkpt><trkpt lat="44.3218123" lon="8.4615597"><ele>43.0</ele><time>2026-05-03T15:01:54.156Z</time></trkpt><trkpt lat="44.321653" lon="8.4616731"><ele>43.0</ele><time>2026-05-03T15:01:55.155Z</time></trkpt><trkpt lat="44.3215029" lon="8.4617863"><ele>43.0</ele><time>2026-05-03T15:01:56.156Z</time></trkpt><trkpt lat="44.3213726" lon="8.4619098"><ele>41.5</ele><time>2026-05-03T15:01:57.156Z</time></trkpt><trkpt lat="44.3212738" lon="8.462066"><ele>40.0</ele><time>2026-05-03T15:01:58.155Z</time></trkpt><trkpt lat="44.3212105" lon="8.462225"><ele>38.5</ele><time>2026-05-03T15:01:59.155Z</time></trkpt><trkpt lat="44.3211774" lon="8.4624473"><ele>37.0</ele><time>2026-05-03T15:02:00.157Z</time></trkpt><trkpt lat="44.3211513" lon="8.4626508"><ele>37.0</ele><time>2026-05-03T15:02:01.155Z</time></trkpt><trkpt lat="44.3211228" lon="8.4628592"><ele>37.0</ele><time>2026-05-03T15:02:02.155Z</time></trkpt><trkpt lat="44.3211006" lon="8.4630646"><ele>37.0</ele><time>2026-05-03T15:02:03.155Z</time></trkpt><trkpt lat="44.32108" lon="8.4632609"><ele>37.0</ele><time>2026-05-03T15:02:04.155Z</time></trkpt><trkpt lat="44.321061" lon="8.4634468"><ele>36.6</ele><time>2026-05-03T15:02:05.155Z</time></trkpt><trkpt lat="44.3210441" lon="8.4636201"><ele>36.2</ele><time>2026-05-03T15:02:06.155Z</time></trkpt><trkpt lat="44.3210311" lon="8.46378"><ele>35.8</ele><time>2026-05-03T15:02:07.155Z</time></trkpt><trkpt lat="44.321009" lon="8.4639289"><ele>35.4</ele><time>2026-05-03T15:02:08.155Z</time></trkpt><trkpt lat="44.3209928" lon="8.4640563"><ele>35.0</ele><time>2026-05-03T15:02:09.156Z</time></trkpt><trkpt lat="44.3209789" lon="8.4641582"><ele>33.4</ele><time>2026-05-03T15:02:10.155Z</time></trkpt><trkpt lat="44.3209817" lon="8.4642509"><ele>31.8</ele><time>2026-05-03T15:02:11.155Z</time></trkpt><trkpt lat="44.3210174" lon="8.4644162"><ele>30.200000000000003</ele><time>2026-05-03T15:02:13.156Z</time></trkpt><trkpt lat="44.3210415" lon="8.4645738"><ele>28.6</ele><time>2026-05-03T15:02:15.155Z</time></trkpt><trkpt lat="44.321041" lon="8.4646929"><ele>27.0</ele><time>2026-05-03T15:02:17.155Z</time></trkpt><trkpt lat="44.3210425" lon="8.464789"><ele>26.5</ele><time>2026-05-03T15:02:19.155Z</time></trkpt><trkpt lat="44.3210231" lon="8.4649076"><ele>26.0</ele><time>2026-05-03T15:02:22.156Z</time></trkpt><trkpt lat="44.3210187" lon="8.4649975"><ele>25.5</ele><time>2026-05-03T15:02:25.155Z</time></trkpt><trkpt lat="44.3210274" lon="8.4650904"><ele>25.0</ele><time>2026-05-03T15:02:31.156Z</time></trkpt><trkpt lat="44.3210626" lon="8.465171"><ele>24.5</ele><time>2026-05-03T15:02:46.155Z</time></trkpt><trkpt lat="44.3210604" lon="8.4652836"><ele>24.0</ele><time>2026-05-03T15:03:02.155Z</time></trkpt><trkpt lat="44.321042" lon="8.4651097"><ele>24.0</ele><time>2026-05-03T15:04:09.155Z</time></trkpt><trkpt lat="44.3210239" lon="8.4652045"><ele>24.0</ele><time>2026-05-03T15:05:26.155Z</time></trkpt><trkpt lat="44.3209599" lon="8.4652204"><ele>24.0</ele><time>2026-05-03T15:08:04.155Z</time></trkpt><trkpt lat="44.3208959" lon="8.4652307"><ele>24.0</ele><time>2026-05-03T15:12:03.155Z</time></trkpt><trkpt lat="44.3209177" lon="8.4653223"><ele>24.0</ele><time>2026-05-03T15:14:39.155Z</time></trkpt><trkpt lat="44.3208602" lon="8.4654375"><ele>24.0</ele><time>2026-05-03T15:14:42.155Z</time></trkpt><trkpt lat="44.320809" lon="8.4656276"><ele>24.25</ele><time>2026-05-03T15:14:44.155Z</time></trkpt><trkpt lat="44.320784" lon="8.4657652"><ele>24.5</ele><time>2026-05-03T15:14:45.155Z</time></trkpt><trkpt lat="44.3207661" lon="8.4659193"><ele>24.75</ele><time>2026-05-03T15:14:46.155Z</time></trkpt><trkpt lat="44.3207466" lon="8.4660927"><ele>25.0</ele><time>2026-05-03T15:14:47.156Z</time></trkpt><trkpt lat="44.3207226" lon="8.4662499"><ele>25.0</ele><time>2026-05-03T15:14:48.155Z</time></trkpt><trkpt lat="44.3207026" lon="8.466403"><ele>25.0</ele><time>2026-05-03T15:14:49.155Z</time></trkpt><trkpt lat="44.3206872" lon="8.4665491"><ele>25.0</ele><time>2026-05-03T15:14:50.156Z</time></trkpt><trkpt lat="44.3206694" lon="8.4666815"><ele>25.0</ele><time>2026-05-03T15:14:51.155Z</time></trkpt><trkpt lat="44.3206509" lon="8.4668048"><ele>25.0</ele><time>2026-05-03T15:14:52.156Z</time></trkpt><trkpt lat="44.3206328" lon="8.4669196"><ele>25.0</ele><time>2026-05-03T15:14:53.155Z</time></trkpt><trkpt lat="44.3206011" lon="8.4670396"><ele>25.0</ele><time>2026-05-03T15:14:54.155Z</time></trkpt><trkpt lat="44.3205611" lon="8.4671571"><ele>25.0</ele><time>2026-05-03T15:14:55.155Z</time></trkpt><trkpt lat="44.3205083" lon="8.4672762"><ele>25.0</ele><time>2026-05-03T15:14:56.155Z</time></trkpt><trkpt lat="44.3204473" lon="8.4673871"><ele>25.0</ele><time>2026-05-03T15:14:57.155Z</time></trkpt><trkpt lat="44.3203743" lon="8.4674877"><ele>24.0</ele><time>2026-05-03T15:14:58.155Z</time></trkpt><trkpt lat="44.3202839" lon="8.4675769"><ele>23.0</ele><time>2026-05-03T15:14:59.156Z</time></trkpt><trkpt lat="44.3201824" lon="8.4676634"><ele>22.0</ele><time>2026-05-03T15:15:00.155Z</time></trkpt><trkpt lat="44.3200726" lon="8.4677593"><ele>21.0</ele><time>2026-05-03T15:15:01.155Z</time></trkpt><trkpt lat="44.3199578" lon="8.4678585"><ele>20.5</ele><time>2026-05-03T15:15:02.155Z</time></trkpt><trkpt lat="44.3198384" lon="8.4679545"><ele>20.0</ele><time>2026-05-03T15:15:03.155Z</time></trkpt><trkpt lat="44.3197215" lon="8.4680575"><ele>19.5</ele><time>2026-05-03T15:15:04.155Z</time></trkpt><trkpt lat="44.3196042" lon="8.468156"><ele>19.0</ele><time>2026-05-03T15:15:05.156Z</time></trkpt><trkpt lat="44.3194821" lon="8.4682563"><ele>18.75</ele><time>2026-05-03T15:15:06.155Z</time></trkpt><trkpt lat="44.3193617" lon="8.4683575"><ele>18.5</ele><time>2026-05-03T15:15:07.155Z</time></trkpt><trkpt lat="44.3192345" lon="8.4684579"><ele>18.25</ele><time>2026-05-03T15:15:08.155Z</time></trkpt><trkpt lat="44.3191143" lon="8.4685507"><ele>18.0</ele><time>2026-05-03T15:15:09.155Z</time></trkpt><trkpt lat="44.3189938" lon="8.468656"><ele>18.0</ele><time>2026-05-03T15:15:10.155Z</time></trkpt><trkpt lat="44.3188701" lon="8.4687664"><ele>18.0</ele><time>2026-05-03T15:15:11.155Z</time></trkpt><trkpt lat="44.3187407" lon="8.4688637"><ele>18.0</ele><time>2026-05-03T15:15:12.155Z</time></trkpt><trkpt lat="44.3186117" lon="8.4689707"><ele>18.0</ele><time>2026-05-03T15:15:13.155Z</time></trkpt><trkpt lat="44.3184856" lon="8.46908"><ele>17.75</ele><time>2026-05-03T15:15:14.155Z</time></trkpt><trkpt lat="44.3183615" lon="8.4691949"><ele>17.5</ele><time>2026-05-03T15:15:15.155Z</time></trkpt><trkpt lat="44.3182359" lon="8.4693036"><ele>17.25</ele><time>2026-05-03T15:15:16.155Z</time></trkpt><trkpt lat="44.3181055" lon="8.4694129"><ele>17.0</ele><time>2026-05-03T15:15:17.156Z</time></trkpt><trkpt lat="44.3179828" lon="8.4695132"><ele>17.25</ele><time>2026-05-03T15:15:18.155Z</time></trkpt><trkpt lat="44.3178542" lon="8.4696225"><ele>17.5</ele><time>2026-05-03T15:15:19.156Z</time></trkpt><trkpt lat="44.3177294" lon="8.4697339"><ele>17.75</ele><time>2026-05-03T15:15:20.155Z</time></trkpt><trkpt lat="44.3176027" lon="8.4698451"><ele>18.0</ele><time>2026-05-03T15:15:21.155Z</time></trkpt><trkpt lat="44.3174728" lon="8.4699538"><ele>18.0</ele><time>2026-05-03T15:15:22.155Z</time></trkpt><trkpt lat="44.3173404" lon="8.470067"><ele>18.0</ele><time>2026-05-03T15:15:23.156Z</time></trkpt><trkpt lat="44.3172024" lon="8.4701797"><ele>18.0</ele><time>2026-05-03T15:15:24.155Z</time></trkpt><trkpt lat="44.3170696" lon="8.470293"><ele>18.666666666666668</ele><time>2026-05-03T15:15:25.155Z</time></trkpt><trkpt lat="44.3169405" lon="8.4704099"><ele>19.333333333333336</ele><time>2026-05-03T15:15:26.155Z</time></trkpt><trkpt lat="44.3168093" lon="8.4705291"><ele>20.0</ele><time>2026-05-03T15:15:27.155Z</time></trkpt><trkpt lat="44.3166758" lon="8.4706402"><ele>20.0</ele><time>2026-05-03T15:15:28.156Z</time></trkpt><trkpt lat="44.3165398" lon="8.470751"><ele>20.0</ele><time>2026-05-03T15:15:29.156Z</time></trkpt><trkpt lat="44.3164014" lon="8.4708593"><ele>20.0</ele><time>2026-05-03T15:15:30.155Z</time></trkpt><trkpt lat="44.3162618" lon="8.4709721"><ele>19.0</ele><time>2026-05-03T15:15:31.155Z</time></trkpt><trkpt lat="44.316116" lon="8.4710851"><ele>18.0</ele><time>2026-05-03T15:15:32.155Z</time></trkpt><trkpt lat="44.3159631" lon="8.4712018"><ele>17.0</ele><time>2026-05-03T15:15:33.157Z</time></trkpt><trkpt lat="44.3158075" lon="8.4713198"><ele>17.0</ele><time>2026-05-03T15:15:34.155Z</time></trkpt><trkpt lat="44.31565" lon="8.4714315"><ele>17.0</ele><time>2026-05-03T15:15:35.155Z</time></trkpt><trkpt lat="44.3154976" lon="8.4715321"><ele>17.0</ele><time>2026-05-03T15:15:36.156Z</time></trkpt><trkpt lat="44.3153546" lon="8.471627"><ele>17.0</ele><time>2026-05-03T15:15:37.155Z</time></trkpt><trkpt lat="44.3152236" lon="8.4717185"><ele>17.0</ele><time>2026-05-03T15:15:38.156Z</time></trkpt><trkpt lat="44.3150935" lon="8.4718037"><ele>17.0</ele><time>2026-05-03T15:15:39.156Z</time></trkpt><trkpt lat="44.3149645" lon="8.4718829"><ele>17.0</ele><time>2026-05-03T15:15:40.155Z</time></trkpt><trkpt lat="44.3148364" lon="8.4719566"><ele>16.25</ele><time>2026-05-03T15:15:41.155Z</time></trkpt><trkpt lat="44.3147172" lon="8.4720227"><ele>15.5</ele><time>2026-05-03T15:15:42.155Z</time></trkpt><trkpt lat="44.3146056" lon="8.4720875"><ele>14.75</ele><time>2026-05-03T15:15:43.155Z</time></trkpt><trkpt lat="44.3144991" lon="8.4721492"><ele>14.0</ele><time>2026-05-03T15:15:44.156Z</time></trkpt><trkpt lat="44.3143988" lon="8.4722071"><ele>14.0</ele><time>2026-05-03T15:15:45.155Z</time></trkpt><trkpt lat="44.3143084" lon="8.47226"><ele>13.999999999999998</ele><time>2026-05-03T15:15:46.155Z</time></trkpt><trkpt lat="44.3142255" lon="8.472307"><ele>13.999999999999998</ele><time>2026-05-03T15:15:47.155Z</time></trkpt><trkpt lat="44.3141523" lon="8.4723331"><ele>14.0</ele><time>2026-05-03T15:15:48.155Z</time></trkpt><trkpt lat="44.3140676" lon="8.4722243"><ele>14.0</ele><time>2026-05-03T15:15:50.155Z</time></trkpt><trkpt lat="44.3140486" lon="8.4721235"><ele>13.799999999999999</ele><time>2026-05-03T15:15:51.155Z</time></trkpt><trkpt lat="44.3140232" lon="8.4720104"><ele>13.599999999999998</ele><time>2026-05-03T15:15:52.155Z</time></trkpt><trkpt lat="44.3139879" lon="8.4718909"><ele>13.4</ele><time>2026-05-03T15:15:53.155Z</time></trkpt><trkpt lat="44.3139473" lon="8.471757"><ele>13.2</ele><time>2026-05-03T15:15:54.155Z</time></trkpt><trkpt lat="44.313906" lon="8.4716183"><ele>13.0</ele><time>2026-05-03T15:15:55.155Z</time></trkpt><trkpt lat="44.3138698" lon="8.4714825"><ele>13.8</ele><time>2026-05-03T15:15:56.155Z</time></trkpt><trkpt lat="44.3138317" lon="8.4713388"><ele>14.600000000000001</ele><time>2026-05-03T15:15:57.155Z</time></trkpt><trkpt lat="44.3137951" lon="8.4711924"><ele>15.399999999999999</ele><time>2026-05-03T15:15:58.155Z</time></trkpt><trkpt lat="44.3137588" lon="8.471052"><ele>16.2</ele><time>2026-05-03T15:15:59.155Z</time></trkpt><trkpt lat="44.3137123" lon="8.4709352"><ele>17.0</ele><time>2026-05-03T15:16:00.155Z</time></trkpt><trkpt lat="44.3136452" lon="8.4708548"><ele>17.0</ele><time>2026-05-03T15:16:01.155Z</time></trkpt><trkpt lat="44.3135505" lon="8.4708172"><ele>17.0</ele><time>2026-05-03T15:16:02.155Z</time></trkpt><trkpt lat="44.3134381" lon="8.4708114"><ele>17.0</ele><time>2026-05-03T15:16:03.155Z</time></trkpt><trkpt lat="44.3133139" lon="8.4708156"><ele>17.0</ele><time>2026-05-03T15:16:04.155Z</time></trkpt><trkpt lat="44.3131819" lon="8.4708111"><ele>16.5</ele><time>2026-05-03T15:16:05.155Z</time></trkpt><trkpt lat="44.313044" lon="8.470804"><ele>16.0</ele><time>2026-05-03T15:16:06.155Z</time></trkpt><trkpt lat="44.3129054" lon="8.4707942"><ele>15.5</ele><time>2026-05-03T15:16:07.155Z</time></trkpt><trkpt lat="44.3127665" lon="8.470783"><ele>15.0</ele><time>2026-05-03T15:16:08.156Z</time></trkpt><trkpt lat="44.3126241" lon="8.4707734"><ele>15.0</ele><time>2026-05-03T15:16:09.156Z</time></trkpt><trkpt lat="44.3124953" lon="8.4707628"><ele>15.0</ele><time>2026-05-03T15:16:10.155Z</time></trkpt><trkpt lat="44.312378" lon="8.4707573"><ele>15.0</ele><time>2026-05-03T15:16:11.155Z</time></trkpt><trkpt lat="44.3122741" lon="8.4707466"><ele>15.0</ele><time>2026-05-03T15:16:12.155Z</time></trkpt><trkpt lat="44.312182" lon="8.4707154"><ele>15.0</ele><time>2026-05-03T15:16:13.155Z</time></trkpt><trkpt lat="44.312104" lon="8.4706478"><ele>14.8</ele><time>2026-05-03T15:16:14.156Z</time></trkpt><trkpt lat="44.312053" lon="8.470537"><ele>14.6</ele><time>2026-05-03T15:16:15.155Z</time></trkpt><trkpt lat="44.3120209" lon="8.4703992"><ele>14.399999999999999</ele><time>2026-05-03T15:16:16.155Z</time></trkpt><trkpt lat="44.3119928" lon="8.4702575"><ele>14.2</ele><time>2026-05-03T15:16:17.156Z</time></trkpt><trkpt lat="44.3119638" lon="8.4701196"><ele>14.0</ele><time>2026-05-03T15:16:18.155Z</time></trkpt><trkpt lat="44.3115575" lon="8.4693927"><ele>15.5</ele><time>2026-05-03T15:16:24.155Z</time></trkpt><trkpt lat="44.3114373" lon="8.4693033"><ele>17.0</ele><time>2026-05-03T15:16:25.155Z</time></trkpt><trkpt lat="44.3112982" lon="8.4692656"><ele>18.5</ele><time>2026-05-03T15:16:26.155Z</time></trkpt><trkpt lat="44.3111547" lon="8.4692537"><ele>20.0</ele><time>2026-05-03T15:16:27.155Z</time></trkpt><trkpt lat="44.3110067" lon="8.4692491"><ele>20.0</ele><time>2026-05-03T15:16:28.155Z</time></trkpt><trkpt lat="44.310858" lon="8.4692401"><ele>20.0</ele><time>2026-05-03T15:16:29.155Z</time></trkpt><trkpt lat="44.3107014" lon="8.4692425"><ele>20.0</ele><time>2026-05-03T15:16:30.155Z</time></trkpt><trkpt lat="44.3105487" lon="8.4692486"><ele>19.5</ele><time>2026-05-03T15:16:31.155Z</time></trkpt><trkpt lat="44.3103991" lon="8.4692495"><ele>19.0</ele><time>2026-05-03T15:16:32.155Z</time></trkpt><trkpt lat="44.3102508" lon="8.4692522"><ele>18.5</ele><time>2026-05-03T15:16:33.155Z</time></trkpt><trkpt lat="44.3101022" lon="8.4692497"><ele>18.0</ele><time>2026-05-03T15:16:34.156Z</time></trkpt><trkpt lat="44.3099516" lon="8.4692519"><ele>18.0</ele><time>2026-05-03T15:16:35.156Z</time></trkpt><trkpt lat="44.3098011" lon="8.4692479"><ele>18.0</ele><time>2026-05-03T15:16:36.155Z</time></trkpt><trkpt lat="44.3096452" lon="8.4692446"><ele>18.0</ele><time>2026-05-03T15:16:37.155Z</time></trkpt><trkpt lat="44.3094864" lon="8.4692444"><ele>17.666666666666668</ele><time>2026-05-03T15:16:38.155Z</time></trkpt><trkpt lat="44.3093277" lon="8.4692457"><ele>17.333333333333336</ele><time>2026-05-03T15:16:39.155Z</time></trkpt><trkpt lat="44.3091742" lon="8.4692445"><ele>17.0</ele><time>2026-05-03T15:16:40.155Z</time></trkpt><trkpt lat="44.3090181" lon="8.4692435"><ele>18.333333333333336</ele><time>2026-05-03T15:16:41.155Z</time></trkpt><trkpt lat="44.3088584" lon="8.4692399"><ele>19.666666666666668</ele><time>2026-05-03T15:16:42.155Z</time></trkpt><trkpt lat="44.3086994" lon="8.4692396"><ele>21.0</ele><time>2026-05-03T15:16:43.156Z</time></trkpt><trkpt lat="44.3085419" lon="8.4692381"><ele>21.0</ele><time>2026-05-03T15:16:44.155Z</time></trkpt><trkpt lat="44.3083858" lon="8.4692339"><ele>21.0</ele><time>2026-05-03T15:16:45.155Z</time></trkpt><trkpt lat="44.3082289" lon="8.4692278"><ele>21.0</ele><time>2026-05-03T15:16:46.155Z</time></trkpt><trkpt lat="44.3080729" lon="8.4692239"><ele>22.0</ele><time>2026-05-03T15:16:47.155Z</time></trkpt><trkpt lat="44.3079151" lon="8.4692195"><ele>23.0</ele><time>2026-05-03T15:16:48.155Z</time></trkpt><trkpt lat="44.3077564" lon="8.4692178"><ele>24.0</ele><time>2026-05-03T15:16:49.155Z</time></trkpt><trkpt lat="44.3075969" lon="8.4692164"><ele>24.0</ele><time>2026-05-03T15:16:50.155Z</time></trkpt><trkpt lat="44.3074375" lon="8.4692148"><ele>24.0</ele><time>2026-05-03T15:16:51.155Z</time></trkpt><trkpt lat="44.3072781" lon="8.4692134"><ele>24.0</ele><time>2026-05-03T15:16:52.155Z</time></trkpt><trkpt lat="44.3071188" lon="8.4692133"><ele>24.333333333333336</ele><time>2026-05-03T15:16:53.155Z</time></trkpt><trkpt lat="44.3069625" lon="8.4692125"><ele>24.666666666666668</ele><time>2026-05-03T15:16:54.155Z</time></trkpt><trkpt lat="44.3068097" lon="8.469207"><ele>25.0</ele><time>2026-05-03T15:16:55.156Z</time></trkpt><trkpt lat="44.3066587" lon="8.4692004"><ele>25.0</ele><time>2026-05-03T15:16:56.155Z</time></trkpt><trkpt lat="44.3065069" lon="8.4691943"><ele>25.0</ele><time>2026-05-03T15:16:57.155Z</time></trkpt><trkpt lat="44.3063545" lon="8.4691869"><ele>25.0</ele><time>2026-05-03T15:16:58.155Z</time></trkpt><trkpt lat="44.3061989" lon="8.4691769"><ele>26.333333333333336</ele><time>2026-05-03T15:16:59.155Z</time></trkpt><trkpt lat="44.3060475" lon="8.4691663"><ele>27.666666666666664</ele><time>2026-05-03T15:17:00.155Z</time></trkpt><trkpt lat="44.305887" lon="8.4691785"><ele>29.0</ele><time>2026-05-03T15:17:01.155Z</time></trkpt><trkpt lat="44.3057302" lon="8.4691884"><ele>28.0</ele><time>2026-05-03T15:17:02.155Z</time></trkpt><trkpt lat="44.3055677" lon="8.4691887"><ele>27.0</ele><time>2026-05-03T15:17:03.156Z</time></trkpt><trkpt lat="44.3054014" lon="8.4692027"><ele>26.0</ele><time>2026-05-03T15:17:04.155Z</time></trkpt><trkpt lat="44.3052397" lon="8.4692179"><ele>26.0</ele><time>2026-05-03T15:17:05.155Z</time></trkpt><trkpt lat="44.3050755" lon="8.4692287"><ele>26.0</ele><time>2026-05-03T15:17:06.155Z</time></trkpt><trkpt lat="44.3049179" lon="8.4692284"><ele>26.0</ele><time>2026-05-03T15:17:07.156Z</time></trkpt><trkpt lat="44.3047632" lon="8.4692349"><ele>24.5</ele><time>2026-05-03T15:17:08.155Z</time></trkpt><trkpt lat="44.3046172" lon="8.4692351"><ele>23.0</ele><time>2026-05-03T15:17:09.155Z</time></trkpt><trkpt lat="44.3044748" lon="8.4692329"><ele>21.5</ele><time>2026-05-03T15:17:10.155Z</time></trkpt><trkpt lat="44.3043294" lon="8.4692255"><ele>20.0</ele><time>2026-05-03T15:17:11.155Z</time></trkpt><trkpt lat="44.3041846" lon="8.4692159"><ele>20.0</ele><time>2026-05-03T15:17:12.155Z</time></trkpt><trkpt lat="44.3040377" lon="8.4692008"><ele>20.0</ele><time>2026-05-03T15:17:13.156Z</time></trkpt><trkpt lat="44.3038889" lon="8.4691793"><ele>20.0</ele><time>2026-05-03T15:17:14.155Z</time></trkpt><trkpt lat="44.3037427" lon="8.4691544"><ele>20.0</ele><time>2026-05-03T15:17:15.155Z</time></trkpt><trkpt lat="44.3035977" lon="8.4691299"><ele>20.0</ele><time>2026-05-03T15:17:16.155Z</time></trkpt><trkpt lat="44.3034543" lon="8.4690995"><ele>20.0</ele><time>2026-05-03T15:17:17.155Z</time></trkpt><trkpt lat="44.3033168" lon="8.4690688"><ele>20.0</ele><time>2026-05-03T15:17:18.155Z</time></trkpt><trkpt lat="44.3031859" lon="8.469038"><ele>20.0</ele><time>2026-05-03T15:17:19.156Z</time></trkpt><trkpt lat="44.3030664" lon="8.4690079"><ele>18.2</ele><time>2026-05-03T15:17:20.155Z</time></trkpt><trkpt lat="44.3029546" lon="8.4689691"><ele>16.4</ele><time>2026-05-03T15:17:21.155Z</time></trkpt><trkpt lat="44.3028551" lon="8.4689225"><ele>14.600000000000001</ele><time>2026-05-03T15:17:22.155Z</time></trkpt><trkpt lat="44.302755" lon="8.4688727"><ele>12.8</ele><time>2026-05-03T15:17:23.155Z</time></trkpt><trkpt lat="44.3026376" lon="8.4688411"><ele>11.0</ele><time>2026-05-03T15:17:24.155Z</time></trkpt><trkpt lat="44.3025097" lon="8.4688222"><ele>11.0</ele><time>2026-05-03T15:17:25.155Z</time></trkpt><trkpt lat="44.3023765" lon="8.4688058"><ele>11.0</ele><time>2026-05-03T15:17:26.156Z</time></trkpt><trkpt lat="44.3022453" lon="8.4687765"><ele>11.0</ele><time>2026-05-03T15:17:27.155Z</time></trkpt><trkpt lat="44.302118" lon="8.468739"><ele>11.0</ele><time>2026-05-03T15:17:28.155Z</time></trkpt><trkpt lat="44.3019955" lon="8.4686863"><ele>11.0</ele><time>2026-05-03T15:17:29.155Z</time></trkpt><trkpt lat="44.3018835" lon="8.4686015"><ele>11.0</ele><time>2026-05-03T15:17:30.155Z</time></trkpt><trkpt lat="44.3017789" lon="8.4684824"><ele>11.0</ele><time>2026-05-03T15:17:31.155Z</time></trkpt><trkpt lat="44.3016857" lon="8.4683346"><ele>11.0</ele><time>2026-05-03T15:17:32.156Z</time></trkpt><trkpt lat="44.301598" lon="8.4681741"><ele>11.0</ele><time>2026-05-03T15:17:33.155Z</time></trkpt><trkpt lat="44.3015117" lon="8.4680137"><ele>11.0</ele><time>2026-05-03T15:17:34.155Z</time></trkpt><trkpt lat="44.3014271" lon="8.4678626"><ele>11.0</ele><time>2026-05-03T15:17:35.155Z</time></trkpt><trkpt lat="44.3013414" lon="8.4677157"><ele>11.0</ele><time>2026-05-03T15:17:36.155Z</time></trkpt><trkpt lat="44.3012514" lon="8.467563"><ele>11.0</ele><time>2026-05-03T15:17:37.156Z</time></trkpt><trkpt lat="44.3011638" lon="8.4674049"><ele>11.0</ele><time>2026-05-03T15:17:38.155Z</time></trkpt><trkpt lat="44.3010786" lon="8.4672407"><ele>11.0</ele><time>2026-05-03T15:17:39.155Z</time></trkpt><trkpt lat="44.3009905" lon="8.4670692"><ele>11.0</ele><time>2026-05-03T15:17:40.156Z</time></trkpt><trkpt lat="44.3008991" lon="8.466894"><ele>10.666666666666666</ele><time>2026-05-03T15:17:41.155Z</time></trkpt><trkpt lat="44.3008083" lon="8.4667156"><ele>10.333333333333334</ele><time>2026-05-03T15:17:42.155Z</time></trkpt><trkpt lat="44.3007162" lon="8.4665404"><ele>10.0</ele><time>2026-05-03T15:17:43.155Z</time></trkpt><trkpt lat="44.300621" lon="8.4663733"><ele>9.666666666666668</ele><time>2026-05-03T15:17:44.155Z</time></trkpt><trkpt lat="44.3005204" lon="8.4662149"><ele>9.333333333333334</ele><time>2026-05-03T15:17:45.155Z</time></trkpt><trkpt lat="44.3004141" lon="8.4660548"><ele>9.0</ele><time>2026-05-03T15:17:46.156Z</time></trkpt><trkpt lat="44.3003068" lon="8.4658958"><ele>9.0</ele><time>2026-05-03T15:17:47.155Z</time></trkpt><trkpt lat="44.3002008" lon="8.465735"><ele>9.0</ele><time>2026-05-03T15:17:48.156Z</time></trkpt><trkpt lat="44.3000954" lon="8.4655744"><ele>9.0</ele><time>2026-05-03T15:17:49.155Z</time></trkpt><trkpt lat="44.2999904" lon="8.4654155"><ele>9.0</ele><time>2026-05-03T15:17:50.155Z</time></trkpt><trkpt lat="44.299892" lon="8.4652581"><ele>9.0</ele><time>2026-05-03T15:17:51.156Z</time></trkpt><trkpt lat="44.299798" lon="8.4651001"><ele>9.0</ele><time>2026-05-03T15:17:52.155Z</time></trkpt><trkpt lat="44.2997057" lon="8.4649387"><ele>9.0</ele><time>2026-05-03T15:17:53.155Z</time></trkpt><trkpt lat="44.299616" lon="8.4647793"><ele>9.0</ele><time>2026-05-03T15:17:54.156Z</time></trkpt><trkpt lat="44.2995327" lon="8.4646293"><ele>9.0</ele><time>2026-05-03T15:17:55.155Z</time></trkpt><trkpt lat="44.2994557" lon="8.4644883"><ele>9.0</ele><time>2026-05-03T15:17:56.155Z</time></trkpt><trkpt lat="44.2993843" lon="8.4643598"><ele>9.0</ele><time>2026-05-03T15:17:57.155Z</time></trkpt><trkpt lat="44.2993133" lon="8.4642374"><ele>8.75</ele><time>2026-05-03T15:17:58.155Z</time></trkpt><trkpt lat="44.2992382" lon="8.4641155"><ele>8.5</ele><time>2026-05-03T15:17:59.156Z</time></trkpt><trkpt lat="44.2991562" lon="8.4639815"><ele>8.25</ele><time>2026-05-03T15:18:00.155Z</time></trkpt><trkpt lat="44.2990726" lon="8.4638404"><ele>8.0</ele><time>2026-05-03T15:18:01.155Z</time></trkpt><trkpt lat="44.2989954" lon="8.4637025"><ele>8.0</ele><time>2026-05-03T15:18:02.155Z</time></trkpt><trkpt lat="44.2989254" lon="8.4635762"><ele>8.0</ele><time>2026-05-03T15:18:03.155Z</time></trkpt><trkpt lat="44.2988596" lon="8.4634597"><ele>8.0</ele><time>2026-05-03T15:18:04.155Z</time></trkpt><trkpt lat="44.2987985" lon="8.4633501"><ele>8.0</ele><time>2026-05-03T15:18:05.155Z</time></trkpt><trkpt lat="44.2987421" lon="8.4632412"><ele>8.0</ele><time>2026-05-03T15:18:06.155Z</time></trkpt><trkpt lat="44.2987028" lon="8.4631235"><ele>7.999999999999999</ele><time>2026-05-03T15:18:07.155Z</time></trkpt><trkpt lat="44.2986967" lon="8.4630044"><ele>8.0</ele><time>2026-05-03T15:18:08.155Z</time></trkpt><trkpt lat="44.2987189" lon="8.4629149"><ele>8.0</ele><time>2026-05-03T15:18:09.156Z</time></trkpt><trkpt lat="44.2987794" lon="8.4628203"><ele>8.0</ele><time>2026-05-03T15:18:11.155Z</time></trkpt><trkpt lat="44.2988538" lon="8.4627604"><ele>7.999999999999999</ele><time>2026-05-03T15:18:13.156Z</time></trkpt><trkpt lat="44.298955" lon="8.4626826"><ele>8.0</ele><time>2026-05-03T15:18:15.155Z</time></trkpt><trkpt lat="44.299001" lon="8.4626211"><ele>8.200000000000001</ele><time>2026-05-03T15:18:16.155Z</time></trkpt><trkpt lat="44.2989978" lon="8.4624672"><ele>8.4</ele><time>2026-05-03T15:18:18.156Z</time></trkpt><trkpt lat="44.2989377" lon="8.4623953"><ele>8.600000000000001</ele><time>2026-05-03T15:18:19.155Z</time></trkpt><trkpt lat="44.2988588" lon="8.4623109"><ele>8.8</ele><time>2026-05-03T15:18:20.155Z</time></trkpt><trkpt lat="44.2987794" lon="8.4621911"><ele>9.0</ele><time>2026-05-03T15:18:21.155Z</time></trkpt><trkpt lat="44.2987091" lon="8.4620343"><ele>9.0</ele><time>2026-05-03T15:18:22.156Z</time></trkpt><trkpt lat="44.2986494" lon="8.4618684"><ele>9.0</ele><time>2026-05-03T15:18:23.155Z</time></trkpt><trkpt lat="44.2985868" lon="8.4616843"><ele>9.0</ele><time>2026-05-03T15:18:24.155Z</time></trkpt><trkpt lat="44.2985271" lon="8.4614984"><ele>9.0</ele><time>2026-05-03T15:18:25.156Z</time></trkpt><trkpt lat="44.2984687" lon="8.4613169"><ele>9.0</ele><time>2026-05-03T15:18:26.156Z</time></trkpt><trkpt lat="44.2984062" lon="8.4611271"><ele>9.0</ele><time>2026-05-03T15:18:27.156Z</time></trkpt><trkpt lat="44.2983436" lon="8.4609409"><ele>9.0</ele><time>2026-05-03T15:18:28.155Z</time></trkpt><trkpt lat="44.2982829" lon="8.4607711"><ele>9.0</ele><time>2026-05-03T15:18:29.155Z</time></trkpt><trkpt lat="44.298224" lon="8.4606156"><ele>9.0</ele><time>2026-05-03T15:18:30.155Z</time></trkpt><trkpt lat="44.298166" lon="8.4604736"><ele>9.0</ele><time>2026-05-03T15:18:31.155Z</time></trkpt><trkpt lat="44.2981069" lon="8.4603393"><ele>9.0</ele><time>2026-05-03T15:18:32.155Z</time></trkpt><trkpt lat="44.2980421" lon="8.4602044"><ele>9.0</ele><time>2026-05-03T15:18:33.155Z</time></trkpt><trkpt lat="44.2979702" lon="8.4600602"><ele>9.0</ele><time>2026-05-03T15:18:34.155Z</time></trkpt><trkpt lat="44.2978973" lon="8.4599034"><ele>9.0</ele><time>2026-05-03T15:18:35.155Z</time></trkpt><trkpt lat="44.2978243" lon="8.4597386"><ele>9.0</ele><time>2026-05-03T15:18:36.155Z</time></trkpt><trkpt lat="44.2977491" lon="8.459568"><ele>9.0</ele><time>2026-05-03T15:18:37.155Z</time></trkpt><trkpt lat="44.2976671" lon="8.4594027"><ele>9.0</ele><time>2026-05-03T15:18:38.155Z</time></trkpt><trkpt lat="44.2975789" lon="8.4592419"><ele>9.0</ele><time>2026-05-03T15:18:39.156Z</time></trkpt><trkpt lat="44.2974852" lon="8.4590894"><ele>9.0</ele><time>2026-05-03T15:18:40.155Z</time></trkpt><trkpt lat="44.2973901" lon="8.4589397"><ele>9.0</ele><time>2026-05-03T15:18:41.155Z</time></trkpt><trkpt lat="44.2972983" lon="8.4587864"><ele>9.25</ele><time>2026-05-03T15:18:42.155Z</time></trkpt><trkpt lat="44.2972076" lon="8.4586311"><ele>9.5</ele><time>2026-05-03T15:18:43.155Z</time></trkpt><trkpt lat="44.2971215" lon="8.4584797"><ele>9.75</ele><time>2026-05-03T15:18:44.155Z</time></trkpt><trkpt lat="44.2970383" lon="8.4583331"><ele>10.0</ele><time>2026-05-03T15:18:45.155Z</time></trkpt><trkpt lat="44.2969576" lon="8.4581942"><ele>10.0</ele><time>2026-05-03T15:18:46.155Z</time></trkpt><trkpt lat="44.2968771" lon="8.4580575"><ele>10.0</ele><time>2026-05-03T15:18:47.155Z</time></trkpt><trkpt lat="44.2967941" lon="8.4579148"><ele>10.0</ele><time>2026-05-03T15:18:48.155Z</time></trkpt><trkpt lat="44.2967129" lon="8.4577717"><ele>10.0</ele><time>2026-05-03T15:18:49.155Z</time></trkpt><trkpt lat="44.296639" lon="8.457636"><ele>9.6</ele><time>2026-05-03T15:18:50.155Z</time></trkpt><trkpt lat="44.2965695" lon="8.4575107"><ele>9.2</ele><time>2026-05-03T15:18:51.155Z</time></trkpt><trkpt lat="44.2965066" lon="8.457393"><ele>8.8</ele><time>2026-05-03T15:18:52.155Z</time></trkpt><trkpt lat="44.2964592" lon="8.457278"><ele>8.4</ele><time>2026-05-03T15:18:53.155Z</time></trkpt><trkpt lat="44.2964332" lon="8.4571645"><ele>8.0</ele><time>2026-05-03T15:18:54.156Z</time></trkpt><trkpt lat="44.2964247" lon="8.4570535"><ele>7.999999999999999</ele><time>2026-05-03T15:18:55.155Z</time></trkpt><trkpt lat="44.2964223" lon="8.4569434"><ele>8.0</ele><time>2026-05-03T15:18:56.155Z</time></trkpt><trkpt lat="44.2964159" lon="8.4568281"><ele>8.0</ele><time>2026-05-03T15:18:57.155Z</time></trkpt><trkpt lat="44.2964062" lon="8.4567113"><ele>8.0</ele><time>2026-05-03T15:18:58.156Z</time></trkpt><trkpt lat="44.2963875" lon="8.4565998"><ele>7.999999999999999</ele><time>2026-05-03T15:18:59.155Z</time></trkpt><trkpt lat="44.2963558" lon="8.4564955"><ele>8.0</ele><time>2026-05-03T15:19:00.156Z</time></trkpt><trkpt lat="44.2963093" lon="8.4564041"><ele>7.999999999999999</ele><time>2026-05-03T15:19:01.155Z</time></trkpt><trkpt lat="44.2962508" lon="8.456335"><ele>8.0</ele><time>2026-05-03T15:19:02.155Z</time></trkpt><trkpt lat="44.2961893" lon="8.4562911"><ele>8.0</ele><time>2026-05-03T15:19:03.155Z</time></trkpt><trkpt lat="44.2961254" lon="8.4562713"><ele>8.0</ele><time>2026-05-03T15:19:04.156Z</time></trkpt><trkpt lat="44.2960483" lon="8.4562671"><ele>7.999999999999999</ele><time>2026-05-03T15:19:05.155Z</time></trkpt><trkpt lat="44.2959462" lon="8.4562622"><ele>8.0</ele><time>2026-05-03T15:19:06.155Z</time></trkpt><trkpt lat="44.2958399" lon="8.4562147"><ele>8.0</ele><time>2026-05-03T15:19:07.155Z</time></trkpt><trkpt lat="44.2957489" lon="8.4561095"><ele>8.0</ele><time>2026-05-03T15:19:08.155Z</time></trkpt><trkpt lat="44.2956662" lon="8.4559641"><ele>8.0</ele><time>2026-05-03T15:19:09.156Z</time></trkpt><trkpt lat="44.2955842" lon="8.4558015"><ele>8.0</ele><time>2026-05-03T15:19:10.155Z</time></trkpt><trkpt lat="44.2954932" lon="8.455634"><ele>8.0</ele><time>2026-05-03T15:19:11.155Z</time></trkpt><trkpt lat="44.295394" lon="8.4554746"><ele>8.0</ele><time>2026-05-03T15:19:12.155Z</time></trkpt><trkpt lat="44.2952818" lon="8.4553372"><ele>8.0</ele><time>2026-05-03T15:19:13.155Z</time></trkpt><trkpt lat="44.2951597" lon="8.4552073"><ele>8.25</ele><time>2026-05-03T15:19:14.156Z</time></trkpt><trkpt lat="44.2950455" lon="8.455067"><ele>8.5</ele><time>2026-05-03T15:19:15.156Z</time></trkpt><trkpt lat="44.294946" lon="8.454916"><ele>8.75</ele><time>2026-05-03T15:19:16.155Z</time></trkpt><trkpt lat="44.2948524" lon="8.4547615"><ele>9.0</ele><time>2026-05-03T15:19:17.155Z</time></trkpt><trkpt lat="44.2947666" lon="8.4545958"><ele>9.25</ele><time>2026-05-03T15:19:18.155Z</time></trkpt><trkpt lat="44.2946832" lon="8.4544304"><ele>9.5</ele><time>2026-05-03T15:19:19.155Z</time></trkpt><trkpt lat="44.2945959" lon="8.4542717"><ele>9.75</ele><time>2026-05-03T15:19:20.155Z</time></trkpt><trkpt lat="44.2945094" lon="8.454114"><ele>10.0</ele><time>2026-05-03T15:19:21.156Z</time></trkpt><trkpt lat="44.2944337" lon="8.4539535"><ele>9.75</ele><time>2026-05-03T15:19:22.156Z</time></trkpt><trkpt lat="44.294368" lon="8.4537883"><ele>9.5</ele><time>2026-05-03T15:19:23.155Z</time></trkpt><trkpt lat="44.2943041" lon="8.4536242"><ele>9.25</ele><time>2026-05-03T15:19:24.155Z</time></trkpt><trkpt lat="44.2942381" lon="8.4534708"><ele>9.0</ele><time>2026-05-03T15:19:25.156Z</time></trkpt><trkpt lat="44.2941764" lon="8.4533269"><ele>9.0</ele><time>2026-05-03T15:19:26.155Z</time></trkpt><trkpt lat="44.2941129" lon="8.4531807"><ele>9.0</ele><time>2026-05-03T15:19:27.155Z</time></trkpt><trkpt lat="44.2940496" lon="8.4530337"><ele>9.0</ele><time>2026-05-03T15:19:28.156Z</time></trkpt><trkpt lat="44.2939843" lon="8.4528879"><ele>9.0</ele><time>2026-05-03T15:19:29.155Z</time></trkpt><trkpt lat="44.2939167" lon="8.4527334"><ele>9.0</ele><time>2026-05-03T15:19:30.155Z</time></trkpt><trkpt lat="44.2938491" lon="8.4525686"><ele>9.0</ele><time>2026-05-03T15:19:31.156Z</time></trkpt><trkpt lat="44.2937854" lon="8.4523943"><ele>9.0</ele><time>2026-05-03T15:19:32.156Z</time></trkpt><trkpt lat="44.2937225" lon="8.45221"><ele>9.0</ele><time>2026-05-03T15:19:33.155Z</time></trkpt><trkpt lat="44.2936488" lon="8.4520313"><ele>9.0</ele><time>2026-05-03T15:19:34.155Z</time></trkpt><trkpt lat="44.2935558" lon="8.4518647"><ele>9.0</ele><time>2026-05-03T15:19:35.155Z</time></trkpt><trkpt lat="44.293454" lon="8.4517031"><ele>9.0</ele><time>2026-05-03T15:19:36.155Z</time></trkpt><trkpt lat="44.2933501" lon="8.4515459"><ele>9.0</ele><time>2026-05-03T15:19:37.155Z</time></trkpt><trkpt lat="44.2932408" lon="8.4513861"><ele>9.0</ele><time>2026-05-03T15:19:38.156Z</time></trkpt><trkpt lat="44.2931252" lon="8.4512276"><ele>9.0</ele><time>2026-05-03T15:19:39.155Z</time></trkpt><trkpt lat="44.2929993" lon="8.4510789"><ele>9.666666666666666</ele><time>2026-05-03T15:19:40.155Z</time></trkpt><trkpt lat="44.292864" lon="8.4509439"><ele>10.333333333333332</ele><time>2026-05-03T15:19:41.156Z</time></trkpt><trkpt lat="44.2927215" lon="8.4508241"><ele>11.0</ele><time>2026-05-03T15:19:42.155Z</time></trkpt><trkpt lat="44.2925699" lon="8.4507191"><ele>11.0</ele><time>2026-05-03T15:19:43.155Z</time></trkpt><trkpt lat="44.292411" lon="8.4506377"><ele>11.0</ele><time>2026-05-03T15:19:44.155Z</time></trkpt><trkpt lat="44.2922477" lon="8.4505766"><ele>11.0</ele><time>2026-05-03T15:19:45.155Z</time></trkpt><trkpt lat="44.292084" lon="8.4505374"><ele>11.666666666666666</ele><time>2026-05-03T15:19:46.156Z</time></trkpt><trkpt lat="44.2919218" lon="8.450511"><ele>12.333333333333332</ele><time>2026-05-03T15:19:47.155Z</time></trkpt><trkpt lat="44.2917595" lon="8.4504916"><ele>13.0</ele><time>2026-05-03T15:19:48.155Z</time></trkpt><trkpt lat="44.291599" lon="8.4504703"><ele>15.0</ele><time>2026-05-03T15:19:49.155Z</time></trkpt><trkpt lat="44.2914443" lon="8.4504467"><ele>17.0</ele><time>2026-05-03T15:19:50.155Z</time></trkpt><trkpt lat="44.2912939" lon="8.4504173"><ele>19.0</ele><time>2026-05-03T15:19:51.155Z</time></trkpt><trkpt lat="44.2911444" lon="8.450383"><ele>20.333333333333332</ele><time>2026-05-03T15:19:52.155Z</time></trkpt><trkpt lat="44.2909953" lon="8.4503424"><ele>21.666666666666668</ele><time>2026-05-03T15:19:53.156Z</time></trkpt><trkpt lat="44.2908414" lon="8.4502816"><ele>23.0</ele><time>2026-05-03T15:19:54.155Z</time></trkpt><trkpt lat="44.2906837" lon="8.4502031"><ele>19.333333333333336</ele><time>2026-05-03T15:19:55.155Z</time></trkpt><trkpt lat="44.2905249" lon="8.4501106"><ele>15.666666666666668</ele><time>2026-05-03T15:19:56.155Z</time></trkpt><trkpt lat="44.2903709" lon="8.45001"><ele>12.0</ele><time>2026-05-03T15:19:57.156Z</time></trkpt><trkpt lat="44.2902197" lon="8.449893"><ele>12.0</ele><time>2026-05-03T15:19:58.155Z</time></trkpt><trkpt lat="44.2900658" lon="8.4497651"><ele>12.0</ele><time>2026-05-03T15:19:59.155Z</time></trkpt><trkpt lat="44.2899142" lon="8.4496332"><ele>12.0</ele><time>2026-05-03T15:20:00.155Z</time></trkpt><trkpt lat="44.289773" lon="8.4495045"><ele>12.333333333333332</ele><time>2026-05-03T15:20:01.155Z</time></trkpt><trkpt lat="44.2896381" lon="8.4493738"><ele>12.666666666666666</ele><time>2026-05-03T15:20:02.156Z</time></trkpt><trkpt lat="44.2895079" lon="8.4492369"><ele>13.0</ele><time>2026-05-03T15:20:03.155Z</time></trkpt><trkpt lat="44.2893851" lon="8.449096"><ele>13.0</ele><time>2026-05-03T15:20:04.155Z</time></trkpt><trkpt lat="44.2892658" lon="8.4489552"><ele>13.0</ele><time>2026-05-03T15:20:05.155Z</time></trkpt><trkpt lat="44.2891523" lon="8.4488074"><ele>13.0</ele><time>2026-05-03T15:20:06.155Z</time></trkpt><trkpt lat="44.2890413" lon="8.4486619"><ele>13.666666666666666</ele><time>2026-05-03T15:20:07.155Z</time></trkpt><trkpt lat="44.2889293" lon="8.448512"><ele>14.333333333333332</ele><time>2026-05-03T15:20:08.155Z</time></trkpt><trkpt lat="44.2888165" lon="8.44836"><ele>15.0</ele><time>2026-05-03T15:20:09.155Z</time></trkpt><trkpt lat="44.2887033" lon="8.448206"><ele>15.0</ele><time>2026-05-03T15:20:10.155Z</time></trkpt><trkpt lat="44.2885913" lon="8.4480403"><ele>15.0</ele><time>2026-05-03T15:20:11.155Z</time></trkpt><trkpt lat="44.2884817" lon="8.4478714"><ele>15.0</ele><time>2026-05-03T15:20:12.155Z</time></trkpt><trkpt lat="44.288376" lon="8.4477019"><ele>14.333333333333332</ele><time>2026-05-03T15:20:13.155Z</time></trkpt><trkpt lat="44.2882712" lon="8.447537"><ele>13.666666666666666</ele><time>2026-05-03T15:20:14.156Z</time></trkpt><trkpt lat="44.2881654" lon="8.4473695"><ele>13.0</ele><time>2026-05-03T15:20:15.155Z</time></trkpt><trkpt lat="44.2880654" lon="8.4472102"><ele>14.25</ele><time>2026-05-03T15:20:16.155Z</time></trkpt><trkpt lat="44.2879737" lon="8.447059"><ele>15.5</ele><time>2026-05-03T15:20:17.155Z</time></trkpt><trkpt lat="44.287891" lon="8.4469173"><ele>16.75</ele><time>2026-05-03T15:20:18.155Z</time></trkpt><trkpt lat="44.2878209" lon="8.4467829"><ele>18.0</ele><time>2026-05-03T15:20:19.155Z</time></trkpt><trkpt lat="44.2877642" lon="8.4466554"><ele>18.0</ele><time>2026-05-03T15:20:20.156Z</time></trkpt><trkpt lat="44.2877157" lon="8.4465335"><ele>18.0</ele><time>2026-05-03T15:20:21.156Z</time></trkpt><trkpt lat="44.2876734" lon="8.4464214"><ele>18.0</ele><time>2026-05-03T15:20:22.155Z</time></trkpt><trkpt lat="44.2876355" lon="8.4463105"><ele>18.0</ele><time>2026-05-03T15:20:23.155Z</time></trkpt><trkpt lat="44.2875961" lon="8.4461962"><ele>18.0</ele><time>2026-05-03T15:20:24.155Z</time></trkpt><trkpt lat="44.2875535" lon="8.4460736"><ele>18.8</ele><time>2026-05-03T15:20:25.155Z</time></trkpt><trkpt lat="44.2875094" lon="8.4459496"><ele>19.6</ele><time>2026-05-03T15:20:26.156Z</time></trkpt><trkpt lat="44.2874643" lon="8.4458121"><ele>20.400000000000002</ele><time>2026-05-03T15:20:27.155Z</time></trkpt><trkpt lat="44.2874186" lon="8.4456766"><ele>21.200000000000003</ele><time>2026-05-03T15:20:28.155Z</time></trkpt><trkpt lat="44.2873681" lon="8.4455499"><ele>22.0</ele><time>2026-05-03T15:20:29.155Z</time></trkpt><trkpt lat="44.2873045" lon="8.4454171"><ele>23.25</ele><time>2026-05-03T15:20:30.155Z</time></trkpt><trkpt lat="44.287227" lon="8.445269"><ele>24.5</ele><time>2026-05-03T15:20:31.155Z</time></trkpt><trkpt lat="44.2871461" lon="8.4451062"><ele>25.75</ele><time>2026-05-03T15:20:32.155Z</time></trkpt><trkpt lat="44.2870696" lon="8.4449285"><ele>27.0</ele><time>2026-05-03T15:20:33.155Z</time></trkpt><trkpt lat="44.2870038" lon="8.4447502"><ele>27.333333333333336</ele><time>2026-05-03T15:20:34.155Z</time></trkpt><trkpt lat="44.2869474" lon="8.4445613"><ele>27.666666666666668</ele><time>2026-05-03T15:20:35.155Z</time></trkpt><trkpt lat="44.2868891" lon="8.4443601"><ele>28.0</ele><time>2026-05-03T15:20:36.156Z</time></trkpt><trkpt lat="44.2868279" lon="8.4441583"><ele>28.0</ele><time>2026-05-03T15:20:37.155Z</time></trkpt><trkpt lat="44.2867612" lon="8.4439584"><ele>28.0</ele><time>2026-05-03T15:20:38.155Z</time></trkpt><trkpt lat="44.2866961" lon="8.4437592"><ele>28.0</ele><time>2026-05-03T15:20:39.155Z</time></trkpt><trkpt lat="44.2866314" lon="8.4435557"><ele>27.333333333333336</ele><time>2026-05-03T15:20:40.155Z</time></trkpt><trkpt lat="44.2865695" lon="8.4433542"><ele>26.666666666666664</ele><time>2026-05-03T15:20:41.155Z</time></trkpt><trkpt lat="44.2865032" lon="8.4431472"><ele>26.0</ele><time>2026-05-03T15:20:42.155Z</time></trkpt><trkpt lat="44.2864347" lon="8.4429386"><ele>25.666666666666664</ele><time>2026-05-03T15:20:43.155Z</time></trkpt><trkpt lat="44.2863666" lon="8.4427277"><ele>25.333333333333336</ele><time>2026-05-03T15:20:44.155Z</time></trkpt><trkpt lat="44.2862984" lon="8.4425204"><ele>25.0</ele><time>2026-05-03T15:20:45.156Z</time></trkpt><trkpt lat="44.2862294" lon="8.4423194"><ele>22.666666666666668</ele><time>2026-05-03T15:20:46.155Z</time></trkpt><trkpt lat="44.2861405" lon="8.4421308"><ele>20.333333333333336</ele><time>2026-05-03T15:20:47.155Z</time></trkpt><trkpt lat="44.2860333" lon="8.4419565"><ele>18.0</ele><time>2026-05-03T15:20:48.155Z</time></trkpt><trkpt lat="44.2859143" lon="8.4417915"><ele>18.0</ele><time>2026-05-03T15:20:49.155Z</time></trkpt><trkpt lat="44.2857878" lon="8.4416425"><ele>18.0</ele><time>2026-05-03T15:20:50.155Z</time></trkpt><trkpt lat="44.2856489" lon="8.4415139"><ele>18.0</ele><time>2026-05-03T15:20:51.156Z</time></trkpt><trkpt lat="44.2854946" lon="8.4414068"><ele>16.333333333333332</ele><time>2026-05-03T15:20:52.155Z</time></trkpt><trkpt lat="44.2853337" lon="8.4413161"><ele>14.666666666666666</ele><time>2026-05-03T15:20:53.155Z</time></trkpt><trkpt lat="44.2851697" lon="8.4412336"><ele>13.0</ele><time>2026-05-03T15:20:54.156Z</time></trkpt><trkpt lat="44.2850044" lon="8.4411534"><ele>12.0</ele><time>2026-05-03T15:20:55.156Z</time></trkpt><trkpt lat="44.2848414" lon="8.4410753"><ele>11.0</ele><time>2026-05-03T15:20:56.155Z</time></trkpt><trkpt lat="44.2846791" lon="8.4409932"><ele>10.0</ele><time>2026-05-03T15:20:57.155Z</time></trkpt><trkpt lat="44.2845201" lon="8.4409111"><ele>10.0</ele><time>2026-05-03T15:20:58.155Z</time></trkpt><trkpt lat="44.2843578" lon="8.440832"><ele>10.0</ele><time>2026-05-03T15:20:59.155Z</time></trkpt><trkpt lat="44.2841943" lon="8.4407532"><ele>10.0</ele><time>2026-05-03T15:21:00.155Z</time></trkpt><trkpt lat="44.2840297" lon="8.4406727"><ele>8.333333333333334</ele><time>2026-05-03T15:21:01.156Z</time></trkpt><trkpt lat="44.2838666" lon="8.4405924"><ele>6.666666666666667</ele><time>2026-05-03T15:21:02.155Z</time></trkpt><trkpt lat="44.2837046" lon="8.4405121"><ele>5.0</ele><time>2026-05-03T15:21:03.155Z</time></trkpt><trkpt lat="44.2835429" lon="8.4404318"><ele>4.666666666666667</ele><time>2026-05-03T15:21:04.155Z</time></trkpt><trkpt lat="44.2833807" lon="8.4403525"><ele>4.333333333333333</ele><time>2026-05-03T15:21:05.155Z</time></trkpt><trkpt lat="44.283218" lon="8.4402713"><ele>4.0</ele><time>2026-05-03T15:21:06.156Z</time></trkpt><trkpt lat="44.2830536" lon="8.440194"><ele>4.0</ele><time>2026-05-03T15:21:07.155Z</time></trkpt><trkpt lat="44.2828909" lon="8.4401234"><ele>4.0</ele><time>2026-05-03T15:21:08.155Z</time></trkpt><trkpt lat="44.2827222" lon="8.4400569"><ele>4.0</ele><time>2026-05-03T15:21:09.155Z</time></trkpt><trkpt lat="44.2825513" lon="8.4400008"><ele>4.0</ele><time>2026-05-03T15:21:10.155Z</time></trkpt><trkpt lat="44.2823746" lon="8.4399561"><ele>4.0</ele><time>2026-05-03T15:21:11.155Z</time></trkpt><trkpt lat="44.2821911" lon="8.4399234"><ele>4.0</ele><time>2026-05-03T15:21:12.156Z</time></trkpt><trkpt lat="44.2820042" lon="8.4398947"><ele>5.0</ele><time>2026-05-03T15:21:13.155Z</time></trkpt><trkpt lat="44.2818171" lon="8.4398704"><ele>6.0</ele><time>2026-05-03T15:21:14.155Z</time></trkpt><trkpt lat="44.2816323" lon="8.439855"><ele>7.0</ele><time>2026-05-03T15:21:15.156Z</time></trkpt><trkpt lat="44.2814512" lon="8.4398398"><ele>6.666666666666667</ele><time>2026-05-03T15:21:16.155Z</time></trkpt><trkpt lat="44.2812647" lon="8.4398188"><ele>6.333333333333334</ele><time>2026-05-03T15:21:17.155Z</time></trkpt><trkpt lat="44.2810811" lon="8.4397789"><ele>6.0</ele><time>2026-05-03T15:21:18.155Z</time></trkpt><trkpt lat="44.2809037" lon="8.4397268"><ele>6.0</ele><time>2026-05-03T15:21:19.155Z</time></trkpt><trkpt lat="44.2807289" lon="8.4396576"><ele>6.0</ele><time>2026-05-03T15:21:20.155Z</time></trkpt><trkpt lat="44.2805619" lon="8.4395669"><ele>6.0</ele><time>2026-05-03T15:21:21.155Z</time></trkpt><trkpt lat="44.2804103" lon="8.4394602"><ele>6.0</ele><time>2026-05-03T15:21:22.155Z</time></trkpt><trkpt lat="44.2802705" lon="8.4393407"><ele>6.0</ele><time>2026-05-03T15:21:23.156Z</time></trkpt><trkpt lat="44.2801386" lon="8.4392067"><ele>6.0</ele><time>2026-05-03T15:21:24.155Z</time></trkpt><trkpt lat="44.2800202" lon="8.4390621"><ele>6.0</ele><time>2026-05-03T15:21:25.155Z</time></trkpt><trkpt lat="44.2799195" lon="8.4389215"><ele>6.0</ele><time>2026-05-03T15:21:26.155Z</time></trkpt><trkpt lat="44.279836" lon="8.4387814"><ele>6.0</ele><time>2026-05-03T15:21:27.155Z</time></trkpt><trkpt lat="44.2797538" lon="8.4386307"><ele>6.0</ele><time>2026-05-03T15:21:28.156Z</time></trkpt><trkpt lat="44.2796757" lon="8.4384661"><ele>5.5</ele><time>2026-05-03T15:21:29.155Z</time></trkpt><trkpt lat="44.2796015" lon="8.4382967"><ele>5.0</ele><time>2026-05-03T15:21:30.155Z</time></trkpt><trkpt lat="44.2795231" lon="8.4381209"><ele>4.5</ele><time>2026-05-03T15:21:31.155Z</time></trkpt><trkpt lat="44.2794454" lon="8.4379371"><ele>4.0</ele><time>2026-05-03T15:21:32.155Z</time></trkpt><trkpt lat="44.2793617" lon="8.4377454"><ele>4.0</ele><time>2026-05-03T15:21:33.155Z</time></trkpt><trkpt lat="44.2792691" lon="8.4375549"><ele>4.0</ele><time>2026-05-03T15:21:34.155Z</time></trkpt><trkpt lat="44.2791556" lon="8.4373782"><ele>4.0</ele><time>2026-05-03T15:21:35.155Z</time></trkpt><trkpt lat="44.279021" lon="8.4372217"><ele>5.0</ele><time>2026-05-03T15:21:36.155Z</time></trkpt><trkpt lat="44.2788727" lon="8.4370787"><ele>6.0</ele><time>2026-05-03T15:21:37.155Z</time></trkpt><trkpt lat="44.2787119" lon="8.4369515"><ele>7.0</ele><time>2026-05-03T15:21:38.155Z</time></trkpt><trkpt lat="44.2785454" lon="8.4368384"><ele>7.0</ele><time>2026-05-03T15:21:39.155Z</time></trkpt><trkpt lat="44.2783692" lon="8.4367381"><ele>7.0</ele><time>2026-05-03T15:21:40.155Z</time></trkpt><trkpt lat="44.2781878" lon="8.4366435"><ele>7.0</ele><time>2026-05-03T15:21:41.155Z</time></trkpt><trkpt lat="44.2780066" lon="8.4365451"><ele>7.333333333333334</ele><time>2026-05-03T15:21:42.155Z</time></trkpt><trkpt lat="44.2778235" lon="8.4364446"><ele>7.666666666666666</ele><time>2026-05-03T15:21:43.155Z</time></trkpt><trkpt lat="44.2776378" lon="8.4363458"><ele>8.0</ele><time>2026-05-03T15:21:44.156Z</time></trkpt><trkpt lat="44.2774534" lon="8.4362467"><ele>8.0</ele><time>2026-05-03T15:21:45.155Z</time></trkpt><trkpt lat="44.2772677" lon="8.4361469"><ele>8.0</ele><time>2026-05-03T15:21:46.156Z</time></trkpt><trkpt lat="44.2770821" lon="8.4360463"><ele>8.0</ele><time>2026-05-03T15:21:47.156Z</time></trkpt><trkpt lat="44.2768987" lon="8.4359444"><ele>8.0</ele><time>2026-05-03T15:21:48.155Z</time></trkpt><trkpt lat="44.276715" lon="8.4358411"><ele>8.0</ele><time>2026-05-03T15:21:49.155Z</time></trkpt><trkpt lat="44.2765325" lon="8.4357426"><ele>8.0</ele><time>2026-05-03T15:21:50.155Z</time></trkpt><trkpt lat="44.276349" lon="8.4356413"><ele>8.0</ele><time>2026-05-03T15:21:51.156Z</time></trkpt><trkpt lat="44.2761698" lon="8.4355397"><ele>8.0</ele><time>2026-05-03T15:21:52.155Z</time></trkpt><trkpt lat="44.2759934" lon="8.4354431"><ele>8.0</ele><time>2026-05-03T15:21:53.155Z</time></trkpt><trkpt lat="44.2758214" lon="8.4353483"><ele>8.0</ele><time>2026-05-03T15:21:54.155Z</time></trkpt><trkpt lat="44.2756524" lon="8.435257"><ele>8.0</ele><time>2026-05-03T15:21:55.155Z</time></trkpt><trkpt lat="44.2754932" lon="8.4351678"><ele>8.0</ele><time>2026-05-03T15:21:56.155Z</time></trkpt><trkpt lat="44.2753478" lon="8.4350725"><ele>7.666666666666666</ele><time>2026-05-03T15:21:57.156Z</time></trkpt><trkpt lat="44.2752139" lon="8.4349607"><ele>7.333333333333334</ele><time>2026-05-03T15:21:58.155Z</time></trkpt><trkpt lat="44.2750874" lon="8.4348294"><ele>7.0</ele><time>2026-05-03T15:21:59.155Z</time></trkpt><trkpt lat="44.2749681" lon="8.4346757"><ele>8.666666666666668</ele><time>2026-05-03T15:22:00.155Z</time></trkpt><trkpt lat="44.2748609" lon="8.434503"><ele>10.333333333333334</ele><time>2026-05-03T15:22:01.155Z</time></trkpt><trkpt lat="44.2747674" lon="8.4343022"><ele>12.0</ele><time>2026-05-03T15:22:02.157Z</time></trkpt><trkpt lat="44.2746771" lon="8.4341014"><ele>12.0</ele><time>2026-05-03T15:22:03.155Z</time></trkpt><trkpt lat="44.2745897" lon="8.4338884"><ele>12.0</ele><time>2026-05-03T15:22:04.156Z</time></trkpt><trkpt lat="44.2745018" lon="8.4336704"><ele>12.0</ele><time>2026-05-03T15:22:05.155Z</time></trkpt><trkpt lat="44.2744088" lon="8.43346"><ele>12.666666666666668</ele><time>2026-05-03T15:22:06.155Z</time></trkpt><trkpt lat="44.2743105" lon="8.4332499"><ele>13.333333333333334</ele><time>2026-05-03T15:22:07.155Z</time></trkpt><trkpt lat="44.2742022" lon="8.4330558"><ele>14.0</ele><time>2026-05-03T15:22:08.155Z</time></trkpt><trkpt lat="44.2740799" lon="8.4328745"><ele>15.666666666666668</ele><time>2026-05-03T15:22:09.156Z</time></trkpt><trkpt lat="44.2739437" lon="8.4327082"><ele>17.333333333333332</ele><time>2026-05-03T15:22:10.155Z</time></trkpt><trkpt lat="44.2738062" lon="8.4325489"><ele>19.0</ele><time>2026-05-03T15:22:11.155Z</time></trkpt><trkpt lat="44.2736664" lon="8.4323934"><ele>20.0</ele><time>2026-05-03T15:22:12.156Z</time></trkpt><trkpt lat="44.2735238" lon="8.4322362"><ele>21.0</ele><time>2026-05-03T15:22:13.156Z</time></trkpt><trkpt lat="44.2733785" lon="8.4320759"><ele>22.0</ele><time>2026-05-03T15:22:14.155Z</time></trkpt><trkpt lat="44.2732303" lon="8.4319186"><ele>21.333333333333332</ele><time>2026-05-03T15:22:15.155Z</time></trkpt><trkpt lat="44.273086" lon="8.4317586"><ele>20.666666666666668</ele><time>2026-05-03T15:22:16.156Z</time></trkpt><trkpt lat="44.2729455" lon="8.431592"><ele>20.0</ele><time>2026-05-03T15:22:17.155Z</time></trkpt><trkpt lat="44.2728066" lon="8.4314217"><ele>18.666666666666668</ele><time>2026-05-03T15:22:18.155Z</time></trkpt><trkpt lat="44.2726769" lon="8.4312446"><ele>17.333333333333332</ele><time>2026-05-03T15:22:19.155Z</time></trkpt><trkpt lat="44.2725596" lon="8.4310564"><ele>16.0</ele><time>2026-05-03T15:22:20.156Z</time></trkpt><trkpt lat="44.2724439" lon="8.4308601"><ele>16.0</ele><time>2026-05-03T15:22:21.155Z</time></trkpt><trkpt lat="44.2723323" lon="8.4306558"><ele>16.0</ele><time>2026-05-03T15:22:22.155Z</time></trkpt><trkpt lat="44.2722284" lon="8.4304505"><ele>16.0</ele><time>2026-05-03T15:22:23.155Z</time></trkpt><trkpt lat="44.272123" lon="8.4302414"><ele>15.666666666666666</ele><time>2026-05-03T15:22:24.155Z</time></trkpt><trkpt lat="44.2720174" lon="8.4300356"><ele>15.333333333333332</ele><time>2026-05-03T15:22:25.155Z</time></trkpt><trkpt lat="44.2719065" lon="8.4298302"><ele>15.0</ele><time>2026-05-03T15:22:26.155Z</time></trkpt><trkpt lat="44.2717919" lon="8.4296276"><ele>14.666666666666668</ele><time>2026-05-03T15:22:27.155Z</time></trkpt><trkpt lat="44.2716693" lon="8.4294351"><ele>14.333333333333334</ele><time>2026-05-03T15:22:28.156Z</time></trkpt><trkpt lat="44.2715388" lon="8.4292458"><ele>14.0</ele><time>2026-05-03T15:22:29.155Z</time></trkpt><trkpt lat="44.2714036" lon="8.4290619"><ele>14.0</ele><time>2026-05-03T15:22:30.155Z</time></trkpt><trkpt lat="44.2712626" lon="8.4288821"><ele>14.0</ele><time>2026-05-03T15:22:31.156Z</time></trkpt><trkpt lat="44.2711177" lon="8.4287087"><ele>14.0</ele><time>2026-05-03T15:22:32.155Z</time></trkpt><trkpt lat="44.2709812" lon="8.4285317"><ele>13.666666666666668</ele><time>2026-05-03T15:22:33.155Z</time></trkpt><trkpt lat="44.2708426" lon="8.428354"><ele>13.333333333333332</ele><time>2026-05-03T15:22:34.156Z</time></trkpt><trkpt lat="44.2707052" lon="8.4281735"><ele>13.0</ele><time>2026-05-03T15:22:35.155Z</time></trkpt><trkpt lat="44.270565" lon="8.4279984"><ele>15.666666666666666</ele><time>2026-05-03T15:22:36.155Z</time></trkpt><trkpt lat="44.2704235" lon="8.4278252"><ele>18.333333333333332</ele><time>2026-05-03T15:22:37.155Z</time></trkpt><trkpt lat="44.2702815" lon="8.4276501"><ele>21.0</ele><time>2026-05-03T15:22:38.155Z</time></trkpt><trkpt lat="44.2701444" lon="8.4274777"><ele>21.0</ele><time>2026-05-03T15:22:39.156Z</time></trkpt><trkpt lat="44.2700045" lon="8.4273045"><ele>21.0</ele><time>2026-05-03T15:22:40.155Z</time></trkpt><trkpt lat="44.2698672" lon="8.4271283"><ele>21.0</ele><time>2026-05-03T15:22:41.155Z</time></trkpt><trkpt lat="44.2697289" lon="8.4269509"><ele>22.0</ele><time>2026-05-03T15:22:42.155Z</time></trkpt><trkpt lat="44.2695923" lon="8.4267762"><ele>23.0</ele><time>2026-05-03T15:22:43.155Z</time></trkpt><trkpt lat="44.2694543" lon="8.426602"><ele>24.0</ele><time>2026-05-03T15:22:44.155Z</time></trkpt><trkpt lat="44.2693213" lon="8.4264335"><ele>23.333333333333332</ele><time>2026-05-03T15:22:45.155Z</time></trkpt><trkpt lat="44.2691935" lon="8.4262749"><ele>22.666666666666664</ele><time>2026-05-03T15:22:46.155Z</time></trkpt><trkpt lat="44.2690671" lon="8.4261188"><ele>22.0</ele><time>2026-05-03T15:22:47.155Z</time></trkpt><trkpt lat="44.2689424" lon="8.4259686"><ele>20.333333333333332</ele><time>2026-05-03T15:22:48.155Z</time></trkpt><trkpt lat="44.268825" lon="8.4258168"><ele>18.666666666666668</ele><time>2026-05-03T15:22:49.155Z</time></trkpt><trkpt lat="44.2687214" lon="8.4256639"><ele>17.0</ele><time>2026-05-03T15:22:50.155Z</time></trkpt><trkpt lat="44.2686401" lon="8.4254985"><ele>17.5</ele><time>2026-05-03T15:22:51.155Z</time></trkpt><trkpt lat="44.268584" lon="8.4253252"><ele>18.0</ele><time>2026-05-03T15:22:52.155Z</time></trkpt><trkpt lat="44.2685572" lon="8.4251287"><ele>18.5</ele><time>2026-05-03T15:22:53.156Z</time></trkpt><trkpt lat="44.2685463" lon="8.4249355"><ele>19.0</ele><time>2026-05-03T15:22:54.155Z</time></trkpt><trkpt lat="44.2685498" lon="8.4247353"><ele>20.0</ele><time>2026-05-03T15:22:55.155Z</time></trkpt><trkpt lat="44.2685517" lon="8.424542"><ele>21.0</ele><time>2026-05-03T15:22:56.156Z</time></trkpt><trkpt lat="44.2685446" lon="8.4243571"><ele>22.0</ele><time>2026-05-03T15:22:57.155Z</time></trkpt><trkpt lat="44.2685215" lon="8.4241837"><ele>23.0</ele><time>2026-05-03T15:22:58.155Z</time></trkpt><trkpt lat="44.2684682" lon="8.4240363"><ele>23.0</ele><time>2026-05-03T15:22:59.155Z</time></trkpt><trkpt lat="44.2683845" lon="8.4239238"><ele>23.0</ele><time>2026-05-03T15:23:00.155Z</time></trkpt><trkpt lat="44.2682808" lon="8.4238612"><ele>23.0</ele><time>2026-05-03T15:23:01.155Z</time></trkpt><trkpt lat="44.2681686" lon="8.4238441"><ele>23.0</ele><time>2026-05-03T15:23:02.155Z</time></trkpt><trkpt lat="44.2680526" lon="8.4238792"><ele>23.75</ele><time>2026-05-03T15:23:03.155Z</time></trkpt><trkpt lat="44.2679404" lon="8.4239519"><ele>24.5</ele><time>2026-05-03T15:23:04.155Z</time></trkpt><trkpt lat="44.2678388" lon="8.4240694"><ele>25.25</ele><time>2026-05-03T15:23:05.155Z</time></trkpt><trkpt lat="44.2677313" lon="8.4241761"><ele>26.0</ele><time>2026-05-03T15:23:06.155Z</time></trkpt><trkpt lat="44.2676041" lon="8.4242693"><ele>26.0</ele><time>2026-05-03T15:23:07.155Z</time></trkpt><trkpt lat="44.2674688" lon="8.4243532"><ele>26.0</ele><time>2026-05-03T15:23:08.156Z</time></trkpt><trkpt lat="44.2673271" lon="8.4244402"><ele>26.0</ele><time>2026-05-03T15:23:09.155Z</time></trkpt><trkpt lat="44.2671749" lon="8.4245208"><ele>27.0</ele><time>2026-05-03T15:23:10.156Z</time></trkpt><trkpt lat="44.2670226" lon="8.424605"><ele>28.0</ele><time>2026-05-03T15:23:11.155Z</time></trkpt><trkpt lat="44.2668773" lon="8.424694"><ele>29.0</ele><time>2026-05-03T15:23:12.156Z</time></trkpt><trkpt lat="44.2667302" lon="8.424786"><ele>27.0</ele><time>2026-05-03T15:23:13.155Z</time></trkpt><trkpt lat="44.26658" lon="8.4248872"><ele>25.0</ele><time>2026-05-03T15:23:14.155Z</time></trkpt><trkpt lat="44.2664267" lon="8.4249993"><ele>23.0</ele><time>2026-05-03T15:23:15.156Z</time></trkpt><trkpt lat="44.2662665" lon="8.4251138"><ele>21.0</ele><time>2026-05-03T15:23:16.155Z</time></trkpt><trkpt lat="44.2660984" lon="8.4252249"><ele>19.0</ele><time>2026-05-03T15:23:17.155Z</time></trkpt><trkpt lat="44.2659269" lon="8.4253251"><ele>17.0</ele><time>2026-05-03T15:23:18.155Z</time></trkpt><trkpt lat="44.2657521" lon="8.4254228"><ele>16.666666666666668</ele><time>2026-05-03T15:23:19.155Z</time></trkpt><trkpt lat="44.2655765" lon="8.4255263"><ele>16.333333333333332</ele><time>2026-05-03T15:23:20.155Z</time></trkpt><trkpt lat="44.2653919" lon="8.425629"><ele>16.0</ele><time>2026-05-03T15:23:21.155Z</time></trkpt><trkpt lat="44.265206" lon="8.4257368"><ele>16.0</ele><time>2026-05-03T15:23:22.155Z</time></trkpt><trkpt lat="44.2650186" lon="8.4258452"><ele>16.0</ele><time>2026-05-03T15:23:23.155Z</time></trkpt><trkpt lat="44.2648303" lon="8.4259497"><ele>16.0</ele><time>2026-05-03T15:23:24.155Z</time></trkpt><trkpt lat="44.264641" lon="8.4260613"><ele>16.0</ele><time>2026-05-03T15:23:25.155Z</time></trkpt><trkpt lat="44.2644519" lon="8.4261735"><ele>16.0</ele><time>2026-05-03T15:23:26.155Z</time></trkpt><trkpt lat="44.2642641" lon="8.4262857"><ele>16.0</ele><time>2026-05-03T15:23:27.155Z</time></trkpt><trkpt lat="44.2640759" lon="8.4263984"><ele>16.0</ele><time>2026-05-03T15:23:28.156Z</time></trkpt><trkpt lat="44.2638873" lon="8.4265081"><ele>16.0</ele><time>2026-05-03T15:23:29.155Z</time></trkpt><trkpt lat="44.2637035" lon="8.4266207"><ele>16.0</ele><time>2026-05-03T15:23:30.155Z</time></trkpt><trkpt lat="44.2635177" lon="8.4267346"><ele>16.0</ele><time>2026-05-03T15:23:31.155Z</time></trkpt><trkpt lat="44.2633378" lon="8.4268497"><ele>16.0</ele><time>2026-05-03T15:23:32.155Z</time></trkpt><trkpt lat="44.2631581" lon="8.4269642"><ele>16.0</ele><time>2026-05-03T15:23:33.156Z</time></trkpt><trkpt lat="44.2629801" lon="8.4270824"><ele>17.333333333333332</ele><time>2026-05-03T15:23:34.155Z</time></trkpt><trkpt lat="44.2627976" lon="8.4272019"><ele>18.666666666666668</ele><time>2026-05-03T15:23:35.155Z</time></trkpt><trkpt lat="44.2626133" lon="8.4273231"><ele>20.0</ele><time>2026-05-03T15:23:36.155Z</time></trkpt><trkpt lat="44.2624305" lon="8.4274458"><ele>21.666666666666668</ele><time>2026-05-03T15:23:37.155Z</time></trkpt><trkpt lat="44.2622542" lon="8.4275682"><ele>23.333333333333336</ele><time>2026-05-03T15:23:38.155Z</time></trkpt><trkpt lat="44.2620775" lon="8.4276977"><ele>25.0</ele><time>2026-05-03T15:23:39.155Z</time></trkpt><trkpt lat="44.2619087" lon="8.4278367"><ele>29.0</ele><time>2026-05-03T15:23:40.156Z</time></trkpt><trkpt lat="44.2617483" lon="8.4279909"><ele>33.0</ele><time>2026-05-03T15:23:41.155Z</time></trkpt><trkpt lat="44.2615957" lon="8.4281647"><ele>37.0</ele><time>2026-05-03T15:23:42.155Z</time></trkpt><trkpt lat="44.2614433" lon="8.4283343"><ele>39.0</ele><time>2026-05-03T15:23:43.155Z</time></trkpt><trkpt lat="44.2612918" lon="8.428505"><ele>41.0</ele><time>2026-05-03T15:23:44.155Z</time></trkpt><trkpt lat="44.2611435" lon="8.4286737"><ele>43.0</ele><time>2026-05-03T15:23:45.156Z</time></trkpt><trkpt lat="44.260528" lon="8.4344588"><ele>40.333333333333336</ele><time>2026-05-03T15:24:05.155Z</time></trkpt><trkpt lat="44.2605436" lon="8.4347168"><ele>37.666666666666664</ele><time>2026-05-03T15:24:06.156Z</time></trkpt><trkpt lat="44.260549" lon="8.4349629"><ele>35.0</ele><time>2026-05-03T15:24:07.155Z</time></trkpt><trkpt lat="44.2605288" lon="8.435197"><ele>35.0</ele><time>2026-05-03T15:24:08.155Z</time></trkpt><trkpt lat="44.2605234" lon="8.4354314"><ele>35.0</ele><time>2026-05-03T15:24:09.155Z</time></trkpt><trkpt lat="44.2605216" lon="8.4356679"><ele>35.0</ele><time>2026-05-03T15:24:10.156Z</time></trkpt><trkpt lat="44.260519" lon="8.4359053"><ele>11.0</ele><time>2026-05-03T15:24:11.155Z</time></trkpt><trkpt lat="44.2516413" lon="8.448756"><ele>5.0</ele><time>2026-05-03T15:24:55.883Z</time></trkpt><trkpt lat="44.254603" lon="8.4511476"><ele>5.0</ele><time>2026-05-03T15:25:09.156Z</time></trkpt><trkpt lat="44.2544658" lon="8.4511325"><ele>5.0</ele><time>2026-05-03T15:25:10.155Z</time></trkpt><trkpt lat="44.2543273" lon="8.4510943"><ele>5.0</ele><time>2026-05-03T15:25:11.155Z</time></trkpt><trkpt lat="44.2542002" lon="8.4510003"><ele>5.0</ele><time>2026-05-03T15:25:12.156Z</time></trkpt><trkpt lat="44.2540893" lon="8.4508605"><ele>5.0</ele><time>2026-05-03T15:25:13.155Z</time></trkpt><trkpt lat="44.2539889" lon="8.4507038"><ele>5.0</ele><time>2026-05-03T15:25:14.155Z</time></trkpt><trkpt lat="44.2538945" lon="8.4505485"><ele>5.0</ele><time>2026-05-03T15:25:15.155Z</time></trkpt><trkpt lat="44.2537793" lon="8.4504249"><ele>5.0</ele><time>2026-05-03T15:25:16.155Z</time></trkpt><trkpt lat="44.2536441" lon="8.4503401"><ele>14.0</ele><time>2026-05-03T15:25:17.155Z</time></trkpt><trkpt lat="44.2534925" lon="8.4502981"><ele>23.0</ele><time>2026-05-03T15:25:18.155Z</time></trkpt><trkpt lat="44.2533305" lon="8.4502867"><ele>32.0</ele><time>2026-05-03T15:25:19.155Z</time></trkpt><trkpt lat="44.2531703" lon="8.4502703"><ele>25.666666666666664</ele><time>2026-05-03T15:25:20.155Z</time></trkpt><trkpt lat="44.253" lon="8.4502231"><ele>19.333333333333332</ele><time>2026-05-03T15:25:21.155Z</time></trkpt><trkpt lat="44.252848" lon="8.4501338"><ele>13.0</ele><time>2026-05-03T15:25:22.155Z</time></trkpt><trkpt lat="44.2527133" lon="8.4500252"><ele>13.0</ele><time>2026-05-03T15:25:23.155Z</time></trkpt><trkpt lat="44.2526001" lon="8.4498953"><ele>13.0</ele><time>2026-05-03T15:25:24.155Z</time></trkpt><trkpt lat="44.2525106" lon="8.4497474"><ele>13.0</ele><time>2026-05-03T15:25:25.155Z</time></trkpt><trkpt lat="44.252442" lon="8.4495939"><ele>13.0</ele><time>2026-05-03T15:25:26.155Z</time></trkpt><trkpt lat="44.2523889" lon="8.4494408"><ele>10.8</ele><time>2026-05-03T15:25:27.155Z</time></trkpt><trkpt lat="44.2523414" lon="8.4492926"><ele>8.600000000000001</ele><time>2026-05-03T15:25:28.155Z</time></trkpt><trkpt lat="44.2522961" lon="8.4491596"><ele>6.4</ele><time>2026-05-03T15:25:29.155Z</time></trkpt><trkpt lat="44.252249" lon="8.44904"><ele>4.2</ele><time>2026-05-03T15:25:30.155Z</time></trkpt><trkpt lat="44.252201" lon="8.4489328"><ele>2.0</ele><time>2026-05-03T15:25:31.155Z</time></trkpt><trkpt lat="44.252153" lon="8.4488326"><ele>3.5</ele><time>2026-05-03T15:25:32.155Z</time></trkpt><trkpt lat="44.2521058" lon="8.4487446"><ele>5.0</ele><time>2026-05-03T15:25:33.156Z</time></trkpt><trkpt lat="44.252055" lon="8.448667"><ele>6.5</ele><time>2026-05-03T15:25:34.155Z</time></trkpt><trkpt lat="44.2520059" lon="8.4485952"><ele>8.0</ele><time>2026-05-03T15:25:35.155Z</time></trkpt><trkpt lat="44.2519545" lon="8.4485249"><ele>9.5</ele><time>2026-05-03T15:25:36.156Z</time></trkpt><trkpt lat="44.2518861" lon="8.4484457"><ele>11.0</ele><time>2026-05-03T15:25:37.155Z</time></trkpt><trkpt lat="44.2517984" lon="8.4483575"><ele>11.0</ele><time>2026-05-03T15:25:38.155Z</time></trkpt><trkpt lat="44.2516922" lon="8.4482522"><ele>11.0</ele><time>2026-05-03T15:25:39.155Z</time></trkpt><trkpt lat="44.2515798" lon="8.4481358"><ele>11.0</ele><time>2026-05-03T15:25:40.155Z</time></trkpt><trkpt lat="44.251465" lon="8.4480206"><ele>11.0</ele><time>2026-05-03T15:25:41.155Z</time></trkpt><trkpt lat="44.2513305" lon="8.447894"><ele>13.0</ele><time>2026-05-03T15:25:42.155Z</time></trkpt><trkpt lat="44.2511756" lon="8.4477597"><ele>15.0</ele><time>2026-05-03T15:25:43.156Z</time></trkpt><trkpt lat="44.2510207" lon="8.4476405"><ele>17.0</ele><time>2026-05-03T15:25:44.155Z</time></trkpt><trkpt lat="44.2508602" lon="8.4475586"><ele>17.0</ele><time>2026-05-03T15:25:45.155Z</time></trkpt><trkpt lat="44.250686" lon="8.4474859"><ele>17.0</ele><time>2026-05-03T15:25:46.156Z</time></trkpt><trkpt lat="44.2505083" lon="8.4473892"><ele>17.0</ele><time>2026-05-03T15:25:47.155Z</time></trkpt><trkpt lat="44.2503456" lon="8.4472829"><ele>20.0</ele><time>2026-05-03T15:25:48.156Z</time></trkpt><trkpt lat="44.2501966" lon="8.4471785"><ele>23.0</ele><time>2026-05-03T15:25:49.155Z</time></trkpt><trkpt lat="44.2500546" lon="8.4470763"><ele>26.0</ele><time>2026-05-03T15:25:50.155Z</time></trkpt><trkpt lat="44.2499188" lon="8.4469736"><ele>21.5</ele><time>2026-05-03T15:25:51.156Z</time></trkpt><trkpt lat="44.2497889" lon="8.4468671"><ele>17.0</ele><time>2026-05-03T15:25:52.155Z</time></trkpt><trkpt lat="44.2496596" lon="8.4467598"><ele>12.5</ele><time>2026-05-03T15:25:53.155Z</time></trkpt><trkpt lat="44.2495297" lon="8.4466598"><ele>8.0</ele><time>2026-05-03T15:25:54.155Z</time></trkpt><trkpt lat="44.2493987" lon="8.4465576"><ele>8.0</ele><time>2026-05-03T15:25:55.155Z</time></trkpt><trkpt lat="44.2492663" lon="8.4464556"><ele>8.0</ele><time>2026-05-03T15:25:56.155Z</time></trkpt><trkpt lat="44.2491323" lon="8.4463505"><ele>8.0</ele><time>2026-05-03T15:25:57.156Z</time></trkpt><trkpt lat="44.2489987" lon="8.4462448"><ele>9.666666666666666</ele><time>2026-05-03T15:25:58.155Z</time></trkpt><trkpt lat="44.2488641" lon="8.4461313"><ele>11.333333333333332</ele><time>2026-05-03T15:25:59.155Z</time></trkpt><trkpt lat="44.2487277" lon="8.4460176"><ele>13.0</ele><time>2026-05-03T15:26:00.156Z</time></trkpt><trkpt lat="44.2485897" lon="8.4459004"><ele>13.0</ele><time>2026-05-03T15:26:01.155Z</time></trkpt><trkpt lat="44.2484488" lon="8.4457898"><ele>13.0</ele><time>2026-05-03T15:26:02.155Z</time></trkpt><trkpt lat="44.2483053" lon="8.4456869"><ele>13.0</ele><time>2026-05-03T15:26:03.155Z</time></trkpt><trkpt lat="44.2481547" lon="8.4455996"><ele>10.333333333333332</ele><time>2026-05-03T15:26:04.155Z</time></trkpt><trkpt lat="44.2479941" lon="8.4455302"><ele>7.666666666666666</ele><time>2026-05-03T15:26:05.156Z</time></trkpt><trkpt lat="44.2478311" lon="8.4454753"><ele>5.0</ele><time>2026-05-03T15:26:06.155Z</time></trkpt><trkpt lat="44.2476693" lon="8.4454207"><ele>7.666666666666666</ele><time>2026-05-03T15:26:07.155Z</time></trkpt><trkpt lat="44.2475117" lon="8.4453595"><ele>10.333333333333332</ele><time>2026-05-03T15:26:08.155Z</time></trkpt><trkpt lat="44.2473547" lon="8.4452952"><ele>13.0</ele><time>2026-05-03T15:26:09.155Z</time></trkpt><trkpt lat="44.2472002" lon="8.4452284"><ele>13.0</ele><time>2026-05-03T15:26:10.155Z</time></trkpt><trkpt lat="44.2470474" lon="8.4451643"><ele>13.0</ele><time>2026-05-03T15:26:11.155Z</time></trkpt><trkpt lat="44.2468984" lon="8.4451063"><ele>13.0</ele><time>2026-05-03T15:26:12.155Z</time></trkpt><trkpt lat="44.2467516" lon="8.445035"><ele>13.0</ele><time>2026-05-03T15:26:13.156Z</time></trkpt><trkpt lat="44.2466097" lon="8.4449296"><ele>13.0</ele><time>2026-05-03T15:26:14.155Z</time></trkpt><trkpt lat="44.2464763" lon="8.4447952"><ele>13.0</ele><time>2026-05-03T15:26:15.155Z</time></trkpt><trkpt lat="44.246349" lon="8.4446494"><ele>14.0</ele><time>2026-05-03T15:26:16.156Z</time></trkpt><trkpt lat="44.2462229" lon="8.4445101"><ele>15.0</ele><time>2026-05-03T15:26:17.155Z</time></trkpt><trkpt lat="44.2460956" lon="8.4443926"><ele>16.0</ele><time>2026-05-03T15:26:18.156Z</time></trkpt><trkpt lat="44.2459663" lon="8.4442985"><ele>16.0</ele><time>2026-05-03T15:26:19.155Z</time></trkpt><trkpt lat="44.2458229" lon="8.4442283"><ele>16.0</ele><time>2026-05-03T15:26:20.156Z</time></trkpt><trkpt lat="44.2456757" lon="8.4441678"><ele>16.0</ele><time>2026-05-03T15:26:21.156Z</time></trkpt><trkpt lat="44.2455315" lon="8.4441085"><ele>13.75</ele><time>2026-05-03T15:26:22.155Z</time></trkpt><trkpt lat="44.2453917" lon="8.444045"><ele>11.5</ele><time>2026-05-03T15:26:23.155Z</time></trkpt><trkpt lat="44.2452572" lon="8.4439671"><ele>9.25</ele><time>2026-05-03T15:26:24.155Z</time></trkpt><trkpt lat="44.2451274" lon="8.4438763"><ele>7.0</ele><time>2026-05-03T15:26:25.155Z</time></trkpt><trkpt lat="44.2449888" lon="8.4437732"><ele>14.666666666666668</ele><time>2026-05-03T15:26:26.155Z</time></trkpt><trkpt lat="44.244846" lon="8.4436754"><ele>22.333333333333332</ele><time>2026-05-03T15:26:27.155Z</time></trkpt><trkpt lat="44.2446926" lon="8.4435877"><ele>30.0</ele><time>2026-05-03T15:26:28.156Z</time></trkpt><trkpt lat="44.2445347" lon="8.4435266"><ele>30.0</ele><time>2026-05-03T15:26:29.155Z</time></trkpt><trkpt lat="44.2443742" lon="8.4435065"><ele>30.0</ele><time>2026-05-03T15:26:30.155Z</time></trkpt><trkpt lat="44.2442103" lon="8.443533"><ele>30.0</ele><time>2026-05-03T15:26:31.156Z</time></trkpt><trkpt lat="44.2440523" lon="8.4436271"><ele>26.333333333333332</ele><time>2026-05-03T15:26:32.155Z</time></trkpt><trkpt lat="44.2439044" lon="8.4437583"><ele>22.666666666666664</ele><time>2026-05-03T15:26:33.155Z</time></trkpt><trkpt lat="44.2437688" lon="8.4439193"><ele>19.0</ele><time>2026-05-03T15:26:34.155Z</time></trkpt><trkpt lat="44.2436379" lon="8.4440895"><ele>19.0</ele><time>2026-05-03T15:26:35.155Z</time></trkpt><trkpt lat="44.2435038" lon="8.4442503"><ele>19.0</ele><time>2026-05-03T15:26:36.155Z</time></trkpt><trkpt lat="44.2433558" lon="8.4443974"><ele>19.0</ele><time>2026-05-03T15:26:37.156Z</time></trkpt><trkpt lat="44.2431915" lon="8.4445041"><ele>18.333333333333332</ele><time>2026-05-03T15:26:38.155Z</time></trkpt><trkpt lat="44.2430162" lon="8.4445875"><ele>17.666666666666668</ele><time>2026-05-03T15:26:39.155Z</time></trkpt><trkpt lat="44.242841" lon="8.444672"><ele>17.0</ele><time>2026-05-03T15:26:40.155Z</time></trkpt><trkpt lat="44.2426693" lon="8.4447592"><ele>17.0</ele><time>2026-05-03T15:26:41.155Z</time></trkpt><trkpt lat="44.2425008" lon="8.4448391"><ele>17.0</ele><time>2026-05-03T15:26:42.155Z</time></trkpt><trkpt lat="44.2423303" lon="8.4448958"><ele>17.0</ele><time>2026-05-03T15:26:43.155Z</time></trkpt><trkpt lat="44.2421602" lon="8.4449117"><ele>18.0</ele><time>2026-05-03T15:26:44.156Z</time></trkpt><trkpt lat="44.2419919" lon="8.4448752"><ele>19.0</ele><time>2026-05-03T15:26:45.155Z</time></trkpt><trkpt lat="44.2418332" lon="8.4447935"><ele>20.0</ele><time>2026-05-03T15:26:46.155Z</time></trkpt><trkpt lat="44.2416939" lon="8.4446773"><ele>24.666666666666668</ele><time>2026-05-03T15:26:47.155Z</time></trkpt><trkpt lat="44.2415506" lon="8.4445503"><ele>29.333333333333336</ele><time>2026-05-03T15:26:48.155Z</time></trkpt><trkpt lat="44.2413922" lon="8.4444409"><ele>34.0</ele><time>2026-05-03T15:26:49.155Z</time></trkpt><trkpt lat="44.2412185" lon="8.4443726"><ele>34.0</ele><time>2026-05-03T15:26:50.155Z</time></trkpt><trkpt lat="44.2410371" lon="8.4443308"><ele>34.0</ele><time>2026-05-03T15:26:51.155Z</time></trkpt><trkpt lat="44.2408641" lon="8.4442792"><ele>34.0</ele><time>2026-05-03T15:26:52.155Z</time></trkpt><trkpt lat="44.2407008" lon="8.444198"><ele>38.66666666666667</ele><time>2026-05-03T15:26:53.155Z</time></trkpt><trkpt lat="44.2405516" lon="8.4440801"><ele>43.333333333333336</ele><time>2026-05-03T15:26:54.155Z</time></trkpt><trkpt lat="44.2404219" lon="8.4439258"><ele>48.0</ele><time>2026-05-03T15:26:55.155Z</time></trkpt><trkpt lat="44.2403087" lon="8.4437569"><ele>48.0</ele><time>2026-05-03T15:26:56.155Z</time></trkpt><trkpt lat="44.2402058" lon="8.4435806"><ele>48.0</ele><time>2026-05-03T15:26:57.156Z</time></trkpt><trkpt lat="44.2401049" lon="8.4434039"><ele>48.0</ele><time>2026-05-03T15:26:58.155Z</time></trkpt><trkpt lat="44.2400033" lon="8.443228"><ele>48.0</ele><time>2026-05-03T15:26:59.155Z</time></trkpt><trkpt lat="44.2398902" lon="8.4430638"><ele>48.0</ele><time>2026-05-03T15:27:00.155Z</time></trkpt><trkpt lat="44.2397567" lon="8.4429211"><ele>48.0</ele><time>2026-05-03T15:27:01.156Z</time></trkpt><trkpt lat="44.2396074" lon="8.4427948"><ele>51.33333333333333</ele><time>2026-05-03T15:27:02.155Z</time></trkpt><trkpt lat="44.2394571" lon="8.442672"><ele>54.666666666666664</ele><time>2026-05-03T15:27:03.155Z</time></trkpt><trkpt lat="44.2393114" lon="8.4425474"><ele>58.0</ele><time>2026-05-03T15:27:04.155Z</time></trkpt><trkpt lat="44.2391603" lon="8.4424486"><ele>58.0</ele><time>2026-05-03T15:27:05.156Z</time></trkpt><trkpt lat="44.2390021" lon="8.4423932"><ele>58.0</ele><time>2026-05-03T15:27:06.155Z</time></trkpt><trkpt lat="44.2388432" lon="8.4423896"><ele>58.0</ele><time>2026-05-03T15:27:07.155Z</time></trkpt><trkpt lat="44.2386932" lon="8.4424363"><ele>54.0</ele><time>2026-05-03T15:27:08.155Z</time></trkpt><trkpt lat="44.2385455" lon="8.4425298"><ele>50.0</ele><time>2026-05-03T15:27:09.155Z</time></trkpt><trkpt lat="44.2383922" lon="8.4426181"><ele>46.0</ele><time>2026-05-03T15:27:10.155Z</time></trkpt><trkpt lat="44.2382272" lon="8.4426629"><ele>35.0</ele><time>2026-05-03T15:27:11.155Z</time></trkpt><trkpt lat="44.2380498" lon="8.442657"><ele>24.0</ele><time>2026-05-03T15:27:12.155Z</time></trkpt><trkpt lat="44.2378733" lon="8.4425961"><ele>13.0</ele><time>2026-05-03T15:27:13.155Z</time></trkpt><trkpt lat="44.2377108" lon="8.442503"><ele>13.0</ele><time>2026-05-03T15:27:14.155Z</time></trkpt><trkpt lat="44.2375719" lon="8.4423877"><ele>13.0</ele><time>2026-05-03T15:27:15.155Z</time></trkpt><trkpt lat="44.2374682" lon="8.4422152"><ele>13.0</ele><time>2026-05-03T15:27:16.156Z</time></trkpt><trkpt lat="44.2373959" lon="8.4419932"><ele>21.0</ele><time>2026-05-03T15:27:17.155Z</time></trkpt><trkpt lat="44.2373486" lon="8.4417481"><ele>29.0</ele><time>2026-05-03T15:27:18.155Z</time></trkpt><trkpt lat="44.2373266" lon="8.441502"><ele>37.0</ele><time>2026-05-03T15:27:19.155Z</time></trkpt><trkpt lat="44.2373247" lon="8.4412537"><ele>37.0</ele><time>2026-05-03T15:27:20.155Z</time></trkpt><trkpt lat="44.2373379" lon="8.4409975"><ele>37.0</ele><time>2026-05-03T15:27:21.155Z</time></trkpt><trkpt lat="44.2373554" lon="8.4407427"><ele>37.0</ele><time>2026-05-03T15:27:22.156Z</time></trkpt><trkpt lat="44.2373702" lon="8.4404882"><ele>33.0</ele><time>2026-05-03T15:27:23.155Z</time></trkpt><trkpt lat="44.2373936" lon="8.4402434"><ele>29.0</ele><time>2026-05-03T15:27:24.156Z</time></trkpt><trkpt lat="44.2374379" lon="8.4400125"><ele>25.0</ele><time>2026-05-03T15:27:25.155Z</time></trkpt><trkpt lat="44.2375061" lon="8.4397959"><ele>20.333333333333336</ele><time>2026-05-03T15:27:26.155Z</time></trkpt><trkpt lat="44.2375956" lon="8.4396003"><ele>15.666666666666668</ele><time>2026-05-03T15:27:27.156Z</time></trkpt><trkpt lat="44.2377057" lon="8.4394348"><ele>11.0</ele><time>2026-05-03T15:27:28.155Z</time></trkpt><trkpt lat="44.2378211" lon="8.4392912"><ele>11.0</ele><time>2026-05-03T15:27:29.155Z</time></trkpt><trkpt lat="44.2379265" lon="8.4391446"><ele>11.0</ele><time>2026-05-03T15:27:30.155Z</time></trkpt><trkpt lat="44.2380195" lon="8.4389857"><ele>11.0</ele><time>2026-05-03T15:27:31.155Z</time></trkpt><trkpt lat="44.2380935" lon="8.4388114"><ele>11.0</ele><time>2026-05-03T15:27:32.155Z</time></trkpt><trkpt lat="44.2381399" lon="8.4386156"><ele>8.666666666666666</ele><time>2026-05-03T15:27:33.156Z</time></trkpt><trkpt lat="44.2381526" lon="8.4384024"><ele>6.333333333333333</ele><time>2026-05-03T15:27:34.155Z</time></trkpt><trkpt lat="44.2381312" lon="8.4381859"><ele>4.0</ele><time>2026-05-03T15:27:35.156Z</time></trkpt><trkpt lat="44.2380772" lon="8.4379673"><ele>4.0</ele><time>2026-05-03T15:27:36.155Z</time></trkpt><trkpt lat="44.2380017" lon="8.4377532"><ele>4.0</ele><time>2026-05-03T15:27:37.155Z</time></trkpt><trkpt lat="44.2379133" lon="8.4375347"><ele>4.0</ele><time>2026-05-03T15:27:38.155Z</time></trkpt><trkpt lat="44.2378276" lon="8.4373242"><ele>4.666666666666666</ele><time>2026-05-03T15:27:39.155Z</time></trkpt><trkpt lat="44.2377405" lon="8.4371062"><ele>5.333333333333333</ele><time>2026-05-03T15:27:40.155Z</time></trkpt><trkpt lat="44.2376597" lon="8.4368896"><ele>6.0</ele><time>2026-05-03T15:27:41.155Z</time></trkpt><trkpt lat="44.2375748" lon="8.4366734"><ele>6.0</ele><time>2026-05-03T15:27:42.155Z</time></trkpt><trkpt lat="44.2374899" lon="8.4364653"><ele>6.0</ele><time>2026-05-03T15:27:43.156Z</time></trkpt><trkpt lat="44.2374091" lon="8.436269"><ele>6.0</ele><time>2026-05-03T15:27:44.155Z</time></trkpt><trkpt lat="44.2373305" lon="8.4360691"><ele>4.333333333333333</ele><time>2026-05-03T15:27:45.155Z</time></trkpt><trkpt lat="44.2372516" lon="8.4358704"><ele>2.6666666666666665</ele><time>2026-05-03T15:27:46.156Z</time></trkpt><trkpt lat="44.2371793" lon="8.4356859"><ele>1.0</ele><time>2026-05-03T15:27:47.156Z</time></trkpt><trkpt lat="44.2371067" lon="8.4355043"><ele>1.75</ele><time>2026-05-03T15:27:48.155Z</time></trkpt><trkpt lat="44.2370369" lon="8.4353258"><ele>2.5</ele><time>2026-05-03T15:27:49.155Z</time></trkpt><trkpt lat="44.2369637" lon="8.4351384"><ele>3.25</ele><time>2026-05-03T15:27:50.155Z</time></trkpt><trkpt lat="44.2368938" lon="8.4349623"><ele>4.0</ele><time>2026-05-03T15:27:51.156Z</time></trkpt><trkpt lat="44.2368229" lon="8.4347826"><ele>4.5</ele><time>2026-05-03T15:27:52.155Z</time></trkpt><trkpt lat="44.2367535" lon="8.4346026"><ele>5.0</ele><time>2026-05-03T15:27:53.155Z</time></trkpt><trkpt lat="44.2366862" lon="8.4344276"><ele>5.5</ele><time>2026-05-03T15:27:54.156Z</time></trkpt><trkpt lat="44.2366145" lon="8.4342479"><ele>6.0</ele><time>2026-05-03T15:27:55.155Z</time></trkpt><trkpt lat="44.2365452" lon="8.4340776"><ele>6.0</ele><time>2026-05-03T15:27:56.155Z</time></trkpt><trkpt lat="44.2364716" lon="8.4338987"><ele>6.0</ele><time>2026-05-03T15:27:57.156Z</time></trkpt><trkpt lat="44.2363957" lon="8.4337144"><ele>6.0</ele><time>2026-05-03T15:27:58.156Z</time></trkpt><trkpt lat="44.2363214" lon="8.4335354"><ele>6.0</ele><time>2026-05-03T15:27:59.156Z</time></trkpt><trkpt lat="44.2362468" lon="8.4333552"><ele>5.333333333333333</ele><time>2026-05-03T15:28:00.155Z</time></trkpt><trkpt lat="44.2361699" lon="8.4331745"><ele>4.666666666666666</ele><time>2026-05-03T15:28:01.155Z</time></trkpt><trkpt lat="44.2360913" lon="8.4329891"><ele>4.0</ele><time>2026-05-03T15:28:02.155Z</time></trkpt><trkpt lat="44.2360138" lon="8.432812"><ele>5.666666666666666</ele><time>2026-05-03T15:28:03.156Z</time></trkpt><trkpt lat="44.2359358" lon="8.4326345"><ele>7.333333333333333</ele><time>2026-05-03T15:28:04.155Z</time></trkpt><trkpt lat="44.2358585" lon="8.4324577"><ele>9.0</ele><time>2026-05-03T15:28:05.155Z</time></trkpt><trkpt lat="44.2357803" lon="8.432271"><ele>10.25</ele><time>2026-05-03T15:28:06.155Z</time></trkpt><trkpt lat="44.2356944" lon="8.4320879"><ele>11.5</ele><time>2026-05-03T15:28:07.155Z</time></trkpt><trkpt lat="44.2356139" lon="8.4319133"><ele>12.75</ele><time>2026-05-03T15:28:08.155Z</time></trkpt><trkpt lat="44.2355366" lon="8.4317491"><ele>14.0</ele><time>2026-05-03T15:28:09.155Z</time></trkpt><trkpt lat="44.2354604" lon="8.4315906"><ele>11.5</ele><time>2026-05-03T15:28:10.155Z</time></trkpt><trkpt lat="44.235383" lon="8.4314315"><ele>9.0</ele><time>2026-05-03T15:28:11.155Z</time></trkpt><trkpt lat="44.2353089" lon="8.4312724"><ele>6.5</ele><time>2026-05-03T15:28:12.156Z</time></trkpt><trkpt lat="44.2352317" lon="8.4311145"><ele>4.0</ele><time>2026-05-03T15:28:13.155Z</time></trkpt><trkpt lat="44.2351529" lon="8.4309595"><ele>4.0</ele><time>2026-05-03T15:28:14.155Z</time></trkpt><trkpt lat="44.2350741" lon="8.4308024"><ele>4.0</ele><time>2026-05-03T15:28:15.155Z</time></trkpt><trkpt lat="44.2349953" lon="8.4306443"><ele>4.0</ele><time>2026-05-03T15:28:16.156Z</time></trkpt><trkpt lat="44.2349169" lon="8.4304891"><ele>4.0</ele><time>2026-05-03T15:28:17.155Z</time></trkpt><trkpt lat="44.2348345" lon="8.4303327"><ele>3.333333333333333</ele><time>2026-05-03T15:28:18.155Z</time></trkpt><trkpt lat="44.2347485" lon="8.4301669"><ele>2.6666666666666665</ele><time>2026-05-03T15:28:19.155Z</time></trkpt><trkpt lat="44.2346562" lon="8.4299951"><ele>2.0</ele><time>2026-05-03T15:28:20.156Z</time></trkpt><trkpt lat="44.234556" lon="8.429802"><ele>2.6666666666666665</ele><time>2026-05-03T15:28:21.155Z</time></trkpt><trkpt lat="44.234453" lon="8.4296129"><ele>3.333333333333333</ele><time>2026-05-03T15:28:22.155Z</time></trkpt><trkpt lat="44.2343497" lon="8.4294355"><ele>4.0</ele><time>2026-05-03T15:28:23.155Z</time></trkpt><trkpt lat="44.2342441" lon="8.4292439"><ele>4.0</ele><time>2026-05-03T15:28:24.155Z</time></trkpt><trkpt lat="44.2341346" lon="8.4290492"><ele>4.0</ele><time>2026-05-03T15:28:25.156Z</time></trkpt><trkpt lat="44.2340296" lon="8.428857"><ele>4.0</ele><time>2026-05-03T15:28:26.155Z</time></trkpt><trkpt lat="44.2339196" lon="8.4286697"><ele>4.333333333333333</ele><time>2026-05-03T15:28:27.156Z</time></trkpt><trkpt lat="44.2338079" lon="8.4284805"><ele>4.666666666666667</ele><time>2026-05-03T15:28:28.155Z</time></trkpt><trkpt lat="44.2336894" lon="8.428311"><ele>5.0</ele><time>2026-05-03T15:28:29.156Z</time></trkpt><trkpt lat="44.2335526" lon="8.4281864"><ele>5.0</ele><time>2026-05-03T15:28:30.155Z</time></trkpt><trkpt lat="44.2334115" lon="8.4280787"><ele>5.0</ele><time>2026-05-03T15:28:31.155Z</time></trkpt><trkpt lat="44.233261" lon="8.4279963"><ele>5.0</ele><time>2026-05-03T15:28:32.155Z</time></trkpt><trkpt lat="44.2331034" lon="8.427928"><ele>6.333333333333334</ele><time>2026-05-03T15:28:33.155Z</time></trkpt><trkpt lat="44.2329503" lon="8.4278554"><ele>7.666666666666667</ele><time>2026-05-03T15:28:34.156Z</time></trkpt><trkpt lat="44.2328092" lon="8.4277609"><ele>9.0</ele><time>2026-05-03T15:28:35.155Z</time></trkpt><trkpt lat="44.2326865" lon="8.4276315"><ele>9.0</ele><time>2026-05-03T15:28:36.155Z</time></trkpt><trkpt lat="44.2325867" lon="8.4274661"><ele>9.0</ele><time>2026-05-03T15:28:37.155Z</time></trkpt><trkpt lat="44.2325023" lon="8.4272791"><ele>9.0</ele><time>2026-05-03T15:28:38.155Z</time></trkpt><trkpt lat="44.2324306" lon="8.4270735"><ele>11.333333333333332</ele><time>2026-05-03T15:28:39.155Z</time></trkpt><trkpt lat="44.2323647" lon="8.4268726"><ele>13.666666666666666</ele><time>2026-05-03T15:28:40.155Z</time></trkpt><trkpt lat="44.2322998" lon="8.426685"><ele>16.0</ele><time>2026-05-03T15:28:41.155Z</time></trkpt><trkpt lat="44.232234" lon="8.4264994"><ele>14.0</ele><time>2026-05-03T15:28:42.156Z</time></trkpt><trkpt lat="44.2321574" lon="8.4263212"><ele>12.0</ele><time>2026-05-03T15:28:43.155Z</time></trkpt><trkpt lat="44.2320702" lon="8.4261533"><ele>10.0</ele><time>2026-05-03T15:28:44.155Z</time></trkpt><trkpt lat="44.2319776" lon="8.4259811"><ele>10.0</ele><time>2026-05-03T15:28:45.156Z</time></trkpt><trkpt lat="44.2318869" lon="8.4258211"><ele>10.0</ele><time>2026-05-03T15:28:46.155Z</time></trkpt><trkpt lat="44.2317948" lon="8.4256546"><ele>10.0</ele><time>2026-05-03T15:28:47.155Z</time></trkpt><trkpt lat="44.2317006" lon="8.4254834"><ele>10.5</ele><time>2026-05-03T15:28:48.155Z</time></trkpt><trkpt lat="44.231612" lon="8.4253155"><ele>11.0</ele><time>2026-05-03T15:28:49.156Z</time></trkpt><trkpt lat="44.2315194" lon="8.4251557"><ele>11.5</ele><time>2026-05-03T15:28:50.155Z</time></trkpt><trkpt lat="44.2314282" lon="8.4250007"><ele>12.0</ele><time>2026-05-03T15:28:51.156Z</time></trkpt><trkpt lat="44.2313427" lon="8.4248553"><ele>12.0</ele><time>2026-05-03T15:28:52.155Z</time></trkpt><trkpt lat="44.2312602" lon="8.4247189"><ele>12.0</ele><time>2026-05-03T15:28:53.156Z</time></trkpt><trkpt lat="44.2311835" lon="8.42459"><ele>12.0</ele><time>2026-05-03T15:28:54.155Z</time></trkpt><trkpt lat="44.2311094" lon="8.4244637"><ele>12.0</ele><time>2026-05-03T15:28:55.155Z</time></trkpt><trkpt lat="44.231033" lon="8.424343"><ele>12.5</ele><time>2026-05-03T15:28:56.155Z</time></trkpt><trkpt lat="44.2309549" lon="8.4242156"><ele>13.0</ele><time>2026-05-03T15:28:57.156Z</time></trkpt><trkpt lat="44.2308732" lon="8.4240871"><ele>13.5</ele><time>2026-05-03T15:28:58.156Z</time></trkpt><trkpt lat="44.230798" lon="8.4239638"><ele>14.0</ele><time>2026-05-03T15:28:59.155Z</time></trkpt><trkpt lat="44.2307298" lon="8.4238481"><ele>14.25</ele><time>2026-05-03T15:29:00.155Z</time></trkpt><trkpt lat="44.230659" lon="8.423736"><ele>14.5</ele><time>2026-05-03T15:29:01.155Z</time></trkpt><trkpt lat="44.2305827" lon="8.4236176"><ele>14.75</ele><time>2026-05-03T15:29:02.155Z</time></trkpt><trkpt lat="44.230499" lon="8.4234852"><ele>15.0</ele><time>2026-05-03T15:29:03.155Z</time></trkpt><trkpt lat="44.2304099" lon="8.4233425"><ele>14.25</ele><time>2026-05-03T15:29:04.156Z</time></trkpt><trkpt lat="44.2303222" lon="8.4231961"><ele>13.5</ele><time>2026-05-03T15:29:05.155Z</time></trkpt><trkpt lat="44.230235" lon="8.4230414"><ele>12.75</ele><time>2026-05-03T15:29:06.155Z</time></trkpt><trkpt lat="44.2301462" lon="8.4228823"><ele>12.0</ele><time>2026-05-03T15:29:07.155Z</time></trkpt><trkpt lat="44.2300634" lon="8.4227191"><ele>12.0</ele><time>2026-05-03T15:29:08.156Z</time></trkpt><trkpt lat="44.2299813" lon="8.4225534"><ele>12.0</ele><time>2026-05-03T15:29:09.156Z</time></trkpt><trkpt lat="44.2298927" lon="8.422395"><ele>12.0</ele><time>2026-05-03T15:29:10.155Z</time></trkpt><trkpt lat="44.229803" lon="8.4222363"><ele>12.0</ele><time>2026-05-03T15:29:11.155Z</time></trkpt><trkpt lat="44.2297067" lon="8.422081"><ele>11.75</ele><time>2026-05-03T15:29:12.155Z</time></trkpt><trkpt lat="44.2296082" lon="8.4219324"><ele>11.5</ele><time>2026-05-03T15:29:13.155Z</time></trkpt><trkpt lat="44.2295065" lon="8.4217887"><ele>11.25</ele><time>2026-05-03T15:29:14.156Z</time></trkpt><trkpt lat="44.2294052" lon="8.4216399"><ele>11.0</ele><time>2026-05-03T15:29:15.155Z</time></trkpt><trkpt lat="44.2293045" lon="8.4214887"><ele>11.0</ele><time>2026-05-03T15:29:16.155Z</time></trkpt><trkpt lat="44.2292071" lon="8.4213382"><ele>11.0</ele><time>2026-05-03T15:29:17.155Z</time></trkpt><trkpt lat="44.2291147" lon="8.4211844"><ele>11.0</ele><time>2026-05-03T15:29:18.155Z</time></trkpt><trkpt lat="44.2290297" lon="8.4210237"><ele>11.0</ele><time>2026-05-03T15:29:19.155Z</time></trkpt><trkpt lat="44.2289507" lon="8.4208619"><ele>10.0</ele><time>2026-05-03T15:29:20.155Z</time></trkpt><trkpt lat="44.2288787" lon="8.4207018"><ele>9.0</ele><time>2026-05-03T15:29:21.155Z</time></trkpt><trkpt lat="44.2288136" lon="8.4205438"><ele>8.0</ele><time>2026-05-03T15:29:22.155Z</time></trkpt><trkpt lat="44.2287571" lon="8.4203846"><ele>7.0</ele><time>2026-05-03T15:29:23.155Z</time></trkpt><trkpt lat="44.2287035" lon="8.4202211"><ele>7.0</ele><time>2026-05-03T15:29:24.155Z</time></trkpt><trkpt lat="44.2286545" lon="8.4200537"><ele>7.0</ele><time>2026-05-03T15:29:25.155Z</time></trkpt><trkpt lat="44.228602" lon="8.4198771"><ele>7.0</ele><time>2026-05-03T15:29:26.156Z</time></trkpt><trkpt lat="44.2285463" lon="8.4196905"><ele>7.0</ele><time>2026-05-03T15:29:27.155Z</time></trkpt><trkpt lat="44.2284882" lon="8.4194865"><ele>7.666666666666667</ele><time>2026-05-03T15:29:28.155Z</time></trkpt><trkpt lat="44.2284352" lon="8.419266"><ele>8.333333333333334</ele><time>2026-05-03T15:29:29.156Z</time></trkpt><trkpt lat="44.2283847" lon="8.4190341"><ele>9.0</ele><time>2026-05-03T15:29:30.155Z</time></trkpt><trkpt lat="44.2283367" lon="8.4187926"><ele>9.333333333333334</ele><time>2026-05-03T15:29:31.155Z</time></trkpt><trkpt lat="44.2282808" lon="8.4185519"><ele>9.666666666666668</ele><time>2026-05-03T15:29:32.155Z</time></trkpt><trkpt lat="44.22821" lon="8.4183267"><ele>10.0</ele><time>2026-05-03T15:29:33.155Z</time></trkpt><trkpt lat="44.2281198" lon="8.4181162"><ele>8.666666666666668</ele><time>2026-05-03T15:29:34.155Z</time></trkpt><trkpt lat="44.2280165" lon="8.4179111"><ele>7.333333333333334</ele><time>2026-05-03T15:29:35.156Z</time></trkpt><trkpt lat="44.2279066" lon="8.4177137"><ele>6.0</ele><time>2026-05-03T15:29:36.155Z</time></trkpt><trkpt lat="44.2277877" lon="8.41752"><ele>6.0</ele><time>2026-05-03T15:29:37.156Z</time></trkpt><trkpt lat="44.227662" lon="8.417333"><ele>6.0</ele><time>2026-05-03T15:29:38.155Z</time></trkpt><trkpt lat="44.2275329" lon="8.4171535"><ele>6.0</ele><time>2026-05-03T15:29:39.155Z</time></trkpt><trkpt lat="44.2274034" lon="8.4169854"><ele>6.0</ele><time>2026-05-03T15:29:40.155Z</time></trkpt><trkpt lat="44.2272719" lon="8.4168302"><ele>6.0</ele><time>2026-05-03T15:29:41.155Z</time></trkpt><trkpt lat="44.2271423" lon="8.4166863"><ele>6.0</ele><time>2026-05-03T15:29:42.155Z</time></trkpt><trkpt lat="44.2270168" lon="8.4165542"><ele>6.0</ele><time>2026-05-03T15:29:43.155Z</time></trkpt><trkpt lat="44.2268876" lon="8.4164175"><ele>6.0</ele><time>2026-05-03T15:29:44.155Z</time></trkpt><trkpt lat="44.2267527" lon="8.4162842"><ele>6.0</ele><time>2026-05-03T15:29:45.155Z</time></trkpt><trkpt lat="44.2266125" lon="8.4161596"><ele>6.0</ele><time>2026-05-03T15:29:46.155Z</time></trkpt><trkpt lat="44.226473" lon="8.4160439"><ele>6.0</ele><time>2026-05-03T15:29:47.155Z</time></trkpt><trkpt lat="44.2263404" lon="8.4159322"><ele>6.0</ele><time>2026-05-03T15:29:48.155Z</time></trkpt><trkpt lat="44.2262134" lon="8.4158244"><ele>6.0</ele><time>2026-05-03T15:29:49.156Z</time></trkpt><trkpt lat="44.2260892" lon="8.4157101"><ele>6.0</ele><time>2026-05-03T15:29:50.155Z</time></trkpt><trkpt lat="44.2259569" lon="8.4155915"><ele>6.0</ele><time>2026-05-03T15:29:51.155Z</time></trkpt><trkpt lat="44.2258191" lon="8.4154738"><ele>5.666666666666667</ele><time>2026-05-03T15:29:52.155Z</time></trkpt><trkpt lat="44.2256765" lon="8.4153573"><ele>5.333333333333334</ele><time>2026-05-03T15:29:53.155Z</time></trkpt><trkpt lat="44.2255308" lon="8.4152413"><ele>5.0</ele><time>2026-05-03T15:29:54.155Z</time></trkpt><trkpt lat="44.2253851" lon="8.4151264"><ele>5.0</ele><time>2026-05-03T15:29:55.155Z</time></trkpt><trkpt lat="44.2252404" lon="8.4150105"><ele>5.0</ele><time>2026-05-03T15:29:56.155Z</time></trkpt><trkpt lat="44.2250974" lon="8.4149038"><ele>5.0</ele><time>2026-05-03T15:29:57.155Z</time></trkpt><trkpt lat="44.2249572" lon="8.4148072"><ele>5.0</ele><time>2026-05-03T15:29:58.155Z</time></trkpt><trkpt lat="44.2248202" lon="8.414725"><ele>5.0</ele><time>2026-05-03T15:29:59.155Z</time></trkpt><trkpt lat="44.2246811" lon="8.4146543"><ele>5.0</ele><time>2026-05-03T15:30:00.155Z</time></trkpt><trkpt lat="44.2245385" lon="8.4145901"><ele>5.0</ele><time>2026-05-03T15:30:01.155Z</time></trkpt><trkpt lat="44.2243923" lon="8.4145305"><ele>4.75</ele><time>2026-05-03T15:30:02.156Z</time></trkpt><trkpt lat="44.224247" lon="8.4144779"><ele>4.5</ele><time>2026-05-03T15:30:03.155Z</time></trkpt><trkpt lat="44.2241033" lon="8.4144338"><ele>4.25</ele><time>2026-05-03T15:30:04.155Z</time></trkpt><trkpt lat="44.2239603" lon="8.4143956"><ele>4.0</ele><time>2026-05-03T15:30:05.155Z</time></trkpt><trkpt lat="44.2238147" lon="8.4143587"><ele>3.6666666666666665</ele><time>2026-05-03T15:30:06.155Z</time></trkpt><trkpt lat="44.2236622" lon="8.4143278"><ele>3.333333333333333</ele><time>2026-05-03T15:30:07.155Z</time></trkpt><trkpt lat="44.2235021" lon="8.4143017"><ele>3.0</ele><time>2026-05-03T15:30:08.156Z</time></trkpt><trkpt lat="44.2233369" lon="8.4142806"><ele>3.0</ele><time>2026-05-03T15:30:09.155Z</time></trkpt><trkpt lat="44.2231674" lon="8.4142662"><ele>3.0</ele><time>2026-05-03T15:30:10.155Z</time></trkpt><trkpt lat="44.2229979" lon="8.414263"><ele>3.0</ele><time>2026-05-03T15:30:11.155Z</time></trkpt><trkpt lat="44.2228296" lon="8.4142704"><ele>3.333333333333333</ele><time>2026-05-03T15:30:12.155Z</time></trkpt><trkpt lat="44.2226622" lon="8.4142837"><ele>3.6666666666666665</ele><time>2026-05-03T15:30:13.155Z</time></trkpt><trkpt lat="44.222491" lon="8.4142984"><ele>4.0</ele><time>2026-05-03T15:30:14.155Z</time></trkpt><trkpt lat="44.2223151" lon="8.4143153"><ele>4.0</ele><time>2026-05-03T15:30:15.156Z</time></trkpt><trkpt lat="44.2221327" lon="8.4143322"><ele>4.0</ele><time>2026-05-03T15:30:16.156Z</time></trkpt><trkpt lat="44.2219528" lon="8.414351"><ele>4.0</ele><time>2026-05-03T15:30:17.155Z</time></trkpt><trkpt lat="44.2217793" lon="8.4143634"><ele>4.0</ele><time>2026-05-03T15:30:18.155Z</time></trkpt><trkpt lat="44.2216019" lon="8.4143787"><ele>4.0</ele><time>2026-05-03T15:30:19.155Z</time></trkpt><trkpt lat="44.2214238" lon="8.414397"><ele>4.0</ele><time>2026-05-03T15:30:20.156Z</time></trkpt><trkpt lat="44.2212506" lon="8.4144161"><ele>4.333333333333333</ele><time>2026-05-03T15:30:21.156Z</time></trkpt><trkpt lat="44.2210872" lon="8.4144332"><ele>4.666666666666667</ele><time>2026-05-03T15:30:22.156Z</time></trkpt><trkpt lat="44.2209339" lon="8.4144502"><ele>5.0</ele><time>2026-05-03T15:30:23.155Z</time></trkpt><trkpt lat="44.2207901" lon="8.4144661"><ele>5.0</ele><time>2026-05-03T15:30:24.155Z</time></trkpt><trkpt lat="44.2206592" lon="8.4144793"><ele>5.0</ele><time>2026-05-03T15:30:25.155Z</time></trkpt><trkpt lat="44.2205358" lon="8.41449"><ele>5.0</ele><time>2026-05-03T15:30:26.155Z</time></trkpt><trkpt lat="44.2204154" lon="8.414499"><ele>5.0</ele><time>2026-05-03T15:30:27.156Z</time></trkpt><trkpt lat="44.2203005" lon="8.4145062"><ele>6.4</ele><time>2026-05-03T15:30:28.155Z</time></trkpt><trkpt lat="44.2201916" lon="8.414513"><ele>7.8</ele><time>2026-05-03T15:30:29.155Z</time></trkpt><trkpt lat="44.2200857" lon="8.414516"><ele>9.2</ele><time>2026-05-03T15:30:30.156Z</time></trkpt><trkpt lat="44.2199918" lon="8.4144924"><ele>10.6</ele><time>2026-05-03T15:30:31.155Z</time></trkpt><trkpt lat="44.2199103" lon="8.4144562"><ele>12.0</ele><time>2026-05-03T15:30:32.156Z</time></trkpt><trkpt lat="44.2198376" lon="8.4144478"><ele>12.333333333333334</ele><time>2026-05-03T15:30:33.155Z</time></trkpt><trkpt lat="44.2197698" lon="8.4144857"><ele>12.666666666666668</ele><time>2026-05-03T15:30:34.156Z</time></trkpt><trkpt lat="44.2197201" lon="8.4145632"><ele>13.0</ele><time>2026-05-03T15:30:35.155Z</time></trkpt><trkpt lat="44.2196705" lon="8.4146558"><ele>13.333333333333334</ele><time>2026-05-03T15:30:36.156Z</time></trkpt><trkpt lat="44.219592" lon="8.4147374"><ele>13.666666666666668</ele><time>2026-05-03T15:30:37.156Z</time></trkpt><trkpt lat="44.2194814" lon="8.4147671"><ele>14.0</ele><time>2026-05-03T15:30:38.155Z</time></trkpt><trkpt lat="44.2193549" lon="8.414747"><ele>10.666666666666668</ele><time>2026-05-03T15:30:39.155Z</time></trkpt><trkpt lat="44.2192147" lon="8.4147044"><ele>7.333333333333334</ele><time>2026-05-03T15:30:40.156Z</time></trkpt><trkpt lat="44.2190589" lon="8.4146836"><ele>4.0</ele><time>2026-05-03T15:30:41.155Z</time></trkpt><trkpt lat="44.2188937" lon="8.4146863"><ele>3.6666666666666665</ele><time>2026-05-03T15:30:42.155Z</time></trkpt><trkpt lat="44.2187324" lon="8.4147062"><ele>3.333333333333333</ele><time>2026-05-03T15:30:43.155Z</time></trkpt><trkpt lat="44.2185722" lon="8.4147345"><ele>3.0</ele><time>2026-05-03T15:30:44.155Z</time></trkpt><trkpt lat="44.2184039" lon="8.4147625"><ele>3.0</ele><time>2026-05-03T15:30:45.156Z</time></trkpt><trkpt lat="44.2182393" lon="8.4147852"><ele>3.0</ele><time>2026-05-03T15:30:46.155Z</time></trkpt><trkpt lat="44.2180733" lon="8.4148078"><ele>3.0</ele><time>2026-05-03T15:30:47.155Z</time></trkpt><trkpt lat="44.2179006" lon="8.4148308"><ele>4.0</ele><time>2026-05-03T15:30:48.155Z</time></trkpt><trkpt lat="44.217724" lon="8.4148578"><ele>5.0</ele><time>2026-05-03T15:30:49.156Z</time></trkpt><trkpt lat="44.2175438" lon="8.4148873"><ele>6.0</ele><time>2026-05-03T15:30:50.155Z</time></trkpt><trkpt lat="44.2173611" lon="8.4149253"><ele>8.666666666666668</ele><time>2026-05-03T15:30:51.155Z</time></trkpt><trkpt lat="44.2171767" lon="8.4149712"><ele>11.333333333333334</ele><time>2026-05-03T15:30:52.155Z</time></trkpt><trkpt lat="44.2169917" lon="8.4150192"><ele>14.0</ele><time>2026-05-03T15:30:53.155Z</time></trkpt><trkpt lat="44.2168091" lon="8.4150665"><ele>14.0</ele><time>2026-05-03T15:30:54.156Z</time></trkpt><trkpt lat="44.2166284" lon="8.41511"><ele>14.0</ele><time>2026-05-03T15:30:55.155Z</time></trkpt><trkpt lat="44.2164493" lon="8.4151595"><ele>14.0</ele><time>2026-05-03T15:30:56.156Z</time></trkpt><trkpt lat="44.2162712" lon="8.415218"><ele>11.333333333333334</ele><time>2026-05-03T15:30:57.155Z</time></trkpt><trkpt lat="44.2160932" lon="8.4152931"><ele>8.666666666666668</ele><time>2026-05-03T15:30:58.155Z</time></trkpt><trkpt lat="44.2159183" lon="8.4153845"><ele>6.0</ele><time>2026-05-03T15:30:59.155Z</time></trkpt><trkpt lat="44.2157489" lon="8.4154923"><ele>10.333333333333332</ele><time>2026-05-03T15:31:00.155Z</time></trkpt><trkpt lat="44.2155842" lon="8.4156109"><ele>14.666666666666666</ele><time>2026-05-03T15:31:01.155Z</time></trkpt><trkpt lat="44.2154251" lon="8.4157368"><ele>19.0</ele><time>2026-05-03T15:31:02.156Z</time></trkpt><trkpt lat="44.2152741" lon="8.4158621"><ele>19.0</ele><time>2026-05-03T15:31:03.155Z</time></trkpt><trkpt lat="44.215146" lon="8.4159737"><ele>19.0</ele><time>2026-05-03T15:31:04.155Z</time></trkpt><trkpt lat="44.2150419" lon="8.4160613"><ele>19.0</ele><time>2026-05-03T15:31:05.155Z</time></trkpt><trkpt lat="44.2149417" lon="8.4161353"><ele>19.0</ele><time>2026-05-03T15:31:06.156Z</time></trkpt><trkpt lat="44.2148463" lon="8.4161994"><ele>17.0</ele><time>2026-05-03T15:31:07.155Z</time></trkpt><trkpt lat="44.2147454" lon="8.4162617"><ele>15.0</ele><time>2026-05-03T15:31:08.156Z</time></trkpt><trkpt lat="44.2146388" lon="8.416318"><ele>13.0</ele><time>2026-05-03T15:31:09.156Z</time></trkpt><trkpt lat="44.2145216" lon="8.4163721"><ele>11.0</ele><time>2026-05-03T15:31:10.155Z</time></trkpt><trkpt lat="44.2143872" lon="8.4164156"><ele>11.0</ele><time>2026-05-03T15:31:11.155Z</time></trkpt><trkpt lat="44.2142323" lon="8.4164374"><ele>11.0</ele><time>2026-05-03T15:31:12.155Z</time></trkpt><trkpt lat="44.2140715" lon="8.4164581"><ele>11.0</ele><time>2026-05-03T15:31:13.155Z</time></trkpt><trkpt lat="44.2139087" lon="8.4164869"><ele>12.333333333333332</ele><time>2026-05-03T15:31:14.156Z</time></trkpt><trkpt lat="44.2137461" lon="8.4165199"><ele>13.666666666666666</ele><time>2026-05-03T15:31:15.156Z</time></trkpt><trkpt lat="44.2135843" lon="8.4165474"><ele>15.0</ele><time>2026-05-03T15:31:16.156Z</time></trkpt><trkpt lat="44.2134224" lon="8.4165745"><ele>15.0</ele><time>2026-05-03T15:31:17.155Z</time></trkpt><trkpt lat="44.2132604" lon="8.4166002"><ele>15.0</ele><time>2026-05-03T15:31:18.155Z</time></trkpt><trkpt lat="44.2130978" lon="8.4166233"><ele>15.0</ele><time>2026-05-03T15:31:19.156Z</time></trkpt><trkpt lat="44.2129429" lon="8.4166409"><ele>15.0</ele><time>2026-05-03T15:31:20.155Z</time></trkpt><trkpt lat="44.2127896" lon="8.4166625"><ele>15.0</ele><time>2026-05-03T15:31:21.155Z</time></trkpt><trkpt lat="44.2126352" lon="8.4166976"><ele>15.0</ele><time>2026-05-03T15:31:22.155Z</time></trkpt><trkpt lat="44.2124817" lon="8.4167794"><ele>15.0</ele><time>2026-05-03T15:31:23.155Z</time></trkpt><trkpt lat="44.2123314" lon="8.416905"><ele>15.0</ele><time>2026-05-03T15:31:24.155Z</time></trkpt><trkpt lat="44.2121875" lon="8.4170616"><ele>15.0</ele><time>2026-05-03T15:31:25.155Z</time></trkpt><trkpt lat="44.2120458" lon="8.4172283"><ele>16.0</ele><time>2026-05-03T15:31:26.156Z</time></trkpt><trkpt lat="44.2119033" lon="8.417398"><ele>17.0</ele><time>2026-05-03T15:31:27.155Z</time></trkpt><trkpt lat="44.2117604" lon="8.4175606"><ele>18.0</ele><time>2026-05-03T15:31:28.156Z</time></trkpt><trkpt lat="44.2116197" lon="8.417713"><ele>20.666666666666664</ele><time>2026-05-03T15:31:29.155Z</time></trkpt><trkpt lat="44.2114769" lon="8.4178485"><ele>23.333333333333332</ele><time>2026-05-03T15:31:30.155Z</time></trkpt><trkpt lat="44.2113291" lon="8.4179448"><ele>26.0</ele><time>2026-05-03T15:31:31.155Z</time></trkpt><trkpt lat="44.2111693" lon="8.4179903"><ele>26.0</ele><time>2026-05-03T15:31:32.155Z</time></trkpt><trkpt lat="44.2110015" lon="8.4179817"><ele>26.0</ele><time>2026-05-03T15:31:33.156Z</time></trkpt><trkpt lat="44.2108325" lon="8.417931"><ele>26.0</ele><time>2026-05-03T15:31:34.156Z</time></trkpt><trkpt lat="44.2106642" lon="8.417855"><ele>22.333333333333332</ele><time>2026-05-03T15:31:35.156Z</time></trkpt><trkpt lat="44.2104955" lon="8.4177699"><ele>18.666666666666664</ele><time>2026-05-03T15:31:36.155Z</time></trkpt><trkpt lat="44.2103278" lon="8.417694"><ele>15.0</ele><time>2026-05-03T15:31:37.156Z</time></trkpt><trkpt lat="44.2101685" lon="8.4176246"><ele>15.0</ele><time>2026-05-03T15:31:38.155Z</time></trkpt><trkpt lat="44.2100222" lon="8.4175651"><ele>15.0</ele><time>2026-05-03T15:31:39.155Z</time></trkpt><trkpt lat="44.2098835" lon="8.4175225"><ele>15.0</ele><time>2026-05-03T15:31:40.156Z</time></trkpt><trkpt lat="44.2097479" lon="8.4174982"><ele>15.0</ele><time>2026-05-03T15:31:41.155Z</time></trkpt><trkpt lat="44.2096061" lon="8.4174923"><ele>14.666666666666668</ele><time>2026-05-03T15:31:42.155Z</time></trkpt><trkpt lat="44.2094582" lon="8.4174965"><ele>14.333333333333334</ele><time>2026-05-03T15:31:43.155Z</time></trkpt><trkpt lat="44.2093054" lon="8.4174995"><ele>14.0</ele><time>2026-05-03T15:31:44.156Z</time></trkpt><trkpt lat="44.2091496" lon="8.4174934"><ele>16.666666666666668</ele><time>2026-05-03T15:31:45.155Z</time></trkpt><trkpt lat="44.2089873" lon="8.4174754"><ele>19.333333333333332</ele><time>2026-05-03T15:31:46.156Z</time></trkpt><trkpt lat="44.2088188" lon="8.4174557"><ele>22.0</ele><time>2026-05-03T15:31:47.155Z</time></trkpt><trkpt lat="44.208647" lon="8.4174437"><ele>22.0</ele><time>2026-05-03T15:31:48.155Z</time></trkpt><trkpt lat="44.208471" lon="8.4174429"><ele>22.0</ele><time>2026-05-03T15:31:49.155Z</time></trkpt><trkpt lat="44.2082954" lon="8.4174471"><ele>22.0</ele><time>2026-05-03T15:31:50.155Z</time></trkpt><trkpt lat="44.208134" lon="8.4174561"><ele>20.666666666666664</ele><time>2026-05-03T15:31:51.155Z</time></trkpt><trkpt lat="44.2079706" lon="8.4174686"><ele>19.333333333333332</ele><time>2026-05-03T15:31:52.155Z</time></trkpt><trkpt lat="44.207814" lon="8.4174643"><ele>18.0</ele><time>2026-05-03T15:31:53.155Z</time></trkpt><trkpt lat="44.207664" lon="8.4174572"><ele>18.0</ele><time>2026-05-03T15:31:54.155Z</time></trkpt><trkpt lat="44.2075172" lon="8.4174345"><ele>18.0</ele><time>2026-05-03T15:31:55.155Z</time></trkpt><trkpt lat="44.2073732" lon="8.4173909"><ele>18.0</ele><time>2026-05-03T15:31:56.155Z</time></trkpt><trkpt lat="44.2072362" lon="8.4173111"><ele>18.0</ele><time>2026-05-03T15:31:57.155Z</time></trkpt><trkpt lat="44.2070978" lon="8.4172409"><ele>16.333333333333332</ele><time>2026-05-03T15:31:58.155Z</time></trkpt><trkpt lat="44.2069652" lon="8.4171512"><ele>14.666666666666666</ele><time>2026-05-03T15:31:59.155Z</time></trkpt><trkpt lat="44.2068325" lon="8.4170451"><ele>13.0</ele><time>2026-05-03T15:32:00.155Z</time></trkpt><trkpt lat="44.2066966" lon="8.4169494"><ele>13.0</ele><time>2026-05-03T15:32:01.155Z</time></trkpt><trkpt lat="44.2065609" lon="8.41686"><ele>13.0</ele><time>2026-05-03T15:32:02.156Z</time></trkpt><trkpt lat="44.2064281" lon="8.4167832"><ele>13.0</ele><time>2026-05-03T15:32:03.155Z</time></trkpt><trkpt lat="44.2063044" lon="8.416716"><ele>13.0</ele><time>2026-05-03T15:32:04.156Z</time></trkpt><trkpt lat="44.2061866" lon="8.4166627"><ele>11.25</ele><time>2026-05-03T15:32:05.155Z</time></trkpt><trkpt lat="44.2060706" lon="8.4166243"><ele>9.5</ele><time>2026-05-03T15:32:06.155Z</time></trkpt><trkpt lat="44.2059577" lon="8.4165954"><ele>7.75</ele><time>2026-05-03T15:32:07.155Z</time></trkpt><trkpt lat="44.2058425" lon="8.4165671"><ele>6.0</ele><time>2026-05-03T15:32:08.155Z</time></trkpt><trkpt lat="44.2057275" lon="8.4165337"><ele>5.75</ele><time>2026-05-03T15:32:09.155Z</time></trkpt><trkpt lat="44.2056096" lon="8.4164994"><ele>5.5</ele><time>2026-05-03T15:32:10.155Z</time></trkpt><trkpt lat="44.2054862" lon="8.4164651"><ele>5.25</ele><time>2026-05-03T15:32:11.155Z</time></trkpt><trkpt lat="44.205358" lon="8.4164299"><ele>5.0</ele><time>2026-05-03T15:32:12.155Z</time></trkpt><trkpt lat="44.2052289" lon="8.4163906"><ele>5.0</ele><time>2026-05-03T15:32:13.155Z</time></trkpt><trkpt lat="44.2051017" lon="8.4163507"><ele>5.0</ele><time>2026-05-03T15:32:14.155Z</time></trkpt><trkpt lat="44.204979" lon="8.4163189"><ele>5.0</ele><time>2026-05-03T15:32:15.155Z</time></trkpt><trkpt lat="44.2048631" lon="8.4162875"><ele>5.0</ele><time>2026-05-03T15:32:16.155Z</time></trkpt><trkpt lat="44.2047623" lon="8.416258"><ele>5.6</ele><time>2026-05-03T15:32:17.156Z</time></trkpt><trkpt lat="44.2046684" lon="8.4162358"><ele>6.2</ele><time>2026-05-03T15:32:18.155Z</time></trkpt><trkpt lat="44.2045715" lon="8.4162139"><ele>6.800000000000001</ele><time>2026-05-03T15:32:19.156Z</time></trkpt><trkpt lat="44.2044668" lon="8.4161821"><ele>7.4</ele><time>2026-05-03T15:32:20.155Z</time></trkpt><trkpt lat="44.2043509" lon="8.4161447"><ele>8.0</ele><time>2026-05-03T15:32:21.156Z</time></trkpt><trkpt lat="44.2042263" lon="8.4161056"><ele>8.0</ele><time>2026-05-03T15:32:22.156Z</time></trkpt><trkpt lat="44.2040991" lon="8.4160652"><ele>8.0</ele><time>2026-05-03T15:32:23.155Z</time></trkpt><trkpt lat="44.2039734" lon="8.4160276"><ele>8.0</ele><time>2026-05-03T15:32:24.155Z</time></trkpt><trkpt lat="44.2038477" lon="8.4159941"><ele>8.0</ele><time>2026-05-03T15:32:25.155Z</time></trkpt><trkpt lat="44.2037203" lon="8.4159622"><ele>7.5</ele><time>2026-05-03T15:32:26.156Z</time></trkpt><trkpt lat="44.2035896" lon="8.4159332"><ele>7.0</ele><time>2026-05-03T15:32:27.155Z</time></trkpt><trkpt lat="44.2034572" lon="8.4159052"><ele>6.5</ele><time>2026-05-03T15:32:28.155Z</time></trkpt><trkpt lat="44.2033262" lon="8.4158837"><ele>6.0</ele><time>2026-05-03T15:32:29.155Z</time></trkpt><trkpt lat="44.2031991" lon="8.415869"><ele>6.0</ele><time>2026-05-03T15:32:30.155Z</time></trkpt><trkpt lat="44.2030785" lon="8.4158613"><ele>6.0</ele><time>2026-05-03T15:32:31.156Z</time></trkpt><trkpt lat="44.2029612" lon="8.4158563"><ele>6.0</ele><time>2026-05-03T15:32:32.156Z</time></trkpt><trkpt lat="44.2028485" lon="8.4158479"><ele>6.0</ele><time>2026-05-03T15:32:33.155Z</time></trkpt><trkpt lat="44.2027394" lon="8.4158376"><ele>6.0</ele><time>2026-05-03T15:32:34.155Z</time></trkpt><trkpt lat="44.2026289" lon="8.4158325"><ele>6.0</ele><time>2026-05-03T15:32:35.155Z</time></trkpt><trkpt lat="44.2025273" lon="8.4158331"><ele>6.0</ele><time>2026-05-03T15:32:36.155Z</time></trkpt><trkpt lat="44.2024416" lon="8.4158324"><ele>6.0</ele><time>2026-05-03T15:32:37.155Z</time></trkpt><trkpt lat="44.2023677" lon="8.4158342"><ele>6.0</ele><time>2026-05-03T15:32:38.155Z</time></trkpt><trkpt lat="44.2023043" lon="8.4158434"><ele>6.0</ele><time>2026-05-03T15:32:39.155Z</time></trkpt><trkpt lat="44.2021785" lon="8.415853"><ele>5.833333333333333</ele><time>2026-05-03T15:32:41.155Z</time></trkpt><trkpt lat="44.2021065" lon="8.4158629"><ele>5.666666666666667</ele><time>2026-05-03T15:32:42.155Z</time></trkpt><trkpt lat="44.2020247" lon="8.4158892"><ele>5.5</ele><time>2026-05-03T15:32:43.155Z</time></trkpt><trkpt lat="44.2019424" lon="8.4159203"><ele>5.333333333333334</ele><time>2026-05-03T15:32:44.156Z</time></trkpt><trkpt lat="44.2018695" lon="8.4159536"><ele>5.166666666666667</ele><time>2026-05-03T15:32:45.155Z</time></trkpt><trkpt lat="44.201752" lon="8.4160085"><ele>5.0</ele><time>2026-05-03T15:32:47.155Z</time></trkpt><trkpt lat="44.201686" lon="8.4160399"><ele>5.0</ele><time>2026-05-03T15:32:48.155Z</time></trkpt><trkpt lat="44.2016121" lon="8.4160813"><ele>5.0</ele><time>2026-05-03T15:32:49.155Z</time></trkpt><trkpt lat="44.2015287" lon="8.4161298"><ele>5.0</ele><time>2026-05-03T15:32:50.155Z</time></trkpt><trkpt lat="44.2014341" lon="8.4161771"><ele>5.0</ele><time>2026-05-03T15:32:51.156Z</time></trkpt><trkpt lat="44.2013334" lon="8.4162269"><ele>5.0</ele><time>2026-05-03T15:32:52.155Z</time></trkpt><trkpt lat="44.2012326" lon="8.416278"><ele>4.8</ele><time>2026-05-03T15:32:53.155Z</time></trkpt><trkpt lat="44.2011343" lon="8.4163305"><ele>4.6</ele><time>2026-05-03T15:32:54.155Z</time></trkpt><trkpt lat="44.2010371" lon="8.4163731"><ele>4.4</ele><time>2026-05-03T15:32:55.155Z</time></trkpt><trkpt lat="44.2009378" lon="8.4164174"><ele>4.2</ele><time>2026-05-03T15:32:56.155Z</time></trkpt><trkpt lat="44.2008347" lon="8.4164684"><ele>4.0</ele><time>2026-05-03T15:32:57.155Z</time></trkpt><trkpt lat="44.2007258" lon="8.416523"><ele>6.6</ele><time>2026-05-03T15:32:58.155Z</time></trkpt><trkpt lat="44.2006176" lon="8.416579"><ele>9.2</ele><time>2026-05-03T15:32:59.155Z</time></trkpt><trkpt lat="44.2005133" lon="8.4166367"><ele>11.799999999999999</ele><time>2026-05-03T15:33:00.155Z</time></trkpt><trkpt lat="44.200415" lon="8.4166959"><ele>14.4</ele><time>2026-05-03T15:33:01.155Z</time></trkpt><trkpt lat="44.2003258" lon="8.4167596"><ele>17.0</ele><time>2026-05-03T15:33:02.155Z</time></trkpt><trkpt lat="44.2002422" lon="8.4168355"><ele>17.0</ele><time>2026-05-03T15:33:03.156Z</time></trkpt><trkpt lat="44.2001609" lon="8.4169188"><ele>17.0</ele><time>2026-05-03T15:33:04.156Z</time></trkpt><trkpt lat="44.2000785" lon="8.417005"><ele>17.0</ele><time>2026-05-03T15:33:05.155Z</time></trkpt><trkpt lat="44.1999952" lon="8.417087"><ele>17.0</ele><time>2026-05-03T15:33:06.155Z</time></trkpt><trkpt lat="44.1999191" lon="8.4171645"><ele>17.0</ele><time>2026-05-03T15:33:07.156Z</time></trkpt><trkpt lat="44.1998424" lon="8.4172438"><ele>22.2</ele><time>2026-05-03T15:33:08.156Z</time></trkpt><trkpt lat="44.1997669" lon="8.4173272"><ele>27.4</ele><time>2026-05-03T15:33:09.155Z</time></trkpt><trkpt lat="44.1996905" lon="8.4174135"><ele>32.599999999999994</ele><time>2026-05-03T15:33:10.155Z</time></trkpt><trkpt lat="44.199613" lon="8.4175125"><ele>37.8</ele><time>2026-05-03T15:33:11.156Z</time></trkpt><trkpt lat="44.1995423" lon="8.4176157"><ele>43.0</ele><time>2026-05-03T15:33:12.156Z</time></trkpt><trkpt lat="44.199476" lon="8.4177254"><ele>43.0</ele><time>2026-05-03T15:33:13.155Z</time></trkpt><trkpt lat="44.1994156" lon="8.4178444"><ele>43.0</ele><time>2026-05-03T15:33:14.156Z</time></trkpt><trkpt lat="44.1993627" lon="8.4179784"><ele>43.0</ele><time>2026-05-03T15:33:15.155Z</time></trkpt><trkpt lat="44.1993131" lon="8.4181202"><ele>43.0</ele><time>2026-05-03T15:33:16.155Z</time></trkpt><trkpt lat="44.1992703" lon="8.4182517"><ele>43.0</ele><time>2026-05-03T15:33:17.155Z</time></trkpt><trkpt lat="44.1992337" lon="8.4183865"><ele>43.2</ele><time>2026-05-03T15:33:18.155Z</time></trkpt><trkpt lat="44.1992014" lon="8.4185236"><ele>43.4</ele><time>2026-05-03T15:33:19.155Z</time></trkpt><trkpt lat="44.199167" lon="8.4186628"><ele>43.6</ele><time>2026-05-03T15:33:20.155Z</time></trkpt><trkpt lat="44.1991194" lon="8.4188007"><ele>43.800000000000004</ele><time>2026-05-03T15:33:21.156Z</time></trkpt><trkpt lat="44.1990494" lon="8.418939"><ele>44.0</ele><time>2026-05-03T15:33:22.155Z</time></trkpt><trkpt lat="44.1989599" lon="8.4190726"><ele>44.0</ele><time>2026-05-03T15:33:23.156Z</time></trkpt><trkpt lat="44.1988633" lon="8.419203"><ele>44.0</ele><time>2026-05-03T15:33:24.155Z</time></trkpt><trkpt lat="44.1987733" lon="8.4193284"><ele>44.0</ele><time>2026-05-03T15:33:25.155Z</time></trkpt><trkpt lat="44.1986934" lon="8.4194594"><ele>44.0</ele><time>2026-05-03T15:33:26.156Z</time></trkpt><trkpt lat="44.1986203" lon="8.4196001"><ele>39.800000000000004</ele><time>2026-05-03T15:33:27.155Z</time></trkpt><trkpt lat="44.1985591" lon="8.41974"><ele>35.6</ele><time>2026-05-03T15:33:28.155Z</time></trkpt><trkpt lat="44.1984979" lon="8.4198747"><ele>31.4</ele><time>2026-05-03T15:33:29.155Z</time></trkpt><trkpt lat="44.1984388" lon="8.420013"><ele>27.2</ele><time>2026-05-03T15:33:30.155Z</time></trkpt><trkpt lat="44.1983963" lon="8.4201348"><ele>23.0</ele><time>2026-05-03T15:33:31.156Z</time></trkpt><trkpt lat="44.1983654" lon="8.4202548"><ele>23.0</ele><time>2026-05-03T15:33:32.155Z</time></trkpt><trkpt lat="44.1983507" lon="8.4203973"><ele>23.0</ele><time>2026-05-03T15:33:33.155Z</time></trkpt><trkpt lat="44.1983691" lon="8.4205514"><ele>23.0</ele><time>2026-05-03T15:33:34.155Z</time></trkpt><trkpt lat="44.1984126" lon="8.420718"><ele>23.0</ele><time>2026-05-03T15:33:35.155Z</time></trkpt><trkpt lat="44.1984445" lon="8.4209023"><ele>24.25</ele><time>2026-05-03T15:33:36.156Z</time></trkpt><trkpt lat="44.1984703" lon="8.4210865"><ele>25.5</ele><time>2026-05-03T15:33:37.155Z</time></trkpt><trkpt lat="44.1984938" lon="8.4212558"><ele>26.75</ele><time>2026-05-03T15:33:38.155Z</time></trkpt><trkpt lat="44.1985085" lon="8.4214222"><ele>28.0</ele><time>2026-05-03T15:33:39.155Z</time></trkpt><trkpt lat="44.1985118" lon="8.4215837"><ele>27.25</ele><time>2026-05-03T15:33:40.155Z</time></trkpt><trkpt lat="44.1985162" lon="8.4217446"><ele>26.5</ele><time>2026-05-03T15:33:41.156Z</time></trkpt><trkpt lat="44.1985167" lon="8.4218966"><ele>25.75</ele><time>2026-05-03T15:33:42.155Z</time></trkpt><trkpt lat="44.1984954" lon="8.4220564"><ele>25.0</ele><time>2026-05-03T15:33:43.155Z</time></trkpt><trkpt lat="44.1984537" lon="8.4222183"><ele>25.0</ele><time>2026-05-03T15:33:44.156Z</time></trkpt><trkpt lat="44.1983988" lon="8.4223944"><ele>25.0</ele><time>2026-05-03T15:33:45.156Z</time></trkpt><trkpt lat="44.1983304" lon="8.4225891"><ele>25.0</ele><time>2026-05-03T15:33:46.155Z</time></trkpt><trkpt lat="44.1982476" lon="8.4228036"><ele>41.0</ele><time>2026-05-03T15:33:47.155Z</time></trkpt><trkpt lat="44.1981515" lon="8.4230283"><ele>57.0</ele><time>2026-05-03T15:33:48.155Z</time></trkpt><trkpt lat="44.1980472" lon="8.4232674"><ele>73.0</ele><time>2026-05-03T15:33:49.155Z</time></trkpt><trkpt lat="44.1979448" lon="8.423497"><ele>73.0</ele><time>2026-05-03T15:33:50.156Z</time></trkpt><trkpt lat="44.1978249" lon="8.4237278"><ele>73.0</ele><time>2026-05-03T15:33:51.155Z</time></trkpt><trkpt lat="44.1976896" lon="8.4239495"><ele>73.0</ele><time>2026-05-03T15:33:52.156Z</time></trkpt><trkpt lat="44.1975389" lon="8.424155"><ele>74.66666666666666</ele><time>2026-05-03T15:33:53.155Z</time></trkpt><trkpt lat="44.1973875" lon="8.4243356"><ele>76.33333333333333</ele><time>2026-05-03T15:33:54.155Z</time></trkpt><trkpt lat="44.1972333" lon="8.4245052"><ele>78.0</ele><time>2026-05-03T15:33:55.155Z</time></trkpt><trkpt lat="44.197091" lon="8.4246575"><ele>52.0</ele><time>2026-05-03T15:33:56.155Z</time></trkpt><trkpt lat="44.1969444" lon="8.4247804"><ele>26.0</ele><time>2026-05-03T15:33:57.156Z</time></trkpt><trkpt lat="44.1967911" lon="8.4248639"><ele>0.0</ele><time>2026-05-03T15:33:58.155Z</time></trkpt><trkpt lat="44.1966182" lon="8.4248909"><ele>0.0</ele><time>2026-05-03T15:33:59.155Z</time></trkpt><trkpt lat="44.1964302" lon="8.4249135"><ele>0.0</ele><time>2026-05-03T15:34:00.155Z</time></trkpt><trkpt lat="44.1962473" lon="8.424921"><ele>0.0</ele><time>2026-05-03T15:34:01.155Z</time></trkpt><trkpt lat="44.1960604" lon="8.4249465"><ele>0.0</ele><time>2026-05-03T15:34:02.155Z</time></trkpt><trkpt lat="44.195871" lon="8.4249807"><ele>0.0</ele><time>2026-05-03T15:34:03.156Z</time></trkpt><trkpt lat="44.1951623" lon="8.4246278"><ele>2.75</ele><time>2026-05-03T15:34:07.155Z</time></trkpt><trkpt lat="44.1950528" lon="8.4244759"><ele>5.5</ele><time>2026-05-03T15:34:08.155Z</time></trkpt><trkpt lat="44.1949507" lon="8.4243698"><ele>8.25</ele><time>2026-05-03T15:34:09.155Z</time></trkpt><trkpt lat="44.1948659" lon="8.4242405"><ele>11.0</ele><time>2026-05-03T15:34:10.155Z</time></trkpt><trkpt lat="44.1948303" lon="8.4240593"><ele>11.0</ele><time>2026-05-03T15:34:11.156Z</time></trkpt><trkpt lat="44.1947554" lon="8.4239176"><ele>11.0</ele><time>2026-05-03T15:34:12.155Z</time></trkpt><trkpt lat="44.1946451" lon="8.4238073"><ele>11.0</ele><time>2026-05-03T15:34:13.155Z</time></trkpt><trkpt lat="44.1945191" lon="8.4236876"><ele>11.0</ele><time>2026-05-03T15:34:14.155Z</time></trkpt><trkpt lat="44.1944108" lon="8.4235096"><ele>19.0</ele><time>2026-05-03T15:34:15.155Z</time></trkpt><trkpt lat="44.1943123" lon="8.4233314"><ele>27.0</ele><time>2026-05-03T15:34:16.155Z</time></trkpt><trkpt lat="44.1942181" lon="8.4231502"><ele>35.0</ele><time>2026-05-03T15:34:17.155Z</time></trkpt><trkpt lat="44.1940871" lon="8.4230273"><ele>36.5</ele><time>2026-05-03T15:34:18.156Z</time></trkpt><trkpt lat="44.1939443" lon="8.4229528"><ele>38.0</ele><time>2026-05-03T15:34:19.155Z</time></trkpt><trkpt lat="44.1938004" lon="8.4229394"><ele>39.5</ele><time>2026-05-03T15:34:20.155Z</time></trkpt><trkpt lat="44.1936544" lon="8.4229127"><ele>41.0</ele><time>2026-05-03T15:34:21.155Z</time></trkpt><trkpt lat="44.1935034" lon="8.4228484"><ele>41.0</ele><time>2026-05-03T15:34:22.155Z</time></trkpt><trkpt lat="44.1933511" lon="8.4227849"><ele>41.0</ele><time>2026-05-03T15:34:23.155Z</time></trkpt><trkpt lat="44.1932018" lon="8.4226764"><ele>41.0</ele><time>2026-05-03T15:34:24.155Z</time></trkpt><trkpt lat="44.1931117" lon="8.4224543"><ele>40.75</ele><time>2026-05-03T15:34:25.155Z</time></trkpt><trkpt lat="44.1930211" lon="8.4222764"><ele>40.5</ele><time>2026-05-03T15:34:26.156Z</time></trkpt><trkpt lat="44.1928998" lon="8.422164"><ele>40.25</ele><time>2026-05-03T15:34:27.156Z</time></trkpt><trkpt lat="44.1927852" lon="8.4220486"><ele>40.0</ele><time>2026-05-03T15:34:28.155Z</time></trkpt><trkpt lat="44.1927121" lon="8.4218864"><ele>40.0</ele><time>2026-05-03T15:34:29.156Z</time></trkpt><trkpt lat="44.192638" lon="8.4217371"><ele>40.0</ele><time>2026-05-03T15:34:30.155Z</time></trkpt><trkpt lat="44.192663" lon="8.4215235"><ele>40.0</ele><time>2026-05-03T15:34:31.155Z</time></trkpt><trkpt lat="44.192623" lon="8.4213416"><ele>40.0</ele><time>2026-05-03T15:34:32.155Z</time></trkpt><trkpt lat="44.192541" lon="8.4211743"><ele>45.0</ele><time>2026-05-03T15:34:33.155Z</time></trkpt><trkpt lat="44.192452" lon="8.4209944"><ele>50.0</ele><time>2026-05-03T15:34:34.155Z</time></trkpt><trkpt lat="44.192372" lon="8.4208185"><ele>55.0</ele><time>2026-05-03T15:34:35.156Z</time></trkpt><trkpt lat="44.1922715" lon="8.4206619"><ele>44.5</ele><time>2026-05-03T15:34:36.155Z</time></trkpt><trkpt lat="44.1921702" lon="8.4205278"><ele>34.0</ele><time>2026-05-03T15:34:37.155Z</time></trkpt><trkpt lat="44.1920773" lon="8.4204019"><ele>23.5</ele><time>2026-05-03T15:34:38.155Z</time></trkpt><trkpt lat="44.1919919" lon="8.4202821"><ele>13.0</ele><time>2026-05-03T15:34:39.156Z</time></trkpt><trkpt lat="44.1919163" lon="8.4201595"><ele>13.0</ele><time>2026-05-03T15:34:40.156Z</time></trkpt><trkpt lat="44.1918505" lon="8.4200382"><ele>13.0</ele><time>2026-05-03T15:34:41.155Z</time></trkpt><trkpt lat="44.1918015" lon="8.4199048"><ele>13.0</ele><time>2026-05-03T15:34:42.155Z</time></trkpt><trkpt lat="44.1917653" lon="8.4197688"><ele>13.0</ele><time>2026-05-03T15:34:43.156Z</time></trkpt><trkpt lat="44.1917384" lon="8.4196289"><ele>13.0</ele><time>2026-05-03T15:34:44.155Z</time></trkpt><trkpt lat="44.1917183" lon="8.4194753"><ele>16.0</ele><time>2026-05-03T15:34:45.156Z</time></trkpt><trkpt lat="44.191705" lon="8.4193148"><ele>19.0</ele><time>2026-05-03T15:34:46.156Z</time></trkpt><trkpt lat="44.1916916" lon="8.4191272"><ele>22.0</ele><time>2026-05-03T15:34:47.155Z</time></trkpt><trkpt lat="44.1916791" lon="8.4189107"><ele>25.0</ele><time>2026-05-03T15:34:48.155Z</time></trkpt><trkpt lat="44.1916597" lon="8.4186694"><ele>25.0</ele><time>2026-05-03T15:34:49.156Z</time></trkpt><trkpt lat="44.1916452" lon="8.4184185"><ele>25.0</ele><time>2026-05-03T15:34:50.155Z</time></trkpt><trkpt lat="44.1916332" lon="8.4181647"><ele>25.0</ele><time>2026-05-03T15:34:51.155Z</time></trkpt><trkpt lat="44.1916201" lon="8.4178986"><ele>17.666666666666668</ele><time>2026-05-03T15:34:52.156Z</time></trkpt><trkpt lat="44.1915913" lon="8.4176243"><ele>10.333333333333334</ele><time>2026-05-03T15:34:53.155Z</time></trkpt><trkpt lat="44.1915341" lon="8.4173459"><ele>3.0</ele><time>2026-05-03T15:34:54.155Z</time></trkpt><trkpt lat="44.1914482" lon="8.4170869"><ele>3.0</ele><time>2026-05-03T15:34:55.156Z</time></trkpt><trkpt lat="44.1913392" lon="8.4168484"><ele>3.0</ele><time>2026-05-03T15:34:56.155Z</time></trkpt><trkpt lat="44.1912117" lon="8.4166092"><ele>3.0</ele><time>2026-05-03T15:34:57.155Z</time></trkpt><trkpt lat="44.1910743" lon="8.4163691"><ele>3.666666666666667</ele><time>2026-05-03T15:34:58.156Z</time></trkpt><trkpt lat="44.1909353" lon="8.4161334"><ele>4.333333333333334</ele><time>2026-05-03T15:34:59.156Z</time></trkpt><trkpt lat="44.1907978" lon="8.4158862"><ele>5.0</ele><time>2026-05-03T15:35:00.156Z</time></trkpt><trkpt lat="44.1906598" lon="8.4156395"><ele>15.5</ele><time>2026-05-03T15:35:01.155Z</time></trkpt><trkpt lat="44.1905188" lon="8.4153935"><ele>26.0</ele><time>2026-05-03T15:35:02.155Z</time></trkpt><trkpt lat="44.1903794" lon="8.4151415"><ele>26.0</ele><time>2026-05-03T15:35:03.155Z</time></trkpt><trkpt lat="44.1902442" lon="8.414883"><ele>26.0</ele><time>2026-05-03T15:35:04.156Z</time></trkpt><trkpt lat="44.1901149" lon="8.4146174"><ele>38.5</ele><time>2026-05-03T15:35:05.155Z</time></trkpt><trkpt lat="44.1899854" lon="8.4143512"><ele>51.0</ele><time>2026-05-03T15:35:06.155Z</time></trkpt><trkpt lat="44.1898489" lon="8.4140917"><ele>11.0</ele><time>2026-05-03T15:35:07.155Z</time></trkpt><trkpt lat="44.1894608" lon="8.4133152"><ele>11.0</ele><time>2026-05-03T15:35:10.155Z</time></trkpt><trkpt lat="44.1893308" lon="8.4130562"><ele>11.0</ele><time>2026-05-03T15:35:11.155Z</time></trkpt><trkpt lat="44.1891123" lon="8.4125368"><ele>12.0</ele><time>2026-05-03T15:35:13.155Z</time></trkpt><trkpt lat="44.189031" lon="8.4121672"><ele>13.0</ele><time>2026-05-03T15:35:14.155Z</time></trkpt><trkpt lat="44.1888937" lon="8.4119087"><ele>13.0</ele><time>2026-05-03T15:35:15.155Z</time></trkpt><trkpt lat="44.1888019" lon="8.411667"><ele>13.0</ele><time>2026-05-03T15:35:16.155Z</time></trkpt><trkpt lat="44.1886998" lon="8.4114341"><ele>13.0</ele><time>2026-05-03T15:35:17.155Z</time></trkpt><trkpt lat="44.1886066" lon="8.4112332"><ele>18.25</ele><time>2026-05-03T15:35:18.155Z</time></trkpt><trkpt lat="44.1885376" lon="8.4110517"><ele>23.5</ele><time>2026-05-03T15:35:19.155Z</time></trkpt><trkpt lat="44.1884646" lon="8.4108974"><ele>28.75</ele><time>2026-05-03T15:35:20.156Z</time></trkpt><trkpt lat="44.1884043" lon="8.4107395"><ele>34.0</ele><time>2026-05-03T15:35:21.155Z</time></trkpt><trkpt lat="44.1883333" lon="8.4105954"><ele>33.5</ele><time>2026-05-03T15:35:22.156Z</time></trkpt><trkpt lat="44.1882515" lon="8.4104509"><ele>33.0</ele><time>2026-05-03T15:35:23.155Z</time></trkpt><trkpt lat="44.1881653" lon="8.410289"><ele>32.5</ele><time>2026-05-03T15:35:24.155Z</time></trkpt><trkpt lat="44.1880717" lon="8.4101225"><ele>32.0</ele><time>2026-05-03T15:35:25.156Z</time></trkpt><trkpt lat="44.1879645" lon="8.409964"><ele>25.333333333333332</ele><time>2026-05-03T15:35:26.155Z</time></trkpt><trkpt lat="44.1878504" lon="8.4097901"><ele>18.666666666666664</ele><time>2026-05-03T15:35:27.155Z</time></trkpt><trkpt lat="44.1877242" lon="8.4096176"><ele>12.0</ele><time>2026-05-03T15:35:28.156Z</time></trkpt><trkpt lat="44.1875907" lon="8.4094456"><ele>12.0</ele><time>2026-05-03T15:35:29.155Z</time></trkpt><trkpt lat="44.1874466" lon="8.4092882"><ele>12.0</ele><time>2026-05-03T15:35:30.155Z</time></trkpt><trkpt lat="44.1872909" lon="8.4091516"><ele>12.0</ele><time>2026-05-03T15:35:31.156Z</time></trkpt><trkpt lat="44.187124" lon="8.4090478"><ele>14.666666666666668</ele><time>2026-05-03T15:35:32.155Z</time></trkpt><trkpt lat="44.1869591" lon="8.4089593"><ele>17.333333333333336</ele><time>2026-05-03T15:35:33.155Z</time></trkpt><trkpt lat="44.1867985" lon="8.4088609"><ele>20.0</ele><time>2026-05-03T15:35:34.155Z</time></trkpt><trkpt lat="44.1866623" lon="8.4087263"><ele>20.0</ele><time>2026-05-03T15:35:35.156Z</time></trkpt><trkpt lat="44.1865384" lon="8.408558"><ele>20.0</ele><time>2026-05-03T15:35:36.156Z</time></trkpt><trkpt lat="44.186423" lon="8.4083727"><ele>20.0</ele><time>2026-05-03T15:35:37.156Z</time></trkpt><trkpt lat="44.1863108" lon="8.408162"><ele>17.333333333333336</ele><time>2026-05-03T15:35:38.157Z</time></trkpt><trkpt lat="44.186204" lon="8.407962"><ele>14.666666666666668</ele><time>2026-05-03T15:35:39.156Z</time></trkpt><trkpt lat="44.1860812" lon="8.4077842"><ele>12.0</ele><time>2026-05-03T15:35:40.157Z</time></trkpt><trkpt lat="44.1859455" lon="8.407616"><ele>12.0</ele><time>2026-05-03T15:35:41.156Z</time></trkpt><trkpt lat="44.1857981" lon="8.4074706"><ele>12.0</ele><time>2026-05-03T15:35:42.156Z</time></trkpt><trkpt lat="44.185642" lon="8.4073348"><ele>12.0</ele><time>2026-05-03T15:35:43.156Z</time></trkpt><trkpt lat="44.185484" lon="8.4072037"><ele>13.0</ele><time>2026-05-03T15:35:44.157Z</time></trkpt><trkpt lat="44.1853248" lon="8.4070724"><ele>14.0</ele><time>2026-05-03T15:35:45.156Z</time></trkpt><trkpt lat="44.1851687" lon="8.4069405"><ele>15.0</ele><time>2026-05-03T15:35:46.156Z</time></trkpt><trkpt lat="44.1850111" lon="8.4068073"><ele>15.0</ele><time>2026-05-03T15:35:47.156Z</time></trkpt><trkpt lat="44.1848528" lon="8.4066735"><ele>15.0</ele><time>2026-05-03T15:35:48.156Z</time></trkpt><trkpt lat="44.18469" lon="8.4065435"><ele>15.0</ele><time>2026-05-03T15:35:49.156Z</time></trkpt><trkpt lat="44.1845297" lon="8.4064133"><ele>12.333333333333334</ele><time>2026-05-03T15:35:50.156Z</time></trkpt><trkpt lat="44.1843741" lon="8.4062844"><ele>9.666666666666668</ele><time>2026-05-03T15:35:51.156Z</time></trkpt><trkpt lat="44.1842215" lon="8.4061579"><ele>7.0</ele><time>2026-05-03T15:35:52.156Z</time></trkpt><trkpt lat="44.1840747" lon="8.4060226"><ele>8.666666666666668</ele><time>2026-05-03T15:35:53.156Z</time></trkpt><trkpt lat="44.18393" lon="8.405881"><ele>10.333333333333334</ele><time>2026-05-03T15:35:54.156Z</time></trkpt><trkpt lat="44.1837891" lon="8.4057398"><ele>12.0</ele><time>2026-05-03T15:35:55.156Z</time></trkpt><trkpt lat="44.1836507" lon="8.4055916"><ele>15.333333333333332</ele><time>2026-05-03T15:35:56.156Z</time></trkpt><trkpt lat="44.183516" lon="8.4054404"><ele>18.666666666666664</ele><time>2026-05-03T15:35:57.156Z</time></trkpt><trkpt lat="44.1833914" lon="8.4052736"><ele>22.0</ele><time>2026-05-03T15:35:58.156Z</time></trkpt><trkpt lat="44.1832785" lon="8.4050908"><ele>22.0</ele><time>2026-05-03T15:35:59.156Z</time></trkpt><trkpt lat="44.183181" lon="8.4048975"><ele>22.0</ele><time>2026-05-03T15:36:00.157Z</time></trkpt><trkpt lat="44.183089" lon="8.4047024"><ele>22.0</ele><time>2026-05-03T15:36:01.156Z</time></trkpt><trkpt lat="44.1826608" lon="8.403693"><ele>19.0</ele><time>2026-05-03T15:36:06.156Z</time></trkpt><trkpt lat="44.1825814" lon="8.4034785"><ele>16.0</ele><time>2026-05-03T15:36:07.157Z</time></trkpt><trkpt lat="44.1825302" lon="8.4032744"><ele>13.0</ele><time>2026-05-03T15:36:08.157Z</time></trkpt><trkpt lat="44.1824798" lon="8.4030421"><ele>12.666666666666666</ele><time>2026-05-03T15:36:09.156Z</time></trkpt><trkpt lat="44.1824397" lon="8.4028167"><ele>12.333333333333332</ele><time>2026-05-03T15:36:10.156Z</time></trkpt><trkpt lat="44.1823902" lon="8.4026005"><ele>12.0</ele><time>2026-05-03T15:36:11.157Z</time></trkpt><trkpt lat="44.1823488" lon="8.4023925"><ele>11.5</ele><time>2026-05-03T15:36:12.156Z</time></trkpt><trkpt lat="44.1822997" lon="8.4021948"><ele>11.0</ele><time>2026-05-03T15:36:13.156Z</time></trkpt><trkpt lat="44.1822571" lon="8.4019999"><ele>10.5</ele><time>2026-05-03T15:36:14.157Z</time></trkpt><trkpt lat="44.182214" lon="8.4018087"><ele>10.0</ele><time>2026-05-03T15:36:15.156Z</time></trkpt><trkpt lat="44.1821751" lon="8.4016094"><ele>10.0</ele><time>2026-05-03T15:36:16.156Z</time></trkpt><trkpt lat="44.1821323" lon="8.4014086"><ele>10.0</ele><time>2026-05-03T15:36:17.156Z</time></trkpt><trkpt lat="44.1820852" lon="8.4012179"><ele>10.0</ele><time>2026-05-03T15:36:18.156Z</time></trkpt><trkpt lat="44.1820366" lon="8.4010278"><ele>10.0</ele><time>2026-05-03T15:36:19.156Z</time></trkpt><trkpt lat="44.1819922" lon="8.4008381"><ele>9.75</ele><time>2026-05-03T15:36:20.157Z</time></trkpt><trkpt lat="44.1819475" lon="8.4006499"><ele>9.5</ele><time>2026-05-03T15:36:21.156Z</time></trkpt><trkpt lat="44.1819027" lon="8.4004562"><ele>9.25</ele><time>2026-05-03T15:36:22.156Z</time></trkpt><trkpt lat="44.1818608" lon="8.4002574"><ele>9.0</ele><time>2026-05-03T15:36:23.157Z</time></trkpt><trkpt lat="44.1818184" lon="8.400059"><ele>9.0</ele><time>2026-05-03T15:36:24.156Z</time></trkpt><trkpt lat="44.1817831" lon="8.3998621"><ele>9.0</ele><time>2026-05-03T15:36:25.156Z</time></trkpt><trkpt lat="44.1817594" lon="8.3996541"><ele>9.0</ele><time>2026-05-03T15:36:26.156Z</time></trkpt><trkpt lat="44.1817376" lon="8.3994482"><ele>9.0</ele><time>2026-05-03T15:36:27.156Z</time></trkpt><trkpt lat="44.181724" lon="8.3992499"><ele>9.0</ele><time>2026-05-03T15:36:28.156Z</time></trkpt><trkpt lat="44.1817149" lon="8.3990596"><ele>9.0</ele><time>2026-05-03T15:36:29.156Z</time></trkpt><trkpt lat="44.1817071" lon="8.3988752"><ele>9.0</ele><time>2026-05-03T15:36:30.157Z</time></trkpt><trkpt lat="44.1817026" lon="8.3987053"><ele>9.0</ele><time>2026-05-03T15:36:31.157Z</time></trkpt><trkpt lat="44.1817004" lon="8.3985404"><ele>8.75</ele><time>2026-05-03T15:36:32.156Z</time></trkpt><trkpt lat="44.1817006" lon="8.3983774"><ele>8.5</ele><time>2026-05-03T15:36:33.157Z</time></trkpt><trkpt lat="44.1817061" lon="8.3982055"><ele>8.25</ele><time>2026-05-03T15:36:34.156Z</time></trkpt><trkpt lat="44.181701" lon="8.3980237"><ele>8.0</ele><time>2026-05-03T15:36:35.156Z</time></trkpt><trkpt lat="44.1816956" lon="8.3978354"><ele>7.5</ele><time>2026-05-03T15:36:36.156Z</time></trkpt><trkpt lat="44.1816916" lon="8.3976399"><ele>7.0</ele><time>2026-05-03T15:36:37.156Z</time></trkpt><trkpt lat="44.1816942" lon="8.3974403"><ele>6.5</ele><time>2026-05-03T15:36:38.156Z</time></trkpt><trkpt lat="44.1816919" lon="8.3972502"><ele>6.0</ele><time>2026-05-03T15:36:39.156Z</time></trkpt><trkpt lat="44.1816907" lon="8.3970701"><ele>6.0</ele><time>2026-05-03T15:36:40.156Z</time></trkpt><trkpt lat="44.1816887" lon="8.3968851"><ele>6.0</ele><time>2026-05-03T15:36:41.156Z</time></trkpt><trkpt lat="44.1816849" lon="8.3966956"><ele>6.0</ele><time>2026-05-03T15:36:42.156Z</time></trkpt><trkpt lat="44.1816784" lon="8.3965054"><ele>6.0</ele><time>2026-05-03T15:36:43.157Z</time></trkpt><trkpt lat="44.1816732" lon="8.3963117"><ele>6.25</ele><time>2026-05-03T15:36:44.156Z</time></trkpt><trkpt lat="44.1816696" lon="8.3961181"><ele>6.5</ele><time>2026-05-03T15:36:45.157Z</time></trkpt><trkpt lat="44.1816638" lon="8.3959232"><ele>6.75</ele><time>2026-05-03T15:36:46.156Z</time></trkpt><trkpt lat="44.1816583" lon="8.3957269"><ele>7.0</ele><time>2026-05-03T15:36:47.157Z</time></trkpt><trkpt lat="44.1816523" lon="8.3955296"><ele>7.25</ele><time>2026-05-03T15:36:48.158Z</time></trkpt><trkpt lat="44.1816476" lon="8.3953306"><ele>7.5</ele><time>2026-05-03T15:36:49.157Z</time></trkpt><trkpt lat="44.1816454" lon="8.3951347"><ele>7.75</ele><time>2026-05-03T15:36:50.157Z</time></trkpt><trkpt lat="44.1816405" lon="8.3949375"><ele>8.0</ele><time>2026-05-03T15:36:51.156Z</time></trkpt><trkpt lat="44.1816386" lon="8.3947382"><ele>8.0</ele><time>2026-05-03T15:36:52.156Z</time></trkpt><trkpt lat="44.181635" lon="8.3945338"><ele>8.0</ele><time>2026-05-03T15:36:53.156Z</time></trkpt><trkpt lat="44.1816337" lon="8.3943239"><ele>8.0</ele><time>2026-05-03T15:36:54.156Z</time></trkpt><trkpt lat="44.1816301" lon="8.3941102"><ele>8.0</ele><time>2026-05-03T15:36:55.157Z</time></trkpt><trkpt lat="44.1816256" lon="8.3938929"><ele>8.0</ele><time>2026-05-03T15:36:56.156Z</time></trkpt><trkpt lat="44.1816187" lon="8.3936697"><ele>8.0</ele><time>2026-05-03T15:36:57.156Z</time></trkpt><trkpt lat="44.1816105" lon="8.393444"><ele>7.666666666666666</ele><time>2026-05-03T15:36:58.156Z</time></trkpt><trkpt lat="44.1816043" lon="8.3932069"><ele>7.333333333333334</ele><time>2026-05-03T15:36:59.156Z</time></trkpt><trkpt lat="44.1816016" lon="8.3929663"><ele>7.0</ele><time>2026-05-03T15:37:00.156Z</time></trkpt><trkpt lat="44.1815983" lon="8.3927298"><ele>6.666666666666667</ele><time>2026-05-03T15:37:01.157Z</time></trkpt><trkpt lat="44.1815963" lon="8.392498"><ele>6.333333333333334</ele><time>2026-05-03T15:37:02.157Z</time></trkpt><trkpt lat="44.1815941" lon="8.3922631"><ele>6.0</ele><time>2026-05-03T15:37:03.156Z</time></trkpt><trkpt lat="44.1815925" lon="8.3920304"><ele>6.666666666666666</ele><time>2026-05-03T15:37:04.156Z</time></trkpt><trkpt lat="44.1815879" lon="8.3918065"><ele>7.333333333333333</ele><time>2026-05-03T15:37:05.156Z</time></trkpt><trkpt lat="44.1815841" lon="8.3915889"><ele>8.0</ele><time>2026-05-03T15:37:06.157Z</time></trkpt><trkpt lat="44.1815818" lon="8.3913726"><ele>8.0</ele><time>2026-05-03T15:37:07.157Z</time></trkpt><trkpt lat="44.181577" lon="8.3911544"><ele>8.0</ele><time>2026-05-03T15:37:08.156Z</time></trkpt><trkpt lat="44.1815734" lon="8.3909341"><ele>8.0</ele><time>2026-05-03T15:37:09.156Z</time></trkpt><trkpt lat="44.1815709" lon="8.3907131"><ele>8.666666666666666</ele><time>2026-05-03T15:37:10.156Z</time></trkpt><trkpt lat="44.1815697" lon="8.3904876"><ele>9.333333333333334</ele><time>2026-05-03T15:37:11.157Z</time></trkpt><trkpt lat="44.1815687" lon="8.3902557"><ele>10.0</ele><time>2026-05-03T15:37:12.156Z</time></trkpt><trkpt lat="44.1815639" lon="8.3900233"><ele>10.0</ele><time>2026-05-03T15:37:13.156Z</time></trkpt><trkpt lat="44.1815588" lon="8.389791"><ele>10.0</ele><time>2026-05-03T15:37:14.156Z</time></trkpt><trkpt lat="44.1815545" lon="8.3895588"><ele>10.0</ele><time>2026-05-03T15:37:15.156Z</time></trkpt><trkpt lat="44.1815511" lon="8.3893257"><ele>10.0</ele><time>2026-05-03T15:37:16.156Z</time></trkpt><trkpt lat="44.1815495" lon="8.3890876"><ele>10.0</ele><time>2026-05-03T15:37:17.156Z</time></trkpt><trkpt lat="44.1815482" lon="8.388845"><ele>10.0</ele><time>2026-05-03T15:37:18.156Z</time></trkpt><trkpt lat="44.181544" lon="8.3886004"><ele>9.666666666666668</ele><time>2026-05-03T15:37:19.156Z</time></trkpt><trkpt lat="44.1815397" lon="8.3883548"><ele>9.333333333333334</ele><time>2026-05-03T15:37:20.156Z</time></trkpt><trkpt lat="44.1815354" lon="8.3881105"><ele>9.0</ele><time>2026-05-03T15:37:21.157Z</time></trkpt><trkpt lat="44.1815298" lon="8.3878666"><ele>9.0</ele><time>2026-05-03T15:37:22.156Z</time></trkpt><trkpt lat="44.1815242" lon="8.3876227"><ele>9.0</ele><time>2026-05-03T15:37:23.156Z</time></trkpt><trkpt lat="44.181519" lon="8.3873825"><ele>9.0</ele><time>2026-05-03T15:37:24.156Z</time></trkpt><trkpt lat="44.1815135" lon="8.3871409"><ele>7.666666666666667</ele><time>2026-05-03T15:37:25.156Z</time></trkpt><trkpt lat="44.1814981" lon="8.3868983"><ele>6.333333333333334</ele><time>2026-05-03T15:37:26.156Z</time></trkpt><trkpt lat="44.1814588" lon="8.3866582"><ele>5.0</ele><time>2026-05-03T15:37:27.157Z</time></trkpt><trkpt lat="44.181395" lon="8.3864248"><ele>5.666666666666667</ele><time>2026-05-03T15:37:28.156Z</time></trkpt><trkpt lat="44.1813206" lon="8.3861961"><ele>6.333333333333334</ele><time>2026-05-03T15:37:29.156Z</time></trkpt><trkpt lat="44.181243" lon="8.3859647"><ele>7.0</ele><time>2026-05-03T15:37:30.156Z</time></trkpt><trkpt lat="44.1811668" lon="8.3857261"><ele>7.666666666666667</ele><time>2026-05-03T15:37:31.156Z</time></trkpt><trkpt lat="44.1810996" lon="8.3854773"><ele>8.333333333333334</ele><time>2026-05-03T15:37:32.156Z</time></trkpt><trkpt lat="44.1810493" lon="8.3852159"><ele>9.0</ele><time>2026-05-03T15:37:33.156Z</time></trkpt><trkpt lat="44.1810145" lon="8.3849441"><ele>9.666666666666666</ele><time>2026-05-03T15:37:34.156Z</time></trkpt><trkpt lat="44.1809846" lon="8.3846694"><ele>10.333333333333332</ele><time>2026-05-03T15:37:35.156Z</time></trkpt><trkpt lat="44.1809597" lon="8.3843883"><ele>11.0</ele><time>2026-05-03T15:37:36.157Z</time></trkpt><trkpt lat="44.1809337" lon="8.3841061"><ele>13.333333333333332</ele><time>2026-05-03T15:37:37.156Z</time></trkpt><trkpt lat="44.1809039" lon="8.3838191"><ele>15.666666666666666</ele><time>2026-05-03T15:37:38.156Z</time></trkpt><trkpt lat="44.180858" lon="8.3835374"><ele>18.0</ele><time>2026-05-03T15:37:39.157Z</time></trkpt><trkpt lat="44.1807855" lon="8.3832699"><ele>18.0</ele><time>2026-05-03T15:37:40.156Z</time></trkpt><trkpt lat="44.1806864" lon="8.3830234"><ele>18.0</ele><time>2026-05-03T15:37:41.156Z</time></trkpt><trkpt lat="44.1805702" lon="8.3827965"><ele>18.0</ele><time>2026-05-03T15:37:42.156Z</time></trkpt><trkpt lat="44.1804496" lon="8.3825765"><ele>16.0</ele><time>2026-05-03T15:37:43.156Z</time></trkpt><trkpt lat="44.1803355" lon="8.38235"><ele>14.0</ele><time>2026-05-03T15:37:44.156Z</time></trkpt><trkpt lat="44.1802359" lon="8.3821071"><ele>12.0</ele><time>2026-05-03T15:37:45.157Z</time></trkpt><trkpt lat="44.1801524" lon="8.3818462"><ele>12.0</ele><time>2026-05-03T15:37:46.157Z</time></trkpt><trkpt lat="44.1800823" lon="8.3815658"><ele>12.0</ele><time>2026-05-03T15:37:47.157Z</time></trkpt><trkpt lat="44.1800232" lon="8.3812762"><ele>12.0</ele><time>2026-05-03T15:37:48.156Z</time></trkpt><trkpt lat="44.1799693" lon="8.3809802"><ele>14.0</ele><time>2026-05-03T15:37:49.156Z</time></trkpt><trkpt lat="44.1799123" lon="8.3806812"><ele>16.0</ele><time>2026-05-03T15:37:50.157Z</time></trkpt><trkpt lat="44.1798506" lon="8.3803793"><ele>18.0</ele><time>2026-05-03T15:37:51.156Z</time></trkpt><trkpt lat="44.1797888" lon="8.3800775"><ele>13.0</ele><time>2026-05-03T15:37:52.156Z</time></trkpt><trkpt lat="44.1797256" lon="8.3797738"><ele>8.0</ele><time>2026-05-03T15:37:53.156Z</time></trkpt><trkpt lat="44.1796644" lon="8.3794696"><ele>8.0</ele><time>2026-05-03T15:37:54.156Z</time></trkpt><trkpt lat="44.1796025" lon="8.3791612"><ele>8.0</ele><time>2026-05-03T15:37:55.156Z</time></trkpt><trkpt lat="44.179539" lon="8.3788533"><ele>9.5</ele><time>2026-05-03T15:37:56.156Z</time></trkpt><trkpt lat="44.1794748" lon="8.3785445"><ele>11.0</ele><time>2026-05-03T15:37:57.156Z</time></trkpt><trkpt lat="44.1794143" lon="8.3782338"><ele>12.5</ele><time>2026-05-03T15:37:58.156Z</time></trkpt><trkpt lat="44.1793562" lon="8.3779251"><ele>14.0</ele><time>2026-05-03T15:37:59.156Z</time></trkpt><trkpt lat="44.1792986" lon="8.3776257"><ele>14.0</ele><time>2026-05-03T15:38:00.156Z</time></trkpt><trkpt lat="44.1792456" lon="8.377334"><ele>14.0</ele><time>2026-05-03T15:38:01.156Z</time></trkpt><trkpt lat="44.1791904" lon="8.3770464"><ele>14.0</ele><time>2026-05-03T15:38:02.157Z</time></trkpt><trkpt lat="44.1791331" lon="8.3767632"><ele>16.0</ele><time>2026-05-03T15:38:03.157Z</time></trkpt><trkpt lat="44.1790684" lon="8.3764846"><ele>18.0</ele><time>2026-05-03T15:38:04.156Z</time></trkpt><trkpt lat="44.1790013" lon="8.3762036"><ele>20.0</ele><time>2026-05-03T15:38:05.156Z</time></trkpt><trkpt lat="44.178936" lon="8.3759271"><ele>15.333333333333334</ele><time>2026-05-03T15:38:06.156Z</time></trkpt><trkpt lat="44.1788802" lon="8.3756623"><ele>10.666666666666668</ele><time>2026-05-03T15:38:07.156Z</time></trkpt><trkpt lat="44.1788375" lon="8.3753984"><ele>6.0</ele><time>2026-05-03T15:38:08.156Z</time></trkpt><trkpt lat="44.178801" lon="8.3751195"><ele>6.0</ele><time>2026-05-03T15:38:09.156Z</time></trkpt><trkpt lat="44.1787656" lon="8.3748342"><ele>6.0</ele><time>2026-05-03T15:38:10.156Z</time></trkpt><trkpt lat="44.1787277" lon="8.3745442"><ele>6.0</ele><time>2026-05-03T15:38:11.156Z</time></trkpt><trkpt lat="44.1786864" lon="8.3742532"><ele>7.0</ele><time>2026-05-03T15:38:12.156Z</time></trkpt><trkpt lat="44.1786372" lon="8.3739614"><ele>8.0</ele><time>2026-05-03T15:38:13.156Z</time></trkpt><trkpt lat="44.1785802" lon="8.3736722"><ele>9.0</ele><time>2026-05-03T15:38:14.156Z</time></trkpt><trkpt lat="44.1785194" lon="8.3733837"><ele>9.0</ele><time>2026-05-03T15:38:15.156Z</time></trkpt><trkpt lat="44.1784549" lon="8.3730972"><ele>9.0</ele><time>2026-05-03T15:38:16.156Z</time></trkpt><trkpt lat="44.1783901" lon="8.3728143"><ele>9.0</ele><time>2026-05-03T15:38:17.156Z</time></trkpt><trkpt lat="44.1783268" lon="8.3725366"><ele>10.666666666666668</ele><time>2026-05-03T15:38:18.156Z</time></trkpt><trkpt lat="44.1782642" lon="8.3722609"><ele>12.333333333333334</ele><time>2026-05-03T15:38:19.156Z</time></trkpt><trkpt lat="44.1782002" lon="8.3719902"><ele>14.0</ele><time>2026-05-03T15:38:20.156Z</time></trkpt><trkpt lat="44.1781345" lon="8.3717198"><ele>11.0</ele><time>2026-05-03T15:38:21.156Z</time></trkpt><trkpt lat="44.1780681" lon="8.371462"><ele>8.0</ele><time>2026-05-03T15:38:22.156Z</time></trkpt><trkpt lat="44.1779954" lon="8.3712206"><ele>5.0</ele><time>2026-05-03T15:38:23.156Z</time></trkpt><trkpt lat="44.1779118" lon="8.3709824"><ele>5.0</ele><time>2026-05-03T15:38:24.156Z</time></trkpt><trkpt lat="44.1778248" lon="8.370745"><ele>5.0</ele><time>2026-05-03T15:38:25.156Z</time></trkpt><trkpt lat="44.1777333" lon="8.3705239"><ele>5.0</ele><time>2026-05-03T15:38:26.156Z</time></trkpt><trkpt lat="44.1776361" lon="8.3703273"><ele>4.333333333333334</ele><time>2026-05-03T15:38:27.156Z</time></trkpt><trkpt lat="44.1775336" lon="8.3701522"><ele>3.666666666666667</ele><time>2026-05-03T15:38:28.157Z</time></trkpt><trkpt lat="44.1774269" lon="8.3700049"><ele>3.0</ele><time>2026-05-03T15:38:29.156Z</time></trkpt><trkpt lat="44.17732" lon="8.3698845"><ele>3.0</ele><time>2026-05-03T15:38:30.156Z</time></trkpt><trkpt lat="44.1772188" lon="8.3697881"><ele>3.0</ele><time>2026-05-03T15:38:31.156Z</time></trkpt><trkpt lat="44.1771204" lon="8.3697019"><ele>3.0</ele><time>2026-05-03T15:38:32.156Z</time></trkpt><trkpt lat="44.1770233" lon="8.3696221"><ele>3.0</ele><time>2026-05-03T15:38:33.156Z</time></trkpt><trkpt lat="44.1769222" lon="8.3695453"><ele>3.0</ele><time>2026-05-03T15:38:34.156Z</time></trkpt><trkpt lat="44.1768109" lon="8.3694694"><ele>3.0</ele><time>2026-05-03T15:38:35.156Z</time></trkpt><trkpt lat="44.1766836" lon="8.3693881"><ele>3.0</ele><time>2026-05-03T15:38:36.156Z</time></trkpt><trkpt lat="44.1765458" lon="8.3692787"><ele>3.0</ele><time>2026-05-03T15:38:37.156Z</time></trkpt><trkpt lat="44.1764129" lon="8.3691294"><ele>3.0</ele><time>2026-05-03T15:38:38.156Z</time></trkpt><trkpt lat="44.1762939" lon="8.3689625"><ele>3.0</ele><time>2026-05-03T15:38:39.156Z</time></trkpt><trkpt lat="44.1761786" lon="8.3688119"><ele>3.0</ele><time>2026-05-03T15:38:40.157Z</time></trkpt><trkpt lat="44.1760466" lon="8.3686944"><ele>6.0</ele><time>2026-05-03T15:38:41.156Z</time></trkpt><trkpt lat="44.1758901" lon="8.3686236"><ele>9.0</ele><time>2026-05-03T15:38:42.156Z</time></trkpt><trkpt lat="44.1757164" lon="8.368598"><ele>12.0</ele><time>2026-05-03T15:38:43.156Z</time></trkpt><trkpt lat="44.1755417" lon="8.3685902"><ele>12.0</ele><time>2026-05-03T15:38:44.156Z</time></trkpt><trkpt lat="44.175379" lon="8.3685658"><ele>12.0</ele><time>2026-05-03T15:38:45.156Z</time></trkpt><trkpt lat="44.1752265" lon="8.3685158"><ele>12.0</ele><time>2026-05-03T15:38:46.157Z</time></trkpt><trkpt lat="44.1750864" lon="8.36843"><ele>12.0</ele><time>2026-05-03T15:38:47.156Z</time></trkpt><trkpt lat="44.1749633" lon="8.3683091"><ele>12.0</ele><time>2026-05-03T15:38:48.157Z</time></trkpt><trkpt lat="44.1748398" lon="8.3681612"><ele>12.0</ele><time>2026-05-03T15:38:49.156Z</time></trkpt><trkpt lat="44.1747085" lon="8.3680097"><ele>14.0</ele><time>2026-05-03T15:38:50.156Z</time></trkpt><trkpt lat="44.1745733" lon="8.3678508"><ele>16.0</ele><time>2026-05-03T15:38:51.156Z</time></trkpt><trkpt lat="44.1744401" lon="8.3676912"><ele>18.0</ele><time>2026-05-03T15:38:52.156Z</time></trkpt><trkpt lat="44.1743126" lon="8.3675272"><ele>18.0</ele><time>2026-05-03T15:38:53.156Z</time></trkpt><trkpt lat="44.1742016" lon="8.3673461"><ele>18.0</ele><time>2026-05-03T15:38:54.156Z</time></trkpt><trkpt lat="44.1741052" lon="8.3671459"><ele>18.0</ele><time>2026-05-03T15:38:55.156Z</time></trkpt><trkpt lat="44.1740143" lon="8.3669393"><ele>15.333333333333334</ele><time>2026-05-03T15:38:56.156Z</time></trkpt><trkpt lat="44.1739212" lon="8.3667353"><ele>12.666666666666668</ele><time>2026-05-03T15:38:57.156Z</time></trkpt><trkpt lat="44.1738259" lon="8.3665255"><ele>10.0</ele><time>2026-05-03T15:38:58.156Z</time></trkpt><trkpt lat="44.1737316" lon="8.3663193"><ele>10.0</ele><time>2026-05-03T15:38:59.156Z</time></trkpt><trkpt lat="44.1736641" lon="8.3660888"><ele>10.0</ele><time>2026-05-03T15:39:00.156Z</time></trkpt><trkpt lat="44.1736129" lon="8.36585"><ele>10.0</ele><time>2026-05-03T15:39:01.156Z</time></trkpt><trkpt lat="44.1735387" lon="8.3656445"><ele>12.666666666666668</ele><time>2026-05-03T15:39:02.157Z</time></trkpt><trkpt lat="44.173475" lon="8.3654446"><ele>15.333333333333334</ele><time>2026-05-03T15:39:03.156Z</time></trkpt><trkpt lat="44.1734369" lon="8.3652344"><ele>18.0</ele><time>2026-05-03T15:39:04.157Z</time></trkpt><trkpt lat="44.1734022" lon="8.3650006"><ele>18.0</ele><time>2026-05-03T15:39:05.156Z</time></trkpt><trkpt lat="44.1733666" lon="8.3647598"><ele>18.0</ele><time>2026-05-03T15:39:06.156Z</time></trkpt><trkpt lat="44.1733312" lon="8.3645163"><ele>18.0</ele><time>2026-05-03T15:39:07.156Z</time></trkpt><trkpt lat="44.1732944" lon="8.3642706"><ele>14.333333333333334</ele><time>2026-05-03T15:39:08.156Z</time></trkpt><trkpt lat="44.1732537" lon="8.3640223"><ele>10.666666666666668</ele><time>2026-05-03T15:39:09.156Z</time></trkpt><trkpt lat="44.1732114" lon="8.3637675"><ele>7.0</ele><time>2026-05-03T15:39:10.156Z</time></trkpt><trkpt lat="44.1731675" lon="8.3635184"><ele>7.0</ele><time>2026-05-03T15:39:11.156Z</time></trkpt><trkpt lat="44.1731225" lon="8.3632715"><ele>7.0</ele><time>2026-05-03T15:39:12.156Z</time></trkpt><trkpt lat="44.1730784" lon="8.3630322"><ele>7.0</ele><time>2026-05-03T15:39:13.156Z</time></trkpt><trkpt lat="44.1730351" lon="8.3627992"><ele>8.333333333333334</ele><time>2026-05-03T15:39:14.156Z</time></trkpt><trkpt lat="44.172985" lon="8.3625673"><ele>9.666666666666666</ele><time>2026-05-03T15:39:15.158Z</time></trkpt><trkpt lat="44.1729355" lon="8.3623435"><ele>11.0</ele><time>2026-05-03T15:39:16.156Z</time></trkpt><trkpt lat="44.1728805" lon="8.3621246"><ele>14.333333333333332</ele><time>2026-05-03T15:39:17.157Z</time></trkpt><trkpt lat="44.1728246" lon="8.3619021"><ele>17.666666666666668</ele><time>2026-05-03T15:39:18.156Z</time></trkpt><trkpt lat="44.1727652" lon="8.3616788"><ele>21.0</ele><time>2026-05-03T15:39:19.156Z</time></trkpt><trkpt lat="44.1727096" lon="8.3614572"><ele>22.666666666666664</ele><time>2026-05-03T15:39:20.156Z</time></trkpt><trkpt lat="44.1726539" lon="8.3612452"><ele>24.333333333333332</ele><time>2026-05-03T15:39:21.156Z</time></trkpt><trkpt lat="44.1725984" lon="8.3610376"><ele>26.0</ele><time>2026-05-03T15:39:22.156Z</time></trkpt><trkpt lat="44.1725426" lon="8.3608302"><ele>26.0</ele><time>2026-05-03T15:39:23.156Z</time></trkpt><trkpt lat="44.1724881" lon="8.3606202"><ele>26.0</ele><time>2026-05-03T15:39:24.157Z</time></trkpt><trkpt lat="44.1724422" lon="8.3604206"><ele>26.0</ele><time>2026-05-03T15:39:25.156Z</time></trkpt><trkpt lat="44.1724105" lon="8.3602285"><ele>25.25</ele><time>2026-05-03T15:39:26.156Z</time></trkpt><trkpt lat="44.1723756" lon="8.3600395"><ele>24.5</ele><time>2026-05-03T15:39:27.157Z</time></trkpt><trkpt lat="44.1723385" lon="8.3598569"><ele>23.75</ele><time>2026-05-03T15:39:28.156Z</time></trkpt><trkpt lat="44.1723006" lon="8.3596831"><ele>23.0</ele><time>2026-05-03T15:39:29.156Z</time></trkpt><trkpt lat="44.1722682" lon="8.359517"><ele>19.5</ele><time>2026-05-03T15:39:30.156Z</time></trkpt><trkpt lat="44.1722558" lon="8.3593868"><ele>16.0</ele><time>2026-05-03T15:39:31.156Z</time></trkpt><trkpt lat="44.1722613" lon="8.3592754"><ele>12.5</ele><time>2026-05-03T15:39:32.156Z</time></trkpt><trkpt lat="44.1722797" lon="8.3591791"><ele>9.0</ele><time>2026-05-03T15:39:33.156Z</time></trkpt><trkpt lat="44.172352" lon="8.3590787"><ele>5.5</ele><time>2026-05-03T15:39:35.156Z</time></trkpt><trkpt lat="44.1723517" lon="8.3589803"><ele>2.0</ele><time>2026-05-03T15:39:37.157Z</time></trkpt><trkpt lat="44.1722443" lon="8.3589036"><ele>2.0</ele><time>2026-05-03T15:39:39.156Z</time></trkpt><trkpt lat="44.1721715" lon="8.3588491"><ele>2.0</ele><time>2026-05-03T15:39:40.156Z</time></trkpt><trkpt lat="44.1721237" lon="8.3587324"><ele>2.0</ele><time>2026-05-03T15:39:41.156Z</time></trkpt><trkpt lat="44.1720955" lon="8.3585828"><ele>2.0</ele><time>2026-05-03T15:39:42.157Z</time></trkpt><trkpt lat="44.1720699" lon="8.3584365"><ele>2.0</ele><time>2026-05-03T15:39:43.157Z</time></trkpt><trkpt lat="44.172043" lon="8.358284"><ele>2.0</ele><time>2026-05-03T15:39:44.156Z</time></trkpt><trkpt lat="44.172013" lon="8.3581275"><ele>2.0</ele><time>2026-05-03T15:39:45.156Z</time></trkpt><trkpt lat="44.17198" lon="8.3579685"><ele>2.0</ele><time>2026-05-03T15:39:46.157Z</time></trkpt><trkpt lat="44.1719454" lon="8.357807"><ele>2.0</ele><time>2026-05-03T15:39:47.156Z</time></trkpt><trkpt lat="44.1719139" lon="8.3576442"><ele>2.25</ele><time>2026-05-03T15:39:48.156Z</time></trkpt><trkpt lat="44.1718796" lon="8.3574845"><ele>2.5</ele><time>2026-05-03T15:39:49.156Z</time></trkpt><trkpt lat="44.171846" lon="8.3573318"><ele>2.75</ele><time>2026-05-03T15:39:50.156Z</time></trkpt><trkpt lat="44.1718128" lon="8.3571904"><ele>3.0</ele><time>2026-05-03T15:39:51.156Z</time></trkpt><trkpt lat="44.171783" lon="8.3570337"><ele>3.4</ele><time>2026-05-03T15:39:52.156Z</time></trkpt><trkpt lat="44.1717549" lon="8.3568824"><ele>3.8</ele><time>2026-05-03T15:39:53.157Z</time></trkpt><trkpt lat="44.1717276" lon="8.3567368"><ele>4.2</ele><time>2026-05-03T15:39:54.156Z</time></trkpt><trkpt lat="44.171702" lon="8.3565883"><ele>4.6</ele><time>2026-05-03T15:39:55.156Z</time></trkpt><trkpt lat="44.1716743" lon="8.3564397"><ele>5.0</ele><time>2026-05-03T15:39:56.157Z</time></trkpt><trkpt lat="44.1716478" lon="8.3562876"><ele>4.6</ele><time>2026-05-03T15:39:57.156Z</time></trkpt><trkpt lat="44.1716203" lon="8.3561495"><ele>4.2</ele><time>2026-05-03T15:39:58.156Z</time></trkpt><trkpt lat="44.1715956" lon="8.3560229"><ele>3.8</ele><time>2026-05-03T15:39:59.156Z</time></trkpt><trkpt lat="44.171569" lon="8.3559058"><ele>3.4</ele><time>2026-05-03T15:40:00.157Z</time></trkpt><trkpt lat="44.1715423" lon="8.3557837"><ele>3.0</ele><time>2026-05-03T15:40:01.156Z</time></trkpt><trkpt lat="44.171515" lon="8.3556571"><ele>3.5999999999999996</ele><time>2026-05-03T15:40:02.156Z</time></trkpt><trkpt lat="44.171487" lon="8.3555156"><ele>4.199999999999999</ele><time>2026-05-03T15:40:03.156Z</time></trkpt><trkpt lat="44.1714558" lon="8.3553638"><ele>4.8</ele><time>2026-05-03T15:40:04.156Z</time></trkpt><trkpt lat="44.1714288" lon="8.3552095"><ele>5.3999999999999995</ele><time>2026-05-03T15:40:05.156Z</time></trkpt><trkpt lat="44.1714004" lon="8.3550576"><ele>6.0</ele><time>2026-05-03T15:40:06.156Z</time></trkpt><trkpt lat="44.1713767" lon="8.3549173"><ele>6.0</ele><time>2026-05-03T15:40:07.156Z</time></trkpt><trkpt lat="44.1713506" lon="8.3547872"><ele>6.0</ele><time>2026-05-03T15:40:08.156Z</time></trkpt><trkpt lat="44.1713267" lon="8.3546627"><ele>6.0</ele><time>2026-05-03T15:40:09.156Z</time></trkpt><trkpt lat="44.1713031" lon="8.3545471"><ele>6.0</ele><time>2026-05-03T15:40:10.156Z</time></trkpt><trkpt lat="44.1712828" lon="8.3544326"><ele>6.0</ele><time>2026-05-03T15:40:11.157Z</time></trkpt><trkpt lat="44.1712598" lon="8.3543315"><ele>6.0</ele><time>2026-05-03T15:40:12.156Z</time></trkpt><trkpt lat="44.1712395" lon="8.3542309"><ele>6.0</ele><time>2026-05-03T15:40:13.156Z</time></trkpt><trkpt lat="44.1712137" lon="8.3540841"><ele>6.0</ele><time>2026-05-03T15:40:15.156Z</time></trkpt><trkpt lat="44.1712014" lon="8.3539475"><ele>6.0</ele><time>2026-05-03T15:40:17.157Z</time></trkpt><trkpt lat="44.1711711" lon="8.3537846"><ele>6.0</ele><time>2026-05-03T15:40:19.156Z</time></trkpt><trkpt lat="44.171143" lon="8.3536757"><ele>6.0</ele><time>2026-05-03T15:40:20.157Z</time></trkpt><trkpt lat="44.1711213" lon="8.3535501"><ele>6.4</ele><time>2026-05-03T15:40:21.156Z</time></trkpt><trkpt lat="44.1710835" lon="8.3534024"><ele>6.8</ele><time>2026-05-03T15:40:22.157Z</time></trkpt><trkpt lat="44.1710521" lon="8.3532601"><ele>7.200000000000001</ele><time>2026-05-03T15:40:23.156Z</time></trkpt><trkpt lat="44.1710309" lon="8.3531407"><ele>7.6000000000000005</ele><time>2026-05-03T15:40:24.156Z</time></trkpt><trkpt lat="44.1710137" lon="8.3530279"><ele>8.0</ele><time>2026-05-03T15:40:25.156Z</time></trkpt><trkpt lat="44.1709913" lon="8.3529254"><ele>7.999999999999999</ele><time>2026-05-03T15:40:26.156Z</time></trkpt><trkpt lat="44.1709617" lon="8.3528361"><ele>8.0</ele><time>2026-05-03T15:40:27.156Z</time></trkpt><trkpt lat="44.1709302" lon="8.3527519"><ele>8.0</ele><time>2026-05-03T15:40:28.157Z</time></trkpt><trkpt lat="44.1708949" lon="8.3526555"><ele>8.0</ele><time>2026-05-03T15:40:29.156Z</time></trkpt><trkpt lat="44.1708579" lon="8.3525447"><ele>7.999999999999999</ele><time>2026-05-03T15:40:30.156Z</time></trkpt><trkpt lat="44.1708202" lon="8.3524334"><ele>8.0</ele><time>2026-05-03T15:40:31.156Z</time></trkpt><trkpt lat="44.1707856" lon="8.3523346"><ele>8.0</ele><time>2026-05-03T15:40:32.156Z</time></trkpt><trkpt lat="44.1707595" lon="8.3522491"><ele>8.0</ele><time>2026-05-03T15:40:33.156Z</time></trkpt><trkpt lat="44.1707178" lon="8.3520832"><ele>8.0</ele><time>2026-05-03T15:40:35.156Z</time></trkpt><trkpt lat="44.1706943" lon="8.3519708"><ele>8.0</ele><time>2026-05-03T15:40:36.157Z</time></trkpt><trkpt lat="44.1706641" lon="8.3518382"><ele>8.0</ele><time>2026-05-03T15:40:37.156Z</time></trkpt><trkpt lat="44.1706311" lon="8.3516894"><ele>7.2</ele><time>2026-05-03T15:40:38.156Z</time></trkpt><trkpt lat="44.1705941" lon="8.3515343"><ele>6.4</ele><time>2026-05-03T15:40:39.156Z</time></trkpt><trkpt lat="44.170559" lon="8.3513831"><ele>5.6000000000000005</ele><time>2026-05-03T15:40:40.156Z</time></trkpt><trkpt lat="44.1705276" lon="8.3512417"><ele>4.800000000000001</ele><time>2026-05-03T15:40:41.156Z</time></trkpt><trkpt lat="44.1704992" lon="8.3511076"><ele>4.0</ele><time>2026-05-03T15:40:42.156Z</time></trkpt><trkpt lat="44.1704741" lon="8.3509756"><ele>4.0</ele><time>2026-05-03T15:40:43.157Z</time></trkpt><trkpt lat="44.1704598" lon="8.350846"><ele>4.0</ele><time>2026-05-03T15:40:44.156Z</time></trkpt><trkpt lat="44.1704531" lon="8.3507153"><ele>4.0</ele><time>2026-05-03T15:40:45.156Z</time></trkpt><trkpt lat="44.1704495" lon="8.3505814"><ele>4.0</ele><time>2026-05-03T15:40:46.156Z</time></trkpt><trkpt lat="44.1704403" lon="8.3504459"><ele>4.0</ele><time>2026-05-03T15:40:47.156Z</time></trkpt><trkpt lat="44.1704232" lon="8.3503151"><ele>4.333333333333333</ele><time>2026-05-03T15:40:48.156Z</time></trkpt><trkpt lat="44.1704002" lon="8.3501897"><ele>4.666666666666666</ele><time>2026-05-03T15:40:49.157Z</time></trkpt><trkpt lat="44.1703721" lon="8.3500781"><ele>5.0</ele><time>2026-05-03T15:40:50.156Z</time></trkpt><trkpt lat="44.1703488" lon="8.3499744"><ele>5.333333333333333</ele><time>2026-05-03T15:40:51.156Z</time></trkpt><trkpt lat="44.1703396" lon="8.3498631"><ele>5.666666666666667</ele><time>2026-05-03T15:40:52.156Z</time></trkpt><trkpt lat="44.1703528" lon="8.3497523"><ele>6.0</ele><time>2026-05-03T15:40:53.156Z</time></trkpt><trkpt lat="44.1703877" lon="8.3496373"><ele>6.8</ele><time>2026-05-03T15:40:54.156Z</time></trkpt><trkpt lat="44.1704333" lon="8.3495148"><ele>7.6</ele><time>2026-05-03T15:40:55.156Z</time></trkpt><trkpt lat="44.1704895" lon="8.3493797"><ele>8.4</ele><time>2026-05-03T15:40:56.156Z</time></trkpt><trkpt lat="44.1705475" lon="8.3492428"><ele>9.2</ele><time>2026-05-03T15:40:57.156Z</time></trkpt><trkpt lat="44.1706021" lon="8.3491119"><ele>10.0</ele><time>2026-05-03T15:40:58.156Z</time></trkpt><trkpt lat="44.1706528" lon="8.3489879"><ele>10.6</ele><time>2026-05-03T15:40:59.156Z</time></trkpt><trkpt lat="44.1706891" lon="8.3488632"><ele>11.2</ele><time>2026-05-03T15:41:00.156Z</time></trkpt><trkpt lat="44.1707109" lon="8.3487358"><ele>11.8</ele><time>2026-05-03T15:41:01.156Z</time></trkpt><trkpt lat="44.1707164" lon="8.3486013"><ele>12.4</ele><time>2026-05-03T15:41:02.157Z</time></trkpt><trkpt lat="44.170715" lon="8.3484664"><ele>13.0</ele><time>2026-05-03T15:41:03.156Z</time></trkpt><trkpt lat="44.170707" lon="8.348326"><ele>13.0</ele><time>2026-05-03T15:41:04.156Z</time></trkpt><trkpt lat="44.1706923" lon="8.34817"><ele>13.0</ele><time>2026-05-03T15:41:05.157Z</time></trkpt><trkpt lat="44.1706726" lon="8.3480002"><ele>13.0</ele><time>2026-05-03T15:41:06.156Z</time></trkpt><trkpt lat="44.1706565" lon="8.3478142"><ele>13.0</ele><time>2026-05-03T15:41:07.156Z</time></trkpt><trkpt lat="44.1706472" lon="8.3476203"><ele>13.0</ele><time>2026-05-03T15:41:08.157Z</time></trkpt><trkpt lat="44.1706401" lon="8.3474334"><ele>13.0</ele><time>2026-05-03T15:41:09.156Z</time></trkpt><trkpt lat="44.1706325" lon="8.3472572"><ele>13.0</ele><time>2026-05-03T15:41:10.156Z</time></trkpt><trkpt lat="44.1706278" lon="8.347099"><ele>13.0</ele><time>2026-05-03T15:41:11.157Z</time></trkpt><trkpt lat="44.1706263" lon="8.3469561"><ele>12.8</ele><time>2026-05-03T15:41:12.156Z</time></trkpt><trkpt lat="44.1706247" lon="8.3468248"><ele>12.600000000000001</ele><time>2026-05-03T15:41:13.156Z</time></trkpt><trkpt lat="44.1706266" lon="8.3467036"><ele>12.399999999999999</ele><time>2026-05-03T15:41:14.156Z</time></trkpt><trkpt lat="44.1706347" lon="8.3465824"><ele>12.2</ele><time>2026-05-03T15:41:15.156Z</time></trkpt><trkpt lat="44.1706508" lon="8.3464551"><ele>12.0</ele><time>2026-05-03T15:41:16.156Z</time></trkpt><trkpt lat="44.170667" lon="8.3463241"><ele>12.0</ele><time>2026-05-03T15:41:17.156Z</time></trkpt><trkpt lat="44.1706783" lon="8.3461986"><ele>12.0</ele><time>2026-05-03T15:41:18.156Z</time></trkpt><trkpt lat="44.1706861" lon="8.3460746"><ele>12.0</ele><time>2026-05-03T15:41:19.156Z</time></trkpt><trkpt lat="44.1706866" lon="8.3459438"><ele>12.0</ele><time>2026-05-03T15:41:20.156Z</time></trkpt><trkpt lat="44.1706775" lon="8.3458076"><ele>12.0</ele><time>2026-05-03T15:41:21.156Z</time></trkpt><trkpt lat="44.1706565" lon="8.3456726"><ele>12.2</ele><time>2026-05-03T15:41:22.156Z</time></trkpt><trkpt lat="44.1706292" lon="8.3455429"><ele>12.399999999999999</ele><time>2026-05-03T15:41:23.157Z</time></trkpt><trkpt lat="44.1706054" lon="8.3454146"><ele>12.600000000000001</ele><time>2026-05-03T15:41:24.157Z</time></trkpt><trkpt lat="44.1705865" lon="8.3452829"><ele>12.8</ele><time>2026-05-03T15:41:25.156Z</time></trkpt><trkpt lat="44.1705734" lon="8.3451465"><ele>13.0</ele><time>2026-05-03T15:41:26.156Z</time></trkpt><trkpt lat="44.170566" lon="8.3450101"><ele>13.0</ele><time>2026-05-03T15:41:27.157Z</time></trkpt><trkpt lat="44.1705589" lon="8.3448733"><ele>13.0</ele><time>2026-05-03T15:41:28.156Z</time></trkpt><trkpt lat="44.1705437" lon="8.3447397"><ele>13.0</ele><time>2026-05-03T15:41:29.156Z</time></trkpt><trkpt lat="44.1705154" lon="8.3446118"><ele>13.0</ele><time>2026-05-03T15:41:30.156Z</time></trkpt><trkpt lat="44.1704765" lon="8.3444959"><ele>13.0</ele><time>2026-05-03T15:41:31.156Z</time></trkpt><trkpt lat="44.1704251" lon="8.3443881"><ele>13.0</ele><time>2026-05-03T15:41:32.156Z</time></trkpt><trkpt lat="44.1703665" lon="8.3442696"><ele>13.0</ele><time>2026-05-03T15:41:33.156Z</time></trkpt><trkpt lat="44.1703022" lon="8.3441363"><ele>13.0</ele><time>2026-05-03T15:41:34.156Z</time></trkpt><trkpt lat="44.1702363" lon="8.3440011"><ele>13.0</ele><time>2026-05-03T15:41:35.156Z</time></trkpt><trkpt lat="44.1701763" lon="8.3438721"><ele>13.0</ele><time>2026-05-03T15:41:36.156Z</time></trkpt><trkpt lat="44.1701217" lon="8.3437512"><ele>13.4</ele><time>2026-05-03T15:41:37.156Z</time></trkpt><trkpt lat="44.17007" lon="8.3436368"><ele>13.8</ele><time>2026-05-03T15:41:38.157Z</time></trkpt><trkpt lat="44.1700206" lon="8.3435277"><ele>14.2</ele><time>2026-05-03T15:41:39.156Z</time></trkpt><trkpt lat="44.1699721" lon="8.3434189"><ele>14.6</ele><time>2026-05-03T15:41:40.157Z</time></trkpt><trkpt lat="44.1699246" lon="8.3433148"><ele>15.0</ele><time>2026-05-03T15:41:41.156Z</time></trkpt><trkpt lat="44.1698779" lon="8.343216"><ele>14.5</ele><time>2026-05-03T15:41:42.156Z</time></trkpt><trkpt lat="44.1698318" lon="8.3431205"><ele>14.0</ele><time>2026-05-03T15:41:43.156Z</time></trkpt><trkpt lat="44.1697896" lon="8.3430359"><ele>13.5</ele><time>2026-05-03T15:41:44.156Z</time></trkpt><trkpt lat="44.1697315" lon="8.3428991"><ele>13.0</ele><time>2026-05-03T15:41:46.156Z</time></trkpt><trkpt lat="44.1696818" lon="8.3428024"><ele>12.5</ele><time>2026-05-03T15:41:48.156Z</time></trkpt><trkpt lat="44.1696385" lon="8.3427177"><ele>12.0</ele><time>2026-05-03T15:41:50.157Z</time></trkpt><trkpt lat="44.1695887" lon="8.3426219"><ele>11.833333333333334</ele><time>2026-05-03T15:41:52.156Z</time></trkpt><trkpt lat="44.1695214" lon="8.3424747"><ele>11.666666666666666</ele><time>2026-05-03T15:41:54.156Z</time></trkpt><trkpt lat="44.1694799" lon="8.3423907"><ele>11.5</ele><time>2026-05-03T15:41:55.156Z</time></trkpt><trkpt lat="44.1694364" lon="8.3423005"><ele>11.333333333333332</ele><time>2026-05-03T15:41:56.157Z</time></trkpt><trkpt lat="44.1693932" lon="8.3422137"><ele>11.166666666666666</ele><time>2026-05-03T15:41:57.156Z</time></trkpt><trkpt lat="44.169351" lon="8.3421324"><ele>11.0</ele><time>2026-05-03T15:41:58.156Z</time></trkpt><trkpt lat="44.1692996" lon="8.3420471"><ele>10.5</ele><time>2026-05-03T15:41:59.156Z</time></trkpt><trkpt lat="44.1692528" lon="8.3419434"><ele>10.0</ele><time>2026-05-03T15:42:00.157Z</time></trkpt><trkpt lat="44.1691881" lon="8.3418412"><ele>9.5</ele><time>2026-05-03T15:42:01.156Z</time></trkpt><trkpt lat="44.169129" lon="8.3417507"><ele>9.0</ele><time>2026-05-03T15:42:02.156Z</time></trkpt><trkpt lat="44.1690756" lon="8.3416534"><ele>8.5</ele><time>2026-05-03T15:42:03.156Z</time></trkpt><trkpt lat="44.1690244" lon="8.3415656"><ele>8.0</ele><time>2026-05-03T15:42:04.156Z</time></trkpt><trkpt lat="44.1689832" lon="8.3414883"><ele>7.800000000000001</ele><time>2026-05-03T15:42:05.156Z</time></trkpt><trkpt lat="44.1689409" lon="8.3414197"><ele>7.6000000000000005</ele><time>2026-05-03T15:42:06.156Z</time></trkpt><trkpt lat="44.1688711" lon="8.3412934"><ele>7.3999999999999995</ele><time>2026-05-03T15:42:08.156Z</time></trkpt><trkpt lat="44.1688047" lon="8.341188"><ele>7.199999999999999</ele><time>2026-05-03T15:42:10.156Z</time></trkpt><trkpt lat="44.1687561" lon="8.3410828"><ele>7.0</ele><time>2026-05-03T15:42:12.156Z</time></trkpt><trkpt lat="44.1687305" lon="8.3409666"><ele>6.8</ele><time>2026-05-03T15:42:14.156Z</time></trkpt><trkpt lat="44.168665" lon="8.340849"><ele>6.6</ele><time>2026-05-03T15:42:16.157Z</time></trkpt><trkpt lat="44.168598" lon="8.3407835"><ele>6.3999999999999995</ele><time>2026-05-03T15:42:17.157Z</time></trkpt><trkpt lat="44.1685284" lon="8.3406827"><ele>6.199999999999999</ele><time>2026-05-03T15:42:18.157Z</time></trkpt><trkpt lat="44.1684509" lon="8.3405633"><ele>6.0</ele><time>2026-05-03T15:42:19.157Z</time></trkpt><trkpt lat="44.168353" lon="8.3404428"><ele>6.0</ele><time>2026-05-03T15:42:20.157Z</time></trkpt><trkpt lat="44.1682549" lon="8.3403291"><ele>6.0</ele><time>2026-05-03T15:42:21.156Z</time></trkpt><trkpt lat="44.168147" lon="8.3402072"><ele>6.0</ele><time>2026-05-03T15:42:22.156Z</time></trkpt><trkpt lat="44.1680392" lon="8.3400723"><ele>6.0</ele><time>2026-05-03T15:42:23.156Z</time></trkpt><trkpt lat="44.1679341" lon="8.3399455"><ele>5.75</ele><time>2026-05-03T15:42:24.156Z</time></trkpt><trkpt lat="44.1678246" lon="8.3398192"><ele>5.5</ele><time>2026-05-03T15:42:25.156Z</time></trkpt><trkpt lat="44.1677132" lon="8.3396851"><ele>5.25</ele><time>2026-05-03T15:42:26.156Z</time></trkpt><trkpt lat="44.1676033" lon="8.3395525"><ele>5.0</ele><time>2026-05-03T15:42:27.156Z</time></trkpt><trkpt lat="44.1674993" lon="8.3394316"><ele>5.0</ele><time>2026-05-03T15:42:28.156Z</time></trkpt><trkpt lat="44.1673991" lon="8.3393196"><ele>5.0</ele><time>2026-05-03T15:42:29.156Z</time></trkpt><trkpt lat="44.1673078" lon="8.3392163"><ele>5.0</ele><time>2026-05-03T15:42:30.156Z</time></trkpt><trkpt lat="44.1672195" lon="8.3391088"><ele>5.0</ele><time>2026-05-03T15:42:31.156Z</time></trkpt><trkpt lat="44.1671333" lon="8.3390002"><ele>5.0</ele><time>2026-05-03T15:42:32.156Z</time></trkpt><trkpt lat="44.1670522" lon="8.3388877"><ele>5.0</ele><time>2026-05-03T15:42:33.156Z</time></trkpt><trkpt lat="44.1669676" lon="8.3387733"><ele>5.0</ele><time>2026-05-03T15:42:34.156Z</time></trkpt><trkpt lat="44.1668911" lon="8.3386568"><ele>5.0</ele><time>2026-05-03T15:42:35.157Z</time></trkpt><trkpt lat="44.166822" lon="8.3385448"><ele>5.0</ele><time>2026-05-03T15:42:36.156Z</time></trkpt><trkpt lat="44.1667542" lon="8.338435"><ele>5.0</ele><time>2026-05-03T15:42:37.156Z</time></trkpt><trkpt lat="44.1666922" lon="8.3383313"><ele>5.0</ele><time>2026-05-03T15:42:38.156Z</time></trkpt><trkpt lat="44.1666241" lon="8.3382187"><ele>5.0</ele><time>2026-05-03T15:42:39.156Z</time></trkpt><trkpt lat="44.1665496" lon="8.3380995"><ele>5.0</ele><time>2026-05-03T15:42:40.156Z</time></trkpt><trkpt lat="44.1664694" lon="8.3379802"><ele>5.0</ele><time>2026-05-03T15:42:41.156Z</time></trkpt><trkpt lat="44.1663827" lon="8.3378463"><ele>5.0</ele><time>2026-05-03T15:42:42.157Z</time></trkpt><trkpt lat="44.1662877" lon="8.3377088"><ele>5.0</ele><time>2026-05-03T15:42:43.157Z</time></trkpt><trkpt lat="44.1661729" lon="8.3375713"><ele>5.0</ele><time>2026-05-03T15:42:44.156Z</time></trkpt><trkpt lat="44.1660391" lon="8.3374356"><ele>5.0</ele><time>2026-05-03T15:42:45.156Z</time></trkpt><trkpt lat="44.1658934" lon="8.3373166"><ele>5.0</ele><time>2026-05-03T15:42:46.156Z</time></trkpt><trkpt lat="44.165745" lon="8.3372181"><ele>5.0</ele><time>2026-05-03T15:42:47.156Z</time></trkpt><trkpt lat="44.1655833" lon="8.3371289"><ele>9.666666666666666</ele><time>2026-05-03T15:42:48.156Z</time></trkpt><trkpt lat="44.1654211" lon="8.3370593"><ele>14.333333333333332</ele><time>2026-05-03T15:42:49.156Z</time></trkpt><trkpt lat="44.1652595" lon="8.3370105"><ele>19.0</ele><time>2026-05-03T15:42:50.156Z</time></trkpt><trkpt lat="44.1651002" lon="8.3369734"><ele>19.0</ele><time>2026-05-03T15:42:51.156Z</time></trkpt><trkpt lat="44.1649501" lon="8.33695"><ele>19.0</ele><time>2026-05-03T15:42:52.156Z</time></trkpt><trkpt lat="44.1648019" lon="8.3369366"><ele>19.0</ele><time>2026-05-03T15:42:53.156Z</time></trkpt><trkpt lat="44.1646535" lon="8.336917"><ele>19.0</ele><time>2026-05-03T15:42:54.156Z</time></trkpt><trkpt lat="44.1645013" lon="8.3368997"><ele>17.666666666666664</ele><time>2026-05-03T15:42:55.156Z</time></trkpt><trkpt lat="44.1643405" lon="8.336881"><ele>16.333333333333332</ele><time>2026-05-03T15:42:56.156Z</time></trkpt><trkpt lat="44.1641758" lon="8.3368587"><ele>15.0</ele><time>2026-05-03T15:42:57.156Z</time></trkpt><trkpt lat="44.1640093" lon="8.3368325"><ele>21.666666666666664</ele><time>2026-05-03T15:42:58.156Z</time></trkpt><trkpt lat="44.1638456" lon="8.3368044"><ele>28.333333333333332</ele><time>2026-05-03T15:42:59.156Z</time></trkpt><trkpt lat="44.1636744" lon="8.3367653"><ele>35.0</ele><time>2026-05-03T15:43:00.157Z</time></trkpt><trkpt lat="44.1634996" lon="8.3367085"><ele>35.0</ele><time>2026-05-03T15:43:01.156Z</time></trkpt><trkpt lat="44.1633249" lon="8.3366294"><ele>35.0</ele><time>2026-05-03T15:43:02.156Z</time></trkpt><trkpt lat="44.163153" lon="8.3365322"><ele>35.0</ele><time>2026-05-03T15:43:03.156Z</time></trkpt><trkpt lat="44.1629874" lon="8.3364143"><ele>37.0</ele><time>2026-05-03T15:43:04.156Z</time></trkpt><trkpt lat="44.1628266" lon="8.3363014"><ele>39.0</ele><time>2026-05-03T15:43:05.156Z</time></trkpt><trkpt lat="44.1626579" lon="8.3361645"><ele>41.0</ele><time>2026-05-03T15:43:06.156Z</time></trkpt><trkpt lat="44.1624944" lon="8.336043"><ele>10.0</ele><time>2026-05-03T15:43:07.156Z</time></trkpt><trkpt lat="44.1621465" lon="8.3347767"><ele>10.333333333333334</ele><time>2026-05-03T15:43:12.156Z</time></trkpt><trkpt lat="44.1621108" lon="8.3344944"><ele>10.666666666666666</ele><time>2026-05-03T15:43:13.157Z</time></trkpt><trkpt lat="44.1620734" lon="8.3342371"><ele>11.0</ele><time>2026-05-03T15:43:14.156Z</time></trkpt><trkpt lat="44.162035" lon="8.3339678"><ele>12.0</ele><time>2026-05-03T15:43:15.156Z</time></trkpt><trkpt lat="44.1619956" lon="8.3337037"><ele>13.0</ele><time>2026-05-03T15:43:16.156Z</time></trkpt><trkpt lat="44.1619625" lon="8.3334353"><ele>14.0</ele><time>2026-05-03T15:43:17.156Z</time></trkpt><trkpt lat="44.1619132" lon="8.3331726"><ele>14.0</ele><time>2026-05-03T15:43:18.156Z</time></trkpt><trkpt lat="44.1618746" lon="8.3329093"><ele>14.0</ele><time>2026-05-03T15:43:19.156Z</time></trkpt><trkpt lat="44.1618384" lon="8.3326429"><ele>14.0</ele><time>2026-05-03T15:43:20.156Z</time></trkpt><trkpt lat="44.1617961" lon="8.3323794"><ele>13.0</ele><time>2026-05-03T15:43:21.156Z</time></trkpt><trkpt lat="44.1617586" lon="8.3321122"><ele>12.0</ele><time>2026-05-03T15:43:22.157Z</time></trkpt><trkpt lat="44.1617137" lon="8.331844"><ele>11.0</ele><time>2026-05-03T15:43:23.156Z</time></trkpt><trkpt lat="44.1616674" lon="8.3315761"><ele>11.333333333333332</ele><time>2026-05-03T15:43:24.156Z</time></trkpt><trkpt lat="44.1616244" lon="8.3313057"><ele>11.666666666666666</ele><time>2026-05-03T15:43:25.156Z</time></trkpt><trkpt lat="44.1615801" lon="8.3310347"><ele>12.0</ele><time>2026-05-03T15:43:26.157Z</time></trkpt><trkpt lat="44.1615357" lon="8.3307606"><ele>9.0</ele><time>2026-05-03T15:43:27.156Z</time></trkpt><trkpt lat="44.1614918" lon="8.3304885"><ele>6.0</ele><time>2026-05-03T15:43:28.156Z</time></trkpt><trkpt lat="44.1614525" lon="8.3302101"><ele>3.0</ele><time>2026-05-03T15:43:29.156Z</time></trkpt><trkpt lat="44.1614115" lon="8.3299292"><ele>3.0</ele><time>2026-05-03T15:43:30.156Z</time></trkpt><trkpt lat="44.1613706" lon="8.3296508"><ele>3.0</ele><time>2026-05-03T15:43:31.156Z</time></trkpt><trkpt lat="44.1613306" lon="8.3293686"><ele>3.0</ele><time>2026-05-03T15:43:32.156Z</time></trkpt><trkpt lat="44.1612899" lon="8.3290874"><ele>3.0</ele><time>2026-05-03T15:43:33.156Z</time></trkpt><trkpt lat="44.1612475" lon="8.3288076"><ele>3.0</ele><time>2026-05-03T15:43:34.156Z</time></trkpt><trkpt lat="44.1612041" lon="8.3285227"><ele>3.0</ele><time>2026-05-03T15:43:35.157Z</time></trkpt><trkpt lat="44.1611597" lon="8.328242"><ele>4.333333333333334</ele><time>2026-05-03T15:43:36.156Z</time></trkpt><trkpt lat="44.1611119" lon="8.3279587"><ele>5.666666666666667</ele><time>2026-05-03T15:43:37.156Z</time></trkpt><trkpt lat="44.1610656" lon="8.327678"><ele>7.0</ele><time>2026-05-03T15:43:38.157Z</time></trkpt><trkpt lat="44.1610175" lon="8.3273936"><ele>8.0</ele><time>2026-05-03T15:43:39.156Z</time></trkpt><trkpt lat="44.1609734" lon="8.3271105"><ele>9.0</ele><time>2026-05-03T15:43:40.156Z</time></trkpt><trkpt lat="44.1609312" lon="8.3268283"><ele>10.0</ele><time>2026-05-03T15:43:41.157Z</time></trkpt><trkpt lat="44.1608902" lon="8.3265431"><ele>13.666666666666668</ele><time>2026-05-03T15:43:42.156Z</time></trkpt><trkpt lat="44.1608455" lon="8.3262618"><ele>17.333333333333332</ele><time>2026-05-03T15:43:43.156Z</time></trkpt><trkpt lat="44.1608008" lon="8.3259803"><ele>21.0</ele><time>2026-05-03T15:43:44.156Z</time></trkpt><trkpt lat="44.1607542" lon="8.3256993"><ele>22.333333333333336</ele><time>2026-05-03T15:43:45.156Z</time></trkpt><trkpt lat="44.1607051" lon="8.3254188"><ele>23.666666666666668</ele><time>2026-05-03T15:43:46.158Z</time></trkpt><trkpt lat="44.1606614" lon="8.3251399"><ele>25.0</ele><time>2026-05-03T15:43:47.157Z</time></trkpt><trkpt lat="44.1606241" lon="8.3248619"><ele>17.666666666666668</ele><time>2026-05-03T15:43:48.157Z</time></trkpt><trkpt lat="44.1605883" lon="8.324588"><ele>10.333333333333334</ele><time>2026-05-03T15:43:49.156Z</time></trkpt><trkpt lat="44.1605477" lon="8.3243147"><ele>3.0</ele><time>2026-05-03T15:43:50.156Z</time></trkpt><trkpt lat="44.1605093" lon="8.3240444"><ele>2.6666666666666665</ele><time>2026-05-03T15:43:51.156Z</time></trkpt><trkpt lat="44.1604712" lon="8.323776"><ele>2.333333333333333</ele><time>2026-05-03T15:43:52.156Z</time></trkpt><trkpt lat="44.1604324" lon="8.3235028"><ele>2.0</ele><time>2026-05-03T15:43:53.156Z</time></trkpt><trkpt lat="44.1603936" lon="8.3232324"><ele>3.0</ele><time>2026-05-03T15:43:54.156Z</time></trkpt><trkpt lat="44.160356" lon="8.322958"><ele>4.0</ele><time>2026-05-03T15:43:55.157Z</time></trkpt><trkpt lat="44.1603165" lon="8.3226872"><ele>5.0</ele><time>2026-05-03T15:43:56.156Z</time></trkpt><trkpt lat="44.160279" lon="8.3224159"><ele>4.333333333333334</ele><time>2026-05-03T15:43:57.156Z</time></trkpt><trkpt lat="44.1602369" lon="8.3221436"><ele>3.666666666666667</ele><time>2026-05-03T15:43:58.156Z</time></trkpt><trkpt lat="44.1601955" lon="8.3218703"><ele>3.0</ele><time>2026-05-03T15:43:59.157Z</time></trkpt><trkpt lat="44.1601509" lon="8.3215939"><ele>3.666666666666667</ele><time>2026-05-03T15:44:00.156Z</time></trkpt><trkpt lat="44.1601082" lon="8.3213191"><ele>4.333333333333334</ele><time>2026-05-03T15:44:01.157Z</time></trkpt><trkpt lat="44.1600661" lon="8.3210493"><ele>5.0</ele><time>2026-05-03T15:44:02.156Z</time></trkpt><trkpt lat="44.1600263" lon="8.3207863"><ele>9.333333333333334</ele><time>2026-05-03T15:44:03.156Z</time></trkpt><trkpt lat="44.1599852" lon="8.320523"><ele>13.666666666666666</ele><time>2026-05-03T15:44:04.156Z</time></trkpt><trkpt lat="44.159944" lon="8.3202581"><ele>18.0</ele><time>2026-05-03T15:44:05.156Z</time></trkpt><trkpt lat="44.1599009" lon="8.319996"><ele>13.0</ele><time>2026-05-03T15:44:06.157Z</time></trkpt><trkpt lat="44.1598563" lon="8.3197399"><ele>8.0</ele><time>2026-05-03T15:44:07.156Z</time></trkpt><trkpt lat="44.1598132" lon="8.3194994"><ele>3.0</ele><time>2026-05-03T15:44:08.157Z</time></trkpt><trkpt lat="44.1597681" lon="8.3192736"><ele>3.0</ele><time>2026-05-03T15:44:09.156Z</time></trkpt><trkpt lat="44.1597269" lon="8.3190555"><ele>3.0</ele><time>2026-05-03T15:44:10.156Z</time></trkpt><trkpt lat="44.1596836" lon="8.3188403"><ele>3.0</ele><time>2026-05-03T15:44:11.156Z</time></trkpt><trkpt lat="44.1596421" lon="8.3186231"><ele>3.666666666666667</ele><time>2026-05-03T15:44:12.156Z</time></trkpt><trkpt lat="44.1596043" lon="8.3184073"><ele>4.333333333333334</ele><time>2026-05-03T15:44:13.156Z</time></trkpt><trkpt lat="44.1595619" lon="8.3181881"><ele>5.0</ele><time>2026-05-03T15:44:14.156Z</time></trkpt><trkpt lat="44.1595237" lon="8.3179698"><ele>5.666666666666667</ele><time>2026-05-03T15:44:15.156Z</time></trkpt><trkpt lat="44.1594825" lon="8.3177534"><ele>6.333333333333334</ele><time>2026-05-03T15:44:16.156Z</time></trkpt><trkpt lat="44.1594434" lon="8.3175488"><ele>7.0</ele><time>2026-05-03T15:44:17.157Z</time></trkpt><trkpt lat="44.1594035" lon="8.3173426"><ele>8.5</ele><time>2026-05-03T15:44:18.156Z</time></trkpt><trkpt lat="44.1593623" lon="8.3171414"><ele>10.0</ele><time>2026-05-03T15:44:19.156Z</time></trkpt><trkpt lat="44.1593231" lon="8.3169397"><ele>11.5</ele><time>2026-05-03T15:44:20.156Z</time></trkpt><trkpt lat="44.1592814" lon="8.3167436"><ele>13.0</ele><time>2026-05-03T15:44:21.156Z</time></trkpt><trkpt lat="44.1592425" lon="8.3165516"><ele>14.0</ele><time>2026-05-03T15:44:22.156Z</time></trkpt><trkpt lat="44.1592038" lon="8.316356"><ele>15.0</ele><time>2026-05-03T15:44:23.157Z</time></trkpt><trkpt lat="44.1591596" lon="8.316155"><ele>16.0</ele><time>2026-05-03T15:44:24.156Z</time></trkpt><trkpt lat="44.1591183" lon="8.3159486"><ele>16.0</ele><time>2026-05-03T15:44:25.156Z</time></trkpt><trkpt lat="44.1590742" lon="8.3157282"><ele>16.0</ele><time>2026-05-03T15:44:26.156Z</time></trkpt><trkpt lat="44.1590368" lon="8.3155014"><ele>16.0</ele><time>2026-05-03T15:44:27.157Z</time></trkpt><trkpt lat="44.1589967" lon="8.3152764"><ele>11.333333333333332</ele><time>2026-05-03T15:44:28.156Z</time></trkpt><trkpt lat="44.1589547" lon="8.3150491"><ele>6.666666666666666</ele><time>2026-05-03T15:44:29.157Z</time></trkpt><trkpt lat="44.1589088" lon="8.3148305"><ele>2.0</ele><time>2026-05-03T15:44:30.156Z</time></trkpt><trkpt lat="44.1588648" lon="8.3146093"><ele>2.0</ele><time>2026-05-03T15:44:31.156Z</time></trkpt><trkpt lat="44.1588201" lon="8.3143976"><ele>2.0</ele><time>2026-05-03T15:44:32.157Z</time></trkpt><trkpt lat="44.1587712" lon="8.3141906"><ele>2.0</ele><time>2026-05-03T15:44:33.157Z</time></trkpt><trkpt lat="44.158725" lon="8.3139744"><ele>2.6666666666666665</ele><time>2026-05-03T15:44:34.157Z</time></trkpt><trkpt lat="44.1586753" lon="8.3137628"><ele>3.333333333333333</ele><time>2026-05-03T15:44:35.156Z</time></trkpt><trkpt lat="44.1586312" lon="8.3135531"><ele>4.0</ele><time>2026-05-03T15:44:36.156Z</time></trkpt><trkpt lat="44.1585925" lon="8.3133478"><ele>4.0</ele><time>2026-05-03T15:44:37.157Z</time></trkpt><trkpt lat="44.1585574" lon="8.3131497"><ele>4.0</ele><time>2026-05-03T15:44:38.156Z</time></trkpt><trkpt lat="44.158518" lon="8.312968"><ele>4.0</ele><time>2026-05-03T15:44:39.157Z</time></trkpt><trkpt lat="44.1584796" lon="8.3127926"><ele>4.0</ele><time>2026-05-03T15:44:40.156Z</time></trkpt><trkpt lat="44.158438" lon="8.3126301"><ele>4.6</ele><time>2026-05-03T15:44:41.156Z</time></trkpt><trkpt lat="44.1583952" lon="8.3124827"><ele>5.2</ele><time>2026-05-03T15:44:42.156Z</time></trkpt><trkpt lat="44.1583588" lon="8.3123433"><ele>5.799999999999999</ele><time>2026-05-03T15:44:43.156Z</time></trkpt><trkpt lat="44.1583249" lon="8.3122188"><ele>6.3999999999999995</ele><time>2026-05-03T15:44:44.156Z</time></trkpt><trkpt lat="44.1582975" lon="8.3121096"><ele>7.0</ele><time>2026-05-03T15:44:45.156Z</time></trkpt><trkpt lat="44.1582778" lon="8.3120171"><ele>7.0</ele><time>2026-05-03T15:44:46.157Z</time></trkpt><trkpt lat="44.1582574" lon="8.3118873"><ele>6.999999999999999</ele><time>2026-05-03T15:44:48.157Z</time></trkpt><trkpt lat="44.1582404" lon="8.3117844"><ele>6.999999999999999</ele><time>2026-05-03T15:44:51.156Z</time></trkpt><trkpt lat="44.1582083" lon="8.3116914"><ele>7.0</ele><time>2026-05-03T15:45:17.156Z</time></trkpt><trkpt lat="44.1581727" lon="8.3115102"><ele>7.0</ele><time>2026-05-03T15:45:19.156Z</time></trkpt><trkpt lat="44.1581517" lon="8.3113505"><ele>5.75</ele><time>2026-05-03T15:45:20.156Z</time></trkpt><trkpt lat="44.1581327" lon="8.3111977"><ele>4.5</ele><time>2026-05-03T15:45:21.156Z</time></trkpt><trkpt lat="44.1580974" lon="8.3110167"><ele>3.25</ele><time>2026-05-03T15:45:22.156Z</time></trkpt><trkpt lat="44.1580596" lon="8.310838"><ele>2.0</ele><time>2026-05-03T15:45:23.156Z</time></trkpt><trkpt lat="44.1580235" lon="8.3106548"><ele>2.25</ele><time>2026-05-03T15:45:24.156Z</time></trkpt><trkpt lat="44.1579867" lon="8.3104678"><ele>2.5</ele><time>2026-05-03T15:45:25.156Z</time></trkpt><trkpt lat="44.1579522" lon="8.3102901"><ele>2.75</ele><time>2026-05-03T15:45:26.156Z</time></trkpt><trkpt lat="44.1579121" lon="8.3101072"><ele>3.0</ele><time>2026-05-03T15:45:27.156Z</time></trkpt><trkpt lat="44.1578717" lon="8.3099285"><ele>3.0</ele><time>2026-05-03T15:45:28.156Z</time></trkpt><trkpt lat="44.1578366" lon="8.3097552"><ele>3.0</ele><time>2026-05-03T15:45:29.156Z</time></trkpt><trkpt lat="44.157797" lon="8.3095808"><ele>3.0</ele><time>2026-05-03T15:45:30.156Z</time></trkpt><trkpt lat="44.1577619" lon="8.3094077"><ele>3.0</ele><time>2026-05-03T15:45:31.156Z</time></trkpt><trkpt lat="44.157724" lon="8.3092364"><ele>3.0</ele><time>2026-05-03T15:45:32.157Z</time></trkpt><trkpt lat="44.1576869" lon="8.3090674"><ele>3.0</ele><time>2026-05-03T15:45:33.156Z</time></trkpt><trkpt lat="44.1576488" lon="8.3088952"><ele>3.0</ele><time>2026-05-03T15:45:34.156Z</time></trkpt><trkpt lat="44.1576136" lon="8.3087211"><ele>3.0</ele><time>2026-05-03T15:45:35.157Z</time></trkpt><trkpt lat="44.1575748" lon="8.3085488"><ele>3.5</ele><time>2026-05-03T15:45:36.156Z</time></trkpt><trkpt lat="44.1575366" lon="8.3083727"><ele>4.0</ele><time>2026-05-03T15:45:37.156Z</time></trkpt><trkpt lat="44.1574977" lon="8.3081967"><ele>4.5</ele><time>2026-05-03T15:45:38.156Z</time></trkpt><trkpt lat="44.1574594" lon="8.3080211"><ele>5.0</ele><time>2026-05-03T15:45:39.156Z</time></trkpt><trkpt lat="44.1574221" lon="8.3078453"><ele>5.25</ele><time>2026-05-03T15:45:40.157Z</time></trkpt><trkpt lat="44.1573831" lon="8.3076755"><ele>5.5</ele><time>2026-05-03T15:45:41.156Z</time></trkpt><trkpt lat="44.1573487" lon="8.307506"><ele>5.75</ele><time>2026-05-03T15:45:42.157Z</time></trkpt><trkpt lat="44.1573154" lon="8.307342"><ele>6.0</ele><time>2026-05-03T15:45:43.156Z</time></trkpt><trkpt lat="44.1572817" lon="8.3071864"><ele>5.0</ele><time>2026-05-03T15:45:44.156Z</time></trkpt><trkpt lat="44.157246" lon="8.3070314"><ele>4.0</ele><time>2026-05-03T15:45:45.157Z</time></trkpt><trkpt lat="44.1572108" lon="8.3068781"><ele>3.0</ele><time>2026-05-03T15:45:46.156Z</time></trkpt><trkpt lat="44.1571771" lon="8.3067273"><ele>2.0</ele><time>2026-05-03T15:45:47.157Z</time></trkpt><trkpt lat="44.1571456" lon="8.3065703"><ele>2.0</ele><time>2026-05-03T15:45:48.156Z</time></trkpt><trkpt lat="44.1571148" lon="8.3064191"><ele>2.0</ele><time>2026-05-03T15:45:49.157Z</time></trkpt><trkpt lat="44.1570805" lon="8.3062679"><ele>2.0</ele><time>2026-05-03T15:45:50.156Z</time></trkpt><trkpt lat="44.1570447" lon="8.3061178"><ele>2.0</ele><time>2026-05-03T15:45:51.156Z</time></trkpt><trkpt lat="44.1570083" lon="8.3059698"><ele>2.0</ele><time>2026-05-03T15:45:52.156Z</time></trkpt><trkpt lat="44.1569756" lon="8.3058183"><ele>2.0</ele><time>2026-05-03T15:45:53.156Z</time></trkpt><trkpt lat="44.1569399" lon="8.3056581"><ele>2.0</ele><time>2026-05-03T15:45:54.156Z</time></trkpt><trkpt lat="44.1569034" lon="8.3054921"><ele>2.0</ele><time>2026-05-03T15:45:55.157Z</time></trkpt><trkpt lat="44.1568682" lon="8.3053216"><ele>2.5</ele><time>2026-05-03T15:45:56.157Z</time></trkpt><trkpt lat="44.1568321" lon="8.3051447"><ele>3.0</ele><time>2026-05-03T15:45:57.156Z</time></trkpt><trkpt lat="44.1567927" lon="8.3049623"><ele>3.5</ele><time>2026-05-03T15:45:58.156Z</time></trkpt><trkpt lat="44.156753" lon="8.3047745"><ele>4.0</ele><time>2026-05-03T15:45:59.156Z</time></trkpt><trkpt lat="44.1567126" lon="8.3045814"><ele>4.666666666666666</ele><time>2026-05-03T15:46:00.156Z</time></trkpt><trkpt lat="44.1566706" lon="8.3043753"><ele>5.333333333333333</ele><time>2026-05-03T15:46:01.157Z</time></trkpt><trkpt lat="44.1566247" lon="8.3041542"><ele>6.0</ele><time>2026-05-03T15:46:02.156Z</time></trkpt><trkpt lat="44.1565755" lon="8.3039287"><ele>4.75</ele><time>2026-05-03T15:46:03.156Z</time></trkpt><trkpt lat="44.1565228" lon="8.3037192"><ele>3.5</ele><time>2026-05-03T15:46:04.156Z</time></trkpt><trkpt lat="44.1564772" lon="8.3035286"><ele>2.25</ele><time>2026-05-03T15:46:05.157Z</time></trkpt><trkpt lat="44.1564389" lon="8.3033515"><ele>1.0</ele><time>2026-05-03T15:46:06.156Z</time></trkpt><trkpt lat="44.1563994" lon="8.3031798"><ele>1.5</ele><time>2026-05-03T15:46:07.156Z</time></trkpt><trkpt lat="44.1563573" lon="8.303003"><ele>2.0</ele><time>2026-05-03T15:46:08.156Z</time></trkpt><trkpt lat="44.1563103" lon="8.302827"><ele>2.5</ele><time>2026-05-03T15:46:09.156Z</time></trkpt><trkpt lat="44.1562576" lon="8.3026493"><ele>3.0</ele><time>2026-05-03T15:46:10.156Z</time></trkpt><trkpt lat="44.1561986" lon="8.3024654"><ele>3.0</ele><time>2026-05-03T15:46:11.156Z</time></trkpt><trkpt lat="44.1561389" lon="8.3022788"><ele>3.0</ele><time>2026-05-03T15:46:12.156Z</time></trkpt><trkpt lat="44.1560805" lon="8.3020881"><ele>3.0</ele><time>2026-05-03T15:46:13.156Z</time></trkpt><trkpt lat="44.156024" lon="8.3018979"><ele>3.0</ele><time>2026-05-03T15:46:14.156Z</time></trkpt><trkpt lat="44.1559652" lon="8.3017073"><ele>3.25</ele><time>2026-05-03T15:46:15.156Z</time></trkpt><trkpt lat="44.1559075" lon="8.3015196"><ele>3.5</ele><time>2026-05-03T15:46:16.156Z</time></trkpt><trkpt lat="44.1558494" lon="8.3013307"><ele>3.75</ele><time>2026-05-03T15:46:17.156Z</time></trkpt><trkpt lat="44.1557919" lon="8.3011449"><ele>4.0</ele><time>2026-05-03T15:46:18.156Z</time></trkpt><trkpt lat="44.155736" lon="8.3009589"><ele>3.25</ele><time>2026-05-03T15:46:19.156Z</time></trkpt><trkpt lat="44.1556789" lon="8.3007725"><ele>2.5</ele><time>2026-05-03T15:46:20.156Z</time></trkpt><trkpt lat="44.1556224" lon="8.3005855"><ele>1.75</ele><time>2026-05-03T15:46:21.156Z</time></trkpt><trkpt lat="44.1555669" lon="8.3003921"><ele>1.0</ele><time>2026-05-03T15:46:22.156Z</time></trkpt><trkpt lat="44.1555084" lon="8.3001954"><ele>1.0</ele><time>2026-05-03T15:46:23.156Z</time></trkpt><trkpt lat="44.1554467" lon="8.3000009"><ele>1.0</ele><time>2026-05-03T15:46:24.156Z</time></trkpt><trkpt lat="44.155388" lon="8.2998072"><ele>1.0</ele><time>2026-05-03T15:46:25.156Z</time></trkpt><trkpt lat="44.1553301" lon="8.299613"><ele>1.75</ele><time>2026-05-03T15:46:26.156Z</time></trkpt><trkpt lat="44.1552743" lon="8.2994228"><ele>2.5</ele><time>2026-05-03T15:46:27.157Z</time></trkpt><trkpt lat="44.155215" lon="8.2992355"><ele>3.25</ele><time>2026-05-03T15:46:28.156Z</time></trkpt><trkpt lat="44.1551615" lon="8.299051"><ele>4.0</ele><time>2026-05-03T15:46:29.156Z</time></trkpt><trkpt lat="44.1551065" lon="8.298865"><ele>4.5</ele><time>2026-05-03T15:46:30.157Z</time></trkpt><trkpt lat="44.1550516" lon="8.298678"><ele>5.0</ele><time>2026-05-03T15:46:31.156Z</time></trkpt><trkpt lat="44.1549942" lon="8.2984854"><ele>5.5</ele><time>2026-05-03T15:46:32.156Z</time></trkpt><trkpt lat="44.154931" lon="8.2982908"><ele>6.0</ele><time>2026-05-03T15:46:33.156Z</time></trkpt><trkpt lat="44.1548697" lon="8.2980923"><ele>4.333333333333333</ele><time>2026-05-03T15:46:34.156Z</time></trkpt><trkpt lat="44.1548052" lon="8.2978997"><ele>2.6666666666666665</ele><time>2026-05-03T15:46:35.156Z</time></trkpt><trkpt lat="44.1547435" lon="8.2977016"><ele>1.0</ele><time>2026-05-03T15:46:36.156Z</time></trkpt><trkpt lat="44.1546814" lon="8.2975023"><ele>1.0</ele><time>2026-05-03T15:46:37.156Z</time></trkpt><trkpt lat="44.1546195" lon="8.2972974"><ele>1.0</ele><time>2026-05-03T15:46:38.157Z</time></trkpt><trkpt lat="44.1545555" lon="8.297084"><ele>1.0</ele><time>2026-05-03T15:46:39.156Z</time></trkpt><trkpt lat="44.1544897" lon="8.2968679"><ele>1.3333333333333333</ele><time>2026-05-03T15:46:40.156Z</time></trkpt><trkpt lat="44.1544229" lon="8.2966471"><ele>1.6666666666666665</ele><time>2026-05-03T15:46:41.156Z</time></trkpt><trkpt lat="44.1543586" lon="8.2964303"><ele>2.0</ele><time>2026-05-03T15:46:42.156Z</time></trkpt><trkpt lat="44.1542889" lon="8.2962119"><ele>2.333333333333333</ele><time>2026-05-03T15:46:43.156Z</time></trkpt><trkpt lat="44.1542206" lon="8.2959998"><ele>2.6666666666666665</ele><time>2026-05-03T15:46:44.156Z</time></trkpt><trkpt lat="44.1541566" lon="8.295797"><ele>3.0</ele><time>2026-05-03T15:46:45.156Z</time></trkpt><trkpt lat="44.1540962" lon="8.2955974"><ele>2.3333333333333335</ele><time>2026-05-03T15:46:46.157Z</time></trkpt><trkpt lat="44.1540369" lon="8.2953997"><ele>1.6666666666666665</ele><time>2026-05-03T15:46:47.156Z</time></trkpt><trkpt lat="44.1539775" lon="8.2951992"><ele>1.0</ele><time>2026-05-03T15:46:48.156Z</time></trkpt><trkpt lat="44.1539178" lon="8.2949962"><ele>1.0</ele><time>2026-05-03T15:46:49.157Z</time></trkpt><trkpt lat="44.1538572" lon="8.2947945"><ele>1.0</ele><time>2026-05-03T15:46:50.157Z</time></trkpt><trkpt lat="44.1537948" lon="8.2945988"><ele>1.0</ele><time>2026-05-03T15:46:51.156Z</time></trkpt><trkpt lat="44.1537348" lon="8.2944218"><ele>1.5</ele><time>2026-05-03T15:46:52.156Z</time></trkpt><trkpt lat="44.153683" lon="8.2942546"><ele>2.0</ele><time>2026-05-03T15:46:53.156Z</time></trkpt><trkpt lat="44.1536348" lon="8.2941042"><ele>2.5</ele><time>2026-05-03T15:46:54.156Z</time></trkpt><trkpt lat="44.1535901" lon="8.2939651"><ele>3.0</ele><time>2026-05-03T15:46:55.156Z</time></trkpt><trkpt lat="44.1535402" lon="8.2938191"><ele>4.25</ele><time>2026-05-03T15:46:56.156Z</time></trkpt><trkpt lat="44.1534806" lon="8.2936663"><ele>5.5</ele><time>2026-05-03T15:46:57.156Z</time></trkpt><trkpt lat="44.1534142" lon="8.2935103"><ele>6.75</ele><time>2026-05-03T15:46:58.156Z</time></trkpt><trkpt lat="44.1533426" lon="8.2933477"><ele>8.0</ele><time>2026-05-03T15:46:59.157Z</time></trkpt><trkpt lat="44.1532725" lon="8.293184"><ele>7.75</ele><time>2026-05-03T15:47:00.156Z</time></trkpt><trkpt lat="44.1532052" lon="8.2930282"><ele>7.5</ele><time>2026-05-03T15:47:01.156Z</time></trkpt><trkpt lat="44.1531379" lon="8.2928742"><ele>7.25</ele><time>2026-05-03T15:47:02.156Z</time></trkpt><trkpt lat="44.1530703" lon="8.2927208"><ele>7.0</ele><time>2026-05-03T15:47:03.156Z</time></trkpt><trkpt lat="44.1530059" lon="8.2925746"><ele>7.0</ele><time>2026-05-03T15:47:04.157Z</time></trkpt><trkpt lat="44.1529452" lon="8.2924366"><ele>6.999999999999999</ele><time>2026-05-03T15:47:05.156Z</time></trkpt><trkpt lat="44.1528866" lon="8.2923058"><ele>6.999999999999999</ele><time>2026-05-03T15:47:06.156Z</time></trkpt><trkpt lat="44.1528311" lon="8.2921767"><ele>7.0</ele><time>2026-05-03T15:47:07.157Z</time></trkpt><trkpt lat="44.1527769" lon="8.2920512"><ele>7.0</ele><time>2026-05-03T15:47:08.157Z</time></trkpt><trkpt lat="44.1527291" lon="8.2919405"><ele>7.000000000000001</ele><time>2026-05-03T15:47:09.156Z</time></trkpt><trkpt lat="44.1526945" lon="8.2918658"><ele>7.0</ele><time>2026-05-03T15:47:10.156Z</time></trkpt><trkpt lat="44.1526529" lon="8.2917771"><ele>7.0</ele><time>2026-05-03T15:47:12.157Z</time></trkpt><trkpt lat="44.1526015" lon="8.2916321"><ele>7.0</ele><time>2026-05-03T15:47:14.157Z</time></trkpt><trkpt lat="44.1525584" lon="8.2915293"><ele>7.000000000000001</ele><time>2026-05-03T15:47:15.156Z</time></trkpt><trkpt lat="44.1525079" lon="8.2914276"><ele>7.0</ele><time>2026-05-03T15:47:16.156Z</time></trkpt><trkpt lat="44.152459" lon="8.2913272"><ele>7.0</ele><time>2026-05-03T15:47:17.156Z</time></trkpt><trkpt lat="44.1524126" lon="8.291224"><ele>6.999999999999999</ele><time>2026-05-03T15:47:18.156Z</time></trkpt><trkpt lat="44.1523684" lon="8.2911152"><ele>6.999999999999999</ele><time>2026-05-03T15:47:19.156Z</time></trkpt><trkpt lat="44.1523189" lon="8.2910017"><ele>7.0</ele><time>2026-05-03T15:47:20.156Z</time></trkpt><trkpt lat="44.1522635" lon="8.2908801"><ele>7.0</ele><time>2026-05-03T15:47:21.156Z</time></trkpt><trkpt lat="44.1522058" lon="8.2907497"><ele>6.5</ele><time>2026-05-03T15:47:22.156Z</time></trkpt><trkpt lat="44.1521449" lon="8.2906162"><ele>6.0</ele><time>2026-05-03T15:47:23.156Z</time></trkpt><trkpt lat="44.1520831" lon="8.2904772"><ele>5.5</ele><time>2026-05-03T15:47:24.156Z</time></trkpt><trkpt lat="44.1520225" lon="8.2903415"><ele>5.0</ele><time>2026-05-03T15:47:25.157Z</time></trkpt><trkpt lat="44.1519664" lon="8.2902128"><ele>5.8</ele><time>2026-05-03T15:47:26.156Z</time></trkpt><trkpt lat="44.1519149" lon="8.290095"><ele>6.6</ele><time>2026-05-03T15:47:27.156Z</time></trkpt><trkpt lat="44.1518677" lon="8.2899848"><ele>7.4</ele><time>2026-05-03T15:47:28.156Z</time></trkpt><trkpt lat="44.1518216" lon="8.2898764"><ele>8.2</ele><time>2026-05-03T15:47:29.156Z</time></trkpt><trkpt lat="44.1517749" lon="8.289765"><ele>9.0</ele><time>2026-05-03T15:47:30.156Z</time></trkpt><trkpt lat="44.151728" lon="8.2896558"><ele>9.333333333333334</ele><time>2026-05-03T15:47:31.157Z</time></trkpt><trkpt lat="44.1516827" lon="8.2895529"><ele>9.666666666666666</ele><time>2026-05-03T15:47:32.156Z</time></trkpt><trkpt lat="44.1516401" lon="8.289454"><ele>10.0</ele><time>2026-05-03T15:47:33.156Z</time></trkpt><trkpt lat="44.1515996" lon="8.2893549"><ele>10.333333333333332</ele><time>2026-05-03T15:47:34.157Z</time></trkpt><trkpt lat="44.1515585" lon="8.2892548"><ele>10.666666666666666</ele><time>2026-05-03T15:47:35.156Z</time></trkpt><trkpt lat="44.1515138" lon="8.2891492"><ele>11.0</ele><time>2026-05-03T15:47:36.156Z</time></trkpt><trkpt lat="44.1514671" lon="8.2890438"><ele>10.8</ele><time>2026-05-03T15:47:37.156Z</time></trkpt><trkpt lat="44.1514193" lon="8.288937"><ele>10.600000000000001</ele><time>2026-05-03T15:47:38.156Z</time></trkpt><trkpt lat="44.1513719" lon="8.2888268"><ele>10.4</ele><time>2026-05-03T15:47:39.156Z</time></trkpt><trkpt lat="44.1513221" lon="8.2887168"><ele>10.2</ele><time>2026-05-03T15:47:40.156Z</time></trkpt><trkpt lat="44.1512724" lon="8.2886051"><ele>10.0</ele><time>2026-05-03T15:47:41.156Z</time></trkpt><trkpt lat="44.1512239" lon="8.2884949"><ele>10.0</ele><time>2026-05-03T15:47:42.156Z</time></trkpt><trkpt lat="44.1511783" lon="8.2883879"><ele>10.0</ele><time>2026-05-03T15:47:43.156Z</time></trkpt><trkpt lat="44.1511344" lon="8.2882862"><ele>10.0</ele><time>2026-05-03T15:47:44.156Z</time></trkpt><trkpt lat="44.1510896" lon="8.2881901"><ele>10.0</ele><time>2026-05-03T15:47:45.156Z</time></trkpt><trkpt lat="44.1510435" lon="8.2880958"><ele>10.0</ele><time>2026-05-03T15:47:46.157Z</time></trkpt><trkpt lat="44.1509999" lon="8.2880027"><ele>10.0</ele><time>2026-05-03T15:47:47.156Z</time></trkpt><trkpt lat="44.150959" lon="8.2879038"><ele>9.833333333333334</ele><time>2026-05-03T15:47:48.156Z</time></trkpt><trkpt lat="44.1509222" lon="8.2877989"><ele>9.666666666666668</ele><time>2026-05-03T15:47:49.156Z</time></trkpt><trkpt lat="44.1508879" lon="8.2876894"><ele>9.5</ele><time>2026-05-03T15:47:50.156Z</time></trkpt><trkpt lat="44.1508613" lon="8.2875778"><ele>9.333333333333334</ele><time>2026-05-03T15:47:51.156Z</time></trkpt><trkpt lat="44.1508417" lon="8.2874572"><ele>9.166666666666666</ele><time>2026-05-03T15:47:52.156Z</time></trkpt><trkpt lat="44.1508223" lon="8.2873336"><ele>9.0</ele><time>2026-05-03T15:47:53.158Z</time></trkpt><trkpt lat="44.1507987" lon="8.2872018"><ele>9.0</ele><time>2026-05-03T15:47:54.156Z</time></trkpt><trkpt lat="44.1507839" lon="8.2870566"><ele>9.0</ele><time>2026-05-03T15:47:55.156Z</time></trkpt><trkpt lat="44.1507838" lon="8.2868917"><ele>9.0</ele><time>2026-05-03T15:47:56.156Z</time></trkpt><trkpt lat="44.1507933" lon="8.2866926"><ele>9.0</ele><time>2026-05-03T15:47:57.157Z</time></trkpt><trkpt lat="44.1508044" lon="8.2864746"><ele>8.333333333333334</ele><time>2026-05-03T15:47:58.156Z</time></trkpt><trkpt lat="44.1508137" lon="8.2862377"><ele>7.666666666666667</ele><time>2026-05-03T15:47:59.156Z</time></trkpt><trkpt lat="44.1508203" lon="8.2860015"><ele>7.0</ele><time>2026-05-03T15:48:00.156Z</time></trkpt><trkpt lat="44.1508199" lon="8.285747"><ele>7.0</ele><time>2026-05-03T15:48:01.157Z</time></trkpt><trkpt lat="44.1508085" lon="8.2854811"><ele>7.0</ele><time>2026-05-03T15:48:02.156Z</time></trkpt><trkpt lat="44.1507797" lon="8.2852068"><ele>7.0</ele><time>2026-05-03T15:48:03.156Z</time></trkpt><trkpt lat="44.1507404" lon="8.2849318"><ele>8.0</ele><time>2026-05-03T15:48:04.156Z</time></trkpt><trkpt lat="44.1506989" lon="8.2846726"><ele>9.0</ele><time>2026-05-03T15:48:05.156Z</time></trkpt><trkpt lat="44.1506578" lon="8.2844325"><ele>10.0</ele><time>2026-05-03T15:48:06.156Z</time></trkpt><trkpt lat="44.150616" lon="8.2842182"><ele>10.0</ele><time>2026-05-03T15:48:07.156Z</time></trkpt><trkpt lat="44.150562" lon="8.2840289"><ele>10.0</ele><time>2026-05-03T15:48:08.156Z</time></trkpt><trkpt lat="44.1504957" lon="8.2838649"><ele>10.0</ele><time>2026-05-03T15:48:09.156Z</time></trkpt><trkpt lat="44.1504269" lon="8.2837205"><ele>10.0</ele><time>2026-05-03T15:48:10.156Z</time></trkpt><trkpt lat="44.150361" lon="8.2835931"><ele>10.666666666666668</ele><time>2026-05-03T15:48:11.156Z</time></trkpt><trkpt lat="44.1502991" lon="8.2834791"><ele>11.333333333333334</ele><time>2026-05-03T15:48:12.156Z</time></trkpt><trkpt lat="44.1502374" lon="8.2833779"><ele>12.0</ele><time>2026-05-03T15:48:13.156Z</time></trkpt><trkpt lat="44.1501775" lon="8.2832916"><ele>12.666666666666668</ele><time>2026-05-03T15:48:14.156Z</time></trkpt><trkpt lat="44.1501197" lon="8.2832092"><ele>13.333333333333334</ele><time>2026-05-03T15:48:15.156Z</time></trkpt><trkpt lat="44.1500668" lon="8.2831329"><ele>14.0</ele><time>2026-05-03T15:48:16.156Z</time></trkpt><trkpt lat="44.1500206" lon="8.2830489"><ele>14.833333333333334</ele><time>2026-05-03T15:48:17.157Z</time></trkpt><trkpt lat="44.1499854" lon="8.2829597"><ele>15.666666666666668</ele><time>2026-05-03T15:48:18.156Z</time></trkpt><trkpt lat="44.149958" lon="8.2828666"><ele>16.5</ele><time>2026-05-03T15:48:19.156Z</time></trkpt><trkpt lat="44.1499383" lon="8.2827806"><ele>17.333333333333332</ele><time>2026-05-03T15:48:20.156Z</time></trkpt><trkpt lat="44.1499132" lon="8.2826286"><ele>18.166666666666664</ele><time>2026-05-03T15:48:22.156Z</time></trkpt><trkpt lat="44.1499124" lon="8.2824933"><ele>19.0</ele><time>2026-05-03T15:48:24.156Z</time></trkpt><trkpt lat="44.149884" lon="8.282345"><ele>18.166666666666664</ele><time>2026-05-03T15:48:26.156Z</time></trkpt><trkpt lat="44.1498482" lon="8.2822633"><ele>17.333333333333332</ele><time>2026-05-03T15:48:27.156Z</time></trkpt><trkpt lat="44.1498048" lon="8.2821828"><ele>16.5</ele><time>2026-05-03T15:48:28.156Z</time></trkpt><trkpt lat="44.1497595" lon="8.2821056"><ele>15.666666666666668</ele><time>2026-05-03T15:48:29.156Z</time></trkpt><trkpt lat="44.149707" lon="8.2820265"><ele>14.833333333333334</ele><time>2026-05-03T15:48:30.156Z</time></trkpt><trkpt lat="44.1496464" lon="8.2819443"><ele>14.0</ele><time>2026-05-03T15:48:31.156Z</time></trkpt><trkpt lat="44.1495839" lon="8.2818619"><ele>14.0</ele><time>2026-05-03T15:48:32.156Z</time></trkpt><trkpt lat="44.1495151" lon="8.2817724"><ele>13.999999999999998</ele><time>2026-05-03T15:48:33.156Z</time></trkpt><trkpt lat="44.1494407" lon="8.2816741"><ele>13.999999999999998</ele><time>2026-05-03T15:48:34.156Z</time></trkpt><trkpt lat="44.1493681" lon="8.2815721"><ele>14.0</ele><time>2026-05-03T15:48:35.157Z</time></trkpt><trkpt lat="44.1492982" lon="8.281475"><ele>14.0</ele><time>2026-05-03T15:48:36.156Z</time></trkpt><trkpt lat="44.1492288" lon="8.2813825"><ele>13.2</ele><time>2026-05-03T15:48:37.156Z</time></trkpt><trkpt lat="44.1491557" lon="8.2812843"><ele>12.399999999999999</ele><time>2026-05-03T15:48:38.157Z</time></trkpt><trkpt lat="44.1490802" lon="8.2811824"><ele>11.6</ele><time>2026-05-03T15:48:39.156Z</time></trkpt><trkpt lat="44.1490026" lon="8.2810723"><ele>10.8</ele><time>2026-05-03T15:48:40.156Z</time></trkpt><trkpt lat="44.1489331" lon="8.2809618"><ele>10.0</ele><time>2026-05-03T15:48:41.156Z</time></trkpt><trkpt lat="44.1488746" lon="8.2808495"><ele>10.0</ele><time>2026-05-03T15:48:42.156Z</time></trkpt><trkpt lat="44.1488278" lon="8.2807381"><ele>10.0</ele><time>2026-05-03T15:48:43.156Z</time></trkpt><trkpt lat="44.1487889" lon="8.2806217"><ele>10.0</ele><time>2026-05-03T15:48:44.156Z</time></trkpt><trkpt lat="44.1487582" lon="8.2804968"><ele>10.0</ele><time>2026-05-03T15:48:45.157Z</time></trkpt><trkpt lat="44.1487255" lon="8.2803678"><ele>10.0</ele><time>2026-05-03T15:48:46.157Z</time></trkpt><trkpt lat="44.1486907" lon="8.2802387"><ele>10.6</ele><time>2026-05-03T15:48:47.156Z</time></trkpt><trkpt lat="44.1486524" lon="8.2801057"><ele>11.2</ele><time>2026-05-03T15:48:48.156Z</time></trkpt><trkpt lat="44.1486165" lon="8.2799694"><ele>11.8</ele><time>2026-05-03T15:48:49.157Z</time></trkpt><trkpt lat="44.1485843" lon="8.2798385"><ele>12.4</ele><time>2026-05-03T15:48:50.157Z</time></trkpt><trkpt lat="44.1485514" lon="8.2797083"><ele>13.0</ele><time>2026-05-03T15:48:51.156Z</time></trkpt><trkpt lat="44.1485127" lon="8.2795835"><ele>13.2</ele><time>2026-05-03T15:48:52.156Z</time></trkpt><trkpt lat="44.1484659" lon="8.279468"><ele>13.4</ele><time>2026-05-03T15:48:53.156Z</time></trkpt><trkpt lat="44.1484174" lon="8.2793561"><ele>13.599999999999998</ele><time>2026-05-03T15:48:54.156Z</time></trkpt><trkpt lat="44.148369" lon="8.2792406"><ele>13.799999999999999</ele><time>2026-05-03T15:48:55.156Z</time></trkpt><trkpt lat="44.1483231" lon="8.2791319"><ele>14.0</ele><time>2026-05-03T15:48:56.156Z</time></trkpt><trkpt lat="44.1482795" lon="8.2790216"><ele>13.666666666666668</ele><time>2026-05-03T15:48:57.157Z</time></trkpt><trkpt lat="44.1482366" lon="8.2789118"><ele>13.333333333333334</ele><time>2026-05-03T15:48:58.156Z</time></trkpt><trkpt lat="44.148195" lon="8.2788139"><ele>13.0</ele><time>2026-05-03T15:48:59.156Z</time></trkpt><trkpt lat="44.1481547" lon="8.2787215"><ele>12.666666666666668</ele><time>2026-05-03T15:49:00.156Z</time></trkpt><trkpt lat="44.1481131" lon="8.2786391"><ele>12.333333333333334</ele><time>2026-05-03T15:49:01.156Z</time></trkpt><trkpt lat="44.1480713" lon="8.2785532"><ele>12.0</ele><time>2026-05-03T15:49:02.157Z</time></trkpt><trkpt lat="44.148029" lon="8.2784567"><ele>12.0</ele><time>2026-05-03T15:49:03.156Z</time></trkpt><trkpt lat="44.1479826" lon="8.2783569"><ele>12.0</ele><time>2026-05-03T15:49:04.156Z</time></trkpt><trkpt lat="44.1479358" lon="8.2782623"><ele>12.0</ele><time>2026-05-03T15:49:05.157Z</time></trkpt><trkpt lat="44.1478848" lon="8.2781817"><ele>12.0</ele><time>2026-05-03T15:49:06.156Z</time></trkpt><trkpt lat="44.1478243" lon="8.2781037"><ele>12.0</ele><time>2026-05-03T15:49:07.156Z</time></trkpt><trkpt lat="44.1477588" lon="8.2780291"><ele>12.0</ele><time>2026-05-03T15:49:08.156Z</time></trkpt><trkpt lat="44.1476929" lon="8.277957"><ele>11.999999999999998</ele><time>2026-05-03T15:49:09.156Z</time></trkpt><trkpt lat="44.147623" lon="8.2778979"><ele>12.0</ele><time>2026-05-03T15:49:10.156Z</time></trkpt><trkpt lat="44.1475537" lon="8.2778532"><ele>12.0</ele><time>2026-05-03T15:49:11.156Z</time></trkpt><trkpt lat="44.1474833" lon="8.2778161"><ele>12.0</ele><time>2026-05-03T15:49:12.156Z</time></trkpt><trkpt lat="44.1474159" lon="8.2777834"><ele>12.0</ele><time>2026-05-03T15:49:13.156Z</time></trkpt><trkpt lat="44.1473511" lon="8.2777509"><ele>11.999999999999998</ele><time>2026-05-03T15:49:14.156Z</time></trkpt><trkpt lat="44.1472884" lon="8.2777239"><ele>12.0</ele><time>2026-05-03T15:49:15.157Z</time></trkpt><trkpt lat="44.1471768" lon="8.2776698"><ele>11.0</ele><time>2026-05-03T15:49:17.156Z</time></trkpt><trkpt lat="44.1470598" lon="8.2776117"><ele>10.0</ele><time>2026-05-03T15:49:19.156Z</time></trkpt><trkpt lat="44.1469956" lon="8.2775808"><ele>9.0</ele><time>2026-05-03T15:49:20.156Z</time></trkpt><trkpt lat="44.1469322" lon="8.2775492"><ele>8.0</ele><time>2026-05-03T15:49:21.156Z</time></trkpt><trkpt lat="44.1468169" lon="8.2774866"><ele>7.0</ele><time>2026-05-03T15:49:23.156Z</time></trkpt><trkpt lat="44.1467111" lon="8.2774351"><ele>7.0</ele><time>2026-05-03T15:49:25.156Z</time></trkpt><trkpt lat="44.1465888" lon="8.2773777"><ele>6.999999999999999</ele><time>2026-05-03T15:49:27.157Z</time></trkpt><trkpt lat="44.1465145" lon="8.2773461"><ele>6.999999999999999</ele><time>2026-05-03T15:49:28.156Z</time></trkpt><trkpt lat="44.1464298" lon="8.2773074"><ele>7.0</ele><time>2026-05-03T15:49:29.156Z</time></trkpt><trkpt lat="44.1463437" lon="8.2772666"><ele>7.0</ele><time>2026-05-03T15:49:30.156Z</time></trkpt><trkpt lat="44.1462566" lon="8.2772231"><ele>6.8</ele><time>2026-05-03T15:49:31.156Z</time></trkpt><trkpt lat="44.1461701" lon="8.2771752"><ele>6.6</ele><time>2026-05-03T15:49:32.157Z</time></trkpt><trkpt lat="44.1460839" lon="8.2771215"><ele>6.3999999999999995</ele><time>2026-05-03T15:49:33.156Z</time></trkpt><trkpt lat="44.1460027" lon="8.2770631"><ele>6.199999999999999</ele><time>2026-05-03T15:49:34.156Z</time></trkpt><trkpt lat="44.145928" lon="8.276997"><ele>6.0</ele><time>2026-05-03T15:49:35.157Z</time></trkpt><trkpt lat="44.145851" lon="8.2769334"><ele>6.0</ele><time>2026-05-03T15:49:36.156Z</time></trkpt><trkpt lat="44.1457822" lon="8.2768677"><ele>6.0</ele><time>2026-05-03T15:49:37.157Z</time></trkpt><trkpt lat="44.1457159" lon="8.2767998"><ele>6.0</ele><time>2026-05-03T15:49:38.156Z</time></trkpt><trkpt lat="44.1456532" lon="8.2767212"><ele>6.0</ele><time>2026-05-03T15:49:39.156Z</time></trkpt><trkpt lat="44.1455858" lon="8.2766527"><ele>6.0</ele><time>2026-05-03T15:49:40.156Z</time></trkpt><trkpt lat="44.1455166" lon="8.2765772"><ele>6.0</ele><time>2026-05-03T15:49:41.156Z</time></trkpt><trkpt lat="44.1454424" lon="8.276497"><ele>6.0</ele><time>2026-05-03T15:49:42.156Z</time></trkpt><trkpt lat="44.1453715" lon="8.276416"><ele>6.0</ele><time>2026-05-03T15:49:43.156Z</time></trkpt><trkpt lat="44.1453003" lon="8.2763332"><ele>6.0</ele><time>2026-05-03T15:49:44.157Z</time></trkpt><trkpt lat="44.1452322" lon="8.2762458"><ele>6.0</ele><time>2026-05-03T15:49:45.156Z</time></trkpt><trkpt lat="44.1451635" lon="8.2761576"><ele>6.0</ele><time>2026-05-03T15:49:46.157Z</time></trkpt><trkpt lat="44.1450891" lon="8.2760625"><ele>6.0</ele><time>2026-05-03T15:49:47.156Z</time></trkpt><trkpt lat="44.1450144" lon="8.2759628"><ele>6.0</ele><time>2026-05-03T15:49:48.157Z</time></trkpt><trkpt lat="44.1449377" lon="8.2758673"><ele>6.0</ele><time>2026-05-03T15:49:49.156Z</time></trkpt><trkpt lat="44.1448578" lon="8.2757724"><ele>6.0</ele><time>2026-05-03T15:49:50.157Z</time></trkpt><trkpt lat="44.1447839" lon="8.2756685"><ele>6.0</ele><time>2026-05-03T15:49:51.156Z</time></trkpt><trkpt lat="44.1447131" lon="8.2755715"><ele>5.666666666666667</ele><time>2026-05-03T15:49:52.156Z</time></trkpt><trkpt lat="44.1446447" lon="8.2754777"><ele>5.333333333333333</ele><time>2026-05-03T15:49:53.157Z</time></trkpt><trkpt lat="44.1445885" lon="8.27539"><ele>5.0</ele><time>2026-05-03T15:49:54.157Z</time></trkpt><trkpt lat="44.1445521" lon="8.2752926"><ele>4.666666666666666</ele><time>2026-05-03T15:49:55.156Z</time></trkpt><trkpt lat="44.1445449" lon="8.2752018"><ele>4.333333333333333</ele><time>2026-05-03T15:49:56.156Z</time></trkpt><trkpt lat="44.1445571" lon="8.2751029"><ele>4.0</ele><time>2026-05-03T15:49:58.156Z</time></trkpt><trkpt lat="44.1445566" lon="8.2749668"><ele>4.0</ele><time>2026-05-03T15:50:01.157Z</time></trkpt><trkpt lat="44.1445055" lon="8.2748652"><ele>4.0</ele><time>2026-05-03T15:50:03.156Z</time></trkpt><trkpt lat="44.1444028" lon="8.2748434"><ele>4.0</ele><time>2026-05-03T15:50:05.157Z</time></trkpt><trkpt lat="44.1442774" lon="8.2748139"><ele>4.0</ele><time>2026-05-03T15:50:07.156Z</time></trkpt><trkpt lat="44.1442128" lon="8.2747694"><ele>4.0</ele><time>2026-05-03T15:50:08.157Z</time></trkpt><trkpt lat="44.1441501" lon="8.2747172"><ele>4.166666666666666</ele><time>2026-05-03T15:50:09.156Z</time></trkpt><trkpt lat="44.1440992" lon="8.2746577"><ele>4.333333333333333</ele><time>2026-05-03T15:50:10.156Z</time></trkpt><trkpt lat="44.1440069" lon="8.2745368"><ele>4.5</ele><time>2026-05-03T15:50:12.157Z</time></trkpt><trkpt lat="44.1439568" lon="8.2744693"><ele>4.666666666666667</ele><time>2026-05-03T15:50:13.156Z</time></trkpt><trkpt lat="44.1439074" lon="8.2743981"><ele>4.833333333333334</ele><time>2026-05-03T15:50:14.156Z</time></trkpt><trkpt lat="44.1438594" lon="8.2743234"><ele>5.0</ele><time>2026-05-03T15:50:15.156Z</time></trkpt><trkpt lat="44.1438037" lon="8.2742516"><ele>5.0</ele><time>2026-05-03T15:50:16.156Z</time></trkpt><trkpt lat="44.1437494" lon="8.2741737"><ele>5.0</ele><time>2026-05-03T15:50:17.156Z</time></trkpt><trkpt lat="44.1436934" lon="8.2740978"><ele>5.0</ele><time>2026-05-03T15:50:18.156Z</time></trkpt><trkpt lat="44.1436339" lon="8.274023"><ele>5.0</ele><time>2026-05-03T15:50:19.156Z</time></trkpt><trkpt lat="44.1435751" lon="8.2739455"><ele>5.0</ele><time>2026-05-03T15:50:20.157Z</time></trkpt><trkpt lat="44.1435115" lon="8.2738631"><ele>5.0</ele><time>2026-05-03T15:50:21.156Z</time></trkpt><trkpt lat="44.1434497" lon="8.2737836"><ele>5.0</ele><time>2026-05-03T15:50:22.157Z</time></trkpt><trkpt lat="44.1433942" lon="8.2737057"><ele>5.0</ele><time>2026-05-03T15:50:23.157Z</time></trkpt><trkpt lat="44.1433397" lon="8.2736352"><ele>5.0</ele><time>2026-05-03T15:50:24.156Z</time></trkpt><trkpt lat="44.1432818" lon="8.273568"><ele>5.0</ele><time>2026-05-03T15:50:25.156Z</time></trkpt><trkpt lat="44.1432337" lon="8.2735041"><ele>5.0</ele><time>2026-05-03T15:50:26.156Z</time></trkpt><trkpt lat="44.1431463" lon="8.2733892"><ele>5.0</ele><time>2026-05-03T15:50:28.156Z</time></trkpt><trkpt lat="44.143057" lon="8.2732814"><ele>4.857142857142857</ele><time>2026-05-03T15:50:30.156Z</time></trkpt><trkpt lat="44.143009" lon="8.2732123"><ele>4.714285714285714</ele><time>2026-05-03T15:50:31.156Z</time></trkpt><trkpt lat="44.1429657" lon="8.2731284"><ele>4.571428571428571</ele><time>2026-05-03T15:50:32.156Z</time></trkpt><trkpt lat="44.1429452" lon="8.2730229"><ele>4.428571428571429</ele><time>2026-05-03T15:50:33.156Z</time></trkpt><trkpt lat="44.14294" lon="8.2729108"><ele>4.285714285714286</ele><time>2026-05-03T15:50:34.156Z</time></trkpt><trkpt lat="44.1429372" lon="8.2728092"><ele>4.142857142857142</ele><time>2026-05-03T15:50:35.156Z</time></trkpt><trkpt lat="44.1429159" lon="8.2727173"><ele>4.0</ele><time>2026-05-03T15:50:36.156Z</time></trkpt><trkpt lat="44.1428208" lon="8.272632"><ele>3.833333333333333</ele><time>2026-05-03T15:50:38.157Z</time></trkpt><trkpt lat="44.1427249" lon="8.2726588"><ele>3.6666666666666665</ele><time>2026-05-03T15:50:40.156Z</time></trkpt><trkpt lat="44.1426" lon="8.2726334"><ele>3.5</ele><time>2026-05-03T15:50:42.156Z</time></trkpt><trkpt lat="44.142542" lon="8.2725972"><ele>3.333333333333333</ele><time>2026-05-03T15:50:43.156Z</time></trkpt><trkpt lat="44.1424894" lon="8.2725415"><ele>3.1666666666666665</ele><time>2026-05-03T15:50:44.156Z</time></trkpt><trkpt lat="44.1424377" lon="8.2724828"><ele>3.0</ele><time>2026-05-03T15:50:45.156Z</time></trkpt><trkpt lat="44.1423851" lon="8.2724236"><ele>3.0</ele><time>2026-05-03T15:50:46.156Z</time></trkpt><trkpt lat="44.1423349" lon="8.2723685"><ele>3.0</ele><time>2026-05-03T15:50:47.156Z</time></trkpt><trkpt lat="44.1422456" lon="8.2722696"><ele>3.0</ele><time>2026-05-03T15:50:49.156Z</time></trkpt><trkpt lat="44.1421556" lon="8.2721639"><ele>3.0</ele><time>2026-05-03T15:50:51.157Z</time></trkpt><trkpt lat="44.1421013" lon="8.2720951"><ele>3.0</ele><time>2026-05-03T15:50:52.156Z</time></trkpt><trkpt lat="44.1420416" lon="8.2720066"><ele>3.2</ele><time>2026-05-03T15:50:53.156Z</time></trkpt><trkpt lat="44.1419693" lon="8.2719095"><ele>3.4</ele><time>2026-05-03T15:50:54.156Z</time></trkpt><trkpt lat="44.1418994" lon="8.2718203"><ele>3.6000000000000005</ele><time>2026-05-03T15:50:55.156Z</time></trkpt><trkpt lat="44.1418284" lon="8.2717231"><ele>3.8000000000000003</ele><time>2026-05-03T15:50:56.157Z</time></trkpt><trkpt lat="44.1417527" lon="8.2716195"><ele>4.0</ele><time>2026-05-03T15:50:57.156Z</time></trkpt><trkpt lat="44.1416721" lon="8.2715194"><ele>4.0</ele><time>2026-05-03T15:50:58.157Z</time></trkpt><trkpt lat="44.141588" lon="8.2714094"><ele>4.0</ele><time>2026-05-03T15:50:59.156Z</time></trkpt><trkpt lat="44.141501" lon="8.2713017"><ele>4.0</ele><time>2026-05-03T15:51:00.156Z</time></trkpt><trkpt lat="44.1414173" lon="8.2711919"><ele>4.0</ele><time>2026-05-03T15:51:01.156Z</time></trkpt><trkpt lat="44.1413384" lon="8.2710896"><ele>4.0</ele><time>2026-05-03T15:51:02.157Z</time></trkpt><trkpt lat="44.1412637" lon="8.2709966"><ele>4.0</ele><time>2026-05-03T15:51:03.156Z</time></trkpt><trkpt lat="44.1411947" lon="8.2709087"><ele>4.0</ele><time>2026-05-03T15:51:04.156Z</time></trkpt><trkpt lat="44.1411281" lon="8.270824"><ele>4.0</ele><time>2026-05-03T15:51:05.156Z</time></trkpt><trkpt lat="44.1410646" lon="8.2707379"><ele>4.0</ele><time>2026-05-03T15:51:06.157Z</time></trkpt><trkpt lat="44.1410014" lon="8.2706561"><ele>3.9999999999999996</ele><time>2026-05-03T15:51:07.156Z</time></trkpt><trkpt lat="44.1409391" lon="8.2705709"><ele>4.0</ele><time>2026-05-03T15:51:08.157Z</time></trkpt><trkpt lat="44.1408775" lon="8.2704885"><ele>4.0</ele><time>2026-05-03T15:51:09.157Z</time></trkpt><trkpt lat="44.1408127" lon="8.2704092"><ele>4.0</ele><time>2026-05-03T15:51:10.156Z</time></trkpt><trkpt lat="44.1407535" lon="8.2703319"><ele>3.9999999999999996</ele><time>2026-05-03T15:51:11.156Z</time></trkpt><trkpt lat="44.1406958" lon="8.2702604"><ele>4.0</ele><time>2026-05-03T15:51:12.156Z</time></trkpt><trkpt lat="44.1406405" lon="8.27019"><ele>3.833333333333333</ele><time>2026-05-03T15:51:13.156Z</time></trkpt><trkpt lat="44.140587" lon="8.2701137"><ele>3.6666666666666665</ele><time>2026-05-03T15:51:14.156Z</time></trkpt><trkpt lat="44.1405326" lon="8.2700391"><ele>3.5</ele><time>2026-05-03T15:51:15.157Z</time></trkpt><trkpt lat="44.1404721" lon="8.2699633"><ele>3.333333333333333</ele><time>2026-05-03T15:51:16.156Z</time></trkpt><trkpt lat="44.1404103" lon="8.269882"><ele>3.1666666666666665</ele><time>2026-05-03T15:51:17.156Z</time></trkpt><trkpt lat="44.140348" lon="8.2697964"><ele>3.0</ele><time>2026-05-03T15:51:18.156Z</time></trkpt><trkpt lat="44.1402847" lon="8.269713"><ele>3.0</ele><time>2026-05-03T15:51:19.156Z</time></trkpt><trkpt lat="44.1402216" lon="8.2696316"><ele>3.0</ele><time>2026-05-03T15:51:20.157Z</time></trkpt><trkpt lat="44.1401556" lon="8.2695431"><ele>3.0</ele><time>2026-05-03T15:51:21.156Z</time></trkpt><trkpt lat="44.140089" lon="8.2694586"><ele>3.0</ele><time>2026-05-03T15:51:22.156Z</time></trkpt><trkpt lat="44.14002" lon="8.2693709"><ele>3.0</ele><time>2026-05-03T15:51:23.156Z</time></trkpt><trkpt lat="44.139948" lon="8.2692853"><ele>2.8</ele><time>2026-05-03T15:51:24.156Z</time></trkpt><trkpt lat="44.1398722" lon="8.269197"><ele>2.5999999999999996</ele><time>2026-05-03T15:51:25.156Z</time></trkpt><trkpt lat="44.139795" lon="8.2691087"><ele>2.4000000000000004</ele><time>2026-05-03T15:51:26.156Z</time></trkpt><trkpt lat="44.1397207" lon="8.2690224"><ele>2.2</ele><time>2026-05-03T15:51:27.156Z</time></trkpt><trkpt lat="44.1396518" lon="8.2689326"><ele>2.0</ele><time>2026-05-03T15:51:28.156Z</time></trkpt><trkpt lat="44.1395868" lon="8.2688559"><ele>2.5</ele><time>2026-05-03T15:51:29.156Z</time></trkpt><trkpt lat="44.1395268" lon="8.2687878"><ele>3.0</ele><time>2026-05-03T15:51:30.156Z</time></trkpt><trkpt lat="44.1394667" lon="8.2687218"><ele>3.5</ele><time>2026-05-03T15:51:31.156Z</time></trkpt><trkpt lat="44.1394096" lon="8.2686551"><ele>4.0</ele><time>2026-05-03T15:51:32.156Z</time></trkpt><trkpt lat="44.1393425" lon="8.2685865"><ele>4.5</ele><time>2026-05-03T15:51:33.157Z</time></trkpt><trkpt lat="44.1392711" lon="8.2685155"><ele>5.0</ele><time>2026-05-03T15:51:34.156Z</time></trkpt><trkpt lat="44.1391962" lon="8.2684378"><ele>5.0</ele><time>2026-05-03T15:51:35.156Z</time></trkpt><trkpt lat="44.1391259" lon="8.2683712"><ele>5.0</ele><time>2026-05-03T15:51:36.156Z</time></trkpt><trkpt lat="44.1390626" lon="8.2683103"><ele>5.0</ele><time>2026-05-03T15:51:37.156Z</time></trkpt><trkpt lat="44.1389993" lon="8.268257"><ele>5.0</ele><time>2026-05-03T15:51:38.156Z</time></trkpt><trkpt lat="44.1389364" lon="8.2681976"><ele>5.0</ele><time>2026-05-03T15:51:39.156Z</time></trkpt><trkpt lat="44.1388784" lon="8.2681495"><ele>5.0</ele><time>2026-05-03T15:51:40.156Z</time></trkpt><trkpt lat="44.1388145" lon="8.2680923"><ele>4.666666666666667</ele><time>2026-05-03T15:51:41.156Z</time></trkpt><trkpt lat="44.138746" lon="8.2680256"><ele>4.333333333333334</ele><time>2026-05-03T15:51:42.157Z</time></trkpt><trkpt lat="44.1386735" lon="8.2679588"><ele>4.0</ele><time>2026-05-03T15:51:43.156Z</time></trkpt><trkpt lat="44.1385991" lon="8.2678922"><ele>3.666666666666667</ele><time>2026-05-03T15:51:44.156Z</time></trkpt><trkpt lat="44.1385188" lon="8.2678222"><ele>3.3333333333333335</ele><time>2026-05-03T15:51:45.156Z</time></trkpt><trkpt lat="44.138446" lon="8.2677546"><ele>3.0</ele><time>2026-05-03T15:51:46.156Z</time></trkpt><trkpt lat="44.1383755" lon="8.2676875"><ele>3.0</ele><time>2026-05-03T15:51:47.157Z</time></trkpt><trkpt lat="44.1383105" lon="8.2676298"><ele>3.0</ele><time>2026-05-03T15:51:48.157Z</time></trkpt><trkpt lat="44.1382481" lon="8.267565"><ele>3.0</ele><time>2026-05-03T15:51:49.156Z</time></trkpt><trkpt lat="44.1381894" lon="8.2674954"><ele>3.0</ele><time>2026-05-03T15:51:50.156Z</time></trkpt><trkpt lat="44.1381198" lon="8.2674337"><ele>3.0</ele><time>2026-05-03T15:51:51.156Z</time></trkpt><trkpt lat="44.1380442" lon="8.2673647"><ele>3.0</ele><time>2026-05-03T15:51:52.156Z</time></trkpt><trkpt lat="44.1379626" lon="8.2672975"><ele>3.0</ele><time>2026-05-03T15:51:53.156Z</time></trkpt><trkpt lat="44.1378779" lon="8.2672177"><ele>3.0</ele><time>2026-05-03T15:51:54.156Z</time></trkpt><trkpt lat="44.1377958" lon="8.2671377"><ele>3.0</ele><time>2026-05-03T15:51:55.156Z</time></trkpt><trkpt lat="44.1377185" lon="8.2670559"><ele>3.0</ele><time>2026-05-03T15:51:56.157Z</time></trkpt><trkpt lat="44.1376538" lon="8.2669806"><ele>3.0</ele><time>2026-05-03T15:51:57.156Z</time></trkpt><trkpt lat="44.1375947" lon="8.2669083"><ele>3.0</ele><time>2026-05-03T15:51:58.156Z</time></trkpt><trkpt lat="44.1375415" lon="8.2668434"><ele>3.0</ele><time>2026-05-03T15:51:59.157Z</time></trkpt><trkpt lat="44.1374955" lon="8.2667834"><ele>3.0</ele><time>2026-05-03T15:52:00.156Z</time></trkpt><trkpt lat="44.1374242" lon="8.2666675"><ele>3.0</ele><time>2026-05-03T15:52:02.156Z</time></trkpt><trkpt lat="44.1373512" lon="8.2665277"><ele>3.0</ele><time>2026-05-03T15:52:04.156Z</time></trkpt><trkpt lat="44.1373132" lon="8.2664528"><ele>3.0</ele><time>2026-05-03T15:52:05.156Z</time></trkpt><trkpt lat="44.137274" lon="8.2663731"><ele>3.0</ele><time>2026-05-03T15:52:06.156Z</time></trkpt><trkpt lat="44.1372325" lon="8.2662882"><ele>3.0</ele><time>2026-05-03T15:52:07.156Z</time></trkpt><trkpt lat="44.1371905" lon="8.2661965"><ele>3.0</ele><time>2026-05-03T15:52:08.156Z</time></trkpt><trkpt lat="44.1371513" lon="8.2660919"><ele>3.0</ele><time>2026-05-03T15:52:09.156Z</time></trkpt><trkpt lat="44.1370983" lon="8.2659755"><ele>3.0</ele><time>2026-05-03T15:52:10.156Z</time></trkpt><trkpt lat="44.1370482" lon="8.265863"><ele>3.0</ele><time>2026-05-03T15:52:11.156Z</time></trkpt><trkpt lat="44.1369964" lon="8.2657424"><ele>3.0</ele><time>2026-05-03T15:52:12.157Z</time></trkpt><trkpt lat="44.1369348" lon="8.2656211"><ele>3.0</ele><time>2026-05-03T15:52:13.156Z</time></trkpt><trkpt lat="44.1368753" lon="8.2655104"><ele>3.0</ele><time>2026-05-03T15:52:14.156Z</time></trkpt><trkpt lat="44.1368148" lon="8.2654068"><ele>3.0</ele><time>2026-05-03T15:52:15.156Z</time></trkpt><trkpt lat="44.1367514" lon="8.2653063"><ele>3.0</ele><time>2026-05-03T15:52:16.156Z</time></trkpt><trkpt lat="44.1366804" lon="8.2652134"><ele>3.0</ele><time>2026-05-03T15:52:17.156Z</time></trkpt><trkpt lat="44.1366075" lon="8.2651271"><ele>3.0</ele><time>2026-05-03T15:52:18.157Z</time></trkpt><trkpt lat="44.1365294" lon="8.2650418"><ele>3.0</ele><time>2026-05-03T15:52:19.156Z</time></trkpt><trkpt lat="44.1364521" lon="8.2649621"><ele>3.0</ele><time>2026-05-03T15:52:20.157Z</time></trkpt><trkpt lat="44.1363819" lon="8.2648896"><ele>3.0</ele><time>2026-05-03T15:52:21.156Z</time></trkpt><trkpt lat="44.1363101" lon="8.264824"><ele>3.3333333333333335</ele><time>2026-05-03T15:52:22.157Z</time></trkpt><trkpt lat="44.1362385" lon="8.2647613"><ele>3.666666666666667</ele><time>2026-05-03T15:52:23.156Z</time></trkpt><trkpt lat="44.1361696" lon="8.2646943"><ele>4.0</ele><time>2026-05-03T15:52:24.157Z</time></trkpt><trkpt lat="44.1360929" lon="8.2646219"><ele>4.333333333333334</ele><time>2026-05-03T15:52:25.156Z</time></trkpt><trkpt lat="44.1360166" lon="8.2645494"><ele>4.666666666666667</ele><time>2026-05-03T15:52:26.157Z</time></trkpt><trkpt lat="44.1359395" lon="8.2644822"><ele>5.0</ele><time>2026-05-03T15:52:27.156Z</time></trkpt><trkpt lat="44.1358649" lon="8.2644052"><ele>5.0</ele><time>2026-05-03T15:52:28.156Z</time></trkpt><trkpt lat="44.1357857" lon="8.2643285"><ele>5.0</ele><time>2026-05-03T15:52:29.156Z</time></trkpt><trkpt lat="44.1357087" lon="8.2642572"><ele>5.0</ele><time>2026-05-03T15:52:30.156Z</time></trkpt><trkpt lat="44.1356333" lon="8.2641849"><ele>5.0</ele><time>2026-05-03T15:52:31.156Z</time></trkpt><trkpt lat="44.1355564" lon="8.2641193"><ele>5.0</ele><time>2026-05-03T15:52:32.156Z</time></trkpt><trkpt lat="44.1354799" lon="8.2640469"><ele>5.166666666666667</ele><time>2026-05-03T15:52:33.156Z</time></trkpt><trkpt lat="44.1354074" lon="8.2639775"><ele>5.333333333333334</ele><time>2026-05-03T15:52:34.156Z</time></trkpt><trkpt lat="44.1353404" lon="8.2639096"><ele>5.5</ele><time>2026-05-03T15:52:35.156Z</time></trkpt><trkpt lat="44.1352711" lon="8.2638474"><ele>5.666666666666667</ele><time>2026-05-03T15:52:36.156Z</time></trkpt><trkpt lat="44.1352031" lon="8.2637909"><ele>5.833333333333333</ele><time>2026-05-03T15:52:37.157Z</time></trkpt><trkpt lat="44.1351349" lon="8.2637279"><ele>6.0</ele><time>2026-05-03T15:52:38.156Z</time></trkpt><trkpt lat="44.1350685" lon="8.2636671"><ele>5.7142857142857135</ele><time>2026-05-03T15:52:39.157Z</time></trkpt><trkpt lat="44.1350049" lon="8.2636107"><ele>5.428571428571429</ele><time>2026-05-03T15:52:40.156Z</time></trkpt><trkpt lat="44.1349428" lon="8.2635524"><ele>5.142857142857142</ele><time>2026-05-03T15:52:41.156Z</time></trkpt><trkpt lat="44.1348813" lon="8.2635016"><ele>4.857142857142857</ele><time>2026-05-03T15:52:42.157Z</time></trkpt><trkpt lat="44.1348248" lon="8.2634447"><ele>4.571428571428571</ele><time>2026-05-03T15:52:43.156Z</time></trkpt><trkpt lat="44.1347661" lon="8.2633843"><ele>4.285714285714286</ele><time>2026-05-03T15:52:44.157Z</time></trkpt><trkpt lat="44.1347018" lon="8.263317"><ele>4.0</ele><time>2026-05-03T15:52:45.156Z</time></trkpt><trkpt lat="44.1346381" lon="8.2632611"><ele>4.0</ele><time>2026-05-03T15:52:46.156Z</time></trkpt><trkpt lat="44.1345759" lon="8.263204"><ele>3.9999999999999996</ele><time>2026-05-03T15:52:47.156Z</time></trkpt><trkpt lat="44.1345102" lon="8.2631466"><ele>4.0</ele><time>2026-05-03T15:52:48.157Z</time></trkpt><trkpt lat="44.134445" lon="8.2630842"><ele>4.0</ele><time>2026-05-03T15:52:49.156Z</time></trkpt><trkpt lat="44.1343841" lon="8.2630263"><ele>3.9999999999999996</ele><time>2026-05-03T15:52:50.156Z</time></trkpt><trkpt lat="44.1343263" lon="8.2629725"><ele>4.0</ele><time>2026-05-03T15:52:51.156Z</time></trkpt><trkpt lat="44.1342663" lon="8.2629216"><ele>4.0</ele><time>2026-05-03T15:52:52.156Z</time></trkpt><trkpt lat="44.1342051" lon="8.2628672"><ele>3.833333333333333</ele><time>2026-05-03T15:52:53.156Z</time></trkpt><trkpt lat="44.134146" lon="8.2628091"><ele>3.6666666666666665</ele><time>2026-05-03T15:52:54.156Z</time></trkpt><trkpt lat="44.1340882" lon="8.2627535"><ele>3.5</ele><time>2026-05-03T15:52:55.156Z</time></trkpt><trkpt lat="44.1340337" lon="8.2627028"><ele>3.333333333333333</ele><time>2026-05-03T15:52:56.156Z</time></trkpt><trkpt lat="44.1339358" lon="8.2626099"><ele>3.1666666666666665</ele><time>2026-05-03T15:52:58.157Z</time></trkpt><trkpt lat="44.1338416" lon="8.2625234"><ele>3.0</ele><time>2026-05-03T15:53:00.157Z</time></trkpt><trkpt lat="44.1337501" lon="8.2624388"><ele>3.3333333333333335</ele><time>2026-05-03T15:53:02.156Z</time></trkpt><trkpt lat="44.1336509" lon="8.2623798"><ele>3.666666666666667</ele><time>2026-05-03T15:53:04.156Z</time></trkpt><trkpt lat="44.1335974" lon="8.2623294"><ele>4.0</ele><time>2026-05-03T15:53:05.156Z</time></trkpt><trkpt lat="44.1335401" lon="8.2622649"><ele>4.333333333333334</ele><time>2026-05-03T15:53:06.157Z</time></trkpt><trkpt lat="44.1334815" lon="8.2621956"><ele>4.666666666666667</ele><time>2026-05-03T15:53:07.156Z</time></trkpt><trkpt lat="44.133426" lon="8.2621321"><ele>5.0</ele><time>2026-05-03T15:53:08.156Z</time></trkpt><trkpt lat="44.1333715" lon="8.2620792"><ele>5.0</ele><time>2026-05-03T15:53:09.156Z</time></trkpt><trkpt lat="44.1333166" lon="8.2620337"><ele>5.0</ele><time>2026-05-03T15:53:10.156Z</time></trkpt><trkpt lat="44.1332594" lon="8.2619828"><ele>5.0</ele><time>2026-05-03T15:53:11.156Z</time></trkpt><trkpt lat="44.1332026" lon="8.2619304"><ele>5.0</ele><time>2026-05-03T15:53:12.156Z</time></trkpt><trkpt lat="44.1331472" lon="8.2618776"><ele>5.0</ele><time>2026-05-03T15:53:13.156Z</time></trkpt><trkpt lat="44.1330525" lon="8.261798"><ele>5.0</ele><time>2026-05-03T15:53:15.156Z</time></trkpt><trkpt lat="44.1329646" lon="8.2617169"><ele>5.0</ele><time>2026-05-03T15:53:17.156Z</time></trkpt><trkpt lat="44.1328571" lon="8.2616216"><ele>5.0</ele><time>2026-05-03T15:53:19.156Z</time></trkpt><trkpt lat="44.1327515" lon="8.261524"><ele>5.0</ele><time>2026-05-03T15:53:21.156Z</time></trkpt><trkpt lat="44.1326824" lon="8.2614714"><ele>5.0</ele><time>2026-05-03T15:53:22.156Z</time></trkpt><trkpt lat="44.1326192" lon="8.2614108"><ele>5.0</ele><time>2026-05-03T15:53:23.156Z</time></trkpt><trkpt lat="44.1325602" lon="8.2613551"><ele>5.0</ele><time>2026-05-03T15:53:24.156Z</time></trkpt><trkpt lat="44.1325023" lon="8.2613027"><ele>5.0</ele><time>2026-05-03T15:53:25.157Z</time></trkpt><trkpt lat="44.1324439" lon="8.2612496"><ele>5.0</ele><time>2026-05-03T15:53:26.156Z</time></trkpt><trkpt lat="44.1323872" lon="8.261192"><ele>5.0</ele><time>2026-05-03T15:53:27.157Z</time></trkpt><trkpt lat="44.1323299" lon="8.2611417"><ele>5.0</ele><time>2026-05-03T15:53:28.156Z</time></trkpt><trkpt lat="44.1322267" lon="8.2610452"><ele>5.0</ele><time>2026-05-03T15:53:30.157Z</time></trkpt><trkpt lat="44.1321412" lon="8.260955"><ele>5.8</ele><time>2026-05-03T15:53:32.156Z</time></trkpt><trkpt lat="44.1320446" lon="8.2608704"><ele>6.6</ele><time>2026-05-03T15:53:34.156Z</time></trkpt><trkpt lat="44.1319524" lon="8.2607881"><ele>7.4</ele><time>2026-05-03T15:53:36.156Z</time></trkpt><trkpt lat="44.1318617" lon="8.2606999"><ele>8.2</ele><time>2026-05-03T15:53:38.156Z</time></trkpt><trkpt lat="44.1317772" lon="8.2606216"><ele>9.0</ele><time>2026-05-03T15:53:40.157Z</time></trkpt><trkpt lat="44.1316714" lon="8.2605315"><ele>9.000000000000002</ele><time>2026-05-03T15:53:42.156Z</time></trkpt><trkpt lat="44.1316117" lon="8.2604789"><ele>9.0</ele><time>2026-05-03T15:53:43.156Z</time></trkpt><trkpt lat="44.1315539" lon="8.2604186"><ele>9.0</ele><time>2026-05-03T15:53:44.156Z</time></trkpt><trkpt lat="44.1314927" lon="8.2603569"><ele>9.0</ele><time>2026-05-03T15:53:45.157Z</time></trkpt><trkpt lat="44.1314288" lon="8.260304"><ele>9.0</ele><time>2026-05-03T15:53:46.156Z</time></trkpt><trkpt lat="44.1313646" lon="8.2602573"><ele>9.000000000000002</ele><time>2026-05-03T15:53:47.157Z</time></trkpt><trkpt lat="44.1313027" lon="8.2602103"><ele>9.0</ele><time>2026-05-03T15:53:48.156Z</time></trkpt><trkpt lat="44.1312399" lon="8.2601584"><ele>8.833333333333334</ele><time>2026-05-03T15:53:49.157Z</time></trkpt><trkpt lat="44.1311756" lon="8.2601023"><ele>8.666666666666666</ele><time>2026-05-03T15:53:50.156Z</time></trkpt><trkpt lat="44.1311155" lon="8.2600506"><ele>8.5</ele><time>2026-05-03T15:53:51.157Z</time></trkpt><trkpt lat="44.1310528" lon="8.2600065"><ele>8.333333333333332</ele><time>2026-05-03T15:53:52.156Z</time></trkpt><trkpt lat="44.1309843" lon="8.2599607"><ele>8.166666666666666</ele><time>2026-05-03T15:53:53.156Z</time></trkpt><trkpt lat="44.1309156" lon="8.2599081"><ele>8.0</ele><time>2026-05-03T15:53:54.156Z</time></trkpt><trkpt lat="44.130845" lon="8.2598534"><ele>8.0</ele><time>2026-05-03T15:53:55.157Z</time></trkpt><trkpt lat="44.1307756" lon="8.259799"><ele>7.999999999999999</ele><time>2026-05-03T15:53:56.156Z</time></trkpt><trkpt lat="44.1307117" lon="8.2597342"><ele>8.0</ele><time>2026-05-03T15:53:57.156Z</time></trkpt><trkpt lat="44.1306482" lon="8.2596837"><ele>8.0</ele><time>2026-05-03T15:53:58.156Z</time></trkpt><trkpt lat="44.1305845" lon="8.2596366"><ele>7.999999999999999</ele><time>2026-05-03T15:53:59.156Z</time></trkpt><trkpt lat="44.130523" lon="8.2595854"><ele>8.0</ele><time>2026-05-03T15:54:00.156Z</time></trkpt><trkpt lat="44.130461" lon="8.2595317"><ele>8.0</ele><time>2026-05-03T15:54:01.156Z</time></trkpt><trkpt lat="44.1303981" lon="8.2594762"><ele>7.857142857142857</ele><time>2026-05-03T15:54:02.157Z</time></trkpt><trkpt lat="44.1303411" lon="8.2594309"><ele>7.7142857142857135</ele><time>2026-05-03T15:54:03.156Z</time></trkpt><trkpt lat="44.130284" lon="8.2593891"><ele>7.571428571428571</ele><time>2026-05-03T15:54:04.157Z</time></trkpt><trkpt lat="44.1302278" lon="8.2593431"><ele>7.428571428571429</ele><time>2026-05-03T15:54:05.156Z</time></trkpt><trkpt lat="44.1301655" lon="8.2592933"><ele>7.285714285714286</ele><time>2026-05-03T15:54:06.157Z</time></trkpt><trkpt lat="44.1301028" lon="8.2592407"><ele>7.142857142857142</ele><time>2026-05-03T15:54:07.156Z</time></trkpt><trkpt lat="44.1300449" lon="8.2591948"><ele>7.0</ele><time>2026-05-03T15:54:08.156Z</time></trkpt><trkpt lat="44.1299889" lon="8.2591499"><ele>7.0</ele><time>2026-05-03T15:54:09.156Z</time></trkpt><trkpt lat="44.1299317" lon="8.2591118"><ele>7.0</ele><time>2026-05-03T15:54:10.156Z</time></trkpt><trkpt lat="44.1298756" lon="8.2590666"><ele>7.0</ele><time>2026-05-03T15:54:11.156Z</time></trkpt><trkpt lat="44.1298189" lon="8.2590279"><ele>7.0</ele><time>2026-05-03T15:54:12.156Z</time></trkpt><trkpt lat="44.1297594" lon="8.2589855"><ele>7.0</ele><time>2026-05-03T15:54:13.156Z</time></trkpt><trkpt lat="44.1296971" lon="8.2589363"><ele>7.0</ele><time>2026-05-03T15:54:14.156Z</time></trkpt><trkpt lat="44.1296307" lon="8.2588909"><ele>7.0</ele><time>2026-05-03T15:54:15.156Z</time></trkpt><trkpt lat="44.1295685" lon="8.2588466"><ele>7.285714285714286</ele><time>2026-05-03T15:54:16.156Z</time></trkpt><trkpt lat="44.1295041" lon="8.2588057"><ele>7.571428571428571</ele><time>2026-05-03T15:54:17.156Z</time></trkpt><trkpt lat="44.1294388" lon="8.2587582"><ele>7.857142857142858</ele><time>2026-05-03T15:54:18.156Z</time></trkpt><trkpt lat="44.1293731" lon="8.2587093"><ele>8.142857142857142</ele><time>2026-05-03T15:54:19.156Z</time></trkpt><trkpt lat="44.1293051" lon="8.2586567"><ele>8.428571428571429</ele><time>2026-05-03T15:54:20.156Z</time></trkpt><trkpt lat="44.1292401" lon="8.2586054"><ele>8.714285714285715</ele><time>2026-05-03T15:54:21.156Z</time></trkpt><trkpt lat="44.1291741" lon="8.2585508"><ele>9.0</ele><time>2026-05-03T15:54:22.157Z</time></trkpt><trkpt lat="44.1291066" lon="8.2584987"><ele>9.142857142857144</ele><time>2026-05-03T15:54:23.156Z</time></trkpt><trkpt lat="44.1290454" lon="8.2584456"><ele>9.285714285714286</ele><time>2026-05-03T15:54:24.156Z</time></trkpt><trkpt lat="44.1289875" lon="8.2583939"><ele>9.428571428571429</ele><time>2026-05-03T15:54:25.156Z</time></trkpt><trkpt lat="44.1289292" lon="8.2583507"><ele>9.571428571428573</ele><time>2026-05-03T15:54:26.157Z</time></trkpt><trkpt lat="44.1288655" lon="8.2583029"><ele>9.714285714285715</ele><time>2026-05-03T15:54:27.156Z</time></trkpt><trkpt lat="44.1288016" lon="8.2582532"><ele>9.857142857142858</ele><time>2026-05-03T15:54:28.156Z</time></trkpt><trkpt lat="44.1287402" lon="8.2581963"><ele>10.0</ele><time>2026-05-03T15:54:29.157Z</time></trkpt><trkpt lat="44.1286306" lon="8.2581027"><ele>10.0</ele><time>2026-05-03T15:54:31.156Z</time></trkpt><trkpt lat="44.128573" lon="8.2580542"><ele>10.0</ele><time>2026-05-03T15:54:32.156Z</time></trkpt><trkpt lat="44.1284876" lon="8.2579672"><ele>10.0</ele><time>2026-05-03T15:54:34.157Z</time></trkpt><trkpt lat="44.1284192" lon="8.2578918"><ele>10.0</ele><time>2026-05-03T15:54:36.156Z</time></trkpt><trkpt lat="44.128371" lon="8.2577965"><ele>10.0</ele><time>2026-05-03T15:54:38.157Z</time></trkpt><trkpt lat="44.1283633" lon="8.2577054"><ele>10.0</ele><time>2026-05-03T15:54:40.156Z</time></trkpt><trkpt lat="44.1283491" lon="8.2576161"><ele>10.0</ele><time>2026-05-03T15:54:42.157Z</time></trkpt><trkpt lat="44.1282985" lon="8.2575433"><ele>10.0</ele><time>2026-05-03T15:54:44.156Z</time></trkpt><trkpt lat="44.1282191" lon="8.2575394"><ele>10.0</ele><time>2026-05-03T15:54:46.157Z</time></trkpt><trkpt lat="44.1281611" lon="8.2575744"><ele>10.0</ele><time>2026-05-03T15:54:48.157Z</time></trkpt><trkpt lat="44.1280786" lon="8.2575885"><ele>10.0</ele><time>2026-05-03T15:54:51.156Z</time></trkpt><trkpt lat="44.1279826" lon="8.2575586"><ele>10.0</ele><time>2026-05-03T15:54:53.156Z</time></trkpt><trkpt lat="44.127893" lon="8.257498"><ele>10.25</ele><time>2026-05-03T15:54:55.157Z</time></trkpt><trkpt lat="44.1277959" lon="8.2574199"><ele>10.5</ele><time>2026-05-03T15:54:57.157Z</time></trkpt><trkpt lat="44.1277004" lon="8.257334"><ele>10.75</ele><time>2026-05-03T15:54:59.156Z</time></trkpt><trkpt lat="44.1276091" lon="8.2572533"><ele>11.0</ele><time>2026-05-03T15:55:01.157Z</time></trkpt><trkpt lat="44.1275119" lon="8.257155"><ele>11.0</ele><time>2026-05-03T15:55:03.157Z</time></trkpt><trkpt lat="44.127461" lon="8.2570993"><ele>11.0</ele><time>2026-05-03T15:55:04.156Z</time></trkpt><trkpt lat="44.1274062" lon="8.2570403"><ele>11.0</ele><time>2026-05-03T15:55:05.156Z</time></trkpt><trkpt lat="44.1273479" lon="8.2569757"><ele>11.0</ele><time>2026-05-03T15:55:06.156Z</time></trkpt><trkpt lat="44.1272891" lon="8.2569154"><ele>11.0</ele><time>2026-05-03T15:55:07.156Z</time></trkpt><trkpt lat="44.127235" lon="8.2568588"><ele>11.0</ele><time>2026-05-03T15:55:08.156Z</time></trkpt><trkpt lat="44.1271788" lon="8.2568002"><ele>11.0</ele><time>2026-05-03T15:55:09.157Z</time></trkpt><trkpt lat="44.1271214" lon="8.2567353"><ele>11.0</ele><time>2026-05-03T15:55:10.156Z</time></trkpt><trkpt lat="44.1270617" lon="8.2566685"><ele>11.0</ele><time>2026-05-03T15:55:11.156Z</time></trkpt><trkpt lat="44.1270052" lon="8.2566048"><ele>11.0</ele><time>2026-05-03T15:55:12.156Z</time></trkpt><trkpt lat="44.1269498" lon="8.2565457"><ele>11.0</ele><time>2026-05-03T15:55:13.156Z</time></trkpt><trkpt lat="44.1268599" lon="8.2564448"><ele>11.0</ele><time>2026-05-03T15:55:15.156Z</time></trkpt><trkpt lat="44.1267642" lon="8.256347"><ele>11.0</ele><time>2026-05-03T15:55:17.156Z</time></trkpt><trkpt lat="44.1267151" lon="8.2562868"><ele>11.0</ele><time>2026-05-03T15:55:18.156Z</time></trkpt><trkpt lat="44.1266569" lon="8.2562279"><ele>11.0</ele><time>2026-05-03T15:55:19.157Z</time></trkpt><trkpt lat="44.1266016" lon="8.2561739"><ele>11.0</ele><time>2026-05-03T15:55:20.156Z</time></trkpt><trkpt lat="44.1265083" lon="8.2560875"><ele>11.0</ele><time>2026-05-03T15:55:22.156Z</time></trkpt><trkpt lat="44.1264316" lon="8.2560167"><ele>11.0</ele><time>2026-05-03T15:55:24.156Z</time></trkpt><trkpt lat="44.1263385" lon="8.2559384"><ele>11.285714285714286</ele><time>2026-05-03T15:55:26.156Z</time></trkpt><trkpt lat="44.1262807" lon="8.2558713"><ele>11.571428571428571</ele><time>2026-05-03T15:55:28.157Z</time></trkpt><trkpt lat="44.1262545" lon="8.2557793"><ele>11.857142857142858</ele><time>2026-05-03T15:55:30.156Z</time></trkpt><trkpt lat="44.1262296" lon="8.2556874"><ele>12.142857142857142</ele><time>2026-05-03T15:55:32.157Z</time></trkpt><trkpt lat="44.1261778" lon="8.2556297"><ele>12.428571428571429</ele><time>2026-05-03T15:55:34.156Z</time></trkpt><trkpt lat="44.1260999" lon="8.2556615"><ele>12.714285714285714</ele><time>2026-05-03T15:55:37.156Z</time></trkpt><trkpt lat="44.1260399" lon="8.2557074"><ele>13.0</ele><time>2026-05-03T15:55:39.156Z</time></trkpt><trkpt lat="44.1259658" lon="8.2557049"><ele>12.999999999999998</ele><time>2026-05-03T15:55:41.156Z</time></trkpt><trkpt lat="44.125897" lon="8.2556642"><ele>13.0</ele><time>2026-05-03T15:55:42.156Z</time></trkpt><trkpt lat="44.125827" lon="8.2556123"><ele>13.0</ele><time>2026-05-03T15:55:43.157Z</time></trkpt><trkpt lat="44.125751" lon="8.2555598"><ele>13.0</ele><time>2026-05-03T15:55:44.156Z</time></trkpt><trkpt lat="44.1256604" lon="8.255491"><ele>12.999999999999998</ele><time>2026-05-03T15:55:45.156Z</time></trkpt><trkpt lat="44.1255651" lon="8.255424"><ele>13.0</ele><time>2026-05-03T15:55:46.156Z</time></trkpt><trkpt lat="44.125469" lon="8.2553617"><ele>13.25</ele><time>2026-05-03T15:55:47.156Z</time></trkpt><trkpt lat="44.1253696" lon="8.2553012"><ele>13.5</ele><time>2026-05-03T15:55:48.156Z</time></trkpt><trkpt lat="44.1252677" lon="8.2552353"><ele>13.75</ele><time>2026-05-03T15:55:49.156Z</time></trkpt><trkpt lat="44.1251603" lon="8.2551489"><ele>14.0</ele><time>2026-05-03T15:55:50.156Z</time></trkpt><trkpt lat="44.1250483" lon="8.2550703"><ele>14.0</ele><time>2026-05-03T15:55:51.156Z</time></trkpt><trkpt lat="44.1249375" lon="8.2549866"><ele>14.0</ele><time>2026-05-03T15:55:52.156Z</time></trkpt><trkpt lat="44.1248254" lon="8.2549029"><ele>14.0</ele><time>2026-05-03T15:55:53.156Z</time></trkpt><trkpt lat="44.1247126" lon="8.2548173"><ele>14.0</ele><time>2026-05-03T15:55:54.157Z</time></trkpt><trkpt lat="44.1245932" lon="8.2547245"><ele>13.75</ele><time>2026-05-03T15:55:55.156Z</time></trkpt><trkpt lat="44.1244825" lon="8.2546376"><ele>13.5</ele><time>2026-05-03T15:55:56.156Z</time></trkpt><trkpt lat="44.1243785" lon="8.2545596"><ele>13.25</ele><time>2026-05-03T15:55:57.156Z</time></trkpt><trkpt lat="44.1242784" lon="8.2544836"><ele>13.0</ele><time>2026-05-03T15:55:58.157Z</time></trkpt><trkpt lat="44.1241822" lon="8.2544111"><ele>13.0</ele><time>2026-05-03T15:55:59.156Z</time></trkpt><trkpt lat="44.1240951" lon="8.2543458"><ele>13.0</ele><time>2026-05-03T15:56:00.156Z</time></trkpt><trkpt lat="44.1240016" lon="8.2542858"><ele>13.0</ele><time>2026-05-03T15:56:01.157Z</time></trkpt><trkpt lat="44.1239159" lon="8.2542278"><ele>13.0</ele><time>2026-05-03T15:56:02.156Z</time></trkpt><trkpt lat="44.1238379" lon="8.2541707"><ele>13.0</ele><time>2026-05-03T15:56:03.156Z</time></trkpt><trkpt lat="44.1237715" lon="8.2541153"><ele>12.833333333333332</ele><time>2026-05-03T15:56:04.156Z</time></trkpt><trkpt lat="44.1237034" lon="8.2540667"><ele>12.666666666666666</ele><time>2026-05-03T15:56:05.156Z</time></trkpt><trkpt lat="44.1236487" lon="8.2540204"><ele>12.5</ele><time>2026-05-03T15:56:06.156Z</time></trkpt><trkpt lat="44.1235708" lon="8.2539348"><ele>12.333333333333332</ele><time>2026-05-03T15:56:08.156Z</time></trkpt><trkpt lat="44.1234733" lon="8.2538558"><ele>12.166666666666666</ele><time>2026-05-03T15:56:10.156Z</time></trkpt><trkpt lat="44.1234108" lon="8.2538112"><ele>12.0</ele><time>2026-05-03T15:56:11.157Z</time></trkpt><trkpt lat="44.1233455" lon="8.253752"><ele>12.0</ele><time>2026-05-03T15:56:12.156Z</time></trkpt><trkpt lat="44.1232705" lon="8.2536831"><ele>12.0</ele><time>2026-05-03T15:56:13.156Z</time></trkpt><trkpt lat="44.1231947" lon="8.2536034"><ele>12.0</ele><time>2026-05-03T15:56:14.156Z</time></trkpt><trkpt lat="44.123126" lon="8.2535241"><ele>12.0</ele><time>2026-05-03T15:56:15.157Z</time></trkpt><trkpt lat="44.1230678" lon="8.2534534"><ele>12.0</ele><time>2026-05-03T15:56:16.156Z</time></trkpt><trkpt lat="44.1230185" lon="8.2533819"><ele>12.0</ele><time>2026-05-03T15:56:17.156Z</time></trkpt><trkpt lat="44.1229674" lon="8.2533048"><ele>11.833333333333334</ele><time>2026-05-03T15:56:18.157Z</time></trkpt><trkpt lat="44.122915" lon="8.25323"><ele>11.666666666666666</ele><time>2026-05-03T15:56:19.156Z</time></trkpt><trkpt lat="44.1228568" lon="8.2531467"><ele>11.5</ele><time>2026-05-03T15:56:20.157Z</time></trkpt><trkpt lat="44.1227928" lon="8.2530561"><ele>11.333333333333332</ele><time>2026-05-03T15:56:21.156Z</time></trkpt><trkpt lat="44.122733" lon="8.2529642"><ele>11.166666666666666</ele><time>2026-05-03T15:56:22.157Z</time></trkpt><trkpt lat="44.1226717" lon="8.2528737"><ele>11.0</ele><time>2026-05-03T15:56:23.156Z</time></trkpt><trkpt lat="44.1226102" lon="8.252788"><ele>11.0</ele><time>2026-05-03T15:56:24.156Z</time></trkpt><trkpt lat="44.1225512" lon="8.252704"><ele>11.0</ele><time>2026-05-03T15:56:25.156Z</time></trkpt><trkpt lat="44.1224938" lon="8.2526203"><ele>11.0</ele><time>2026-05-03T15:56:26.156Z</time></trkpt><trkpt lat="44.1224504" lon="8.2525556"><ele>11.0</ele><time>2026-05-03T15:56:27.156Z</time></trkpt><trkpt lat="44.122406" lon="8.2524931"><ele>11.0</ele><time>2026-05-03T15:56:28.156Z</time></trkpt><trkpt lat="44.1223154" lon="8.2523717"><ele>11.0</ele><time>2026-05-03T15:56:30.156Z</time></trkpt><trkpt lat="44.122273" lon="8.2522984"><ele>11.200000000000001</ele><time>2026-05-03T15:56:31.157Z</time></trkpt><trkpt lat="44.1222249" lon="8.2522233"><ele>11.4</ele><time>2026-05-03T15:56:32.156Z</time></trkpt><trkpt lat="44.1221775" lon="8.2521587"><ele>11.6</ele><time>2026-05-03T15:56:33.156Z</time></trkpt><trkpt lat="44.1220973" lon="8.252043"><ele>11.8</ele><time>2026-05-03T15:56:35.157Z</time></trkpt><trkpt lat="44.1220057" lon="8.2519215"><ele>12.0</ele><time>2026-05-03T15:56:37.156Z</time></trkpt><trkpt lat="44.1219544" lon="8.2518527"><ele>12.0</ele><time>2026-05-03T15:56:38.156Z</time></trkpt><trkpt lat="44.1219119" lon="8.2517865"><ele>12.0</ele><time>2026-05-03T15:56:39.156Z</time></trkpt><trkpt lat="44.1218639" lon="8.2517177"><ele>12.0</ele><time>2026-05-03T15:56:40.156Z</time></trkpt><trkpt lat="44.1218082" lon="8.2516447"><ele>12.0</ele><time>2026-05-03T15:56:41.156Z</time></trkpt><trkpt lat="44.1217475" lon="8.2515605"><ele>12.0</ele><time>2026-05-03T15:56:42.156Z</time></trkpt><trkpt lat="44.1216812" lon="8.2514676"><ele>12.0</ele><time>2026-05-03T15:56:43.156Z</time></trkpt><trkpt lat="44.1216136" lon="8.2513723"><ele>11.6</ele><time>2026-05-03T15:56:44.157Z</time></trkpt><trkpt lat="44.1215425" lon="8.2512749"><ele>11.2</ele><time>2026-05-03T15:56:45.158Z</time></trkpt><trkpt lat="44.1214649" lon="8.2511677"><ele>10.8</ele><time>2026-05-03T15:56:46.156Z</time></trkpt><trkpt lat="44.1213806" lon="8.251058"><ele>10.4</ele><time>2026-05-03T15:56:47.157Z</time></trkpt><trkpt lat="44.1212986" lon="8.2509492"><ele>10.0</ele><time>2026-05-03T15:56:48.156Z</time></trkpt><trkpt lat="44.12121" lon="8.2508414"><ele>10.0</ele><time>2026-05-03T15:56:49.156Z</time></trkpt><trkpt lat="44.121125" lon="8.2507349"><ele>10.0</ele><time>2026-05-03T15:56:50.156Z</time></trkpt><trkpt lat="44.121034" lon="8.2506304"><ele>10.0</ele><time>2026-05-03T15:56:51.156Z</time></trkpt><trkpt lat="44.1209501" lon="8.2505262"><ele>10.0</ele><time>2026-05-03T15:56:52.156Z</time></trkpt><trkpt lat="44.1208571" lon="8.2504167"><ele>9.75</ele><time>2026-05-03T15:56:53.156Z</time></trkpt><trkpt lat="44.120768" lon="8.250312"><ele>9.5</ele><time>2026-05-03T15:56:54.156Z</time></trkpt><trkpt lat="44.1206834" lon="8.2502058"><ele>9.25</ele><time>2026-05-03T15:56:55.157Z</time></trkpt><trkpt lat="44.1206019" lon="8.2501017"><ele>9.0</ele><time>2026-05-03T15:56:56.156Z</time></trkpt><trkpt lat="44.1205168" lon="8.2499965"><ele>9.0</ele><time>2026-05-03T15:56:57.157Z</time></trkpt><trkpt lat="44.1204381" lon="8.2498991"><ele>9.0</ele><time>2026-05-03T15:56:58.156Z</time></trkpt><trkpt lat="44.1203659" lon="8.2498099"><ele>9.0</ele><time>2026-05-03T15:56:59.156Z</time></trkpt><trkpt lat="44.1202942" lon="8.2497311"><ele>9.0</ele><time>2026-05-03T15:57:00.157Z</time></trkpt><trkpt lat="44.1202214" lon="8.2496462"><ele>9.0</ele><time>2026-05-03T15:57:01.156Z</time></trkpt><trkpt lat="44.1201493" lon="8.2495599"><ele>9.166666666666666</ele><time>2026-05-03T15:57:02.156Z</time></trkpt><trkpt lat="44.1200808" lon="8.249468"><ele>9.333333333333334</ele><time>2026-05-03T15:57:03.157Z</time></trkpt><trkpt lat="44.1200233" lon="8.2493757"><ele>9.5</ele><time>2026-05-03T15:57:04.156Z</time></trkpt><trkpt lat="44.1199734" lon="8.2492758"><ele>9.666666666666668</ele><time>2026-05-03T15:57:05.156Z</time></trkpt><trkpt lat="44.1199151" lon="8.2491867"><ele>9.833333333333334</ele><time>2026-05-03T15:57:06.157Z</time></trkpt><trkpt lat="44.1198359" lon="8.2491416"><ele>10.0</ele><time>2026-05-03T15:57:07.156Z</time></trkpt><trkpt lat="44.1197518" lon="8.2491148"><ele>9.4</ele><time>2026-05-03T15:57:08.156Z</time></trkpt><trkpt lat="44.119661" lon="8.2490701"><ele>8.8</ele><time>2026-05-03T15:57:09.156Z</time></trkpt><trkpt lat="44.1195677" lon="8.2490189"><ele>8.2</ele><time>2026-05-03T15:57:10.157Z</time></trkpt><trkpt lat="44.1194628" lon="8.2489715"><ele>7.6</ele><time>2026-05-03T15:57:11.156Z</time></trkpt><trkpt lat="44.1193396" lon="8.2489282"><ele>7.0</ele><time>2026-05-03T15:57:12.156Z</time></trkpt><trkpt lat="44.1192106" lon="8.2488867"><ele>7.0</ele><time>2026-05-03T15:57:13.157Z</time></trkpt><trkpt lat="44.1190732" lon="8.248854"><ele>7.0</ele><time>2026-05-03T15:57:14.156Z</time></trkpt><trkpt lat="44.1189382" lon="8.2488264"><ele>7.0</ele><time>2026-05-03T15:57:15.156Z</time></trkpt><trkpt lat="44.118813" lon="8.2487961"><ele>7.0</ele><time>2026-05-03T15:57:16.157Z</time></trkpt><trkpt lat="44.1186855" lon="8.2487677"><ele>7.0</ele><time>2026-05-03T15:57:17.156Z</time></trkpt><trkpt lat="44.1185586" lon="8.2487313"><ele>7.0</ele><time>2026-05-03T15:57:18.156Z</time></trkpt><trkpt lat="44.1184347" lon="8.2487016"><ele>7.0</ele><time>2026-05-03T15:57:19.156Z</time></trkpt><trkpt lat="44.1183206" lon="8.248667"><ele>7.0</ele><time>2026-05-03T15:57:20.156Z</time></trkpt><trkpt lat="44.118204" lon="8.2486424"><ele>7.0</ele><time>2026-05-03T15:57:21.157Z</time></trkpt><trkpt lat="44.118083" lon="8.2486115"><ele>7.0</ele><time>2026-05-03T15:57:22.156Z</time></trkpt><trkpt lat="44.1179629" lon="8.2485821"><ele>7.0</ele><time>2026-05-03T15:57:23.156Z</time></trkpt><trkpt lat="44.1178356" lon="8.2485552"><ele>7.0</ele><time>2026-05-03T15:57:24.156Z</time></trkpt><trkpt lat="44.117707" lon="8.2485251"><ele>7.0</ele><time>2026-05-03T15:57:25.156Z</time></trkpt><trkpt lat="44.1175812" lon="8.2484948"><ele>7.0</ele><time>2026-05-03T15:57:26.157Z</time></trkpt><trkpt lat="44.1174557" lon="8.2484727"><ele>7.0</ele><time>2026-05-03T15:57:27.156Z</time></trkpt><trkpt lat="44.117333" lon="8.2484442"><ele>7.0</ele><time>2026-05-03T15:57:28.156Z</time></trkpt><trkpt lat="44.1172169" lon="8.2484175"><ele>7.3999999999999995</ele><time>2026-05-03T15:57:29.156Z</time></trkpt><trkpt lat="44.1171078" lon="8.2483923"><ele>7.799999999999999</ele><time>2026-05-03T15:57:30.156Z</time></trkpt><trkpt lat="44.1170057" lon="8.2483665"><ele>8.2</ele><time>2026-05-03T15:57:31.156Z</time></trkpt><trkpt lat="44.1169224" lon="8.2483483"><ele>8.6</ele><time>2026-05-03T15:57:32.157Z</time></trkpt><trkpt lat="44.11682" lon="8.2483214"><ele>9.0</ele><time>2026-05-03T15:57:34.156Z</time></trkpt><trkpt lat="44.1167374" lon="8.2482966"><ele>9.0</ele><time>2026-05-03T15:57:36.157Z</time></trkpt><trkpt lat="44.116656" lon="8.2482446"><ele>9.0</ele><time>2026-05-03T15:57:38.156Z</time></trkpt><trkpt lat="44.116541" lon="8.248182"><ele>9.0</ele><time>2026-05-03T15:57:40.157Z</time></trkpt><trkpt lat="44.1164813" lon="8.2481466"><ele>9.0</ele><time>2026-05-03T15:57:41.156Z</time></trkpt><trkpt lat="44.1164146" lon="8.2481107"><ele>9.0</ele><time>2026-05-03T15:57:42.156Z</time></trkpt><trkpt lat="44.1163427" lon="8.2480626"><ele>9.0</ele><time>2026-05-03T15:57:43.157Z</time></trkpt><trkpt lat="44.116264" lon="8.2480131"><ele>9.5</ele><time>2026-05-03T15:57:44.157Z</time></trkpt><trkpt lat="44.1161855" lon="8.2479595"><ele>10.0</ele><time>2026-05-03T15:57:45.156Z</time></trkpt><trkpt lat="44.1161086" lon="8.2479072"><ele>10.5</ele><time>2026-05-03T15:57:46.156Z</time></trkpt><trkpt lat="44.1160343" lon="8.2478459"><ele>11.0</ele><time>2026-05-03T15:57:47.156Z</time></trkpt><trkpt lat="44.1159611" lon="8.2477923"><ele>11.5</ele><time>2026-05-03T15:57:48.156Z</time></trkpt><trkpt lat="44.1158875" lon="8.2477257"><ele>12.0</ele><time>2026-05-03T15:57:49.156Z</time></trkpt><trkpt lat="44.1158068" lon="8.2476641"><ele>12.0</ele><time>2026-05-03T15:57:50.156Z</time></trkpt><trkpt lat="44.1157371" lon="8.2476057"><ele>12.0</ele><time>2026-05-03T15:57:51.157Z</time></trkpt><trkpt lat="44.1156679" lon="8.2475456"><ele>12.0</ele><time>2026-05-03T15:57:52.157Z</time></trkpt><trkpt lat="44.1156006" lon="8.2474932"><ele>12.0</ele><time>2026-05-03T15:57:53.156Z</time></trkpt><trkpt lat="44.115528" lon="8.2474332"><ele>12.0</ele><time>2026-05-03T15:57:54.156Z</time></trkpt><trkpt lat="44.115454" lon="8.247363"><ele>12.0</ele><time>2026-05-03T15:57:55.156Z</time></trkpt><trkpt lat="44.1153789" lon="8.2472985"><ele>11.8</ele><time>2026-05-03T15:57:56.156Z</time></trkpt><trkpt lat="44.1152997" lon="8.2472249"><ele>11.6</ele><time>2026-05-03T15:57:57.157Z</time></trkpt><trkpt lat="44.1152242" lon="8.2471454"><ele>11.4</ele><time>2026-05-03T15:57:58.157Z</time></trkpt><trkpt lat="44.1151485" lon="8.2470566"><ele>11.200000000000001</ele><time>2026-05-03T15:57:59.156Z</time></trkpt><trkpt lat="44.1150684" lon="8.246969"><ele>11.0</ele><time>2026-05-03T15:58:00.156Z</time></trkpt><trkpt lat="44.1149909" lon="8.2468769"><ele>11.0</ele><time>2026-05-03T15:58:01.156Z</time></trkpt><trkpt lat="44.1149072" lon="8.2467912"><ele>11.0</ele><time>2026-05-03T15:58:02.156Z</time></trkpt><trkpt lat="44.1148255" lon="8.2466975"><ele>11.0</ele><time>2026-05-03T15:58:03.156Z</time></trkpt><trkpt lat="44.1147443" lon="8.246614"><ele>11.0</ele><time>2026-05-03T15:58:04.156Z</time></trkpt><trkpt lat="44.1146633" lon="8.2465197"><ele>11.0</ele><time>2026-05-03T15:58:05.156Z</time></trkpt><trkpt lat="44.1145842" lon="8.2464307"><ele>11.0</ele><time>2026-05-03T15:58:06.157Z</time></trkpt><trkpt lat="44.1145069" lon="8.2463506"><ele>11.0</ele><time>2026-05-03T15:58:07.156Z</time></trkpt><trkpt lat="44.1144234" lon="8.2462619"><ele>11.0</ele><time>2026-05-03T15:58:08.156Z</time></trkpt><trkpt lat="44.1143466" lon="8.2461869"><ele>11.0</ele><time>2026-05-03T15:58:09.156Z</time></trkpt><trkpt lat="44.1142805" lon="8.2461096"><ele>11.0</ele><time>2026-05-03T15:58:10.157Z</time></trkpt><trkpt lat="44.1142125" lon="8.2460339"><ele>11.0</ele><time>2026-05-03T15:58:11.157Z</time></trkpt><trkpt lat="44.1141479" lon="8.2459617"><ele>11.0</ele><time>2026-05-03T15:58:12.156Z</time></trkpt><trkpt lat="44.1140864" lon="8.2458929"><ele>11.0</ele><time>2026-05-03T15:58:13.156Z</time></trkpt><trkpt lat="44.114019" lon="8.2458219"><ele>11.0</ele><time>2026-05-03T15:58:14.157Z</time></trkpt><trkpt lat="44.1139503" lon="8.2457458"><ele>11.0</ele><time>2026-05-03T15:58:15.156Z</time></trkpt><trkpt lat="44.1138542" lon="8.2456565"><ele>11.0</ele><time>2026-05-03T15:58:17.156Z</time></trkpt><trkpt lat="44.1137758" lon="8.2455771"><ele>10.8</ele><time>2026-05-03T15:58:19.156Z</time></trkpt><trkpt lat="44.1137027" lon="8.2454909"><ele>10.600000000000001</ele><time>2026-05-03T15:58:21.156Z</time></trkpt><trkpt lat="44.1136183" lon="8.2454006"><ele>10.4</ele><time>2026-05-03T15:58:23.156Z</time></trkpt><trkpt lat="44.1135289" lon="8.2453013"><ele>10.2</ele><time>2026-05-03T15:58:25.156Z</time></trkpt><trkpt lat="44.1134251" lon="8.2451967"><ele>10.0</ele><time>2026-05-03T15:58:27.156Z</time></trkpt><trkpt lat="44.1133667" lon="8.2451252"><ele>10.0</ele><time>2026-05-03T15:58:28.156Z</time></trkpt><trkpt lat="44.113318" lon="8.2450664"><ele>10.0</ele><time>2026-05-03T15:58:29.157Z</time></trkpt><trkpt lat="44.1132633" lon="8.24501"><ele>10.0</ele><time>2026-05-03T15:58:30.156Z</time></trkpt><trkpt lat="44.1132135" lon="8.2449439"><ele>10.0</ele><time>2026-05-03T15:58:31.156Z</time></trkpt><trkpt lat="44.1131588" lon="8.2448897"><ele>10.0</ele><time>2026-05-03T15:58:32.157Z</time></trkpt><trkpt lat="44.1131096" lon="8.2448339"><ele>10.0</ele><time>2026-05-03T15:58:33.156Z</time></trkpt><trkpt lat="44.1130209" lon="8.2447333"><ele>10.0</ele><time>2026-05-03T15:58:35.157Z</time></trkpt><trkpt lat="44.1129678" lon="8.244673"><ele>9.833333333333334</ele><time>2026-05-03T15:58:36.156Z</time></trkpt><trkpt lat="44.1129121" lon="8.2446178"><ele>9.666666666666668</ele><time>2026-05-03T15:58:37.156Z</time></trkpt><trkpt lat="44.1128578" lon="8.2445577"><ele>9.5</ele><time>2026-05-03T15:58:38.156Z</time></trkpt><trkpt lat="44.1128007" lon="8.2444878"><ele>9.333333333333334</ele><time>2026-05-03T15:58:39.156Z</time></trkpt><trkpt lat="44.1127358" lon="8.2444193"><ele>9.166666666666666</ele><time>2026-05-03T15:58:40.156Z</time></trkpt><trkpt lat="44.1126651" lon="8.2443469"><ele>9.0</ele><time>2026-05-03T15:58:41.157Z</time></trkpt><trkpt lat="44.1125914" lon="8.244261"><ele>9.0</ele><time>2026-05-03T15:58:42.156Z</time></trkpt><trkpt lat="44.1125203" lon="8.2441918"><ele>9.0</ele><time>2026-05-03T15:58:43.156Z</time></trkpt><trkpt lat="44.112455" lon="8.2441153"><ele>9.0</ele><time>2026-05-03T15:58:44.156Z</time></trkpt><trkpt lat="44.1123841" lon="8.2440349"><ele>9.0</ele><time>2026-05-03T15:58:45.156Z</time></trkpt><trkpt lat="44.112313" lon="8.2439592"><ele>9.0</ele><time>2026-05-03T15:58:46.156Z</time></trkpt><trkpt lat="44.1122407" lon="8.2438842"><ele>9.0</ele><time>2026-05-03T15:58:47.157Z</time></trkpt><trkpt lat="44.1121647" lon="8.2438099"><ele>9.5</ele><time>2026-05-03T15:58:48.157Z</time></trkpt><trkpt lat="44.1120858" lon="8.2437289"><ele>10.0</ele><time>2026-05-03T15:58:49.156Z</time></trkpt><trkpt lat="44.1119989" lon="8.2436382"><ele>10.5</ele><time>2026-05-03T15:58:50.157Z</time></trkpt><trkpt lat="44.1118972" lon="8.2435314"><ele>11.0</ele><time>2026-05-03T15:58:51.157Z</time></trkpt><trkpt lat="44.1118029" lon="8.2434217"><ele>11.0</ele><time>2026-05-03T15:58:52.156Z</time></trkpt><trkpt lat="44.1117123" lon="8.2433193"><ele>11.0</ele><time>2026-05-03T15:58:53.156Z</time></trkpt><trkpt lat="44.1116265" lon="8.2432263"><ele>11.0</ele><time>2026-05-03T15:58:54.156Z</time></trkpt><trkpt lat="44.1115469" lon="8.2431373"><ele>11.0</ele><time>2026-05-03T15:58:55.156Z</time></trkpt><trkpt lat="44.1114657" lon="8.243042"><ele>11.0</ele><time>2026-05-03T15:58:56.156Z</time></trkpt><trkpt lat="44.1113837" lon="8.2429557"><ele>10.166666666666666</ele><time>2026-05-03T15:58:57.156Z</time></trkpt><trkpt lat="44.1113063" lon="8.2428706"><ele>9.333333333333332</ele><time>2026-05-03T15:58:58.156Z</time></trkpt><trkpt lat="44.1112314" lon="8.2427912"><ele>8.5</ele><time>2026-05-03T15:58:59.156Z</time></trkpt><trkpt lat="44.1111593" lon="8.2427238"><ele>7.666666666666666</ele><time>2026-05-03T15:59:00.157Z</time></trkpt><trkpt lat="44.1110938" lon="8.2426549"><ele>6.833333333333333</ele><time>2026-05-03T15:59:01.156Z</time></trkpt><trkpt lat="44.1110399" lon="8.2426016"><ele>6.0</ele><time>2026-05-03T15:59:02.156Z</time></trkpt><trkpt lat="44.1109517" lon="8.2425191"><ele>6.0</ele><time>2026-05-03T15:59:04.157Z</time></trkpt><trkpt lat="44.1108781" lon="8.2424553"><ele>6.0</ele><time>2026-05-03T15:59:07.156Z</time></trkpt><trkpt lat="44.110806" lon="8.2423839"><ele>6.0</ele><time>2026-05-03T15:59:18.157Z</time></trkpt><trkpt lat="44.1107199" lon="8.2422939"><ele>6.0</ele><time>2026-05-03T15:59:20.156Z</time></trkpt><trkpt lat="44.1106122" lon="8.2422753"><ele>6.0</ele><time>2026-05-03T15:59:22.156Z</time></trkpt><trkpt lat="44.1105185" lon="8.2423044"><ele>6.0</ele><time>2026-05-03T15:59:24.156Z</time></trkpt><trkpt lat="44.1104049" lon="8.2422897"><ele>6.0</ele><time>2026-05-03T15:59:26.156Z</time></trkpt><trkpt lat="44.1103409" lon="8.2422727"><ele>6.0</ele><time>2026-05-03T15:59:27.157Z</time></trkpt><trkpt lat="44.1102717" lon="8.2422583"><ele>6.0</ele><time>2026-05-03T15:59:28.156Z</time></trkpt><trkpt lat="44.1101964" lon="8.2422396"><ele>6.0</ele><time>2026-05-03T15:59:29.156Z</time></trkpt><trkpt lat="44.1101245" lon="8.2422132"><ele>6.0</ele><time>2026-05-03T15:59:30.157Z</time></trkpt><trkpt lat="44.1100588" lon="8.2421901"><ele>5.999999999999999</ele><time>2026-05-03T15:59:31.156Z</time></trkpt><trkpt lat="44.109995" lon="8.2421618"><ele>6.0</ele><time>2026-05-03T15:59:32.156Z</time></trkpt><trkpt lat="44.1099299" lon="8.2421318"><ele>6.0</ele><time>2026-05-03T15:59:33.156Z</time></trkpt><trkpt lat="44.1098653" lon="8.2420894"><ele>6.0</ele><time>2026-05-03T15:59:34.156Z</time></trkpt><trkpt lat="44.1098093" lon="8.2420409"><ele>6.0</ele><time>2026-05-03T15:59:35.156Z</time></trkpt><trkpt lat="44.1097577" lon="8.2419891"><ele>5.999999999999999</ele><time>2026-05-03T15:59:36.156Z</time></trkpt><trkpt lat="44.1097017" lon="8.2419245"><ele>6.0</ele><time>2026-05-03T15:59:37.156Z</time></trkpt><trkpt lat="44.1096493" lon="8.2418623"><ele>6.142857142857142</ele><time>2026-05-03T15:59:38.156Z</time></trkpt><trkpt lat="44.1095966" lon="8.2418032"><ele>6.285714285714286</ele><time>2026-05-03T15:59:39.156Z</time></trkpt><trkpt lat="44.1095435" lon="8.2417414"><ele>6.428571428571429</ele><time>2026-05-03T15:59:40.156Z</time></trkpt><trkpt lat="44.1094902" lon="8.2416762"><ele>6.571428571428571</ele><time>2026-05-03T15:59:41.156Z</time></trkpt><trkpt lat="44.1094356" lon="8.2416119"><ele>6.714285714285714</ele><time>2026-05-03T15:59:42.157Z</time></trkpt><trkpt lat="44.1093805" lon="8.2415484"><ele>6.857142857142857</ele><time>2026-05-03T15:59:43.157Z</time></trkpt><trkpt lat="44.1093323" lon="8.2414903"><ele>7.0</ele><time>2026-05-03T15:59:44.156Z</time></trkpt><trkpt lat="44.1092436" lon="8.2414034"><ele>7.0</ele><time>2026-05-03T15:59:46.156Z</time></trkpt><trkpt lat="44.1091607" lon="8.2413269"><ele>6.999999999999999</ele><time>2026-05-03T15:59:48.156Z</time></trkpt><trkpt lat="44.1090624" lon="8.2412381"><ele>6.999999999999999</ele><time>2026-05-03T15:59:50.156Z</time></trkpt><trkpt lat="44.1089608" lon="8.2411464"><ele>7.0</ele><time>2026-05-03T15:59:52.156Z</time></trkpt><trkpt lat="44.1089035" lon="8.2411001"><ele>7.0</ele><time>2026-05-03T15:59:53.156Z</time></trkpt><trkpt lat="44.1088478" lon="8.2410511"><ele>7.000000000000001</ele><time>2026-05-03T15:59:54.156Z</time></trkpt><trkpt lat="44.1087908" lon="8.2410081"><ele>7.0</ele><time>2026-05-03T15:59:55.156Z</time></trkpt><trkpt lat="44.1087367" lon="8.2409514"><ele>7.0</ele><time>2026-05-03T15:59:56.157Z</time></trkpt><trkpt lat="44.1086383" lon="8.2408583"><ele>7.0</ele><time>2026-05-03T15:59:58.156Z</time></trkpt><trkpt lat="44.1085822" lon="8.2408121"><ele>7.000000000000001</ele><time>2026-05-03T15:59:59.156Z</time></trkpt><trkpt lat="44.108523" lon="8.2407561"><ele>7.0</ele><time>2026-05-03T16:00:00.156Z</time></trkpt><trkpt lat="44.108457" lon="8.2406901"><ele>7.000000000000001</ele><time>2026-05-03T16:00:01.156Z</time></trkpt><trkpt lat="44.1083896" lon="8.2406262"><ele>7.0</ele><time>2026-05-03T16:00:02.156Z</time></trkpt><trkpt lat="44.1083195" lon="8.2405638"><ele>7.0</ele><time>2026-05-03T16:00:03.156Z</time></trkpt><trkpt lat="44.1082473" lon="8.2404947"><ele>7.0</ele><time>2026-05-03T16:00:04.156Z</time></trkpt><trkpt lat="44.1081779" lon="8.2404285"><ele>7.000000000000001</ele><time>2026-05-03T16:00:05.157Z</time></trkpt><trkpt lat="44.1081085" lon="8.2403586"><ele>7.0</ele><time>2026-05-03T16:00:06.156Z</time></trkpt><trkpt lat="44.1080356" lon="8.2402733"><ele>6.6</ele><time>2026-05-03T16:00:07.157Z</time></trkpt><trkpt lat="44.1079614" lon="8.2401763"><ele>6.199999999999999</ele><time>2026-05-03T16:00:08.156Z</time></trkpt><trkpt lat="44.1078863" lon="8.2400822"><ele>5.8</ele><time>2026-05-03T16:00:09.156Z</time></trkpt><trkpt lat="44.1078082" lon="8.2399873"><ele>5.4</ele><time>2026-05-03T16:00:10.156Z</time></trkpt><trkpt lat="44.1077343" lon="8.2398876"><ele>5.0</ele><time>2026-05-03T16:00:11.156Z</time></trkpt><trkpt lat="44.1076586" lon="8.2397976"><ele>5.4</ele><time>2026-05-03T16:00:12.156Z</time></trkpt><trkpt lat="44.1075836" lon="8.2397052"><ele>5.8</ele><time>2026-05-03T16:00:13.156Z</time></trkpt><trkpt lat="44.1075079" lon="8.2396146"><ele>6.199999999999999</ele><time>2026-05-03T16:00:14.157Z</time></trkpt><trkpt lat="44.1074334" lon="8.2395181"><ele>6.6</ele><time>2026-05-03T16:00:15.156Z</time></trkpt><trkpt lat="44.1073547" lon="8.239426"><ele>7.0</ele><time>2026-05-03T16:00:16.156Z</time></trkpt><trkpt lat="44.1072779" lon="8.2393359"><ele>7.0</ele><time>2026-05-03T16:00:17.157Z</time></trkpt><trkpt lat="44.1071976" lon="8.2392389"><ele>6.999999999999999</ele><time>2026-05-03T16:00:18.156Z</time></trkpt><trkpt lat="44.107121" lon="8.2391545"><ele>6.999999999999999</ele><time>2026-05-03T16:00:19.157Z</time></trkpt><trkpt lat="44.1070519" lon="8.2390637"><ele>7.0</ele><time>2026-05-03T16:00:20.156Z</time></trkpt><trkpt lat="44.1069774" lon="8.2389771"><ele>7.0</ele><time>2026-05-03T16:00:21.156Z</time></trkpt><trkpt lat="44.1069068" lon="8.2388869"><ele>12.6</ele><time>2026-05-03T16:00:22.156Z</time></trkpt><trkpt lat="44.1068411" lon="8.2387996"><ele>18.2</ele><time>2026-05-03T16:00:23.157Z</time></trkpt><trkpt lat="44.1067696" lon="8.2387155"><ele>23.8</ele><time>2026-05-03T16:00:24.156Z</time></trkpt><trkpt lat="44.1066924" lon="8.2386399"><ele>29.4</ele><time>2026-05-03T16:00:25.156Z</time></trkpt><trkpt lat="44.1066053" lon="8.2385797"><ele>35.0</ele><time>2026-05-03T16:00:26.156Z</time></trkpt><trkpt lat="44.1065101" lon="8.2385395"><ele>35.6</ele><time>2026-05-03T16:00:27.156Z</time></trkpt><trkpt lat="44.1064079" lon="8.2385176"><ele>36.2</ele><time>2026-05-03T16:00:28.156Z</time></trkpt><trkpt lat="44.1063054" lon="8.2385154"><ele>36.8</ele><time>2026-05-03T16:00:29.157Z</time></trkpt><trkpt lat="44.106198" lon="8.2385326"><ele>37.4</ele><time>2026-05-03T16:00:30.157Z</time></trkpt><trkpt lat="44.106092" lon="8.2385802"><ele>38.0</ele><time>2026-05-03T16:00:31.157Z</time></trkpt><trkpt lat="44.1059888" lon="8.2386377"><ele>38.0</ele><time>2026-05-03T16:00:32.157Z</time></trkpt><trkpt lat="44.1058936" lon="8.2386904"><ele>38.0</ele><time>2026-05-03T16:00:33.157Z</time></trkpt><trkpt lat="44.1058005" lon="8.2387415"><ele>38.0</ele><time>2026-05-03T16:00:34.156Z</time></trkpt><trkpt lat="44.1057163" lon="8.2387859"><ele>38.0</ele><time>2026-05-03T16:00:35.156Z</time></trkpt><trkpt lat="44.1055367" lon="8.2388523"><ele>40.4</ele><time>2026-05-03T16:00:37.156Z</time></trkpt><trkpt lat="44.1054475" lon="8.2388689"><ele>42.8</ele><time>2026-05-03T16:00:38.156Z</time></trkpt><trkpt lat="44.1053575" lon="8.2388811"><ele>45.2</ele><time>2026-05-03T16:00:39.156Z</time></trkpt><trkpt lat="44.1052597" lon="8.2388982"><ele>47.6</ele><time>2026-05-03T16:00:40.156Z</time></trkpt><trkpt lat="44.1051532" lon="8.2389176"><ele>50.0</ele><time>2026-05-03T16:00:41.156Z</time></trkpt><trkpt lat="44.1050495" lon="8.2389326"><ele>50.00000000000001</ele><time>2026-05-03T16:00:42.156Z</time></trkpt><trkpt lat="44.1049556" lon="8.2389418"><ele>50.0</ele><time>2026-05-03T16:00:43.156Z</time></trkpt><trkpt lat="44.1048655" lon="8.238955"><ele>50.0</ele><time>2026-05-03T16:00:44.156Z</time></trkpt><trkpt lat="44.1047789" lon="8.2389655"><ele>50.0</ele><time>2026-05-03T16:00:45.156Z</time></trkpt><trkpt lat="44.1046966" lon="8.2389749"><ele>50.00000000000001</ele><time>2026-05-03T16:00:46.156Z</time></trkpt><trkpt lat="44.1046142" lon="8.2389796"><ele>50.0</ele><time>2026-05-03T16:00:47.156Z</time></trkpt><trkpt lat="44.1045325" lon="8.2389724"><ele>48.00000000000001</ele><time>2026-05-03T16:00:48.156Z</time></trkpt><trkpt lat="44.1044509" lon="8.2389498"><ele>46.0</ele><time>2026-05-03T16:00:49.157Z</time></trkpt><trkpt lat="44.1043702" lon="8.2389161"><ele>44.0</ele><time>2026-05-03T16:00:50.156Z</time></trkpt><trkpt lat="44.1042881" lon="8.2388704"><ele>42.0</ele><time>2026-05-03T16:00:51.156Z</time></trkpt><trkpt lat="44.104208" lon="8.2388289"><ele>40.0</ele><time>2026-05-03T16:00:52.156Z</time></trkpt><trkpt lat="44.104127" lon="8.2387948"><ele>38.0</ele><time>2026-05-03T16:00:53.156Z</time></trkpt><trkpt lat="44.1040447" lon="8.2387589"><ele>35.0</ele><time>2026-05-03T16:00:54.156Z</time></trkpt><trkpt lat="44.1039615" lon="8.2387224"><ele>32.0</ele><time>2026-05-03T16:00:55.156Z</time></trkpt><trkpt lat="44.1038854" lon="8.2386834"><ele>29.0</ele><time>2026-05-03T16:00:56.156Z</time></trkpt><trkpt lat="44.1038126" lon="8.2386408"><ele>26.0</ele><time>2026-05-03T16:00:57.156Z</time></trkpt><trkpt lat="44.1037409" lon="8.2385918"><ele>23.0</ele><time>2026-05-03T16:00:58.156Z</time></trkpt><trkpt lat="44.1036714" lon="8.2385237"><ele>20.0</ele><time>2026-05-03T16:00:59.157Z</time></trkpt><trkpt lat="44.1036031" lon="8.238448"><ele>20.0</ele><time>2026-05-03T16:01:00.157Z</time></trkpt><trkpt lat="44.103537" lon="8.2383746"><ele>20.0</ele><time>2026-05-03T16:01:01.156Z</time></trkpt><trkpt lat="44.1034665" lon="8.2383064"><ele>20.0</ele><time>2026-05-03T16:01:02.157Z</time></trkpt><trkpt lat="44.1033949" lon="8.23824"><ele>20.0</ele><time>2026-05-03T16:01:03.156Z</time></trkpt><trkpt lat="44.1033219" lon="8.2381715"><ele>20.0</ele><time>2026-05-03T16:01:04.156Z</time></trkpt><trkpt lat="44.1032464" lon="8.2380946"><ele>20.0</ele><time>2026-05-03T16:01:05.156Z</time></trkpt><trkpt lat="44.1031688" lon="8.2380179"><ele>19.5</ele><time>2026-05-03T16:01:06.156Z</time></trkpt><trkpt lat="44.1030894" lon="8.2379438"><ele>19.0</ele><time>2026-05-03T16:01:07.156Z</time></trkpt><trkpt lat="44.1030101" lon="8.2378746"><ele>18.5</ele><time>2026-05-03T16:01:08.156Z</time></trkpt><trkpt lat="44.1029357" lon="8.2378056"><ele>18.0</ele><time>2026-05-03T16:01:09.156Z</time></trkpt><trkpt lat="44.1028681" lon="8.2377322"><ele>17.5</ele><time>2026-05-03T16:01:10.156Z</time></trkpt><trkpt lat="44.1028064" lon="8.237652"><ele>17.0</ele><time>2026-05-03T16:01:11.156Z</time></trkpt><trkpt lat="44.1027491" lon="8.237573"><ele>17.0</ele><time>2026-05-03T16:01:12.156Z</time></trkpt><trkpt lat="44.1026939" lon="8.2374888"><ele>17.0</ele><time>2026-05-03T16:01:13.156Z</time></trkpt><trkpt lat="44.1026335" lon="8.2374056"><ele>17.0</ele><time>2026-05-03T16:01:14.156Z</time></trkpt><trkpt lat="44.1025631" lon="8.2373333"><ele>17.0</ele><time>2026-05-03T16:01:15.156Z</time></trkpt><trkpt lat="44.1024821" lon="8.2372758"><ele>17.0</ele><time>2026-05-03T16:01:16.156Z</time></trkpt><trkpt lat="44.1023914" lon="8.2372223"><ele>17.0</ele><time>2026-05-03T16:01:17.156Z</time></trkpt><trkpt lat="44.1022993" lon="8.2371639"><ele>17.0</ele><time>2026-05-03T16:01:18.156Z</time></trkpt><trkpt lat="44.1022027" lon="8.2371014"><ele>17.0</ele><time>2026-05-03T16:01:19.156Z</time></trkpt><trkpt lat="44.1021049" lon="8.2370328"><ele>17.0</ele><time>2026-05-03T16:01:20.156Z</time></trkpt><trkpt lat="44.102009" lon="8.2369647"><ele>17.0</ele><time>2026-05-03T16:01:21.156Z</time></trkpt><trkpt lat="44.10192" lon="8.236899"><ele>17.0</ele><time>2026-05-03T16:01:22.157Z</time></trkpt><trkpt lat="44.1018323" lon="8.2368339"><ele>17.0</ele><time>2026-05-03T16:01:23.157Z</time></trkpt><trkpt lat="44.1017473" lon="8.2367667"><ele>17.0</ele><time>2026-05-03T16:01:24.156Z</time></trkpt><trkpt lat="44.1016708" lon="8.2366975"><ele>17.0</ele><time>2026-05-03T16:01:25.156Z</time></trkpt><trkpt lat="44.1016047" lon="8.2366178"><ele>17.0</ele><time>2026-05-03T16:01:26.157Z</time></trkpt><trkpt lat="44.1015444" lon="8.2365361"><ele>17.0</ele><time>2026-05-03T16:01:27.157Z</time></trkpt><trkpt lat="44.1014861" lon="8.2364558"><ele>17.0</ele><time>2026-05-03T16:01:28.156Z</time></trkpt><trkpt lat="44.1014322" lon="8.2363884"><ele>17.0</ele><time>2026-05-03T16:01:29.156Z</time></trkpt><trkpt lat="44.1013859" lon="8.2363219"><ele>17.0</ele><time>2026-05-03T16:01:30.156Z</time></trkpt><trkpt lat="44.10131" lon="8.2361859"><ele>17.0</ele><time>2026-05-03T16:01:32.156Z</time></trkpt><trkpt lat="44.1012544" lon="8.2361261"><ele>17.0</ele><time>2026-05-03T16:01:33.157Z</time></trkpt><trkpt lat="44.1011886" lon="8.2360894"><ele>17.0</ele><time>2026-05-03T16:01:34.156Z</time></trkpt><trkpt lat="44.1011207" lon="8.2360528"><ele>17.0</ele><time>2026-05-03T16:01:35.157Z</time></trkpt><trkpt lat="44.1010552" lon="8.2360013"><ele>17.0</ele><time>2026-05-03T16:01:36.156Z</time></trkpt><trkpt lat="44.100983" lon="8.2359418"><ele>17.0</ele><time>2026-05-03T16:01:37.157Z</time></trkpt><trkpt lat="44.1009039" lon="8.2358783"><ele>17.0</ele><time>2026-05-03T16:01:38.156Z</time></trkpt><trkpt lat="44.1008155" lon="8.235808"><ele>17.0</ele><time>2026-05-03T16:01:39.156Z</time></trkpt><trkpt lat="44.1007212" lon="8.2357314"><ele>17.0</ele><time>2026-05-03T16:01:40.156Z</time></trkpt><trkpt lat="44.1006211" lon="8.2356479"><ele>15.333333333333334</ele><time>2026-05-03T16:01:41.156Z</time></trkpt><trkpt lat="44.1005071" lon="8.2355488"><ele>13.666666666666668</ele><time>2026-05-03T16:01:42.156Z</time></trkpt><trkpt lat="44.1003689" lon="8.2354286"><ele>12.0</ele><time>2026-05-03T16:01:43.156Z</time></trkpt><trkpt lat="44.1002233" lon="8.2352875"><ele>12.0</ele><time>2026-05-03T16:01:44.156Z</time></trkpt><trkpt lat="44.1000882" lon="8.2351555"><ele>12.0</ele><time>2026-05-03T16:01:45.157Z</time></trkpt><trkpt lat="44.0999699" lon="8.2350278"><ele>12.0</ele><time>2026-05-03T16:01:46.156Z</time></trkpt><trkpt lat="44.0998486" lon="8.2348977"><ele>11.666666666666666</ele><time>2026-05-03T16:01:47.156Z</time></trkpt><trkpt lat="44.0997193" lon="8.234756"><ele>11.333333333333332</ele><time>2026-05-03T16:01:48.156Z</time></trkpt><trkpt lat="44.0995912" lon="8.2346235"><ele>11.0</ele><time>2026-05-03T16:01:49.156Z</time></trkpt><trkpt lat="44.099474" lon="8.2345011"><ele>11.0</ele><time>2026-05-03T16:01:50.156Z</time></trkpt><trkpt lat="44.0993639" lon="8.2343891"><ele>11.0</ele><time>2026-05-03T16:01:51.156Z</time></trkpt><trkpt lat="44.0992586" lon="8.2342868"><ele>11.0</ele><time>2026-05-03T16:01:52.156Z</time></trkpt><trkpt lat="44.0991529" lon="8.2341825"><ele>11.0</ele><time>2026-05-03T16:01:53.156Z</time></trkpt><trkpt lat="44.0990484" lon="8.2340797"><ele>11.75</ele><time>2026-05-03T16:01:54.156Z</time></trkpt><trkpt lat="44.0989474" lon="8.2339849"><ele>12.5</ele><time>2026-05-03T16:01:55.157Z</time></trkpt><trkpt lat="44.0988536" lon="8.2338904"><ele>13.25</ele><time>2026-05-03T16:01:56.156Z</time></trkpt><trkpt lat="44.0987653" lon="8.2337992"><ele>14.0</ele><time>2026-05-03T16:01:57.157Z</time></trkpt><trkpt lat="44.0986781" lon="8.2337066"><ele>14.0</ele><time>2026-05-03T16:01:58.156Z</time></trkpt><trkpt lat="44.0985892" lon="8.2336097"><ele>14.0</ele><time>2026-05-03T16:01:59.156Z</time></trkpt><trkpt lat="44.0984957" lon="8.2335107"><ele>14.0</ele><time>2026-05-03T16:02:00.156Z</time></trkpt><trkpt lat="44.0983937" lon="8.2334086"><ele>14.0</ele><time>2026-05-03T16:02:01.156Z</time></trkpt><trkpt lat="44.0982889" lon="8.2333006"><ele>13.25</ele><time>2026-05-03T16:02:02.156Z</time></trkpt><trkpt lat="44.0981763" lon="8.2331856"><ele>12.5</ele><time>2026-05-03T16:02:03.156Z</time></trkpt><trkpt lat="44.09806" lon="8.2330737"><ele>11.75</ele><time>2026-05-03T16:02:04.156Z</time></trkpt><trkpt lat="44.0979438" lon="8.2329604"><ele>11.0</ele><time>2026-05-03T16:02:05.156Z</time></trkpt><trkpt lat="44.097824" lon="8.2328433"><ele>11.0</ele><time>2026-05-03T16:02:06.156Z</time></trkpt><trkpt lat="44.0977051" lon="8.2327213"><ele>11.0</ele><time>2026-05-03T16:02:07.157Z</time></trkpt><trkpt lat="44.0975861" lon="8.2325956"><ele>11.0</ele><time>2026-05-03T16:02:08.158Z</time></trkpt><trkpt lat="44.0974686" lon="8.2324687"><ele>11.0</ele><time>2026-05-03T16:02:09.156Z</time></trkpt><trkpt lat="44.0973538" lon="8.2323417"><ele>10.75</ele><time>2026-05-03T16:02:10.156Z</time></trkpt><trkpt lat="44.0972406" lon="8.2322163"><ele>10.5</ele><time>2026-05-03T16:02:11.156Z</time></trkpt><trkpt lat="44.0971279" lon="8.2320944"><ele>10.25</ele><time>2026-05-03T16:02:12.156Z</time></trkpt><trkpt lat="44.0970124" lon="8.2319751"><ele>10.0</ele><time>2026-05-03T16:02:13.157Z</time></trkpt><trkpt lat="44.0968934" lon="8.2318684"><ele>10.0</ele><time>2026-05-03T16:02:14.156Z</time></trkpt><trkpt lat="44.0967718" lon="8.2317778"><ele>10.0</ele><time>2026-05-03T16:02:15.156Z</time></trkpt><trkpt lat="44.0966499" lon="8.2316997"><ele>10.0</ele><time>2026-05-03T16:02:16.156Z</time></trkpt><trkpt lat="44.0965353" lon="8.2316294"><ele>10.0</ele><time>2026-05-03T16:02:17.156Z</time></trkpt><trkpt lat="44.0964235" lon="8.2315721"><ele>9.8</ele><time>2026-05-03T16:02:18.156Z</time></trkpt><trkpt lat="44.0963156" lon="8.231528"><ele>9.6</ele><time>2026-05-03T16:02:19.156Z</time></trkpt><trkpt lat="44.0962134" lon="8.2314838"><ele>9.4</ele><time>2026-05-03T16:02:20.156Z</time></trkpt><trkpt lat="44.0961209" lon="8.2314378"><ele>9.2</ele><time>2026-05-03T16:02:21.157Z</time></trkpt><trkpt lat="44.0960463" lon="8.2313834"><ele>9.0</ele><time>2026-05-03T16:02:22.157Z</time></trkpt><trkpt lat="44.0959809" lon="8.2313323"><ele>9.2</ele><time>2026-05-03T16:02:23.157Z</time></trkpt><trkpt lat="44.0959119" lon="8.2313071"><ele>9.4</ele><time>2026-05-03T16:02:24.157Z</time></trkpt><trkpt lat="44.0958277" lon="8.2313053"><ele>9.6</ele><time>2026-05-03T16:02:25.156Z</time></trkpt><trkpt lat="44.0957307" lon="8.2313013"><ele>9.8</ele><time>2026-05-03T16:02:26.157Z</time></trkpt><trkpt lat="44.0956235" lon="8.231276"><ele>10.0</ele><time>2026-05-03T16:02:27.157Z</time></trkpt><trkpt lat="44.0955117" lon="8.231234"><ele>10.0</ele><time>2026-05-03T16:02:28.156Z</time></trkpt><trkpt lat="44.0953959" lon="8.2311947"><ele>10.0</ele><time>2026-05-03T16:02:29.156Z</time></trkpt><trkpt lat="44.0952813" lon="8.2311578"><ele>10.0</ele><time>2026-05-03T16:02:30.156Z</time></trkpt><trkpt lat="44.0951747" lon="8.2311188"><ele>10.0</ele><time>2026-05-03T16:02:31.156Z</time></trkpt><trkpt lat="44.0950655" lon="8.2310805"><ele>10.0</ele><time>2026-05-03T16:02:32.156Z</time></trkpt><trkpt lat="44.0949597" lon="8.2310425"><ele>10.0</ele><time>2026-05-03T16:02:33.156Z</time></trkpt><trkpt lat="44.0948661" lon="8.2310073"><ele>10.0</ele><time>2026-05-03T16:02:34.156Z</time></trkpt><trkpt lat="44.0947906" lon="8.2309831"><ele>10.0</ele><time>2026-05-03T16:02:35.156Z</time></trkpt><trkpt lat="44.0947024" lon="8.2309556"><ele>10.0</ele><time>2026-05-03T16:02:37.156Z</time></trkpt><trkpt lat="44.0945892" lon="8.2309173"><ele>9.5</ele><time>2026-05-03T16:02:40.157Z</time></trkpt><trkpt lat="44.0945182" lon="8.230887"><ele>9.0</ele><time>2026-05-03T16:02:41.156Z</time></trkpt><trkpt lat="44.0944428" lon="8.230855"><ele>8.5</ele><time>2026-05-03T16:02:42.156Z</time></trkpt><trkpt lat="44.0943723" lon="8.2308241"><ele>8.0</ele><time>2026-05-03T16:02:43.156Z</time></trkpt><trkpt lat="44.0943106" lon="8.2307941"><ele>7.500000000000001</ele><time>2026-05-03T16:02:44.156Z</time></trkpt><trkpt lat="44.0942387" lon="8.2307536"><ele>7.0</ele><time>2026-05-03T16:02:46.157Z</time></trkpt><trkpt lat="44.0941671" lon="8.2306719"><ele>7.166666666666667</ele><time>2026-05-03T16:02:51.156Z</time></trkpt><trkpt lat="44.0941173" lon="8.2306105"><ele>7.333333333333334</ele><time>2026-05-03T16:02:53.156Z</time></trkpt><trkpt lat="44.0940514" lon="8.2305876"><ele>7.5</ele><time>2026-05-03T16:02:56.156Z</time></trkpt><trkpt lat="44.0939886" lon="8.2306286"><ele>7.666666666666666</ele><time>2026-05-03T16:03:02.156Z</time></trkpt><trkpt lat="44.0938902" lon="8.2306118"><ele>7.833333333333333</ele><time>2026-05-03T16:03:04.156Z</time></trkpt><trkpt lat="44.093804" lon="8.2306053"><ele>8.0</ele><time>2026-05-03T16:03:06.156Z</time></trkpt><trkpt lat="44.093675" lon="8.2305767"><ele>7.999999999999999</ele><time>2026-05-03T16:03:08.156Z</time></trkpt><trkpt lat="44.0936011" lon="8.2305111"><ele>8.0</ele><time>2026-05-03T16:03:10.156Z</time></trkpt><trkpt lat="44.0935401" lon="8.2304663"><ele>8.0</ele><time>2026-05-03T16:03:11.156Z</time></trkpt><trkpt lat="44.0934731" lon="8.2304208"><ele>8.0</ele><time>2026-05-03T16:03:12.156Z</time></trkpt><trkpt lat="44.0933946" lon="8.2303632"><ele>7.999999999999999</ele><time>2026-05-03T16:03:13.156Z</time></trkpt><trkpt lat="44.0933172" lon="8.2303052"><ele>8.0</ele><time>2026-05-03T16:03:14.157Z</time></trkpt><trkpt lat="44.0932385" lon="8.2302549"><ele>7.833333333333333</ele><time>2026-05-03T16:03:15.157Z</time></trkpt><trkpt lat="44.093167" lon="8.2302035"><ele>7.666666666666666</ele><time>2026-05-03T16:03:16.156Z</time></trkpt><trkpt lat="44.0931089" lon="8.2301565"><ele>7.5</ele><time>2026-05-03T16:03:17.157Z</time></trkpt><trkpt lat="44.0930348" lon="8.2300665"><ele>7.333333333333334</ele><time>2026-05-03T16:03:19.156Z</time></trkpt><trkpt lat="44.0929879" lon="8.2299995"><ele>7.166666666666667</ele><time>2026-05-03T16:04:28.156Z</time></trkpt><trkpt lat="44.092935" lon="8.2299461"><ele>7.0</ele><time>2026-05-03T16:06:48.157Z</time></trkpt><trkpt lat="44.0930042" lon="8.2299683"><ele>7.000000000000001</ele><time>2026-05-03T16:07:40.213Z</time></trkpt><trkpt lat="44.0929935" lon="8.2300732"><ele>7.0</ele><time>2026-05-03T16:18:26.157Z</time></trkpt><trkpt lat="44.0929092" lon="8.2300218"><ele>7.0</ele><time>2026-05-03T16:19:50.156Z</time></trkpt><trkpt lat="44.0928437" lon="8.2299841"><ele>7.0</ele><time>2026-05-03T16:19:51.156Z</time></trkpt><trkpt lat="44.0927665" lon="8.2299368"><ele>7.000000000000001</ele><time>2026-05-03T16:19:52.156Z</time></trkpt><trkpt lat="44.0926875" lon="8.2298801"><ele>7.0</ele><time>2026-05-03T16:19:53.156Z</time></trkpt><trkpt lat="44.0926016" lon="8.2298303"><ele>7.3999999999999995</ele><time>2026-05-03T16:19:54.157Z</time></trkpt><trkpt lat="44.0925153" lon="8.2297705"><ele>7.799999999999999</ele><time>2026-05-03T16:19:55.158Z</time></trkpt><trkpt lat="44.0924258" lon="8.2297185"><ele>8.2</ele><time>2026-05-03T16:19:56.156Z</time></trkpt><trkpt lat="44.0923385" lon="8.2296647"><ele>8.6</ele><time>2026-05-03T16:19:57.156Z</time></trkpt><trkpt lat="44.092246" lon="8.2296175"><ele>9.0</ele><time>2026-05-03T16:19:58.156Z</time></trkpt><trkpt lat="44.0921485" lon="8.2295635"><ele>9.0</ele><time>2026-05-03T16:19:59.156Z</time></trkpt><trkpt lat="44.0920334" lon="8.2295199"><ele>9.0</ele><time>2026-05-03T16:20:00.157Z</time></trkpt><trkpt lat="44.0919205" lon="8.2294654"><ele>9.0</ele><time>2026-05-03T16:20:01.156Z</time></trkpt><trkpt lat="44.0918049" lon="8.2294116"><ele>9.0</ele><time>2026-05-03T16:20:02.156Z</time></trkpt><trkpt lat="44.0916854" lon="8.2293476"><ele>8.666666666666666</ele><time>2026-05-03T16:20:03.156Z</time></trkpt><trkpt lat="44.0915528" lon="8.2292821"><ele>8.333333333333332</ele><time>2026-05-03T16:20:04.157Z</time></trkpt><trkpt lat="44.0914004" lon="8.2292076"><ele>8.0</ele><time>2026-05-03T16:20:05.157Z</time></trkpt><trkpt lat="44.0912452" lon="8.2291136"><ele>8.0</ele><time>2026-05-03T16:20:06.156Z</time></trkpt><trkpt lat="44.0911032" lon="8.2290146"><ele>8.0</ele><time>2026-05-03T16:20:07.156Z</time></trkpt><trkpt lat="44.0909628" lon="8.2289082"><ele>8.0</ele><time>2026-05-03T16:20:08.156Z</time></trkpt><trkpt lat="44.0908248" lon="8.2287992"><ele>7.5</ele><time>2026-05-03T16:20:09.157Z</time></trkpt><trkpt lat="44.0906992" lon="8.228689"><ele>7.0</ele><time>2026-05-03T16:20:10.156Z</time></trkpt><trkpt lat="44.0905753" lon="8.2285841"><ele>6.5</ele><time>2026-05-03T16:20:11.156Z</time></trkpt><trkpt lat="44.0904662" lon="8.2284876"><ele>6.0</ele><time>2026-05-03T16:20:12.156Z</time></trkpt><trkpt lat="44.0903582" lon="8.2283922"><ele>6.0</ele><time>2026-05-03T16:20:13.157Z</time></trkpt><trkpt lat="44.0902462" lon="8.2282989"><ele>6.0</ele><time>2026-05-03T16:20:14.156Z</time></trkpt><trkpt lat="44.090123" lon="8.2282018"><ele>6.0</ele><time>2026-05-03T16:20:15.156Z</time></trkpt><trkpt lat="44.0899834" lon="8.2281107"><ele>6.0</ele><time>2026-05-03T16:20:16.156Z</time></trkpt><trkpt lat="44.0898369" lon="8.2280192"><ele>6.333333333333334</ele><time>2026-05-03T16:20:17.156Z</time></trkpt><trkpt lat="44.0896896" lon="8.2279224"><ele>6.666666666666667</ele><time>2026-05-03T16:20:18.156Z</time></trkpt><trkpt lat="44.0895472" lon="8.2278438"><ele>7.0</ele><time>2026-05-03T16:20:19.157Z</time></trkpt><trkpt lat="44.0894072" lon="8.22777"><ele>7.0</ele><time>2026-05-03T16:20:20.156Z</time></trkpt><trkpt lat="44.0892659" lon="8.2276943"><ele>7.0</ele><time>2026-05-03T16:20:21.156Z</time></trkpt><trkpt lat="44.0891188" lon="8.2276149"><ele>7.0</ele><time>2026-05-03T16:20:22.156Z</time></trkpt><trkpt lat="44.0889675" lon="8.2275159"><ele>7.0</ele><time>2026-05-03T16:20:23.156Z</time></trkpt><trkpt lat="44.0888104" lon="8.2274258"><ele>7.0</ele><time>2026-05-03T16:20:24.157Z</time></trkpt><trkpt lat="44.0886424" lon="8.2273261"><ele>7.0</ele><time>2026-05-03T16:20:25.157Z</time></trkpt><trkpt lat="44.0884623" lon="8.2272191"><ele>6.333333333333334</ele><time>2026-05-03T16:20:26.157Z</time></trkpt><trkpt lat="44.0882717" lon="8.2271027"><ele>5.666666666666667</ele><time>2026-05-03T16:20:27.156Z</time></trkpt><trkpt lat="44.0880732" lon="8.2269806"><ele>5.0</ele><time>2026-05-03T16:20:28.156Z</time></trkpt><trkpt lat="44.0878767" lon="8.2268626"><ele>5.0</ele><time>2026-05-03T16:20:29.156Z</time></trkpt><trkpt lat="44.0876808" lon="8.2267472"><ele>5.0</ele><time>2026-05-03T16:20:30.156Z</time></trkpt><trkpt lat="44.0874777" lon="8.2266291"><ele>5.0</ele><time>2026-05-03T16:20:31.156Z</time></trkpt><trkpt lat="44.0872753" lon="8.2265063"><ele>4.666666666666667</ele><time>2026-05-03T16:20:32.156Z</time></trkpt><trkpt lat="44.087074" lon="8.2263842"><ele>4.333333333333333</ele><time>2026-05-03T16:20:33.156Z</time></trkpt><trkpt lat="44.0868743" lon="8.2262587"><ele>4.0</ele><time>2026-05-03T16:20:34.156Z</time></trkpt><trkpt lat="44.0866751" lon="8.2261371"><ele>3.6666666666666665</ele><time>2026-05-03T16:20:35.156Z</time></trkpt><trkpt lat="44.0864713" lon="8.2260224"><ele>3.333333333333333</ele><time>2026-05-03T16:20:36.156Z</time></trkpt><trkpt lat="44.086265" lon="8.2259167"><ele>3.0</ele><time>2026-05-03T16:20:37.156Z</time></trkpt><trkpt lat="44.0860587" lon="8.2258128"><ele>3.0</ele><time>2026-05-03T16:20:38.156Z</time></trkpt><trkpt lat="44.0858508" lon="8.2257133"><ele>3.0</ele><time>2026-05-03T16:20:39.157Z</time></trkpt><trkpt lat="44.0856409" lon="8.2256203"><ele>3.0</ele><time>2026-05-03T16:20:40.156Z</time></trkpt><trkpt lat="44.0854316" lon="8.225529"><ele>3.333333333333333</ele><time>2026-05-03T16:20:41.157Z</time></trkpt><trkpt lat="44.0852253" lon="8.2254372"><ele>3.6666666666666665</ele><time>2026-05-03T16:20:42.156Z</time></trkpt><trkpt lat="44.085023" lon="8.2253437"><ele>4.0</ele><time>2026-05-03T16:20:43.156Z</time></trkpt><trkpt lat="44.0848274" lon="8.2252429"><ele>4.0</ele><time>2026-05-03T16:20:44.156Z</time></trkpt><trkpt lat="44.0846427" lon="8.2251228"><ele>4.0</ele><time>2026-05-03T16:20:45.156Z</time></trkpt><trkpt lat="44.0844701" lon="8.224976"><ele>4.0</ele><time>2026-05-03T16:20:46.156Z</time></trkpt><trkpt lat="44.0843054" lon="8.224808"><ele>3.6666666666666665</ele><time>2026-05-03T16:20:47.156Z</time></trkpt><trkpt lat="44.0841456" lon="8.2246281"><ele>3.333333333333333</ele><time>2026-05-03T16:20:48.157Z</time></trkpt><trkpt lat="44.083988" lon="8.2244429"><ele>3.0</ele><time>2026-05-03T16:20:49.156Z</time></trkpt><trkpt lat="44.0838315" lon="8.2242589"><ele>3.0</ele><time>2026-05-03T16:20:50.157Z</time></trkpt><trkpt lat="44.0836761" lon="8.2240799"><ele>3.0</ele><time>2026-05-03T16:20:51.156Z</time></trkpt><trkpt lat="44.083524" lon="8.2239036"><ele>3.0</ele><time>2026-05-03T16:20:52.156Z</time></trkpt><trkpt lat="44.0833736" lon="8.2237303"><ele>3.0</ele><time>2026-05-03T16:20:53.156Z</time></trkpt><trkpt lat="44.083233" lon="8.2235625"><ele>3.0</ele><time>2026-05-03T16:20:54.156Z</time></trkpt><trkpt lat="44.083101" lon="8.2234049"><ele>3.0</ele><time>2026-05-03T16:20:55.156Z</time></trkpt><trkpt lat="44.0829716" lon="8.2232612"><ele>3.75</ele><time>2026-05-03T16:20:56.157Z</time></trkpt><trkpt lat="44.0828454" lon="8.2231304"><ele>4.5</ele><time>2026-05-03T16:20:57.156Z</time></trkpt><trkpt lat="44.0827257" lon="8.2230117"><ele>5.25</ele><time>2026-05-03T16:20:58.157Z</time></trkpt><trkpt lat="44.0826118" lon="8.2229112"><ele>6.0</ele><time>2026-05-03T16:20:59.156Z</time></trkpt><trkpt lat="44.0825026" lon="8.2228204"><ele>5.8</ele><time>2026-05-03T16:21:00.157Z</time></trkpt><trkpt lat="44.0823988" lon="8.2227272"><ele>5.6</ele><time>2026-05-03T16:21:01.156Z</time></trkpt><trkpt lat="44.0823086" lon="8.2226405"><ele>5.4</ele><time>2026-05-03T16:21:02.156Z</time></trkpt><trkpt lat="44.0822449" lon="8.2225738"><ele>5.2</ele><time>2026-05-03T16:21:03.156Z</time></trkpt><trkpt lat="44.0821906" lon="8.2225064"><ele>5.0</ele><time>2026-05-03T16:21:05.156Z</time></trkpt><trkpt lat="44.0821184" lon="8.2224372"><ele>5.0</ele><time>2026-05-03T16:21:07.157Z</time></trkpt><trkpt lat="44.0820428" lon="8.2223936"><ele>5.0</ele><time>2026-05-03T16:21:08.157Z</time></trkpt><trkpt lat="44.0819427" lon="8.2223514"><ele>5.0</ele><time>2026-05-03T16:21:09.156Z</time></trkpt><trkpt lat="44.0818234" lon="8.2222917"><ele>5.0</ele><time>2026-05-03T16:21:10.157Z</time></trkpt><trkpt lat="44.0816981" lon="8.2222066"><ele>4.333333333333334</ele><time>2026-05-03T16:21:11.156Z</time></trkpt><trkpt lat="44.0815671" lon="8.2221088"><ele>3.666666666666667</ele><time>2026-05-03T16:21:12.157Z</time></trkpt><trkpt lat="44.0814225" lon="8.2220029"><ele>3.0</ele><time>2026-05-03T16:21:13.156Z</time></trkpt><trkpt lat="44.081267" lon="8.2218847"><ele>3.0</ele><time>2026-05-03T16:21:14.156Z</time></trkpt><trkpt lat="44.0811084" lon="8.2217725"><ele>3.0</ele><time>2026-05-03T16:21:15.156Z</time></trkpt><trkpt lat="44.0809455" lon="8.2216649"><ele>3.0</ele><time>2026-05-03T16:21:16.156Z</time></trkpt><trkpt lat="44.0807723" lon="8.2215563"><ele>3.0</ele><time>2026-05-03T16:21:17.157Z</time></trkpt><trkpt lat="44.0805928" lon="8.2214444"><ele>3.0</ele><time>2026-05-03T16:21:18.156Z</time></trkpt><trkpt lat="44.080411" lon="8.2213325"><ele>3.0</ele><time>2026-05-03T16:21:19.156Z</time></trkpt><trkpt lat="44.0802262" lon="8.2212093"><ele>3.0</ele><time>2026-05-03T16:21:20.156Z</time></trkpt><trkpt lat="44.0800412" lon="8.2210898"><ele>3.0</ele><time>2026-05-03T16:21:21.156Z</time></trkpt><trkpt lat="44.0798537" lon="8.2209708"><ele>3.0</ele><time>2026-05-03T16:21:22.156Z</time></trkpt><trkpt lat="44.079662" lon="8.2208495"><ele>3.0</ele><time>2026-05-03T16:21:23.157Z</time></trkpt><trkpt lat="44.0794709" lon="8.2207238"><ele>3.0</ele><time>2026-05-03T16:21:24.156Z</time></trkpt><trkpt lat="44.0792751" lon="8.2205976"><ele>3.0</ele><time>2026-05-03T16:21:25.156Z</time></trkpt><trkpt lat="44.0790796" lon="8.2204706"><ele>3.0</ele><time>2026-05-03T16:21:26.156Z</time></trkpt><trkpt lat="44.0788843" lon="8.2203408"><ele>3.0</ele><time>2026-05-03T16:21:27.156Z</time></trkpt><trkpt lat="44.0786936" lon="8.2202031"><ele>3.0</ele><time>2026-05-03T16:21:28.156Z</time></trkpt><trkpt lat="44.0785112" lon="8.2200591"><ele>3.0</ele><time>2026-05-03T16:21:29.157Z</time></trkpt><trkpt lat="44.0783354" lon="8.2199189"><ele>3.0</ele><time>2026-05-03T16:21:30.156Z</time></trkpt><trkpt lat="44.0781557" lon="8.2197822"><ele>3.0</ele><time>2026-05-03T16:21:31.156Z</time></trkpt><trkpt lat="44.0779749" lon="8.2196433"><ele>2.6666666666666665</ele><time>2026-05-03T16:21:32.156Z</time></trkpt><trkpt lat="44.0777987" lon="8.2195011"><ele>2.333333333333333</ele><time>2026-05-03T16:21:33.157Z</time></trkpt><trkpt lat="44.0776245" lon="8.2193551"><ele>2.0</ele><time>2026-05-03T16:21:34.156Z</time></trkpt><trkpt lat="44.0774472" lon="8.2192135"><ele>2.6666666666666665</ele><time>2026-05-03T16:21:35.156Z</time></trkpt><trkpt lat="44.0772659" lon="8.2190839"><ele>3.333333333333333</ele><time>2026-05-03T16:21:36.156Z</time></trkpt><trkpt lat="44.0770839" lon="8.218969"><ele>4.0</ele><time>2026-05-03T16:21:37.157Z</time></trkpt><trkpt lat="44.0769084" lon="8.218875"><ele>4.0</ele><time>2026-05-03T16:21:38.157Z</time></trkpt><trkpt lat="44.0767394" lon="8.2188031"><ele>4.0</ele><time>2026-05-03T16:21:39.156Z</time></trkpt><trkpt lat="44.0765761" lon="8.2187471"><ele>4.0</ele><time>2026-05-03T16:21:40.156Z</time></trkpt><trkpt lat="44.0764158" lon="8.2186909"><ele>4.0</ele><time>2026-05-03T16:21:41.157Z</time></trkpt><trkpt lat="44.0762508" lon="8.2186335"><ele>4.0</ele><time>2026-05-03T16:21:42.156Z</time></trkpt><trkpt lat="44.0760818" lon="8.2185635"><ele>4.0</ele><time>2026-05-03T16:21:43.157Z</time></trkpt><trkpt lat="44.0759087" lon="8.218482"><ele>3.6666666666666665</ele><time>2026-05-03T16:21:44.156Z</time></trkpt><trkpt lat="44.0757303" lon="8.2184008"><ele>3.333333333333333</ele><time>2026-05-03T16:21:45.156Z</time></trkpt><trkpt lat="44.0755456" lon="8.2183259"><ele>3.0</ele><time>2026-05-03T16:21:46.157Z</time></trkpt><trkpt lat="44.0753566" lon="8.2182558"><ele>3.0</ele><time>2026-05-03T16:21:47.156Z</time></trkpt><trkpt lat="44.0751623" lon="8.2181844"><ele>3.0</ele><time>2026-05-03T16:21:48.156Z</time></trkpt><trkpt lat="44.0749651" lon="8.218109"><ele>3.0</ele><time>2026-05-03T16:21:49.156Z</time></trkpt><trkpt lat="44.074764" lon="8.2180341"><ele>3.0</ele><time>2026-05-03T16:21:50.156Z</time></trkpt><trkpt lat="44.0745579" lon="8.2179573"><ele>3.0</ele><time>2026-05-03T16:21:51.156Z</time></trkpt><trkpt lat="44.07435" lon="8.21788"><ele>3.0</ele><time>2026-05-03T16:21:52.156Z</time></trkpt><trkpt lat="44.0741407" lon="8.2178065"><ele>3.666666666666667</ele><time>2026-05-03T16:21:53.156Z</time></trkpt><trkpt lat="44.0739283" lon="8.2177333"><ele>4.333333333333334</ele><time>2026-05-03T16:21:54.156Z</time></trkpt><trkpt lat="44.0737125" lon="8.217658"><ele>5.0</ele><time>2026-05-03T16:21:55.156Z</time></trkpt><trkpt lat="44.0734972" lon="8.2175819"><ele>5.0</ele><time>2026-05-03T16:21:56.156Z</time></trkpt><trkpt lat="44.0732805" lon="8.2175034"><ele>5.0</ele><time>2026-05-03T16:21:57.156Z</time></trkpt><trkpt lat="44.0730636" lon="8.2174216"><ele>5.0</ele><time>2026-05-03T16:21:58.156Z</time></trkpt><trkpt lat="44.072846" lon="8.2173379"><ele>4.0</ele><time>2026-05-03T16:21:59.156Z</time></trkpt><trkpt lat="44.0726269" lon="8.2172528"><ele>3.0</ele><time>2026-05-03T16:22:00.156Z</time></trkpt><trkpt lat="44.0724065" lon="8.2171618"><ele>2.5</ele><time>2026-05-03T16:22:01.156Z</time></trkpt><trkpt lat="44.0721857" lon="8.2170664"><ele>2.0</ele><time>2026-05-03T16:22:02.156Z</time></trkpt><trkpt lat="44.0719658" lon="8.2169714"><ele>2.0</ele><time>2026-05-03T16:22:03.156Z</time></trkpt><trkpt lat="44.0717474" lon="8.2168749"><ele>2.0</ele><time>2026-05-03T16:22:04.157Z</time></trkpt><trkpt lat="44.0715311" lon="8.2167768"><ele>2.0</ele><time>2026-05-03T16:22:05.156Z</time></trkpt><trkpt lat="44.0713165" lon="8.2166769"><ele>2.0</ele><time>2026-05-03T16:22:06.156Z</time></trkpt><trkpt lat="44.0711024" lon="8.2165748"><ele>2.5</ele><time>2026-05-03T16:22:07.156Z</time></trkpt><trkpt lat="44.0708897" lon="8.2164704"><ele>3.0</ele><time>2026-05-03T16:22:08.156Z</time></trkpt><trkpt lat="44.0706778" lon="8.2163651"><ele>3.0</ele><time>2026-05-03T16:22:09.156Z</time></trkpt><trkpt lat="44.0704661" lon="8.2162625"><ele>3.0</ele><time>2026-05-03T16:22:10.156Z</time></trkpt><trkpt lat="44.0702545" lon="8.216162"><ele>3.0</ele><time>2026-05-03T16:22:11.157Z</time></trkpt><trkpt lat="44.0700431" lon="8.2160641"><ele>2.6666666666666665</ele><time>2026-05-03T16:22:12.157Z</time></trkpt><trkpt lat="44.0698342" lon="8.2159697"><ele>2.333333333333333</ele><time>2026-05-03T16:22:13.156Z</time></trkpt><trkpt lat="44.0696283" lon="8.2158795"><ele>2.0</ele><time>2026-05-03T16:22:14.157Z</time></trkpt><trkpt lat="44.0694258" lon="8.2157877"><ele>2.0</ele><time>2026-05-03T16:22:15.156Z</time></trkpt><trkpt lat="44.0692274" lon="8.2156923"><ele>2.0</ele><time>2026-05-03T16:22:16.156Z</time></trkpt><trkpt lat="44.0690336" lon="8.215591"><ele>2.0</ele><time>2026-05-03T16:22:17.156Z</time></trkpt><trkpt lat="44.0688458" lon="8.2154733"><ele>2.333333333333333</ele><time>2026-05-03T16:22:18.156Z</time></trkpt><trkpt lat="44.0686605" lon="8.2153433"><ele>2.6666666666666665</ele><time>2026-05-03T16:22:19.156Z</time></trkpt><trkpt lat="44.0684754" lon="8.2152056"><ele>3.0</ele><time>2026-05-03T16:22:20.156Z</time></trkpt><trkpt lat="44.0682873" lon="8.2150746"><ele>2.6666666666666665</ele><time>2026-05-03T16:22:21.158Z</time></trkpt><trkpt lat="44.0680981" lon="8.2149521"><ele>2.333333333333333</ele><time>2026-05-03T16:22:22.156Z</time></trkpt><trkpt lat="44.0679076" lon="8.2148401"><ele>2.0</ele><time>2026-05-03T16:22:23.156Z</time></trkpt><trkpt lat="44.0677126" lon="8.2147338"><ele>1.6666666666666665</ele><time>2026-05-03T16:22:24.156Z</time></trkpt><trkpt lat="44.0675137" lon="8.2146361"><ele>1.3333333333333333</ele><time>2026-05-03T16:22:25.156Z</time></trkpt><trkpt lat="44.06731" lon="8.2145468"><ele>1.0</ele><time>2026-05-03T16:22:26.156Z</time></trkpt><trkpt lat="44.0671036" lon="8.21446"><ele>1.0</ele><time>2026-05-03T16:22:27.156Z</time></trkpt><trkpt lat="44.0669004" lon="8.2143708"><ele>1.0</ele><time>2026-05-03T16:22:28.156Z</time></trkpt><trkpt lat="44.0666982" lon="8.2142814"><ele>1.0</ele><time>2026-05-03T16:22:29.157Z</time></trkpt><trkpt lat="44.0664974" lon="8.2141927"><ele>1.6666666666666665</ele><time>2026-05-03T16:22:30.156Z</time></trkpt><trkpt lat="44.0662954" lon="8.2141048"><ele>2.3333333333333335</ele><time>2026-05-03T16:22:31.156Z</time></trkpt><trkpt lat="44.0660951" lon="8.2140156"><ele>3.0</ele><time>2026-05-03T16:22:32.156Z</time></trkpt><trkpt lat="44.0658953" lon="8.2139239"><ele>3.0</ele><time>2026-05-03T16:22:33.156Z</time></trkpt><trkpt lat="44.065694" lon="8.2138309"><ele>3.0</ele><time>2026-05-03T16:22:34.156Z</time></trkpt><trkpt lat="44.065492" lon="8.2137368"><ele>3.0</ele><time>2026-05-03T16:22:35.156Z</time></trkpt><trkpt lat="44.0652875" lon="8.2136449"><ele>3.0</ele><time>2026-05-03T16:22:36.156Z</time></trkpt><trkpt lat="44.0650846" lon="8.2135528"><ele>3.0</ele><time>2026-05-03T16:22:37.156Z</time></trkpt><trkpt lat="44.064882" lon="8.2134617"><ele>3.0</ele><time>2026-05-03T16:22:38.156Z</time></trkpt><trkpt lat="44.0646803" lon="8.2133725"><ele>3.0</ele><time>2026-05-03T16:22:39.156Z</time></trkpt><trkpt lat="44.0644774" lon="8.2132808"><ele>3.0</ele><time>2026-05-03T16:22:40.157Z</time></trkpt><trkpt lat="44.0642751" lon="8.2131881"><ele>3.0</ele><time>2026-05-03T16:22:41.156Z</time></trkpt><trkpt lat="44.0640713" lon="8.2130983"><ele>3.333333333333333</ele><time>2026-05-03T16:22:42.157Z</time></trkpt><trkpt lat="44.0638673" lon="8.2130093"><ele>3.6666666666666665</ele><time>2026-05-03T16:22:43.156Z</time></trkpt><trkpt lat="44.063663" lon="8.212921"><ele>4.0</ele><time>2026-05-03T16:22:44.156Z</time></trkpt><trkpt lat="44.0634596" lon="8.212831"><ele>3.6666666666666665</ele><time>2026-05-03T16:22:45.156Z</time></trkpt><trkpt lat="44.0632563" lon="8.2127403"><ele>3.333333333333333</ele><time>2026-05-03T16:22:46.156Z</time></trkpt><trkpt lat="44.0630518" lon="8.2126478"><ele>3.0</ele><time>2026-05-03T16:22:47.156Z</time></trkpt><trkpt lat="44.0628462" lon="8.2125581"><ele>3.0</ele><time>2026-05-03T16:22:48.157Z</time></trkpt><trkpt lat="44.0626412" lon="8.2124672"><ele>3.0</ele><time>2026-05-03T16:22:49.156Z</time></trkpt><trkpt lat="44.0624377" lon="8.2123754"><ele>3.0</ele><time>2026-05-03T16:22:50.156Z</time></trkpt><trkpt lat="44.0622353" lon="8.2122856"><ele>3.0</ele><time>2026-05-03T16:22:51.156Z</time></trkpt><trkpt lat="44.0620329" lon="8.2121966"><ele>3.0</ele><time>2026-05-03T16:22:52.157Z</time></trkpt><trkpt lat="44.0618272" lon="8.212108"><ele>3.0</ele><time>2026-05-03T16:22:53.156Z</time></trkpt><trkpt lat="44.0616198" lon="8.2120219"><ele>3.333333333333333</ele><time>2026-05-03T16:22:54.156Z</time></trkpt><trkpt lat="44.0614119" lon="8.2119357"><ele>3.6666666666666665</ele><time>2026-05-03T16:22:55.156Z</time></trkpt><trkpt lat="44.0612021" lon="8.2118528"><ele>4.0</ele><time>2026-05-03T16:22:56.156Z</time></trkpt><trkpt lat="44.0609918" lon="8.2117774"><ele>3.6666666666666665</ele><time>2026-05-03T16:22:57.157Z</time></trkpt><trkpt lat="44.0607822" lon="8.2117053"><ele>3.333333333333333</ele><time>2026-05-03T16:22:58.156Z</time></trkpt><trkpt lat="44.0605726" lon="8.2116403"><ele>3.0</ele><time>2026-05-03T16:22:59.156Z</time></trkpt><trkpt lat="44.0603654" lon="8.2115798"><ele>3.0</ele><time>2026-05-03T16:23:00.156Z</time></trkpt><trkpt lat="44.0601599" lon="8.211522"><ele>3.0</ele><time>2026-05-03T16:23:01.156Z</time></trkpt><trkpt lat="44.0599569" lon="8.2114654"><ele>3.0</ele><time>2026-05-03T16:23:02.156Z</time></trkpt><trkpt lat="44.059756" lon="8.2114099"><ele>3.333333333333333</ele><time>2026-05-03T16:23:03.156Z</time></trkpt><trkpt lat="44.0595585" lon="8.2113549"><ele>3.6666666666666665</ele><time>2026-05-03T16:23:04.157Z</time></trkpt><trkpt lat="44.0593679" lon="8.211306"><ele>4.0</ele><time>2026-05-03T16:23:05.156Z</time></trkpt><trkpt lat="44.0591873" lon="8.2112603"><ele>3.6666666666666665</ele><time>2026-05-03T16:23:06.156Z</time></trkpt><trkpt lat="44.0590181" lon="8.2112124"><ele>3.333333333333333</ele><time>2026-05-03T16:23:07.157Z</time></trkpt><trkpt lat="44.0588574" lon="8.2111661"><ele>3.0</ele><time>2026-05-03T16:23:08.157Z</time></trkpt><trkpt lat="44.0587076" lon="8.2111247"><ele>3.0</ele><time>2026-05-03T16:23:09.156Z</time></trkpt><trkpt lat="44.0585664" lon="8.2110864"><ele>3.0</ele><time>2026-05-03T16:23:10.157Z</time></trkpt><trkpt lat="44.0584357" lon="8.2110499"><ele>3.0</ele><time>2026-05-03T16:23:11.156Z</time></trkpt><trkpt lat="44.0583123" lon="8.2110167"><ele>3.0</ele><time>2026-05-03T16:23:12.156Z</time></trkpt><trkpt lat="44.0581945" lon="8.2109809"><ele>3.2</ele><time>2026-05-03T16:23:13.156Z</time></trkpt><trkpt lat="44.0580808" lon="8.2109477"><ele>3.4</ele><time>2026-05-03T16:23:14.156Z</time></trkpt><trkpt lat="44.0579729" lon="8.2109099"><ele>3.6000000000000005</ele><time>2026-05-03T16:23:15.156Z</time></trkpt><trkpt lat="44.0578692" lon="8.210869"><ele>3.8000000000000003</ele><time>2026-05-03T16:23:16.156Z</time></trkpt><trkpt lat="44.0577599" lon="8.210826"><ele>4.0</ele><time>2026-05-03T16:23:17.157Z</time></trkpt><trkpt lat="44.0576438" lon="8.2107785"><ele>4.0</ele><time>2026-05-03T16:23:18.156Z</time></trkpt><trkpt lat="44.0575214" lon="8.2107305"><ele>4.0</ele><time>2026-05-03T16:23:19.156Z</time></trkpt><trkpt lat="44.0573905" lon="8.2106665"><ele>4.0</ele><time>2026-05-03T16:23:20.156Z</time></trkpt><trkpt lat="44.0572471" lon="8.2105938"><ele>4.0</ele><time>2026-05-03T16:23:21.156Z</time></trkpt><trkpt lat="44.0570958" lon="8.2105176"><ele>4.0</ele><time>2026-05-03T16:23:22.156Z</time></trkpt><trkpt lat="44.0569415" lon="8.2104389"><ele>4.0</ele><time>2026-05-03T16:23:23.156Z</time></trkpt><trkpt lat="44.0567846" lon="8.2103575"><ele>4.0</ele><time>2026-05-03T16:23:24.156Z</time></trkpt><trkpt lat="44.0566196" lon="8.2102701"><ele>4.0</ele><time>2026-05-03T16:23:25.157Z</time></trkpt><trkpt lat="44.0564516" lon="8.2101797"><ele>4.0</ele><time>2026-05-03T16:23:26.156Z</time></trkpt><trkpt lat="44.0562818" lon="8.2100812"><ele>4.0</ele><time>2026-05-03T16:23:27.156Z</time></trkpt><trkpt lat="44.0561087" lon="8.2099832"><ele>4.0</ele><time>2026-05-03T16:23:28.156Z</time></trkpt><trkpt lat="44.0559373" lon="8.2098882"><ele>4.0</ele><time>2026-05-03T16:23:29.156Z</time></trkpt><trkpt lat="44.0557618" lon="8.2097988"><ele>4.0</ele><time>2026-05-03T16:23:30.157Z</time></trkpt><trkpt lat="44.0555832" lon="8.2097068"><ele>4.0</ele><time>2026-05-03T16:23:31.156Z</time></trkpt><trkpt lat="44.055403" lon="8.2096082"><ele>4.0</ele><time>2026-05-03T16:23:32.156Z</time></trkpt><trkpt lat="44.0552206" lon="8.2095026"><ele>4.0</ele><time>2026-05-03T16:23:33.156Z</time></trkpt><trkpt lat="44.0550371" lon="8.2093948"><ele>4.666666666666666</ele><time>2026-05-03T16:23:34.156Z</time></trkpt><trkpt lat="44.0548515" lon="8.2092878"><ele>5.333333333333333</ele><time>2026-05-03T16:23:35.156Z</time></trkpt><trkpt lat="44.0546661" lon="8.2091845"><ele>6.0</ele><time>2026-05-03T16:23:36.156Z</time></trkpt><trkpt lat="44.0544813" lon="8.2090772"><ele>6.0</ele><time>2026-05-03T16:23:37.156Z</time></trkpt><trkpt lat="44.0542962" lon="8.2089724"><ele>6.0</ele><time>2026-05-03T16:23:38.157Z</time></trkpt><trkpt lat="44.0541102" lon="8.2088737"><ele>6.0</ele><time>2026-05-03T16:23:39.157Z</time></trkpt><trkpt lat="44.0539219" lon="8.2087747"><ele>6.0</ele><time>2026-05-03T16:23:40.156Z</time></trkpt><trkpt lat="44.0537311" lon="8.2086755"><ele>6.0</ele><time>2026-05-03T16:23:41.156Z</time></trkpt><trkpt lat="44.053541" lon="8.2085721"><ele>6.0</ele><time>2026-05-03T16:23:42.156Z</time></trkpt><trkpt lat="44.0533551" lon="8.2084623"><ele>6.0</ele><time>2026-05-03T16:23:43.157Z</time></trkpt><trkpt lat="44.0531704" lon="8.2083553"><ele>6.0</ele><time>2026-05-03T16:23:44.156Z</time></trkpt><trkpt lat="44.0529857" lon="8.2082491"><ele>6.0</ele><time>2026-05-03T16:23:45.157Z</time></trkpt><trkpt lat="44.0528016" lon="8.2081494"><ele>6.333333333333334</ele><time>2026-05-03T16:23:46.156Z</time></trkpt><trkpt lat="44.0526146" lon="8.2080516"><ele>6.666666666666667</ele><time>2026-05-03T16:23:47.157Z</time></trkpt><trkpt lat="44.0524296" lon="8.207952"><ele>7.0</ele><time>2026-05-03T16:23:48.156Z</time></trkpt><trkpt lat="44.0522409" lon="8.2078556"><ele>6.333333333333334</ele><time>2026-05-03T16:23:49.156Z</time></trkpt><trkpt lat="44.0520499" lon="8.2077616"><ele>5.666666666666667</ele><time>2026-05-03T16:23:50.157Z</time></trkpt><trkpt lat="44.0518547" lon="8.2076778"><ele>5.0</ele><time>2026-05-03T16:23:51.156Z</time></trkpt><trkpt lat="44.0516646" lon="8.2076082"><ele>4.0</ele><time>2026-05-03T16:23:52.156Z</time></trkpt><trkpt lat="44.0514874" lon="8.2075434"><ele>3.0</ele><time>2026-05-03T16:23:53.156Z</time></trkpt><trkpt lat="44.0513196" lon="8.2074734"><ele>2.0</ele><time>2026-05-03T16:23:54.156Z</time></trkpt><trkpt lat="44.0511574" lon="8.2074233"><ele>2.0</ele><time>2026-05-03T16:23:55.156Z</time></trkpt><trkpt lat="44.0509861" lon="8.2073676"><ele>2.0</ele><time>2026-05-03T16:23:56.157Z</time></trkpt><trkpt lat="44.0508067" lon="8.2073009"><ele>2.0</ele><time>2026-05-03T16:23:57.157Z</time></trkpt><trkpt lat="44.0506153" lon="8.207228"><ele>3.0</ele><time>2026-05-03T16:23:58.157Z</time></trkpt><trkpt lat="44.0504177" lon="8.2071523"><ele>4.0</ele><time>2026-05-03T16:23:59.157Z</time></trkpt><trkpt lat="44.0502139" lon="8.2070717"><ele>5.0</ele><time>2026-05-03T16:24:00.158Z</time></trkpt><trkpt lat="44.0500178" lon="8.2069954"><ele>5.333333333333334</ele><time>2026-05-03T16:24:01.157Z</time></trkpt><trkpt lat="44.0498185" lon="8.2069189"><ele>5.666666666666667</ele><time>2026-05-03T16:24:02.157Z</time></trkpt><trkpt lat="44.0496205" lon="8.2068423"><ele>6.0</ele><time>2026-05-03T16:24:03.157Z</time></trkpt><trkpt lat="44.0494166" lon="8.2067792"><ele>6.0</ele><time>2026-05-03T16:24:04.157Z</time></trkpt><trkpt lat="44.0492104" lon="8.2067255"><ele>6.0</ele><time>2026-05-03T16:24:05.158Z</time></trkpt><trkpt lat="44.0489999" lon="8.2066939"><ele>6.0</ele><time>2026-05-03T16:24:06.157Z</time></trkpt><trkpt lat="44.0487876" lon="8.2066753"><ele>5.333333333333333</ele><time>2026-05-03T16:24:07.157Z</time></trkpt><trkpt lat="44.0485715" lon="8.2066671"><ele>4.666666666666666</ele><time>2026-05-03T16:24:08.157Z</time></trkpt><trkpt lat="44.0483517" lon="8.2066721"><ele>4.0</ele><time>2026-05-03T16:24:09.157Z</time></trkpt><trkpt lat="44.0481295" lon="8.2066911"><ele>3.5</ele><time>2026-05-03T16:24:10.157Z</time></trkpt><trkpt lat="44.0479082" lon="8.2067181"><ele>3.0</ele><time>2026-05-03T16:24:11.157Z</time></trkpt><trkpt lat="44.0476824" lon="8.2067571"><ele>4.0</ele><time>2026-05-03T16:24:12.157Z</time></trkpt><trkpt lat="44.0474521" lon="8.2067971"><ele>5.0</ele><time>2026-05-03T16:24:13.157Z</time></trkpt><trkpt lat="44.0472186" lon="8.2068354"><ele>5.0</ele><time>2026-05-03T16:24:14.157Z</time></trkpt><trkpt lat="44.0469834" lon="8.2068608"><ele>5.0</ele><time>2026-05-03T16:24:15.157Z</time></trkpt><trkpt lat="44.0467447" lon="8.2068844"><ele>4.5</ele><time>2026-05-03T16:24:16.157Z</time></trkpt><trkpt lat="44.046505" lon="8.2069095"><ele>4.0</ele><time>2026-05-03T16:24:17.158Z</time></trkpt><trkpt lat="44.0462631" lon="8.2069406"><ele>4.0</ele><time>2026-05-03T16:24:18.158Z</time></trkpt><trkpt lat="44.0460207" lon="8.2069669"><ele>4.0</ele><time>2026-05-03T16:24:19.157Z</time></trkpt><trkpt lat="44.0457806" lon="8.2070048"><ele>4.5</ele><time>2026-05-03T16:24:20.158Z</time></trkpt><trkpt lat="44.0455376" lon="8.2070395"><ele>5.0</ele><time>2026-05-03T16:24:21.158Z</time></trkpt><trkpt lat="44.0452957" lon="8.2070708"><ele>5.0</ele><time>2026-05-03T16:24:22.157Z</time></trkpt><trkpt lat="44.0450511" lon="8.2071007"><ele>5.0</ele><time>2026-05-03T16:24:23.158Z</time></trkpt><trkpt lat="44.0448062" lon="8.2071319"><ele>18.5</ele><time>2026-05-03T16:24:24.157Z</time></trkpt><trkpt lat="44.0445594" lon="8.2071679"><ele>32.0</ele><time>2026-05-03T16:24:25.157Z</time></trkpt><trkpt lat="44.0443087" lon="8.2072018"><ele>55.0</ele><time>2026-05-03T16:24:26.158Z</time></trkpt><trkpt lat="44.0440535" lon="8.2072448"><ele>78.0</ele><time>2026-05-03T16:24:27.157Z</time></trkpt><trkpt lat="44.0437963" lon="8.2072891"><ele>70.5</ele><time>2026-05-03T16:24:28.157Z</time></trkpt><trkpt lat="44.043541" lon="8.2073309"><ele>63.0</ele><time>2026-05-03T16:24:29.157Z</time></trkpt><trkpt lat="44.039002" lon="8.2078591"><ele>40.5</ele><time>2026-05-03T16:24:48.157Z</time></trkpt><trkpt lat="44.038769" lon="8.2078499"><ele>18.0</ele><time>2026-05-03T16:24:49.158Z</time></trkpt><trkpt lat="44.0385301" lon="8.2078464"><ele>20.0</ele><time>2026-05-03T16:24:50.157Z</time></trkpt><trkpt lat="44.0382816" lon="8.2078441"><ele>22.0</ele><time>2026-05-03T16:24:51.157Z</time></trkpt><trkpt lat="44.0380421" lon="8.207824"><ele>22.0</ele><time>2026-05-03T16:24:52.157Z</time></trkpt><trkpt lat="44.0378034" lon="8.2078073"><ele>22.0</ele><time>2026-05-03T16:24:53.157Z</time></trkpt><trkpt lat="44.037568" lon="8.2077882"><ele>21.5</ele><time>2026-05-03T16:24:54.157Z</time></trkpt><trkpt lat="44.0373351" lon="8.2077752"><ele>21.0</ele><time>2026-05-03T16:24:55.157Z</time></trkpt><trkpt lat="44.0371059" lon="8.207772"><ele>21.0</ele><time>2026-05-03T16:24:56.158Z</time></trkpt><trkpt lat="44.0368815" lon="8.2077669"><ele>21.0</ele><time>2026-05-03T16:24:57.157Z</time></trkpt><trkpt lat="44.0366674" lon="8.2077552"><ele>21.0</ele><time>2026-05-03T16:24:58.157Z</time></trkpt><trkpt lat="44.0364706" lon="8.2077103"><ele>16.666666666666668</ele><time>2026-05-03T16:24:59.157Z</time></trkpt><trkpt lat="44.0362837" lon="8.2076281"><ele>12.333333333333332</ele><time>2026-05-03T16:25:00.157Z</time></trkpt><trkpt lat="44.0361016" lon="8.2075359"><ele>8.0</ele><time>2026-05-03T16:25:01.157Z</time></trkpt><trkpt lat="44.0359112" lon="8.2074844"><ele>10.0</ele><time>2026-05-03T16:25:02.157Z</time></trkpt><trkpt lat="44.0357093" lon="8.2074871"><ele>12.0</ele><time>2026-05-03T16:25:03.157Z</time></trkpt><trkpt lat="44.0355036" lon="8.2075174"><ele>14.0</ele><time>2026-05-03T16:25:04.157Z</time></trkpt><trkpt lat="44.0352934" lon="8.2075495"><ele>14.0</ele><time>2026-05-03T16:25:05.157Z</time></trkpt><trkpt lat="44.0350808" lon="8.207571"><ele>14.0</ele><time>2026-05-03T16:25:06.157Z</time></trkpt><trkpt lat="44.0348696" lon="8.2075803"><ele>14.0</ele><time>2026-05-03T16:25:07.157Z</time></trkpt><trkpt lat="44.0346723" lon="8.2075539"><ele>14.333333333333334</ele><time>2026-05-03T16:25:08.157Z</time></trkpt><trkpt lat="44.0344903" lon="8.2074646"><ele>14.666666666666668</ele><time>2026-05-03T16:25:09.157Z</time></trkpt><trkpt lat="44.0343087" lon="8.2073443"><ele>15.0</ele><time>2026-05-03T16:25:10.157Z</time></trkpt><trkpt lat="44.0341214" lon="8.2072148"><ele>17.333333333333332</ele><time>2026-05-03T16:25:11.157Z</time></trkpt><trkpt lat="44.033924" lon="8.207093"><ele>19.666666666666664</ele><time>2026-05-03T16:25:12.158Z</time></trkpt><trkpt lat="44.0337254" lon="8.2069694"><ele>22.0</ele><time>2026-05-03T16:25:13.157Z</time></trkpt><trkpt lat="44.0335273" lon="8.2068434"><ele>22.0</ele><time>2026-05-03T16:25:14.157Z</time></trkpt><trkpt lat="44.0333345" lon="8.2067191"><ele>22.0</ele><time>2026-05-03T16:25:15.157Z</time></trkpt><trkpt lat="44.0331507" lon="8.2066059"><ele>22.0</ele><time>2026-05-03T16:25:16.157Z</time></trkpt><trkpt lat="44.0329771" lon="8.2064992"><ele>21.666666666666664</ele><time>2026-05-03T16:25:17.157Z</time></trkpt><trkpt lat="44.0328152" lon="8.2063871"><ele>21.333333333333332</ele><time>2026-05-03T16:25:18.157Z</time></trkpt><trkpt lat="44.0326674" lon="8.2062753"><ele>21.0</ele><time>2026-05-03T16:25:19.158Z</time></trkpt><trkpt lat="44.0325473" lon="8.2061537"><ele>16.5</ele><time>2026-05-03T16:25:20.157Z</time></trkpt><trkpt lat="44.032456" lon="8.2060212"><ele>12.0</ele><time>2026-05-03T16:25:21.157Z</time></trkpt><trkpt lat="44.0323823" lon="8.2058762"><ele>7.5</ele><time>2026-05-03T16:25:22.159Z</time></trkpt><trkpt lat="44.0323282" lon="8.2057218"><ele>3.0</ele><time>2026-05-03T16:25:23.157Z</time></trkpt><trkpt lat="44.0322977" lon="8.2055691"><ele>3.0</ele><time>2026-05-03T16:25:24.157Z</time></trkpt><trkpt lat="44.032285" lon="8.2054109"><ele>3.0</ele><time>2026-05-03T16:25:25.157Z</time></trkpt><trkpt lat="44.0322875" lon="8.2052608"><ele>3.0</ele><time>2026-05-03T16:25:26.157Z</time></trkpt><trkpt lat="44.0323047" lon="8.2051349"><ele>3.0</ele><time>2026-05-03T16:25:27.158Z</time></trkpt><trkpt lat="44.0323265" lon="8.2050124"><ele>3.0</ele><time>2026-05-03T16:25:28.157Z</time></trkpt><trkpt lat="44.0323547" lon="8.2049006"><ele>3.0</ele><time>2026-05-03T16:25:29.157Z</time></trkpt><trkpt lat="44.0323804" lon="8.2048138"><ele>3.0</ele><time>2026-05-03T16:25:30.157Z</time></trkpt><trkpt lat="44.0324015" lon="8.2046576"><ele>3.0</ele><time>2026-05-03T16:25:32.157Z</time></trkpt><trkpt lat="44.0324184" lon="8.2045139"><ele>3.0</ele><time>2026-05-03T16:25:33.157Z</time></trkpt><trkpt lat="44.0324307" lon="8.2043561"><ele>3.0</ele><time>2026-05-03T16:25:34.157Z</time></trkpt><trkpt lat="44.0324315" lon="8.2041785"><ele>4.666666666666666</ele><time>2026-05-03T16:25:35.157Z</time></trkpt><trkpt lat="44.0323943" lon="8.2039751"><ele>6.333333333333333</ele><time>2026-05-03T16:25:36.158Z</time></trkpt><trkpt lat="44.0323201" lon="8.2037821"><ele>8.0</ele><time>2026-05-03T16:25:37.158Z</time></trkpt><trkpt lat="44.032223" lon="8.2035848"><ele>8.0</ele><time>2026-05-03T16:25:38.157Z</time></trkpt><trkpt lat="44.0321013" lon="8.2033786"><ele>8.0</ele><time>2026-05-03T16:25:39.157Z</time></trkpt><trkpt lat="44.031973" lon="8.2031699"><ele>8.0</ele><time>2026-05-03T16:25:40.157Z</time></trkpt><trkpt lat="44.0318405" lon="8.2029784"><ele>7.666666666666666</ele><time>2026-05-03T16:25:41.157Z</time></trkpt><trkpt lat="44.0316866" lon="8.2027925"><ele>7.333333333333334</ele><time>2026-05-03T16:25:42.158Z</time></trkpt><trkpt lat="44.0315168" lon="8.2026114"><ele>7.0</ele><time>2026-05-03T16:25:43.157Z</time></trkpt><trkpt lat="44.0313464" lon="8.202419"><ele>19.0</ele><time>2026-05-03T16:25:44.157Z</time></trkpt><trkpt lat="44.0311559" lon="8.2022361"><ele>31.0</ele><time>2026-05-03T16:25:45.157Z</time></trkpt><trkpt lat="44.0309599" lon="8.2020477"><ele>20.5</ele><time>2026-05-03T16:25:46.157Z</time></trkpt><trkpt lat="44.0307517" lon="8.2018646"><ele>10.0</ele><time>2026-05-03T16:25:47.158Z</time></trkpt><trkpt lat="44.0305439" lon="8.2016713"><ele>25.0</ele><time>2026-05-03T16:25:48.157Z</time></trkpt><trkpt lat="44.0303423" lon="8.2014788"><ele>40.0</ele><time>2026-05-03T16:25:49.157Z</time></trkpt><trkpt lat="44.0301352" lon="8.2013074"><ele>29.5</ele><time>2026-05-03T16:25:50.158Z</time></trkpt><trkpt lat="44.029926" lon="8.201139"><ele>19.0</ele><time>2026-05-03T16:25:51.157Z</time></trkpt><trkpt lat="44.0297182" lon="8.2009809"><ele>19.0</ele><time>2026-05-03T16:25:52.157Z</time></trkpt><trkpt lat="44.0295116" lon="8.2008292"><ele>19.0</ele><time>2026-05-03T16:25:53.157Z</time></trkpt><trkpt lat="44.0293071" lon="8.2006797"><ele>23.0</ele><time>2026-05-03T16:25:54.157Z</time></trkpt><trkpt lat="44.029103" lon="8.2005322"><ele>27.0</ele><time>2026-05-03T16:25:55.158Z</time></trkpt><trkpt lat="44.0288959" lon="8.200383"><ele>27.0</ele><time>2026-05-03T16:25:56.157Z</time></trkpt><trkpt lat="44.0286913" lon="8.2002277"><ele>27.0</ele><time>2026-05-03T16:25:57.157Z</time></trkpt><trkpt lat="44.0284931" lon="8.2000588"><ele>25.666666666666668</ele><time>2026-05-03T16:25:58.157Z</time></trkpt><trkpt lat="44.0283089" lon="8.1998745"><ele>24.333333333333336</ele><time>2026-05-03T16:25:59.157Z</time></trkpt><trkpt lat="44.0281498" lon="8.199679"><ele>23.0</ele><time>2026-05-03T16:26:00.157Z</time></trkpt><trkpt lat="44.0279966" lon="8.1994889"><ele>23.0</ele><time>2026-05-03T16:26:01.157Z</time></trkpt><trkpt lat="44.0278358" lon="8.1993183"><ele>23.0</ele><time>2026-05-03T16:26:02.157Z</time></trkpt><trkpt lat="44.0276527" lon="8.1991924"><ele>23.0</ele><time>2026-05-03T16:26:03.157Z</time></trkpt><trkpt lat="44.0274622" lon="8.1990995"><ele>23.666666666666668</ele><time>2026-05-03T16:26:04.158Z</time></trkpt><trkpt lat="44.0272752" lon="8.1989845"><ele>24.333333333333336</ele><time>2026-05-03T16:26:05.157Z</time></trkpt><trkpt lat="44.0271005" lon="8.1988289"><ele>25.0</ele><time>2026-05-03T16:26:06.158Z</time></trkpt><trkpt lat="44.0269239" lon="8.1986659"><ele>25.0</ele><time>2026-05-03T16:26:07.157Z</time></trkpt><trkpt lat="44.0267525" lon="8.1984913"><ele>25.0</ele><time>2026-05-03T16:26:08.157Z</time></trkpt><trkpt lat="44.026597" lon="8.1982837"><ele>25.0</ele><time>2026-05-03T16:26:09.157Z</time></trkpt><trkpt lat="44.0264497" lon="8.1980695"><ele>27.666666666666668</ele><time>2026-05-03T16:26:10.157Z</time></trkpt><trkpt lat="44.0263049" lon="8.197868"><ele>30.333333333333336</ele><time>2026-05-03T16:26:11.158Z</time></trkpt><trkpt lat="44.0261508" lon="8.1977159"><ele>33.0</ele><time>2026-05-03T16:26:12.157Z</time></trkpt><trkpt lat="44.025995" lon="8.1976038"><ele>33.0</ele><time>2026-05-03T16:26:13.157Z</time></trkpt><trkpt lat="44.0258441" lon="8.1974967"><ele>33.0</ele><time>2026-05-03T16:26:14.157Z</time></trkpt><trkpt lat="44.0257139" lon="8.1973498"><ele>33.0</ele><time>2026-05-03T16:26:15.157Z</time></trkpt><trkpt lat="44.0255768" lon="8.1972154"><ele>30.333333333333336</ele><time>2026-05-03T16:26:16.157Z</time></trkpt><trkpt lat="44.0255097" lon="8.1969682"><ele>27.666666666666668</ele><time>2026-05-03T16:26:17.157Z</time></trkpt><trkpt lat="44.0254038" lon="8.1967881"><ele>25.0</ele><time>2026-05-03T16:26:18.157Z</time></trkpt><trkpt lat="44.0252838" lon="8.1966129"><ele>30.333333333333336</ele><time>2026-05-03T16:26:19.157Z</time></trkpt><trkpt lat="44.0252138" lon="8.1963924"><ele>35.666666666666664</ele><time>2026-05-03T16:26:20.157Z</time></trkpt><trkpt lat="44.0251641" lon="8.196172"><ele>41.0</ele><time>2026-05-03T16:26:21.157Z</time></trkpt><trkpt lat="44.0251105" lon="8.1959607"><ele>41.0</ele><time>2026-05-03T16:26:22.158Z</time></trkpt><trkpt lat="44.0250242" lon="8.1957649"><ele>41.0</ele><time>2026-05-03T16:26:23.157Z</time></trkpt><trkpt lat="44.0249454" lon="8.1955722"><ele>41.0</ele><time>2026-05-03T16:26:24.157Z</time></trkpt><trkpt lat="44.024807" lon="8.1954949"><ele>29.5</ele><time>2026-05-03T16:26:25.157Z</time></trkpt><trkpt lat="44.0246614" lon="8.1950079"><ele>18.0</ele><time>2026-05-03T16:26:28.157Z</time></trkpt><trkpt lat="44.0245964" lon="8.1948384"><ele>27.333333333333336</ele><time>2026-05-03T16:26:29.157Z</time></trkpt><trkpt lat="44.024498" lon="8.1946681"><ele>36.66666666666667</ele><time>2026-05-03T16:26:30.157Z</time></trkpt><trkpt lat="44.024377" lon="8.1945079"><ele>46.0</ele><time>2026-05-03T16:26:31.158Z</time></trkpt><trkpt lat="44.0242331" lon="8.1943401"><ele>45.0</ele><time>2026-05-03T16:26:32.157Z</time></trkpt><trkpt lat="44.0240771" lon="8.1941707"><ele>44.0</ele><time>2026-05-03T16:26:33.157Z</time></trkpt><trkpt lat="44.0239269" lon="8.1940099"><ele>43.0</ele><time>2026-05-03T16:26:34.157Z</time></trkpt><trkpt lat="44.0237734" lon="8.1938356"><ele>43.0</ele><time>2026-05-03T16:26:35.157Z</time></trkpt><trkpt lat="44.0236223" lon="8.1936767"><ele>43.0</ele><time>2026-05-03T16:26:36.157Z</time></trkpt><trkpt lat="44.0234762" lon="8.1935406"><ele>43.0</ele><time>2026-05-03T16:26:37.157Z</time></trkpt><trkpt lat="44.0233286" lon="8.1934313"><ele>40.75</ele><time>2026-05-03T16:26:38.157Z</time></trkpt><trkpt lat="44.0231917" lon="8.1933303"><ele>38.5</ele><time>2026-05-03T16:26:39.157Z</time></trkpt><trkpt lat="44.0230722" lon="8.1932085"><ele>36.25</ele><time>2026-05-03T16:26:40.157Z</time></trkpt><trkpt lat="44.0229772" lon="8.1930537"><ele>34.0</ele><time>2026-05-03T16:26:41.157Z</time></trkpt><trkpt lat="44.0229025" lon="8.1928768"><ele>34.0</ele><time>2026-05-03T16:26:42.157Z</time></trkpt><trkpt lat="44.0228323" lon="8.192696"><ele>34.0</ele><time>2026-05-03T16:26:43.157Z</time></trkpt><trkpt lat="44.0227632" lon="8.1925041"><ele>34.0</ele><time>2026-05-03T16:26:44.157Z</time></trkpt><trkpt lat="44.0226899" lon="8.1923124"><ele>34.66666666666667</ele><time>2026-05-03T16:26:45.157Z</time></trkpt><trkpt lat="44.0226159" lon="8.1921194"><ele>35.333333333333336</ele><time>2026-05-03T16:26:46.157Z</time></trkpt><trkpt lat="44.022528" lon="8.1919406"><ele>36.0</ele><time>2026-05-03T16:26:47.157Z</time></trkpt><trkpt lat="44.0224326" lon="8.1917701"><ele>36.0</ele><time>2026-05-03T16:26:48.157Z</time></trkpt><trkpt lat="44.0222647" lon="8.1917059"><ele>36.0</ele><time>2026-05-03T16:26:49.157Z</time></trkpt><trkpt lat="44.0221038" lon="8.1916578"><ele>36.0</ele><time>2026-05-03T16:26:50.157Z</time></trkpt><trkpt lat="44.0219323" lon="8.1916021"><ele>36.0</ele><time>2026-05-03T16:26:51.158Z</time></trkpt><trkpt lat="44.0217475" lon="8.1915332"><ele>36.0</ele><time>2026-05-03T16:26:52.157Z</time></trkpt><trkpt lat="44.0215547" lon="8.1914593"><ele>36.0</ele><time>2026-05-03T16:26:53.158Z</time></trkpt><trkpt lat="44.0213516" lon="8.1913836"><ele>41.0</ele><time>2026-05-03T16:26:54.158Z</time></trkpt><trkpt lat="44.0211408" lon="8.1913081"><ele>46.0</ele><time>2026-05-03T16:26:55.157Z</time></trkpt><trkpt lat="44.020922" lon="8.1912352"><ele>51.0</ele><time>2026-05-03T16:26:56.158Z</time></trkpt><trkpt lat="44.0207081" lon="8.1911671"><ele>51.0</ele><time>2026-05-03T16:26:57.158Z</time></trkpt><trkpt lat="44.0204838" lon="8.1911075"><ele>51.0</ele><time>2026-05-03T16:26:58.158Z</time></trkpt><trkpt lat="44.0202588" lon="8.1910413"><ele>51.0</ele><time>2026-05-03T16:26:59.157Z</time></trkpt><trkpt lat="44.0200313" lon="8.1909708"><ele>51.0</ele><time>2026-05-03T16:27:00.157Z</time></trkpt><trkpt lat="44.0198043" lon="8.1908958"><ele>47.5</ele><time>2026-05-03T16:27:01.157Z</time></trkpt><trkpt lat="44.019579" lon="8.1908198"><ele>44.0</ele><time>2026-05-03T16:27:02.157Z</time></trkpt><trkpt lat="44.0193596" lon="8.1907466"><ele>44.0</ele><time>2026-05-03T16:27:03.158Z</time></trkpt><trkpt lat="44.0191571" lon="8.190679"><ele>44.0</ele><time>2026-05-03T16:27:04.157Z</time></trkpt><trkpt lat="44.0189662" lon="8.1906497"><ele>44.0</ele><time>2026-05-03T16:27:05.158Z</time></trkpt><trkpt lat="44.0187829" lon="8.1906651"><ele>52.33333333333333</ele><time>2026-05-03T16:27:06.157Z</time></trkpt><trkpt lat="44.0186303" lon="8.1907373"><ele>60.666666666666664</ele><time>2026-05-03T16:27:07.158Z</time></trkpt><trkpt lat="44.0184704" lon="8.1908148"><ele>69.0</ele><time>2026-05-03T16:27:08.157Z</time></trkpt><trkpt lat="44.0183124" lon="8.1909371"><ele>71.66666666666667</ele><time>2026-05-03T16:27:09.157Z</time></trkpt><trkpt lat="44.0181549" lon="8.1910104"><ele>74.33333333333334</ele><time>2026-05-03T16:27:10.157Z</time></trkpt><trkpt lat="44.0180061" lon="8.1910965"><ele>77.0</ele><time>2026-05-03T16:27:11.157Z</time></trkpt><trkpt lat="44.0178651" lon="8.1911787"><ele>77.0</ele><time>2026-05-03T16:27:12.157Z</time></trkpt><trkpt lat="44.0177185" lon="8.191257"><ele>77.0</ele><time>2026-05-03T16:27:13.157Z</time></trkpt><trkpt lat="44.0175685" lon="8.1913284"><ele>77.0</ele><time>2026-05-03T16:27:14.157Z</time></trkpt><trkpt lat="44.0174236" lon="8.1913897"><ele>69.25</ele><time>2026-05-03T16:27:15.157Z</time></trkpt><trkpt lat="44.017287" lon="8.1914544"><ele>61.5</ele><time>2026-05-03T16:27:16.157Z</time></trkpt><trkpt lat="44.0171581" lon="8.1915227"><ele>53.75</ele><time>2026-05-03T16:27:17.157Z</time></trkpt><trkpt lat="44.0170327" lon="8.1915866"><ele>46.0</ele><time>2026-05-03T16:27:18.157Z</time></trkpt><trkpt lat="44.0169159" lon="8.1916443"><ele>43.599999999999994</ele><time>2026-05-03T16:27:19.158Z</time></trkpt><trkpt lat="44.0168057" lon="8.1916838"><ele>41.199999999999996</ele><time>2026-05-03T16:27:20.157Z</time></trkpt><trkpt lat="44.0166943" lon="8.1917249"><ele>38.8</ele><time>2026-05-03T16:27:21.157Z</time></trkpt><trkpt lat="44.0165863" lon="8.1917499"><ele>36.4</ele><time>2026-05-03T16:27:22.158Z</time></trkpt><trkpt lat="44.0164866" lon="8.1917345"><ele>34.0</ele><time>2026-05-03T16:27:23.157Z</time></trkpt><trkpt lat="44.0163985" lon="8.1916981"><ele>31.0</ele><time>2026-05-03T16:27:24.157Z</time></trkpt><trkpt lat="44.0163213" lon="8.1916231"><ele>28.0</ele><time>2026-05-03T16:27:25.157Z</time></trkpt><trkpt lat="44.016265" lon="8.1915287"><ele>25.0</ele><time>2026-05-03T16:27:26.157Z</time></trkpt><trkpt lat="44.0162239" lon="8.1914124"><ele>22.0</ele><time>2026-05-03T16:27:27.158Z</time></trkpt><trkpt lat="44.0162026" lon="8.1912829"><ele>19.0</ele><time>2026-05-03T16:27:28.157Z</time></trkpt><trkpt lat="44.0161956" lon="8.1911414"><ele>19.0</ele><time>2026-05-03T16:27:29.157Z</time></trkpt><trkpt lat="44.0162119" lon="8.1909758"><ele>19.0</ele><time>2026-05-03T16:27:30.157Z</time></trkpt><trkpt lat="44.0162371" lon="8.1907809"><ele>19.0</ele><time>2026-05-03T16:27:31.157Z</time></trkpt><trkpt lat="44.0162688" lon="8.190562"><ele>19.0</ele><time>2026-05-03T16:27:32.157Z</time></trkpt><trkpt lat="44.0163098" lon="8.1903461"><ele>17.0</ele><time>2026-05-03T16:27:33.157Z</time></trkpt><trkpt lat="44.0163531" lon="8.1901168"><ele>15.0</ele><time>2026-05-03T16:27:34.157Z</time></trkpt><trkpt lat="44.0163909" lon="8.1898944"><ele>13.0</ele><time>2026-05-03T16:27:35.157Z</time></trkpt><trkpt lat="44.0164223" lon="8.189699"><ele>13.2</ele><time>2026-05-03T16:27:36.157Z</time></trkpt><trkpt lat="44.016449" lon="8.1895178"><ele>13.4</ele><time>2026-05-03T16:27:37.157Z</time></trkpt><trkpt lat="44.0164577" lon="8.1893471"><ele>13.599999999999998</ele><time>2026-05-03T16:27:38.158Z</time></trkpt><trkpt lat="44.01645" lon="8.1892062"><ele>13.799999999999999</ele><time>2026-05-03T16:27:39.157Z</time></trkpt><trkpt lat="44.016426" lon="8.1890862"><ele>14.0</ele><time>2026-05-03T16:27:40.157Z</time></trkpt><trkpt lat="44.0163885" lon="8.18897"><ele>14.000000000000002</ele><time>2026-05-03T16:27:41.157Z</time></trkpt><trkpt lat="44.0163359" lon="8.1888737"><ele>14.0</ele><time>2026-05-03T16:27:42.158Z</time></trkpt><trkpt lat="44.0162822" lon="8.1887763"><ele>14.0</ele><time>2026-05-03T16:27:43.157Z</time></trkpt><trkpt lat="44.0162307" lon="8.1886783"><ele>14.0</ele><time>2026-05-03T16:27:44.158Z</time></trkpt><trkpt lat="44.0161879" lon="8.1885706"><ele>14.000000000000002</ele><time>2026-05-03T16:27:45.157Z</time></trkpt><trkpt lat="44.0161512" lon="8.1884452"><ele>14.0</ele><time>2026-05-03T16:27:46.157Z</time></trkpt><trkpt lat="44.016116" lon="8.1882899"><ele>14.75</ele><time>2026-05-03T16:27:47.158Z</time></trkpt><trkpt lat="44.0160813" lon="8.1881066"><ele>15.5</ele><time>2026-05-03T16:27:48.157Z</time></trkpt><trkpt lat="44.0160573" lon="8.187894"><ele>16.25</ele><time>2026-05-03T16:27:49.157Z</time></trkpt><trkpt lat="44.0160448" lon="8.1876766"><ele>17.0</ele><time>2026-05-03T16:27:50.157Z</time></trkpt><trkpt lat="44.0160263" lon="8.1874512"><ele>17.666666666666668</ele><time>2026-05-03T16:27:51.157Z</time></trkpt><trkpt lat="44.0159993" lon="8.1872111"><ele>18.333333333333332</ele><time>2026-05-03T16:27:52.157Z</time></trkpt><trkpt lat="44.0159574" lon="8.1869757"><ele>19.0</ele><time>2026-05-03T16:27:53.157Z</time></trkpt><trkpt lat="44.0159166" lon="8.1867485"><ele>19.0</ele><time>2026-05-03T16:27:54.158Z</time></trkpt><trkpt lat="44.015873" lon="8.1865137"><ele>19.0</ele><time>2026-05-03T16:27:55.157Z</time></trkpt><trkpt lat="44.0158273" lon="8.1862716"><ele>19.0</ele><time>2026-05-03T16:27:56.158Z</time></trkpt><trkpt lat="44.0157796" lon="8.186029"><ele>14.333333333333332</ele><time>2026-05-03T16:27:57.157Z</time></trkpt><trkpt lat="44.0157293" lon="8.1857966"><ele>9.666666666666666</ele><time>2026-05-03T16:27:58.158Z</time></trkpt><trkpt lat="44.0156778" lon="8.1855622"><ele>5.0</ele><time>2026-05-03T16:27:59.157Z</time></trkpt><trkpt lat="44.0156227" lon="8.1853313"><ele>5.0</ele><time>2026-05-03T16:28:00.157Z</time></trkpt><trkpt lat="44.0155661" lon="8.1851104"><ele>5.0</ele><time>2026-05-03T16:28:01.157Z</time></trkpt><trkpt lat="44.0155084" lon="8.1848912"><ele>5.0</ele><time>2026-05-03T16:28:02.157Z</time></trkpt><trkpt lat="44.0154441" lon="8.1846771"><ele>6.666666666666667</ele><time>2026-05-03T16:28:03.157Z</time></trkpt><trkpt lat="44.015377" lon="8.1844629"><ele>8.333333333333334</ele><time>2026-05-03T16:28:04.157Z</time></trkpt><trkpt lat="44.0153105" lon="8.1842538"><ele>10.0</ele><time>2026-05-03T16:28:05.157Z</time></trkpt><trkpt lat="44.0152455" lon="8.1840531"><ele>12.25</ele><time>2026-05-03T16:28:06.157Z</time></trkpt><trkpt lat="44.0151793" lon="8.1838612"><ele>14.5</ele><time>2026-05-03T16:28:07.157Z</time></trkpt><trkpt lat="44.0151141" lon="8.1836791"><ele>16.75</ele><time>2026-05-03T16:28:08.158Z</time></trkpt><trkpt lat="44.0150533" lon="8.1834986"><ele>19.0</ele><time>2026-05-03T16:28:09.157Z</time></trkpt><trkpt lat="44.0149879" lon="8.1833269"><ele>17.0</ele><time>2026-05-03T16:28:10.157Z</time></trkpt><trkpt lat="44.0149258" lon="8.1831661"><ele>15.0</ele><time>2026-05-03T16:28:11.158Z</time></trkpt><trkpt lat="44.0148678" lon="8.1830062"><ele>13.0</ele><time>2026-05-03T16:28:12.157Z</time></trkpt><trkpt lat="44.0148159" lon="8.1828518"><ele>11.0</ele><time>2026-05-03T16:28:13.157Z</time></trkpt><trkpt lat="44.0147671" lon="8.1826952"><ele>11.0</ele><time>2026-05-03T16:28:14.157Z</time></trkpt><trkpt lat="44.0147135" lon="8.1825511"><ele>11.0</ele><time>2026-05-03T16:28:15.157Z</time></trkpt><trkpt lat="44.0146608" lon="8.1824112"><ele>11.0</ele><time>2026-05-03T16:28:16.157Z</time></trkpt><trkpt lat="44.0146082" lon="8.18228"><ele>11.0</ele><time>2026-05-03T16:28:17.157Z</time></trkpt><trkpt lat="44.0145625" lon="8.1821592"><ele>11.0</ele><time>2026-05-03T16:28:18.158Z</time></trkpt><trkpt lat="44.0145137" lon="8.182057"><ele>11.5</ele><time>2026-05-03T16:28:19.157Z</time></trkpt><trkpt lat="44.0144703" lon="8.1819588"><ele>12.0</ele><time>2026-05-03T16:28:20.157Z</time></trkpt><trkpt lat="44.0144378" lon="8.1818685"><ele>12.5</ele><time>2026-05-03T16:28:21.157Z</time></trkpt><trkpt lat="44.0144025" lon="8.1817889"><ele>13.0</ele><time>2026-05-03T16:28:22.157Z</time></trkpt><trkpt lat="44.0143659" lon="8.1817074"><ele>13.500000000000002</ele><time>2026-05-03T16:28:23.158Z</time></trkpt><trkpt lat="44.0143276" lon="8.1816053"><ele>14.0</ele><time>2026-05-03T16:28:24.157Z</time></trkpt><trkpt lat="44.0142757" lon="8.181485"><ele>14.0</ele><time>2026-05-03T16:28:25.157Z</time></trkpt><trkpt lat="44.0142171" lon="8.1813381"><ele>14.0</ele><time>2026-05-03T16:28:26.157Z</time></trkpt><trkpt lat="44.0141629" lon="8.1811786"><ele>14.0</ele><time>2026-05-03T16:28:27.157Z</time></trkpt><trkpt lat="44.0141111" lon="8.1810115"><ele>14.0</ele><time>2026-05-03T16:28:28.157Z</time></trkpt><trkpt lat="44.0140548" lon="8.1808293"><ele>13.25</ele><time>2026-05-03T16:28:29.157Z</time></trkpt><trkpt lat="44.0139873" lon="8.1806503"><ele>12.5</ele><time>2026-05-03T16:28:30.158Z</time></trkpt><trkpt lat="44.0139163" lon="8.1804748"><ele>11.75</ele><time>2026-05-03T16:28:31.157Z</time></trkpt><trkpt lat="44.0138402" lon="8.1803025"><ele>11.0</ele><time>2026-05-03T16:28:32.157Z</time></trkpt><trkpt lat="44.0137628" lon="8.180142"><ele>11.0</ele><time>2026-05-03T16:28:33.158Z</time></trkpt><trkpt lat="44.0136775" lon="8.1799859"><ele>11.0</ele><time>2026-05-03T16:28:34.157Z</time></trkpt><trkpt lat="44.0135905" lon="8.1798237"><ele>11.0</ele><time>2026-05-03T16:28:35.158Z</time></trkpt><trkpt lat="44.0135076" lon="8.1796686"><ele>11.0</ele><time>2026-05-03T16:28:36.157Z</time></trkpt><trkpt lat="44.0134169" lon="8.1795132"><ele>12.25</ele><time>2026-05-03T16:28:37.158Z</time></trkpt><trkpt lat="44.0133193" lon="8.1793655"><ele>13.5</ele><time>2026-05-03T16:28:38.158Z</time></trkpt><trkpt lat="44.013215" lon="8.179215"><ele>14.75</ele><time>2026-05-03T16:28:39.158Z</time></trkpt><trkpt lat="44.0131229" lon="8.1790664"><ele>16.0</ele><time>2026-05-03T16:28:40.157Z</time></trkpt><trkpt lat="44.0130347" lon="8.178916"><ele>16.25</ele><time>2026-05-03T16:28:41.157Z</time></trkpt><trkpt lat="44.0129525" lon="8.1787869"><ele>16.5</ele><time>2026-05-03T16:28:42.157Z</time></trkpt><trkpt lat="44.0128596" lon="8.1786684"><ele>16.75</ele><time>2026-05-03T16:28:43.157Z</time></trkpt><trkpt lat="44.0127699" lon="8.1785543"><ele>17.0</ele><time>2026-05-03T16:28:44.157Z</time></trkpt><trkpt lat="44.0126847" lon="8.1784472"><ele>17.0</ele><time>2026-05-03T16:28:45.158Z</time></trkpt><trkpt lat="44.0126057" lon="8.1783514"><ele>17.0</ele><time>2026-05-03T16:28:46.157Z</time></trkpt><trkpt lat="44.0125285" lon="8.178256"><ele>17.0</ele><time>2026-05-03T16:28:47.157Z</time></trkpt><trkpt lat="44.0124519" lon="8.1781674"><ele>17.0</ele><time>2026-05-03T16:28:48.157Z</time></trkpt><trkpt lat="44.0123794" lon="8.1780861"><ele>17.0</ele><time>2026-05-03T16:28:49.157Z</time></trkpt><trkpt lat="44.01231" lon="8.1780086"><ele>16.6</ele><time>2026-05-03T16:28:50.158Z</time></trkpt><trkpt lat="44.0122452" lon="8.1779314"><ele>16.2</ele><time>2026-05-03T16:28:51.158Z</time></trkpt><trkpt lat="44.0121758" lon="8.1778519"><ele>15.8</ele><time>2026-05-03T16:28:52.157Z</time></trkpt><trkpt lat="44.0121044" lon="8.1777686"><ele>15.4</ele><time>2026-05-03T16:28:53.158Z</time></trkpt><trkpt lat="44.0120287" lon="8.1776788"><ele>15.0</ele><time>2026-05-03T16:28:54.157Z</time></trkpt><trkpt lat="44.0119488" lon="8.1775808"><ele>15.0</ele><time>2026-05-03T16:28:55.157Z</time></trkpt><trkpt lat="44.0118559" lon="8.1774666"><ele>15.0</ele><time>2026-05-03T16:28:56.157Z</time></trkpt><trkpt lat="44.0117731" lon="8.1773264"><ele>15.0</ele><time>2026-05-03T16:28:57.157Z</time></trkpt><trkpt lat="44.0116917" lon="8.1771981"><ele>15.0</ele><time>2026-05-03T16:28:58.157Z</time></trkpt><trkpt lat="44.0116189" lon="8.1770717"><ele>14.0</ele><time>2026-05-03T16:28:59.157Z</time></trkpt><trkpt lat="44.0115471" lon="8.1769631"><ele>13.0</ele><time>2026-05-03T16:29:00.158Z</time></trkpt><trkpt lat="44.0114919" lon="8.1768661"><ele>12.0</ele><time>2026-05-03T16:29:01.158Z</time></trkpt><trkpt lat="44.011438" lon="8.1767783"><ele>11.0</ele><time>2026-05-03T16:29:02.157Z</time></trkpt><trkpt lat="44.0113902" lon="8.1766989"><ele>10.0</ele><time>2026-05-03T16:29:03.157Z</time></trkpt><trkpt lat="44.0113525" lon="8.1766229"><ele>9.0</ele><time>2026-05-03T16:29:04.158Z</time></trkpt><trkpt lat="44.0113153" lon="8.1765299"><ele>9.5</ele><time>2026-05-03T16:29:05.157Z</time></trkpt><trkpt lat="44.0112682" lon="8.1764312"><ele>10.0</ele><time>2026-05-03T16:29:06.157Z</time></trkpt><trkpt lat="44.0112219" lon="8.1763363"><ele>10.5</ele><time>2026-05-03T16:29:07.158Z</time></trkpt><trkpt lat="44.01118" lon="8.1762432"><ele>11.0</ele><time>2026-05-03T16:29:08.157Z</time></trkpt><trkpt lat="44.0111425" lon="8.1761467"><ele>11.5</ele><time>2026-05-03T16:29:09.157Z</time></trkpt><trkpt lat="44.0111053" lon="8.1760406"><ele>12.0</ele><time>2026-05-03T16:29:10.157Z</time></trkpt><trkpt lat="44.0110638" lon="8.1759393"><ele>12.0</ele><time>2026-05-03T16:29:11.158Z</time></trkpt><trkpt lat="44.0110248" lon="8.1758365"><ele>12.0</ele><time>2026-05-03T16:29:12.157Z</time></trkpt><trkpt lat="44.0109858" lon="8.1757358"><ele>12.0</ele><time>2026-05-03T16:29:13.157Z</time></trkpt><trkpt lat="44.010941" lon="8.1756303"><ele>12.0</ele><time>2026-05-03T16:29:14.158Z</time></trkpt><trkpt lat="44.0108856" lon="8.1755224"><ele>12.0</ele><time>2026-05-03T16:29:15.157Z</time></trkpt><trkpt lat="44.010812" lon="8.1754037"><ele>11.75</ele><time>2026-05-03T16:29:16.157Z</time></trkpt><trkpt lat="44.0107286" lon="8.175277"><ele>11.5</ele><time>2026-05-03T16:29:17.157Z</time></trkpt><trkpt lat="44.0106314" lon="8.17514"><ele>11.25</ele><time>2026-05-03T16:29:18.157Z</time></trkpt><trkpt lat="44.0105257" lon="8.1750117"><ele>11.0</ele><time>2026-05-03T16:29:19.158Z</time></trkpt><trkpt lat="44.0104098" lon="8.1749133"><ele>11.75</ele><time>2026-05-03T16:29:20.157Z</time></trkpt><trkpt lat="44.0102981" lon="8.1748214"><ele>12.5</ele><time>2026-05-03T16:29:21.157Z</time></trkpt><trkpt lat="44.010182" lon="8.1747297"><ele>13.25</ele><time>2026-05-03T16:29:22.157Z</time></trkpt><trkpt lat="44.0100555" lon="8.1746319"><ele>14.0</ele><time>2026-05-03T16:29:23.157Z</time></trkpt><trkpt lat="44.0099317" lon="8.174526"><ele>14.25</ele><time>2026-05-03T16:29:24.158Z</time></trkpt><trkpt lat="44.0098039" lon="8.1744142"><ele>14.5</ele><time>2026-05-03T16:29:25.157Z</time></trkpt><trkpt lat="44.009678" lon="8.1743014"><ele>14.75</ele><time>2026-05-03T16:29:26.157Z</time></trkpt><trkpt lat="44.0095495" lon="8.1742053"><ele>15.0</ele><time>2026-05-03T16:29:27.158Z</time></trkpt><trkpt lat="44.00943" lon="8.1741019"><ele>15.0</ele><time>2026-05-03T16:29:28.157Z</time></trkpt><trkpt lat="44.0093133" lon="8.1739965"><ele>15.0</ele><time>2026-05-03T16:29:29.158Z</time></trkpt><trkpt lat="44.0091941" lon="8.1739053"><ele>15.0</ele><time>2026-05-03T16:29:30.158Z</time></trkpt><trkpt lat="44.0090751" lon="8.1738079"><ele>15.0</ele><time>2026-05-03T16:29:31.157Z</time></trkpt><trkpt lat="44.0089605" lon="8.1737125"><ele>14.25</ele><time>2026-05-03T16:29:32.157Z</time></trkpt><trkpt lat="44.0088559" lon="8.1736133"><ele>13.5</ele><time>2026-05-03T16:29:33.157Z</time></trkpt><trkpt lat="44.0087475" lon="8.1735294"><ele>12.75</ele><time>2026-05-03T16:29:34.157Z</time></trkpt><trkpt lat="44.008649" lon="8.1734306"><ele>12.0</ele><time>2026-05-03T16:29:35.158Z</time></trkpt><trkpt lat="44.0085557" lon="8.1733169"><ele>12.0</ele><time>2026-05-03T16:29:36.157Z</time></trkpt><trkpt lat="44.0084666" lon="8.1731942"><ele>12.0</ele><time>2026-05-03T16:29:37.157Z</time></trkpt><trkpt lat="44.0083819" lon="8.1730855"><ele>12.0</ele><time>2026-05-03T16:29:38.157Z</time></trkpt><trkpt lat="44.0083033" lon="8.172988"><ele>12.0</ele><time>2026-05-03T16:29:39.157Z</time></trkpt><trkpt lat="44.008225" lon="8.17289"><ele>11.666666666666666</ele><time>2026-05-03T16:29:40.157Z</time></trkpt><trkpt lat="44.0081616" lon="8.1728075"><ele>11.333333333333334</ele><time>2026-05-03T16:29:41.157Z</time></trkpt><trkpt lat="44.0081046" lon="8.1727424"><ele>11.0</ele><time>2026-05-03T16:29:42.157Z</time></trkpt><trkpt lat="44.0080514" lon="8.1726842"><ele>10.666666666666668</ele><time>2026-05-03T16:29:43.157Z</time></trkpt><trkpt lat="44.0079976" lon="8.1726089"><ele>10.333333333333334</ele><time>2026-05-03T16:29:44.157Z</time></trkpt><trkpt lat="44.0079381" lon="8.1725283"><ele>10.0</ele><time>2026-05-03T16:29:45.158Z</time></trkpt><trkpt lat="44.0078735" lon="8.172438"><ele>10.166666666666668</ele><time>2026-05-03T16:29:46.157Z</time></trkpt><trkpt lat="44.007803" lon="8.1723553"><ele>10.333333333333334</ele><time>2026-05-03T16:29:47.157Z</time></trkpt><trkpt lat="44.0077392" lon="8.1722818"><ele>10.5</ele><time>2026-05-03T16:29:48.157Z</time></trkpt><trkpt lat="44.0076824" lon="8.172198"><ele>10.666666666666666</ele><time>2026-05-03T16:29:49.157Z</time></trkpt><trkpt lat="44.0076301" lon="8.1721091"><ele>10.833333333333332</ele><time>2026-05-03T16:29:50.157Z</time></trkpt><trkpt lat="44.0075761" lon="8.1720092"><ele>11.0</ele><time>2026-05-03T16:29:51.157Z</time></trkpt><trkpt lat="44.0075126" lon="8.1719131"><ele>11.0</ele><time>2026-05-03T16:29:52.157Z</time></trkpt><trkpt lat="44.0074426" lon="8.1718144"><ele>11.0</ele><time>2026-05-03T16:29:53.158Z</time></trkpt><trkpt lat="44.0073647" lon="8.1717295"><ele>11.0</ele><time>2026-05-03T16:29:54.157Z</time></trkpt><trkpt lat="44.0072785" lon="8.1716574"><ele>11.0</ele><time>2026-05-03T16:29:55.157Z</time></trkpt><trkpt lat="44.0071919" lon="8.1715817"><ele>11.0</ele><time>2026-05-03T16:29:56.157Z</time></trkpt><trkpt lat="44.0071037" lon="8.171484"><ele>11.25</ele><time>2026-05-03T16:29:57.158Z</time></trkpt><trkpt lat="44.0070115" lon="8.1713834"><ele>11.5</ele><time>2026-05-03T16:29:58.157Z</time></trkpt><trkpt lat="44.0069226" lon="8.1712874"><ele>11.75</ele><time>2026-05-03T16:29:59.158Z</time></trkpt><trkpt lat="44.0068357" lon="8.171185"><ele>12.0</ele><time>2026-05-03T16:30:00.157Z</time></trkpt><trkpt lat="44.0067434" lon="8.171069"><ele>11.5</ele><time>2026-05-03T16:30:01.157Z</time></trkpt><trkpt lat="44.0066512" lon="8.1709658"><ele>11.0</ele><time>2026-05-03T16:30:02.158Z</time></trkpt><trkpt lat="44.0065631" lon="8.1708547"><ele>10.5</ele><time>2026-05-03T16:30:03.157Z</time></trkpt><trkpt lat="44.0064707" lon="8.1707431"><ele>10.0</ele><time>2026-05-03T16:30:04.157Z</time></trkpt><trkpt lat="44.0063815" lon="8.1706228"><ele>9.5</ele><time>2026-05-03T16:30:05.157Z</time></trkpt><trkpt lat="44.0062853" lon="8.1705001"><ele>9.0</ele><time>2026-05-03T16:30:06.157Z</time></trkpt><trkpt lat="44.006189" lon="8.1703851"><ele>8.5</ele><time>2026-05-03T16:30:07.157Z</time></trkpt><trkpt lat="44.0060926" lon="8.1702764"><ele>8.0</ele><time>2026-05-03T16:30:08.157Z</time></trkpt><trkpt lat="44.0059948" lon="8.170151"><ele>8.0</ele><time>2026-05-03T16:30:09.157Z</time></trkpt><trkpt lat="44.005898" lon="8.1700315"><ele>8.0</ele><time>2026-05-03T16:30:10.158Z</time></trkpt><trkpt lat="44.0058079" lon="8.169918"><ele>8.0</ele><time>2026-05-03T16:30:11.157Z</time></trkpt><trkpt lat="44.0057255" lon="8.1698096"><ele>8.0</ele><time>2026-05-03T16:30:12.157Z</time></trkpt><trkpt lat="44.0056428" lon="8.1697125"><ele>8.200000000000001</ele><time>2026-05-03T16:30:13.158Z</time></trkpt><trkpt lat="44.0055607" lon="8.1696167"><ele>8.4</ele><time>2026-05-03T16:30:14.157Z</time></trkpt><trkpt lat="44.0054789" lon="8.1695248"><ele>8.600000000000001</ele><time>2026-05-03T16:30:15.157Z</time></trkpt><trkpt lat="44.0053989" lon="8.1694303"><ele>8.8</ele><time>2026-05-03T16:30:16.157Z</time></trkpt><trkpt lat="44.0053195" lon="8.1693367"><ele>9.0</ele><time>2026-05-03T16:30:17.158Z</time></trkpt><trkpt lat="44.005239" lon="8.1692441"><ele>9.0</ele><time>2026-05-03T16:30:18.157Z</time></trkpt><trkpt lat="44.0051606" lon="8.1691424"><ele>9.0</ele><time>2026-05-03T16:30:19.157Z</time></trkpt><trkpt lat="44.0050806" lon="8.1690434"><ele>9.0</ele><time>2026-05-03T16:30:20.157Z</time></trkpt><trkpt lat="44.0050038" lon="8.1689393"><ele>9.0</ele><time>2026-05-03T16:30:21.157Z</time></trkpt><trkpt lat="44.0049223" lon="8.1688416"><ele>9.0</ele><time>2026-05-03T16:30:22.157Z</time></trkpt><trkpt lat="44.0048393" lon="8.1687387"><ele>9.25</ele><time>2026-05-03T16:30:23.158Z</time></trkpt><trkpt lat="44.0047562" lon="8.1686306"><ele>9.5</ele><time>2026-05-03T16:30:24.157Z</time></trkpt><trkpt lat="44.0046653" lon="8.16852"><ele>9.75</ele><time>2026-05-03T16:30:25.157Z</time></trkpt><trkpt lat="44.0045727" lon="8.1684015"><ele>10.0</ele><time>2026-05-03T16:30:26.157Z</time></trkpt><trkpt lat="44.0044795" lon="8.1682867"><ele>10.5</ele><time>2026-05-03T16:30:27.157Z</time></trkpt><trkpt lat="44.0043881" lon="8.1681751"><ele>11.0</ele><time>2026-05-03T16:30:28.157Z</time></trkpt><trkpt lat="44.004292" lon="8.1680704"><ele>11.5</ele><time>2026-05-03T16:30:29.158Z</time></trkpt><trkpt lat="44.0041856" lon="8.1679757"><ele>12.0</ele><time>2026-05-03T16:30:30.158Z</time></trkpt><trkpt lat="44.0040739" lon="8.1678908"><ele>12.25</ele><time>2026-05-03T16:30:31.157Z</time></trkpt><trkpt lat="44.0039502" lon="8.1678127"><ele>12.5</ele><time>2026-05-03T16:30:32.157Z</time></trkpt><trkpt lat="44.003822" lon="8.167734"><ele>12.75</ele><time>2026-05-03T16:30:33.157Z</time></trkpt><trkpt lat="44.0036918" lon="8.1676481"><ele>13.0</ele><time>2026-05-03T16:30:34.157Z</time></trkpt><trkpt lat="44.0035585" lon="8.1675622"><ele>13.0</ele><time>2026-05-03T16:30:35.157Z</time></trkpt><trkpt lat="44.0034324" lon="8.1674718"><ele>13.0</ele><time>2026-05-03T16:30:36.157Z</time></trkpt><trkpt lat="44.003312" lon="8.167389"><ele>13.0</ele><time>2026-05-03T16:30:37.157Z</time></trkpt><trkpt lat="44.0032027" lon="8.1673055"><ele>13.0</ele><time>2026-05-03T16:30:38.157Z</time></trkpt><trkpt lat="44.0031004" lon="8.1672253"><ele>12.833333333333332</ele><time>2026-05-03T16:30:39.157Z</time></trkpt><trkpt lat="44.0030112" lon="8.1671658"><ele>12.666666666666666</ele><time>2026-05-03T16:30:40.157Z</time></trkpt><trkpt lat="44.0029428" lon="8.1671177"><ele>12.5</ele><time>2026-05-03T16:30:41.158Z</time></trkpt><trkpt lat="44.0028851" lon="8.167074"><ele>12.333333333333332</ele><time>2026-05-03T16:30:42.157Z</time></trkpt><trkpt lat="44.0027993" lon="8.1670151"><ele>12.166666666666666</ele><time>2026-05-03T16:30:44.158Z</time></trkpt><trkpt lat="44.0027277" lon="8.1669663"><ele>12.0</ele><time>2026-05-03T16:30:46.157Z</time></trkpt><trkpt lat="44.0026449" lon="8.166875"><ele>12.0</ele><time>2026-05-03T16:30:48.157Z</time></trkpt><trkpt lat="44.0025887" lon="8.1668231"><ele>12.0</ele><time>2026-05-03T16:30:49.157Z</time></trkpt><trkpt lat="44.002514" lon="8.1667798"><ele>12.0</ele><time>2026-05-03T16:30:50.157Z</time></trkpt><trkpt lat="44.0024361" lon="8.1667344"><ele>12.0</ele><time>2026-05-03T16:30:51.157Z</time></trkpt><trkpt lat="44.0023516" lon="8.1666671"><ele>12.0</ele><time>2026-05-03T16:30:52.157Z</time></trkpt><trkpt lat="44.0022641" lon="8.1666062"><ele>12.0</ele><time>2026-05-03T16:30:53.158Z</time></trkpt><trkpt lat="44.0021696" lon="8.1665423"><ele>12.0</ele><time>2026-05-03T16:30:54.157Z</time></trkpt><trkpt lat="44.0020716" lon="8.1664702"><ele>12.0</ele><time>2026-05-03T16:30:55.157Z</time></trkpt><trkpt lat="44.0019697" lon="8.1663943"><ele>12.0</ele><time>2026-05-03T16:30:56.158Z</time></trkpt><trkpt lat="44.0018622" lon="8.1663099"><ele>12.0</ele><time>2026-05-03T16:30:57.157Z</time></trkpt><trkpt lat="44.0017474" lon="8.1662224"><ele>12.0</ele><time>2026-05-03T16:30:58.157Z</time></trkpt><trkpt lat="44.0016252" lon="8.1661218"><ele>12.0</ele><time>2026-05-03T16:30:59.157Z</time></trkpt><trkpt lat="44.0014992" lon="8.1660242"><ele>12.0</ele><time>2026-05-03T16:31:00.157Z</time></trkpt><trkpt lat="44.001372" lon="8.1659266"><ele>12.0</ele><time>2026-05-03T16:31:01.157Z</time></trkpt><trkpt lat="44.0012462" lon="8.1658345"><ele>12.0</ele><time>2026-05-03T16:31:02.157Z</time></trkpt><trkpt lat="44.0011242" lon="8.1657524"><ele>12.0</ele><time>2026-05-03T16:31:03.158Z</time></trkpt><trkpt lat="44.0010082" lon="8.165688"><ele>12.0</ele><time>2026-05-03T16:31:04.158Z</time></trkpt><trkpt lat="44.0008943" lon="8.1656346"><ele>12.0</ele><time>2026-05-03T16:31:05.157Z</time></trkpt><trkpt lat="44.0007765" lon="8.1655885"><ele>11.75</ele><time>2026-05-03T16:31:06.157Z</time></trkpt><trkpt lat="44.0006484" lon="8.1655473"><ele>11.5</ele><time>2026-05-03T16:31:07.157Z</time></trkpt><trkpt lat="44.0005151" lon="8.1654991"><ele>11.25</ele><time>2026-05-03T16:31:08.157Z</time></trkpt><trkpt lat="44.000379" lon="8.1654437"><ele>11.0</ele><time>2026-05-03T16:31:09.157Z</time></trkpt><trkpt lat="44.0002393" lon="8.1653868"><ele>11.0</ele><time>2026-05-03T16:31:10.158Z</time></trkpt><trkpt lat="44.000098" lon="8.1653287"><ele>11.0</ele><time>2026-05-03T16:31:11.157Z</time></trkpt><trkpt lat="43.9999594" lon="8.1652758"><ele>11.0</ele><time>2026-05-03T16:31:12.157Z</time></trkpt><trkpt lat="43.9998224" lon="8.1652256"><ele>11.0</ele><time>2026-05-03T16:31:13.157Z</time></trkpt><trkpt lat="43.9996859" lon="8.1651748"><ele>11.0</ele><time>2026-05-03T16:31:14.157Z</time></trkpt><trkpt lat="43.9995453" lon="8.1651374"><ele>11.0</ele><time>2026-05-03T16:31:15.157Z</time></trkpt><trkpt lat="43.9993991" lon="8.1651297"><ele>11.0</ele><time>2026-05-03T16:31:16.158Z</time></trkpt><trkpt lat="43.9992415" lon="8.1651382"><ele>11.0</ele><time>2026-05-03T16:31:17.157Z</time></trkpt><trkpt lat="43.999077" lon="8.1651539"><ele>11.666666666666666</ele><time>2026-05-03T16:31:18.157Z</time></trkpt><trkpt lat="43.9989087" lon="8.1651771"><ele>12.333333333333332</ele><time>2026-05-03T16:31:19.157Z</time></trkpt><trkpt lat="43.9987351" lon="8.1651975"><ele>13.0</ele><time>2026-05-03T16:31:20.157Z</time></trkpt><trkpt lat="43.9985582" lon="8.1652158"><ele>13.0</ele><time>2026-05-03T16:31:21.158Z</time></trkpt><trkpt lat="43.9983872" lon="8.1652353"><ele>13.0</ele><time>2026-05-03T16:31:22.157Z</time></trkpt><trkpt lat="43.9982145" lon="8.1652535"><ele>13.0</ele><time>2026-05-03T16:31:23.157Z</time></trkpt><trkpt lat="43.9980369" lon="8.1652746"><ele>13.333333333333332</ele><time>2026-05-03T16:31:24.157Z</time></trkpt><trkpt lat="43.9978565" lon="8.1652972"><ele>13.666666666666668</ele><time>2026-05-03T16:31:25.157Z</time></trkpt><trkpt lat="43.9976806" lon="8.1653217"><ele>14.0</ele><time>2026-05-03T16:31:26.157Z</time></trkpt><trkpt lat="43.9975063" lon="8.1653442"><ele>13.333333333333334</ele><time>2026-05-03T16:31:27.157Z</time></trkpt><trkpt lat="43.9973341" lon="8.1653508"><ele>12.666666666666668</ele><time>2026-05-03T16:31:28.157Z</time></trkpt><trkpt lat="43.9971686" lon="8.1653264"><ele>12.0</ele><time>2026-05-03T16:31:29.157Z</time></trkpt><trkpt lat="43.9970091" lon="8.1652595"><ele>12.0</ele><time>2026-05-03T16:31:30.157Z</time></trkpt><trkpt lat="43.9968513" lon="8.1651581"><ele>12.0</ele><time>2026-05-03T16:31:31.158Z</time></trkpt><trkpt lat="43.9966922" lon="8.16505"><ele>12.0</ele><time>2026-05-03T16:31:32.157Z</time></trkpt><trkpt lat="43.9965272" lon="8.1649474"><ele>12.333333333333332</ele><time>2026-05-03T16:31:33.158Z</time></trkpt><trkpt lat="43.9963573" lon="8.16485"><ele>12.666666666666666</ele><time>2026-05-03T16:31:34.157Z</time></trkpt><trkpt lat="43.9961858" lon="8.1647603"><ele>13.0</ele><time>2026-05-03T16:31:35.157Z</time></trkpt><trkpt lat="43.9960178" lon="8.1646631"><ele>13.0</ele><time>2026-05-03T16:31:36.157Z</time></trkpt><trkpt lat="43.9958484" lon="8.1645631"><ele>13.0</ele><time>2026-05-03T16:31:37.157Z</time></trkpt><trkpt lat="43.995679" lon="8.1644633"><ele>13.0</ele><time>2026-05-03T16:31:38.157Z</time></trkpt><trkpt lat="43.9955156" lon="8.1643655"><ele>11.666666666666666</ele><time>2026-05-03T16:31:39.157Z</time></trkpt><trkpt lat="43.9953601" lon="8.1642706"><ele>10.333333333333332</ele><time>2026-05-03T16:31:40.157Z</time></trkpt><trkpt lat="43.9952101" lon="8.1641856"><ele>9.0</ele><time>2026-05-03T16:31:41.157Z</time></trkpt><trkpt lat="43.9950611" lon="8.1641033"><ele>10.5</ele><time>2026-05-03T16:31:42.157Z</time></trkpt><trkpt lat="43.9949154" lon="8.1640208"><ele>12.0</ele><time>2026-05-03T16:31:43.157Z</time></trkpt><trkpt lat="43.9947754" lon="8.1639435"><ele>13.5</ele><time>2026-05-03T16:31:44.158Z</time></trkpt><trkpt lat="43.9946469" lon="8.163864"><ele>15.0</ele><time>2026-05-03T16:31:45.157Z</time></trkpt><trkpt lat="43.9945275" lon="8.1637861"><ele>15.0</ele><time>2026-05-03T16:31:46.157Z</time></trkpt><trkpt lat="43.9944155" lon="8.1637127"><ele>15.0</ele><time>2026-05-03T16:31:47.157Z</time></trkpt><trkpt lat="43.9943033" lon="8.1636441"><ele>15.0</ele><time>2026-05-03T16:31:48.157Z</time></trkpt><trkpt lat="43.994189" lon="8.1635793"><ele>15.0</ele><time>2026-05-03T16:31:49.157Z</time></trkpt><trkpt lat="43.994069" lon="8.1635144"><ele>13.75</ele><time>2026-05-03T16:31:50.157Z</time></trkpt><trkpt lat="43.9939499" lon="8.1634522"><ele>12.5</ele><time>2026-05-03T16:31:51.158Z</time></trkpt><trkpt lat="43.9938317" lon="8.1633896"><ele>11.25</ele><time>2026-05-03T16:31:52.157Z</time></trkpt><trkpt lat="43.9937107" lon="8.1633249"><ele>10.0</ele><time>2026-05-03T16:31:53.157Z</time></trkpt><trkpt lat="43.9935833" lon="8.1632599"><ele>14.25</ele><time>2026-05-03T16:31:54.157Z</time></trkpt><trkpt lat="43.9934518" lon="8.1631927"><ele>18.5</ele><time>2026-05-03T16:31:55.157Z</time></trkpt><trkpt lat="43.9933143" lon="8.1631278"><ele>22.75</ele><time>2026-05-03T16:31:56.157Z</time></trkpt><trkpt lat="43.9931728" lon="8.1630672"><ele>27.0</ele><time>2026-05-03T16:31:57.158Z</time></trkpt><trkpt lat="43.9930273" lon="8.16301"><ele>27.666666666666664</ele><time>2026-05-03T16:31:58.157Z</time></trkpt><trkpt lat="43.9928756" lon="8.1629594"><ele>28.333333333333332</ele><time>2026-05-03T16:31:59.158Z</time></trkpt><trkpt lat="43.9927173" lon="8.1629168"><ele>29.0</ele><time>2026-05-03T16:32:00.157Z</time></trkpt><trkpt lat="43.9925551" lon="8.1628889"><ele>29.0</ele><time>2026-05-03T16:32:01.157Z</time></trkpt><trkpt lat="43.9923927" lon="8.1628676"><ele>29.0</ele><time>2026-05-03T16:32:02.157Z</time></trkpt><trkpt lat="43.9922263" lon="8.162848"><ele>29.0</ele><time>2026-05-03T16:32:03.157Z</time></trkpt><trkpt lat="43.9920595" lon="8.1628263"><ele>29.0</ele><time>2026-05-03T16:32:04.157Z</time></trkpt><trkpt lat="43.9918925" lon="8.162803"><ele>29.0</ele><time>2026-05-03T16:32:05.158Z</time></trkpt><trkpt lat="43.9917285" lon="8.1627826"><ele>29.0</ele><time>2026-05-03T16:32:06.158Z</time></trkpt><trkpt lat="43.9915702" lon="8.1627662"><ele>27.666666666666664</ele><time>2026-05-03T16:32:07.157Z</time></trkpt><trkpt lat="43.9914083" lon="8.1627443"><ele>26.333333333333336</ele><time>2026-05-03T16:32:08.157Z</time></trkpt><trkpt lat="43.9912364" lon="8.1627043"><ele>25.0</ele><time>2026-05-03T16:32:09.157Z</time></trkpt><trkpt lat="43.9910555" lon="8.1626376"><ele>25.0</ele><time>2026-05-03T16:32:10.158Z</time></trkpt><trkpt lat="43.9908702" lon="8.1625495"><ele>25.0</ele><time>2026-05-03T16:32:11.157Z</time></trkpt><trkpt lat="43.9906857" lon="8.1624508"><ele>25.0</ele><time>2026-05-03T16:32:12.157Z</time></trkpt><trkpt lat="43.9905009" lon="8.162336"><ele>25.333333333333336</ele><time>2026-05-03T16:32:13.158Z</time></trkpt><trkpt lat="43.9903175" lon="8.1622187"><ele>25.666666666666664</ele><time>2026-05-03T16:32:14.157Z</time></trkpt><trkpt lat="43.9901292" lon="8.162101"><ele>26.0</ele><time>2026-05-03T16:32:15.158Z</time></trkpt><trkpt lat="43.9899381" lon="8.1619887"><ele>26.0</ele><time>2026-05-03T16:32:16.157Z</time></trkpt><trkpt lat="43.9897467" lon="8.1618793"><ele>26.0</ele><time>2026-05-03T16:32:17.158Z</time></trkpt><trkpt lat="43.9895566" lon="8.1617714"><ele>26.0</ele><time>2026-05-03T16:32:18.158Z</time></trkpt><trkpt lat="43.9893662" lon="8.1616624"><ele>26.0</ele><time>2026-05-03T16:32:19.157Z</time></trkpt><trkpt lat="43.9891759" lon="8.1615523"><ele>26.0</ele><time>2026-05-03T16:32:20.157Z</time></trkpt><trkpt lat="43.9889841" lon="8.1614423"><ele>26.0</ele><time>2026-05-03T16:32:21.157Z</time></trkpt><trkpt lat="43.9887912" lon="8.1613312"><ele>23.0</ele><time>2026-05-03T16:32:22.157Z</time></trkpt><trkpt lat="43.9885952" lon="8.1612258"><ele>20.0</ele><time>2026-05-03T16:32:23.158Z</time></trkpt><trkpt lat="43.9883996" lon="8.1611195"><ele>17.0</ele><time>2026-05-03T16:32:24.157Z</time></trkpt><trkpt lat="43.988205" lon="8.1610137"><ele>17.0</ele><time>2026-05-03T16:32:25.158Z</time></trkpt><trkpt lat="43.9880128" lon="8.1609112"><ele>17.0</ele><time>2026-05-03T16:32:26.157Z</time></trkpt><trkpt lat="43.9878206" lon="8.1608113"><ele>17.0</ele><time>2026-05-03T16:32:27.158Z</time></trkpt><trkpt lat="43.9876298" lon="8.1607137"><ele>19.333333333333336</ele><time>2026-05-03T16:32:28.157Z</time></trkpt><trkpt lat="43.9874384" lon="8.1606151"><ele>21.666666666666668</ele><time>2026-05-03T16:32:29.157Z</time></trkpt><trkpt lat="43.9872459" lon="8.16052"><ele>24.0</ele><time>2026-05-03T16:32:30.157Z</time></trkpt><trkpt lat="43.9870542" lon="8.1604241"><ele>24.0</ele><time>2026-05-03T16:32:31.158Z</time></trkpt><trkpt lat="43.9868614" lon="8.1603329"><ele>24.0</ele><time>2026-05-03T16:32:32.157Z</time></trkpt><trkpt lat="43.9866662" lon="8.1602482"><ele>24.0</ele><time>2026-05-03T16:32:33.157Z</time></trkpt><trkpt lat="43.9864692" lon="8.1601655"><ele>20.333333333333332</ele><time>2026-05-03T16:32:34.157Z</time></trkpt><trkpt lat="43.9862705" lon="8.1600914"><ele>16.666666666666664</ele><time>2026-05-03T16:32:35.157Z</time></trkpt><trkpt lat="43.9860697" lon="8.1600238"><ele>13.0</ele><time>2026-05-03T16:32:36.157Z</time></trkpt><trkpt lat="43.9858655" lon="8.159966"><ele>11.333333333333332</ele><time>2026-05-03T16:32:37.157Z</time></trkpt><trkpt lat="43.9856598" lon="8.1599151"><ele>9.666666666666666</ele><time>2026-05-03T16:32:38.157Z</time></trkpt><trkpt lat="43.9854519" lon="8.1598681"><ele>8.0</ele><time>2026-05-03T16:32:39.158Z</time></trkpt><trkpt lat="43.9852436" lon="8.1598179"><ele>12.333333333333332</ele><time>2026-05-03T16:32:40.157Z</time></trkpt><trkpt lat="43.9850356" lon="8.1597657"><ele>16.666666666666668</ele><time>2026-05-03T16:32:41.157Z</time></trkpt><trkpt lat="43.9848289" lon="8.1597137"><ele>21.0</ele><time>2026-05-03T16:32:42.157Z</time></trkpt><trkpt lat="43.9846234" lon="8.1596658"><ele>21.0</ele><time>2026-05-03T16:32:43.157Z</time></trkpt><trkpt lat="43.984422" lon="8.1596178"><ele>21.0</ele><time>2026-05-03T16:32:44.158Z</time></trkpt><trkpt lat="43.9842256" lon="8.1595706"><ele>21.0</ele><time>2026-05-03T16:32:45.158Z</time></trkpt><trkpt lat="43.9840364" lon="8.1595226"><ele>18.0</ele><time>2026-05-03T16:32:46.158Z</time></trkpt><trkpt lat="43.9838497" lon="8.1594785"><ele>15.0</ele><time>2026-05-03T16:32:47.157Z</time></trkpt><trkpt lat="43.9836641" lon="8.159438"><ele>12.0</ele><time>2026-05-03T16:32:48.158Z</time></trkpt><trkpt lat="43.9834802" lon="8.1593917"><ele>11.666666666666666</ele><time>2026-05-03T16:32:49.157Z</time></trkpt><trkpt lat="43.9832983" lon="8.1593448"><ele>11.333333333333332</ele><time>2026-05-03T16:32:50.157Z</time></trkpt><trkpt lat="43.9831185" lon="8.1593021"><ele>11.0</ele><time>2026-05-03T16:32:51.158Z</time></trkpt><trkpt lat="43.9829405" lon="8.1592604"><ele>11.0</ele><time>2026-05-03T16:32:52.157Z</time></trkpt><trkpt lat="43.982772" lon="8.1592209"><ele>11.0</ele><time>2026-05-03T16:32:53.157Z</time></trkpt><trkpt lat="43.9826121" lon="8.159181"><ele>11.0</ele><time>2026-05-03T16:32:54.157Z</time></trkpt><trkpt lat="43.9824576" lon="8.1591429"><ele>10.5</ele><time>2026-05-03T16:32:55.156Z</time></trkpt><trkpt lat="43.9823075" lon="8.159103"><ele>10.0</ele><time>2026-05-03T16:32:56.157Z</time></trkpt><trkpt lat="43.982169" lon="8.1590668"><ele>9.5</ele><time>2026-05-03T16:32:57.157Z</time></trkpt><trkpt lat="43.9820337" lon="8.1590355"><ele>9.0</ele><time>2026-05-03T16:32:58.158Z</time></trkpt><trkpt lat="43.9819045" lon="8.159002"><ele>11.75</ele><time>2026-05-03T16:32:59.157Z</time></trkpt><trkpt lat="43.9817792" lon="8.1589722"><ele>14.5</ele><time>2026-05-03T16:33:00.158Z</time></trkpt><trkpt lat="43.9816585" lon="8.1589425"><ele>17.25</ele><time>2026-05-03T16:33:01.157Z</time></trkpt><trkpt lat="43.9815421" lon="8.1589209"><ele>20.0</ele><time>2026-05-03T16:33:02.158Z</time></trkpt><trkpt lat="43.9814345" lon="8.1589072"><ele>20.0</ele><time>2026-05-03T16:33:03.157Z</time></trkpt><trkpt lat="43.9813517" lon="8.1588988"><ele>20.0</ele><time>2026-05-03T16:33:04.157Z</time></trkpt><trkpt lat="43.9812382" lon="8.1588806"><ele>20.0</ele><time>2026-05-03T16:33:06.157Z</time></trkpt><trkpt lat="43.9811106" lon="8.1588275"><ele>20.0</ele><time>2026-05-03T16:33:08.157Z</time></trkpt><trkpt lat="43.9810268" lon="8.1587746"><ele>20.0</ele><time>2026-05-03T16:33:09.157Z</time></trkpt><trkpt lat="43.9809321" lon="8.1587129"><ele>17.5</ele><time>2026-05-03T16:33:10.157Z</time></trkpt><trkpt lat="43.9808222" lon="8.158655"><ele>15.0</ele><time>2026-05-03T16:33:11.157Z</time></trkpt><trkpt lat="43.980696" lon="8.1586017"><ele>12.5</ele><time>2026-05-03T16:33:12.157Z</time></trkpt><trkpt lat="43.9805507" lon="8.1585466"><ele>10.0</ele><time>2026-05-03T16:33:13.158Z</time></trkpt><trkpt lat="43.9803901" lon="8.1584935"><ele>10.0</ele><time>2026-05-03T16:33:14.157Z</time></trkpt><trkpt lat="43.9802171" lon="8.1584426"><ele>10.0</ele><time>2026-05-03T16:33:15.157Z</time></trkpt><trkpt lat="43.9800477" lon="8.1583954"><ele>10.0</ele><time>2026-05-03T16:33:16.158Z</time></trkpt><trkpt lat="43.9798855" lon="8.1583463"><ele>10.0</ele><time>2026-05-03T16:33:17.157Z</time></trkpt><trkpt lat="43.9797348" lon="8.1582906"><ele>10.0</ele><time>2026-05-03T16:33:18.157Z</time></trkpt><trkpt lat="43.9795874" lon="8.15824"><ele>10.0</ele><time>2026-05-03T16:33:19.157Z</time></trkpt><trkpt lat="43.9794478" lon="8.1581972"><ele>12.75</ele><time>2026-05-03T16:33:20.157Z</time></trkpt><trkpt lat="43.9793101" lon="8.1581591"><ele>15.5</ele><time>2026-05-03T16:33:21.157Z</time></trkpt><trkpt lat="43.9791779" lon="8.1581172"><ele>18.25</ele><time>2026-05-03T16:33:22.157Z</time></trkpt><trkpt lat="43.9790509" lon="8.1580757"><ele>21.0</ele><time>2026-05-03T16:33:23.157Z</time></trkpt><trkpt lat="43.9789286" lon="8.1580287"><ele>21.0</ele><time>2026-05-03T16:33:24.158Z</time></trkpt><trkpt lat="43.9788138" lon="8.1579867"><ele>21.0</ele><time>2026-05-03T16:33:25.158Z</time></trkpt><trkpt lat="43.9787098" lon="8.1579563"><ele>21.0</ele><time>2026-05-03T16:33:26.157Z</time></trkpt><trkpt lat="43.9786068" lon="8.1579267"><ele>21.0</ele><time>2026-05-03T16:33:27.157Z</time></trkpt><trkpt lat="43.9785083" lon="8.1579013"><ele>21.0</ele><time>2026-05-03T16:33:28.157Z</time></trkpt><trkpt lat="43.978414" lon="8.1578796"><ele>19.333333333333332</ele><time>2026-05-03T16:33:29.158Z</time></trkpt><trkpt lat="43.9783256" lon="8.1578527"><ele>17.666666666666668</ele><time>2026-05-03T16:33:30.157Z</time></trkpt><trkpt lat="43.9782421" lon="8.1578263"><ele>16.0</ele><time>2026-05-03T16:33:31.157Z</time></trkpt><trkpt lat="43.9781563" lon="8.1578065"><ele>14.333333333333332</ele><time>2026-05-03T16:33:32.158Z</time></trkpt><trkpt lat="43.9780692" lon="8.1577888"><ele>12.666666666666666</ele><time>2026-05-03T16:33:33.157Z</time></trkpt><trkpt lat="43.9779805" lon="8.1577707"><ele>11.0</ele><time>2026-05-03T16:33:34.157Z</time></trkpt><trkpt lat="43.9778811" lon="8.1577558"><ele>11.0</ele><time>2026-05-03T16:33:35.157Z</time></trkpt><trkpt lat="43.9777748" lon="8.157754"><ele>11.0</ele><time>2026-05-03T16:33:36.158Z</time></trkpt><trkpt lat="43.9776763" lon="8.1577599"><ele>11.0</ele><time>2026-05-03T16:33:37.157Z</time></trkpt><trkpt lat="43.9775837" lon="8.1577707"><ele>11.0</ele><time>2026-05-03T16:33:38.157Z</time></trkpt><trkpt lat="43.9775075" lon="8.1577784"><ele>11.0</ele><time>2026-05-03T16:33:39.158Z</time></trkpt><trkpt lat="43.9774205" lon="8.1577855"><ele>11.0</ele><time>2026-05-03T16:33:40.157Z</time></trkpt><trkpt lat="43.9773287" lon="8.1578024"><ele>11.0</ele><time>2026-05-03T16:33:41.157Z</time></trkpt><trkpt lat="43.977223" lon="8.157826"><ele>11.0</ele><time>2026-05-03T16:33:42.157Z</time></trkpt><trkpt lat="43.9770996" lon="8.1578587"><ele>11.0</ele><time>2026-05-03T16:33:43.157Z</time></trkpt><trkpt lat="43.9769561" lon="8.1578855"><ele>11.0</ele><time>2026-05-03T16:33:44.157Z</time></trkpt><trkpt lat="43.9768093" lon="8.1579042"><ele>11.0</ele><time>2026-05-03T16:33:45.157Z</time></trkpt><trkpt lat="43.9766681" lon="8.1579211"><ele>11.0</ele><time>2026-05-03T16:33:46.157Z</time></trkpt><trkpt lat="43.9765385" lon="8.1579421"><ele>11.0</ele><time>2026-05-03T16:33:47.157Z</time></trkpt><trkpt lat="43.976422" lon="8.1579689"><ele>11.0</ele><time>2026-05-03T16:33:48.157Z</time></trkpt><trkpt lat="43.9763112" lon="8.1579956"><ele>11.0</ele><time>2026-05-03T16:33:49.157Z</time></trkpt><trkpt lat="43.9762075" lon="8.1580133"><ele>11.0</ele><time>2026-05-03T16:33:50.158Z</time></trkpt><trkpt lat="43.9760986" lon="8.158027"><ele>11.0</ele><time>2026-05-03T16:33:51.157Z</time></trkpt><trkpt lat="43.9759974" lon="8.1580444"><ele>11.0</ele><time>2026-05-03T16:33:52.157Z</time></trkpt><trkpt lat="43.9759008" lon="8.1580678"><ele>11.0</ele><time>2026-05-03T16:33:53.157Z</time></trkpt><trkpt lat="43.9758025" lon="8.1580851"><ele>11.0</ele><time>2026-05-03T16:33:54.157Z</time></trkpt><trkpt lat="43.9757028" lon="8.1580982"><ele>11.0</ele><time>2026-05-03T16:33:55.157Z</time></trkpt><trkpt lat="43.9756099" lon="8.1581166"><ele>11.0</ele><time>2026-05-03T16:33:56.158Z</time></trkpt><trkpt lat="43.9755127" lon="8.1581395"><ele>11.0</ele><time>2026-05-03T16:33:57.157Z</time></trkpt><trkpt lat="43.9754153" lon="8.1581561"><ele>11.0</ele><time>2026-05-03T16:33:58.158Z</time></trkpt><trkpt lat="43.9753218" lon="8.1581772"><ele>11.0</ele><time>2026-05-03T16:33:59.157Z</time></trkpt><trkpt lat="43.9752291" lon="8.1582056"><ele>11.0</ele><time>2026-05-03T16:34:00.157Z</time></trkpt><trkpt lat="43.9751431" lon="8.1582489"><ele>11.0</ele><time>2026-05-03T16:34:01.157Z</time></trkpt><trkpt lat="43.9750631" lon="8.1583283"><ele>11.0</ele><time>2026-05-03T16:34:02.158Z</time></trkpt><trkpt lat="43.9749815" lon="8.1584415"><ele>10.75</ele><time>2026-05-03T16:34:03.157Z</time></trkpt><trkpt lat="43.9749009" lon="8.1585748"><ele>10.5</ele><time>2026-05-03T16:34:04.158Z</time></trkpt><trkpt lat="43.974825" lon="8.1587249"><ele>10.25</ele><time>2026-05-03T16:34:05.157Z</time></trkpt><trkpt lat="43.9747534" lon="8.1588659"><ele>10.0</ele><time>2026-05-03T16:34:06.158Z</time></trkpt><trkpt lat="43.9746911" lon="8.1589907"><ele>9.166666666666668</ele><time>2026-05-03T16:34:07.157Z</time></trkpt><trkpt lat="43.9746319" lon="8.1590969"><ele>8.333333333333334</ele><time>2026-05-03T16:34:08.157Z</time></trkpt><trkpt lat="43.9745714" lon="8.159189"><ele>7.5</ele><time>2026-05-03T16:34:09.157Z</time></trkpt><trkpt lat="43.9745048" lon="8.1592633"><ele>6.666666666666667</ele><time>2026-05-03T16:34:10.157Z</time></trkpt><trkpt lat="43.9744344" lon="8.1593216"><ele>5.833333333333334</ele><time>2026-05-03T16:34:11.157Z</time></trkpt><trkpt lat="43.9743537" lon="8.1593725"><ele>5.0</ele><time>2026-05-03T16:34:12.157Z</time></trkpt><trkpt lat="43.9742601" lon="8.1594144"><ele>5.25</ele><time>2026-05-03T16:34:13.157Z</time></trkpt><trkpt lat="43.9741604" lon="8.1594529"><ele>5.5</ele><time>2026-05-03T16:34:14.157Z</time></trkpt><trkpt lat="43.9740533" lon="8.159489"><ele>5.75</ele><time>2026-05-03T16:34:15.158Z</time></trkpt><trkpt lat="43.9739312" lon="8.1595167"><ele>6.0</ele><time>2026-05-03T16:34:16.158Z</time></trkpt><trkpt lat="43.9738172" lon="8.1595447"><ele>6.0</ele><time>2026-05-03T16:34:17.157Z</time></trkpt><trkpt lat="43.9736963" lon="8.1595765"><ele>6.0</ele><time>2026-05-03T16:34:18.157Z</time></trkpt><trkpt lat="43.9735794" lon="8.159611"><ele>6.0</ele><time>2026-05-03T16:34:19.157Z</time></trkpt><trkpt lat="43.9734611" lon="8.1596438"><ele>6.0</ele><time>2026-05-03T16:34:20.157Z</time></trkpt><trkpt lat="43.9733438" lon="8.1596763"><ele>5.75</ele><time>2026-05-03T16:34:21.157Z</time></trkpt><trkpt lat="43.9732222" lon="8.1596966"><ele>5.5</ele><time>2026-05-03T16:34:22.157Z</time></trkpt><trkpt lat="43.9731081" lon="8.1597306"><ele>5.25</ele><time>2026-05-03T16:34:23.157Z</time></trkpt><trkpt lat="43.9729951" lon="8.1597531"><ele>5.0</ele><time>2026-05-03T16:34:24.159Z</time></trkpt><trkpt lat="43.9728877" lon="8.1597778"><ele>5.0</ele><time>2026-05-03T16:34:25.157Z</time></trkpt><trkpt lat="43.9727833" lon="8.1598029"><ele>5.0</ele><time>2026-05-03T16:34:26.158Z</time></trkpt><trkpt lat="43.9726799" lon="8.1598246"><ele>5.0</ele><time>2026-05-03T16:34:27.157Z</time></trkpt><trkpt lat="43.9725757" lon="8.159852"><ele>5.0</ele><time>2026-05-03T16:34:28.157Z</time></trkpt><trkpt lat="43.9724713" lon="8.1598845"><ele>5.0</ele><time>2026-05-03T16:34:29.157Z</time></trkpt><trkpt lat="43.972366" lon="8.1599192"><ele>4.5</ele><time>2026-05-03T16:34:30.157Z</time></trkpt><trkpt lat="43.9722456" lon="8.1599684"><ele>4.0</ele><time>2026-05-03T16:34:31.158Z</time></trkpt><trkpt lat="43.9721115" lon="8.1600397"><ele>3.5</ele><time>2026-05-03T16:34:32.158Z</time></trkpt><trkpt lat="43.9719598" lon="8.1601239"><ele>3.0</ele><time>2026-05-03T16:34:33.157Z</time></trkpt><trkpt lat="43.971794" lon="8.160207"><ele>4.0</ele><time>2026-05-03T16:34:34.157Z</time></trkpt><trkpt lat="43.9716202" lon="8.1602893"><ele>5.0</ele><time>2026-05-03T16:34:35.157Z</time></trkpt><trkpt lat="43.9714472" lon="8.1603831"><ele>6.0</ele><time>2026-05-03T16:34:36.157Z</time></trkpt><trkpt lat="43.9712701" lon="8.1604825"><ele>6.0</ele><time>2026-05-03T16:34:37.158Z</time></trkpt><trkpt lat="43.9710825" lon="8.160581"><ele>6.0</ele><time>2026-05-03T16:34:38.157Z</time></trkpt><trkpt lat="43.9708916" lon="8.1606759"><ele>6.0</ele><time>2026-05-03T16:34:39.157Z</time></trkpt><trkpt lat="43.970696" lon="8.160757"><ele>6.333333333333334</ele><time>2026-05-03T16:34:40.157Z</time></trkpt><trkpt lat="43.970499" lon="8.1608233"><ele>6.666666666666667</ele><time>2026-05-03T16:34:41.157Z</time></trkpt><trkpt lat="43.970296" lon="8.1608844"><ele>7.0</ele><time>2026-05-03T16:34:42.157Z</time></trkpt><trkpt lat="43.9701028" lon="8.1609684"><ele>10.0</ele><time>2026-05-03T16:34:43.157Z</time></trkpt><trkpt lat="43.9699163" lon="8.1610748"><ele>13.0</ele><time>2026-05-03T16:34:44.157Z</time></trkpt><trkpt lat="43.9697526" lon="8.1611939"><ele>16.0</ele><time>2026-05-03T16:34:45.158Z</time></trkpt><trkpt lat="43.9696115" lon="8.1613171"><ele>16.0</ele><time>2026-05-03T16:34:46.157Z</time></trkpt><trkpt lat="43.9694717" lon="8.1614481"><ele>16.0</ele><time>2026-05-03T16:34:47.157Z</time></trkpt><trkpt lat="43.9693824" lon="8.1616086"><ele>16.0</ele><time>2026-05-03T16:34:48.158Z</time></trkpt><trkpt lat="43.9692768" lon="8.1617517"><ele>19.666666666666664</ele><time>2026-05-03T16:34:49.157Z</time></trkpt><trkpt lat="43.9691639" lon="8.1619084"><ele>23.333333333333332</ele><time>2026-05-03T16:34:50.157Z</time></trkpt><trkpt lat="43.9690498" lon="8.1620692"><ele>27.0</ele><time>2026-05-03T16:34:51.157Z</time></trkpt><trkpt lat="43.968945" lon="8.1622328"><ele>21.333333333333332</ele><time>2026-05-03T16:34:52.157Z</time></trkpt><trkpt lat="43.9688394" lon="8.1624275"><ele>15.666666666666668</ele><time>2026-05-03T16:34:53.157Z</time></trkpt><trkpt lat="43.9687372" lon="8.1626266"><ele>10.0</ele><time>2026-05-03T16:34:54.157Z</time></trkpt><trkpt lat="43.9686465" lon="8.1628518"><ele>10.0</ele><time>2026-05-03T16:34:55.157Z</time></trkpt><trkpt lat="43.9685381" lon="8.1630672"><ele>10.0</ele><time>2026-05-03T16:34:56.157Z</time></trkpt><trkpt lat="43.9684131" lon="8.1632757"><ele>10.0</ele><time>2026-05-03T16:34:57.157Z</time></trkpt><trkpt lat="43.9682787" lon="8.163458"><ele>15.333333333333332</ele><time>2026-05-03T16:34:58.157Z</time></trkpt><trkpt lat="43.9681392" lon="8.1636294"><ele>20.666666666666664</ele><time>2026-05-03T16:34:59.157Z</time></trkpt><trkpt lat="43.9679766" lon="8.1637705"><ele>26.0</ele><time>2026-05-03T16:35:00.158Z</time></trkpt><trkpt lat="43.9678163" lon="8.1639093"><ele>26.0</ele><time>2026-05-03T16:35:01.157Z</time></trkpt><trkpt lat="43.9676486" lon="8.1639933"><ele>26.0</ele><time>2026-05-03T16:35:02.157Z</time></trkpt><trkpt lat="43.9674824" lon="8.1640664"><ele>26.0</ele><time>2026-05-03T16:35:03.157Z</time></trkpt><trkpt lat="43.9673267" lon="8.1641355"><ele>25.0</ele><time>2026-05-03T16:35:04.157Z</time></trkpt><trkpt lat="43.9671772" lon="8.1642051"><ele>24.0</ele><time>2026-05-03T16:35:05.157Z</time></trkpt><trkpt lat="43.9670303" lon="8.1642885"><ele>23.0</ele><time>2026-05-03T16:35:06.158Z</time></trkpt><trkpt lat="43.9669161" lon="8.1644171"><ele>23.0</ele><time>2026-05-03T16:35:07.157Z</time></trkpt><trkpt lat="43.9667937" lon="8.1645485"><ele>23.0</ele><time>2026-05-03T16:35:08.157Z</time></trkpt><trkpt lat="43.9666654" lon="8.1646807"><ele>23.0</ele><time>2026-05-03T16:35:09.158Z</time></trkpt><trkpt lat="43.9665289" lon="8.1647858"><ele>22.333333333333336</ele><time>2026-05-03T16:35:10.157Z</time></trkpt><trkpt lat="43.9663882" lon="8.1648673"><ele>21.666666666666668</ele><time>2026-05-03T16:35:11.158Z</time></trkpt><trkpt lat="43.9662408" lon="8.164949"><ele>21.0</ele><time>2026-05-03T16:35:12.158Z</time></trkpt><trkpt lat="43.9660833" lon="8.1650284"><ele>21.0</ele><time>2026-05-03T16:35:13.157Z</time></trkpt><trkpt lat="43.9659281" lon="8.1651312"><ele>21.0</ele><time>2026-05-03T16:35:14.157Z</time></trkpt><trkpt lat="43.9657976" lon="8.1652808"><ele>21.0</ele><time>2026-05-03T16:35:15.158Z</time></trkpt><trkpt lat="43.9656733" lon="8.1654495"><ele>20.0</ele><time>2026-05-03T16:35:16.157Z</time></trkpt><trkpt lat="43.9655462" lon="8.1656032"><ele>19.0</ele><time>2026-05-03T16:35:17.158Z</time></trkpt><trkpt lat="43.9653754" lon="8.165698"><ele>18.0</ele><time>2026-05-03T16:35:18.157Z</time></trkpt><trkpt lat="43.9651945" lon="8.165762"><ele>29.666666666666668</ele><time>2026-05-03T16:35:19.158Z</time></trkpt><trkpt lat="43.9650234" lon="8.1658543"><ele>41.333333333333336</ele><time>2026-05-03T16:35:20.157Z</time></trkpt><trkpt lat="43.9648535" lon="8.1659689"><ele>53.0</ele><time>2026-05-03T16:35:21.157Z</time></trkpt><trkpt lat="43.9646911" lon="8.1661021"><ele>53.0</ele><time>2026-05-03T16:35:22.157Z</time></trkpt><trkpt lat="43.9645273" lon="8.1662358"><ele>53.0</ele><time>2026-05-03T16:35:23.157Z</time></trkpt><trkpt lat="43.9643632" lon="8.1663625"><ele>53.0</ele><time>2026-05-03T16:35:24.157Z</time></trkpt><trkpt lat="43.9641913" lon="8.1664748"><ele>49.0</ele><time>2026-05-03T16:35:25.158Z</time></trkpt><trkpt lat="43.9640035" lon="8.1665713"><ele>45.0</ele><time>2026-05-03T16:35:26.157Z</time></trkpt><trkpt lat="43.9638138" lon="8.166663"><ele>41.0</ele><time>2026-05-03T16:35:27.157Z</time></trkpt><trkpt lat="43.9636048" lon="8.1667461"><ele>41.0</ele><time>2026-05-03T16:35:28.157Z</time></trkpt><trkpt lat="43.9633937" lon="8.1668296"><ele>41.0</ele><time>2026-05-03T16:35:29.157Z</time></trkpt><trkpt lat="43.9631871" lon="8.1669112"><ele>41.0</ele><time>2026-05-03T16:35:30.158Z</time></trkpt><trkpt lat="43.9629783" lon="8.1670479"><ele>46.666666666666664</ele><time>2026-05-03T16:35:31.157Z</time></trkpt><trkpt lat="43.9627688" lon="8.1671526"><ele>52.33333333333333</ele><time>2026-05-03T16:35:32.157Z</time></trkpt><trkpt lat="43.9625941" lon="8.1673262"><ele>58.0</ele><time>2026-05-03T16:35:33.157Z</time></trkpt><trkpt lat="43.9623912" lon="8.1674168"><ele>58.0</ele><time>2026-05-03T16:35:34.158Z</time></trkpt><trkpt lat="43.9622939" lon="8.1677452"><ele>58.0</ele><time>2026-05-03T16:35:35.157Z</time></trkpt><trkpt lat="43.9621628" lon="8.1679129"><ele>58.0</ele><time>2026-05-03T16:35:36.157Z</time></trkpt><trkpt lat="43.9620386" lon="8.168149"><ele>68.0</ele><time>2026-05-03T16:35:37.157Z</time></trkpt><trkpt lat="43.9619043" lon="8.1683748"><ele>78.0</ele><time>2026-05-03T16:35:38.157Z</time></trkpt><trkpt lat="43.9617509" lon="8.1685884"><ele>88.0</ele><time>2026-05-03T16:35:39.158Z</time></trkpt><trkpt lat="43.9615816" lon="8.168784"><ele>88.0</ele><time>2026-05-03T16:35:40.157Z</time></trkpt><trkpt lat="43.961403" lon="8.1689636"><ele>88.0</ele><time>2026-05-03T16:35:41.157Z</time></trkpt><trkpt lat="43.9612194" lon="8.1691346"><ele>88.0</ele><time>2026-05-03T16:35:42.157Z</time></trkpt><trkpt lat="43.9610279" lon="8.169298"><ele>90.5</ele><time>2026-05-03T16:35:43.157Z</time></trkpt><trkpt lat="43.9608366" lon="8.1694639"><ele>93.0</ele><time>2026-05-03T16:35:44.157Z</time></trkpt><trkpt lat="43.9606473" lon="8.1696403"><ele>93.0</ele><time>2026-05-03T16:35:45.158Z</time></trkpt><trkpt lat="43.9604693" lon="8.1698421"><ele>93.0</ele><time>2026-05-03T16:35:46.157Z</time></trkpt><trkpt lat="43.9603044" lon="8.1700747"><ele>98.0</ele><time>2026-05-03T16:35:47.157Z</time></trkpt><trkpt lat="43.96014" lon="8.17031"><ele>103.0</ele><time>2026-05-03T16:35:48.157Z</time></trkpt><trkpt lat="43.9599685" lon="8.1705199"><ele>84.0</ele><time>2026-05-03T16:35:49.157Z</time></trkpt><trkpt lat="43.9597871" lon="8.17074"><ele>65.0</ele><time>2026-05-03T16:35:50.157Z</time></trkpt><trkpt lat="43.959614" lon="8.1709593"><ele>65.0</ele><time>2026-05-03T16:35:51.158Z</time></trkpt><trkpt lat="43.9594377" lon="8.17116"><ele>65.0</ele><time>2026-05-03T16:35:52.158Z</time></trkpt><trkpt lat="43.9592755" lon="8.1713575"><ele>65.0</ele><time>2026-05-03T16:35:53.157Z</time></trkpt><trkpt lat="43.9591152" lon="8.1715816"><ele>69.66666666666667</ele><time>2026-05-03T16:35:54.157Z</time></trkpt><trkpt lat="43.9589553" lon="8.1717997"><ele>74.33333333333333</ele><time>2026-05-03T16:35:55.157Z</time></trkpt><trkpt lat="43.9588769" lon="8.171956"><ele>79.0</ele><time>2026-05-03T16:35:56.157Z</time></trkpt><trkpt lat="43.9587776" lon="8.1721702"><ele>65.33333333333333</ele><time>2026-05-03T16:35:57.157Z</time></trkpt><trkpt lat="43.9586903" lon="8.1724155"><ele>51.666666666666664</ele><time>2026-05-03T16:35:58.157Z</time></trkpt><trkpt lat="43.9586019" lon="8.1725304"><ele>38.0</ele><time>2026-05-03T16:35:59.157Z</time></trkpt><trkpt lat="43.9584851" lon="8.1726859"><ele>52.666666666666664</ele><time>2026-05-03T16:36:00.157Z</time></trkpt><trkpt lat="43.9583157" lon="8.1726856"><ele>67.33333333333333</ele><time>2026-05-03T16:36:01.157Z</time></trkpt><trkpt lat="43.9581548" lon="8.1726905"><ele>82.0</ele><time>2026-05-03T16:36:02.158Z</time></trkpt><trkpt lat="43.9579644" lon="8.1727031"><ele>82.0</ele><time>2026-05-03T16:36:03.157Z</time></trkpt><trkpt lat="43.9577742" lon="8.1727313"><ele>82.0</ele><time>2026-05-03T16:36:04.158Z</time></trkpt><trkpt lat="43.9575991" lon="8.1728101"><ele>82.0</ele><time>2026-05-03T16:36:05.157Z</time></trkpt><trkpt lat="43.9574263" lon="8.1729313"><ele>86.66666666666666</ele><time>2026-05-03T16:36:06.158Z</time></trkpt><trkpt lat="43.957249" lon="8.1729883"><ele>91.33333333333333</ele><time>2026-05-03T16:36:07.157Z</time></trkpt><trkpt lat="43.9570833" lon="8.1730096"><ele>96.0</ele><time>2026-05-03T16:36:08.157Z</time></trkpt><trkpt lat="43.9569193" lon="8.1730462"><ele>96.0</ele><time>2026-05-03T16:36:09.157Z</time></trkpt><trkpt lat="43.9567634" lon="8.1730467"><ele>96.0</ele><time>2026-05-03T16:36:10.157Z</time></trkpt><trkpt lat="43.9566122" lon="8.1730619"><ele>96.0</ele><time>2026-05-03T16:36:11.157Z</time></trkpt><trkpt lat="43.9564868" lon="8.1729806"><ele>96.0</ele><time>2026-05-03T16:36:12.157Z</time></trkpt><trkpt lat="43.956363" lon="8.1729232"><ele>97.25</ele><time>2026-05-03T16:36:13.157Z</time></trkpt><trkpt lat="43.9562454" lon="8.172894"><ele>98.5</ele><time>2026-05-03T16:36:14.157Z</time></trkpt><trkpt lat="43.9561276" lon="8.1728528"><ele>99.75</ele><time>2026-05-03T16:36:15.157Z</time></trkpt><trkpt lat="43.9560133" lon="8.1727918"><ele>101.0</ele><time>2026-05-03T16:36:16.157Z</time></trkpt><trkpt lat="43.9558905" lon="8.1727729"><ele>94.0</ele><time>2026-05-03T16:36:17.157Z</time></trkpt><trkpt lat="43.9557353" lon="8.1726806"><ele>87.0</ele><time>2026-05-03T16:36:18.158Z</time></trkpt><trkpt lat="43.9555808" lon="8.172618"><ele>80.0</ele><time>2026-05-03T16:36:19.157Z</time></trkpt><trkpt lat="43.9554109" lon="8.1725585"><ele>80.0</ele><time>2026-05-03T16:36:20.157Z</time></trkpt><trkpt lat="43.9552479" lon="8.1724785"><ele>80.0</ele><time>2026-05-03T16:36:21.159Z</time></trkpt><trkpt lat="43.9551008" lon="8.172357"><ele>80.0</ele><time>2026-05-03T16:36:22.157Z</time></trkpt><trkpt lat="43.9549662" lon="8.1721898"><ele>80.66666666666667</ele><time>2026-05-03T16:36:23.158Z</time></trkpt><trkpt lat="43.9548446" lon="8.1720274"><ele>81.33333333333333</ele><time>2026-05-03T16:36:24.157Z</time></trkpt><trkpt lat="43.9547259" lon="8.1718655"><ele>82.0</ele><time>2026-05-03T16:36:25.157Z</time></trkpt><trkpt lat="43.9546268" lon="8.1716896"><ele>84.66666666666666</ele><time>2026-05-03T16:36:26.157Z</time></trkpt><trkpt lat="43.9545592" lon="8.1714782"><ele>87.33333333333333</ele><time>2026-05-03T16:36:27.157Z</time></trkpt><trkpt lat="43.9544941" lon="8.1712647"><ele>90.0</ele><time>2026-05-03T16:36:28.158Z</time></trkpt><trkpt lat="43.954426" lon="8.1710413"><ele>90.0</ele><time>2026-05-03T16:36:29.157Z</time></trkpt><trkpt lat="43.9543575" lon="8.1708211"><ele>90.0</ele><time>2026-05-03T16:36:30.158Z</time></trkpt><trkpt lat="43.9542941" lon="8.1705997"><ele>90.0</ele><time>2026-05-03T16:36:31.158Z</time></trkpt><trkpt lat="43.9542479" lon="8.1703682"><ele>90.33333333333333</ele><time>2026-05-03T16:36:32.158Z</time></trkpt><trkpt lat="43.954215" lon="8.1701319"><ele>90.66666666666666</ele><time>2026-05-03T16:36:33.157Z</time></trkpt><trkpt lat="43.9541905" lon="8.169897"><ele>91.0</ele><time>2026-05-03T16:36:34.157Z</time></trkpt><trkpt lat="43.954171" lon="8.1696657"><ele>82.0</ele><time>2026-05-03T16:36:35.158Z</time></trkpt><trkpt lat="43.9541501" lon="8.1694446"><ele>73.0</ele><time>2026-05-03T16:36:36.157Z</time></trkpt><trkpt lat="43.9541056" lon="8.1692387"><ele>64.0</ele><time>2026-05-03T16:36:37.157Z</time></trkpt><trkpt lat="43.9540234" lon="8.169055"><ele>70.66666666666666</ele><time>2026-05-03T16:36:38.158Z</time></trkpt><trkpt lat="43.9538972" lon="8.1689081"><ele>77.33333333333333</ele><time>2026-05-03T16:36:39.157Z</time></trkpt><trkpt lat="43.9537631" lon="8.1687773"><ele>84.0</ele><time>2026-05-03T16:36:40.157Z</time></trkpt><trkpt lat="43.95362" lon="8.168649"><ele>84.0</ele><time>2026-05-03T16:36:41.157Z</time></trkpt><trkpt lat="43.9534829" lon="8.1685084"><ele>84.0</ele><time>2026-05-03T16:36:42.157Z</time></trkpt><trkpt lat="43.9533642" lon="8.1683431"><ele>84.0</ele><time>2026-05-03T16:36:43.158Z</time></trkpt><trkpt lat="43.9532672" lon="8.1681476"><ele>77.66666666666667</ele><time>2026-05-03T16:36:44.157Z</time></trkpt><trkpt lat="43.9531763" lon="8.1679331"><ele>71.33333333333334</ele><time>2026-05-03T16:36:45.158Z</time></trkpt><trkpt lat="43.9530941" lon="8.1677034"><ele>65.0</ele><time>2026-05-03T16:36:46.157Z</time></trkpt><trkpt lat="43.9530382" lon="8.1674649"><ele>64.0</ele><time>2026-05-03T16:36:47.157Z</time></trkpt><trkpt lat="43.9530089" lon="8.1672002"><ele>63.0</ele><time>2026-05-03T16:36:48.158Z</time></trkpt><trkpt lat="43.9529832" lon="8.1669243"><ele>62.0</ele><time>2026-05-03T16:36:49.157Z</time></trkpt><trkpt lat="43.9529292" lon="8.1666548"><ele>63.66666666666667</ele><time>2026-05-03T16:36:50.157Z</time></trkpt><trkpt lat="43.9528658" lon="8.1663848"><ele>65.33333333333333</ele><time>2026-05-03T16:36:51.157Z</time></trkpt><trkpt lat="43.9527944" lon="8.1661245"><ele>67.0</ele><time>2026-05-03T16:36:52.157Z</time></trkpt><trkpt lat="43.9527299" lon="8.1658747"><ele>68.33333333333333</ele><time>2026-05-03T16:36:53.157Z</time></trkpt><trkpt lat="43.9526763" lon="8.1656288"><ele>69.66666666666667</ele><time>2026-05-03T16:36:54.158Z</time></trkpt><trkpt lat="43.9526409" lon="8.1653853"><ele>71.0</ele><time>2026-05-03T16:36:55.157Z</time></trkpt><trkpt lat="43.9526131" lon="8.1651522"><ele>71.0</ele><time>2026-05-03T16:36:56.157Z</time></trkpt><trkpt lat="43.9525927" lon="8.1649245"><ele>71.0</ele><time>2026-05-03T16:36:57.157Z</time></trkpt><trkpt lat="43.9525787" lon="8.1647029"><ele>71.0</ele><time>2026-05-03T16:36:58.158Z</time></trkpt><trkpt lat="43.9525853" lon="8.1644766"><ele>68.33333333333334</ele><time>2026-05-03T16:36:59.157Z</time></trkpt><trkpt lat="43.9526098" lon="8.1642544"><ele>65.66666666666667</ele><time>2026-05-03T16:37:00.157Z</time></trkpt><trkpt lat="43.9526487" lon="8.1640362"><ele>63.0</ele><time>2026-05-03T16:37:01.157Z</time></trkpt><trkpt lat="43.9526874" lon="8.1638221"><ele>58.33333333333333</ele><time>2026-05-03T16:37:02.157Z</time></trkpt><trkpt lat="43.9527287" lon="8.1636119"><ele>53.666666666666664</ele><time>2026-05-03T16:37:03.157Z</time></trkpt><trkpt lat="43.9527707" lon="8.1634088"><ele>49.0</ele><time>2026-05-03T16:37:04.157Z</time></trkpt><trkpt lat="43.952813" lon="8.1632068"><ele>45.0</ele><time>2026-05-03T16:37:05.158Z</time></trkpt><trkpt lat="43.9528576" lon="8.1630026"><ele>41.0</ele><time>2026-05-03T16:37:06.157Z</time></trkpt><trkpt lat="43.9528987" lon="8.1627987"><ele>37.0</ele><time>2026-05-03T16:37:07.158Z</time></trkpt><trkpt lat="43.9529379" lon="8.1625983"><ele>37.0</ele><time>2026-05-03T16:37:08.157Z</time></trkpt><trkpt lat="43.9529771" lon="8.1624022"><ele>37.0</ele><time>2026-05-03T16:37:09.157Z</time></trkpt><trkpt lat="43.9530184" lon="8.1621965"><ele>37.0</ele><time>2026-05-03T16:37:10.157Z</time></trkpt><trkpt lat="43.9530618" lon="8.1619709"><ele>36.66666666666667</ele><time>2026-05-03T16:37:11.158Z</time></trkpt><trkpt lat="43.9531095" lon="8.1617289"><ele>36.333333333333336</ele><time>2026-05-03T16:37:12.157Z</time></trkpt><trkpt lat="43.9531602" lon="8.1614818"><ele>36.0</ele><time>2026-05-03T16:37:13.157Z</time></trkpt><trkpt lat="43.953217" lon="8.1612327"><ele>33.0</ele><time>2026-05-03T16:37:14.157Z</time></trkpt><trkpt lat="43.9532744" lon="8.1609899"><ele>30.0</ele><time>2026-05-03T16:37:15.158Z</time></trkpt><trkpt lat="43.953311" lon="8.1607593"><ele>27.0</ele><time>2026-05-03T16:37:16.157Z</time></trkpt><trkpt lat="43.9533131" lon="8.1605351"><ele>26.333333333333336</ele><time>2026-05-03T16:37:17.157Z</time></trkpt><trkpt lat="43.9532918" lon="8.1603185"><ele>25.666666666666668</ele><time>2026-05-03T16:37:18.157Z</time></trkpt><trkpt lat="43.9532561" lon="8.1601171"><ele>25.0</ele><time>2026-05-03T16:37:19.158Z</time></trkpt><trkpt lat="43.953199" lon="8.1599263"><ele>27.666666666666668</ele><time>2026-05-03T16:37:20.157Z</time></trkpt><trkpt lat="43.9531265" lon="8.1597466"><ele>30.333333333333336</ele><time>2026-05-03T16:37:21.158Z</time></trkpt><trkpt lat="43.9530487" lon="8.1595695"><ele>33.0</ele><time>2026-05-03T16:37:22.157Z</time></trkpt><trkpt lat="43.9529721" lon="8.1593825"><ele>33.0</ele><time>2026-05-03T16:37:23.158Z</time></trkpt><trkpt lat="43.9529089" lon="8.1591856"><ele>33.0</ele><time>2026-05-03T16:37:24.157Z</time></trkpt><trkpt lat="43.952853" lon="8.158971"><ele>33.0</ele><time>2026-05-03T16:37:25.158Z</time></trkpt><trkpt lat="43.9528258" lon="8.1587341"><ele>34.666666666666664</ele><time>2026-05-03T16:37:26.157Z</time></trkpt><trkpt lat="43.9528286" lon="8.1584825"><ele>36.33333333333333</ele><time>2026-05-03T16:37:27.157Z</time></trkpt><trkpt lat="43.9528418" lon="8.1582261"><ele>38.0</ele><time>2026-05-03T16:37:28.157Z</time></trkpt><trkpt lat="43.9528456" lon="8.1579757"><ele>39.666666666666664</ele><time>2026-05-03T16:37:29.157Z</time></trkpt><trkpt lat="43.9528217" lon="8.157719"><ele>41.333333333333336</ele><time>2026-05-03T16:37:30.157Z</time></trkpt><trkpt lat="43.9527782" lon="8.1574608"><ele>43.0</ele><time>2026-05-03T16:37:31.157Z</time></trkpt><trkpt lat="43.9527214" lon="8.1572076"><ele>44.0</ele><time>2026-05-03T16:37:32.157Z</time></trkpt><trkpt lat="43.9526593" lon="8.1569571"><ele>45.0</ele><time>2026-05-03T16:37:33.157Z</time></trkpt><trkpt lat="43.9525985" lon="8.1567042"><ele>46.0</ele><time>2026-05-03T16:37:34.158Z</time></trkpt><trkpt lat="43.9525424" lon="8.1564499"><ele>37.0</ele><time>2026-05-03T16:37:35.157Z</time></trkpt><trkpt lat="43.952494" lon="8.1561925"><ele>28.0</ele><time>2026-05-03T16:37:36.157Z</time></trkpt><trkpt lat="43.9524537" lon="8.1559307"><ele>19.0</ele><time>2026-05-03T16:37:37.157Z</time></trkpt><trkpt lat="43.9524185" lon="8.1556673"><ele>19.0</ele><time>2026-05-03T16:37:38.157Z</time></trkpt><trkpt lat="43.9523823" lon="8.155406"><ele>19.0</ele><time>2026-05-03T16:37:39.157Z</time></trkpt><trkpt lat="43.9523429" lon="8.1551465"><ele>19.0</ele><time>2026-05-03T16:37:40.157Z</time></trkpt><trkpt lat="43.9522945" lon="8.1548938"><ele>17.0</ele><time>2026-05-03T16:37:41.157Z</time></trkpt><trkpt lat="43.9522392" lon="8.1546423"><ele>15.0</ele><time>2026-05-03T16:37:42.157Z</time></trkpt><trkpt lat="43.9521765" lon="8.1543934"><ele>13.0</ele><time>2026-05-03T16:37:43.158Z</time></trkpt><trkpt lat="43.9521146" lon="8.1541507"><ele>12.666666666666666</ele><time>2026-05-03T16:37:44.157Z</time></trkpt><trkpt lat="43.9520527" lon="8.1539065"><ele>12.333333333333332</ele><time>2026-05-03T16:37:45.157Z</time></trkpt><trkpt lat="43.9519869" lon="8.1536707"><ele>12.0</ele><time>2026-05-03T16:37:46.158Z</time></trkpt><trkpt lat="43.9519241" lon="8.1534342"><ele>11.333333333333334</ele><time>2026-05-03T16:37:47.157Z</time></trkpt><trkpt lat="43.9518644" lon="8.1532044"><ele>10.666666666666668</ele><time>2026-05-03T16:37:48.157Z</time></trkpt><trkpt lat="43.951811" lon="8.1529876"><ele>10.0</ele><time>2026-05-03T16:37:49.158Z</time></trkpt><trkpt lat="43.9517616" lon="8.1527804"><ele>10.0</ele><time>2026-05-03T16:37:50.157Z</time></trkpt><trkpt lat="43.9517149" lon="8.1525737"><ele>10.0</ele><time>2026-05-03T16:37:51.157Z</time></trkpt><trkpt lat="43.9516707" lon="8.1523806"><ele>10.0</ele><time>2026-05-03T16:37:52.158Z</time></trkpt><trkpt lat="43.9516265" lon="8.1522088"><ele>10.0</ele><time>2026-05-03T16:37:53.157Z</time></trkpt><trkpt lat="43.9515884" lon="8.1520517"><ele>9.5</ele><time>2026-05-03T16:37:54.158Z</time></trkpt><trkpt lat="43.9515535" lon="8.1519093"><ele>9.0</ele><time>2026-05-03T16:37:55.157Z</time></trkpt><trkpt lat="43.9515237" lon="8.1517815"><ele>8.5</ele><time>2026-05-03T16:37:56.158Z</time></trkpt><trkpt lat="43.9515017" lon="8.1516692"><ele>8.0</ele><time>2026-05-03T16:37:57.157Z</time></trkpt><trkpt lat="43.9514948" lon="8.1515665"><ele>7.500000000000001</ele><time>2026-05-03T16:37:58.157Z</time></trkpt><trkpt lat="43.9515036" lon="8.1514707"><ele>7.0</ele><time>2026-05-03T16:37:59.158Z</time></trkpt><trkpt lat="43.9515313" lon="8.1513754"><ele>7.0</ele><time>2026-05-03T16:38:00.158Z</time></trkpt><trkpt lat="43.9515811" lon="8.1512931"><ele>6.999999999999999</ele><time>2026-05-03T16:38:01.157Z</time></trkpt><trkpt lat="43.9516545" lon="8.1512177"><ele>6.999999999999999</ele><time>2026-05-03T16:38:02.157Z</time></trkpt><trkpt lat="43.9517494" lon="8.1511647"><ele>7.0</ele><time>2026-05-03T16:38:03.157Z</time></trkpt><trkpt lat="43.9518632" lon="8.151114"><ele>7.0</ele><time>2026-05-03T16:38:04.157Z</time></trkpt><trkpt lat="43.9519995" lon="8.151063"><ele>7.0</ele><time>2026-05-03T16:38:05.157Z</time></trkpt><trkpt lat="43.9521534" lon="8.1510069"><ele>7.0</ele><time>2026-05-03T16:38:06.158Z</time></trkpt><trkpt lat="43.9523044" lon="8.1509489"><ele>7.0</ele><time>2026-05-03T16:38:07.157Z</time></trkpt><trkpt lat="43.9524577" lon="8.1508931"><ele>8.0</ele><time>2026-05-03T16:38:08.157Z</time></trkpt><trkpt lat="43.9526169" lon="8.1508557"><ele>9.0</ele><time>2026-05-03T16:38:09.157Z</time></trkpt><trkpt lat="43.952776" lon="8.1508292"><ele>10.0</ele><time>2026-05-03T16:38:10.158Z</time></trkpt><trkpt lat="43.9529419" lon="8.1508047"><ele>10.0</ele><time>2026-05-03T16:38:11.157Z</time></trkpt><trkpt lat="43.9531014" lon="8.1507785"><ele>10.0</ele><time>2026-05-03T16:38:12.157Z</time></trkpt><trkpt lat="43.9532681" lon="8.1507455"><ele>10.0</ele><time>2026-05-03T16:38:13.157Z</time></trkpt><trkpt lat="43.9534402" lon="8.1507063"><ele>10.0</ele><time>2026-05-03T16:38:14.157Z</time></trkpt><trkpt lat="43.9536183" lon="8.150669"><ele>10.0</ele><time>2026-05-03T16:38:15.157Z</time></trkpt><trkpt lat="43.9537789" lon="8.1506424"><ele>10.0</ele><time>2026-05-03T16:38:16.157Z</time></trkpt><trkpt lat="43.9539326" lon="8.1506335"><ele>10.0</ele><time>2026-05-03T16:38:17.157Z</time></trkpt><trkpt lat="43.9540732" lon="8.1506388"><ele>10.0</ele><time>2026-05-03T16:38:18.157Z</time></trkpt><trkpt lat="43.9541976" lon="8.1506327"><ele>10.0</ele><time>2026-05-03T16:38:19.157Z</time></trkpt><trkpt lat="43.9543128" lon="8.1506097"><ele>10.0</ele><time>2026-05-03T16:38:20.157Z</time></trkpt><trkpt lat="43.9544127" lon="8.1505631"><ele>11.0</ele><time>2026-05-03T16:38:21.157Z</time></trkpt><trkpt lat="43.9544759" lon="8.150489"><ele>12.0</ele><time>2026-05-03T16:38:22.157Z</time></trkpt><trkpt lat="43.9545467" lon="8.150435"><ele>13.0</ele><time>2026-05-03T16:38:23.157Z</time></trkpt><trkpt lat="43.9545879" lon="8.1503507"><ele>14.0</ele><time>2026-05-03T16:38:24.157Z</time></trkpt><trkpt lat="43.9545061" lon="8.150266"><ele>15.0</ele><time>2026-05-03T16:38:25.157Z</time></trkpt><trkpt lat="43.9543675" lon="8.1500809"><ele>15.0</ele><time>2026-05-03T16:38:26.157Z</time></trkpt><trkpt lat="43.9543211" lon="8.1499217"><ele>15.0</ele><time>2026-05-03T16:38:27.157Z</time></trkpt><trkpt lat="43.954276" lon="8.1497491"><ele>15.0</ele><time>2026-05-03T16:38:28.158Z</time></trkpt><trkpt lat="43.9542348" lon="8.1495544"><ele>15.0</ele><time>2026-05-03T16:38:29.158Z</time></trkpt><trkpt lat="43.9541929" lon="8.1493775"><ele>13.5</ele><time>2026-05-03T16:38:30.157Z</time></trkpt><trkpt lat="43.9541516" lon="8.1492036"><ele>12.0</ele><time>2026-05-03T16:38:31.157Z</time></trkpt><trkpt lat="43.954125" lon="8.1490385"><ele>10.5</ele><time>2026-05-03T16:38:32.157Z</time></trkpt><trkpt lat="43.9541056" lon="8.1488806"><ele>9.0</ele><time>2026-05-03T16:38:33.157Z</time></trkpt><trkpt lat="43.954103" lon="8.1487375"><ele>9.0</ele><time>2026-05-03T16:38:34.157Z</time></trkpt><trkpt lat="43.9541121" lon="8.148599"><ele>9.0</ele><time>2026-05-03T16:38:35.157Z</time></trkpt><trkpt lat="43.954134" lon="8.1484652"><ele>9.0</ele><time>2026-05-03T16:38:36.157Z</time></trkpt><trkpt lat="43.9541753" lon="8.1483413"><ele>9.0</ele><time>2026-05-03T16:38:37.157Z</time></trkpt><trkpt lat="43.954237" lon="8.1482364"><ele>9.0</ele><time>2026-05-03T16:38:38.157Z</time></trkpt><trkpt lat="43.954319" lon="8.1481477"><ele>8.5</ele><time>2026-05-03T16:38:39.157Z</time></trkpt><trkpt lat="43.9544162" lon="8.1480623"><ele>8.0</ele><time>2026-05-03T16:38:40.157Z</time></trkpt><trkpt lat="43.9545312" lon="8.1479796"><ele>7.5</ele><time>2026-05-03T16:38:41.157Z</time></trkpt><trkpt lat="43.9546612" lon="8.1478918"><ele>7.0</ele><time>2026-05-03T16:38:42.157Z</time></trkpt><trkpt lat="43.9548026" lon="8.1477981"><ele>7.0</ele><time>2026-05-03T16:38:43.157Z</time></trkpt><trkpt lat="43.9549571" lon="8.1476939"><ele>7.0</ele><time>2026-05-03T16:38:44.157Z</time></trkpt><trkpt lat="43.9551159" lon="8.147595"><ele>7.0</ele><time>2026-05-03T16:38:45.157Z</time></trkpt><trkpt lat="43.9552758" lon="8.1474992"><ele>7.333333333333334</ele><time>2026-05-03T16:38:46.157Z</time></trkpt><trkpt lat="43.9554425" lon="8.147402"><ele>7.666666666666666</ele><time>2026-05-03T16:38:47.157Z</time></trkpt><trkpt lat="43.9555879" lon="8.1473045"><ele>8.0</ele><time>2026-05-03T16:38:48.157Z</time></trkpt><trkpt lat="43.9557139" lon="8.1472214"><ele>8.0</ele><time>2026-05-03T16:38:49.157Z</time></trkpt><trkpt lat="43.9558195" lon="8.1471585"><ele>8.0</ele><time>2026-05-03T16:38:50.157Z</time></trkpt><trkpt lat="43.9559208" lon="8.1470904"><ele>8.0</ele><time>2026-05-03T16:38:51.157Z</time></trkpt><trkpt lat="43.9560202" lon="8.1470203"><ele>8.0</ele><time>2026-05-03T16:38:52.158Z</time></trkpt><trkpt lat="43.9561318" lon="8.1469406"><ele>7.75</ele><time>2026-05-03T16:38:53.157Z</time></trkpt><trkpt lat="43.9562504" lon="8.1468569"><ele>7.5</ele><time>2026-05-03T16:38:54.157Z</time></trkpt><trkpt lat="43.9563884" lon="8.1467667"><ele>7.25</ele><time>2026-05-03T16:38:55.158Z</time></trkpt><trkpt lat="43.9565378" lon="8.1466825"><ele>7.0</ele><time>2026-05-03T16:38:56.157Z</time></trkpt><trkpt lat="43.9566889" lon="8.1465956"><ele>6.666666666666667</ele><time>2026-05-03T16:38:57.157Z</time></trkpt><trkpt lat="43.9568376" lon="8.1465069"><ele>6.333333333333334</ele><time>2026-05-03T16:38:58.157Z</time></trkpt><trkpt lat="43.9569843" lon="8.1464139"><ele>6.0</ele><time>2026-05-03T16:38:59.157Z</time></trkpt><trkpt lat="43.9571316" lon="8.1463157"><ele>6.0</ele><time>2026-05-03T16:39:00.157Z</time></trkpt><trkpt lat="43.9572774" lon="8.1462257"><ele>6.0</ele><time>2026-05-03T16:39:01.157Z</time></trkpt><trkpt lat="43.9574244" lon="8.1461366"><ele>6.0</ele><time>2026-05-03T16:39:02.157Z</time></trkpt><trkpt lat="43.9575719" lon="8.1460447"><ele>6.333333333333334</ele><time>2026-05-03T16:39:03.157Z</time></trkpt><trkpt lat="43.9577218" lon="8.1459538"><ele>6.666666666666667</ele><time>2026-05-03T16:39:04.158Z</time></trkpt><trkpt lat="43.957876" lon="8.1458574"><ele>7.0</ele><time>2026-05-03T16:39:05.157Z</time></trkpt><trkpt lat="43.9580323" lon="8.1457573"><ele>7.333333333333334</ele><time>2026-05-03T16:39:06.157Z</time></trkpt><trkpt lat="43.9581889" lon="8.1456606"><ele>7.666666666666666</ele><time>2026-05-03T16:39:07.158Z</time></trkpt><trkpt lat="43.9583406" lon="8.1455635"><ele>8.0</ele><time>2026-05-03T16:39:08.158Z</time></trkpt><trkpt lat="43.9584895" lon="8.1454648"><ele>8.333333333333332</ele><time>2026-05-03T16:39:09.158Z</time></trkpt><trkpt lat="43.9586344" lon="8.1453728"><ele>8.666666666666666</ele><time>2026-05-03T16:39:10.157Z</time></trkpt><trkpt lat="43.9587754" lon="8.1452891"><ele>9.0</ele><time>2026-05-03T16:39:11.157Z</time></trkpt><trkpt lat="43.9589128" lon="8.1452043"><ele>9.0</ele><time>2026-05-03T16:39:12.157Z</time></trkpt><trkpt lat="43.9590534" lon="8.1451207"><ele>9.0</ele><time>2026-05-03T16:39:13.157Z</time></trkpt><trkpt lat="43.9591975" lon="8.1450316"><ele>9.0</ele><time>2026-05-03T16:39:14.157Z</time></trkpt><trkpt lat="43.9593443" lon="8.1449396"><ele>9.333333333333334</ele><time>2026-05-03T16:39:15.157Z</time></trkpt><trkpt lat="43.9594921" lon="8.1448412"><ele>9.666666666666668</ele><time>2026-05-03T16:39:16.158Z</time></trkpt><trkpt lat="43.95964" lon="8.1447434"><ele>10.0</ele><time>2026-05-03T16:39:17.157Z</time></trkpt><trkpt lat="43.9597862" lon="8.1446489"><ele>10.0</ele><time>2026-05-03T16:39:18.157Z</time></trkpt><trkpt lat="43.9599284" lon="8.1445578"><ele>10.0</ele><time>2026-05-03T16:39:19.157Z</time></trkpt><trkpt lat="43.9600672" lon="8.1444678"><ele>10.0</ele><time>2026-05-03T16:39:20.159Z</time></trkpt><trkpt lat="43.960201" lon="8.1443787"><ele>10.25</ele><time>2026-05-03T16:39:21.158Z</time></trkpt><trkpt lat="43.9603293" lon="8.1442894"><ele>10.5</ele><time>2026-05-03T16:39:22.158Z</time></trkpt><trkpt lat="43.9604542" lon="8.1441968"><ele>10.75</ele><time>2026-05-03T16:39:23.158Z</time></trkpt><trkpt lat="43.9605716" lon="8.1441002"><ele>11.0</ele><time>2026-05-03T16:39:24.158Z</time></trkpt><trkpt lat="43.9606791" lon="8.1440056"><ele>10.8</ele><time>2026-05-03T16:39:25.159Z</time></trkpt><trkpt lat="43.9607708" lon="8.1439194"><ele>10.600000000000001</ele><time>2026-05-03T16:39:26.158Z</time></trkpt><trkpt lat="43.9608482" lon="8.1438452"><ele>10.4</ele><time>2026-05-03T16:39:27.158Z</time></trkpt><trkpt lat="43.9609085" lon="8.1437894"><ele>10.2</ele><time>2026-05-03T16:39:28.158Z</time></trkpt><trkpt lat="43.9610049" lon="8.143705"><ele>10.0</ele><time>2026-05-03T16:39:30.158Z</time></trkpt><trkpt lat="43.9610736" lon="8.1436373"><ele>10.0</ele><time>2026-05-03T16:39:32.158Z</time></trkpt><trkpt lat="43.961167" lon="8.1435552"><ele>10.0</ele><time>2026-05-03T16:39:34.159Z</time></trkpt><trkpt lat="43.9612329" lon="8.1434997"><ele>10.0</ele><time>2026-05-03T16:39:35.159Z</time></trkpt><trkpt lat="43.9612981" lon="8.1434436"><ele>10.0</ele><time>2026-05-03T16:39:36.159Z</time></trkpt><trkpt lat="43.9613856" lon="8.1433621"><ele>10.0</ele><time>2026-05-03T16:39:37.158Z</time></trkpt><trkpt lat="43.9614912" lon="8.1432579"><ele>10.0</ele><time>2026-05-03T16:39:38.158Z</time></trkpt><trkpt lat="43.9616112" lon="8.143147"><ele>10.0</ele><time>2026-05-03T16:39:39.158Z</time></trkpt><trkpt lat="43.9617372" lon="8.143036"><ele>10.0</ele><time>2026-05-03T16:39:40.158Z</time></trkpt><trkpt lat="43.9618654" lon="8.1429254"><ele>10.0</ele><time>2026-05-03T16:39:41.158Z</time></trkpt><trkpt lat="43.9620056" lon="8.1428056"><ele>10.25</ele><time>2026-05-03T16:39:42.158Z</time></trkpt><trkpt lat="43.9621411" lon="8.1426851"><ele>10.5</ele><time>2026-05-03T16:39:43.159Z</time></trkpt><trkpt lat="43.9622624" lon="8.1425773"><ele>10.75</ele><time>2026-05-03T16:39:44.159Z</time></trkpt><trkpt lat="43.9623736" lon="8.1424765"><ele>11.0</ele><time>2026-05-03T16:39:45.159Z</time></trkpt><trkpt lat="43.9624708" lon="8.1423825"><ele>10.0</ele><time>2026-05-03T16:39:46.158Z</time></trkpt><trkpt lat="43.9625654" lon="8.1422897"><ele>9.0</ele><time>2026-05-03T16:39:47.158Z</time></trkpt><trkpt lat="43.962666" lon="8.1421969"><ele>8.0</ele><time>2026-05-03T16:39:48.159Z</time></trkpt><trkpt lat="43.9627892" lon="8.1421115"><ele>7.0</ele><time>2026-05-03T16:39:49.158Z</time></trkpt><trkpt lat="43.9629289" lon="8.1420306"><ele>7.0</ele><time>2026-05-03T16:39:50.158Z</time></trkpt><trkpt lat="43.9630821" lon="8.1419689"><ele>7.0</ele><time>2026-05-03T16:39:51.158Z</time></trkpt><trkpt lat="43.9632392" lon="8.1419379"><ele>7.0</ele><time>2026-05-03T16:39:52.158Z</time></trkpt><trkpt lat="43.9634098" lon="8.1419208"><ele>9.333333333333334</ele><time>2026-05-03T16:39:53.159Z</time></trkpt><trkpt lat="43.9635897" lon="8.1419041"><ele>11.666666666666668</ele><time>2026-05-03T16:39:54.158Z</time></trkpt><trkpt lat="43.9637751" lon="8.1418784"><ele>14.0</ele><time>2026-05-03T16:39:55.159Z</time></trkpt><trkpt lat="43.9639585" lon="8.1418569"><ele>14.0</ele><time>2026-05-03T16:39:56.158Z</time></trkpt><trkpt lat="43.964141" lon="8.1418416"><ele>14.0</ele><time>2026-05-03T16:39:57.158Z</time></trkpt><trkpt lat="43.9643204" lon="8.1418223"><ele>14.0</ele><time>2026-05-03T16:39:58.159Z</time></trkpt><trkpt lat="43.9644954" lon="8.1417972"><ele>14.0</ele><time>2026-05-03T16:39:59.158Z</time></trkpt><trkpt lat="43.9646599" lon="8.1417732"><ele>14.0</ele><time>2026-05-03T16:40:00.158Z</time></trkpt><trkpt lat="43.9648115" lon="8.1417527"><ele>14.0</ele><time>2026-05-03T16:40:01.158Z</time></trkpt><trkpt lat="43.9649529" lon="8.1417347"><ele>14.2</ele><time>2026-05-03T16:40:02.158Z</time></trkpt><trkpt lat="43.9650895" lon="8.1417249"><ele>14.399999999999999</ele><time>2026-05-03T16:40:03.159Z</time></trkpt><trkpt lat="43.9652127" lon="8.1417194"><ele>14.6</ele><time>2026-05-03T16:40:04.158Z</time></trkpt><trkpt lat="43.9652899" lon="8.1417007"><ele>14.8</ele><time>2026-05-03T16:40:05.158Z</time></trkpt><trkpt lat="43.9653634" lon="8.1416854"><ele>15.0</ele><time>2026-05-03T16:40:06.158Z</time></trkpt><trkpt lat="43.9654358" lon="8.1416817"><ele>15.0</ele><time>2026-05-03T16:40:07.158Z</time></trkpt><trkpt lat="43.965503" lon="8.1417025"><ele>15.0</ele><time>2026-05-03T16:40:08.158Z</time></trkpt><trkpt lat="43.9656172" lon="8.1417789"><ele>15.0</ele><time>2026-05-03T16:40:10.158Z</time></trkpt><trkpt lat="43.9656834" lon="8.1418125"><ele>15.0</ele><time>2026-05-03T16:40:11.158Z</time></trkpt><trkpt lat="43.9657557" lon="8.1418086"><ele>15.0</ele><time>2026-05-03T16:40:12.158Z</time></trkpt><trkpt lat="43.9658181" lon="8.141763"><ele>15.0</ele><time>2026-05-03T16:40:13.158Z</time></trkpt><trkpt lat="43.9658609" lon="8.1416763"><ele>14.8</ele><time>2026-05-03T16:40:14.159Z</time></trkpt><trkpt lat="43.9658673" lon="8.1415721"><ele>14.6</ele><time>2026-05-03T16:40:15.158Z</time></trkpt><trkpt lat="43.9658343" lon="8.1414721"><ele>14.399999999999999</ele><time>2026-05-03T16:40:16.158Z</time></trkpt><trkpt lat="43.9657675" lon="8.1413911"><ele>14.2</ele><time>2026-05-03T16:40:17.158Z</time></trkpt><trkpt lat="43.9656667" lon="8.141329"><ele>14.0</ele><time>2026-05-03T16:40:18.159Z</time></trkpt><trkpt lat="43.9655687" lon="8.1412535"><ele>13.666666666666668</ele><time>2026-05-03T16:40:19.158Z</time></trkpt><trkpt lat="43.9655039" lon="8.1411499"><ele>13.333333333333334</ele><time>2026-05-03T16:40:20.158Z</time></trkpt><trkpt lat="43.9654744" lon="8.1410478"><ele>13.0</ele><time>2026-05-03T16:40:21.158Z</time></trkpt><trkpt lat="43.9654865" lon="8.1409551"><ele>12.666666666666668</ele><time>2026-05-03T16:40:22.159Z</time></trkpt><trkpt lat="43.9655384" lon="8.1408687"><ele>12.333333333333334</ele><time>2026-05-03T16:40:23.158Z</time></trkpt><trkpt lat="43.9656169" lon="8.1407663"><ele>12.0</ele><time>2026-05-03T16:40:24.158Z</time></trkpt><trkpt lat="43.9657071" lon="8.1406336"><ele>11.666666666666666</ele><time>2026-05-03T16:40:25.158Z</time></trkpt><trkpt lat="43.9658046" lon="8.1404736"><ele>11.333333333333332</ele><time>2026-05-03T16:40:26.159Z</time></trkpt><trkpt lat="43.9659088" lon="8.1403168"><ele>11.0</ele><time>2026-05-03T16:40:27.158Z</time></trkpt><trkpt lat="43.9660182" lon="8.1401622"><ele>11.0</ele><time>2026-05-03T16:40:28.158Z</time></trkpt><trkpt lat="43.9661496" lon="8.1399951"><ele>11.0</ele><time>2026-05-03T16:40:29.158Z</time></trkpt><trkpt lat="43.9663045" lon="8.1398461"><ele>11.0</ele><time>2026-05-03T16:40:30.159Z</time></trkpt><trkpt lat="43.9664577" lon="8.1397289"><ele>10.666666666666666</ele><time>2026-05-03T16:40:31.158Z</time></trkpt><trkpt lat="43.9666008" lon="8.1395987"><ele>10.333333333333334</ele><time>2026-05-03T16:40:32.158Z</time></trkpt><trkpt lat="43.9667246" lon="8.1394229"><ele>10.0</ele><time>2026-05-03T16:40:33.158Z</time></trkpt><trkpt lat="43.9668143" lon="8.1392366"><ele>10.0</ele><time>2026-05-03T16:40:34.158Z</time></trkpt><trkpt lat="43.9669031" lon="8.1390835"><ele>10.0</ele><time>2026-05-03T16:40:35.158Z</time></trkpt><trkpt lat="43.9670187" lon="8.1389768"><ele>10.0</ele><time>2026-05-03T16:40:36.158Z</time></trkpt><trkpt lat="43.967164" lon="8.1389019"><ele>10.0</ele><time>2026-05-03T16:40:37.158Z</time></trkpt><trkpt lat="43.9673227" lon="8.1388228"><ele>10.0</ele><time>2026-05-03T16:40:38.158Z</time></trkpt><trkpt lat="43.9674807" lon="8.1387131"><ele>10.0</ele><time>2026-05-03T16:40:39.158Z</time></trkpt><trkpt lat="43.9676412" lon="8.1385823"><ele>10.0</ele><time>2026-05-03T16:40:40.159Z</time></trkpt><trkpt lat="43.9678048" lon="8.1384413"><ele>10.0</ele><time>2026-05-03T16:40:41.158Z</time></trkpt><trkpt lat="43.967966" lon="8.1382843"><ele>10.0</ele><time>2026-05-03T16:40:42.158Z</time></trkpt><trkpt lat="43.968124" lon="8.1381137"><ele>10.0</ele><time>2026-05-03T16:40:43.158Z</time></trkpt><trkpt lat="43.9682732" lon="8.1379396"><ele>11.0</ele><time>2026-05-03T16:40:44.158Z</time></trkpt><trkpt lat="43.9684121" lon="8.1377634"><ele>12.0</ele><time>2026-05-03T16:40:45.158Z</time></trkpt><trkpt lat="43.9685545" lon="8.1375841"><ele>13.0</ele><time>2026-05-03T16:40:46.158Z</time></trkpt><trkpt lat="43.9687004" lon="8.1374108"><ele>12.333333333333332</ele><time>2026-05-03T16:40:47.158Z</time></trkpt><trkpt lat="43.9688468" lon="8.1372416"><ele>11.666666666666666</ele><time>2026-05-03T16:40:48.158Z</time></trkpt><trkpt lat="43.9689894" lon="8.1370746"><ele>11.0</ele><time>2026-05-03T16:40:49.158Z</time></trkpt><trkpt lat="43.9691261" lon="8.1369086"><ele>11.666666666666666</ele><time>2026-05-03T16:40:50.159Z</time></trkpt><trkpt lat="43.9692528" lon="8.1367504"><ele>12.333333333333332</ele><time>2026-05-03T16:40:51.159Z</time></trkpt><trkpt lat="43.9693712" lon="8.1366043"><ele>13.0</ele><time>2026-05-03T16:40:52.158Z</time></trkpt><trkpt lat="43.9694874" lon="8.1364641"><ele>13.0</ele><time>2026-05-03T16:40:53.158Z</time></trkpt><trkpt lat="43.9696034" lon="8.1363269"><ele>13.0</ele><time>2026-05-03T16:40:54.159Z</time></trkpt><trkpt lat="43.9697215" lon="8.136194"><ele>13.0</ele><time>2026-05-03T16:40:55.158Z</time></trkpt><trkpt lat="43.969843" lon="8.1360692"><ele>13.0</ele><time>2026-05-03T16:40:56.158Z</time></trkpt><trkpt lat="43.9699638" lon="8.1359692"><ele>13.0</ele><time>2026-05-03T16:40:57.158Z</time></trkpt><trkpt lat="43.9700884" lon="8.1359023"><ele>13.0</ele><time>2026-05-03T16:40:58.158Z</time></trkpt><trkpt lat="43.9702211" lon="8.1358622"><ele>13.0</ele><time>2026-05-03T16:40:59.158Z</time></trkpt><trkpt lat="43.9703609" lon="8.1358385"><ele>13.333333333333332</ele><time>2026-05-03T16:41:00.159Z</time></trkpt><trkpt lat="43.9705073" lon="8.1358365"><ele>13.666666666666668</ele><time>2026-05-03T16:41:01.159Z</time></trkpt><trkpt lat="43.9706566" lon="8.1358685"><ele>14.0</ele><time>2026-05-03T16:41:02.158Z</time></trkpt><trkpt lat="43.9708103" lon="8.1359156"><ele>14.333333333333334</ele><time>2026-05-03T16:41:03.159Z</time></trkpt><trkpt lat="43.9709721" lon="8.1359492"><ele>14.666666666666668</ele><time>2026-05-03T16:41:04.158Z</time></trkpt><trkpt lat="43.9711388" lon="8.1359746"><ele>15.0</ele><time>2026-05-03T16:41:05.159Z</time></trkpt><trkpt lat="43.9713064" lon="8.1359978"><ele>15.0</ele><time>2026-05-03T16:41:06.159Z</time></trkpt><trkpt lat="43.9714758" lon="8.1360135"><ele>15.0</ele><time>2026-05-03T16:41:07.158Z</time></trkpt><trkpt lat="43.9716476" lon="8.1360119"><ele>15.0</ele><time>2026-05-03T16:41:08.158Z</time></trkpt><trkpt lat="43.9718167" lon="8.1360001"><ele>15.333333333333332</ele><time>2026-05-03T16:41:09.158Z</time></trkpt><trkpt lat="43.9719818" lon="8.1359935"><ele>15.666666666666666</ele><time>2026-05-03T16:41:10.159Z</time></trkpt><trkpt lat="43.9721445" lon="8.1360006"><ele>16.0</ele><time>2026-05-03T16:41:11.158Z</time></trkpt><trkpt lat="43.9723027" lon="8.1360189"><ele>16.0</ele><time>2026-05-03T16:41:12.158Z</time></trkpt><trkpt lat="43.9724509" lon="8.1360332"><ele>16.0</ele><time>2026-05-03T16:41:13.159Z</time></trkpt><trkpt lat="43.9725877" lon="8.1360303"><ele>16.0</ele><time>2026-05-03T16:41:14.158Z</time></trkpt><trkpt lat="43.972714" lon="8.1360062"><ele>16.0</ele><time>2026-05-03T16:41:15.158Z</time></trkpt><trkpt lat="43.9728278" lon="8.135969"><ele>18.0</ele><time>2026-05-03T16:41:16.159Z</time></trkpt><trkpt lat="43.972928" lon="8.1359273"><ele>18.0</ele><time>2026-05-03T16:41:17.158Z</time></trkpt><trkpt lat="43.9730114" lon="8.1358918"><ele>18.0</ele><time>2026-05-03T16:41:18.158Z</time></trkpt><trkpt lat="43.9730764" lon="8.1358768"><ele>18.0</ele><time>2026-05-03T16:41:19.158Z</time></trkpt><trkpt lat="43.9731622" lon="8.135919"><ele>18.0</ele><time>2026-05-03T16:41:21.158Z</time></trkpt><trkpt lat="43.9732129" lon="8.1359819"><ele>18.0</ele><time>2026-05-03T16:41:23.158Z</time></trkpt></trkseg></trk></gpx>